<?xml version='1.0' encoding='UTF-8'?><gpx version="1.1" creator="JPX - https://github.com/jenetics/jpx" xmlns="http://www.topografix.com/GPX/1/1"><trk><trkseg><trkpt lat="44.2062833" lon="12.0786717"><ele>26.0</ele><time>2026-04-30T08:03:21.642Z</time></trkpt><trkpt lat="44.2062117" lon="12.0787567"><ele>26.0</ele><time>2026-04-30T08:03:51.644Z</time></trkpt><trkpt lat="44.20619" lon="12.0788733"><ele>26.0</ele><time>2026-04-30T08:04:08.642Z</time></trkpt><trkpt lat="44.20615" lon="12.0789817"><ele>26.0</ele><time>2026-04-30T08:04:11.641Z</time></trkpt><trkpt lat="44.2061217" lon="12.0791017"><ele>26.0</ele><time>2026-04-30T08:04:14.643Z</time></trkpt><trkpt lat="44.2060883" lon="12.079225"><ele>25.833333333333332</ele><time>2026-04-30T08:04:16.642Z</time></trkpt><trkpt lat="44.2060317" lon="12.0793717"><ele>25.666666666666664</ele><time>2026-04-30T08:04:18.638Z</time></trkpt><trkpt lat="44.2059967" lon="12.0794567"><ele>25.5</ele><time>2026-04-30T08:04:19.645Z</time></trkpt><trkpt lat="44.2059617" lon="12.0795517"><ele>25.333333333333336</ele><time>2026-04-30T08:04:20.64Z</time></trkpt><trkpt lat="44.2059233" lon="12.07965"><ele>25.166666666666668</ele><time>2026-04-30T08:04:21.642Z</time></trkpt><trkpt lat="44.20588" lon="12.0797433"><ele>25.0</ele><time>2026-04-30T08:04:22.646Z</time></trkpt><trkpt lat="44.2058433" lon="12.0798317"><ele>25.000000000000004</ele><time>2026-04-30T08:04:23.642Z</time></trkpt><trkpt lat="44.2058067" lon="12.0799217"><ele>25.0</ele><time>2026-04-30T08:04:24.652Z</time></trkpt><trkpt lat="44.2057667" lon="12.0800083"><ele>25.0</ele><time>2026-04-30T08:04:25.641Z</time></trkpt><trkpt lat="44.2057283" lon="12.0800933"><ele>25.0</ele><time>2026-04-30T08:04:26.644Z</time></trkpt><trkpt lat="44.205685" lon="12.0801833"><ele>25.000000000000004</ele><time>2026-04-30T08:04:27.642Z</time></trkpt><trkpt lat="44.2056433" lon="12.08029"><ele>25.0</ele><time>2026-04-30T08:04:28.648Z</time></trkpt><trkpt lat="44.2055983" lon="12.0803983"><ele>25.0</ele><time>2026-04-30T08:04:29.643Z</time></trkpt><trkpt lat="44.205555" lon="12.080505"><ele>25.0</ele><time>2026-04-30T08:04:30.642Z</time></trkpt><trkpt lat="44.20551" lon="12.0806117"><ele>25.0</ele><time>2026-04-30T08:04:31.642Z</time></trkpt><trkpt lat="44.2054617" lon="12.08072"><ele>25.0</ele><time>2026-04-30T08:04:32.642Z</time></trkpt><trkpt lat="44.20542" lon="12.0808283"><ele>25.0</ele><time>2026-04-30T08:04:33.649Z</time></trkpt><trkpt lat="44.205375" lon="12.0809433"><ele>25.2</ele><time>2026-04-30T08:04:34.643Z</time></trkpt><trkpt lat="44.2053267" lon="12.0810533"><ele>25.4</ele><time>2026-04-30T08:04:35.65Z</time></trkpt><trkpt lat="44.205275" lon="12.0811683"><ele>25.6</ele><time>2026-04-30T08:04:36.641Z</time></trkpt><trkpt lat="44.205225" lon="12.0812867"><ele>25.8</ele><time>2026-04-30T08:04:37.639Z</time></trkpt><trkpt lat="44.205175" lon="12.0814017"><ele>26.0</ele><time>2026-04-30T08:04:38.646Z</time></trkpt><trkpt lat="44.2051233" lon="12.0815167"><ele>26.0</ele><time>2026-04-30T08:04:39.652Z</time></trkpt><trkpt lat="44.2050767" lon="12.0816383"><ele>26.0</ele><time>2026-04-30T08:04:40.641Z</time></trkpt><trkpt lat="44.2050317" lon="12.0817533"><ele>26.0</ele><time>2026-04-30T08:04:41.644Z</time></trkpt><trkpt lat="44.2049883" lon="12.08187"><ele>26.0</ele><time>2026-04-30T08:04:42.639Z</time></trkpt><trkpt lat="44.204945" lon="12.0819767"><ele>26.0</ele><time>2026-04-30T08:04:43.64Z</time></trkpt><trkpt lat="44.2049" lon="12.08208"><ele>25.999999999999996</ele><time>2026-04-30T08:04:44.638Z</time></trkpt><trkpt lat="44.2048567" lon="12.082175"><ele>26.0</ele><time>2026-04-30T08:04:45.639Z</time></trkpt><trkpt lat="44.2048167" lon="12.0822767"><ele>26.0</ele><time>2026-04-30T08:04:46.639Z</time></trkpt><trkpt lat="44.2047767" lon="12.0823767"><ele>26.0</ele><time>2026-04-30T08:04:47.642Z</time></trkpt><trkpt lat="44.2047333" lon="12.082475"><ele>25.999999999999996</ele><time>2026-04-30T08:04:48.648Z</time></trkpt><trkpt lat="44.2046933" lon="12.0825717"><ele>26.0</ele><time>2026-04-30T08:04:49.639Z</time></trkpt><trkpt lat="44.2046533" lon="12.082655"><ele>25.999999999999996</ele><time>2026-04-30T08:04:50.642Z</time></trkpt><trkpt lat="44.20459" lon="12.0827783"><ele>26.0</ele><time>2026-04-30T08:04:52.643Z</time></trkpt><trkpt lat="44.2045517" lon="12.0828617"><ele>26.0</ele><time>2026-04-30T08:04:54.639Z</time></trkpt><trkpt lat="44.2045183" lon="12.0829467"><ele>26.0</ele><time>2026-04-30T08:04:57.642Z</time></trkpt><trkpt lat="44.2044867" lon="12.0830283"><ele>25.999999999999996</ele><time>2026-04-30T08:05:00.64Z</time></trkpt><trkpt lat="44.2044617" lon="12.0831133"><ele>26.0</ele><time>2026-04-30T08:05:05.639Z</time></trkpt><trkpt lat="44.204445" lon="12.0832183"><ele>26.0</ele><time>2026-04-30T08:05:11.644Z</time></trkpt><trkpt lat="44.2043867" lon="12.083375"><ele>26.0</ele><time>2026-04-30T08:05:13.642Z</time></trkpt><trkpt lat="44.2043433" lon="12.0834717"><ele>26.0</ele><time>2026-04-30T08:05:14.644Z</time></trkpt><trkpt lat="44.204305" lon="12.083575"><ele>26.0</ele><time>2026-04-30T08:05:15.641Z</time></trkpt><trkpt lat="44.2042683" lon="12.0836817"><ele>26.0</ele><time>2026-04-30T08:05:16.638Z</time></trkpt><trkpt lat="44.2042267" lon="12.0837883"><ele>26.0</ele><time>2026-04-30T08:05:17.638Z</time></trkpt><trkpt lat="44.2041767" lon="12.0838983"><ele>26.0</ele><time>2026-04-30T08:05:18.648Z</time></trkpt><trkpt lat="44.2041267" lon="12.0840117"><ele>26.0</ele><time>2026-04-30T08:05:19.642Z</time></trkpt><trkpt lat="44.2040767" lon="12.08413"><ele>26.0</ele><time>2026-04-30T08:05:20.643Z</time></trkpt><trkpt lat="44.2040267" lon="12.0842467"><ele>26.0</ele><time>2026-04-30T08:05:21.646Z</time></trkpt><trkpt lat="44.2039733" lon="12.084365"><ele>25.8</ele><time>2026-04-30T08:05:22.644Z</time></trkpt><trkpt lat="44.2039267" lon="12.0844733"><ele>25.6</ele><time>2026-04-30T08:05:23.641Z</time></trkpt><trkpt lat="44.2038783" lon="12.08459"><ele>25.4</ele><time>2026-04-30T08:05:24.642Z</time></trkpt><trkpt lat="44.2038233" lon="12.08471"><ele>25.2</ele><time>2026-04-30T08:05:25.639Z</time></trkpt><trkpt lat="44.2037617" lon="12.0848433"><ele>25.0</ele><time>2026-04-30T08:05:26.641Z</time></trkpt><trkpt lat="44.2037017" lon="12.0849783"><ele>24.6</ele><time>2026-04-30T08:05:27.643Z</time></trkpt><trkpt lat="44.2036467" lon="12.08511"><ele>24.2</ele><time>2026-04-30T08:05:28.643Z</time></trkpt><trkpt lat="44.2035933" lon="12.0852383"><ele>23.799999999999997</ele><time>2026-04-30T08:05:29.639Z</time></trkpt><trkpt lat="44.2035417" lon="12.0853633"><ele>23.4</ele><time>2026-04-30T08:05:30.638Z</time></trkpt><trkpt lat="44.2034967" lon="12.0854867"><ele>23.0</ele><time>2026-04-30T08:05:31.639Z</time></trkpt><trkpt lat="44.2034517" lon="12.0856083"><ele>23.0</ele><time>2026-04-30T08:05:32.64Z</time></trkpt><trkpt lat="44.2034083" lon="12.0857283"><ele>23.0</ele><time>2026-04-30T08:05:33.641Z</time></trkpt><trkpt lat="44.20336" lon="12.085845"><ele>23.0</ele><time>2026-04-30T08:05:34.638Z</time></trkpt><trkpt lat="44.203305" lon="12.0859717"><ele>23.0</ele><time>2026-04-30T08:05:35.648Z</time></trkpt><trkpt lat="44.2032467" lon="12.0860983"><ele>23.0</ele><time>2026-04-30T08:05:36.64Z</time></trkpt><trkpt lat="44.20319" lon="12.0862267"><ele>22.4</ele><time>2026-04-30T08:05:37.643Z</time></trkpt><trkpt lat="44.2031367" lon="12.086355"><ele>21.799999999999997</ele><time>2026-04-30T08:05:38.639Z</time></trkpt><trkpt lat="44.203085" lon="12.0864783"><ele>21.2</ele><time>2026-04-30T08:05:39.641Z</time></trkpt><trkpt lat="44.20303" lon="12.0866017"><ele>20.6</ele><time>2026-04-30T08:05:40.639Z</time></trkpt><trkpt lat="44.2029733" lon="12.0867233"><ele>20.0</ele><time>2026-04-30T08:05:41.644Z</time></trkpt><trkpt lat="44.2029233" lon="12.086845"><ele>19.666666666666668</ele><time>2026-04-30T08:05:42.641Z</time></trkpt><trkpt lat="44.20288" lon="12.0869567"><ele>19.333333333333336</ele><time>2026-04-30T08:05:43.64Z</time></trkpt><trkpt lat="44.2028383" lon="12.0870617"><ele>19.0</ele><time>2026-04-30T08:05:44.643Z</time></trkpt><trkpt lat="44.2027967" lon="12.087165"><ele>18.666666666666668</ele><time>2026-04-30T08:05:45.642Z</time></trkpt><trkpt lat="44.20275" lon="12.0872717"><ele>18.333333333333332</ele><time>2026-04-30T08:05:46.639Z</time></trkpt><trkpt lat="44.2027033" lon="12.0873783"><ele>18.0</ele><time>2026-04-30T08:05:47.645Z</time></trkpt><trkpt lat="44.20266" lon="12.0874883"><ele>19.0</ele><time>2026-04-30T08:05:48.64Z</time></trkpt><trkpt lat="44.2026133" lon="12.0876033"><ele>20.0</ele><time>2026-04-30T08:05:49.642Z</time></trkpt><trkpt lat="44.2025667" lon="12.087715"><ele>21.0</ele><time>2026-04-30T08:05:50.639Z</time></trkpt><trkpt lat="44.2025217" lon="12.08783"><ele>22.0</ele><time>2026-04-30T08:05:51.642Z</time></trkpt><trkpt lat="44.2024783" lon="12.0879467"><ele>23.0</ele><time>2026-04-30T08:05:52.64Z</time></trkpt><trkpt lat="44.2024367" lon="12.08807"><ele>23.0</ele><time>2026-04-30T08:05:53.641Z</time></trkpt><trkpt lat="44.2023983" lon="12.0882"><ele>23.0</ele><time>2026-04-30T08:05:54.644Z</time></trkpt><trkpt lat="44.2023617" lon="12.088335"><ele>23.0</ele><time>2026-04-30T08:05:55.641Z</time></trkpt><trkpt lat="44.20233" lon="12.0884817"><ele>23.0</ele><time>2026-04-30T08:05:56.637Z</time></trkpt><trkpt lat="44.2023033" lon="12.0886333"><ele>23.0</ele><time>2026-04-30T08:05:57.648Z</time></trkpt><trkpt lat="44.2022783" lon="12.0887883"><ele>21.75</ele><time>2026-04-30T08:05:58.639Z</time></trkpt><trkpt lat="44.20225" lon="12.0889483"><ele>20.5</ele><time>2026-04-30T08:05:59.642Z</time></trkpt><trkpt lat="44.20222" lon="12.0891083"><ele>19.25</ele><time>2026-04-30T08:06:00.642Z</time></trkpt><trkpt lat="44.2021833" lon="12.089275"><ele>18.0</ele><time>2026-04-30T08:06:01.64Z</time></trkpt><trkpt lat="44.2021367" lon="12.089435"><ele>17.75</ele><time>2026-04-30T08:06:02.641Z</time></trkpt><trkpt lat="44.2020867" lon="12.0895933"><ele>17.5</ele><time>2026-04-30T08:06:03.642Z</time></trkpt><trkpt lat="44.2020317" lon="12.0897483"><ele>17.25</ele><time>2026-04-30T08:06:04.637Z</time></trkpt><trkpt lat="44.2019733" lon="12.0899017"><ele>17.0</ele><time>2026-04-30T08:06:05.642Z</time></trkpt><trkpt lat="44.201915" lon="12.0900517"><ele>17.0</ele><time>2026-04-30T08:06:06.644Z</time></trkpt><trkpt lat="44.20186" lon="12.0902"><ele>17.0</ele><time>2026-04-30T08:06:07.642Z</time></trkpt><trkpt lat="44.2017967" lon="12.0903517"><ele>17.0</ele><time>2026-04-30T08:06:08.64Z</time></trkpt><trkpt lat="44.2017333" lon="12.090495"><ele>17.0</ele><time>2026-04-30T08:06:09.638Z</time></trkpt><trkpt lat="44.20166" lon="12.0906367"><ele>17.75</ele><time>2026-04-30T08:06:10.641Z</time></trkpt><trkpt lat="44.201585" lon="12.0907733"><ele>18.5</ele><time>2026-04-30T08:06:11.652Z</time></trkpt><trkpt lat="44.2015117" lon="12.0909067"><ele>19.25</ele><time>2026-04-30T08:06:12.641Z</time></trkpt><trkpt lat="44.2014333" lon="12.0910383"><ele>20.0</ele><time>2026-04-30T08:06:13.643Z</time></trkpt><trkpt lat="44.2013533" lon="12.0911667"><ele>19.75</ele><time>2026-04-30T08:06:14.645Z</time></trkpt><trkpt lat="44.201275" lon="12.09129"><ele>19.5</ele><time>2026-04-30T08:06:15.643Z</time></trkpt><trkpt lat="44.2011883" lon="12.0914083"><ele>19.25</ele><time>2026-04-30T08:06:16.643Z</time></trkpt><trkpt lat="44.2010983" lon="12.0915183"><ele>19.0</ele><time>2026-04-30T08:06:17.642Z</time></trkpt><trkpt lat="44.2010033" lon="12.09162"><ele>19.0</ele><time>2026-04-30T08:06:18.643Z</time></trkpt><trkpt lat="44.200905" lon="12.0917217"><ele>19.0</ele><time>2026-04-30T08:06:19.64Z</time></trkpt><trkpt lat="44.2008083" lon="12.0918267"><ele>19.0</ele><time>2026-04-30T08:06:20.638Z</time></trkpt><trkpt lat="44.2007083" lon="12.0919367"><ele>19.0</ele><time>2026-04-30T08:06:21.639Z</time></trkpt><trkpt lat="44.20061" lon="12.09205"><ele>18.5</ele><time>2026-04-30T08:06:22.64Z</time></trkpt><trkpt lat="44.20052" lon="12.0921733"><ele>18.0</ele><time>2026-04-30T08:06:23.639Z</time></trkpt><trkpt lat="44.20044" lon="12.09231"><ele>17.5</ele><time>2026-04-30T08:06:24.644Z</time></trkpt><trkpt lat="44.20037" lon="12.092455"><ele>17.0</ele><time>2026-04-30T08:06:25.644Z</time></trkpt><trkpt lat="44.2003067" lon="12.0926067"><ele>18.25</ele><time>2026-04-30T08:06:26.64Z</time></trkpt><trkpt lat="44.200245" lon="12.09276"><ele>19.5</ele><time>2026-04-30T08:06:27.639Z</time></trkpt><trkpt lat="44.2001817" lon="12.09291"><ele>20.75</ele><time>2026-04-30T08:06:28.643Z</time></trkpt><trkpt lat="44.2001167" lon="12.0930617"><ele>22.0</ele><time>2026-04-30T08:06:29.643Z</time></trkpt><trkpt lat="44.200055" lon="12.093215"><ele>22.6</ele><time>2026-04-30T08:06:30.642Z</time></trkpt><trkpt lat="44.2" lon="12.093365"><ele>23.200000000000003</ele><time>2026-04-30T08:06:31.648Z</time></trkpt><trkpt lat="44.19995" lon="12.0935017"><ele>23.8</ele><time>2026-04-30T08:06:32.646Z</time></trkpt><trkpt lat="44.1999083" lon="12.09363"><ele>24.4</ele><time>2026-04-30T08:06:33.64Z</time></trkpt><trkpt lat="44.199875" lon="12.0937533"><ele>25.0</ele><time>2026-04-30T08:06:34.639Z</time></trkpt><trkpt lat="44.1998533" lon="12.0938583"><ele>25.0</ele><time>2026-04-30T08:06:35.639Z</time></trkpt><trkpt lat="44.1998383" lon="12.093955"><ele>25.0</ele><time>2026-04-30T08:06:36.64Z</time></trkpt><trkpt lat="44.1998033" lon="12.09411"><ele>25.0</ele><time>2026-04-30T08:06:38.641Z</time></trkpt><trkpt lat="44.1997567" lon="12.0942617"><ele>25.0</ele><time>2026-04-30T08:06:40.642Z</time></trkpt><trkpt lat="44.199695" lon="12.094405"><ele>25.0</ele><time>2026-04-30T08:06:42.639Z</time></trkpt><trkpt lat="44.199655" lon="12.0944767"><ele>25.0</ele><time>2026-04-30T08:06:43.643Z</time></trkpt><trkpt lat="44.1996067" lon="12.094565"><ele>25.0</ele><time>2026-04-30T08:06:44.642Z</time></trkpt><trkpt lat="44.1995583" lon="12.094675"><ele>25.0</ele><time>2026-04-30T08:06:45.65Z</time></trkpt><trkpt lat="44.1995267" lon="12.0947867"><ele>25.0</ele><time>2026-04-30T08:06:46.641Z</time></trkpt><trkpt lat="44.1995033" lon="12.0949133"><ele>25.0</ele><time>2026-04-30T08:06:47.641Z</time></trkpt><trkpt lat="44.19948" lon="12.0950483"><ele>25.2</ele><time>2026-04-30T08:06:48.64Z</time></trkpt><trkpt lat="44.1994417" lon="12.09519"><ele>25.4</ele><time>2026-04-30T08:06:49.645Z</time></trkpt><trkpt lat="44.1993867" lon="12.095325"><ele>25.6</ele><time>2026-04-30T08:06:50.64Z</time></trkpt><trkpt lat="44.1993217" lon="12.095455"><ele>25.8</ele><time>2026-04-30T08:06:51.639Z</time></trkpt><trkpt lat="44.19926" lon="12.09558"><ele>26.0</ele><time>2026-04-30T08:06:52.645Z</time></trkpt><trkpt lat="44.1992017" lon="12.0957083"><ele>25.5</ele><time>2026-04-30T08:06:53.638Z</time></trkpt><trkpt lat="44.1991483" lon="12.095845"><ele>25.0</ele><time>2026-04-30T08:06:54.64Z</time></trkpt><trkpt lat="44.1990983" lon="12.0959933"><ele>24.5</ele><time>2026-04-30T08:06:55.641Z</time></trkpt><trkpt lat="44.1990467" lon="12.09614"><ele>24.0</ele><time>2026-04-30T08:06:56.64Z</time></trkpt><trkpt lat="44.19899" lon="12.096285"><ele>24.0</ele><time>2026-04-30T08:06:57.64Z</time></trkpt><trkpt lat="44.19893" lon="12.0964317"><ele>24.0</ele><time>2026-04-30T08:06:58.639Z</time></trkpt><trkpt lat="44.1988717" lon="12.0965783"><ele>24.0</ele><time>2026-04-30T08:06:59.64Z</time></trkpt><trkpt lat="44.1987483" lon="12.0968633"><ele>24.25</ele><time>2026-04-30T08:07:01.637Z</time></trkpt><trkpt lat="44.1986867" lon="12.09701"><ele>24.5</ele><time>2026-04-30T08:07:02.638Z</time></trkpt><trkpt lat="44.1986217" lon="12.0971567"><ele>24.75</ele><time>2026-04-30T08:07:03.637Z</time></trkpt><trkpt lat="44.1985517" lon="12.09731"><ele>25.0</ele><time>2026-04-30T08:07:04.64Z</time></trkpt><trkpt lat="44.198485" lon="12.0974617"><ele>25.25</ele><time>2026-04-30T08:07:05.644Z</time></trkpt><trkpt lat="44.1984167" lon="12.0976183"><ele>25.5</ele><time>2026-04-30T08:07:06.643Z</time></trkpt><trkpt lat="44.198345" lon="12.0977817"><ele>25.75</ele><time>2026-04-30T08:07:07.649Z</time></trkpt><trkpt lat="44.198275" lon="12.0979433"><ele>26.0</ele><time>2026-04-30T08:07:08.647Z</time></trkpt><trkpt lat="44.1982083" lon="12.0980983"><ele>26.0</ele><time>2026-04-30T08:07:09.644Z</time></trkpt><trkpt lat="44.19814" lon="12.0982567"><ele>26.0</ele><time>2026-04-30T08:07:10.644Z</time></trkpt><trkpt lat="44.19807" lon="12.0984133"><ele>26.0</ele><time>2026-04-30T08:07:11.638Z</time></trkpt><trkpt lat="44.198" lon="12.0985817"><ele>26.0</ele><time>2026-04-30T08:07:12.652Z</time></trkpt><trkpt lat="44.1979267" lon="12.098755"><ele>26.0</ele><time>2026-04-30T08:07:13.644Z</time></trkpt><trkpt lat="44.1978517" lon="12.0989333"><ele>26.0</ele><time>2026-04-30T08:07:14.639Z</time></trkpt><trkpt lat="44.1977783" lon="12.0991117"><ele>26.0</ele><time>2026-04-30T08:07:15.644Z</time></trkpt><trkpt lat="44.1977033" lon="12.0992917"><ele>26.0</ele><time>2026-04-30T08:07:16.641Z</time></trkpt><trkpt lat="44.197625" lon="12.09948"><ele>26.0</ele><time>2026-04-30T08:07:17.64Z</time></trkpt><trkpt lat="44.1975467" lon="12.09967"><ele>26.0</ele><time>2026-04-30T08:07:18.645Z</time></trkpt><trkpt lat="44.1974683" lon="12.09986"><ele>26.0</ele><time>2026-04-30T08:07:19.649Z</time></trkpt><trkpt lat="44.1973933" lon="12.1000417"><ele>26.0</ele><time>2026-04-30T08:07:20.653Z</time></trkpt><trkpt lat="44.19732" lon="12.10022"><ele>26.0</ele><time>2026-04-30T08:07:21.646Z</time></trkpt><trkpt lat="44.1972433" lon="12.1004"><ele>26.0</ele><time>2026-04-30T08:07:22.643Z</time></trkpt><trkpt lat="44.1971667" lon="12.1005817"><ele>26.0</ele><time>2026-04-30T08:07:23.643Z</time></trkpt><trkpt lat="44.197085" lon="12.100765"><ele>26.333333333333332</ele><time>2026-04-30T08:07:24.642Z</time></trkpt><trkpt lat="44.197005" lon="12.10095"><ele>26.666666666666664</ele><time>2026-04-30T08:07:25.646Z</time></trkpt><trkpt lat="44.1969283" lon="12.1011367"><ele>27.0</ele><time>2026-04-30T08:07:26.649Z</time></trkpt><trkpt lat="44.1968533" lon="12.10133"><ele>27.0</ele><time>2026-04-30T08:07:27.647Z</time></trkpt><trkpt lat="44.1967783" lon="12.1015233"><ele>27.0</ele><time>2026-04-30T08:07:28.647Z</time></trkpt><trkpt lat="44.1967033" lon="12.101715"><ele>27.0</ele><time>2026-04-30T08:07:29.639Z</time></trkpt><trkpt lat="44.1966333" lon="12.101905"><ele>27.0</ele><time>2026-04-30T08:07:30.65Z</time></trkpt><trkpt lat="44.1965633" lon="12.102095"><ele>27.0</ele><time>2026-04-30T08:07:31.643Z</time></trkpt><trkpt lat="44.1964967" lon="12.1022833"><ele>27.0</ele><time>2026-04-30T08:07:32.641Z</time></trkpt><trkpt lat="44.1964317" lon="12.1024717"><ele>27.0</ele><time>2026-04-30T08:07:33.65Z</time></trkpt><trkpt lat="44.1963667" lon="12.1026583"><ele>27.0</ele><time>2026-04-30T08:07:34.64Z</time></trkpt><trkpt lat="44.1962967" lon="12.102845"><ele>27.0</ele><time>2026-04-30T08:07:35.657Z</time></trkpt><trkpt lat="44.1962217" lon="12.1030267"><ele>27.0</ele><time>2026-04-30T08:07:36.643Z</time></trkpt><trkpt lat="44.1961467" lon="12.1032083"><ele>27.0</ele><time>2026-04-30T08:07:37.641Z</time></trkpt><trkpt lat="44.19607" lon="12.1033917"><ele>27.0</ele><time>2026-04-30T08:07:38.647Z</time></trkpt><trkpt lat="44.1959917" lon="12.1035783"><ele>27.0</ele><time>2026-04-30T08:07:39.644Z</time></trkpt><trkpt lat="44.195915" lon="12.1037667"><ele>27.0</ele><time>2026-04-30T08:07:40.647Z</time></trkpt><trkpt lat="44.1958333" lon="12.1039633"><ele>27.0</ele><time>2026-04-30T08:07:41.651Z</time></trkpt><trkpt lat="44.1957517" lon="12.10416"><ele>27.333333333333336</ele><time>2026-04-30T08:07:42.645Z</time></trkpt><trkpt lat="44.1956733" lon="12.1043567"><ele>27.666666666666668</ele><time>2026-04-30T08:07:43.642Z</time></trkpt><trkpt lat="44.19559" lon="12.10455"><ele>28.0</ele><time>2026-04-30T08:07:44.649Z</time></trkpt><trkpt lat="44.195505" lon="12.1047483"><ele>27.666666666666668</ele><time>2026-04-30T08:07:45.658Z</time></trkpt><trkpt lat="44.1954233" lon="12.1049367"><ele>27.333333333333336</ele><time>2026-04-30T08:07:46.646Z</time></trkpt><trkpt lat="44.19534" lon="12.1051283"><ele>27.0</ele><time>2026-04-30T08:07:47.648Z</time></trkpt><trkpt lat="44.19526" lon="12.1053217"><ele>27.0</ele><time>2026-04-30T08:07:48.647Z</time></trkpt><trkpt lat="44.19518" lon="12.10552"><ele>27.0</ele><time>2026-04-30T08:07:49.642Z</time></trkpt><trkpt lat="44.1951033" lon="12.105725"><ele>27.0</ele><time>2026-04-30T08:07:50.641Z</time></trkpt><trkpt lat="44.19503" lon="12.1059317"><ele>27.0</ele><time>2026-04-30T08:07:51.644Z</time></trkpt><trkpt lat="44.194955" lon="12.1061367"><ele>27.0</ele><time>2026-04-30T08:07:52.64Z</time></trkpt><trkpt lat="44.1948733" lon="12.1063433"><ele>27.0</ele><time>2026-04-30T08:07:53.648Z</time></trkpt><trkpt lat="44.1947883" lon="12.106545"><ele>27.0</ele><time>2026-04-30T08:07:54.642Z</time></trkpt><trkpt lat="44.1946983" lon="12.1067467"><ele>27.0</ele><time>2026-04-30T08:07:55.645Z</time></trkpt><trkpt lat="44.19461" lon="12.1069517"><ele>27.0</ele><time>2026-04-30T08:07:56.65Z</time></trkpt><trkpt lat="44.194525" lon="12.1071567"><ele>27.0</ele><time>2026-04-30T08:07:57.641Z</time></trkpt><trkpt lat="44.1944383" lon="12.1073633"><ele>27.0</ele><time>2026-04-30T08:07:58.644Z</time></trkpt><trkpt lat="44.19435" lon="12.1075717"><ele>27.0</ele><time>2026-04-30T08:07:59.65Z</time></trkpt><trkpt lat="44.194265" lon="12.10778"><ele>27.0</ele><time>2026-04-30T08:08:00.644Z</time></trkpt><trkpt lat="44.19418" lon="12.1079867"><ele>27.0</ele><time>2026-04-30T08:08:01.646Z</time></trkpt><trkpt lat="44.1940983" lon="12.1081917"><ele>27.0</ele><time>2026-04-30T08:08:02.644Z</time></trkpt><trkpt lat="44.1940183" lon="12.1083967"><ele>26.333333333333336</ele><time>2026-04-30T08:08:03.65Z</time></trkpt><trkpt lat="44.1939383" lon="12.1086033"><ele>25.666666666666668</ele><time>2026-04-30T08:08:04.648Z</time></trkpt><trkpt lat="44.1938633" lon="12.1088067"><ele>25.0</ele><time>2026-04-30T08:08:05.643Z</time></trkpt><trkpt lat="44.1937933" lon="12.109"><ele>25.333333333333336</ele><time>2026-04-30T08:08:06.648Z</time></trkpt><trkpt lat="44.19372" lon="12.1091917"><ele>25.666666666666664</ele><time>2026-04-30T08:08:07.639Z</time></trkpt><trkpt lat="44.19365" lon="12.1093817"><ele>26.0</ele><time>2026-04-30T08:08:08.645Z</time></trkpt><trkpt lat="44.1935817" lon="12.109565"><ele>26.0</ele><time>2026-04-30T08:08:09.647Z</time></trkpt><trkpt lat="44.193515" lon="12.1097433"><ele>26.0</ele><time>2026-04-30T08:08:10.642Z</time></trkpt><trkpt lat="44.193445" lon="12.1099233"><ele>26.0</ele><time>2026-04-30T08:08:11.642Z</time></trkpt><trkpt lat="44.1933783" lon="12.1101"><ele>26.0</ele><time>2026-04-30T08:08:12.647Z</time></trkpt><trkpt lat="44.1933167" lon="12.1102783"><ele>26.0</ele><time>2026-04-30T08:08:13.642Z</time></trkpt><trkpt lat="44.1932617" lon="12.1104567"><ele>26.0</ele><time>2026-04-30T08:08:14.65Z</time></trkpt><trkpt lat="44.1932167" lon="12.1106383"><ele>26.0</ele><time>2026-04-30T08:08:15.643Z</time></trkpt><trkpt lat="44.1931783" lon="12.11082"><ele>26.0</ele><time>2026-04-30T08:08:16.64Z</time></trkpt><trkpt lat="44.1931467" lon="12.110995"><ele>26.0</ele><time>2026-04-30T08:08:17.646Z</time></trkpt><trkpt lat="44.1931267" lon="12.1111567"><ele>26.0</ele><time>2026-04-30T08:08:18.648Z</time></trkpt><trkpt lat="44.1931033" lon="12.111305"><ele>26.0</ele><time>2026-04-30T08:08:19.639Z</time></trkpt><trkpt lat="44.1930683" lon="12.11144"><ele>26.0</ele><time>2026-04-30T08:08:20.645Z</time></trkpt><trkpt lat="44.1930083" lon="12.11156"><ele>26.0</ele><time>2026-04-30T08:08:21.642Z</time></trkpt><trkpt lat="44.1929267" lon="12.1116567"><ele>26.0</ele><time>2026-04-30T08:08:22.638Z</time></trkpt><trkpt lat="44.1928283" lon="12.1117267"><ele>26.0</ele><time>2026-04-30T08:08:23.644Z</time></trkpt><trkpt lat="44.1927383" lon="12.1118083"><ele>26.0</ele><time>2026-04-30T08:08:24.641Z</time></trkpt><trkpt lat="44.1926717" lon="12.1119233"><ele>26.0</ele><time>2026-04-30T08:08:25.639Z</time></trkpt><trkpt lat="44.1926283" lon="12.1120617"><ele>26.0</ele><time>2026-04-30T08:08:26.643Z</time></trkpt><trkpt lat="44.1926033" lon="12.1122167"><ele>26.0</ele><time>2026-04-30T08:08:27.644Z</time></trkpt><trkpt lat="44.1925867" lon="12.1123767"><ele>26.0</ele><time>2026-04-30T08:08:28.638Z</time></trkpt><trkpt lat="44.1925567" lon="12.1125283"><ele>26.0</ele><time>2026-04-30T08:08:29.638Z</time></trkpt><trkpt lat="44.1924983" lon="12.1126617"><ele>26.0</ele><time>2026-04-30T08:08:30.644Z</time></trkpt><trkpt lat="44.19242" lon="12.11277"><ele>25.75</ele><time>2026-04-30T08:08:31.64Z</time></trkpt><trkpt lat="44.19233" lon="12.112855"><ele>25.5</ele><time>2026-04-30T08:08:32.639Z</time></trkpt><trkpt lat="44.1922417" lon="12.1129533"><ele>25.25</ele><time>2026-04-30T08:08:33.647Z</time></trkpt><trkpt lat="44.1921617" lon="12.1130733"><ele>25.0</ele><time>2026-04-30T08:08:34.638Z</time></trkpt><trkpt lat="44.19208" lon="12.1132067"><ele>25.0</ele><time>2026-04-30T08:08:35.651Z</time></trkpt><trkpt lat="44.1920067" lon="12.113355"><ele>25.0</ele><time>2026-04-30T08:08:36.638Z</time></trkpt><trkpt lat="44.191935" lon="12.1135133"><ele>25.0</ele><time>2026-04-30T08:08:37.649Z</time></trkpt><trkpt lat="44.1918633" lon="12.1136717"><ele>25.0</ele><time>2026-04-30T08:08:38.647Z</time></trkpt><trkpt lat="44.191795" lon="12.1138367"><ele>25.0</ele><time>2026-04-30T08:08:39.649Z</time></trkpt><trkpt lat="44.1917217" lon="12.114005"><ele>25.0</ele><time>2026-04-30T08:08:40.649Z</time></trkpt><trkpt lat="44.1916517" lon="12.1141717"><ele>25.0</ele><time>2026-04-30T08:08:41.642Z</time></trkpt><trkpt lat="44.1915867" lon="12.1143317"><ele>25.0</ele><time>2026-04-30T08:08:42.644Z</time></trkpt><trkpt lat="44.1915233" lon="12.1144933"><ele>24.75</ele><time>2026-04-30T08:08:43.646Z</time></trkpt><trkpt lat="44.1914583" lon="12.1146633"><ele>24.5</ele><time>2026-04-30T08:08:44.643Z</time></trkpt><trkpt lat="44.19139" lon="12.114835"><ele>24.25</ele><time>2026-04-30T08:08:45.64Z</time></trkpt><trkpt lat="44.19132" lon="12.1150133"><ele>24.0</ele><time>2026-04-30T08:08:46.655Z</time></trkpt><trkpt lat="44.19125" lon="12.1152033"><ele>23.666666666666668</ele><time>2026-04-30T08:08:47.647Z</time></trkpt><trkpt lat="44.1911783" lon="12.1153917"><ele>23.333333333333336</ele><time>2026-04-30T08:08:48.643Z</time></trkpt><trkpt lat="44.1911067" lon="12.1155783"><ele>23.0</ele><time>2026-04-30T08:08:49.655Z</time></trkpt><trkpt lat="44.19104" lon="12.1157633"><ele>24.0</ele><time>2026-04-30T08:08:50.641Z</time></trkpt><trkpt lat="44.190975" lon="12.11595"><ele>25.0</ele><time>2026-04-30T08:08:51.642Z</time></trkpt><trkpt lat="44.1909083" lon="12.1161383"><ele>26.0</ele><time>2026-04-30T08:08:52.654Z</time></trkpt><trkpt lat="44.190845" lon="12.11633"><ele>26.0</ele><time>2026-04-30T08:08:53.642Z</time></trkpt><trkpt lat="44.1907833" lon="12.116525"><ele>26.0</ele><time>2026-04-30T08:08:54.645Z</time></trkpt><trkpt lat="44.1907183" lon="12.11672"><ele>26.0</ele><time>2026-04-30T08:08:55.644Z</time></trkpt><trkpt lat="44.19065" lon="12.1169083"><ele>26.0</ele><time>2026-04-30T08:08:56.638Z</time></trkpt><trkpt lat="44.19058" lon="12.11709"><ele>26.0</ele><time>2026-04-30T08:08:57.648Z</time></trkpt><trkpt lat="44.19051" lon="12.1172633"><ele>26.0</ele><time>2026-04-30T08:08:58.644Z</time></trkpt><trkpt lat="44.190435" lon="12.117425"><ele>26.0</ele><time>2026-04-30T08:08:59.648Z</time></trkpt><trkpt lat="44.19036" lon="12.1175733"><ele>26.0</ele><time>2026-04-30T08:09:00.647Z</time></trkpt><trkpt lat="44.1902867" lon="12.1177117"><ele>26.0</ele><time>2026-04-30T08:09:01.65Z</time></trkpt><trkpt lat="44.1902183" lon="12.1178417"><ele>26.0</ele><time>2026-04-30T08:09:02.643Z</time></trkpt><trkpt lat="44.19015" lon="12.1179633"><ele>26.0</ele><time>2026-04-30T08:09:03.647Z</time></trkpt><trkpt lat="44.190085" lon="12.11807"><ele>26.0</ele><time>2026-04-30T08:09:04.639Z</time></trkpt><trkpt lat="44.19002" lon="12.1181683"><ele>26.0</ele><time>2026-04-30T08:09:05.644Z</time></trkpt><trkpt lat="44.1899383" lon="12.1182633"><ele>26.0</ele><time>2026-04-30T08:09:06.64Z</time></trkpt><trkpt lat="44.189845" lon="12.1183583"><ele>26.0</ele><time>2026-04-30T08:09:07.642Z</time></trkpt><trkpt lat="44.1897433" lon="12.1184733"><ele>26.0</ele><time>2026-04-30T08:09:08.658Z</time></trkpt><trkpt lat="44.18964" lon="12.1186033"><ele>26.0</ele><time>2026-04-30T08:09:09.641Z</time></trkpt><trkpt lat="44.1895333" lon="12.1187417"><ele>26.0</ele><time>2026-04-30T08:09:10.651Z</time></trkpt><trkpt lat="44.1894167" lon="12.1188817"><ele>26.0</ele><time>2026-04-30T08:09:11.646Z</time></trkpt><trkpt lat="44.1893067" lon="12.11902"><ele>26.0</ele><time>2026-04-30T08:09:12.644Z</time></trkpt><trkpt lat="44.1892" lon="12.1191567"><ele>26.0</ele><time>2026-04-30T08:09:13.638Z</time></trkpt><trkpt lat="44.1890933" lon="12.1192933"><ele>26.0</ele><time>2026-04-30T08:09:14.643Z</time></trkpt><trkpt lat="44.188985" lon="12.1194383"><ele>26.0</ele><time>2026-04-30T08:09:15.64Z</time></trkpt><trkpt lat="44.1888783" lon="12.119585"><ele>26.0</ele><time>2026-04-30T08:09:16.648Z</time></trkpt><trkpt lat="44.1887683" lon="12.1197333"><ele>26.5</ele><time>2026-04-30T08:09:17.643Z</time></trkpt><trkpt lat="44.1886633" lon="12.119885"><ele>27.0</ele><time>2026-04-30T08:09:18.643Z</time></trkpt><trkpt lat="44.188565" lon="12.1200383"><ele>27.5</ele><time>2026-04-30T08:09:19.647Z</time></trkpt><trkpt lat="44.1884717" lon="12.1201983"><ele>28.0</ele><time>2026-04-30T08:09:20.643Z</time></trkpt><trkpt lat="44.188385" lon="12.1203583"><ele>28.2</ele><time>2026-04-30T08:09:21.647Z</time></trkpt><trkpt lat="44.1883067" lon="12.1205083"><ele>28.4</ele><time>2026-04-30T08:09:22.648Z</time></trkpt><trkpt lat="44.1882367" lon="12.1206467"><ele>28.599999999999998</ele><time>2026-04-30T08:09:23.643Z</time></trkpt><trkpt lat="44.188175" lon="12.120765"><ele>28.799999999999997</ele><time>2026-04-30T08:09:24.641Z</time></trkpt><trkpt lat="44.1881233" lon="12.1208633"><ele>29.0</ele><time>2026-04-30T08:09:25.643Z</time></trkpt><trkpt lat="44.1880733" lon="12.1209517"><ele>29.166666666666664</ele><time>2026-04-30T08:09:26.645Z</time></trkpt><trkpt lat="44.188025" lon="12.1210283"><ele>29.333333333333332</ele><time>2026-04-30T08:09:27.639Z</time></trkpt><trkpt lat="44.1879767" lon="12.1211"><ele>29.5</ele><time>2026-04-30T08:09:28.639Z</time></trkpt><trkpt lat="44.187925" lon="12.1211733"><ele>29.666666666666664</ele><time>2026-04-30T08:09:29.648Z</time></trkpt><trkpt lat="44.1878767" lon="12.1212883"><ele>29.833333333333332</ele><time>2026-04-30T08:09:31.643Z</time></trkpt><trkpt lat="44.1878717" lon="12.1213783"><ele>30.0</ele><time>2026-04-30T08:09:34.648Z</time></trkpt><trkpt lat="44.187855" lon="12.121545"><ele>29.8</ele><time>2026-04-30T08:09:58.646Z</time></trkpt><trkpt lat="44.1878283" lon="12.1216383"><ele>29.6</ele><time>2026-04-30T08:09:59.646Z</time></trkpt><trkpt lat="44.187795" lon="12.1217567"><ele>29.4</ele><time>2026-04-30T08:10:00.646Z</time></trkpt><trkpt lat="44.18774" lon="12.1219017"><ele>29.2</ele><time>2026-04-30T08:10:01.645Z</time></trkpt><trkpt lat="44.1876817" lon="12.1220533"><ele>29.0</ele><time>2026-04-30T08:10:02.638Z</time></trkpt><trkpt lat="44.187625" lon="12.12222"><ele>29.25</ele><time>2026-04-30T08:10:03.645Z</time></trkpt><trkpt lat="44.187555" lon="12.12241"><ele>29.5</ele><time>2026-04-30T08:10:04.644Z</time></trkpt><trkpt lat="44.1874867" lon="12.1225967"><ele>29.75</ele><time>2026-04-30T08:10:05.647Z</time></trkpt><trkpt lat="44.187425" lon="12.1227667"><ele>30.0</ele><time>2026-04-30T08:10:06.642Z</time></trkpt><trkpt lat="44.187365" lon="12.1229383"><ele>30.0</ele><time>2026-04-30T08:10:07.642Z</time></trkpt><trkpt lat="44.187305" lon="12.123115"><ele>30.0</ele><time>2026-04-30T08:10:08.641Z</time></trkpt><trkpt lat="44.187245" lon="12.1232917"><ele>30.0</ele><time>2026-04-30T08:10:09.645Z</time></trkpt><trkpt lat="44.187185" lon="12.1234617"><ele>30.0</ele><time>2026-04-30T08:10:10.643Z</time></trkpt><trkpt lat="44.187125" lon="12.1236333"><ele>30.0</ele><time>2026-04-30T08:10:11.64Z</time></trkpt><trkpt lat="44.1870667" lon="12.1238"><ele>30.0</ele><time>2026-04-30T08:10:12.641Z</time></trkpt><trkpt lat="44.1870083" lon="12.1239667"><ele>30.0</ele><time>2026-04-30T08:10:13.645Z</time></trkpt><trkpt lat="44.1869517" lon="12.1241233"><ele>30.0</ele><time>2026-04-30T08:10:14.643Z</time></trkpt><trkpt lat="44.1868933" lon="12.12427"><ele>30.0</ele><time>2026-04-30T08:10:15.647Z</time></trkpt><trkpt lat="44.1868417" lon="12.1244117"><ele>30.0</ele><time>2026-04-30T08:10:16.639Z</time></trkpt><trkpt lat="44.18679" lon="12.1245533"><ele>30.0</ele><time>2026-04-30T08:10:17.643Z</time></trkpt><trkpt lat="44.186745" lon="12.1246867"><ele>30.0</ele><time>2026-04-30T08:10:18.642Z</time></trkpt><trkpt lat="44.1867067" lon="12.1248083"><ele>30.0</ele><time>2026-04-30T08:10:19.642Z</time></trkpt><trkpt lat="44.1866717" lon="12.1249167"><ele>30.166666666666668</ele><time>2026-04-30T08:10:20.65Z</time></trkpt><trkpt lat="44.1866383" lon="12.1250117"><ele>30.333333333333336</ele><time>2026-04-30T08:10:21.644Z</time></trkpt><trkpt lat="44.1866083" lon="12.1250967"><ele>30.5</ele><time>2026-04-30T08:10:22.644Z</time></trkpt><trkpt lat="44.1865567" lon="12.12524"><ele>30.666666666666668</ele><time>2026-04-30T08:10:24.642Z</time></trkpt><trkpt lat="44.18652" lon="12.1253533"><ele>30.833333333333336</ele><time>2026-04-30T08:10:27.641Z</time></trkpt><trkpt lat="44.1865117" lon="12.125465"><ele>31.0</ele><time>2026-04-30T08:10:30.65Z</time></trkpt><trkpt lat="44.186545" lon="12.1256417"><ele>31.0</ele><time>2026-04-30T08:10:40.651Z</time></trkpt><trkpt lat="44.1865467" lon="12.1257867"><ele>31.0</ele><time>2026-04-30T08:10:42.642Z</time></trkpt><trkpt lat="44.1865317" lon="12.1259367"><ele>31.0</ele><time>2026-04-30T08:10:44.644Z</time></trkpt><trkpt lat="44.1865133" lon="12.1260933"><ele>31.0</ele><time>2026-04-30T08:10:46.651Z</time></trkpt><trkpt lat="44.1864667" lon="12.1262367"><ele>31.0</ele><time>2026-04-30T08:10:48.645Z</time></trkpt><trkpt lat="44.1864" lon="12.12635"><ele>31.333333333333336</ele><time>2026-04-30T08:10:50.649Z</time></trkpt><trkpt lat="44.1863417" lon="12.1264083"><ele>31.666666666666668</ele><time>2026-04-30T08:10:52.647Z</time></trkpt><trkpt lat="44.1862733" lon="12.1264683"><ele>32.0</ele><time>2026-04-30T08:10:55.643Z</time></trkpt><trkpt lat="44.186205" lon="12.1265317"><ele>32.333333333333336</ele><time>2026-04-30T08:10:58.643Z</time></trkpt><trkpt lat="44.1861217" lon="12.1266067"><ele>32.666666666666664</ele><time>2026-04-30T08:11:00.641Z</time></trkpt><trkpt lat="44.1860383" lon="12.1266717"><ele>33.0</ele><time>2026-04-30T08:11:02.656Z</time></trkpt><trkpt lat="44.1859617" lon="12.1267367"><ele>33.0</ele><time>2026-04-30T08:11:04.642Z</time></trkpt><trkpt lat="44.1859" lon="12.126785"><ele>33.0</ele><time>2026-04-30T08:11:06.642Z</time></trkpt><trkpt lat="44.185825" lon="12.1268583"><ele>33.0</ele><time>2026-04-30T08:11:08.643Z</time></trkpt><trkpt lat="44.1857467" lon="12.12695"><ele>33.0</ele><time>2026-04-30T08:11:10.643Z</time></trkpt><trkpt lat="44.1857" lon="12.12701"><ele>33.0</ele><time>2026-04-30T08:11:11.651Z</time></trkpt><trkpt lat="44.1856533" lon="12.1270917"><ele>33.0</ele><time>2026-04-30T08:11:12.64Z</time></trkpt><trkpt lat="44.1855983" lon="12.127215"><ele>32.8</ele><time>2026-04-30T08:11:13.645Z</time></trkpt><trkpt lat="44.1855533" lon="12.12733"><ele>32.599999999999994</ele><time>2026-04-30T08:11:14.649Z</time></trkpt><trkpt lat="44.185505" lon="12.12745"><ele>32.400000000000006</ele><time>2026-04-30T08:11:15.64Z</time></trkpt><trkpt lat="44.1854567" lon="12.1275817"><ele>32.2</ele><time>2026-04-30T08:11:16.647Z</time></trkpt><trkpt lat="44.1854067" lon="12.1277167"><ele>32.0</ele><time>2026-04-30T08:11:17.654Z</time></trkpt><trkpt lat="44.1853617" lon="12.1278533"><ele>32.0</ele><time>2026-04-30T08:11:18.641Z</time></trkpt><trkpt lat="44.18532" lon="12.127985"><ele>32.0</ele><time>2026-04-30T08:11:19.647Z</time></trkpt><trkpt lat="44.185275" lon="12.12812"><ele>32.0</ele><time>2026-04-30T08:11:20.645Z</time></trkpt><trkpt lat="44.1852317" lon="12.1282567"><ele>32.0</ele><time>2026-04-30T08:11:21.65Z</time></trkpt><trkpt lat="44.1851933" lon="12.1283867"><ele>32.0</ele><time>2026-04-30T08:11:22.648Z</time></trkpt><trkpt lat="44.1851583" lon="12.128505"><ele>31.8</ele><time>2026-04-30T08:11:23.651Z</time></trkpt><trkpt lat="44.18513" lon="12.1286"><ele>31.6</ele><time>2026-04-30T08:11:24.643Z</time></trkpt><trkpt lat="44.1850833" lon="12.1287367"><ele>31.400000000000002</ele><time>2026-04-30T08:11:26.641Z</time></trkpt><trkpt lat="44.1850467" lon="12.1288617"><ele>31.200000000000003</ele><time>2026-04-30T08:11:28.65Z</time></trkpt><trkpt lat="44.1850133" lon="12.1289867"><ele>31.0</ele><time>2026-04-30T08:11:30.645Z</time></trkpt><trkpt lat="44.1849683" lon="12.1291133"><ele>30.6</ele><time>2026-04-30T08:11:32.643Z</time></trkpt><trkpt lat="44.1849" lon="12.1292183"><ele>30.200000000000003</ele><time>2026-04-30T08:11:34.645Z</time></trkpt><trkpt lat="44.1848567" lon="12.1293633"><ele>29.799999999999997</ele><time>2026-04-30T08:11:36.641Z</time></trkpt><trkpt lat="44.1848483" lon="12.1294633"><ele>29.4</ele><time>2026-04-30T08:11:37.643Z</time></trkpt><trkpt lat="44.1848333" lon="12.12957"><ele>29.0</ele><time>2026-04-30T08:11:38.653Z</time></trkpt><trkpt lat="44.1848067" lon="12.1296833"><ele>28.999999999999996</ele><time>2026-04-30T08:11:39.646Z</time></trkpt><trkpt lat="44.1847717" lon="12.1297967"><ele>29.0</ele><time>2026-04-30T08:11:40.648Z</time></trkpt><trkpt lat="44.18474" lon="12.1299017"><ele>29.0</ele><time>2026-04-30T08:11:41.644Z</time></trkpt><trkpt lat="44.1847067" lon="12.1300083"><ele>29.0</ele><time>2026-04-30T08:11:42.647Z</time></trkpt><trkpt lat="44.1846783" lon="12.1301117"><ele>28.999999999999996</ele><time>2026-04-30T08:11:43.642Z</time></trkpt><trkpt lat="44.1846483" lon="12.1302183"><ele>29.0</ele><time>2026-04-30T08:11:44.644Z</time></trkpt><trkpt lat="44.1846167" lon="12.1303317"><ele>29.4</ele><time>2026-04-30T08:11:45.644Z</time></trkpt><trkpt lat="44.1845817" lon="12.13045"><ele>29.799999999999997</ele><time>2026-04-30T08:11:46.644Z</time></trkpt><trkpt lat="44.1845417" lon="12.1305667"><ele>30.200000000000003</ele><time>2026-04-30T08:11:47.648Z</time></trkpt><trkpt lat="44.1845033" lon="12.13069"><ele>30.6</ele><time>2026-04-30T08:11:48.645Z</time></trkpt><trkpt lat="44.184465" lon="12.1308133"><ele>31.0</ele><time>2026-04-30T08:11:49.65Z</time></trkpt><trkpt lat="44.1844283" lon="12.1309283"><ele>31.000000000000004</ele><time>2026-04-30T08:11:50.65Z</time></trkpt><trkpt lat="44.1843933" lon="12.131035"><ele>31.0</ele><time>2026-04-30T08:11:51.643Z</time></trkpt><trkpt lat="44.1843583" lon="12.1311433"><ele>31.0</ele><time>2026-04-30T08:11:52.652Z</time></trkpt><trkpt lat="44.1843233" lon="12.1312483"><ele>31.0</ele><time>2026-04-30T08:11:53.646Z</time></trkpt><trkpt lat="44.1842933" lon="12.1313467"><ele>31.000000000000004</ele><time>2026-04-30T08:11:54.646Z</time></trkpt><trkpt lat="44.1842683" lon="12.1314367"><ele>31.0</ele><time>2026-04-30T08:11:55.647Z</time></trkpt><trkpt lat="44.1842433" lon="12.1315267"><ele>30.857142857142858</ele><time>2026-04-30T08:11:56.647Z</time></trkpt><trkpt lat="44.1842167" lon="12.1316117"><ele>30.714285714285715</ele><time>2026-04-30T08:11:57.651Z</time></trkpt><trkpt lat="44.184185" lon="12.131705"><ele>30.571428571428573</ele><time>2026-04-30T08:11:58.643Z</time></trkpt><trkpt lat="44.1841533" lon="12.1318017"><ele>30.42857142857143</ele><time>2026-04-30T08:11:59.642Z</time></trkpt><trkpt lat="44.184125" lon="12.1318933"><ele>30.285714285714285</ele><time>2026-04-30T08:12:00.645Z</time></trkpt><trkpt lat="44.1841" lon="12.13198"><ele>30.142857142857146</ele><time>2026-04-30T08:12:01.646Z</time></trkpt><trkpt lat="44.1840733" lon="12.1320667"><ele>30.0</ele><time>2026-04-30T08:12:02.64Z</time></trkpt><trkpt lat="44.1840483" lon="12.1321567"><ele>30.0</ele><time>2026-04-30T08:12:03.645Z</time></trkpt><trkpt lat="44.1840217" lon="12.1322517"><ele>30.0</ele><time>2026-04-30T08:12:04.646Z</time></trkpt><trkpt lat="44.1839967" lon="12.1323517"><ele>30.0</ele><time>2026-04-30T08:12:05.637Z</time></trkpt><trkpt lat="44.1839717" lon="12.1324583"><ele>30.0</ele><time>2026-04-30T08:12:06.649Z</time></trkpt><trkpt lat="44.1839433" lon="12.1325683"><ele>30.0</ele><time>2026-04-30T08:12:07.645Z</time></trkpt><trkpt lat="44.1839167" lon="12.1326717"><ele>30.0</ele><time>2026-04-30T08:12:08.638Z</time></trkpt><trkpt lat="44.183895" lon="12.1327833"><ele>30.0</ele><time>2026-04-30T08:12:09.645Z</time></trkpt><trkpt lat="44.1838733" lon="12.132895"><ele>30.0</ele><time>2026-04-30T08:12:10.643Z</time></trkpt><trkpt lat="44.1838483" lon="12.1329933"><ele>30.0</ele><time>2026-04-30T08:12:11.639Z</time></trkpt><trkpt lat="44.1838183" lon="12.1330833"><ele>30.0</ele><time>2026-04-30T08:12:12.64Z</time></trkpt><trkpt lat="44.18378" lon="12.1331783"><ele>30.0</ele><time>2026-04-30T08:12:13.638Z</time></trkpt><trkpt lat="44.1837417" lon="12.1332767"><ele>30.0</ele><time>2026-04-30T08:12:14.639Z</time></trkpt><trkpt lat="44.183705" lon="12.1333733"><ele>30.0</ele><time>2026-04-30T08:12:15.646Z</time></trkpt><trkpt lat="44.183665" lon="12.1334633"><ele>30.0</ele><time>2026-04-30T08:12:16.642Z</time></trkpt><trkpt lat="44.183625" lon="12.133555"><ele>30.0</ele><time>2026-04-30T08:12:17.649Z</time></trkpt><trkpt lat="44.183585" lon="12.13365"><ele>30.0</ele><time>2026-04-30T08:12:18.645Z</time></trkpt><trkpt lat="44.1835467" lon="12.133745"><ele>30.0</ele><time>2026-04-30T08:12:19.651Z</time></trkpt><trkpt lat="44.1835083" lon="12.13384"><ele>30.0</ele><time>2026-04-30T08:12:20.642Z</time></trkpt><trkpt lat="44.1834683" lon="12.133935"><ele>30.0</ele><time>2026-04-30T08:12:21.641Z</time></trkpt><trkpt lat="44.1834267" lon="12.13403"><ele>30.0</ele><time>2026-04-30T08:12:22.647Z</time></trkpt><trkpt lat="44.18339" lon="12.13412"><ele>30.0</ele><time>2026-04-30T08:12:23.645Z</time></trkpt><trkpt lat="44.1833567" lon="12.1342033"><ele>30.0</ele><time>2026-04-30T08:12:24.646Z</time></trkpt><trkpt lat="44.1833233" lon="12.1342833"><ele>30.0</ele><time>2026-04-30T08:12:25.643Z</time></trkpt><trkpt lat="44.18329" lon="12.134365"><ele>30.0</ele><time>2026-04-30T08:12:26.646Z</time></trkpt><trkpt lat="44.1832583" lon="12.1344467"><ele>30.0</ele><time>2026-04-30T08:12:27.647Z</time></trkpt><trkpt lat="44.1832283" lon="12.1345283"><ele>30.0</ele><time>2026-04-30T08:12:28.642Z</time></trkpt><trkpt lat="44.1831883" lon="12.1346817"><ele>30.0</ele><time>2026-04-30T08:12:30.645Z</time></trkpt><trkpt lat="44.1831917" lon="12.134855"><ele>30.0</ele><time>2026-04-30T08:12:32.638Z</time></trkpt><trkpt lat="44.1831717" lon="12.1349633"><ele>30.0</ele><time>2026-04-30T08:12:33.639Z</time></trkpt><trkpt lat="44.183135" lon="12.135065"><ele>30.0</ele><time>2026-04-30T08:12:34.644Z</time></trkpt><trkpt lat="44.183085" lon="12.135165"><ele>30.0</ele><time>2026-04-30T08:12:35.643Z</time></trkpt><trkpt lat="44.1830133" lon="12.1352433"><ele>30.0</ele><time>2026-04-30T08:12:36.646Z</time></trkpt><trkpt lat="44.182935" lon="12.13532"><ele>30.0</ele><time>2026-04-30T08:12:37.647Z</time></trkpt><trkpt lat="44.182865" lon="12.1354117"><ele>30.0</ele><time>2026-04-30T08:12:38.641Z</time></trkpt><trkpt lat="44.1828067" lon="12.135505"><ele>30.0</ele><time>2026-04-30T08:12:39.643Z</time></trkpt><trkpt lat="44.1827517" lon="12.1355983"><ele>30.0</ele><time>2026-04-30T08:12:40.648Z</time></trkpt><trkpt lat="44.1826967" lon="12.1356767"><ele>30.0</ele><time>2026-04-30T08:12:41.646Z</time></trkpt><trkpt lat="44.1826333" lon="12.1357317"><ele>30.0</ele><time>2026-04-30T08:12:42.649Z</time></trkpt><trkpt lat="44.1825633" lon="12.1357567"><ele>30.0</ele><time>2026-04-30T08:12:43.645Z</time></trkpt><trkpt lat="44.18249" lon="12.1357583"><ele>30.0</ele><time>2026-04-30T08:12:44.636Z</time></trkpt><trkpt lat="44.18241" lon="12.1357383"><ele>30.0</ele><time>2026-04-30T08:12:45.646Z</time></trkpt><trkpt lat="44.1823267" lon="12.1357033"><ele>29.8</ele><time>2026-04-30T08:12:46.651Z</time></trkpt><trkpt lat="44.1822367" lon="12.135655"><ele>29.6</ele><time>2026-04-30T08:12:47.648Z</time></trkpt><trkpt lat="44.18214" lon="12.1355967"><ele>29.4</ele><time>2026-04-30T08:12:48.643Z</time></trkpt><trkpt lat="44.1820367" lon="12.1355367"><ele>29.2</ele><time>2026-04-30T08:12:49.644Z</time></trkpt><trkpt lat="44.181925" lon="12.1354717"><ele>29.0</ele><time>2026-04-30T08:12:50.649Z</time></trkpt><trkpt lat="44.1818133" lon="12.1354067"><ele>29.0</ele><time>2026-04-30T08:12:51.64Z</time></trkpt><trkpt lat="44.181705" lon="12.1353417"><ele>29.0</ele><time>2026-04-30T08:12:52.645Z</time></trkpt><trkpt lat="44.1815983" lon="12.1352783"><ele>29.0</ele><time>2026-04-30T08:12:53.643Z</time></trkpt><trkpt lat="44.1814917" lon="12.1352083"><ele>29.0</ele><time>2026-04-30T08:12:54.641Z</time></trkpt><trkpt lat="44.1813767" lon="12.13514"><ele>28.75</ele><time>2026-04-30T08:12:55.647Z</time></trkpt><trkpt lat="44.181265" lon="12.13507"><ele>28.5</ele><time>2026-04-30T08:12:56.653Z</time></trkpt><trkpt lat="44.1811517" lon="12.135"><ele>28.25</ele><time>2026-04-30T08:12:57.647Z</time></trkpt><trkpt lat="44.1810333" lon="12.134925"><ele>28.0</ele><time>2026-04-30T08:12:58.652Z</time></trkpt><trkpt lat="44.1809133" lon="12.1348467"><ele>28.25</ele><time>2026-04-30T08:12:59.645Z</time></trkpt><trkpt lat="44.1807917" lon="12.13476"><ele>28.5</ele><time>2026-04-30T08:13:00.646Z</time></trkpt><trkpt lat="44.180665" lon="12.1346683"><ele>28.75</ele><time>2026-04-30T08:13:01.642Z</time></trkpt><trkpt lat="44.1805333" lon="12.1345717"><ele>29.0</ele><time>2026-04-30T08:13:02.641Z</time></trkpt><trkpt lat="44.1804" lon="12.1344617"><ele>29.0</ele><time>2026-04-30T08:13:03.641Z</time></trkpt><trkpt lat="44.1802617" lon="12.1343383"><ele>29.0</ele><time>2026-04-30T08:13:04.644Z</time></trkpt><trkpt lat="44.1801283" lon="12.1342133"><ele>29.0</ele><time>2026-04-30T08:13:05.636Z</time></trkpt><trkpt lat="44.1800017" lon="12.1340933"><ele>28.666666666666664</ele><time>2026-04-30T08:13:06.647Z</time></trkpt><trkpt lat="44.1798733" lon="12.13397"><ele>28.333333333333336</ele><time>2026-04-30T08:13:07.64Z</time></trkpt><trkpt lat="44.1797367" lon="12.1338483"><ele>28.0</ele><time>2026-04-30T08:13:08.648Z</time></trkpt><trkpt lat="44.1795917" lon="12.1337233"><ele>28.0</ele><time>2026-04-30T08:13:09.644Z</time></trkpt><trkpt lat="44.1794383" lon="12.1336"><ele>28.0</ele><time>2026-04-30T08:13:10.645Z</time></trkpt><trkpt lat="44.17928" lon="12.13348"><ele>28.0</ele><time>2026-04-30T08:13:11.648Z</time></trkpt><trkpt lat="44.17912" lon="12.1333667"><ele>27.666666666666668</ele><time>2026-04-30T08:13:12.643Z</time></trkpt><trkpt lat="44.1789583" lon="12.1332533"><ele>27.333333333333336</ele><time>2026-04-30T08:13:13.658Z</time></trkpt><trkpt lat="44.1787917" lon="12.1331383"><ele>27.0</ele><time>2026-04-30T08:13:14.648Z</time></trkpt><trkpt lat="44.1786233" lon="12.133025"><ele>27.666666666666664</ele><time>2026-04-30T08:13:15.644Z</time></trkpt><trkpt lat="44.1784567" lon="12.13291"><ele>28.333333333333332</ele><time>2026-04-30T08:13:16.645Z</time></trkpt><trkpt lat="44.17829" lon="12.132795"><ele>29.0</ele><time>2026-04-30T08:13:17.643Z</time></trkpt><trkpt lat="44.1781317" lon="12.13268"><ele>29.0</ele><time>2026-04-30T08:13:18.641Z</time></trkpt><trkpt lat="44.1779717" lon="12.1325683"><ele>29.0</ele><time>2026-04-30T08:13:19.645Z</time></trkpt><trkpt lat="44.17781" lon="12.1324617"><ele>29.0</ele><time>2026-04-30T08:13:20.642Z</time></trkpt><trkpt lat="44.1776483" lon="12.1323533"><ele>29.0</ele><time>2026-04-30T08:13:21.649Z</time></trkpt><trkpt lat="44.17749" lon="12.1322467"><ele>29.0</ele><time>2026-04-30T08:13:22.644Z</time></trkpt><trkpt lat="44.17734" lon="12.1321433"><ele>29.0</ele><time>2026-04-30T08:13:23.643Z</time></trkpt><trkpt lat="44.177195" lon="12.1320417"><ele>29.0</ele><time>2026-04-30T08:13:24.648Z</time></trkpt><trkpt lat="44.1770517" lon="12.13194"><ele>29.0</ele><time>2026-04-30T08:13:25.642Z</time></trkpt><trkpt lat="44.176905" lon="12.1318383"><ele>29.0</ele><time>2026-04-30T08:13:26.65Z</time></trkpt><trkpt lat="44.1767583" lon="12.13174"><ele>29.0</ele><time>2026-04-30T08:13:27.646Z</time></trkpt><trkpt lat="44.17661" lon="12.1316333"><ele>29.0</ele><time>2026-04-30T08:13:28.641Z</time></trkpt><trkpt lat="44.1764583" lon="12.131525"><ele>29.0</ele><time>2026-04-30T08:13:29.639Z</time></trkpt><trkpt lat="44.1763033" lon="12.13142"><ele>29.666666666666664</ele><time>2026-04-30T08:13:30.646Z</time></trkpt><trkpt lat="44.1761467" lon="12.1313117"><ele>30.333333333333336</ele><time>2026-04-30T08:13:31.641Z</time></trkpt><trkpt lat="44.1759867" lon="12.131205"><ele>31.0</ele><time>2026-04-30T08:13:32.642Z</time></trkpt><trkpt lat="44.1758233" lon="12.131095"><ele>31.333333333333336</ele><time>2026-04-30T08:13:33.642Z</time></trkpt><trkpt lat="44.1756617" lon="12.130985"><ele>31.666666666666664</ele><time>2026-04-30T08:13:34.647Z</time></trkpt><trkpt lat="44.1755" lon="12.130875"><ele>32.0</ele><time>2026-04-30T08:13:35.64Z</time></trkpt><trkpt lat="44.1753367" lon="12.130765"><ele>31.0</ele><time>2026-04-30T08:13:36.641Z</time></trkpt><trkpt lat="44.1751733" lon="12.1306533"><ele>30.0</ele><time>2026-04-30T08:13:37.649Z</time></trkpt><trkpt lat="44.1750083" lon="12.1305383"><ele>29.0</ele><time>2026-04-30T08:13:38.643Z</time></trkpt><trkpt lat="44.1748467" lon="12.130425"><ele>29.0</ele><time>2026-04-30T08:13:39.65Z</time></trkpt><trkpt lat="44.17468" lon="12.1303067"><ele>29.0</ele><time>2026-04-30T08:13:40.649Z</time></trkpt><trkpt lat="44.1745133" lon="12.1301917"><ele>29.0</ele><time>2026-04-30T08:13:41.643Z</time></trkpt><trkpt lat="44.1743517" lon="12.13008"><ele>29.0</ele><time>2026-04-30T08:13:42.645Z</time></trkpt><trkpt lat="44.174185" lon="12.1299767"><ele>29.0</ele><time>2026-04-30T08:13:43.651Z</time></trkpt><trkpt lat="44.1740217" lon="12.12988"><ele>29.0</ele><time>2026-04-30T08:13:44.639Z</time></trkpt><trkpt lat="44.1738567" lon="12.12979"><ele>29.333333333333332</ele><time>2026-04-30T08:13:45.649Z</time></trkpt><trkpt lat="44.1736933" lon="12.129705"><ele>29.666666666666664</ele><time>2026-04-30T08:13:46.639Z</time></trkpt><trkpt lat="44.17354" lon="12.1296233"><ele>30.0</ele><time>2026-04-30T08:13:47.64Z</time></trkpt><trkpt lat="44.1733917" lon="12.12955"><ele>30.0</ele><time>2026-04-30T08:13:48.636Z</time></trkpt><trkpt lat="44.1732533" lon="12.1294867"><ele>30.0</ele><time>2026-04-30T08:13:49.639Z</time></trkpt><trkpt lat="44.1731367" lon="12.12943"><ele>30.0</ele><time>2026-04-30T08:13:50.637Z</time></trkpt><trkpt lat="44.1730383" lon="12.1293717"><ele>30.0</ele><time>2026-04-30T08:13:51.646Z</time></trkpt><trkpt lat="44.1729417" lon="12.129325"><ele>30.4</ele><time>2026-04-30T08:13:52.642Z</time></trkpt><trkpt lat="44.1728483" lon="12.1292883"><ele>30.8</ele><time>2026-04-30T08:13:53.647Z</time></trkpt><trkpt lat="44.172755" lon="12.1292483"><ele>31.200000000000003</ele><time>2026-04-30T08:13:54.644Z</time></trkpt><trkpt lat="44.172665" lon="12.1292017"><ele>31.6</ele><time>2026-04-30T08:13:55.644Z</time></trkpt><trkpt lat="44.1725717" lon="12.1291567"><ele>32.0</ele><time>2026-04-30T08:13:56.648Z</time></trkpt><trkpt lat="44.1724767" lon="12.1291167"><ele>32.0</ele><time>2026-04-30T08:13:57.652Z</time></trkpt><trkpt lat="44.1723783" lon="12.1290767"><ele>32.0</ele><time>2026-04-30T08:13:58.642Z</time></trkpt><trkpt lat="44.172275" lon="12.1290267"><ele>32.0</ele><time>2026-04-30T08:13:59.642Z</time></trkpt><trkpt lat="44.1721667" lon="12.1289733"><ele>32.0</ele><time>2026-04-30T08:14:00.643Z</time></trkpt><trkpt lat="44.17205" lon="12.1289233"><ele>32.0</ele><time>2026-04-30T08:14:01.639Z</time></trkpt><trkpt lat="44.1719267" lon="12.1288667"><ele>34.0</ele><time>2026-04-30T08:14:02.646Z</time></trkpt><trkpt lat="44.1717983" lon="12.1288067"><ele>36.0</ele><time>2026-04-30T08:14:03.64Z</time></trkpt><trkpt lat="44.171675" lon="12.128745"><ele>38.0</ele><time>2026-04-30T08:14:04.645Z</time></trkpt><trkpt lat="44.1715517" lon="12.1286867"><ele>40.0</ele><time>2026-04-30T08:14:05.646Z</time></trkpt><trkpt lat="44.17143" lon="12.1286283"><ele>42.0</ele><time>2026-04-30T08:14:06.648Z</time></trkpt><trkpt lat="44.1713083" lon="12.1285733"><ele>44.0</ele><time>2026-04-30T08:14:07.648Z</time></trkpt><trkpt lat="44.1711933" lon="12.1285183"><ele>46.0</ele><time>2026-04-30T08:14:08.651Z</time></trkpt><trkpt lat="44.1710883" lon="12.128465"><ele>48.0</ele><time>2026-04-30T08:14:09.638Z</time></trkpt><trkpt lat="44.1709867" lon="12.1284167"><ele>48.0</ele><time>2026-04-30T08:14:10.646Z</time></trkpt><trkpt lat="44.1708917" lon="12.12837"><ele>48.0</ele><time>2026-04-30T08:14:11.642Z</time></trkpt><trkpt lat="44.170795" lon="12.1283233"><ele>48.0</ele><time>2026-04-30T08:14:12.64Z</time></trkpt><trkpt lat="44.17069" lon="12.1282717"><ele>48.0</ele><time>2026-04-30T08:14:13.642Z</time></trkpt><trkpt lat="44.1705767" lon="12.1282183"><ele>48.0</ele><time>2026-04-30T08:14:14.643Z</time></trkpt><trkpt lat="44.1704667" lon="12.1281617"><ele>48.75</ele><time>2026-04-30T08:14:15.642Z</time></trkpt><trkpt lat="44.170355" lon="12.128105"><ele>49.5</ele><time>2026-04-30T08:14:16.649Z</time></trkpt><trkpt lat="44.17024" lon="12.1280467"><ele>50.25</ele><time>2026-04-30T08:14:17.642Z</time></trkpt><trkpt lat="44.1701217" lon="12.1279917"><ele>51.0</ele><time>2026-04-30T08:14:18.643Z</time></trkpt><trkpt lat="44.1700033" lon="12.127935"><ele>51.0</ele><time>2026-04-30T08:14:19.648Z</time></trkpt><trkpt lat="44.1698833" lon="12.127875"><ele>51.0</ele><time>2026-04-30T08:14:20.644Z</time></trkpt><trkpt lat="44.1697617" lon="12.1278167"><ele>51.0</ele><time>2026-04-30T08:14:21.644Z</time></trkpt><trkpt lat="44.1696383" lon="12.1277667"><ele>51.0</ele><time>2026-04-30T08:14:22.656Z</time></trkpt><trkpt lat="44.1695167" lon="12.127725"><ele>51.75</ele><time>2026-04-30T08:14:23.649Z</time></trkpt><trkpt lat="44.1693933" lon="12.12768"><ele>52.5</ele><time>2026-04-30T08:14:24.64Z</time></trkpt><trkpt lat="44.1692683" lon="12.1276383"><ele>53.25</ele><time>2026-04-30T08:14:25.644Z</time></trkpt><trkpt lat="44.1691567" lon="12.1275983"><ele>54.0</ele><time>2026-04-30T08:14:26.638Z</time></trkpt><trkpt lat="44.16905" lon="12.127565"><ele>54.0</ele><time>2026-04-30T08:14:27.645Z</time></trkpt><trkpt lat="44.168945" lon="12.1275233"><ele>54.0</ele><time>2026-04-30T08:14:28.644Z</time></trkpt><trkpt lat="44.1688333" lon="12.1274867"><ele>54.0</ele><time>2026-04-30T08:14:29.642Z</time></trkpt><trkpt lat="44.168715" lon="12.12745"><ele>54.0</ele><time>2026-04-30T08:14:30.644Z</time></trkpt><trkpt lat="44.1686" lon="12.12741"><ele>53.0</ele><time>2026-04-30T08:14:31.64Z</time></trkpt><trkpt lat="44.1684767" lon="12.1273733"><ele>52.0</ele><time>2026-04-30T08:14:32.647Z</time></trkpt><trkpt lat="44.16835" lon="12.1273367"><ele>51.0</ele><time>2026-04-30T08:14:33.652Z</time></trkpt><trkpt lat="44.168225" lon="12.1272933"><ele>50.0</ele><time>2026-04-30T08:14:34.647Z</time></trkpt><trkpt lat="44.1680983" lon="12.1272517"><ele>52.0</ele><time>2026-04-30T08:14:35.649Z</time></trkpt><trkpt lat="44.1679683" lon="12.1272117"><ele>54.0</ele><time>2026-04-30T08:14:36.651Z</time></trkpt><trkpt lat="44.16784" lon="12.127165"><ele>56.0</ele><time>2026-04-30T08:14:37.645Z</time></trkpt><trkpt lat="44.16771" lon="12.1271183"><ele>58.0</ele><time>2026-04-30T08:14:38.65Z</time></trkpt><trkpt lat="44.1675733" lon="12.1270717"><ele>58.0</ele><time>2026-04-30T08:14:39.645Z</time></trkpt><trkpt lat="44.1674333" lon="12.1270217"><ele>58.0</ele><time>2026-04-30T08:14:40.646Z</time></trkpt><trkpt lat="44.16729" lon="12.1269717"><ele>58.0</ele><time>2026-04-30T08:14:41.639Z</time></trkpt><trkpt lat="44.16715" lon="12.1269183"><ele>58.0</ele><time>2026-04-30T08:14:42.645Z</time></trkpt><trkpt lat="44.16701" lon="12.1268617"><ele>59.25</ele><time>2026-04-30T08:14:43.65Z</time></trkpt><trkpt lat="44.1668717" lon="12.1267983"><ele>60.5</ele><time>2026-04-30T08:14:44.646Z</time></trkpt><trkpt lat="44.1667333" lon="12.1267367"><ele>61.75</ele><time>2026-04-30T08:14:45.648Z</time></trkpt><trkpt lat="44.166595" lon="12.126675"><ele>63.0</ele><time>2026-04-30T08:14:46.646Z</time></trkpt><trkpt lat="44.16646" lon="12.12662"><ele>63.25</ele><time>2026-04-30T08:14:47.645Z</time></trkpt><trkpt lat="44.1663233" lon="12.1265633"><ele>63.5</ele><time>2026-04-30T08:14:48.647Z</time></trkpt><trkpt lat="44.16619" lon="12.1264983"><ele>63.75</ele><time>2026-04-30T08:14:49.646Z</time></trkpt><trkpt lat="44.166055" lon="12.1264433"><ele>64.0</ele><time>2026-04-30T08:14:50.654Z</time></trkpt><trkpt lat="44.1659217" lon="12.1263817"><ele>64.0</ele><time>2026-04-30T08:14:51.641Z</time></trkpt><trkpt lat="44.1657867" lon="12.1263183"><ele>64.0</ele><time>2026-04-30T08:14:52.65Z</time></trkpt><trkpt lat="44.16565" lon="12.1262517"><ele>64.0</ele><time>2026-04-30T08:14:53.641Z</time></trkpt><trkpt lat="44.165515" lon="12.1261817"><ele>64.0</ele><time>2026-04-30T08:14:54.641Z</time></trkpt><trkpt lat="44.1653683" lon="12.12611"><ele>65.0</ele><time>2026-04-30T08:14:55.645Z</time></trkpt><trkpt lat="44.16521" lon="12.126035"><ele>66.0</ele><time>2026-04-30T08:14:56.65Z</time></trkpt><trkpt lat="44.1650633" lon="12.12596"><ele>67.0</ele><time>2026-04-30T08:14:57.641Z</time></trkpt><trkpt lat="44.1649133" lon="12.1258867"><ele>65.33333333333333</ele><time>2026-04-30T08:14:58.645Z</time></trkpt><trkpt lat="44.1647633" lon="12.1258133"><ele>63.66666666666667</ele><time>2026-04-30T08:14:59.646Z</time></trkpt><trkpt lat="44.1646083" lon="12.1257417"><ele>62.0</ele><time>2026-04-30T08:15:00.645Z</time></trkpt><trkpt lat="44.16445" lon="12.1256667"><ele>62.0</ele><time>2026-04-30T08:15:01.655Z</time></trkpt><trkpt lat="44.1642933" lon="12.1255917"><ele>62.0</ele><time>2026-04-30T08:15:02.646Z</time></trkpt><trkpt lat="44.1641417" lon="12.1255183"><ele>62.0</ele><time>2026-04-30T08:15:03.649Z</time></trkpt><trkpt lat="44.1639883" lon="12.12545"><ele>64.33333333333334</ele><time>2026-04-30T08:15:04.645Z</time></trkpt><trkpt lat="44.1638383" lon="12.1253783"><ele>66.66666666666667</ele><time>2026-04-30T08:15:05.642Z</time></trkpt><trkpt lat="44.1636883" lon="12.1253033"><ele>69.0</ele><time>2026-04-30T08:15:06.653Z</time></trkpt><trkpt lat="44.1635367" lon="12.1252333"><ele>69.0</ele><time>2026-04-30T08:15:07.648Z</time></trkpt><trkpt lat="44.1633883" lon="12.1251733"><ele>69.0</ele><time>2026-04-30T08:15:08.641Z</time></trkpt><trkpt lat="44.1632367" lon="12.1251267"><ele>69.0</ele><time>2026-04-30T08:15:09.644Z</time></trkpt><trkpt lat="44.1630783" lon="12.1251017"><ele>70.0</ele><time>2026-04-30T08:15:10.642Z</time></trkpt><trkpt lat="44.1629183" lon="12.1250883"><ele>71.0</ele><time>2026-04-30T08:15:11.65Z</time></trkpt><trkpt lat="44.1627583" lon="12.1250833"><ele>72.0</ele><time>2026-04-30T08:15:12.651Z</time></trkpt><trkpt lat="44.1625983" lon="12.1250817"><ele>72.0</ele><time>2026-04-30T08:15:13.654Z</time></trkpt><trkpt lat="44.1624567" lon="12.1250783"><ele>72.0</ele><time>2026-04-30T08:15:14.65Z</time></trkpt><trkpt lat="44.1623267" lon="12.1250767"><ele>72.0</ele><time>2026-04-30T08:15:15.648Z</time></trkpt><trkpt lat="44.1622233" lon="12.1250733"><ele>72.0</ele><time>2026-04-30T08:15:16.655Z</time></trkpt><trkpt lat="44.1621217" lon="12.12507"><ele>71.75</ele><time>2026-04-30T08:15:17.641Z</time></trkpt><trkpt lat="44.1620017" lon="12.1250667"><ele>71.5</ele><time>2026-04-30T08:15:18.639Z</time></trkpt><trkpt lat="44.1618667" lon="12.125055"><ele>71.25</ele><time>2026-04-30T08:15:19.649Z</time></trkpt><trkpt lat="44.1617167" lon="12.12504"><ele>71.0</ele><time>2026-04-30T08:15:20.642Z</time></trkpt><trkpt lat="44.161555" lon="12.1250367"><ele>72.33333333333334</ele><time>2026-04-30T08:15:21.642Z</time></trkpt><trkpt lat="44.161385" lon="12.12504"><ele>73.66666666666667</ele><time>2026-04-30T08:15:22.642Z</time></trkpt><trkpt lat="44.1612133" lon="12.12504"><ele>75.0</ele><time>2026-04-30T08:15:23.638Z</time></trkpt><trkpt lat="44.1610467" lon="12.12504"><ele>75.0</ele><time>2026-04-30T08:15:24.649Z</time></trkpt><trkpt lat="44.1608817" lon="12.12504"><ele>75.0</ele><time>2026-04-30T08:15:25.65Z</time></trkpt><trkpt lat="44.16071" lon="12.1250383"><ele>75.0</ele><time>2026-04-30T08:15:26.642Z</time></trkpt><trkpt lat="44.1605333" lon="12.1250317"><ele>76.33333333333333</ele><time>2026-04-30T08:15:27.642Z</time></trkpt><trkpt lat="44.160355" lon="12.125025"><ele>77.66666666666666</ele><time>2026-04-30T08:15:28.646Z</time></trkpt><trkpt lat="44.1601783" lon="12.1250183"><ele>79.0</ele><time>2026-04-30T08:15:29.645Z</time></trkpt><trkpt lat="44.1600033" lon="12.1250167"><ele>78.66666666666666</ele><time>2026-04-30T08:15:30.64Z</time></trkpt><trkpt lat="44.1598333" lon="12.12502"><ele>78.33333333333333</ele><time>2026-04-30T08:15:31.65Z</time></trkpt><trkpt lat="44.159675" lon="12.1250533"><ele>78.0</ele><time>2026-04-30T08:15:32.643Z</time></trkpt><trkpt lat="44.1595317" lon="12.1251317"><ele>78.0</ele><time>2026-04-30T08:15:33.648Z</time></trkpt><trkpt lat="44.1593983" lon="12.1252583"><ele>78.0</ele><time>2026-04-30T08:15:34.653Z</time></trkpt><trkpt lat="44.159275" lon="12.1254167"><ele>78.0</ele><time>2026-04-30T08:15:35.655Z</time></trkpt><trkpt lat="44.159155" lon="12.1255917"><ele>81.0</ele><time>2026-04-30T08:15:36.645Z</time></trkpt><trkpt lat="44.1590283" lon="12.12576"><ele>84.0</ele><time>2026-04-30T08:15:37.646Z</time></trkpt><trkpt lat="44.1589033" lon="12.1259"><ele>87.0</ele><time>2026-04-30T08:15:38.648Z</time></trkpt><trkpt lat="44.15877" lon="12.1260033"><ele>87.0</ele><time>2026-04-30T08:15:39.642Z</time></trkpt><trkpt lat="44.15862" lon="12.126065"><ele>87.0</ele><time>2026-04-30T08:15:40.648Z</time></trkpt><trkpt lat="44.15846" lon="12.1260883"><ele>87.0</ele><time>2026-04-30T08:15:41.647Z</time></trkpt><trkpt lat="44.1582917" lon="12.1260683"><ele>88.66666666666667</ele><time>2026-04-30T08:15:42.646Z</time></trkpt><trkpt lat="44.15812" lon="12.1260367"><ele>90.33333333333334</ele><time>2026-04-30T08:15:43.645Z</time></trkpt><trkpt lat="44.157955" lon="12.1260117"><ele>92.0</ele><time>2026-04-30T08:15:44.641Z</time></trkpt><trkpt lat="44.1577933" lon="12.1260017"><ele>92.0</ele><time>2026-04-30T08:15:45.652Z</time></trkpt><trkpt lat="44.15763" lon="12.1260217"><ele>92.0</ele><time>2026-04-30T08:15:46.642Z</time></trkpt><trkpt lat="44.1574633" lon="12.12607"><ele>92.0</ele><time>2026-04-30T08:15:47.644Z</time></trkpt><trkpt lat="44.1572967" lon="12.1261433"><ele>92.33333333333334</ele><time>2026-04-30T08:15:48.643Z</time></trkpt><trkpt lat="44.1571317" lon="12.1262367"><ele>92.66666666666667</ele><time>2026-04-30T08:15:49.654Z</time></trkpt><trkpt lat="44.1569667" lon="12.12634"><ele>93.0</ele><time>2026-04-30T08:15:50.643Z</time></trkpt><trkpt lat="44.1568033" lon="12.1264467"><ele>93.0</ele><time>2026-04-30T08:15:51.644Z</time></trkpt><trkpt lat="44.1566367" lon="12.1265583"><ele>93.0</ele><time>2026-04-30T08:15:52.647Z</time></trkpt><trkpt lat="44.1564767" lon="12.1266667"><ele>93.0</ele><time>2026-04-30T08:15:53.641Z</time></trkpt><trkpt lat="44.1563167" lon="12.126775"><ele>95.66666666666666</ele><time>2026-04-30T08:15:54.641Z</time></trkpt><trkpt lat="44.1561567" lon="12.1268833"><ele>98.33333333333333</ele><time>2026-04-30T08:15:55.647Z</time></trkpt><trkpt lat="44.156" lon="12.1269933"><ele>101.0</ele><time>2026-04-30T08:15:56.64Z</time></trkpt><trkpt lat="44.1558433" lon="12.1270983"><ele>101.0</ele><time>2026-04-30T08:15:57.642Z</time></trkpt><trkpt lat="44.15569" lon="12.1272083"><ele>101.0</ele><time>2026-04-30T08:15:58.655Z</time></trkpt><trkpt lat="44.1555333" lon="12.127315"><ele>101.0</ele><time>2026-04-30T08:15:59.662Z</time></trkpt><trkpt lat="44.1553767" lon="12.12742"><ele>103.66666666666666</ele><time>2026-04-30T08:16:00.642Z</time></trkpt><trkpt lat="44.1552283" lon="12.12753"><ele>106.33333333333334</ele><time>2026-04-30T08:16:01.641Z</time></trkpt><trkpt lat="44.1550983" lon="12.127645"><ele>109.0</ele><time>2026-04-30T08:16:02.642Z</time></trkpt><trkpt lat="44.154985" lon="12.1277817"><ele>109.0</ele><time>2026-04-30T08:16:03.646Z</time></trkpt><trkpt lat="44.1548983" lon="12.127955"><ele>109.0</ele><time>2026-04-30T08:16:04.647Z</time></trkpt><trkpt lat="44.1548417" lon="12.12816"><ele>109.0</ele><time>2026-04-30T08:16:05.641Z</time></trkpt><trkpt lat="44.15481" lon="12.12839"><ele>108.66666666666667</ele><time>2026-04-30T08:16:06.642Z</time></trkpt><trkpt lat="44.154805" lon="12.1286333"><ele>108.33333333333334</ele><time>2026-04-30T08:16:07.646Z</time></trkpt><trkpt lat="44.1548083" lon="12.1288717"><ele>108.0</ele><time>2026-04-30T08:16:08.648Z</time></trkpt><trkpt lat="44.154805" lon="12.129105"><ele>110.33333333333334</ele><time>2026-04-30T08:16:09.642Z</time></trkpt><trkpt lat="44.15478" lon="12.1293333"><ele>112.66666666666667</ele><time>2026-04-30T08:16:10.644Z</time></trkpt><trkpt lat="44.15473" lon="12.1295417"><ele>115.0</ele><time>2026-04-30T08:16:11.643Z</time></trkpt><trkpt lat="44.154655" lon="12.1297267"><ele>116.66666666666667</ele><time>2026-04-30T08:16:12.647Z</time></trkpt><trkpt lat="44.1545533" lon="12.1298983"><ele>118.33333333333334</ele><time>2026-04-30T08:16:13.647Z</time></trkpt><trkpt lat="44.1544417" lon="12.1300667"><ele>120.0</ele><time>2026-04-30T08:16:14.644Z</time></trkpt><trkpt lat="44.1543283" lon="12.1302433"><ele>120.0</ele><time>2026-04-30T08:16:15.647Z</time></trkpt><trkpt lat="44.1542133" lon="12.1304217"><ele>120.0</ele><time>2026-04-30T08:16:16.641Z</time></trkpt><trkpt lat="44.1540983" lon="12.1306033"><ele>120.0</ele><time>2026-04-30T08:16:17.65Z</time></trkpt><trkpt lat="44.1539833" lon="12.13078"><ele>124.33333333333334</ele><time>2026-04-30T08:16:18.642Z</time></trkpt><trkpt lat="44.1538717" lon="12.1309567"><ele>128.66666666666669</ele><time>2026-04-30T08:16:19.642Z</time></trkpt><trkpt lat="44.1537583" lon="12.1311317"><ele>133.0</ele><time>2026-04-30T08:16:20.643Z</time></trkpt><trkpt lat="44.15365" lon="12.1313033"><ele>133.0</ele><time>2026-04-30T08:16:21.648Z</time></trkpt><trkpt lat="44.1535433" lon="12.1314717"><ele>133.0</ele><time>2026-04-30T08:16:22.654Z</time></trkpt><trkpt lat="44.153435" lon="12.1316467"><ele>133.0</ele><time>2026-04-30T08:16:23.642Z</time></trkpt><trkpt lat="44.1533233" lon="12.1318183"><ele>133.0</ele><time>2026-04-30T08:16:24.648Z</time></trkpt><trkpt lat="44.153215" lon="12.13199"><ele>133.0</ele><time>2026-04-30T08:16:25.648Z</time></trkpt><trkpt lat="44.1531067" lon="12.1321633"><ele>133.0</ele><time>2026-04-30T08:16:26.657Z</time></trkpt><trkpt lat="44.1529967" lon="12.1323417"><ele>138.0</ele><time>2026-04-30T08:16:27.643Z</time></trkpt><trkpt lat="44.1528883" lon="12.1325317"><ele>143.0</ele><time>2026-04-30T08:16:28.651Z</time></trkpt><trkpt lat="44.1527883" lon="12.1327317"><ele>148.0</ele><time>2026-04-30T08:16:29.643Z</time></trkpt><trkpt lat="44.1527033" lon="12.132945"><ele>148.0</ele><time>2026-04-30T08:16:30.642Z</time></trkpt><trkpt lat="44.1526367" lon="12.133175"><ele>148.0</ele><time>2026-04-30T08:16:31.639Z</time></trkpt><trkpt lat="44.1525783" lon="12.1334117"><ele>148.0</ele><time>2026-04-30T08:16:32.647Z</time></trkpt><trkpt lat="44.152525" lon="12.1336533"><ele>148.0</ele><time>2026-04-30T08:16:33.65Z</time></trkpt><trkpt lat="44.1524767" lon="12.1338767"><ele>148.0</ele><time>2026-04-30T08:16:34.65Z</time></trkpt><trkpt lat="44.15243" lon="12.134085"><ele>148.0</ele><time>2026-04-30T08:16:35.655Z</time></trkpt><trkpt lat="44.1523867" lon="12.1342733"><ele>152.66666666666669</ele><time>2026-04-30T08:16:36.646Z</time></trkpt><trkpt lat="44.15233" lon="12.1344583"><ele>157.33333333333334</ele><time>2026-04-30T08:16:37.644Z</time></trkpt><trkpt lat="44.152245" lon="12.13463"><ele>162.0</ele><time>2026-04-30T08:16:38.656Z</time></trkpt><trkpt lat="44.1521383" lon="12.1347883"><ele>160.0</ele><time>2026-04-30T08:16:39.641Z</time></trkpt><trkpt lat="44.1520183" lon="12.1349617"><ele>158.0</ele><time>2026-04-30T08:16:40.641Z</time></trkpt><trkpt lat="44.15192" lon="12.1351467"><ele>156.0</ele><time>2026-04-30T08:16:41.646Z</time></trkpt><trkpt lat="44.1518467" lon="12.13535"><ele>156.0</ele><time>2026-04-30T08:16:42.656Z</time></trkpt><trkpt lat="44.1518083" lon="12.1355767"><ele>156.0</ele><time>2026-04-30T08:16:43.645Z</time></trkpt><trkpt lat="44.1518117" lon="12.1358033"><ele>156.0</ele><time>2026-04-30T08:16:44.642Z</time></trkpt><trkpt lat="44.1518633" lon="12.13602"><ele>157.0</ele><time>2026-04-30T08:16:45.643Z</time></trkpt><trkpt lat="44.1519467" lon="12.136225"><ele>158.0</ele><time>2026-04-30T08:16:46.641Z</time></trkpt><trkpt lat="44.1520617" lon="12.1364217"><ele>159.0</ele><time>2026-04-30T08:16:47.646Z</time></trkpt><trkpt lat="44.1521783" lon="12.1366283"><ele>157.33333333333334</ele><time>2026-04-30T08:16:48.643Z</time></trkpt><trkpt lat="44.1522883" lon="12.1368433"><ele>155.66666666666669</ele><time>2026-04-30T08:16:49.643Z</time></trkpt><trkpt lat="44.1523917" lon="12.13705"><ele>154.0</ele><time>2026-04-30T08:16:50.649Z</time></trkpt><trkpt lat="44.1524883" lon="12.1372417"><ele>155.66666666666669</ele><time>2026-04-30T08:16:51.642Z</time></trkpt><trkpt lat="44.15257" lon="12.13743"><ele>157.33333333333334</ele><time>2026-04-30T08:16:52.643Z</time></trkpt><trkpt lat="44.1526383" lon="12.1376317"><ele>159.0</ele><time>2026-04-30T08:16:53.645Z</time></trkpt><trkpt lat="44.152685" lon="12.13784"><ele>159.0</ele><time>2026-04-30T08:16:54.643Z</time></trkpt><trkpt lat="44.1526933" lon="12.138015"><ele>159.0</ele><time>2026-04-30T08:16:55.644Z</time></trkpt><trkpt lat="44.15267" lon="12.13818"><ele>159.0</ele><time>2026-04-30T08:16:56.643Z</time></trkpt><trkpt lat="44.1526217" lon="12.138325"><ele>159.0</ele><time>2026-04-30T08:16:57.646Z</time></trkpt><trkpt lat="44.1525433" lon="12.13844"><ele>160.0</ele><time>2026-04-30T08:16:58.649Z</time></trkpt><trkpt lat="44.15245" lon="12.138505"><ele>161.0</ele><time>2026-04-30T08:16:59.646Z</time></trkpt><trkpt lat="44.1523433" lon="12.1385267"><ele>162.0</ele><time>2026-04-30T08:17:00.639Z</time></trkpt><trkpt lat="44.1522333" lon="12.138505"><ele>163.0</ele><time>2026-04-30T08:17:01.645Z</time></trkpt><trkpt lat="44.1521317" lon="12.13842"><ele>164.0</ele><time>2026-04-30T08:17:02.65Z</time></trkpt><trkpt lat="44.1520267" lon="12.1383117"><ele>165.25</ele><time>2026-04-30T08:17:03.649Z</time></trkpt><trkpt lat="44.15192" lon="12.1382"><ele>166.5</ele><time>2026-04-30T08:17:04.65Z</time></trkpt><trkpt lat="44.1518083" lon="12.1380867"><ele>167.75</ele><time>2026-04-30T08:17:05.643Z</time></trkpt><trkpt lat="44.15169" lon="12.137975"><ele>169.0</ele><time>2026-04-30T08:17:06.642Z</time></trkpt><trkpt lat="44.1515817" lon="12.1378583"><ele>170.39999999999998</ele><time>2026-04-30T08:17:07.645Z</time></trkpt><trkpt lat="44.1514883" lon="12.1377417"><ele>171.8</ele><time>2026-04-30T08:17:08.641Z</time></trkpt><trkpt lat="44.1514017" lon="12.137645"><ele>173.2</ele><time>2026-04-30T08:17:09.641Z</time></trkpt><trkpt lat="44.1513267" lon="12.1375583"><ele>174.60000000000002</ele><time>2026-04-30T08:17:10.641Z</time></trkpt><trkpt lat="44.1512617" lon="12.1374783"><ele>176.0</ele><time>2026-04-30T08:17:11.643Z</time></trkpt><trkpt lat="44.1511967" lon="12.137395"><ele>176.20000000000002</ele><time>2026-04-30T08:17:12.644Z</time></trkpt><trkpt lat="44.151125" lon="12.137325"><ele>176.4</ele><time>2026-04-30T08:17:13.651Z</time></trkpt><trkpt lat="44.1510517" lon="12.1372517"><ele>176.6</ele><time>2026-04-30T08:17:14.649Z</time></trkpt><trkpt lat="44.1509767" lon="12.137175"><ele>176.8</ele><time>2026-04-30T08:17:15.646Z</time></trkpt><trkpt lat="44.15089" lon="12.137095"><ele>177.0</ele><time>2026-04-30T08:17:16.648Z</time></trkpt><trkpt lat="44.150795" lon="12.1370117"><ele>178.0</ele><time>2026-04-30T08:17:17.64Z</time></trkpt><trkpt lat="44.1507" lon="12.1369183"><ele>179.0</ele><time>2026-04-30T08:17:18.652Z</time></trkpt><trkpt lat="44.1506" lon="12.1368267"><ele>180.0</ele><time>2026-04-30T08:17:19.642Z</time></trkpt><trkpt lat="44.150495" lon="12.13673"><ele>181.0</ele><time>2026-04-30T08:17:20.642Z</time></trkpt><trkpt lat="44.1503883" lon="12.1366333"><ele>181.75</ele><time>2026-04-30T08:17:21.639Z</time></trkpt><trkpt lat="44.150285" lon="12.13654"><ele>182.5</ele><time>2026-04-30T08:17:22.65Z</time></trkpt><trkpt lat="44.1501883" lon="12.1364433"><ele>183.25</ele><time>2026-04-30T08:17:23.644Z</time></trkpt><trkpt lat="44.1501033" lon="12.1363417"><ele>184.0</ele><time>2026-04-30T08:17:24.65Z</time></trkpt><trkpt lat="44.1500267" lon="12.1362467"><ele>184.0</ele><time>2026-04-30T08:17:25.644Z</time></trkpt><trkpt lat="44.149955" lon="12.1361383"><ele>184.0</ele><time>2026-04-30T08:17:26.639Z</time></trkpt><trkpt lat="44.14988" lon="12.1360267"><ele>184.0</ele><time>2026-04-30T08:17:27.645Z</time></trkpt><trkpt lat="44.1497967" lon="12.1359217"><ele>184.0</ele><time>2026-04-30T08:17:28.644Z</time></trkpt><trkpt lat="44.1497" lon="12.1358267"><ele>184.0</ele><time>2026-04-30T08:17:29.643Z</time></trkpt><trkpt lat="44.149595" lon="12.1357483"><ele>189.0</ele><time>2026-04-30T08:17:30.64Z</time></trkpt><trkpt lat="44.14949" lon="12.1356617"><ele>194.0</ele><time>2026-04-30T08:17:31.64Z</time></trkpt><trkpt lat="44.14939" lon="12.135565"><ele>199.0</ele><time>2026-04-30T08:17:32.641Z</time></trkpt><trkpt lat="44.1492867" lon="12.1354733"><ele>204.0</ele><time>2026-04-30T08:17:33.648Z</time></trkpt><trkpt lat="44.1491767" lon="12.1353933"><ele>204.0</ele><time>2026-04-30T08:17:34.649Z</time></trkpt><trkpt lat="44.1490567" lon="12.1353333"><ele>204.0</ele><time>2026-04-30T08:17:35.639Z</time></trkpt><trkpt lat="44.1489367" lon="12.1352883"><ele>204.0</ele><time>2026-04-30T08:17:36.645Z</time></trkpt><trkpt lat="44.1488233" lon="12.1352683"><ele>204.0</ele><time>2026-04-30T08:17:37.648Z</time></trkpt><trkpt lat="44.1487217" lon="12.1352717"><ele>206.6</ele><time>2026-04-30T08:17:38.642Z</time></trkpt><trkpt lat="44.1486283" lon="12.1352733"><ele>209.2</ele><time>2026-04-30T08:17:39.647Z</time></trkpt><trkpt lat="44.1485417" lon="12.1352767"><ele>211.79999999999998</ele><time>2026-04-30T08:17:40.639Z</time></trkpt><trkpt lat="44.14846" lon="12.1352833"><ele>214.39999999999998</ele><time>2026-04-30T08:17:41.655Z</time></trkpt><trkpt lat="44.1483617" lon="12.135295"><ele>217.0</ele><time>2026-04-30T08:17:42.642Z</time></trkpt><trkpt lat="44.148255" lon="12.1353083"><ele>217.5</ele><time>2026-04-30T08:17:43.641Z</time></trkpt><trkpt lat="44.1481433" lon="12.1353117"><ele>218.0</ele><time>2026-04-30T08:17:44.644Z</time></trkpt><trkpt lat="44.14803" lon="12.1353117"><ele>218.5</ele><time>2026-04-30T08:17:45.651Z</time></trkpt><trkpt lat="44.1479083" lon="12.135305"><ele>219.0</ele><time>2026-04-30T08:17:46.648Z</time></trkpt><trkpt lat="44.1477883" lon="12.135295"><ele>219.0</ele><time>2026-04-30T08:17:47.658Z</time></trkpt><trkpt lat="44.14768" lon="12.1352867"><ele>218.99999999999997</ele><time>2026-04-30T08:17:48.643Z</time></trkpt><trkpt lat="44.1475883" lon="12.135275"><ele>218.99999999999997</ele><time>2026-04-30T08:17:49.646Z</time></trkpt><trkpt lat="44.1474967" lon="12.135255"><ele>219.0</ele><time>2026-04-30T08:17:50.643Z</time></trkpt><trkpt lat="44.1474117" lon="12.135245"><ele>219.0</ele><time>2026-04-30T08:17:51.643Z</time></trkpt><trkpt lat="44.14733" lon="12.1352267"><ele>219.6</ele><time>2026-04-30T08:17:52.645Z</time></trkpt><trkpt lat="44.1472583" lon="12.13521"><ele>220.2</ele><time>2026-04-30T08:17:53.646Z</time></trkpt><trkpt lat="44.147165" lon="12.1352017"><ele>220.79999999999998</ele><time>2026-04-30T08:17:55.658Z</time></trkpt><trkpt lat="44.1470267" lon="12.1352067"><ele>221.39999999999998</ele><time>2026-04-30T08:18:19.639Z</time></trkpt><trkpt lat="44.1469433" lon="12.1351967"><ele>222.0</ele><time>2026-04-30T08:18:21.649Z</time></trkpt><trkpt lat="44.146985" lon="12.1350983"><ele>222.0</ele><time>2026-04-30T08:18:25.645Z</time></trkpt><trkpt lat="44.1470633" lon="12.1350767"><ele>222.0</ele><time>2026-04-30T08:18:27.645Z</time></trkpt><trkpt lat="44.14714" lon="12.1350533"><ele>222.0</ele><time>2026-04-30T08:18:29.648Z</time></trkpt><trkpt lat="44.14722" lon="12.1350183"><ele>222.0</ele><time>2026-04-30T08:18:31.642Z</time></trkpt><trkpt lat="44.1473067" lon="12.1349933"><ele>222.0</ele><time>2026-04-30T08:18:33.648Z</time></trkpt><trkpt lat="44.1474117" lon="12.1349733"><ele>222.0</ele><time>2026-04-30T08:18:35.643Z</time></trkpt><trkpt lat="44.147525" lon="12.1349433"><ele>221.39999999999998</ele><time>2026-04-30T08:18:37.658Z</time></trkpt><trkpt lat="44.1476383" lon="12.1349117"><ele>220.79999999999998</ele><time>2026-04-30T08:18:39.646Z</time></trkpt><trkpt lat="44.1477467" lon="12.134905"><ele>220.2</ele><time>2026-04-30T08:18:41.639Z</time></trkpt><trkpt lat="44.14785" lon="12.1349017"><ele>219.6</ele><time>2026-04-30T08:18:43.645Z</time></trkpt><trkpt lat="44.14792" lon="12.1349033"><ele>219.0</ele><time>2026-04-30T08:18:45.647Z</time></trkpt><trkpt lat="44.1480117" lon="12.1349"><ele>219.0</ele><time>2026-04-30T08:18:47.644Z</time></trkpt><trkpt lat="44.1481033" lon="12.1348917"><ele>218.99999999999997</ele><time>2026-04-30T08:18:49.644Z</time></trkpt><trkpt lat="44.148185" lon="12.1348733"><ele>218.99999999999997</ele><time>2026-04-30T08:18:51.646Z</time></trkpt><trkpt lat="44.148275" lon="12.1348483"><ele>219.0</ele><time>2026-04-30T08:18:53.65Z</time></trkpt><trkpt lat="44.14837" lon="12.1348033"><ele>219.0</ele><time>2026-04-30T08:18:55.645Z</time></trkpt><trkpt lat="44.1484683" lon="12.1347517"><ele>224.6</ele><time>2026-04-30T08:18:57.642Z</time></trkpt><trkpt lat="44.1485683" lon="12.1346867"><ele>230.2</ele><time>2026-04-30T08:18:59.641Z</time></trkpt><trkpt lat="44.1486617" lon="12.1346267"><ele>235.79999999999998</ele><time>2026-04-30T08:19:01.649Z</time></trkpt><trkpt lat="44.14876" lon="12.1345667"><ele>241.39999999999998</ele><time>2026-04-30T08:19:03.642Z</time></trkpt><trkpt lat="44.1488467" lon="12.1344817"><ele>247.0</ele><time>2026-04-30T08:19:05.645Z</time></trkpt><trkpt lat="44.148895" lon="12.1344167"><ele>246.99999999999997</ele><time>2026-04-30T08:19:06.641Z</time></trkpt><trkpt lat="44.1489383" lon="12.134345"><ele>247.0</ele><time>2026-04-30T08:19:07.653Z</time></trkpt><trkpt lat="44.1489767" lon="12.1342733"><ele>247.0</ele><time>2026-04-30T08:19:08.644Z</time></trkpt><trkpt lat="44.1490483" lon="12.1341567"><ele>247.0</ele><time>2026-04-30T08:19:10.643Z</time></trkpt><trkpt lat="44.1491067" lon="12.1340283"><ele>246.99999999999997</ele><time>2026-04-30T08:19:12.646Z</time></trkpt><trkpt lat="44.1491467" lon="12.1339083"><ele>247.0</ele><time>2026-04-30T08:19:14.647Z</time></trkpt><trkpt lat="44.149195" lon="12.13382"><ele>246.33333333333331</ele><time>2026-04-30T08:19:16.644Z</time></trkpt><trkpt lat="44.1492417" lon="12.133715"><ele>245.66666666666666</ele><time>2026-04-30T08:19:18.642Z</time></trkpt><trkpt lat="44.1492867" lon="12.1336117"><ele>245.0</ele><time>2026-04-30T08:19:20.65Z</time></trkpt><trkpt lat="44.1493283" lon="12.13351"><ele>244.33333333333331</ele><time>2026-04-30T08:19:22.645Z</time></trkpt><trkpt lat="44.1493667" lon="12.1334083"><ele>243.66666666666666</ele><time>2026-04-30T08:19:24.638Z</time></trkpt><trkpt lat="44.1493967" lon="12.1333117"><ele>243.0</ele><time>2026-04-30T08:19:26.651Z</time></trkpt><trkpt lat="44.1494517" lon="12.133255"><ele>244.0</ele><time>2026-04-30T08:19:28.644Z</time></trkpt><trkpt lat="44.1495083" lon="12.1331917"><ele>245.0</ele><time>2026-04-30T08:19:30.647Z</time></trkpt><trkpt lat="44.149565" lon="12.1330967"><ele>246.0</ele><time>2026-04-30T08:19:32.644Z</time></trkpt><trkpt lat="44.1496283" lon="12.1329783"><ele>247.0</ele><time>2026-04-30T08:19:34.648Z</time></trkpt><trkpt lat="44.149685" lon="12.132865"><ele>248.0</ele><time>2026-04-30T08:19:36.664Z</time></trkpt><trkpt lat="44.1497267" lon="12.1327683"><ele>249.0</ele><time>2026-04-30T08:19:38.642Z</time></trkpt><trkpt lat="44.149785" lon="12.1327033"><ele>249.0</ele><time>2026-04-30T08:19:40.65Z</time></trkpt><trkpt lat="44.14985" lon="12.1326567"><ele>249.0</ele><time>2026-04-30T08:19:42.644Z</time></trkpt><trkpt lat="44.1499083" lon="12.1325817"><ele>249.0</ele><time>2026-04-30T08:19:44.645Z</time></trkpt><trkpt lat="44.149965" lon="12.132495"><ele>249.0</ele><time>2026-04-30T08:19:46.643Z</time></trkpt><trkpt lat="44.15003" lon="12.1324233"><ele>249.0</ele><time>2026-04-30T08:19:48.647Z</time></trkpt><trkpt lat="44.15009" lon="12.1324983"><ele>249.0</ele><time>2026-04-30T08:19:50.646Z</time></trkpt><trkpt lat="44.1500733" lon="12.1326"><ele>249.0</ele><time>2026-04-30T08:19:52.643Z</time></trkpt><trkpt lat="44.1500333" lon="12.132715"><ele>248.99999999999997</ele><time>2026-04-30T08:19:54.647Z</time></trkpt><trkpt lat="44.1499917" lon="12.1328467"><ele>248.99999999999997</ele><time>2026-04-30T08:19:56.646Z</time></trkpt><trkpt lat="44.1499417" lon="12.1329533"><ele>249.0</ele><time>2026-04-30T08:19:58.644Z</time></trkpt><trkpt lat="44.1499083" lon="12.1330733"><ele>249.0</ele><time>2026-04-30T08:20:00.641Z</time></trkpt><trkpt lat="44.1498683" lon="12.13318"><ele>248.0</ele><time>2026-04-30T08:20:02.638Z</time></trkpt><trkpt lat="44.1498367" lon="12.1332767"><ele>247.0</ele><time>2026-04-30T08:20:04.645Z</time></trkpt><trkpt lat="44.1498033" lon="12.13337"><ele>246.0</ele><time>2026-04-30T08:20:06.649Z</time></trkpt><trkpt lat="44.1497617" lon="12.1334533"><ele>245.0</ele><time>2026-04-30T08:20:08.644Z</time></trkpt><trkpt lat="44.1497333" lon="12.1335367"><ele>244.0</ele><time>2026-04-30T08:20:10.639Z</time></trkpt><trkpt lat="44.1497033" lon="12.1336283"><ele>243.0</ele><time>2026-04-30T08:20:12.637Z</time></trkpt><trkpt lat="44.1496667" lon="12.1337417"><ele>243.0</ele><time>2026-04-30T08:20:14.646Z</time></trkpt><trkpt lat="44.149625" lon="12.1338733"><ele>243.0</ele><time>2026-04-30T08:20:16.641Z</time></trkpt><trkpt lat="44.1495983" lon="12.133955"><ele>243.0</ele><time>2026-04-30T08:20:17.639Z</time></trkpt><trkpt lat="44.149565" lon="12.1341067"><ele>243.0</ele><time>2026-04-30T08:20:19.638Z</time></trkpt><trkpt lat="44.1495217" lon="12.1342683"><ele>243.0</ele><time>2026-04-30T08:20:21.644Z</time></trkpt><trkpt lat="44.14949" lon="12.13437"><ele>240.0</ele><time>2026-04-30T08:20:23.645Z</time></trkpt><trkpt lat="44.1494617" lon="12.13447"><ele>237.0</ele><time>2026-04-30T08:20:26.643Z</time></trkpt><trkpt lat="44.1494067" lon="12.13459"><ele>234.0</ele><time>2026-04-30T08:20:44.641Z</time></trkpt><trkpt lat="44.1493183" lon="12.1347483"><ele>231.0</ele><time>2026-04-30T08:23:10.647Z</time></trkpt><trkpt lat="44.1492667" lon="12.1348683"><ele>228.0</ele><time>2026-04-30T08:23:12.643Z</time></trkpt><trkpt lat="44.1492233" lon="12.1349367"><ele>226.16666666666666</ele><time>2026-04-30T08:23:13.643Z</time></trkpt><trkpt lat="44.1491717" lon="12.135"><ele>224.33333333333331</ele><time>2026-04-30T08:23:14.647Z</time></trkpt><trkpt lat="44.1491183" lon="12.1350567"><ele>222.5</ele><time>2026-04-30T08:23:15.645Z</time></trkpt><trkpt lat="44.1490117" lon="12.1351383"><ele>220.66666666666666</ele><time>2026-04-30T08:23:17.641Z</time></trkpt><trkpt lat="44.14892" lon="12.1351767"><ele>218.83333333333331</ele><time>2026-04-30T08:23:19.643Z</time></trkpt><trkpt lat="44.1488467" lon="12.1352117"><ele>217.0</ele><time>2026-04-30T08:23:21.655Z</time></trkpt><trkpt lat="44.1487367" lon="12.1352383"><ele>216.99999999999997</ele><time>2026-04-30T08:23:23.644Z</time></trkpt><trkpt lat="44.1486733" lon="12.1352433"><ele>217.0</ele><time>2026-04-30T08:23:24.642Z</time></trkpt><trkpt lat="44.1486033" lon="12.13525"><ele>217.0</ele><time>2026-04-30T08:23:25.646Z</time></trkpt><trkpt lat="44.148525" lon="12.1352567"><ele>217.0</ele><time>2026-04-30T08:23:26.638Z</time></trkpt><trkpt lat="44.1484433" lon="12.1352717"><ele>216.99999999999997</ele><time>2026-04-30T08:23:27.644Z</time></trkpt><trkpt lat="44.1483517" lon="12.1352833"><ele>217.0</ele><time>2026-04-30T08:23:28.654Z</time></trkpt><trkpt lat="44.14825" lon="12.1352917"><ele>217.39999999999998</ele><time>2026-04-30T08:23:29.645Z</time></trkpt><trkpt lat="44.1481483" lon="12.1352983"><ele>217.79999999999998</ele><time>2026-04-30T08:23:30.644Z</time></trkpt><trkpt lat="44.1480533" lon="12.1353033"><ele>218.2</ele><time>2026-04-30T08:23:31.653Z</time></trkpt><trkpt lat="44.1479633" lon="12.1353033"><ele>218.6</ele><time>2026-04-30T08:23:32.643Z</time></trkpt><trkpt lat="44.1478733" lon="12.1352967"><ele>219.0</ele><time>2026-04-30T08:23:33.642Z</time></trkpt><trkpt lat="44.147785" lon="12.135285"><ele>219.0</ele><time>2026-04-30T08:23:34.64Z</time></trkpt><trkpt lat="44.1476917" lon="12.1352767"><ele>218.99999999999997</ele><time>2026-04-30T08:23:35.647Z</time></trkpt><trkpt lat="44.1476" lon="12.1352617"><ele>218.99999999999997</ele><time>2026-04-30T08:23:36.645Z</time></trkpt><trkpt lat="44.1475117" lon="12.135245"><ele>219.0</ele><time>2026-04-30T08:23:37.641Z</time></trkpt><trkpt lat="44.147415" lon="12.13523"><ele>219.0</ele><time>2026-04-30T08:23:38.639Z</time></trkpt><trkpt lat="44.1473217" lon="12.1352167"><ele>219.5</ele><time>2026-04-30T08:23:39.639Z</time></trkpt><trkpt lat="44.1472367" lon="12.1352017"><ele>220.0</ele><time>2026-04-30T08:23:40.648Z</time></trkpt><trkpt lat="44.1471483" lon="12.1352017"><ele>220.5</ele><time>2026-04-30T08:23:41.644Z</time></trkpt><trkpt lat="44.1470567" lon="12.135205"><ele>221.0</ele><time>2026-04-30T08:23:42.641Z</time></trkpt><trkpt lat="44.146975" lon="12.13521"><ele>221.5</ele><time>2026-04-30T08:23:43.642Z</time></trkpt><trkpt lat="44.1468933" lon="12.1352133"><ele>222.0</ele><time>2026-04-30T08:23:44.646Z</time></trkpt><trkpt lat="44.1468133" lon="12.1352133"><ele>222.0</ele><time>2026-04-30T08:23:45.641Z</time></trkpt><trkpt lat="44.1467333" lon="12.1352117"><ele>222.0</ele><time>2026-04-30T08:23:46.644Z</time></trkpt><trkpt lat="44.1466533" lon="12.135215"><ele>222.0</ele><time>2026-04-30T08:23:47.64Z</time></trkpt><trkpt lat="44.1465733" lon="12.1352317"><ele>222.0</ele><time>2026-04-30T08:23:48.642Z</time></trkpt><trkpt lat="44.1464917" lon="12.13526"><ele>222.0</ele><time>2026-04-30T08:23:49.648Z</time></trkpt><trkpt lat="44.146415" lon="12.1352783"><ele>222.0</ele><time>2026-04-30T08:23:50.643Z</time></trkpt><trkpt lat="44.1463467" lon="12.1352933"><ele>221.39999999999998</ele><time>2026-04-30T08:23:51.652Z</time></trkpt><trkpt lat="44.14628" lon="12.1353083"><ele>220.79999999999998</ele><time>2026-04-30T08:23:52.64Z</time></trkpt><trkpt lat="44.1461633" lon="12.13534"><ele>220.2</ele><time>2026-04-30T08:23:54.644Z</time></trkpt><trkpt lat="44.1460617" lon="12.1353683"><ele>219.6</ele><time>2026-04-30T08:23:56.643Z</time></trkpt><trkpt lat="44.1459633" lon="12.135435"><ele>219.0</ele><time>2026-04-30T08:23:58.645Z</time></trkpt><trkpt lat="44.145865" lon="12.1355967"><ele>219.0</ele><time>2026-04-30T08:24:00.673Z</time></trkpt><trkpt lat="44.1458183" lon="12.1357117"><ele>218.99999999999997</ele><time>2026-04-30T08:24:01.647Z</time></trkpt><trkpt lat="44.1457783" lon="12.1358383"><ele>218.99999999999997</ele><time>2026-04-30T08:24:02.648Z</time></trkpt><trkpt lat="44.14574" lon="12.1359717"><ele>219.0</ele><time>2026-04-30T08:24:03.644Z</time></trkpt><trkpt lat="44.1456967" lon="12.1361267"><ele>219.0</ele><time>2026-04-30T08:24:04.644Z</time></trkpt><trkpt lat="44.14565" lon="12.1362883"><ele>224.0</ele><time>2026-04-30T08:24:05.651Z</time></trkpt><trkpt lat="44.1456017" lon="12.1364467"><ele>229.0</ele><time>2026-04-30T08:24:06.649Z</time></trkpt><trkpt lat="44.1455533" lon="12.13661"><ele>234.0</ele><time>2026-04-30T08:24:07.644Z</time></trkpt><trkpt lat="44.1455083" lon="12.1367717"><ele>239.0</ele><time>2026-04-30T08:24:08.642Z</time></trkpt><trkpt lat="44.1454633" lon="12.136925"><ele>239.0</ele><time>2026-04-30T08:24:09.655Z</time></trkpt><trkpt lat="44.145415" lon="12.1370767"><ele>239.0</ele><time>2026-04-30T08:24:10.649Z</time></trkpt><trkpt lat="44.1453683" lon="12.1372183"><ele>239.0</ele><time>2026-04-30T08:24:11.66Z</time></trkpt><trkpt lat="44.1453217" lon="12.1373583"><ele>239.0</ele><time>2026-04-30T08:24:12.641Z</time></trkpt><trkpt lat="44.14527" lon="12.1374967"><ele>236.5</ele><time>2026-04-30T08:24:13.639Z</time></trkpt><trkpt lat="44.1452183" lon="12.13763"><ele>234.0</ele><time>2026-04-30T08:24:14.645Z</time></trkpt><trkpt lat="44.14517" lon="12.1377733"><ele>231.5</ele><time>2026-04-30T08:24:15.648Z</time></trkpt><trkpt lat="44.14512" lon="12.13792"><ele>229.0</ele><time>2026-04-30T08:24:16.648Z</time></trkpt><trkpt lat="44.1450667" lon="12.1380683"><ele>226.75</ele><time>2026-04-30T08:24:17.645Z</time></trkpt><trkpt lat="44.1450217" lon="12.13822"><ele>224.5</ele><time>2026-04-30T08:24:18.653Z</time></trkpt><trkpt lat="44.1449717" lon="12.138375"><ele>222.25</ele><time>2026-04-30T08:24:19.653Z</time></trkpt><trkpt lat="44.144915" lon="12.1385333"><ele>220.0</ele><time>2026-04-30T08:24:20.656Z</time></trkpt><trkpt lat="44.1448467" lon="12.13869"><ele>221.25</ele><time>2026-04-30T08:24:21.65Z</time></trkpt><trkpt lat="44.1447667" lon="12.138845"><ele>222.5</ele><time>2026-04-30T08:24:22.644Z</time></trkpt><trkpt lat="44.14468" lon="12.138995"><ele>223.75</ele><time>2026-04-30T08:24:23.643Z</time></trkpt><trkpt lat="44.1445933" lon="12.1391467"><ele>225.0</ele><time>2026-04-30T08:24:24.639Z</time></trkpt><trkpt lat="44.144505" lon="12.13931"><ele>225.0</ele><time>2026-04-30T08:24:25.652Z</time></trkpt><trkpt lat="44.1444117" lon="12.1394767"><ele>225.0</ele><time>2026-04-30T08:24:26.655Z</time></trkpt><trkpt lat="44.14432" lon="12.13964"><ele>225.0</ele><time>2026-04-30T08:24:27.644Z</time></trkpt><trkpt lat="44.1442333" lon="12.1398033"><ele>225.0</ele><time>2026-04-30T08:24:28.65Z</time></trkpt><trkpt lat="44.144145" lon="12.139965"><ele>222.0</ele><time>2026-04-30T08:24:29.652Z</time></trkpt><trkpt lat="44.1440483" lon="12.1401283"><ele>219.0</ele><time>2026-04-30T08:24:30.64Z</time></trkpt><trkpt lat="44.14395" lon="12.14029"><ele>216.0</ele><time>2026-04-30T08:24:31.64Z</time></trkpt><trkpt lat="44.1438483" lon="12.1404633"><ele>219.33333333333331</ele><time>2026-04-30T08:24:32.648Z</time></trkpt><trkpt lat="44.1437467" lon="12.1406533"><ele>222.66666666666666</ele><time>2026-04-30T08:24:33.646Z</time></trkpt><trkpt lat="44.1436483" lon="12.140845"><ele>226.0</ele><time>2026-04-30T08:24:34.642Z</time></trkpt><trkpt lat="44.143555" lon="12.1410417"><ele>226.0</ele><time>2026-04-30T08:24:35.642Z</time></trkpt><trkpt lat="44.14346" lon="12.141235"><ele>226.0</ele><time>2026-04-30T08:24:36.644Z</time></trkpt><trkpt lat="44.1433683" lon="12.1414233"><ele>226.0</ele><time>2026-04-30T08:24:37.642Z</time></trkpt><trkpt lat="44.143275" lon="12.1416083"><ele>228.33333333333331</ele><time>2026-04-30T08:24:38.644Z</time></trkpt><trkpt lat="44.1431817" lon="12.14179"><ele>230.66666666666669</ele><time>2026-04-30T08:24:39.651Z</time></trkpt><trkpt lat="44.1430917" lon="12.14197"><ele>233.0</ele><time>2026-04-30T08:24:40.64Z</time></trkpt><trkpt lat="44.1430033" lon="12.142145"><ele>233.0</ele><time>2026-04-30T08:24:41.638Z</time></trkpt><trkpt lat="44.142915" lon="12.1423133"><ele>233.0</ele><time>2026-04-30T08:24:42.644Z</time></trkpt><trkpt lat="44.142825" lon="12.1424833"><ele>233.0</ele><time>2026-04-30T08:24:43.65Z</time></trkpt><trkpt lat="44.1427417" lon="12.142655"><ele>230.5</ele><time>2026-04-30T08:24:44.641Z</time></trkpt><trkpt lat="44.1426567" lon="12.1428317"><ele>228.0</ele><time>2026-04-30T08:24:45.651Z</time></trkpt><trkpt lat="44.1425767" lon="12.1430033"><ele>225.5</ele><time>2026-04-30T08:24:46.644Z</time></trkpt><trkpt lat="44.1425" lon="12.14317"><ele>223.0</ele><time>2026-04-30T08:24:47.645Z</time></trkpt><trkpt lat="44.142425" lon="12.1433333"><ele>224.75</ele><time>2026-04-30T08:24:48.657Z</time></trkpt><trkpt lat="44.1423517" lon="12.1434867"><ele>226.5</ele><time>2026-04-30T08:24:49.654Z</time></trkpt><trkpt lat="44.14227" lon="12.1436317"><ele>228.25</ele><time>2026-04-30T08:24:50.65Z</time></trkpt><trkpt lat="44.142175" lon="12.1437683"><ele>230.0</ele><time>2026-04-30T08:24:51.656Z</time></trkpt><trkpt lat="44.142065" lon="12.1438867"><ele>230.0</ele><time>2026-04-30T08:24:52.658Z</time></trkpt><trkpt lat="44.14194" lon="12.1439817"><ele>230.0</ele><time>2026-04-30T08:24:53.645Z</time></trkpt><trkpt lat="44.141805" lon="12.144075"><ele>230.0</ele><time>2026-04-30T08:24:54.651Z</time></trkpt><trkpt lat="44.1416617" lon="12.1441533"><ele>230.0</ele><time>2026-04-30T08:24:55.644Z</time></trkpt><trkpt lat="44.14151" lon="12.1442267"><ele>225.0</ele><time>2026-04-30T08:24:56.64Z</time></trkpt><trkpt lat="44.1413517" lon="12.1443"><ele>220.0</ele><time>2026-04-30T08:24:57.647Z</time></trkpt><trkpt lat="44.1411917" lon="12.1443767"><ele>215.0</ele><time>2026-04-30T08:24:58.651Z</time></trkpt><trkpt lat="44.141025" lon="12.1444517"><ele>215.0</ele><time>2026-04-30T08:24:59.647Z</time></trkpt><trkpt lat="44.1408517" lon="12.1445283"><ele>215.0</ele><time>2026-04-30T08:25:00.645Z</time></trkpt><trkpt lat="44.14068" lon="12.1446083"><ele>215.0</ele><time>2026-04-30T08:25:01.643Z</time></trkpt><trkpt lat="44.140505" lon="12.1446883"><ele>215.0</ele><time>2026-04-30T08:25:02.646Z</time></trkpt><trkpt lat="44.1403317" lon="12.1447667"><ele>215.0</ele><time>2026-04-30T08:25:03.654Z</time></trkpt><trkpt lat="44.1401633" lon="12.144845"><ele>215.0</ele><time>2026-04-30T08:25:04.647Z</time></trkpt><trkpt lat="44.1399983" lon="12.1449267"><ele>212.0</ele><time>2026-04-30T08:25:05.644Z</time></trkpt><trkpt lat="44.1398317" lon="12.1449983"><ele>209.0</ele><time>2026-04-30T08:25:06.643Z</time></trkpt><trkpt lat="44.1396667" lon="12.1450583"><ele>206.0</ele><time>2026-04-30T08:25:07.647Z</time></trkpt><trkpt lat="44.1395" lon="12.145105"><ele>206.0</ele><time>2026-04-30T08:25:08.648Z</time></trkpt><trkpt lat="44.1393283" lon="12.1451283"><ele>206.0</ele><time>2026-04-30T08:25:09.656Z</time></trkpt><trkpt lat="44.1391583" lon="12.1451383"><ele>206.0</ele><time>2026-04-30T08:25:10.641Z</time></trkpt><trkpt lat="44.1389917" lon="12.1451333"><ele>206.66666666666669</ele><time>2026-04-30T08:25:11.644Z</time></trkpt><trkpt lat="44.138825" lon="12.1451283"><ele>207.33333333333331</ele><time>2026-04-30T08:25:12.648Z</time></trkpt><trkpt lat="44.1386633" lon="12.14513"><ele>208.0</ele><time>2026-04-30T08:25:13.655Z</time></trkpt><trkpt lat="44.1385017" lon="12.1451317"><ele>208.0</ele><time>2026-04-30T08:25:14.636Z</time></trkpt><trkpt lat="44.1383417" lon="12.145135"><ele>208.0</ele><time>2026-04-30T08:25:15.652Z</time></trkpt><trkpt lat="44.1381833" lon="12.145145"><ele>208.0</ele><time>2026-04-30T08:25:16.673Z</time></trkpt><trkpt lat="44.1380283" lon="12.1451717"><ele>208.33333333333331</ele><time>2026-04-30T08:25:17.645Z</time></trkpt><trkpt lat="44.1378733" lon="12.1452183"><ele>208.66666666666669</ele><time>2026-04-30T08:25:18.643Z</time></trkpt><trkpt lat="44.137715" lon="12.145285"><ele>209.0</ele><time>2026-04-30T08:25:19.645Z</time></trkpt><trkpt lat="44.1375533" lon="12.1453617"><ele>209.0</ele><time>2026-04-30T08:25:20.647Z</time></trkpt><trkpt lat="44.13739" lon="12.1454317"><ele>209.0</ele><time>2026-04-30T08:25:21.646Z</time></trkpt><trkpt lat="44.1372233" lon="12.145505"><ele>209.0</ele><time>2026-04-30T08:25:22.643Z</time></trkpt><trkpt lat="44.1370583" lon="12.1455883"><ele>205.66666666666669</ele><time>2026-04-30T08:25:23.642Z</time></trkpt><trkpt lat="44.1368967" lon="12.14568"><ele>202.33333333333331</ele><time>2026-04-30T08:25:24.645Z</time></trkpt><trkpt lat="44.1367383" lon="12.14578"><ele>199.0</ele><time>2026-04-30T08:25:25.656Z</time></trkpt><trkpt lat="44.136585" lon="12.1458933"><ele>197.66666666666666</ele><time>2026-04-30T08:25:26.644Z</time></trkpt><trkpt lat="44.1364383" lon="12.1460183"><ele>196.33333333333331</ele><time>2026-04-30T08:25:27.651Z</time></trkpt><trkpt lat="44.1363033" lon="12.1461583"><ele>195.0</ele><time>2026-04-30T08:25:28.645Z</time></trkpt><trkpt lat="44.1361867" lon="12.1463267"><ele>195.0</ele><time>2026-04-30T08:25:29.642Z</time></trkpt><trkpt lat="44.1360867" lon="12.146505"><ele>195.0</ele><time>2026-04-30T08:25:30.65Z</time></trkpt><trkpt lat="44.1359883" lon="12.1466733"><ele>195.0</ele><time>2026-04-30T08:25:31.643Z</time></trkpt><trkpt lat="44.135885" lon="12.1468267"><ele>194.33333333333331</ele><time>2026-04-30T08:25:32.637Z</time></trkpt><trkpt lat="44.1357733" lon="12.14697"><ele>193.66666666666666</ele><time>2026-04-30T08:25:33.651Z</time></trkpt><trkpt lat="44.1356533" lon="12.147105"><ele>193.0</ele><time>2026-04-30T08:25:34.651Z</time></trkpt><trkpt lat="44.135525" lon="12.1472367"><ele>193.0</ele><time>2026-04-30T08:25:35.647Z</time></trkpt><trkpt lat="44.1353867" lon="12.147355"><ele>193.0</ele><time>2026-04-30T08:25:36.644Z</time></trkpt><trkpt lat="44.13524" lon="12.1474633"><ele>193.0</ele><time>2026-04-30T08:25:37.643Z</time></trkpt><trkpt lat="44.13509" lon="12.1475617"><ele>192.66666666666666</ele><time>2026-04-30T08:25:38.643Z</time></trkpt><trkpt lat="44.1349433" lon="12.147655"><ele>192.33333333333331</ele><time>2026-04-30T08:25:39.648Z</time></trkpt><trkpt lat="44.1347967" lon="12.1477417"><ele>192.0</ele><time>2026-04-30T08:25:40.647Z</time></trkpt><trkpt lat="44.134655" lon="12.147825"><ele>192.0</ele><time>2026-04-30T08:25:41.651Z</time></trkpt><trkpt lat="44.1345233" lon="12.1479117"><ele>192.0</ele><time>2026-04-30T08:25:42.638Z</time></trkpt><trkpt lat="44.1343983" lon="12.1480067"><ele>192.0</ele><time>2026-04-30T08:25:43.642Z</time></trkpt><trkpt lat="44.1342733" lon="12.1481217"><ele>192.0</ele><time>2026-04-30T08:25:44.645Z</time></trkpt><trkpt lat="44.1341583" lon="12.1482617"><ele>190.33333333333334</ele><time>2026-04-30T08:25:45.644Z</time></trkpt><trkpt lat="44.1340483" lon="12.1484133"><ele>188.66666666666669</ele><time>2026-04-30T08:25:46.643Z</time></trkpt><trkpt lat="44.13394" lon="12.14856"><ele>187.0</ele><time>2026-04-30T08:25:47.649Z</time></trkpt><trkpt lat="44.1338317" lon="12.1487117"><ele>187.0</ele><time>2026-04-30T08:25:48.643Z</time></trkpt><trkpt lat="44.1337267" lon="12.1488617"><ele>187.0</ele><time>2026-04-30T08:25:49.645Z</time></trkpt><trkpt lat="44.1336283" lon="12.149"><ele>187.0</ele><time>2026-04-30T08:25:50.641Z</time></trkpt><trkpt lat="44.1335367" lon="12.1491283"><ele>187.0</ele><time>2026-04-30T08:25:51.649Z</time></trkpt><trkpt lat="44.1334467" lon="12.1492517"><ele>188.0</ele><time>2026-04-30T08:25:52.639Z</time></trkpt><trkpt lat="44.13336" lon="12.1493717"><ele>189.0</ele><time>2026-04-30T08:25:53.651Z</time></trkpt><trkpt lat="44.133275" lon="12.1495"><ele>190.0</ele><time>2026-04-30T08:25:54.653Z</time></trkpt><trkpt lat="44.133195" lon="12.1496383"><ele>191.0</ele><time>2026-04-30T08:25:55.648Z</time></trkpt><trkpt lat="44.13312" lon="12.14979"><ele>193.0</ele><time>2026-04-30T08:25:56.645Z</time></trkpt><trkpt lat="44.1330517" lon="12.1499483"><ele>195.0</ele><time>2026-04-30T08:25:57.648Z</time></trkpt><trkpt lat="44.132995" lon="12.150105"><ele>197.0</ele><time>2026-04-30T08:25:58.653Z</time></trkpt><trkpt lat="44.132945" lon="12.1502383"><ele>199.0</ele><time>2026-04-30T08:25:59.643Z</time></trkpt><trkpt lat="44.1329" lon="12.1503433"><ele>199.0</ele><time>2026-04-30T08:26:00.645Z</time></trkpt><trkpt lat="44.1328467" lon="12.15042"><ele>199.0</ele><time>2026-04-30T08:26:01.646Z</time></trkpt><trkpt lat="44.1327483" lon="12.1504933"><ele>199.0</ele><time>2026-04-30T08:26:03.646Z</time></trkpt><trkpt lat="44.1326317" lon="12.1504967"><ele>199.0</ele><time>2026-04-30T08:26:05.647Z</time></trkpt><trkpt lat="44.1325533" lon="12.15047"><ele>199.0</ele><time>2026-04-30T08:26:06.647Z</time></trkpt><trkpt lat="44.1324617" lon="12.1504283"><ele>200.79999999999998</ele><time>2026-04-30T08:26:07.638Z</time></trkpt><trkpt lat="44.1323767" lon="12.1503783"><ele>202.6</ele><time>2026-04-30T08:26:08.652Z</time></trkpt><trkpt lat="44.1323" lon="12.1503267"><ele>204.4</ele><time>2026-04-30T08:26:09.658Z</time></trkpt><trkpt lat="44.1322217" lon="12.1502717"><ele>206.2</ele><time>2026-04-30T08:26:10.648Z</time></trkpt><trkpt lat="44.1321467" lon="12.150195"><ele>208.0</ele><time>2026-04-30T08:26:11.646Z</time></trkpt><trkpt lat="44.1320683" lon="12.1500983"><ele>208.0</ele><time>2026-04-30T08:26:12.641Z</time></trkpt><trkpt lat="44.131985" lon="12.1499933"><ele>208.0</ele><time>2026-04-30T08:26:13.646Z</time></trkpt><trkpt lat="44.1318933" lon="12.149885"><ele>208.0</ele><time>2026-04-30T08:26:14.646Z</time></trkpt><trkpt lat="44.1317967" lon="12.1497733"><ele>208.0</ele><time>2026-04-30T08:26:15.648Z</time></trkpt><trkpt lat="44.13169" lon="12.1496567"><ele>207.75</ele><time>2026-04-30T08:26:16.639Z</time></trkpt><trkpt lat="44.131585" lon="12.149545"><ele>207.5</ele><time>2026-04-30T08:26:17.648Z</time></trkpt><trkpt lat="44.1314817" lon="12.14945"><ele>207.25</ele><time>2026-04-30T08:26:18.642Z</time></trkpt><trkpt lat="44.1313717" lon="12.1493667"><ele>207.0</ele><time>2026-04-30T08:26:19.643Z</time></trkpt><trkpt lat="44.1312617" lon="12.149285"><ele>207.0</ele><time>2026-04-30T08:26:20.638Z</time></trkpt><trkpt lat="44.13115" lon="12.1491983"><ele>207.0</ele><time>2026-04-30T08:26:21.649Z</time></trkpt><trkpt lat="44.1310317" lon="12.1491033"><ele>207.0</ele><time>2026-04-30T08:26:22.654Z</time></trkpt><trkpt lat="44.130905" lon="12.149"><ele>207.0</ele><time>2026-04-30T08:26:23.648Z</time></trkpt><trkpt lat="44.1307733" lon="12.1488983"><ele>207.25</ele><time>2026-04-30T08:26:24.645Z</time></trkpt><trkpt lat="44.1306433" lon="12.1488017"><ele>207.5</ele><time>2026-04-30T08:26:25.653Z</time></trkpt><trkpt lat="44.1305167" lon="12.1487017"><ele>207.75</ele><time>2026-04-30T08:26:26.646Z</time></trkpt><trkpt lat="44.1303867" lon="12.1486067"><ele>208.0</ele><time>2026-04-30T08:26:27.646Z</time></trkpt><trkpt lat="44.1302533" lon="12.1485133"><ele>208.0</ele><time>2026-04-30T08:26:28.64Z</time></trkpt><trkpt lat="44.1301217" lon="12.1484217"><ele>208.0</ele><time>2026-04-30T08:26:29.638Z</time></trkpt><trkpt lat="44.1299967" lon="12.1483283"><ele>208.0</ele><time>2026-04-30T08:26:30.654Z</time></trkpt><trkpt lat="44.129875" lon="12.14824"><ele>208.0</ele><time>2026-04-30T08:26:31.642Z</time></trkpt><trkpt lat="44.129755" lon="12.14815"><ele>207.75</ele><time>2026-04-30T08:26:32.644Z</time></trkpt><trkpt lat="44.12963" lon="12.1480567"><ele>207.5</ele><time>2026-04-30T08:26:33.644Z</time></trkpt><trkpt lat="44.1295067" lon="12.1479583"><ele>207.25</ele><time>2026-04-30T08:26:34.649Z</time></trkpt><trkpt lat="44.129375" lon="12.1478517"><ele>207.0</ele><time>2026-04-30T08:26:35.647Z</time></trkpt><trkpt lat="44.1292383" lon="12.1477383"><ele>207.0</ele><time>2026-04-30T08:26:36.641Z</time></trkpt><trkpt lat="44.1291117" lon="12.1476217"><ele>207.0</ele><time>2026-04-30T08:26:37.642Z</time></trkpt><trkpt lat="44.128985" lon="12.1475083"><ele>207.0</ele><time>2026-04-30T08:26:38.651Z</time></trkpt><trkpt lat="44.1288583" lon="12.1473933"><ele>209.0</ele><time>2026-04-30T08:26:39.655Z</time></trkpt><trkpt lat="44.1287317" lon="12.1472717"><ele>211.0</ele><time>2026-04-30T08:26:40.656Z</time></trkpt><trkpt lat="44.1286033" lon="12.14715"><ele>213.0</ele><time>2026-04-30T08:26:41.651Z</time></trkpt><trkpt lat="44.128465" lon="12.14704"><ele>213.0</ele><time>2026-04-30T08:26:42.646Z</time></trkpt><trkpt lat="44.128315" lon="12.146955"><ele>213.0</ele><time>2026-04-30T08:26:43.649Z</time></trkpt><trkpt lat="44.128155" lon="12.1468967"><ele>213.0</ele><time>2026-04-30T08:26:44.65Z</time></trkpt><trkpt lat="44.1279883" lon="12.1468567"><ele>217.66666666666669</ele><time>2026-04-30T08:26:45.64Z</time></trkpt><trkpt lat="44.1278217" lon="12.1468317"><ele>222.33333333333334</ele><time>2026-04-30T08:26:46.649Z</time></trkpt><trkpt lat="44.1276583" lon="12.146815"><ele>227.0</ele><time>2026-04-30T08:26:47.642Z</time></trkpt><trkpt lat="44.1275" lon="12.1467983"><ele>229.66666666666669</ele><time>2026-04-30T08:26:48.653Z</time></trkpt><trkpt lat="44.1273467" lon="12.1467767"><ele>232.33333333333331</ele><time>2026-04-30T08:26:49.648Z</time></trkpt><trkpt lat="44.1271983" lon="12.1467417"><ele>235.0</ele><time>2026-04-30T08:26:50.645Z</time></trkpt><trkpt lat="44.1270467" lon="12.1466833"><ele>235.0</ele><time>2026-04-30T08:26:51.647Z</time></trkpt><trkpt lat="44.1269067" lon="12.146615"><ele>235.0</ele><time>2026-04-30T08:26:52.646Z</time></trkpt><trkpt lat="44.1267733" lon="12.14655"><ele>235.0</ele><time>2026-04-30T08:26:53.66Z</time></trkpt><trkpt lat="44.1266467" lon="12.1465083"><ele>235.0</ele><time>2026-04-30T08:26:54.642Z</time></trkpt><trkpt lat="44.1265167" lon="12.146495"><ele>234.25</ele><time>2026-04-30T08:26:55.647Z</time></trkpt><trkpt lat="44.1263883" lon="12.1465183"><ele>233.5</ele><time>2026-04-30T08:26:56.65Z</time></trkpt><trkpt lat="44.1262717" lon="12.1465583"><ele>232.75</ele><time>2026-04-30T08:26:57.661Z</time></trkpt><trkpt lat="44.1261667" lon="12.1466233"><ele>232.0</ele><time>2026-04-30T08:26:58.643Z</time></trkpt><trkpt lat="44.1260683" lon="12.1467167"><ele>232.0</ele><time>2026-04-30T08:26:59.641Z</time></trkpt><trkpt lat="44.1259867" lon="12.1468367"><ele>232.0</ele><time>2026-04-30T08:27:00.644Z</time></trkpt><trkpt lat="44.1259017" lon="12.1469783"><ele>232.0</ele><time>2026-04-30T08:27:01.646Z</time></trkpt><trkpt lat="44.1258117" lon="12.14714"><ele>232.0</ele><time>2026-04-30T08:27:02.646Z</time></trkpt><trkpt lat="44.1257233" lon="12.1473117"><ele>236.0</ele><time>2026-04-30T08:27:03.646Z</time></trkpt><trkpt lat="44.1256283" lon="12.1474817"><ele>240.0</ele><time>2026-04-30T08:27:04.644Z</time></trkpt><trkpt lat="44.1255317" lon="12.1476433"><ele>244.0</ele><time>2026-04-30T08:27:05.642Z</time></trkpt><trkpt lat="44.12543" lon="12.14778"><ele>248.0</ele><time>2026-04-30T08:27:06.649Z</time></trkpt><trkpt lat="44.1253117" lon="12.147905"><ele>248.0</ele><time>2026-04-30T08:27:07.639Z</time></trkpt><trkpt lat="44.1251833" lon="12.14801"><ele>248.0</ele><time>2026-04-30T08:27:08.647Z</time></trkpt><trkpt lat="44.1250567" lon="12.148085"><ele>248.0</ele><time>2026-04-30T08:27:09.648Z</time></trkpt><trkpt lat="44.1249183" lon="12.1481283"><ele>248.0</ele><time>2026-04-30T08:27:10.647Z</time></trkpt><trkpt lat="44.1247767" lon="12.1481483"><ele>251.5</ele><time>2026-04-30T08:27:11.645Z</time></trkpt><trkpt lat="44.12464" lon="12.148155"><ele>255.0</ele><time>2026-04-30T08:27:12.665Z</time></trkpt><trkpt lat="44.124505" lon="12.1481533"><ele>258.5</ele><time>2026-04-30T08:27:13.66Z</time></trkpt><trkpt lat="44.124375" lon="12.1481417"><ele>262.0</ele><time>2026-04-30T08:27:14.644Z</time></trkpt><trkpt lat="44.1242433" lon="12.1481333"><ele>262.0</ele><time>2026-04-30T08:27:15.64Z</time></trkpt><trkpt lat="44.1241133" lon="12.148125"><ele>262.0</ele><time>2026-04-30T08:27:16.648Z</time></trkpt><trkpt lat="44.1239867" lon="12.1481117"><ele>262.0</ele><time>2026-04-30T08:27:17.648Z</time></trkpt><trkpt lat="44.1238617" lon="12.1480933"><ele>262.0</ele><time>2026-04-30T08:27:18.647Z</time></trkpt><trkpt lat="44.12374" lon="12.1480767"><ele>261.2</ele><time>2026-04-30T08:27:19.654Z</time></trkpt><trkpt lat="44.1236267" lon="12.1480633"><ele>260.4</ele><time>2026-04-30T08:27:20.645Z</time></trkpt><trkpt lat="44.1235283" lon="12.1480367"><ele>259.6</ele><time>2026-04-30T08:27:21.654Z</time></trkpt><trkpt lat="44.1234367" lon="12.1479967"><ele>258.8</ele><time>2026-04-30T08:27:22.647Z</time></trkpt><trkpt lat="44.12336" lon="12.1479317"><ele>258.0</ele><time>2026-04-30T08:27:23.645Z</time></trkpt><trkpt lat="44.1233067" lon="12.1478333"><ele>258.0</ele><time>2026-04-30T08:27:24.65Z</time></trkpt><trkpt lat="44.1232667" lon="12.147715"><ele>258.0</ele><time>2026-04-30T08:27:25.646Z</time></trkpt><trkpt lat="44.1232383" lon="12.1475883"><ele>258.0</ele><time>2026-04-30T08:27:26.645Z</time></trkpt><trkpt lat="44.1232133" lon="12.1474617"><ele>258.0</ele><time>2026-04-30T08:27:27.653Z</time></trkpt><trkpt lat="44.12319" lon="12.1473367"><ele>258.0</ele><time>2026-04-30T08:27:28.65Z</time></trkpt><trkpt lat="44.1231633" lon="12.1472183"><ele>256.1666666666667</ele><time>2026-04-30T08:27:29.649Z</time></trkpt><trkpt lat="44.123145" lon="12.1471017"><ele>254.33333333333331</ele><time>2026-04-30T08:27:30.653Z</time></trkpt><trkpt lat="44.12313" lon="12.14699"><ele>252.5</ele><time>2026-04-30T08:27:31.641Z</time></trkpt><trkpt lat="44.1231133" lon="12.14688"><ele>250.66666666666666</ele><time>2026-04-30T08:27:32.648Z</time></trkpt><trkpt lat="44.1230933" lon="12.14677"><ele>248.83333333333331</ele><time>2026-04-30T08:27:33.639Z</time></trkpt><trkpt lat="44.1230717" lon="12.14666"><ele>247.0</ele><time>2026-04-30T08:27:34.651Z</time></trkpt><trkpt lat="44.1230383" lon="12.14655"><ele>248.6</ele><time>2026-04-30T08:27:35.642Z</time></trkpt><trkpt lat="44.123005" lon="12.14643"><ele>250.2</ele><time>2026-04-30T08:27:36.642Z</time></trkpt><trkpt lat="44.1229617" lon="12.1463117"><ele>251.8</ele><time>2026-04-30T08:27:37.648Z</time></trkpt><trkpt lat="44.1229117" lon="12.1461883"><ele>253.4</ele><time>2026-04-30T08:27:38.649Z</time></trkpt><trkpt lat="44.1228583" lon="12.1460617"><ele>255.0</ele><time>2026-04-30T08:27:39.641Z</time></trkpt><trkpt lat="44.1227933" lon="12.1459433"><ele>255.0</ele><time>2026-04-30T08:27:40.641Z</time></trkpt><trkpt lat="44.1227133" lon="12.1458367"><ele>255.0</ele><time>2026-04-30T08:27:41.644Z</time></trkpt><trkpt lat="44.1226317" lon="12.1457233"><ele>255.0</ele><time>2026-04-30T08:27:42.647Z</time></trkpt><trkpt lat="44.1225483" lon="12.14561"><ele>255.0</ele><time>2026-04-30T08:27:43.647Z</time></trkpt><trkpt lat="44.1224583" lon="12.1455017"><ele>253.25</ele><time>2026-04-30T08:27:44.647Z</time></trkpt><trkpt lat="44.1223667" lon="12.1453933"><ele>251.5</ele><time>2026-04-30T08:27:45.652Z</time></trkpt><trkpt lat="44.1222633" lon="12.14528"><ele>249.75</ele><time>2026-04-30T08:27:46.648Z</time></trkpt><trkpt lat="44.12215" lon="12.14518"><ele>248.0</ele><time>2026-04-30T08:27:47.648Z</time></trkpt><trkpt lat="44.1220283" lon="12.1451"><ele>248.0</ele><time>2026-04-30T08:27:48.647Z</time></trkpt><trkpt lat="44.121905" lon="12.14504"><ele>248.0</ele><time>2026-04-30T08:27:49.644Z</time></trkpt><trkpt lat="44.1217767" lon="12.145005"><ele>248.0</ele><time>2026-04-30T08:27:50.65Z</time></trkpt><trkpt lat="44.1216483" lon="12.144995"><ele>248.0</ele><time>2026-04-30T08:27:51.648Z</time></trkpt><trkpt lat="44.1215283" lon="12.1450233"><ele>245.75</ele><time>2026-04-30T08:27:52.642Z</time></trkpt><trkpt lat="44.12141" lon="12.1450967"><ele>243.5</ele><time>2026-04-30T08:27:53.65Z</time></trkpt><trkpt lat="44.1212983" lon="12.1452117"><ele>241.25</ele><time>2026-04-30T08:27:54.663Z</time></trkpt><trkpt lat="44.1211917" lon="12.1453533"><ele>239.0</ele><time>2026-04-30T08:27:55.64Z</time></trkpt><trkpt lat="44.1210767" lon="12.1454933"><ele>239.0</ele><time>2026-04-30T08:27:56.642Z</time></trkpt><trkpt lat="44.1209467" lon="12.145625"><ele>239.0</ele><time>2026-04-30T08:27:57.643Z</time></trkpt><trkpt lat="44.1208117" lon="12.1457383"><ele>239.0</ele><time>2026-04-30T08:27:58.642Z</time></trkpt><trkpt lat="44.120675" lon="12.1458333"><ele>240.0</ele><time>2026-04-30T08:27:59.648Z</time></trkpt><trkpt lat="44.1205283" lon="12.1459017"><ele>241.0</ele><time>2026-04-30T08:28:00.645Z</time></trkpt><trkpt lat="44.1203833" lon="12.14595"><ele>242.0</ele><time>2026-04-30T08:28:01.64Z</time></trkpt><trkpt lat="44.1202367" lon="12.145985"><ele>242.0</ele><time>2026-04-30T08:28:02.645Z</time></trkpt><trkpt lat="44.1200883" lon="12.146"><ele>242.0</ele><time>2026-04-30T08:28:03.641Z</time></trkpt><trkpt lat="44.11995" lon="12.1459933"><ele>242.0</ele><time>2026-04-30T08:28:04.649Z</time></trkpt><trkpt lat="44.1198133" lon="12.1459633"><ele>242.0</ele><time>2026-04-30T08:28:05.647Z</time></trkpt><trkpt lat="44.1196833" lon="12.1459133"><ele>241.25</ele><time>2026-04-30T08:28:06.642Z</time></trkpt><trkpt lat="44.1195467" lon="12.1458467"><ele>240.5</ele><time>2026-04-30T08:28:07.643Z</time></trkpt><trkpt lat="44.1194067" lon="12.1457717"><ele>239.75</ele><time>2026-04-30T08:28:08.644Z</time></trkpt><trkpt lat="44.11927" lon="12.145695"><ele>239.0</ele><time>2026-04-30T08:28:09.646Z</time></trkpt><trkpt lat="44.119135" lon="12.1456233"><ele>242.25</ele><time>2026-04-30T08:28:10.643Z</time></trkpt><trkpt lat="44.1190067" lon="12.1455617"><ele>245.5</ele><time>2026-04-30T08:28:11.648Z</time></trkpt><trkpt lat="44.1188767" lon="12.1455217"><ele>248.75</ele><time>2026-04-30T08:28:12.641Z</time></trkpt><trkpt lat="44.1187433" lon="12.1455067"><ele>252.0</ele><time>2026-04-30T08:28:13.644Z</time></trkpt><trkpt lat="44.11861" lon="12.1455183"><ele>252.0</ele><time>2026-04-30T08:28:14.645Z</time></trkpt><trkpt lat="44.118475" lon="12.14554"><ele>252.0</ele><time>2026-04-30T08:28:15.641Z</time></trkpt><trkpt lat="44.1183467" lon="12.1455567"><ele>252.0</ele><time>2026-04-30T08:28:16.642Z</time></trkpt><trkpt lat="44.1182217" lon="12.1455817"><ele>252.0</ele><time>2026-04-30T08:28:17.644Z</time></trkpt><trkpt lat="44.1181" lon="12.1456083"><ele>253.75</ele><time>2026-04-30T08:28:18.64Z</time></trkpt><trkpt lat="44.1179817" lon="12.1456467"><ele>255.5</ele><time>2026-04-30T08:28:19.658Z</time></trkpt><trkpt lat="44.1178633" lon="12.145685"><ele>257.25</ele><time>2026-04-30T08:28:20.651Z</time></trkpt><trkpt lat="44.1177433" lon="12.1457117"><ele>259.0</ele><time>2026-04-30T08:28:21.647Z</time></trkpt><trkpt lat="44.11762" lon="12.1457217"><ele>260.5</ele><time>2026-04-30T08:28:22.646Z</time></trkpt><trkpt lat="44.11749" lon="12.1457183"><ele>262.0</ele><time>2026-04-30T08:28:23.644Z</time></trkpt><trkpt lat="44.117355" lon="12.1457083"><ele>263.5</ele><time>2026-04-30T08:28:24.647Z</time></trkpt><trkpt lat="44.1172167" lon="12.1456933"><ele>265.0</ele><time>2026-04-30T08:28:25.644Z</time></trkpt><trkpt lat="44.1170733" lon="12.1456867"><ele>266.25</ele><time>2026-04-30T08:28:26.65Z</time></trkpt><trkpt lat="44.11693" lon="12.1456917"><ele>267.5</ele><time>2026-04-30T08:28:27.652Z</time></trkpt><trkpt lat="44.1167917" lon="12.145705"><ele>268.75</ele><time>2026-04-30T08:28:28.643Z</time></trkpt><trkpt lat="44.1166533" lon="12.14573"><ele>270.0</ele><time>2026-04-30T08:28:29.648Z</time></trkpt><trkpt lat="44.1165217" lon="12.1457567"><ele>274.75</ele><time>2026-04-30T08:28:30.646Z</time></trkpt><trkpt lat="44.1164" lon="12.1458033"><ele>279.5</ele><time>2026-04-30T08:28:31.645Z</time></trkpt><trkpt lat="44.1162817" lon="12.1458667"><ele>284.25</ele><time>2026-04-30T08:28:32.649Z</time></trkpt><trkpt lat="44.1161717" lon="12.1459433"><ele>289.0</ele><time>2026-04-30T08:28:33.656Z</time></trkpt><trkpt lat="44.116075" lon="12.1460367"><ele>289.0</ele><time>2026-04-30T08:28:34.647Z</time></trkpt><trkpt lat="44.1159983" lon="12.1461333"><ele>289.0</ele><time>2026-04-30T08:28:35.646Z</time></trkpt><trkpt lat="44.1159317" lon="12.14622"><ele>289.0</ele><time>2026-04-30T08:28:36.645Z</time></trkpt><trkpt lat="44.1158683" lon="12.1462917"><ele>289.0</ele><time>2026-04-30T08:28:37.642Z</time></trkpt><trkpt lat="44.115795" lon="12.1463383"><ele>289.0</ele><time>2026-04-30T08:28:38.642Z</time></trkpt><trkpt lat="44.11573" lon="12.1463267"><ele>289.0</ele><time>2026-04-30T08:28:39.656Z</time></trkpt><trkpt lat="44.1156667" lon="12.1462833"><ele>288.0</ele><time>2026-04-30T08:28:40.645Z</time></trkpt><trkpt lat="44.1156133" lon="12.1462083"><ele>287.0</ele><time>2026-04-30T08:28:41.656Z</time></trkpt><trkpt lat="44.115575" lon="12.1461083"><ele>286.0</ele><time>2026-04-30T08:28:42.643Z</time></trkpt><trkpt lat="44.1155483" lon="12.1459883"><ele>285.0</ele><time>2026-04-30T08:28:43.649Z</time></trkpt><trkpt lat="44.1155267" lon="12.1458617"><ele>284.0</ele><time>2026-04-30T08:28:44.641Z</time></trkpt><trkpt lat="44.115505" lon="12.1457367"><ele>283.0</ele><time>2026-04-30T08:28:45.641Z</time></trkpt><trkpt lat="44.1154783" lon="12.145615"><ele>283.0</ele><time>2026-04-30T08:28:46.642Z</time></trkpt><trkpt lat="44.11545" lon="12.1454917"><ele>283.0</ele><time>2026-04-30T08:28:47.642Z</time></trkpt><trkpt lat="44.1154217" lon="12.14536"><ele>283.0</ele><time>2026-04-30T08:28:48.641Z</time></trkpt><trkpt lat="44.1154017" lon="12.1452183"><ele>283.0</ele><time>2026-04-30T08:28:49.645Z</time></trkpt><trkpt lat="44.1153883" lon="12.1450733"><ele>283.0</ele><time>2026-04-30T08:28:50.641Z</time></trkpt><trkpt lat="44.1153733" lon="12.1449333"><ele>286.2</ele><time>2026-04-30T08:28:51.647Z</time></trkpt><trkpt lat="44.115345" lon="12.144795"><ele>289.4</ele><time>2026-04-30T08:28:52.647Z</time></trkpt><trkpt lat="44.1153" lon="12.1446667"><ele>292.59999999999997</ele><time>2026-04-30T08:28:53.645Z</time></trkpt><trkpt lat="44.115235" lon="12.1445483"><ele>295.8</ele><time>2026-04-30T08:28:54.638Z</time></trkpt><trkpt lat="44.115155" lon="12.14444"><ele>299.0</ele><time>2026-04-30T08:28:55.646Z</time></trkpt><trkpt lat="44.1150583" lon="12.14435"><ele>299.0</ele><time>2026-04-30T08:28:56.647Z</time></trkpt><trkpt lat="44.1149517" lon="12.14427"><ele>299.0</ele><time>2026-04-30T08:28:57.647Z</time></trkpt><trkpt lat="44.11484" lon="12.1442"><ele>299.0</ele><time>2026-04-30T08:28:58.645Z</time></trkpt><trkpt lat="44.11473" lon="12.14413"><ele>299.0</ele><time>2026-04-30T08:28:59.643Z</time></trkpt><trkpt lat="44.1146267" lon="12.1440517"><ele>298.4</ele><time>2026-04-30T08:29:00.642Z</time></trkpt><trkpt lat="44.11454" lon="12.1439667"><ele>297.79999999999995</ele><time>2026-04-30T08:29:01.646Z</time></trkpt><trkpt lat="44.1144817" lon="12.143875"><ele>297.20000000000005</ele><time>2026-04-30T08:29:02.645Z</time></trkpt><trkpt lat="44.1144383" lon="12.1437783"><ele>296.6</ele><time>2026-04-30T08:29:03.643Z</time></trkpt><trkpt lat="44.1144217" lon="12.1436633"><ele>296.0</ele><time>2026-04-30T08:29:04.658Z</time></trkpt><trkpt lat="44.1144367" lon="12.1435233"><ele>296.0</ele><time>2026-04-30T08:29:05.653Z</time></trkpt><trkpt lat="44.114465" lon="12.1433617"><ele>296.0</ele><time>2026-04-30T08:29:06.645Z</time></trkpt><trkpt lat="44.1145033" lon="12.1431817"><ele>296.0</ele><time>2026-04-30T08:29:07.646Z</time></trkpt><trkpt lat="44.11453" lon="12.1430033"><ele>296.0</ele><time>2026-04-30T08:29:08.65Z</time></trkpt><trkpt lat="44.1145583" lon="12.1428383"><ele>296.33333333333337</ele><time>2026-04-30T08:29:09.65Z</time></trkpt><trkpt lat="44.1145783" lon="12.1426883"><ele>296.6666666666667</ele><time>2026-04-30T08:29:10.651Z</time></trkpt><trkpt lat="44.1146" lon="12.1425533"><ele>297.0</ele><time>2026-04-30T08:29:11.647Z</time></trkpt><trkpt lat="44.1146117" lon="12.1424383"><ele>297.3333333333333</ele><time>2026-04-30T08:29:12.641Z</time></trkpt><trkpt lat="44.1146083" lon="12.14235"><ele>297.66666666666663</ele><time>2026-04-30T08:29:13.645Z</time></trkpt><trkpt lat="44.1145667" lon="12.1422767"><ele>298.0</ele><time>2026-04-30T08:29:15.648Z</time></trkpt><trkpt lat="44.1144783" lon="12.142235"><ele>298.0</ele><time>2026-04-30T08:29:17.646Z</time></trkpt><trkpt lat="44.1143817" lon="12.1421567"><ele>298.0</ele><time>2026-04-30T08:29:19.651Z</time></trkpt><trkpt lat="44.1142983" lon="12.1420817"><ele>298.0</ele><time>2026-04-30T08:29:21.643Z</time></trkpt><trkpt lat="44.1142083" lon="12.1420033"><ele>298.0</ele><time>2026-04-30T08:29:23.651Z</time></trkpt><trkpt lat="44.1141133" lon="12.1419117"><ele>298.0</ele><time>2026-04-30T08:29:25.644Z</time></trkpt><trkpt lat="44.1140633" lon="12.1418567"><ele>296.85714285714283</ele><time>2026-04-30T08:29:26.651Z</time></trkpt><trkpt lat="44.114005" lon="12.1418033"><ele>295.71428571428567</ele><time>2026-04-30T08:29:27.651Z</time></trkpt><trkpt lat="44.1139467" lon="12.14175"><ele>294.57142857142856</ele><time>2026-04-30T08:29:28.638Z</time></trkpt><trkpt lat="44.1138817" lon="12.1416917"><ele>293.42857142857144</ele><time>2026-04-30T08:29:29.645Z</time></trkpt><trkpt lat="44.11382" lon="12.1416283"><ele>292.28571428571433</ele><time>2026-04-30T08:29:30.645Z</time></trkpt><trkpt lat="44.11376" lon="12.141565"><ele>291.14285714285717</ele><time>2026-04-30T08:29:31.644Z</time></trkpt><trkpt lat="44.1136967" lon="12.141505"><ele>290.0</ele><time>2026-04-30T08:29:32.642Z</time></trkpt><trkpt lat="44.113635" lon="12.1414517"><ele>290.0</ele><time>2026-04-30T08:29:33.647Z</time></trkpt><trkpt lat="44.1135717" lon="12.1414083"><ele>290.0</ele><time>2026-04-30T08:29:34.643Z</time></trkpt><trkpt lat="44.1135017" lon="12.141375"><ele>290.0</ele><time>2026-04-30T08:29:35.643Z</time></trkpt><trkpt lat="44.1134267" lon="12.14135"><ele>290.0</ele><time>2026-04-30T08:29:36.644Z</time></trkpt><trkpt lat="44.1133533" lon="12.1413333"><ele>290.0</ele><time>2026-04-30T08:29:37.641Z</time></trkpt><trkpt lat="44.113275" lon="12.1413233"><ele>290.0</ele><time>2026-04-30T08:29:38.643Z</time></trkpt><trkpt lat="44.1131917" lon="12.1413217"><ele>290.6666666666667</ele><time>2026-04-30T08:29:39.649Z</time></trkpt><trkpt lat="44.11311" lon="12.1413233"><ele>291.33333333333337</ele><time>2026-04-30T08:29:40.645Z</time></trkpt><trkpt lat="44.1130283" lon="12.1413283"><ele>292.0</ele><time>2026-04-30T08:29:41.655Z</time></trkpt><trkpt lat="44.11295" lon="12.14133"><ele>292.6666666666667</ele><time>2026-04-30T08:29:42.644Z</time></trkpt><trkpt lat="44.1128683" lon="12.1413317"><ele>293.3333333333333</ele><time>2026-04-30T08:29:43.649Z</time></trkpt><trkpt lat="44.112785" lon="12.1413367"><ele>294.0</ele><time>2026-04-30T08:29:44.638Z</time></trkpt><trkpt lat="44.112705" lon="12.1413433"><ele>294.0</ele><time>2026-04-30T08:29:45.638Z</time></trkpt><trkpt lat="44.11262" lon="12.1413567"><ele>294.0</ele><time>2026-04-30T08:29:46.648Z</time></trkpt><trkpt lat="44.1125383" lon="12.1413767"><ele>294.0</ele><time>2026-04-30T08:29:47.658Z</time></trkpt><trkpt lat="44.11246" lon="12.1414167"><ele>294.0</ele><time>2026-04-30T08:29:48.64Z</time></trkpt><trkpt lat="44.1123833" lon="12.1414767"><ele>294.0</ele><time>2026-04-30T08:29:49.654Z</time></trkpt><trkpt lat="44.1123117" lon="12.1415483"><ele>294.0</ele><time>2026-04-30T08:29:50.656Z</time></trkpt><trkpt lat="44.11224" lon="12.1416233"><ele>292.3333333333333</ele><time>2026-04-30T08:29:51.647Z</time></trkpt><trkpt lat="44.11217" lon="12.1416983"><ele>290.6666666666667</ele><time>2026-04-30T08:29:52.654Z</time></trkpt><trkpt lat="44.1120967" lon="12.141765"><ele>289.0</ele><time>2026-04-30T08:29:53.639Z</time></trkpt><trkpt lat="44.1120217" lon="12.1418267"><ele>287.33333333333337</ele><time>2026-04-30T08:29:54.656Z</time></trkpt><trkpt lat="44.111945" lon="12.1418833"><ele>285.6666666666667</ele><time>2026-04-30T08:29:55.642Z</time></trkpt><trkpt lat="44.111865" lon="12.1419267"><ele>284.0</ele><time>2026-04-30T08:29:56.644Z</time></trkpt><trkpt lat="44.1117783" lon="12.1419517"><ele>284.0</ele><time>2026-04-30T08:29:57.638Z</time></trkpt><trkpt lat="44.1116883" lon="12.1419633"><ele>284.0</ele><time>2026-04-30T08:29:58.651Z</time></trkpt><trkpt lat="44.1115967" lon="12.1419517"><ele>284.0</ele><time>2026-04-30T08:29:59.643Z</time></trkpt><trkpt lat="44.1115017" lon="12.141925"><ele>284.0</ele><time>2026-04-30T08:30:00.649Z</time></trkpt><trkpt lat="44.1114067" lon="12.1418967"><ele>284.0</ele><time>2026-04-30T08:30:01.652Z</time></trkpt><trkpt lat="44.11131" lon="12.141865"><ele>282.59999999999997</ele><time>2026-04-30T08:30:02.646Z</time></trkpt><trkpt lat="44.1112133" lon="12.141835"><ele>281.2</ele><time>2026-04-30T08:30:03.65Z</time></trkpt><trkpt lat="44.1111133" lon="12.1418033"><ele>279.79999999999995</ele><time>2026-04-30T08:30:04.644Z</time></trkpt><trkpt lat="44.1110017" lon="12.1417717"><ele>278.4</ele><time>2026-04-30T08:30:05.66Z</time></trkpt><trkpt lat="44.1108817" lon="12.1417383"><ele>277.0</ele><time>2026-04-30T08:30:06.644Z</time></trkpt><trkpt lat="44.1107517" lon="12.1417083"><ele>276.75</ele><time>2026-04-30T08:30:07.645Z</time></trkpt><trkpt lat="44.11062" lon="12.1416817"><ele>276.5</ele><time>2026-04-30T08:30:08.643Z</time></trkpt><trkpt lat="44.110485" lon="12.1416617"><ele>276.25</ele><time>2026-04-30T08:30:09.66Z</time></trkpt><trkpt lat="44.1103483" lon="12.1416433"><ele>276.0</ele><time>2026-04-30T08:30:10.64Z</time></trkpt><trkpt lat="44.11021" lon="12.1416267"><ele>276.0</ele><time>2026-04-30T08:30:11.644Z</time></trkpt><trkpt lat="44.110065" lon="12.1416017"><ele>276.0</ele><time>2026-04-30T08:30:12.638Z</time></trkpt><trkpt lat="44.1099167" lon="12.141575"><ele>276.0</ele><time>2026-04-30T08:30:13.651Z</time></trkpt><trkpt lat="44.109765" lon="12.141545"><ele>276.0</ele><time>2026-04-30T08:30:14.647Z</time></trkpt><trkpt lat="44.109615" lon="12.1415033"><ele>274.0</ele><time>2026-04-30T08:30:15.652Z</time></trkpt><trkpt lat="44.109475" lon="12.1414617"><ele>272.0</ele><time>2026-04-30T08:30:16.651Z</time></trkpt><trkpt lat="44.1093467" lon="12.1414233"><ele>270.0</ele><time>2026-04-30T08:30:17.656Z</time></trkpt><trkpt lat="44.1092233" lon="12.1414033"><ele>268.0</ele><time>2026-04-30T08:30:18.652Z</time></trkpt><trkpt lat="44.1090933" lon="12.1414017"><ele>266.75</ele><time>2026-04-30T08:30:19.654Z</time></trkpt><trkpt lat="44.108955" lon="12.1414167"><ele>265.5</ele><time>2026-04-30T08:30:20.648Z</time></trkpt><trkpt lat="44.1088133" lon="12.14144"><ele>264.25</ele><time>2026-04-30T08:30:21.642Z</time></trkpt><trkpt lat="44.1086683" lon="12.1414667"><ele>263.0</ele><time>2026-04-30T08:30:22.644Z</time></trkpt><trkpt lat="44.1085233" lon="12.1414867"><ele>263.0</ele><time>2026-04-30T08:30:23.642Z</time></trkpt><trkpt lat="44.10838" lon="12.1415083"><ele>263.0</ele><time>2026-04-30T08:30:24.645Z</time></trkpt><trkpt lat="44.108245" lon="12.1415317"><ele>263.0</ele><time>2026-04-30T08:30:25.646Z</time></trkpt><trkpt lat="44.10811" lon="12.1415583"><ele>263.0</ele><time>2026-04-30T08:30:26.654Z</time></trkpt><trkpt lat="44.107975" lon="12.1415883"><ele>265.25</ele><time>2026-04-30T08:30:27.644Z</time></trkpt><trkpt lat="44.107845" lon="12.1416183"><ele>267.5</ele><time>2026-04-30T08:30:28.655Z</time></trkpt><trkpt lat="44.1077167" lon="12.1416533"><ele>269.75</ele><time>2026-04-30T08:30:29.642Z</time></trkpt><trkpt lat="44.1075917" lon="12.1416917"><ele>272.0</ele><time>2026-04-30T08:30:30.645Z</time></trkpt><trkpt lat="44.107465" lon="12.1417317"><ele>270.75</ele><time>2026-04-30T08:30:31.65Z</time></trkpt><trkpt lat="44.10734" lon="12.1417733"><ele>269.5</ele><time>2026-04-30T08:30:32.651Z</time></trkpt><trkpt lat="44.1072167" lon="12.1418017"><ele>268.25</ele><time>2026-04-30T08:30:33.649Z</time></trkpt><trkpt lat="44.1070883" lon="12.1418167"><ele>267.0</ele><time>2026-04-30T08:30:34.647Z</time></trkpt><trkpt lat="44.1069567" lon="12.14181"><ele>267.0</ele><time>2026-04-30T08:30:35.642Z</time></trkpt><trkpt lat="44.1068233" lon="12.14177"><ele>267.0</ele><time>2026-04-30T08:30:36.647Z</time></trkpt><trkpt lat="44.1066917" lon="12.141715"><ele>267.0</ele><time>2026-04-30T08:30:37.645Z</time></trkpt><trkpt lat="44.10656" lon="12.1416533"><ele>267.0</ele><time>2026-04-30T08:30:38.645Z</time></trkpt><trkpt lat="44.1064283" lon="12.14159"><ele>267.5</ele><time>2026-04-30T08:30:39.646Z</time></trkpt><trkpt lat="44.1062883" lon="12.1415533"><ele>268.0</ele><time>2026-04-30T08:30:40.644Z</time></trkpt><trkpt lat="44.1061383" lon="12.1415483"><ele>268.5</ele><time>2026-04-30T08:30:41.652Z</time></trkpt><trkpt lat="44.1059867" lon="12.14156"><ele>269.0</ele><time>2026-04-30T08:30:42.644Z</time></trkpt><trkpt lat="44.1058433" lon="12.1415883"><ele>268.75</ele><time>2026-04-30T08:30:43.653Z</time></trkpt><trkpt lat="44.105705" lon="12.14162"><ele>268.5</ele><time>2026-04-30T08:30:44.644Z</time></trkpt><trkpt lat="44.1055767" lon="12.1416683"><ele>268.25</ele><time>2026-04-30T08:30:45.646Z</time></trkpt><trkpt lat="44.1054433" lon="12.1417333"><ele>268.0</ele><time>2026-04-30T08:30:46.643Z</time></trkpt><trkpt lat="44.1053183" lon="12.1418033"><ele>268.0</ele><time>2026-04-30T08:30:47.649Z</time></trkpt><trkpt lat="44.1051983" lon="12.1418867"><ele>268.0</ele><time>2026-04-30T08:30:48.641Z</time></trkpt><trkpt lat="44.1050783" lon="12.1419767"><ele>268.0</ele><time>2026-04-30T08:30:49.646Z</time></trkpt><trkpt lat="44.1049583" lon="12.1420583"><ele>268.0</ele><time>2026-04-30T08:30:50.653Z</time></trkpt><trkpt lat="44.104835" lon="12.14212"><ele>269.75</ele><time>2026-04-30T08:30:51.649Z</time></trkpt><trkpt lat="44.1047017" lon="12.1421667"><ele>271.5</ele><time>2026-04-30T08:30:52.653Z</time></trkpt><trkpt lat="44.1045583" lon="12.142195"><ele>273.25</ele><time>2026-04-30T08:30:53.643Z</time></trkpt><trkpt lat="44.1044117" lon="12.1422083"><ele>275.0</ele><time>2026-04-30T08:30:54.655Z</time></trkpt><trkpt lat="44.1042633" lon="12.1422133"><ele>275.0</ele><time>2026-04-30T08:30:55.644Z</time></trkpt><trkpt lat="44.1041183" lon="12.142215"><ele>275.0</ele><time>2026-04-30T08:30:56.65Z</time></trkpt><trkpt lat="44.1039783" lon="12.1422083"><ele>275.0</ele><time>2026-04-30T08:30:57.652Z</time></trkpt><trkpt lat="44.1038367" lon="12.14221"><ele>275.0</ele><time>2026-04-30T08:30:58.644Z</time></trkpt><trkpt lat="44.103695" lon="12.1422167"><ele>273.5</ele><time>2026-04-30T08:30:59.661Z</time></trkpt><trkpt lat="44.1035533" lon="12.1422333"><ele>272.0</ele><time>2026-04-30T08:31:00.649Z</time></trkpt><trkpt lat="44.1034083" lon="12.1422633"><ele>270.5</ele><time>2026-04-30T08:31:01.645Z</time></trkpt><trkpt lat="44.1032617" lon="12.1422983"><ele>269.0</ele><time>2026-04-30T08:31:02.649Z</time></trkpt><trkpt lat="44.103115" lon="12.1423333"><ele>269.0</ele><time>2026-04-30T08:31:03.646Z</time></trkpt><trkpt lat="44.102975" lon="12.1423733"><ele>269.0</ele><time>2026-04-30T08:31:04.643Z</time></trkpt><trkpt lat="44.1028367" lon="12.14241"><ele>269.0</ele><time>2026-04-30T08:31:05.647Z</time></trkpt><trkpt lat="44.1027" lon="12.142445"><ele>269.0</ele><time>2026-04-30T08:31:06.648Z</time></trkpt><trkpt lat="44.102565" lon="12.14248"><ele>269.0</ele><time>2026-04-30T08:31:07.643Z</time></trkpt><trkpt lat="44.1024267" lon="12.1425167"><ele>269.0</ele><time>2026-04-30T08:31:08.655Z</time></trkpt><trkpt lat="44.10229" lon="12.1425483"><ele>269.0</ele><time>2026-04-30T08:31:09.65Z</time></trkpt><trkpt lat="44.1021567" lon="12.142565"><ele>269.0</ele><time>2026-04-30T08:31:10.648Z</time></trkpt><trkpt lat="44.1020267" lon="12.1425733"><ele>271.25</ele><time>2026-04-30T08:31:11.658Z</time></trkpt><trkpt lat="44.1018983" lon="12.1425617"><ele>273.5</ele><time>2026-04-30T08:31:12.641Z</time></trkpt><trkpt lat="44.10177" lon="12.1425117"><ele>275.75</ele><time>2026-04-30T08:31:13.65Z</time></trkpt><trkpt lat="44.101645" lon="12.142435"><ele>278.0</ele><time>2026-04-30T08:31:14.651Z</time></trkpt><trkpt lat="44.101525" lon="12.14234"><ele>279.5</ele><time>2026-04-30T08:31:15.648Z</time></trkpt><trkpt lat="44.101415" lon="12.1422417"><ele>281.0</ele><time>2026-04-30T08:31:16.638Z</time></trkpt><trkpt lat="44.1013" lon="12.1421533"><ele>282.5</ele><time>2026-04-30T08:31:17.647Z</time></trkpt><trkpt lat="44.1011767" lon="12.1420783"><ele>284.0</ele><time>2026-04-30T08:31:18.647Z</time></trkpt><trkpt lat="44.1010467" lon="12.142015"><ele>284.0</ele><time>2026-04-30T08:31:19.66Z</time></trkpt><trkpt lat="44.100915" lon="12.1419583"><ele>284.0</ele><time>2026-04-30T08:31:20.642Z</time></trkpt><trkpt lat="44.100785" lon="12.1419017"><ele>284.0</ele><time>2026-04-30T08:31:21.642Z</time></trkpt><trkpt lat="44.1006633" lon="12.1418433"><ele>284.0</ele><time>2026-04-30T08:31:22.647Z</time></trkpt><trkpt lat="44.1005633" lon="12.1417633"><ele>285.0</ele><time>2026-04-30T08:31:23.648Z</time></trkpt><trkpt lat="44.100475" lon="12.14166"><ele>286.0</ele><time>2026-04-30T08:31:24.65Z</time></trkpt><trkpt lat="44.1004117" lon="12.141535"><ele>287.0</ele><time>2026-04-30T08:31:25.641Z</time></trkpt><trkpt lat="44.100355" lon="12.14141"><ele>288.0</ele><time>2026-04-30T08:31:26.647Z</time></trkpt><trkpt lat="44.1002917" lon="12.1413067"><ele>289.0</ele><time>2026-04-30T08:31:27.643Z</time></trkpt><trkpt lat="44.100215" lon="12.14123"><ele>289.0</ele><time>2026-04-30T08:31:28.651Z</time></trkpt><trkpt lat="44.1001433" lon="12.1411883"><ele>289.0</ele><time>2026-04-30T08:31:29.646Z</time></trkpt><trkpt lat="44.1000767" lon="12.1411933"><ele>289.0</ele><time>2026-04-30T08:31:30.651Z</time></trkpt><trkpt lat="44.1" lon="12.14124"><ele>289.0</ele><time>2026-04-30T08:31:31.646Z</time></trkpt><trkpt lat="44.09992" lon="12.1412817"><ele>289.0</ele><time>2026-04-30T08:31:32.641Z</time></trkpt><trkpt lat="44.0998317" lon="12.1413183"><ele>289.0</ele><time>2026-04-30T08:31:33.638Z</time></trkpt><trkpt lat="44.0997367" lon="12.1413383"><ele>290.2</ele><time>2026-04-30T08:31:34.647Z</time></trkpt><trkpt lat="44.0996367" lon="12.14135"><ele>291.4</ele><time>2026-04-30T08:31:35.642Z</time></trkpt><trkpt lat="44.0995317" lon="12.14135"><ele>292.6</ele><time>2026-04-30T08:31:36.643Z</time></trkpt><trkpt lat="44.09942" lon="12.1413383"><ele>293.8</ele><time>2026-04-30T08:31:37.652Z</time></trkpt><trkpt lat="44.0993" lon="12.1413117"><ele>295.0</ele><time>2026-04-30T08:31:38.658Z</time></trkpt><trkpt lat="44.0991833" lon="12.141265"><ele>296.75</ele><time>2026-04-30T08:31:39.647Z</time></trkpt><trkpt lat="44.0990767" lon="12.141205"><ele>298.5</ele><time>2026-04-30T08:31:40.642Z</time></trkpt><trkpt lat="44.0989717" lon="12.1411383"><ele>300.25</ele><time>2026-04-30T08:31:41.646Z</time></trkpt><trkpt lat="44.098865" lon="12.1410667"><ele>302.0</ele><time>2026-04-30T08:31:42.652Z</time></trkpt><trkpt lat="44.0987533" lon="12.141025"><ele>302.0</ele><time>2026-04-30T08:31:43.648Z</time></trkpt><trkpt lat="44.0986367" lon="12.14101"><ele>302.0</ele><time>2026-04-30T08:31:44.639Z</time></trkpt><trkpt lat="44.09852" lon="12.1410183"><ele>302.0</ele><time>2026-04-30T08:31:45.64Z</time></trkpt><trkpt lat="44.0984017" lon="12.1410567"><ele>302.0</ele><time>2026-04-30T08:31:46.645Z</time></trkpt><trkpt lat="44.098285" lon="12.141125"><ele>304.75</ele><time>2026-04-30T08:31:47.645Z</time></trkpt><trkpt lat="44.0981667" lon="12.141205"><ele>307.5</ele><time>2026-04-30T08:31:48.643Z</time></trkpt><trkpt lat="44.098045" lon="12.14129"><ele>310.25</ele><time>2026-04-30T08:31:49.639Z</time></trkpt><trkpt lat="44.097925" lon="12.14137"><ele>313.0</ele><time>2026-04-30T08:31:50.643Z</time></trkpt><trkpt lat="44.0978133" lon="12.1414317"><ele>313.0</ele><time>2026-04-30T08:31:51.654Z</time></trkpt><trkpt lat="44.0977117" lon="12.1414667"><ele>313.0</ele><time>2026-04-30T08:31:52.646Z</time></trkpt><trkpt lat="44.09763" lon="12.1414733"><ele>313.0</ele><time>2026-04-30T08:31:53.655Z</time></trkpt><trkpt lat="44.097555" lon="12.141455"><ele>313.0</ele><time>2026-04-30T08:31:54.647Z</time></trkpt><trkpt lat="44.0974833" lon="12.141405"><ele>313.0</ele><time>2026-04-30T08:31:55.651Z</time></trkpt><trkpt lat="44.09741" lon="12.141345"><ele>313.0</ele><time>2026-04-30T08:31:56.64Z</time></trkpt><trkpt lat="44.0973367" lon="12.1412917"><ele>313.16666666666663</ele><time>2026-04-30T08:31:57.647Z</time></trkpt><trkpt lat="44.097265" lon="12.1412633"><ele>313.3333333333333</ele><time>2026-04-30T08:31:58.648Z</time></trkpt><trkpt lat="44.097195" lon="12.1412717"><ele>313.5</ele><time>2026-04-30T08:31:59.644Z</time></trkpt><trkpt lat="44.0971233" lon="12.1413117"><ele>313.6666666666667</ele><time>2026-04-30T08:32:00.648Z</time></trkpt><trkpt lat="44.09706" lon="12.1413783"><ele>313.83333333333337</ele><time>2026-04-30T08:32:01.637Z</time></trkpt><trkpt lat="44.097015" lon="12.141485"><ele>314.0</ele><time>2026-04-30T08:32:02.646Z</time></trkpt><trkpt lat="44.0969817" lon="12.1416117"><ele>313.5</ele><time>2026-04-30T08:32:03.653Z</time></trkpt><trkpt lat="44.0969417" lon="12.1417433"><ele>313.0</ele><time>2026-04-30T08:32:04.641Z</time></trkpt><trkpt lat="44.0968933" lon="12.141895"><ele>312.5</ele><time>2026-04-30T08:32:05.651Z</time></trkpt><trkpt lat="44.09685" lon="12.1420533"><ele>312.0</ele><time>2026-04-30T08:32:06.64Z</time></trkpt><trkpt lat="44.09682" lon="12.1422083"><ele>312.0</ele><time>2026-04-30T08:32:07.651Z</time></trkpt><trkpt lat="44.0968" lon="12.1423733"><ele>312.0</ele><time>2026-04-30T08:32:08.645Z</time></trkpt><trkpt lat="44.0967717" lon="12.142535"><ele>312.0</ele><time>2026-04-30T08:32:09.652Z</time></trkpt><trkpt lat="44.0967283" lon="12.1426917"><ele>312.0</ele><time>2026-04-30T08:32:10.648Z</time></trkpt><trkpt lat="44.0966617" lon="12.14283"><ele>309.75</ele><time>2026-04-30T08:32:11.649Z</time></trkpt><trkpt lat="44.096575" lon="12.1429517"><ele>307.5</ele><time>2026-04-30T08:32:12.638Z</time></trkpt><trkpt lat="44.0964917" lon="12.1430683"><ele>305.25</ele><time>2026-04-30T08:32:13.64Z</time></trkpt><trkpt lat="44.0964283" lon="12.1431933"><ele>303.0</ele><time>2026-04-30T08:32:14.651Z</time></trkpt><trkpt lat="44.0963933" lon="12.1433267"><ele>303.0</ele><time>2026-04-30T08:32:15.654Z</time></trkpt><trkpt lat="44.0963833" lon="12.1434767"><ele>303.0</ele><time>2026-04-30T08:32:16.647Z</time></trkpt><trkpt lat="44.096395" lon="12.1436333"><ele>303.0</ele><time>2026-04-30T08:32:17.647Z</time></trkpt><trkpt lat="44.09642" lon="12.14379"><ele>303.0</ele><time>2026-04-30T08:32:18.65Z</time></trkpt><trkpt lat="44.096435" lon="12.1439483"><ele>305.6</ele><time>2026-04-30T08:32:19.642Z</time></trkpt><trkpt lat="44.0964333" lon="12.1441067"><ele>308.20000000000005</ele><time>2026-04-30T08:32:20.655Z</time></trkpt><trkpt lat="44.0964117" lon="12.1442617"><ele>310.8</ele><time>2026-04-30T08:32:21.641Z</time></trkpt><trkpt lat="44.096375" lon="12.1444067"><ele>313.40000000000003</ele><time>2026-04-30T08:32:22.647Z</time></trkpt><trkpt lat="44.096325" lon="12.1445383"><ele>316.0</ele><time>2026-04-30T08:32:23.65Z</time></trkpt><trkpt lat="44.0962567" lon="12.1446433"><ele>316.0</ele><time>2026-04-30T08:32:24.643Z</time></trkpt><trkpt lat="44.0961733" lon="12.144725"><ele>316.0</ele><time>2026-04-30T08:32:25.641Z</time></trkpt><trkpt lat="44.0960717" lon="12.144785"><ele>316.0</ele><time>2026-04-30T08:32:26.639Z</time></trkpt><trkpt lat="44.0959583" lon="12.144815"><ele>316.0</ele><time>2026-04-30T08:32:27.645Z</time></trkpt><trkpt lat="44.0958367" lon="12.1448217"><ele>316.0</ele><time>2026-04-30T08:32:28.641Z</time></trkpt><trkpt lat="44.095715" lon="12.144815"><ele>313.75</ele><time>2026-04-30T08:32:29.639Z</time></trkpt><trkpt lat="44.0955933" lon="12.1448017"><ele>311.5</ele><time>2026-04-30T08:32:30.649Z</time></trkpt><trkpt lat="44.0954733" lon="12.1447917"><ele>309.25</ele><time>2026-04-30T08:32:31.656Z</time></trkpt><trkpt lat="44.0953567" lon="12.1447883"><ele>307.0</ele><time>2026-04-30T08:32:32.646Z</time></trkpt><trkpt lat="44.0952383" lon="12.1447983"><ele>307.0</ele><time>2026-04-30T08:32:33.641Z</time></trkpt><trkpt lat="44.09512" lon="12.1448183"><ele>307.0</ele><time>2026-04-30T08:32:34.652Z</time></trkpt><trkpt lat="44.095" lon="12.14486"><ele>307.0</ele><time>2026-04-30T08:32:35.65Z</time></trkpt><trkpt lat="44.094885" lon="12.1449233"><ele>307.0</ele><time>2026-04-30T08:32:36.648Z</time></trkpt><trkpt lat="44.0947683" lon="12.1449983"><ele>309.5</ele><time>2026-04-30T08:32:37.641Z</time></trkpt><trkpt lat="44.09465" lon="12.14507"><ele>312.0</ele><time>2026-04-30T08:32:38.651Z</time></trkpt><trkpt lat="44.09453" lon="12.145135"><ele>314.5</ele><time>2026-04-30T08:32:39.657Z</time></trkpt><trkpt lat="44.0944067" lon="12.145195"><ele>317.0</ele><time>2026-04-30T08:32:40.643Z</time></trkpt><trkpt lat="44.0942867" lon="12.1452633"><ele>317.0</ele><time>2026-04-30T08:32:41.641Z</time></trkpt><trkpt lat="44.0941683" lon="12.1453633"><ele>317.0</ele><time>2026-04-30T08:32:42.644Z</time></trkpt><trkpt lat="44.0940483" lon="12.1454883"><ele>317.0</ele><time>2026-04-30T08:32:43.646Z</time></trkpt><trkpt lat="44.0939367" lon="12.1456183"><ele>317.0</ele><time>2026-04-30T08:32:44.644Z</time></trkpt><trkpt lat="44.0938283" lon="12.145755"><ele>320.5</ele><time>2026-04-30T08:32:45.646Z</time></trkpt><trkpt lat="44.0937233" lon="12.1458917"><ele>324.0</ele><time>2026-04-30T08:32:46.648Z</time></trkpt><trkpt lat="44.0936233" lon="12.14603"><ele>327.5</ele><time>2026-04-30T08:32:47.643Z</time></trkpt><trkpt lat="44.0935183" lon="12.1461633"><ele>331.0</ele><time>2026-04-30T08:32:48.646Z</time></trkpt><trkpt lat="44.0934117" lon="12.1462983"><ele>331.0</ele><time>2026-04-30T08:32:49.647Z</time></trkpt><trkpt lat="44.09331" lon="12.1464367"><ele>331.0</ele><time>2026-04-30T08:32:50.648Z</time></trkpt><trkpt lat="44.0932067" lon="12.1465733"><ele>331.0</ele><time>2026-04-30T08:32:51.637Z</time></trkpt><trkpt lat="44.0931117" lon="12.1467167"><ele>331.0</ele><time>2026-04-30T08:32:52.652Z</time></trkpt><trkpt lat="44.0930333" lon="12.1468767"><ele>333.75</ele><time>2026-04-30T08:32:53.64Z</time></trkpt><trkpt lat="44.09298" lon="12.1470567"><ele>336.5</ele><time>2026-04-30T08:32:54.64Z</time></trkpt><trkpt lat="44.092945" lon="12.1472433"><ele>339.25</ele><time>2026-04-30T08:32:55.649Z</time></trkpt><trkpt lat="44.09293" lon="12.1474383"><ele>342.0</ele><time>2026-04-30T08:32:56.646Z</time></trkpt><trkpt lat="44.0929317" lon="12.1476433"><ele>342.0</ele><time>2026-04-30T08:32:57.653Z</time></trkpt><trkpt lat="44.09294" lon="12.147845"><ele>342.0</ele><time>2026-04-30T08:32:58.641Z</time></trkpt><trkpt lat="44.0929483" lon="12.1480433"><ele>342.0</ele><time>2026-04-30T08:32:59.661Z</time></trkpt><trkpt lat="44.0929533" lon="12.1482433"><ele>342.0</ele><time>2026-04-30T08:33:00.639Z</time></trkpt><trkpt lat="44.0929583" lon="12.14844"><ele>341.0</ele><time>2026-04-30T08:33:01.646Z</time></trkpt><trkpt lat="44.09296" lon="12.1486317"><ele>340.0</ele><time>2026-04-30T08:33:02.642Z</time></trkpt><trkpt lat="44.0929583" lon="12.1488217"><ele>339.0</ele><time>2026-04-30T08:33:03.645Z</time></trkpt><trkpt lat="44.0929533" lon="12.1490167"><ele>338.0</ele><time>2026-04-30T08:33:04.649Z</time></trkpt><trkpt lat="44.092955" lon="12.1492183"><ele>336.0</ele><time>2026-04-30T08:33:05.653Z</time></trkpt><trkpt lat="44.0929633" lon="12.1494283"><ele>334.0</ele><time>2026-04-30T08:33:06.649Z</time></trkpt><trkpt lat="44.0929767" lon="12.1496433"><ele>332.0</ele><time>2026-04-30T08:33:07.65Z</time></trkpt><trkpt lat="44.0929883" lon="12.1498583"><ele>331.25</ele><time>2026-04-30T08:33:08.646Z</time></trkpt><trkpt lat="44.093" lon="12.15007"><ele>330.5</ele><time>2026-04-30T08:33:09.658Z</time></trkpt><trkpt lat="44.0930017" lon="12.1502767"><ele>329.75</ele><time>2026-04-30T08:33:10.645Z</time></trkpt><trkpt lat="44.0929917" lon="12.1504717"><ele>329.0</ele><time>2026-04-30T08:33:11.643Z</time></trkpt><trkpt lat="44.0929717" lon="12.1506567"><ele>329.5</ele><time>2026-04-30T08:33:12.646Z</time></trkpt><trkpt lat="44.092935" lon="12.1508417"><ele>330.0</ele><time>2026-04-30T08:33:13.645Z</time></trkpt><trkpt lat="44.092885" lon="12.15103"><ele>330.5</ele><time>2026-04-30T08:33:14.643Z</time></trkpt><trkpt lat="44.092825" lon="12.15121"><ele>331.0</ele><time>2026-04-30T08:33:15.642Z</time></trkpt><trkpt lat="44.092765" lon="12.1513717"><ele>331.0</ele><time>2026-04-30T08:33:16.652Z</time></trkpt><trkpt lat="44.092715" lon="12.1515333"><ele>331.0</ele><time>2026-04-30T08:33:17.647Z</time></trkpt><trkpt lat="44.0926783" lon="12.1517017"><ele>331.0</ele><time>2026-04-30T08:33:18.653Z</time></trkpt><trkpt lat="44.0926533" lon="12.15188"><ele>331.0</ele><time>2026-04-30T08:33:19.648Z</time></trkpt><trkpt lat="44.09264" lon="12.1520483"><ele>330.8</ele><time>2026-04-30T08:33:20.644Z</time></trkpt><trkpt lat="44.0926417" lon="12.1522067"><ele>330.6</ele><time>2026-04-30T08:33:21.663Z</time></trkpt><trkpt lat="44.09267" lon="12.1523533"><ele>330.4</ele><time>2026-04-30T08:33:22.655Z</time></trkpt><trkpt lat="44.0927267" lon="12.152485"><ele>330.2</ele><time>2026-04-30T08:33:23.645Z</time></trkpt><trkpt lat="44.092805" lon="12.1526"><ele>330.0</ele><time>2026-04-30T08:33:24.646Z</time></trkpt><trkpt lat="44.0929067" lon="12.152695"><ele>330.0</ele><time>2026-04-30T08:33:25.652Z</time></trkpt><trkpt lat="44.0930283" lon="12.152775"><ele>330.0</ele><time>2026-04-30T08:33:26.647Z</time></trkpt><trkpt lat="44.093155" lon="12.1528583"><ele>330.0</ele><time>2026-04-30T08:33:27.646Z</time></trkpt><trkpt lat="44.0932783" lon="12.1529483"><ele>330.0</ele><time>2026-04-30T08:33:28.65Z</time></trkpt><trkpt lat="44.0933767" lon="12.15305"><ele>330.5</ele><time>2026-04-30T08:33:29.645Z</time></trkpt><trkpt lat="44.0934483" lon="12.153175"><ele>331.0</ele><time>2026-04-30T08:33:30.652Z</time></trkpt><trkpt lat="44.0935" lon="12.15332"><ele>331.5</ele><time>2026-04-30T08:33:31.649Z</time></trkpt><trkpt lat="44.0935267" lon="12.153475"><ele>332.0</ele><time>2026-04-30T08:33:32.65Z</time></trkpt><trkpt lat="44.0935483" lon="12.1536283"><ele>332.0</ele><time>2026-04-30T08:33:33.667Z</time></trkpt><trkpt lat="44.0935917" lon="12.153765"><ele>332.0</ele><time>2026-04-30T08:33:34.647Z</time></trkpt><trkpt lat="44.0936583" lon="12.1538867"><ele>332.0</ele><time>2026-04-30T08:33:35.651Z</time></trkpt><trkpt lat="44.0937433" lon="12.1539783"><ele>332.0</ele><time>2026-04-30T08:33:36.645Z</time></trkpt><trkpt lat="44.0938467" lon="12.1540517"><ele>332.0</ele><time>2026-04-30T08:33:37.655Z</time></trkpt><trkpt lat="44.0939717" lon="12.154105"><ele>332.0</ele><time>2026-04-30T08:33:38.655Z</time></trkpt><trkpt lat="44.0941067" lon="12.1541583"><ele>332.0</ele><time>2026-04-30T08:33:39.649Z</time></trkpt><trkpt lat="44.0942467" lon="12.1542133"><ele>332.0</ele><time>2026-04-30T08:33:40.647Z</time></trkpt><trkpt lat="44.09438" lon="12.1542667"><ele>332.0</ele><time>2026-04-30T08:33:41.65Z</time></trkpt><trkpt lat="44.09451" lon="12.15432"><ele>332.0</ele><time>2026-04-30T08:33:42.649Z</time></trkpt><trkpt lat="44.094635" lon="12.1543767"><ele>332.0</ele><time>2026-04-30T08:33:43.643Z</time></trkpt><trkpt lat="44.09476" lon="12.154445"><ele>332.0</ele><time>2026-04-30T08:33:44.645Z</time></trkpt><trkpt lat="44.0948817" lon="12.1545283"><ele>332.0</ele><time>2026-04-30T08:33:45.65Z</time></trkpt><trkpt lat="44.095" lon="12.1546233"><ele>333.75</ele><time>2026-04-30T08:33:46.643Z</time></trkpt><trkpt lat="44.095125" lon="12.154715"><ele>335.5</ele><time>2026-04-30T08:33:47.645Z</time></trkpt><trkpt lat="44.0952533" lon="12.15479"><ele>337.25</ele><time>2026-04-30T08:33:48.655Z</time></trkpt><trkpt lat="44.0953933" lon="12.1548433"><ele>339.0</ele><time>2026-04-30T08:33:49.646Z</time></trkpt><trkpt lat="44.0955367" lon="12.1548783"><ele>335.5</ele><time>2026-04-30T08:33:50.65Z</time></trkpt><trkpt lat="44.09568" lon="12.154915"><ele>332.0</ele><time>2026-04-30T08:33:51.66Z</time></trkpt><trkpt lat="44.0958167" lon="12.1549767"><ele>328.5</ele><time>2026-04-30T08:33:52.646Z</time></trkpt><trkpt lat="44.0959467" lon="12.1550533"><ele>325.0</ele><time>2026-04-30T08:33:53.644Z</time></trkpt><trkpt lat="44.09607" lon="12.15514"><ele>325.0</ele><time>2026-04-30T08:33:54.65Z</time></trkpt><trkpt lat="44.0961883" lon="12.15523"><ele>325.0</ele><time>2026-04-30T08:33:55.643Z</time></trkpt><trkpt lat="44.0962983" lon="12.15533"><ele>325.0</ele><time>2026-04-30T08:33:56.646Z</time></trkpt><trkpt lat="44.0963967" lon="12.155445"><ele>325.0</ele><time>2026-04-30T08:33:57.641Z</time></trkpt><trkpt lat="44.096485" lon="12.15557"><ele>325.75</ele><time>2026-04-30T08:33:58.65Z</time></trkpt><trkpt lat="44.096555" lon="12.1557083"><ele>326.5</ele><time>2026-04-30T08:33:59.647Z</time></trkpt><trkpt lat="44.096595" lon="12.15586"><ele>327.25</ele><time>2026-04-30T08:34:00.655Z</time></trkpt><trkpt lat="44.0966117" lon="12.156015"><ele>328.0</ele><time>2026-04-30T08:34:01.658Z</time></trkpt><trkpt lat="44.0965983" lon="12.1561683"><ele>324.0</ele><time>2026-04-30T08:34:02.642Z</time></trkpt><trkpt lat="44.096555" lon="12.1563083"><ele>320.0</ele><time>2026-04-30T08:34:03.646Z</time></trkpt><trkpt lat="44.0964983" lon="12.156435"><ele>316.0</ele><time>2026-04-30T08:34:04.641Z</time></trkpt><trkpt lat="44.096445" lon="12.15655"><ele>312.0</ele><time>2026-04-30T08:34:05.645Z</time></trkpt><trkpt lat="44.0964133" lon="12.1566667"><ele>308.0</ele><time>2026-04-30T08:34:06.64Z</time></trkpt><trkpt lat="44.0964017" lon="12.1567883"><ele>307.0</ele><time>2026-04-30T08:34:07.648Z</time></trkpt><trkpt lat="44.09642" lon="12.1569"><ele>306.0</ele><time>2026-04-30T08:34:08.648Z</time></trkpt><trkpt lat="44.09647" lon="12.1570033"><ele>305.0</ele><time>2026-04-30T08:34:09.64Z</time></trkpt><trkpt lat="44.0965467" lon="12.1570833"><ele>304.0</ele><time>2026-04-30T08:34:10.651Z</time></trkpt><trkpt lat="44.09665" lon="12.1571433"><ele>303.0</ele><time>2026-04-30T08:34:11.646Z</time></trkpt><trkpt lat="44.0967733" lon="12.157195"><ele>303.75</ele><time>2026-04-30T08:34:12.651Z</time></trkpt><trkpt lat="44.0968883" lon="12.1572617"><ele>304.5</ele><time>2026-04-30T08:34:13.647Z</time></trkpt><trkpt lat="44.097015" lon="12.1573333"><ele>305.25</ele><time>2026-04-30T08:34:14.64Z</time></trkpt><trkpt lat="44.0971417" lon="12.1574117"><ele>306.0</ele><time>2026-04-30T08:34:15.645Z</time></trkpt><trkpt lat="44.0972567" lon="12.1574967"><ele>306.0</ele><time>2026-04-30T08:34:16.643Z</time></trkpt><trkpt lat="44.09736" lon="12.1575883"><ele>306.0</ele><time>2026-04-30T08:34:17.642Z</time></trkpt><trkpt lat="44.0974517" lon="12.15769"><ele>306.0</ele><time>2026-04-30T08:34:18.64Z</time></trkpt><trkpt lat="44.0975233" lon="12.1578167"><ele>306.0</ele><time>2026-04-30T08:34:19.649Z</time></trkpt><trkpt lat="44.0975717" lon="12.15797"><ele>308.5</ele><time>2026-04-30T08:34:20.65Z</time></trkpt><trkpt lat="44.09759" lon="12.15814"><ele>311.0</ele><time>2026-04-30T08:34:21.652Z</time></trkpt><trkpt lat="44.0975717" lon="12.1583117"><ele>313.5</ele><time>2026-04-30T08:34:22.644Z</time></trkpt><trkpt lat="44.0975333" lon="12.1584767"><ele>316.0</ele><time>2026-04-30T08:34:23.642Z</time></trkpt><trkpt lat="44.097485" lon="12.1586433"><ele>316.0</ele><time>2026-04-30T08:34:24.639Z</time></trkpt><trkpt lat="44.0974417" lon="12.1588183"><ele>316.0</ele><time>2026-04-30T08:34:25.637Z</time></trkpt><trkpt lat="44.09742" lon="12.159005"><ele>316.0</ele><time>2026-04-30T08:34:26.645Z</time></trkpt><trkpt lat="44.097405" lon="12.1591883"><ele>316.0</ele><time>2026-04-30T08:34:27.648Z</time></trkpt><trkpt lat="44.0973917" lon="12.159365"><ele>310.40000000000003</ele><time>2026-04-30T08:34:28.647Z</time></trkpt><trkpt lat="44.09737" lon="12.1595267"><ele>304.8</ele><time>2026-04-30T08:34:29.646Z</time></trkpt><trkpt lat="44.09733" lon="12.15967"><ele>299.20000000000005</ele><time>2026-04-30T08:34:30.642Z</time></trkpt><trkpt lat="44.0972683" lon="12.1597817"><ele>293.6</ele><time>2026-04-30T08:34:31.646Z</time></trkpt><trkpt lat="44.09718" lon="12.1598567"><ele>288.0</ele><time>2026-04-30T08:34:32.647Z</time></trkpt><trkpt lat="44.0970767" lon="12.1599"><ele>288.0</ele><time>2026-04-30T08:34:33.647Z</time></trkpt><trkpt lat="44.0969717" lon="12.1599067"><ele>288.0</ele><time>2026-04-30T08:34:34.641Z</time></trkpt><trkpt lat="44.0968817" lon="12.1599083"><ele>288.0</ele><time>2026-04-30T08:34:35.646Z</time></trkpt><trkpt lat="44.0968" lon="12.1599217"><ele>288.0</ele><time>2026-04-30T08:34:36.646Z</time></trkpt><trkpt lat="44.0967283" lon="12.159955"><ele>288.0</ele><time>2026-04-30T08:34:37.647Z</time></trkpt><trkpt lat="44.0966767" lon="12.160015"><ele>288.0</ele><time>2026-04-30T08:34:38.66Z</time></trkpt><trkpt lat="44.096635" lon="12.160175"><ele>288.0</ele><time>2026-04-30T08:34:40.647Z</time></trkpt><trkpt lat="44.0966567" lon="12.1602817"><ele>288.0</ele><time>2026-04-30T08:34:41.641Z</time></trkpt><trkpt lat="44.0967" lon="12.160395"><ele>288.0</ele><time>2026-04-30T08:34:42.639Z</time></trkpt><trkpt lat="44.0967617" lon="12.1605017"><ele>288.0</ele><time>2026-04-30T08:34:43.642Z</time></trkpt><trkpt lat="44.0968217" lon="12.1606183"><ele>288.0</ele><time>2026-04-30T08:34:44.646Z</time></trkpt><trkpt lat="44.096875" lon="12.1607483"><ele>288.0</ele><time>2026-04-30T08:34:45.657Z</time></trkpt><trkpt lat="44.0969217" lon="12.16088"><ele>288.0</ele><time>2026-04-30T08:34:46.643Z</time></trkpt><trkpt lat="44.0969517" lon="12.1610133"><ele>288.0</ele><time>2026-04-30T08:34:47.649Z</time></trkpt><trkpt lat="44.0969633" lon="12.1611417"><ele>288.0</ele><time>2026-04-30T08:34:48.648Z</time></trkpt><trkpt lat="44.0969383" lon="12.1612667"><ele>288.0</ele><time>2026-04-30T08:34:49.648Z</time></trkpt><trkpt lat="44.0968967" lon="12.1613817"><ele>288.0</ele><time>2026-04-30T08:34:50.652Z</time></trkpt><trkpt lat="44.0968267" lon="12.161475"><ele>288.0</ele><time>2026-04-30T08:34:51.647Z</time></trkpt><trkpt lat="44.0967367" lon="12.1615533"><ele>288.0</ele><time>2026-04-30T08:34:52.65Z</time></trkpt><trkpt lat="44.09664" lon="12.16162"><ele>288.0</ele><time>2026-04-30T08:34:53.65Z</time></trkpt><trkpt lat="44.096555" lon="12.161685"><ele>288.0</ele><time>2026-04-30T08:34:54.65Z</time></trkpt><trkpt lat="44.096485" lon="12.1617567"><ele>284.0</ele><time>2026-04-30T08:34:55.65Z</time></trkpt><trkpt lat="44.096425" lon="12.1618183"><ele>280.0</ele><time>2026-04-30T08:34:56.65Z</time></trkpt><trkpt lat="44.0963783" lon="12.1618917"><ele>276.0</ele><time>2026-04-30T08:34:57.645Z</time></trkpt><trkpt lat="44.09641" lon="12.1620683"><ele>272.0</ele><time>2026-04-30T08:34:59.64Z</time></trkpt><trkpt lat="44.096475" lon="12.1621583"><ele>268.0</ele><time>2026-04-30T08:35:00.643Z</time></trkpt><trkpt lat="44.0965733" lon="12.16224"><ele>270.25</ele><time>2026-04-30T08:35:01.657Z</time></trkpt><trkpt lat="44.0967167" lon="12.1623417"><ele>272.5</ele><time>2026-04-30T08:35:02.647Z</time></trkpt><trkpt lat="44.096845" lon="12.1624417"><ele>274.75</ele><time>2026-04-30T08:35:03.645Z</time></trkpt><trkpt lat="44.0969533" lon="12.1625433"><ele>277.0</ele><time>2026-04-30T08:35:04.641Z</time></trkpt><trkpt lat="44.0970633" lon="12.1626383"><ele>277.0</ele><time>2026-04-30T08:35:05.651Z</time></trkpt><trkpt lat="44.0971667" lon="12.162725"><ele>277.0</ele><time>2026-04-30T08:35:06.645Z</time></trkpt><trkpt lat="44.0972533" lon="12.1628183"><ele>277.0</ele><time>2026-04-30T08:35:07.645Z</time></trkpt><trkpt lat="44.0973133" lon="12.1629283"><ele>277.0</ele><time>2026-04-30T08:35:08.643Z</time></trkpt><trkpt lat="44.097355" lon="12.1630433"><ele>277.0</ele><time>2026-04-30T08:35:09.645Z</time></trkpt><trkpt lat="44.0973633" lon="12.16317"><ele>274.4</ele><time>2026-04-30T08:35:10.643Z</time></trkpt><trkpt lat="44.0973467" lon="12.163295"><ele>271.79999999999995</ele><time>2026-04-30T08:35:11.649Z</time></trkpt><trkpt lat="44.0973117" lon="12.1634167"><ele>269.2</ele><time>2026-04-30T08:35:12.643Z</time></trkpt><trkpt lat="44.0972733" lon="12.16353"><ele>266.59999999999997</ele><time>2026-04-30T08:35:13.638Z</time></trkpt><trkpt lat="44.0972417" lon="12.16362"><ele>264.0</ele><time>2026-04-30T08:35:14.646Z</time></trkpt><trkpt lat="44.0971767" lon="12.1637317"><ele>264.0</ele><time>2026-04-30T08:35:16.646Z</time></trkpt><trkpt lat="44.0971183" lon="12.1637683"><ele>264.0</ele><time>2026-04-30T08:35:18.654Z</time></trkpt><trkpt lat="44.097065" lon="12.1637183"><ele>264.0</ele><time>2026-04-30T08:35:20.65Z</time></trkpt><trkpt lat="44.097045" lon="12.1635833"><ele>264.0</ele><time>2026-04-30T08:35:22.641Z</time></trkpt><trkpt lat="44.0970267" lon="12.1634917"><ele>264.0</ele><time>2026-04-30T08:35:23.645Z</time></trkpt><trkpt lat="44.0969933" lon="12.16339"><ele>264.0</ele><time>2026-04-30T08:35:24.644Z</time></trkpt><trkpt lat="44.0969533" lon="12.1632933"><ele>264.0</ele><time>2026-04-30T08:35:25.645Z</time></trkpt><trkpt lat="44.0969083" lon="12.1632083"><ele>264.0</ele><time>2026-04-30T08:35:26.646Z</time></trkpt><trkpt lat="44.096865" lon="12.1631283"><ele>264.0</ele><time>2026-04-30T08:35:27.643Z</time></trkpt><trkpt lat="44.0968133" lon="12.1630483"><ele>264.0</ele><time>2026-04-30T08:35:28.647Z</time></trkpt><trkpt lat="44.096755" lon="12.1629683"><ele>264.0</ele><time>2026-04-30T08:35:29.638Z</time></trkpt><trkpt lat="44.09669" lon="12.162885"><ele>264.0</ele><time>2026-04-30T08:35:30.643Z</time></trkpt><trkpt lat="44.096615" lon="12.1627967"><ele>262.59999999999997</ele><time>2026-04-30T08:35:31.645Z</time></trkpt><trkpt lat="44.0965317" lon="12.1627117"><ele>261.2</ele><time>2026-04-30T08:35:32.649Z</time></trkpt><trkpt lat="44.096445" lon="12.162635"><ele>259.79999999999995</ele><time>2026-04-30T08:35:33.658Z</time></trkpt><trkpt lat="44.0963517" lon="12.1625683"><ele>258.4</ele><time>2026-04-30T08:35:34.644Z</time></trkpt><trkpt lat="44.0962517" lon="12.16251"><ele>257.0</ele><time>2026-04-30T08:35:35.65Z</time></trkpt><trkpt lat="44.096145" lon="12.16245"><ele>257.0</ele><time>2026-04-30T08:35:36.643Z</time></trkpt><trkpt lat="44.0960383" lon="12.1623767"><ele>257.0</ele><time>2026-04-30T08:35:37.643Z</time></trkpt><trkpt lat="44.0959433" lon="12.162285"><ele>257.0</ele><time>2026-04-30T08:35:38.648Z</time></trkpt><trkpt lat="44.09587" lon="12.16218"><ele>257.0</ele><time>2026-04-30T08:35:39.647Z</time></trkpt><trkpt lat="44.0958" lon="12.1620717"><ele>257.0</ele><time>2026-04-30T08:35:40.645Z</time></trkpt><trkpt lat="44.0957217" lon="12.1619783"><ele>256.33333333333337</ele><time>2026-04-30T08:35:41.639Z</time></trkpt><trkpt lat="44.0956383" lon="12.161905"><ele>255.66666666666669</ele><time>2026-04-30T08:35:42.646Z</time></trkpt><trkpt lat="44.0955633" lon="12.16183"><ele>255.0</ele><time>2026-04-30T08:35:43.64Z</time></trkpt><trkpt lat="44.0955033" lon="12.161745"><ele>254.33333333333331</ele><time>2026-04-30T08:35:44.651Z</time></trkpt><trkpt lat="44.09547" lon="12.1616433"><ele>253.66666666666666</ele><time>2026-04-30T08:35:45.646Z</time></trkpt><trkpt lat="44.0954667" lon="12.1615383"><ele>253.0</ele><time>2026-04-30T08:35:46.643Z</time></trkpt><trkpt lat="44.0954917" lon="12.1614467"><ele>254.66666666666666</ele><time>2026-04-30T08:35:47.651Z</time></trkpt><trkpt lat="44.0955433" lon="12.1613833"><ele>256.3333333333333</ele><time>2026-04-30T08:35:48.65Z</time></trkpt><trkpt lat="44.0956133" lon="12.1613417"><ele>258.0</ele><time>2026-04-30T08:35:49.648Z</time></trkpt><trkpt lat="44.0957017" lon="12.1613183"><ele>259.6666666666667</ele><time>2026-04-30T08:35:50.648Z</time></trkpt><trkpt lat="44.0957967" lon="12.1612883"><ele>261.33333333333337</ele><time>2026-04-30T08:35:51.642Z</time></trkpt><trkpt lat="44.095885" lon="12.1612367"><ele>263.0</ele><time>2026-04-30T08:35:52.65Z</time></trkpt><trkpt lat="44.095955" lon="12.16115"><ele>263.0</ele><time>2026-04-30T08:35:53.644Z</time></trkpt><trkpt lat="44.096005" lon="12.1610567"><ele>263.0</ele><time>2026-04-30T08:35:54.647Z</time></trkpt><trkpt lat="44.0960367" lon="12.160945"><ele>263.0</ele><time>2026-04-30T08:35:55.648Z</time></trkpt><trkpt lat="44.09604" lon="12.1608067"><ele>263.0</ele><time>2026-04-30T08:35:56.647Z</time></trkpt><trkpt lat="44.0960133" lon="12.16066"><ele>263.0</ele><time>2026-04-30T08:35:57.655Z</time></trkpt><trkpt lat="44.0959783" lon="12.1605133"><ele>262.8</ele><time>2026-04-30T08:35:58.654Z</time></trkpt><trkpt lat="44.0959417" lon="12.1603733"><ele>262.6</ele><time>2026-04-30T08:35:59.647Z</time></trkpt><trkpt lat="44.0959167" lon="12.1602467"><ele>262.4</ele><time>2026-04-30T08:36:00.646Z</time></trkpt><trkpt lat="44.0959" lon="12.1601283"><ele>262.2</ele><time>2026-04-30T08:36:01.65Z</time></trkpt><trkpt lat="44.0959017" lon="12.1600017"><ele>262.0</ele><time>2026-04-30T08:36:02.644Z</time></trkpt><trkpt lat="44.0959217" lon="12.1598717"><ele>261.0</ele><time>2026-04-30T08:36:03.647Z</time></trkpt><trkpt lat="44.0959583" lon="12.15974"><ele>260.0</ele><time>2026-04-30T08:36:04.645Z</time></trkpt><trkpt lat="44.0960167" lon="12.1596083"><ele>259.0</ele><time>2026-04-30T08:36:05.645Z</time></trkpt><trkpt lat="44.09608" lon="12.15947"><ele>258.0</ele><time>2026-04-30T08:36:06.641Z</time></trkpt><trkpt lat="44.0961467" lon="12.1593383"><ele>257.0</ele><time>2026-04-30T08:36:07.639Z</time></trkpt><trkpt lat="44.0962217" lon="12.1592217"><ele>257.0</ele><time>2026-04-30T08:36:08.645Z</time></trkpt><trkpt lat="44.0962967" lon="12.1591083"><ele>257.0</ele><time>2026-04-30T08:36:09.654Z</time></trkpt><trkpt lat="44.096365" lon="12.158995"><ele>257.0</ele><time>2026-04-30T08:36:10.646Z</time></trkpt><trkpt lat="44.09643" lon="12.1588933"><ele>257.0</ele><time>2026-04-30T08:36:11.648Z</time></trkpt><trkpt lat="44.09649" lon="12.158795"><ele>257.0</ele><time>2026-04-30T08:36:12.649Z</time></trkpt><trkpt lat="44.096535" lon="12.1586933"><ele>258.8</ele><time>2026-04-30T08:36:13.648Z</time></trkpt><trkpt lat="44.0965383" lon="12.15859"><ele>260.6</ele><time>2026-04-30T08:36:14.648Z</time></trkpt><trkpt lat="44.0965033" lon="12.158475"><ele>262.40000000000003</ele><time>2026-04-30T08:36:15.651Z</time></trkpt><trkpt lat="44.0964433" lon="12.15837"><ele>264.2</ele><time>2026-04-30T08:36:16.641Z</time></trkpt><trkpt lat="44.096355" lon="12.1583017"><ele>266.0</ele><time>2026-04-30T08:36:17.643Z</time></trkpt><trkpt lat="44.0962367" lon="12.1582417"><ele>267.5</ele><time>2026-04-30T08:36:18.639Z</time></trkpt><trkpt lat="44.096115" lon="12.1581783"><ele>269.0</ele><time>2026-04-30T08:36:19.641Z</time></trkpt><trkpt lat="44.0959883" lon="12.1581183"><ele>270.5</ele><time>2026-04-30T08:36:20.658Z</time></trkpt><trkpt lat="44.0958633" lon="12.1580667"><ele>272.0</ele><time>2026-04-30T08:36:21.645Z</time></trkpt><trkpt lat="44.0957367" lon="12.15803"><ele>272.0</ele><time>2026-04-30T08:36:22.643Z</time></trkpt><trkpt lat="44.0956083" lon="12.158015"><ele>272.0</ele><time>2026-04-30T08:36:23.652Z</time></trkpt><trkpt lat="44.09548" lon="12.15803"><ele>272.0</ele><time>2026-04-30T08:36:24.65Z</time></trkpt><trkpt lat="44.0953567" lon="12.15806"><ele>272.0</ele><time>2026-04-30T08:36:25.639Z</time></trkpt><trkpt lat="44.0952417" lon="12.15808"><ele>272.0</ele><time>2026-04-30T08:36:26.646Z</time></trkpt><trkpt lat="44.0951367" lon="12.1580767"><ele>272.0</ele><time>2026-04-30T08:36:27.654Z</time></trkpt><trkpt lat="44.0950333" lon="12.1580467"><ele>272.0</ele><time>2026-04-30T08:36:28.644Z</time></trkpt><trkpt lat="44.0949483" lon="12.1579917"><ele>272.0</ele><time>2026-04-30T08:36:29.651Z</time></trkpt><trkpt lat="44.0948917" lon="12.157915"><ele>272.0</ele><time>2026-04-30T08:36:30.643Z</time></trkpt><trkpt lat="44.0948583" lon="12.15783"><ele>272.85714285714283</ele><time>2026-04-30T08:36:31.652Z</time></trkpt><trkpt lat="44.0948583" lon="12.1577283"><ele>273.7142857142857</ele><time>2026-04-30T08:36:32.651Z</time></trkpt><trkpt lat="44.0948783" lon="12.1576217"><ele>274.57142857142856</ele><time>2026-04-30T08:36:33.638Z</time></trkpt><trkpt lat="44.0948983" lon="12.15752"><ele>275.42857142857144</ele><time>2026-04-30T08:36:34.645Z</time></trkpt><trkpt lat="44.09491" lon="12.1574267"><ele>276.2857142857143</ele><time>2026-04-30T08:36:35.641Z</time></trkpt><trkpt lat="44.0949033" lon="12.157335"><ele>277.1428571428571</ele><time>2026-04-30T08:36:36.653Z</time></trkpt><trkpt lat="44.09488" lon="12.157245"><ele>278.0</ele><time>2026-04-30T08:36:37.64Z</time></trkpt><trkpt lat="44.094835" lon="12.1571817"><ele>278.0</ele><time>2026-04-30T08:36:38.65Z</time></trkpt><trkpt lat="44.0947767" lon="12.1571417"><ele>278.0</ele><time>2026-04-30T08:36:39.646Z</time></trkpt><trkpt lat="44.09471" lon="12.157145"><ele>278.0</ele><time>2026-04-30T08:36:40.652Z</time></trkpt><trkpt lat="44.0946433" lon="12.1571683"><ele>278.0</ele><time>2026-04-30T08:36:41.644Z</time></trkpt><trkpt lat="44.09457" lon="12.157265"><ele>278.0</ele><time>2026-04-30T08:36:42.648Z</time></trkpt><trkpt lat="44.094495" lon="12.1573533"><ele>278.0</ele><time>2026-04-30T08:36:43.64Z</time></trkpt><trkpt lat="44.0944217" lon="12.1574333"><ele>275.8</ele><time>2026-04-30T08:36:44.648Z</time></trkpt><trkpt lat="44.0943467" lon="12.1574917"><ele>273.6</ele><time>2026-04-30T08:36:45.649Z</time></trkpt><trkpt lat="44.0942683" lon="12.1575217"><ele>271.4</ele><time>2026-04-30T08:36:46.643Z</time></trkpt><trkpt lat="44.09418" lon="12.1575"><ele>269.2</ele><time>2026-04-30T08:36:47.644Z</time></trkpt><trkpt lat="44.0940833" lon="12.15745"><ele>267.0</ele><time>2026-04-30T08:36:48.647Z</time></trkpt><trkpt lat="44.0939867" lon="12.1573783"><ele>267.0</ele><time>2026-04-30T08:36:49.644Z</time></trkpt><trkpt lat="44.0938883" lon="12.1573317"><ele>267.0</ele><time>2026-04-30T08:36:50.649Z</time></trkpt><trkpt lat="44.0937967" lon="12.1573033"><ele>267.0</ele><time>2026-04-30T08:36:51.641Z</time></trkpt><trkpt lat="44.0937117" lon="12.1573083"><ele>267.0</ele><time>2026-04-30T08:36:52.645Z</time></trkpt><trkpt lat="44.09363" lon="12.1573667"><ele>267.0</ele><time>2026-04-30T08:36:53.644Z</time></trkpt><trkpt lat="44.0935583" lon="12.1574467"><ele>267.0</ele><time>2026-04-30T08:36:54.643Z</time></trkpt><trkpt lat="44.0935433" lon="12.1576033"><ele>267.0</ele><time>2026-04-30T08:36:55.639Z</time></trkpt><trkpt lat="44.0935317" lon="12.157765"><ele>267.0</ele><time>2026-04-30T08:36:56.638Z</time></trkpt><trkpt lat="44.0935117" lon="12.15794"><ele>267.0</ele><time>2026-04-30T08:36:57.65Z</time></trkpt><trkpt lat="44.0934917" lon="12.158115"><ele>266.0</ele><time>2026-04-30T08:36:58.647Z</time></trkpt><trkpt lat="44.0934583" lon="12.1582717"><ele>265.0</ele><time>2026-04-30T08:36:59.641Z</time></trkpt><trkpt lat="44.0934233" lon="12.1584183"><ele>264.0</ele><time>2026-04-30T08:37:00.655Z</time></trkpt><trkpt lat="44.0933833" lon="12.1585583"><ele>263.0</ele><time>2026-04-30T08:37:01.641Z</time></trkpt><trkpt lat="44.0933417" lon="12.1586967"><ele>262.0</ele><time>2026-04-30T08:37:02.653Z</time></trkpt><trkpt lat="44.0932983" lon="12.15884"><ele>259.5</ele><time>2026-04-30T08:37:03.644Z</time></trkpt><trkpt lat="44.09325" lon="12.1589833"><ele>257.0</ele><time>2026-04-30T08:37:04.648Z</time></trkpt><trkpt lat="44.093195" lon="12.1591233"><ele>254.5</ele><time>2026-04-30T08:37:05.645Z</time></trkpt><trkpt lat="44.0931283" lon="12.159265"><ele>252.0</ele><time>2026-04-30T08:37:06.641Z</time></trkpt><trkpt lat="44.09305" lon="12.1594067"><ele>252.0</ele><time>2026-04-30T08:37:07.645Z</time></trkpt><trkpt lat="44.0929683" lon="12.1595517"><ele>252.0</ele><time>2026-04-30T08:37:08.659Z</time></trkpt><trkpt lat="44.092875" lon="12.1596983"><ele>252.0</ele><time>2026-04-30T08:37:09.645Z</time></trkpt><trkpt lat="44.09277" lon="12.1598467"><ele>252.0</ele><time>2026-04-30T08:37:10.658Z</time></trkpt><trkpt lat="44.0926583" lon="12.15999"><ele>252.0</ele><time>2026-04-30T08:37:11.645Z</time></trkpt><trkpt lat="44.0925483" lon="12.160135"><ele>252.0</ele><time>2026-04-30T08:37:12.656Z</time></trkpt><trkpt lat="44.0924433" lon="12.16028"><ele>252.0</ele><time>2026-04-30T08:37:13.653Z</time></trkpt><trkpt lat="44.09234" lon="12.1604233"><ele>252.0</ele><time>2026-04-30T08:37:14.655Z</time></trkpt><trkpt lat="44.0922367" lon="12.16057"><ele>249.0</ele><time>2026-04-30T08:37:15.651Z</time></trkpt><trkpt lat="44.0921333" lon="12.1607217"><ele>246.0</ele><time>2026-04-30T08:37:16.645Z</time></trkpt><trkpt lat="44.092025" lon="12.1608733"><ele>243.0</ele><time>2026-04-30T08:37:17.643Z</time></trkpt><trkpt lat="44.0919117" lon="12.1610217"><ele>243.0</ele><time>2026-04-30T08:37:18.644Z</time></trkpt><trkpt lat="44.0917983" lon="12.1611717"><ele>243.0</ele><time>2026-04-30T08:37:19.646Z</time></trkpt><trkpt lat="44.0916817" lon="12.1613217"><ele>243.0</ele><time>2026-04-30T08:37:20.642Z</time></trkpt><trkpt lat="44.0915683" lon="12.1614717"><ele>242.66666666666669</ele><time>2026-04-30T08:37:21.654Z</time></trkpt><trkpt lat="44.0914617" lon="12.1616283"><ele>242.33333333333334</ele><time>2026-04-30T08:37:22.649Z</time></trkpt><trkpt lat="44.09135" lon="12.161785"><ele>242.0</ele><time>2026-04-30T08:37:23.645Z</time></trkpt><trkpt lat="44.0912383" lon="12.16194"><ele>242.0</ele><time>2026-04-30T08:37:24.642Z</time></trkpt><trkpt lat="44.091135" lon="12.1621"><ele>242.0</ele><time>2026-04-30T08:37:25.649Z</time></trkpt><trkpt lat="44.0910383" lon="12.1622617"><ele>242.0</ele><time>2026-04-30T08:37:26.65Z</time></trkpt><trkpt lat="44.0909483" lon="12.1624233"><ele>242.0</ele><time>2026-04-30T08:37:27.654Z</time></trkpt><trkpt lat="44.0908683" lon="12.16258"><ele>242.0</ele><time>2026-04-30T08:37:28.639Z</time></trkpt><trkpt lat="44.0907917" lon="12.162725"><ele>242.0</ele><time>2026-04-30T08:37:29.646Z</time></trkpt><trkpt lat="44.0907167" lon="12.16285"><ele>242.0</ele><time>2026-04-30T08:37:30.641Z</time></trkpt><trkpt lat="44.0906317" lon="12.1629533"><ele>242.5</ele><time>2026-04-30T08:37:31.65Z</time></trkpt><trkpt lat="44.090535" lon="12.163035"><ele>243.0</ele><time>2026-04-30T08:37:32.65Z</time></trkpt><trkpt lat="44.0904283" lon="12.16311"><ele>243.5</ele><time>2026-04-30T08:37:33.641Z</time></trkpt><trkpt lat="44.0903183" lon="12.1631967"><ele>244.0</ele><time>2026-04-30T08:37:34.638Z</time></trkpt><trkpt lat="44.0902067" lon="12.1633017"><ele>244.0</ele><time>2026-04-30T08:37:35.651Z</time></trkpt><trkpt lat="44.0900983" lon="12.163415"><ele>244.0</ele><time>2026-04-30T08:37:36.637Z</time></trkpt><trkpt lat="44.0899883" lon="12.163525"><ele>244.0</ele><time>2026-04-30T08:37:37.638Z</time></trkpt><trkpt lat="44.0898733" lon="12.16363"><ele>244.0</ele><time>2026-04-30T08:37:38.643Z</time></trkpt><trkpt lat="44.0897533" lon="12.163715"><ele>241.75</ele><time>2026-04-30T08:37:39.643Z</time></trkpt><trkpt lat="44.0896333" lon="12.1637833"><ele>239.5</ele><time>2026-04-30T08:37:40.64Z</time></trkpt><trkpt lat="44.0895083" lon="12.1638367"><ele>237.25</ele><time>2026-04-30T08:37:41.642Z</time></trkpt><trkpt lat="44.08939" lon="12.16388"><ele>235.0</ele><time>2026-04-30T08:37:42.639Z</time></trkpt><trkpt lat="44.0892783" lon="12.16392"><ele>235.0</ele><time>2026-04-30T08:37:43.639Z</time></trkpt><trkpt lat="44.0891733" lon="12.1639667"><ele>235.0</ele><time>2026-04-30T08:37:44.64Z</time></trkpt><trkpt lat="44.0890833" lon="12.1640233"><ele>235.0</ele><time>2026-04-30T08:37:45.647Z</time></trkpt><trkpt lat="44.0890133" lon="12.164105"><ele>235.0</ele><time>2026-04-30T08:37:46.639Z</time></trkpt><trkpt lat="44.088955" lon="12.1642267"><ele>235.0</ele><time>2026-04-30T08:37:47.649Z</time></trkpt><trkpt lat="44.0889" lon="12.1643733"><ele>229.25</ele><time>2026-04-30T08:37:48.648Z</time></trkpt><trkpt lat="44.0888517" lon="12.1645367"><ele>223.5</ele><time>2026-04-30T08:37:49.64Z</time></trkpt><trkpt lat="44.0888017" lon="12.1647133"><ele>217.75</ele><time>2026-04-30T08:37:50.641Z</time></trkpt><trkpt lat="44.08875" lon="12.164895"><ele>212.0</ele><time>2026-04-30T08:37:51.648Z</time></trkpt><trkpt lat="44.0886967" lon="12.1650683"><ele>212.0</ele><time>2026-04-30T08:37:52.652Z</time></trkpt><trkpt lat="44.0886333" lon="12.16524"><ele>212.0</ele><time>2026-04-30T08:37:53.641Z</time></trkpt><trkpt lat="44.0885567" lon="12.165405"><ele>212.0</ele><time>2026-04-30T08:37:54.642Z</time></trkpt><trkpt lat="44.088475" lon="12.1655633"><ele>212.0</ele><time>2026-04-30T08:37:55.639Z</time></trkpt><trkpt lat="44.08838" lon="12.1657133"><ele>212.2</ele><time>2026-04-30T08:37:56.64Z</time></trkpt><trkpt lat="44.08828" lon="12.16583"><ele>212.39999999999998</ele><time>2026-04-30T08:37:57.647Z</time></trkpt><trkpt lat="44.0881867" lon="12.16592"><ele>212.60000000000002</ele><time>2026-04-30T08:37:58.646Z</time></trkpt><trkpt lat="44.0881133" lon="12.1660167"><ele>212.8</ele><time>2026-04-30T08:37:59.646Z</time></trkpt><trkpt lat="44.088075" lon="12.1661183"><ele>213.0</ele><time>2026-04-30T08:38:00.647Z</time></trkpt><trkpt lat="44.0880633" lon="12.1662333"><ele>210.0</ele><time>2026-04-30T08:38:01.658Z</time></trkpt><trkpt lat="44.0880833" lon="12.1663533"><ele>207.0</ele><time>2026-04-30T08:38:02.641Z</time></trkpt><trkpt lat="44.0881367" lon="12.166475"><ele>204.0</ele><time>2026-04-30T08:38:03.648Z</time></trkpt><trkpt lat="44.0881833" lon="12.1666117"><ele>201.0</ele><time>2026-04-30T08:38:04.646Z</time></trkpt><trkpt lat="44.088215" lon="12.1667667"><ele>198.0</ele><time>2026-04-30T08:38:05.643Z</time></trkpt><trkpt lat="44.08824" lon="12.1669317"><ele>196.5</ele><time>2026-04-30T08:38:06.649Z</time></trkpt><trkpt lat="44.08825" lon="12.1670967"><ele>195.0</ele><time>2026-04-30T08:38:07.64Z</time></trkpt><trkpt lat="44.0882367" lon="12.1672633"><ele>193.5</ele><time>2026-04-30T08:38:08.648Z</time></trkpt><trkpt lat="44.0882033" lon="12.1674333"><ele>192.0</ele><time>2026-04-30T08:38:09.648Z</time></trkpt><trkpt lat="44.08816" lon="12.1676067"><ele>192.25</ele><time>2026-04-30T08:38:10.642Z</time></trkpt><trkpt lat="44.0881117" lon="12.1677767"><ele>192.5</ele><time>2026-04-30T08:38:11.641Z</time></trkpt><trkpt lat="44.08805" lon="12.1679383"><ele>192.75</ele><time>2026-04-30T08:38:12.65Z</time></trkpt><trkpt lat="44.0879717" lon="12.16809"><ele>193.0</ele><time>2026-04-30T08:38:13.647Z</time></trkpt><trkpt lat="44.08788" lon="12.16823"><ele>193.0</ele><time>2026-04-30T08:38:14.658Z</time></trkpt><trkpt lat="44.0877817" lon="12.1683567"><ele>193.0</ele><time>2026-04-30T08:38:15.648Z</time></trkpt><trkpt lat="44.0876833" lon="12.16849"><ele>193.0</ele><time>2026-04-30T08:38:16.644Z</time></trkpt><trkpt lat="44.087595" lon="12.1686283"><ele>193.0</ele><time>2026-04-30T08:38:17.645Z</time></trkpt><trkpt lat="44.0875117" lon="12.1687733"><ele>193.0</ele><time>2026-04-30T08:38:18.644Z</time></trkpt><trkpt lat="44.0874467" lon="12.1689317"><ele>193.0</ele><time>2026-04-30T08:38:19.642Z</time></trkpt><trkpt lat="44.0873983" lon="12.169105"><ele>193.0</ele><time>2026-04-30T08:38:20.642Z</time></trkpt><trkpt lat="44.0873683" lon="12.16929"><ele>193.0</ele><time>2026-04-30T08:38:21.642Z</time></trkpt><trkpt lat="44.08734" lon="12.1694783"><ele>186.25</ele><time>2026-04-30T08:38:22.651Z</time></trkpt><trkpt lat="44.087315" lon="12.1696633"><ele>179.5</ele><time>2026-04-30T08:38:23.642Z</time></trkpt><trkpt lat="44.08731" lon="12.16985"><ele>172.75</ele><time>2026-04-30T08:38:24.646Z</time></trkpt><trkpt lat="44.0873267" lon="12.1700367"><ele>166.0</ele><time>2026-04-30T08:38:25.646Z</time></trkpt><trkpt lat="44.08736" lon="12.170215"><ele>165.25</ele><time>2026-04-30T08:38:26.64Z</time></trkpt><trkpt lat="44.087395" lon="12.17039"><ele>164.5</ele><time>2026-04-30T08:38:27.644Z</time></trkpt><trkpt lat="44.0874167" lon="12.1705617"><ele>163.75</ele><time>2026-04-30T08:38:28.644Z</time></trkpt><trkpt lat="44.0874033" lon="12.1707317"><ele>163.0</ele><time>2026-04-30T08:38:29.644Z</time></trkpt><trkpt lat="44.08737" lon="12.1709017"><ele>163.0</ele><time>2026-04-30T08:38:30.642Z</time></trkpt><trkpt lat="44.0873183" lon="12.1710633"><ele>163.0</ele><time>2026-04-30T08:38:31.642Z</time></trkpt><trkpt lat="44.0872517" lon="12.1712067"><ele>163.0</ele><time>2026-04-30T08:38:32.651Z</time></trkpt><trkpt lat="44.08717" lon="12.171325"><ele>163.0</ele><time>2026-04-30T08:38:33.658Z</time></trkpt><trkpt lat="44.0870633" lon="12.171405"><ele>163.0</ele><time>2026-04-30T08:38:34.654Z</time></trkpt><trkpt lat="44.0869433" lon="12.1714583"><ele>163.0</ele><time>2026-04-30T08:38:35.646Z</time></trkpt><trkpt lat="44.0868217" lon="12.1715033"><ele>163.0</ele><time>2026-04-30T08:38:36.641Z</time></trkpt><trkpt lat="44.0867017" lon="12.1715567"><ele>163.0</ele><time>2026-04-30T08:38:37.642Z</time></trkpt><trkpt lat="44.0865917" lon="12.171625"><ele>159.5</ele><time>2026-04-30T08:38:38.65Z</time></trkpt><trkpt lat="44.0864867" lon="12.171715"><ele>156.0</ele><time>2026-04-30T08:38:39.646Z</time></trkpt><trkpt lat="44.08639" lon="12.1718117"><ele>152.5</ele><time>2026-04-30T08:38:40.643Z</time></trkpt><trkpt lat="44.0862917" lon="12.171895"><ele>149.0</ele><time>2026-04-30T08:38:41.659Z</time></trkpt><trkpt lat="44.0862" lon="12.171965"><ele>149.0</ele><time>2026-04-30T08:38:42.644Z</time></trkpt><trkpt lat="44.0861083" lon="12.17201"><ele>149.0</ele><time>2026-04-30T08:38:43.655Z</time></trkpt><trkpt lat="44.08602" lon="12.17203"><ele>149.0</ele><time>2026-04-30T08:38:44.641Z</time></trkpt><trkpt lat="44.08595" lon="12.17205"><ele>149.0</ele><time>2026-04-30T08:38:45.649Z</time></trkpt><trkpt lat="44.0858883" lon="12.1720867"><ele>149.0</ele><time>2026-04-30T08:38:46.643Z</time></trkpt><trkpt lat="44.085835" lon="12.1721383"><ele>149.0</ele><time>2026-04-30T08:38:47.646Z</time></trkpt><trkpt lat="44.0857983" lon="12.172225"><ele>149.0</ele><time>2026-04-30T08:38:48.645Z</time></trkpt><trkpt lat="44.085765" lon="12.17232"><ele>149.0</ele><time>2026-04-30T08:38:49.648Z</time></trkpt><trkpt lat="44.08574" lon="12.172415"><ele>149.0</ele><time>2026-04-30T08:38:50.652Z</time></trkpt><trkpt lat="44.0857233" lon="12.1725083"><ele>149.0</ele><time>2026-04-30T08:38:51.643Z</time></trkpt><trkpt lat="44.0857267" lon="12.172675"><ele>149.0</ele><time>2026-04-30T08:38:53.654Z</time></trkpt><trkpt lat="44.0857933" lon="12.1728317"><ele>150.42857142857142</ele><time>2026-04-30T08:38:55.649Z</time></trkpt><trkpt lat="44.08583" lon="12.17291"><ele>151.85714285714283</ele><time>2026-04-30T08:38:56.639Z</time></trkpt><trkpt lat="44.085865" lon="12.1729967"><ele>153.28571428571428</ele><time>2026-04-30T08:38:57.658Z</time></trkpt><trkpt lat="44.0858983" lon="12.1730917"><ele>154.71428571428572</ele><time>2026-04-30T08:38:58.647Z</time></trkpt><trkpt lat="44.0859267" lon="12.1731883"><ele>156.14285714285717</ele><time>2026-04-30T08:38:59.645Z</time></trkpt><trkpt lat="44.0859317" lon="12.1732917"><ele>157.57142857142856</ele><time>2026-04-30T08:39:00.64Z</time></trkpt><trkpt lat="44.0859117" lon="12.1733867"><ele>159.0</ele><time>2026-04-30T08:39:01.648Z</time></trkpt><trkpt lat="44.0858733" lon="12.17346"><ele>159.0</ele><time>2026-04-30T08:39:02.646Z</time></trkpt><trkpt lat="44.0857867" lon="12.1734917"><ele>159.0</ele><time>2026-04-30T08:39:04.645Z</time></trkpt><trkpt lat="44.08573" lon="12.1734033"><ele>159.0</ele><time>2026-04-30T08:39:07.641Z</time></trkpt><trkpt lat="44.0857117" lon="12.1732483"><ele>159.0</ele><time>2026-04-30T08:39:10.647Z</time></trkpt><trkpt lat="44.0857017" lon="12.17316"><ele>159.0</ele><time>2026-04-30T08:39:11.643Z</time></trkpt><trkpt lat="44.0856783" lon="12.1730633"><ele>159.0</ele><time>2026-04-30T08:39:12.644Z</time></trkpt><trkpt lat="44.0856517" lon="12.1729683"><ele>153.2</ele><time>2026-04-30T08:39:13.646Z</time></trkpt><trkpt lat="44.085615" lon="12.1728433"><ele>147.4</ele><time>2026-04-30T08:39:15.653Z</time></trkpt><trkpt lat="44.0856217" lon="12.1729833"><ele>141.6</ele><time>2026-04-30T08:39:20.645Z</time></trkpt><trkpt lat="44.0856667" lon="12.1731133"><ele>135.8</ele><time>2026-04-30T08:39:21.655Z</time></trkpt><trkpt lat="44.0856933" lon="12.1732283"><ele>130.0</ele><time>2026-04-30T08:39:22.643Z</time></trkpt><trkpt lat="44.08571" lon="12.1733283"><ele>130.0</ele><time>2026-04-30T08:39:23.644Z</time></trkpt><trkpt lat="44.085715" lon="12.17343"><ele>130.0</ele><time>2026-04-30T08:39:24.656Z</time></trkpt><trkpt lat="44.0856317" lon="12.17356"><ele>130.0</ele><time>2026-04-30T08:39:26.661Z</time></trkpt><trkpt lat="44.0855617" lon="12.173595"><ele>130.0</ele><time>2026-04-30T08:39:27.647Z</time></trkpt><trkpt lat="44.0854867" lon="12.1736367"><ele>130.0</ele><time>2026-04-30T08:39:28.643Z</time></trkpt><trkpt lat="44.08542" lon="12.17368"><ele>130.0</ele><time>2026-04-30T08:39:29.646Z</time></trkpt><trkpt lat="44.0853617" lon="12.17372"><ele>130.0</ele><time>2026-04-30T08:39:30.649Z</time></trkpt><trkpt lat="44.0852667" lon="12.173815"><ele>130.0</ele><time>2026-04-30T08:39:32.645Z</time></trkpt><trkpt lat="44.0851667" lon="12.17393"><ele>130.0</ele><time>2026-04-30T08:39:34.659Z</time></trkpt><trkpt lat="44.0851133" lon="12.174"><ele>130.0</ele><time>2026-04-30T08:39:35.646Z</time></trkpt><trkpt lat="44.0850567" lon="12.174075"><ele>130.0</ele><time>2026-04-30T08:39:36.648Z</time></trkpt><trkpt lat="44.084995" lon="12.1741533"><ele>131.6</ele><time>2026-04-30T08:39:37.654Z</time></trkpt><trkpt lat="44.08494" lon="12.1742417"><ele>133.2</ele><time>2026-04-30T08:39:38.647Z</time></trkpt><trkpt lat="44.08489" lon="12.174345"><ele>134.8</ele><time>2026-04-30T08:39:39.691Z</time></trkpt><trkpt lat="44.084845" lon="12.1744617"><ele>136.4</ele><time>2026-04-30T08:39:40.64Z</time></trkpt><trkpt lat="44.0848017" lon="12.1745917"><ele>138.0</ele><time>2026-04-30T08:39:41.651Z</time></trkpt><trkpt lat="44.08476" lon="12.1747367"><ele>131.25</ele><time>2026-04-30T08:39:42.64Z</time></trkpt><trkpt lat="44.08472" lon="12.1749017"><ele>124.5</ele><time>2026-04-30T08:39:43.645Z</time></trkpt><trkpt lat="44.08468" lon="12.1750767"><ele>117.75</ele><time>2026-04-30T08:39:44.653Z</time></trkpt><trkpt lat="44.08464" lon="12.1752417"><ele>111.0</ele><time>2026-04-30T08:39:45.649Z</time></trkpt><trkpt lat="44.084595" lon="12.175395"><ele>111.0</ele><time>2026-04-30T08:39:46.646Z</time></trkpt><trkpt lat="44.0845433" lon="12.17554"><ele>111.0</ele><time>2026-04-30T08:39:47.643Z</time></trkpt><trkpt lat="44.08448" lon="12.1756783"><ele>111.0</ele><time>2026-04-30T08:39:48.643Z</time></trkpt><trkpt lat="44.0844017" lon="12.1758117"><ele>111.0</ele><time>2026-04-30T08:39:49.644Z</time></trkpt><trkpt lat="44.0843183" lon="12.175935"><ele>113.75</ele><time>2026-04-30T08:39:50.653Z</time></trkpt><trkpt lat="44.0842317" lon="12.1760567"><ele>116.5</ele><time>2026-04-30T08:39:51.653Z</time></trkpt><trkpt lat="44.08415" lon="12.1761867"><ele>119.25</ele><time>2026-04-30T08:39:52.647Z</time></trkpt><trkpt lat="44.0840783" lon="12.1763267"><ele>122.0</ele><time>2026-04-30T08:39:53.65Z</time></trkpt><trkpt lat="44.0840017" lon="12.17647"><ele>118.5</ele><time>2026-04-30T08:39:54.652Z</time></trkpt><trkpt lat="44.0839333" lon="12.1766367"><ele>115.0</ele><time>2026-04-30T08:39:55.648Z</time></trkpt><trkpt lat="44.0838817" lon="12.1768167"><ele>111.5</ele><time>2026-04-30T08:39:56.644Z</time></trkpt><trkpt lat="44.0838283" lon="12.1769883"><ele>108.0</ele><time>2026-04-30T08:39:57.65Z</time></trkpt><trkpt lat="44.0837583" lon="12.1771583"><ele>108.0</ele><time>2026-04-30T08:39:58.647Z</time></trkpt><trkpt lat="44.0836633" lon="12.1773233"><ele>108.0</ele><time>2026-04-30T08:39:59.645Z</time></trkpt><trkpt lat="44.08355" lon="12.1774717"><ele>108.0</ele><time>2026-04-30T08:40:00.647Z</time></trkpt><trkpt lat="44.083425" lon="12.17761"><ele>109.0</ele><time>2026-04-30T08:40:01.647Z</time></trkpt><trkpt lat="44.0833017" lon="12.17775"><ele>110.0</ele><time>2026-04-30T08:40:02.642Z</time></trkpt><trkpt lat="44.0831967" lon="12.1779217"><ele>111.0</ele><time>2026-04-30T08:40:03.65Z</time></trkpt><trkpt lat="44.0831033" lon="12.178125"><ele>105.66666666666667</ele><time>2026-04-30T08:40:04.649Z</time></trkpt><trkpt lat="44.08302" lon="12.1783533"><ele>100.33333333333334</ele><time>2026-04-30T08:40:05.653Z</time></trkpt><trkpt lat="44.0829467" lon="12.1785917"><ele>95.0</ele><time>2026-04-30T08:40:06.641Z</time></trkpt><trkpt lat="44.0828783" lon="12.1788283"><ele>95.0</ele><time>2026-04-30T08:40:07.648Z</time></trkpt><trkpt lat="44.08282" lon="12.1790617"><ele>95.0</ele><time>2026-04-30T08:40:08.648Z</time></trkpt><trkpt lat="44.0827617" lon="12.179295"><ele>95.0</ele><time>2026-04-30T08:40:09.65Z</time></trkpt><trkpt lat="44.0827033" lon="12.1795233"><ele>95.0</ele><time>2026-04-30T08:40:10.656Z</time></trkpt><trkpt lat="44.082645" lon="12.17975"><ele>95.0</ele><time>2026-04-30T08:40:11.647Z</time></trkpt><trkpt lat="44.0825833" lon="12.1799767"><ele>95.0</ele><time>2026-04-30T08:40:12.646Z</time></trkpt><trkpt lat="44.08252" lon="12.1801983"><ele>93.0</ele><time>2026-04-30T08:40:13.642Z</time></trkpt><trkpt lat="44.0824483" lon="12.1804133"><ele>91.0</ele><time>2026-04-30T08:40:14.643Z</time></trkpt><trkpt lat="44.0823717" lon="12.180625"><ele>89.0</ele><time>2026-04-30T08:40:15.644Z</time></trkpt><trkpt lat="44.0822967" lon="12.18084"><ele>89.0</ele><time>2026-04-30T08:40:16.651Z</time></trkpt><trkpt lat="44.0822233" lon="12.1810583"><ele>89.0</ele><time>2026-04-30T08:40:17.646Z</time></trkpt><trkpt lat="44.0821483" lon="12.181275"><ele>89.0</ele><time>2026-04-30T08:40:18.654Z</time></trkpt><trkpt lat="44.0820683" lon="12.1814883"><ele>91.66666666666667</ele><time>2026-04-30T08:40:19.647Z</time></trkpt><trkpt lat="44.0819783" lon="12.181695"><ele>94.33333333333334</ele><time>2026-04-30T08:40:20.648Z</time></trkpt><trkpt lat="44.0818917" lon="12.1819"><ele>97.0</ele><time>2026-04-30T08:40:21.64Z</time></trkpt><trkpt lat="44.0818167" lon="12.18211"><ele>97.0</ele><time>2026-04-30T08:40:22.65Z</time></trkpt><trkpt lat="44.081755" lon="12.18233"><ele>97.0</ele><time>2026-04-30T08:40:23.643Z</time></trkpt><trkpt lat="44.081715" lon="12.1825583"><ele>97.0</ele><time>2026-04-30T08:40:24.646Z</time></trkpt><trkpt lat="44.081695" lon="12.1827883"><ele>99.66666666666667</ele><time>2026-04-30T08:40:25.649Z</time></trkpt><trkpt lat="44.0816833" lon="12.1830167"><ele>102.33333333333334</ele><time>2026-04-30T08:40:26.65Z</time></trkpt><trkpt lat="44.08168" lon="12.1832383"><ele>105.0</ele><time>2026-04-30T08:40:27.662Z</time></trkpt><trkpt lat="44.0816917" lon="12.1834533"><ele>105.0</ele><time>2026-04-30T08:40:28.643Z</time></trkpt><trkpt lat="44.0817183" lon="12.1836667"><ele>105.0</ele><time>2026-04-30T08:40:29.651Z</time></trkpt><trkpt lat="44.0817617" lon="12.18387"><ele>105.0</ele><time>2026-04-30T08:40:30.649Z</time></trkpt><trkpt lat="44.0818183" lon="12.1840617"><ele>105.0</ele><time>2026-04-30T08:40:31.639Z</time></trkpt><trkpt lat="44.0818817" lon="12.1842317"><ele>105.0</ele><time>2026-04-30T08:40:32.638Z</time></trkpt><trkpt lat="44.0819467" lon="12.1843883"><ele>105.0</ele><time>2026-04-30T08:40:33.645Z</time></trkpt><trkpt lat="44.08201" lon="12.184535"><ele>105.0</ele><time>2026-04-30T08:40:34.648Z</time></trkpt><trkpt lat="44.0820767" lon="12.1846717"><ele>105.0</ele><time>2026-04-30T08:40:35.643Z</time></trkpt><trkpt lat="44.0821367" lon="12.184805"><ele>105.0</ele><time>2026-04-30T08:40:36.657Z</time></trkpt><trkpt lat="44.0821917" lon="12.1849467"><ele>105.0</ele><time>2026-04-30T08:40:37.644Z</time></trkpt><trkpt lat="44.08224" lon="12.1850933"><ele>105.0</ele><time>2026-04-30T08:40:38.657Z</time></trkpt><trkpt lat="44.082285" lon="12.1852467"><ele>105.0</ele><time>2026-04-30T08:40:39.638Z</time></trkpt><trkpt lat="44.0823267" lon="12.185405"><ele>105.0</ele><time>2026-04-30T08:40:40.648Z</time></trkpt><trkpt lat="44.08237" lon="12.1855667"><ele>105.0</ele><time>2026-04-30T08:40:41.645Z</time></trkpt><trkpt lat="44.0824267" lon="12.1857267"><ele>105.0</ele><time>2026-04-30T08:40:42.64Z</time></trkpt><trkpt lat="44.0824933" lon="12.185875"><ele>105.0</ele><time>2026-04-30T08:40:43.647Z</time></trkpt><trkpt lat="44.0825817" lon="12.18601"><ele>105.0</ele><time>2026-04-30T08:40:44.648Z</time></trkpt><trkpt lat="44.082685" lon="12.18613"><ele>105.0</ele><time>2026-04-30T08:40:45.647Z</time></trkpt><trkpt lat="44.0828067" lon="12.1862283"><ele>105.0</ele><time>2026-04-30T08:40:46.645Z</time></trkpt><trkpt lat="44.0829367" lon="12.1863167"><ele>105.0</ele><time>2026-04-30T08:40:47.642Z</time></trkpt><trkpt lat="44.083065" lon="12.1864133"><ele>105.0</ele><time>2026-04-30T08:40:48.64Z</time></trkpt><trkpt lat="44.0831867" lon="12.1865133"><ele>105.0</ele><time>2026-04-30T08:40:49.643Z</time></trkpt><trkpt lat="44.0833083" lon="12.1865917"><ele>105.0</ele><time>2026-04-30T08:40:50.653Z</time></trkpt><trkpt lat="44.0834383" lon="12.186645"><ele>103.25</ele><time>2026-04-30T08:40:51.64Z</time></trkpt><trkpt lat="44.0835783" lon="12.186675"><ele>101.5</ele><time>2026-04-30T08:40:52.651Z</time></trkpt><trkpt lat="44.0837217" lon="12.186685"><ele>99.75</ele><time>2026-04-30T08:40:53.646Z</time></trkpt><trkpt lat="44.0838633" lon="12.1866883"><ele>98.0</ele><time>2026-04-30T08:40:54.641Z</time></trkpt><trkpt lat="44.084005" lon="12.1867083"><ele>98.25</ele><time>2026-04-30T08:40:55.645Z</time></trkpt><trkpt lat="44.0841467" lon="12.1867583"><ele>98.5</ele><time>2026-04-30T08:40:56.649Z</time></trkpt><trkpt lat="44.084285" lon="12.1868333"><ele>98.75</ele><time>2026-04-30T08:40:57.647Z</time></trkpt><trkpt lat="44.08442" lon="12.186925"><ele>99.0</ele><time>2026-04-30T08:40:58.645Z</time></trkpt><trkpt lat="44.08456" lon="12.1870117"><ele>99.0</ele><time>2026-04-30T08:40:59.643Z</time></trkpt><trkpt lat="44.084705" lon="12.1870967"><ele>99.0</ele><time>2026-04-30T08:41:00.642Z</time></trkpt><trkpt lat="44.0848633" lon="12.18717"><ele>99.0</ele><time>2026-04-30T08:41:01.653Z</time></trkpt><trkpt lat="44.0850233" lon="12.1872333"><ele>99.66666666666666</ele><time>2026-04-30T08:41:02.643Z</time></trkpt><trkpt lat="44.0851867" lon="12.187295"><ele>100.33333333333333</ele><time>2026-04-30T08:41:03.65Z</time></trkpt><trkpt lat="44.0853433" lon="12.1873617"><ele>101.0</ele><time>2026-04-30T08:41:04.639Z</time></trkpt><trkpt lat="44.0854983" lon="12.187425"><ele>98.5</ele><time>2026-04-30T08:41:05.651Z</time></trkpt><trkpt lat="44.0856417" lon="12.1874833"><ele>96.0</ele><time>2026-04-30T08:41:06.649Z</time></trkpt><trkpt lat="44.08577" lon="12.18754"><ele>93.5</ele><time>2026-04-30T08:41:07.649Z</time></trkpt><trkpt lat="44.0858717" lon="12.1876133"><ele>91.0</ele><time>2026-04-30T08:41:08.643Z</time></trkpt><trkpt lat="44.0859433" lon="12.1877067"><ele>91.0</ele><time>2026-04-30T08:41:09.644Z</time></trkpt><trkpt lat="44.085985" lon="12.1878233"><ele>91.0</ele><time>2026-04-30T08:41:10.64Z</time></trkpt><trkpt lat="44.0859983" lon="12.1879617"><ele>91.0</ele><time>2026-04-30T08:41:11.65Z</time></trkpt><trkpt lat="44.0859817" lon="12.18812"><ele>91.0</ele><time>2026-04-30T08:41:12.647Z</time></trkpt><trkpt lat="44.0859383" lon="12.1882917"><ele>91.0</ele><time>2026-04-30T08:41:13.641Z</time></trkpt><trkpt lat="44.0858867" lon="12.1884667"><ele>89.75</ele><time>2026-04-30T08:41:14.641Z</time></trkpt><trkpt lat="44.0858333" lon="12.1886417"><ele>88.5</ele><time>2026-04-30T08:41:15.645Z</time></trkpt><trkpt lat="44.0857783" lon="12.1888067"><ele>87.25</ele><time>2026-04-30T08:41:16.645Z</time></trkpt><trkpt lat="44.085735" lon="12.1889717"><ele>86.0</ele><time>2026-04-30T08:41:17.643Z</time></trkpt><trkpt lat="44.0857" lon="12.1891317"><ele>84.39999999999999</ele><time>2026-04-30T08:41:18.651Z</time></trkpt><trkpt lat="44.0856683" lon="12.18928"><ele>82.8</ele><time>2026-04-30T08:41:19.645Z</time></trkpt><trkpt lat="44.0856367" lon="12.1894167"><ele>81.19999999999999</ele><time>2026-04-30T08:41:20.645Z</time></trkpt><trkpt lat="44.085595" lon="12.1895317"><ele>79.6</ele><time>2026-04-30T08:41:21.651Z</time></trkpt><trkpt lat="44.0855533" lon="12.1896217"><ele>78.0</ele><time>2026-04-30T08:41:22.644Z</time></trkpt><trkpt lat="44.08551" lon="12.189695"><ele>78.0</ele><time>2026-04-30T08:41:23.644Z</time></trkpt><trkpt lat="44.0854183" lon="12.18976"><ele>78.0</ele><time>2026-04-30T08:41:25.647Z</time></trkpt><trkpt lat="44.085315" lon="12.1896933"><ele>78.0</ele><time>2026-04-30T08:41:27.646Z</time></trkpt><trkpt lat="44.0852433" lon="12.18964"><ele>78.0</ele><time>2026-04-30T08:41:28.64Z</time></trkpt><trkpt lat="44.085165" lon="12.18959"><ele>78.0</ele><time>2026-04-30T08:41:29.639Z</time></trkpt><trkpt lat="44.08508" lon="12.1895367"><ele>78.0</ele><time>2026-04-30T08:41:30.642Z</time></trkpt><trkpt lat="44.08499" lon="12.18949"><ele>78.0</ele><time>2026-04-30T08:41:31.643Z</time></trkpt><trkpt lat="44.0848933" lon="12.1894517"><ele>78.0</ele><time>2026-04-30T08:41:32.637Z</time></trkpt><trkpt lat="44.08479" lon="12.189415"><ele>78.0</ele><time>2026-04-30T08:41:33.645Z</time></trkpt><trkpt lat="44.0846767" lon="12.189375"><ele>78.0</ele><time>2026-04-30T08:41:34.65Z</time></trkpt><trkpt lat="44.0845617" lon="12.18934"><ele>77.75</ele><time>2026-04-30T08:41:35.647Z</time></trkpt><trkpt lat="44.0844467" lon="12.18931"><ele>77.5</ele><time>2026-04-30T08:41:36.638Z</time></trkpt><trkpt lat="44.0843317" lon="12.1892833"><ele>77.25</ele><time>2026-04-30T08:41:37.642Z</time></trkpt><trkpt lat="44.0842133" lon="12.189255"><ele>77.0</ele><time>2026-04-30T08:41:38.648Z</time></trkpt><trkpt lat="44.08409" lon="12.1892217"><ele>76.5</ele><time>2026-04-30T08:41:39.656Z</time></trkpt><trkpt lat="44.083965" lon="12.1891867"><ele>76.0</ele><time>2026-04-30T08:41:40.641Z</time></trkpt><trkpt lat="44.0838333" lon="12.1891417"><ele>75.5</ele><time>2026-04-30T08:41:41.646Z</time></trkpt><trkpt lat="44.0836983" lon="12.1890917"><ele>75.0</ele><time>2026-04-30T08:41:42.648Z</time></trkpt><trkpt lat="44.0835583" lon="12.1890383"><ele>75.5</ele><time>2026-04-30T08:41:43.643Z</time></trkpt><trkpt lat="44.083415" lon="12.188985"><ele>76.0</ele><time>2026-04-30T08:41:44.643Z</time></trkpt><trkpt lat="44.08327" lon="12.1889317"><ele>76.5</ele><time>2026-04-30T08:41:45.651Z</time></trkpt><trkpt lat="44.083125" lon="12.1888867"><ele>77.0</ele><time>2026-04-30T08:41:46.649Z</time></trkpt><trkpt lat="44.0829767" lon="12.1888633"><ele>73.66666666666667</ele><time>2026-04-30T08:41:47.647Z</time></trkpt><trkpt lat="44.0828267" lon="12.1888683"><ele>70.33333333333333</ele><time>2026-04-30T08:41:48.642Z</time></trkpt><trkpt lat="44.0826767" lon="12.1888833"><ele>67.0</ele><time>2026-04-30T08:41:49.644Z</time></trkpt><trkpt lat="44.0825233" lon="12.1888967"><ele>68.0</ele><time>2026-04-30T08:41:50.646Z</time></trkpt><trkpt lat="44.0823617" lon="12.1889"><ele>69.0</ele><time>2026-04-30T08:41:51.647Z</time></trkpt><trkpt lat="44.0821983" lon="12.1888917"><ele>70.0</ele><time>2026-04-30T08:41:52.647Z</time></trkpt><trkpt lat="44.0820383" lon="12.1888667"><ele>70.0</ele><time>2026-04-30T08:41:53.643Z</time></trkpt><trkpt lat="44.0818867" lon="12.18882"><ele>70.0</ele><time>2026-04-30T08:41:54.648Z</time></trkpt><trkpt lat="44.0817367" lon="12.1887467"><ele>70.0</ele><time>2026-04-30T08:41:55.647Z</time></trkpt><trkpt lat="44.0815783" lon="12.188675"><ele>73.0</ele><time>2026-04-30T08:41:56.644Z</time></trkpt><trkpt lat="44.0814067" lon="12.188645"><ele>76.0</ele><time>2026-04-30T08:41:57.655Z</time></trkpt><trkpt lat="44.0812283" lon="12.18867"><ele>79.0</ele><time>2026-04-30T08:41:58.643Z</time></trkpt><trkpt lat="44.0810567" lon="12.18873"><ele>79.0</ele><time>2026-04-30T08:41:59.646Z</time></trkpt><trkpt lat="44.0808917" lon="12.1887917"><ele>79.0</ele><time>2026-04-30T08:42:00.641Z</time></trkpt><trkpt lat="44.0807367" lon="12.1888433"><ele>79.0</ele><time>2026-04-30T08:42:01.643Z</time></trkpt><trkpt lat="44.08059" lon="12.1888933"><ele>79.66666666666666</ele><time>2026-04-30T08:42:02.655Z</time></trkpt><trkpt lat="44.0804417" lon="12.18894"><ele>80.33333333333333</ele><time>2026-04-30T08:42:03.645Z</time></trkpt><trkpt lat="44.08029" lon="12.1889767"><ele>81.0</ele><time>2026-04-30T08:42:04.642Z</time></trkpt><trkpt lat="44.080135" lon="12.1890117"><ele>79.0</ele><time>2026-04-30T08:42:05.642Z</time></trkpt><trkpt lat="44.0799783" lon="12.18904"><ele>77.0</ele><time>2026-04-30T08:42:06.643Z</time></trkpt><trkpt lat="44.0798183" lon="12.18905"><ele>75.0</ele><time>2026-04-30T08:42:07.644Z</time></trkpt><trkpt lat="44.0796583" lon="12.1890367"><ele>77.0</ele><time>2026-04-30T08:42:08.643Z</time></trkpt><trkpt lat="44.0795017" lon="12.1889983"><ele>79.0</ele><time>2026-04-30T08:42:09.651Z</time></trkpt><trkpt lat="44.0793483" lon="12.1889333"><ele>81.0</ele><time>2026-04-30T08:42:10.646Z</time></trkpt><trkpt lat="44.0792" lon="12.18885"><ele>79.66666666666667</ele><time>2026-04-30T08:42:11.643Z</time></trkpt><trkpt lat="44.0790517" lon="12.1887567"><ele>78.33333333333334</ele><time>2026-04-30T08:42:12.647Z</time></trkpt><trkpt lat="44.0789033" lon="12.18866"><ele>77.0</ele><time>2026-04-30T08:42:13.642Z</time></trkpt><trkpt lat="44.0787517" lon="12.188565"><ele>77.0</ele><time>2026-04-30T08:42:14.643Z</time></trkpt><trkpt lat="44.078605" lon="12.1884667"><ele>77.0</ele><time>2026-04-30T08:42:15.645Z</time></trkpt><trkpt lat="44.0784633" lon="12.1883667"><ele>77.0</ele><time>2026-04-30T08:42:16.653Z</time></trkpt><trkpt lat="44.0783183" lon="12.188275"><ele>76.66666666666667</ele><time>2026-04-30T08:42:17.64Z</time></trkpt><trkpt lat="44.0781733" lon="12.18819"><ele>76.33333333333333</ele><time>2026-04-30T08:42:18.64Z</time></trkpt><trkpt lat="44.0780317" lon="12.1881067"><ele>76.0</ele><time>2026-04-30T08:42:19.642Z</time></trkpt><trkpt lat="44.0778917" lon="12.188025"><ele>78.0</ele><time>2026-04-30T08:42:20.643Z</time></trkpt><trkpt lat="44.0777517" lon="12.1879433"><ele>80.0</ele><time>2026-04-30T08:42:21.657Z</time></trkpt><trkpt lat="44.0776133" lon="12.1878567"><ele>82.0</ele><time>2026-04-30T08:42:22.642Z</time></trkpt><trkpt lat="44.0774783" lon="12.187765"><ele>80.0</ele><time>2026-04-30T08:42:23.651Z</time></trkpt><trkpt lat="44.0773433" lon="12.1876717"><ele>78.0</ele><time>2026-04-30T08:42:24.647Z</time></trkpt><trkpt lat="44.07721" lon="12.187575"><ele>76.0</ele><time>2026-04-30T08:42:25.644Z</time></trkpt><trkpt lat="44.0770733" lon="12.1874833"><ele>76.0</ele><time>2026-04-30T08:42:26.645Z</time></trkpt><trkpt lat="44.0769383" lon="12.1873867"><ele>76.0</ele><time>2026-04-30T08:42:27.645Z</time></trkpt><trkpt lat="44.0768" lon="12.18729"><ele>76.0</ele><time>2026-04-30T08:42:28.646Z</time></trkpt><trkpt lat="44.0766583" lon="12.187195"><ele>77.0</ele><time>2026-04-30T08:42:29.647Z</time></trkpt><trkpt lat="44.0765117" lon="12.1871"><ele>78.0</ele><time>2026-04-30T08:42:30.643Z</time></trkpt><trkpt lat="44.0763633" lon="12.1870033"><ele>79.0</ele><time>2026-04-30T08:42:31.642Z</time></trkpt><trkpt lat="44.0762117" lon="12.186905"><ele>79.0</ele><time>2026-04-30T08:42:32.649Z</time></trkpt><trkpt lat="44.07606" lon="12.186805"><ele>79.0</ele><time>2026-04-30T08:42:33.647Z</time></trkpt><trkpt lat="44.0759083" lon="12.18671"><ele>79.0</ele><time>2026-04-30T08:42:34.643Z</time></trkpt><trkpt lat="44.0757533" lon="12.1866133"><ele>80.0</ele><time>2026-04-30T08:42:35.652Z</time></trkpt><trkpt lat="44.0755933" lon="12.186515"><ele>81.0</ele><time>2026-04-30T08:42:36.641Z</time></trkpt><trkpt lat="44.0754333" lon="12.186415"><ele>82.0</ele><time>2026-04-30T08:42:37.645Z</time></trkpt><trkpt lat="44.075275" lon="12.186315"><ele>81.66666666666666</ele><time>2026-04-30T08:42:38.64Z</time></trkpt><trkpt lat="44.075115" lon="12.1862083"><ele>81.33333333333333</ele><time>2026-04-30T08:42:39.642Z</time></trkpt><trkpt lat="44.0749567" lon="12.1860983"><ele>81.0</ele><time>2026-04-30T08:42:40.641Z</time></trkpt><trkpt lat="44.0747983" lon="12.1859783"><ele>81.0</ele><time>2026-04-30T08:42:41.644Z</time></trkpt><trkpt lat="44.0746383" lon="12.1858533"><ele>81.0</ele><time>2026-04-30T08:42:42.643Z</time></trkpt><trkpt lat="44.0744817" lon="12.1857267"><ele>81.0</ele><time>2026-04-30T08:42:43.645Z</time></trkpt><trkpt lat="44.074325" lon="12.1856017"><ele>82.33333333333333</ele><time>2026-04-30T08:42:44.637Z</time></trkpt><trkpt lat="44.0741733" lon="12.1854767"><ele>83.66666666666666</ele><time>2026-04-30T08:42:45.644Z</time></trkpt><trkpt lat="44.0740183" lon="12.185365"><ele>85.0</ele><time>2026-04-30T08:42:46.646Z</time></trkpt><trkpt lat="44.0738567" lon="12.1852667"><ele>85.0</ele><time>2026-04-30T08:42:47.645Z</time></trkpt><trkpt lat="44.073695" lon="12.1851767"><ele>85.0</ele><time>2026-04-30T08:42:48.645Z</time></trkpt><trkpt lat="44.073525" lon="12.185095"><ele>85.0</ele><time>2026-04-30T08:42:49.649Z</time></trkpt><trkpt lat="44.0733533" lon="12.18502"><ele>84.0</ele><time>2026-04-30T08:42:50.646Z</time></trkpt><trkpt lat="44.07318" lon="12.1849433"><ele>83.0</ele><time>2026-04-30T08:42:51.655Z</time></trkpt><trkpt lat="44.0730083" lon="12.1848583"><ele>82.0</ele><time>2026-04-30T08:42:52.651Z</time></trkpt><trkpt lat="44.0728367" lon="12.1847717"><ele>84.33333333333333</ele><time>2026-04-30T08:42:53.647Z</time></trkpt><trkpt lat="44.0726633" lon="12.1846833"><ele>86.66666666666667</ele><time>2026-04-30T08:42:54.645Z</time></trkpt><trkpt lat="44.0724883" lon="12.1846"><ele>89.0</ele><time>2026-04-30T08:42:55.651Z</time></trkpt><trkpt lat="44.0723083" lon="12.184515"><ele>89.0</ele><time>2026-04-30T08:42:56.642Z</time></trkpt><trkpt lat="44.0721267" lon="12.1844367"><ele>89.0</ele><time>2026-04-30T08:42:57.66Z</time></trkpt><trkpt lat="44.0719383" lon="12.1843733"><ele>89.0</ele><time>2026-04-30T08:42:58.652Z</time></trkpt><trkpt lat="44.0717467" lon="12.1843283"><ele>88.33333333333334</ele><time>2026-04-30T08:42:59.646Z</time></trkpt><trkpt lat="44.0715533" lon="12.1842883"><ele>87.66666666666667</ele><time>2026-04-30T08:43:00.643Z</time></trkpt><trkpt lat="44.0713633" lon="12.18425"><ele>87.0</ele><time>2026-04-30T08:43:01.643Z</time></trkpt><trkpt lat="44.071175" lon="12.1842083"><ele>87.0</ele><time>2026-04-30T08:43:02.648Z</time></trkpt><trkpt lat="44.070985" lon="12.1841683"><ele>87.0</ele><time>2026-04-30T08:43:03.643Z</time></trkpt><trkpt lat="44.0707967" lon="12.18413"><ele>87.0</ele><time>2026-04-30T08:43:04.646Z</time></trkpt><trkpt lat="44.0706083" lon="12.1840917"><ele>88.33333333333333</ele><time>2026-04-30T08:43:05.642Z</time></trkpt><trkpt lat="44.0704233" lon="12.1840517"><ele>89.66666666666666</ele><time>2026-04-30T08:43:06.648Z</time></trkpt><trkpt lat="44.07024" lon="12.1840083"><ele>91.0</ele><time>2026-04-30T08:43:07.65Z</time></trkpt><trkpt lat="44.070055" lon="12.1839667"><ele>90.33333333333333</ele><time>2026-04-30T08:43:08.649Z</time></trkpt><trkpt lat="44.0698767" lon="12.1839267"><ele>89.66666666666667</ele><time>2026-04-30T08:43:09.648Z</time></trkpt><trkpt lat="44.0697067" lon="12.1838883"><ele>89.0</ele><time>2026-04-30T08:43:10.647Z</time></trkpt><trkpt lat="44.06954" lon="12.1838533"><ele>89.0</ele><time>2026-04-30T08:43:11.646Z</time></trkpt><trkpt lat="44.069365" lon="12.1838533"><ele>89.0</ele><time>2026-04-30T08:43:12.643Z</time></trkpt><trkpt lat="44.06919" lon="12.1839017"><ele>89.0</ele><time>2026-04-30T08:43:13.647Z</time></trkpt><trkpt lat="44.0690233" lon="12.18397"><ele>89.0</ele><time>2026-04-30T08:43:14.652Z</time></trkpt><trkpt lat="44.068865" lon="12.1840433"><ele>89.0</ele><time>2026-04-30T08:43:15.648Z</time></trkpt><trkpt lat="44.0687167" lon="12.1841167"><ele>89.0</ele><time>2026-04-30T08:43:16.653Z</time></trkpt><trkpt lat="44.0685783" lon="12.18418"><ele>89.0</ele><time>2026-04-30T08:43:17.641Z</time></trkpt><trkpt lat="44.0684483" lon="12.1842267"><ele>89.0</ele><time>2026-04-30T08:43:18.651Z</time></trkpt><trkpt lat="44.0683283" lon="12.18425"><ele>89.0</ele><time>2026-04-30T08:43:19.64Z</time></trkpt><trkpt lat="44.068215" lon="12.1842567"><ele>89.0</ele><time>2026-04-30T08:43:20.643Z</time></trkpt><trkpt lat="44.0681067" lon="12.1842417"><ele>89.0</ele><time>2026-04-30T08:43:21.648Z</time></trkpt><trkpt lat="44.0680033" lon="12.1842"><ele>89.0</ele><time>2026-04-30T08:43:22.646Z</time></trkpt><trkpt lat="44.0679067" lon="12.1841417"><ele>89.0</ele><time>2026-04-30T08:43:23.648Z</time></trkpt><trkpt lat="44.06781" lon="12.184075"><ele>89.0</ele><time>2026-04-30T08:43:24.644Z</time></trkpt><trkpt lat="44.06772" lon="12.184005"><ele>89.0</ele><time>2026-04-30T08:43:25.642Z</time></trkpt><trkpt lat="44.067625" lon="12.1839367"><ele>88.80000000000001</ele><time>2026-04-30T08:43:26.644Z</time></trkpt><trkpt lat="44.06753" lon="12.1838667"><ele>88.60000000000001</ele><time>2026-04-30T08:43:27.642Z</time></trkpt><trkpt lat="44.067435" lon="12.1837917"><ele>88.4</ele><time>2026-04-30T08:43:28.645Z</time></trkpt><trkpt lat="44.0673367" lon="12.183715"><ele>88.2</ele><time>2026-04-30T08:43:29.643Z</time></trkpt><trkpt lat="44.0672367" lon="12.1836383"><ele>88.0</ele><time>2026-04-30T08:43:30.644Z</time></trkpt><trkpt lat="44.067135" lon="12.1835633"><ele>88.0</ele><time>2026-04-30T08:43:31.642Z</time></trkpt><trkpt lat="44.0670317" lon="12.1834867"><ele>88.0</ele><time>2026-04-30T08:43:32.643Z</time></trkpt><trkpt lat="44.066925" lon="12.183405"><ele>88.0</ele><time>2026-04-30T08:43:33.651Z</time></trkpt><trkpt lat="44.066815" lon="12.1833133"><ele>88.0</ele><time>2026-04-30T08:43:34.641Z</time></trkpt><trkpt lat="44.0667033" lon="12.1832133"><ele>86.5</ele><time>2026-04-30T08:43:35.649Z</time></trkpt><trkpt lat="44.0665883" lon="12.183105"><ele>85.0</ele><time>2026-04-30T08:43:36.643Z</time></trkpt><trkpt lat="44.0664767" lon="12.1829817"><ele>83.5</ele><time>2026-04-30T08:43:37.643Z</time></trkpt><trkpt lat="44.0663717" lon="12.1828467"><ele>82.0</ele><time>2026-04-30T08:43:38.651Z</time></trkpt><trkpt lat="44.0662717" lon="12.1827"><ele>82.0</ele><time>2026-04-30T08:43:39.643Z</time></trkpt><trkpt lat="44.0661783" lon="12.182545"><ele>82.0</ele><time>2026-04-30T08:43:40.641Z</time></trkpt><trkpt lat="44.0660917" lon="12.1823883"><ele>82.0</ele><time>2026-04-30T08:43:41.643Z</time></trkpt><trkpt lat="44.06601" lon="12.182235"><ele>82.0</ele><time>2026-04-30T08:43:42.65Z</time></trkpt><trkpt lat="44.065925" lon="12.1821"><ele>82.5</ele><time>2026-04-30T08:43:43.64Z</time></trkpt><trkpt lat="44.0658317" lon="12.1819867"><ele>83.0</ele><time>2026-04-30T08:43:44.641Z</time></trkpt><trkpt lat="44.0657267" lon="12.1819167"><ele>83.5</ele><time>2026-04-30T08:43:45.644Z</time></trkpt><trkpt lat="44.0656083" lon="12.1819017"><ele>84.0</ele><time>2026-04-30T08:43:46.642Z</time></trkpt><trkpt lat="44.0654833" lon="12.1819333"><ele>84.0</ele><time>2026-04-30T08:43:47.645Z</time></trkpt><trkpt lat="44.06537" lon="12.18202"><ele>84.0</ele><time>2026-04-30T08:43:48.65Z</time></trkpt><trkpt lat="44.065265" lon="12.18213"><ele>84.0</ele><time>2026-04-30T08:43:49.647Z</time></trkpt><trkpt lat="44.06516" lon="12.182245"><ele>84.0</ele><time>2026-04-30T08:43:50.639Z</time></trkpt><trkpt lat="44.06506" lon="12.1823733"><ele>84.0</ele><time>2026-04-30T08:43:51.656Z</time></trkpt><trkpt lat="44.064975" lon="12.18252"><ele>84.0</ele><time>2026-04-30T08:43:52.643Z</time></trkpt><trkpt lat="44.06489" lon="12.1826617"><ele>84.0</ele><time>2026-04-30T08:43:53.648Z</time></trkpt><trkpt lat="44.0647983" lon="12.182785"><ele>84.0</ele><time>2026-04-30T08:43:54.639Z</time></trkpt><trkpt lat="44.0646967" lon="12.1828817"><ele>85.5</ele><time>2026-04-30T08:43:55.64Z</time></trkpt><trkpt lat="44.0645783" lon="12.1829317"><ele>87.0</ele><time>2026-04-30T08:43:56.64Z</time></trkpt><trkpt lat="44.06444" lon="12.18294"><ele>88.5</ele><time>2026-04-30T08:43:57.648Z</time></trkpt><trkpt lat="44.0642917" lon="12.1829083"><ele>90.0</ele><time>2026-04-30T08:43:58.646Z</time></trkpt><trkpt lat="44.0641467" lon="12.1828517"><ele>90.0</ele><time>2026-04-30T08:43:59.644Z</time></trkpt><trkpt lat="44.0640083" lon="12.1827917"><ele>90.0</ele><time>2026-04-30T08:44:00.643Z</time></trkpt><trkpt lat="44.0638733" lon="12.1827283"><ele>90.0</ele><time>2026-04-30T08:44:01.65Z</time></trkpt><trkpt lat="44.0637433" lon="12.182665"><ele>90.0</ele><time>2026-04-30T08:44:02.643Z</time></trkpt><trkpt lat="44.0636133" lon="12.1826067"><ele>90.0</ele><time>2026-04-30T08:44:03.644Z</time></trkpt><trkpt lat="44.0634833" lon="12.1825467"><ele>90.0</ele><time>2026-04-30T08:44:04.638Z</time></trkpt><trkpt lat="44.063355" lon="12.1824817"><ele>90.0</ele><time>2026-04-30T08:44:05.645Z</time></trkpt><trkpt lat="44.0632333" lon="12.1824067"><ele>90.0</ele><time>2026-04-30T08:44:06.644Z</time></trkpt><trkpt lat="44.0631033" lon="12.1823317"><ele>89.75</ele><time>2026-04-30T08:44:07.64Z</time></trkpt><trkpt lat="44.0629717" lon="12.182255"><ele>89.5</ele><time>2026-04-30T08:44:08.638Z</time></trkpt><trkpt lat="44.0628333" lon="12.1821883"><ele>89.25</ele><time>2026-04-30T08:44:09.658Z</time></trkpt><trkpt lat="44.0626967" lon="12.1821167"><ele>89.0</ele><time>2026-04-30T08:44:10.647Z</time></trkpt><trkpt lat="44.0625583" lon="12.18205"><ele>89.0</ele><time>2026-04-30T08:44:11.641Z</time></trkpt><trkpt lat="44.062425" lon="12.18198"><ele>89.0</ele><time>2026-04-30T08:44:12.648Z</time></trkpt><trkpt lat="44.0622967" lon="12.181915"><ele>89.0</ele><time>2026-04-30T08:44:13.649Z</time></trkpt><trkpt lat="44.0621683" lon="12.1818467"><ele>89.0</ele><time>2026-04-30T08:44:14.649Z</time></trkpt><trkpt lat="44.0620417" lon="12.1817833"><ele>89.0</ele><time>2026-04-30T08:44:15.644Z</time></trkpt><trkpt lat="44.0619117" lon="12.181715"><ele>89.0</ele><time>2026-04-30T08:44:16.644Z</time></trkpt><trkpt lat="44.06178" lon="12.181645"><ele>89.0</ele><time>2026-04-30T08:44:17.645Z</time></trkpt><trkpt lat="44.061645" lon="12.181575"><ele>89.0</ele><time>2026-04-30T08:44:18.645Z</time></trkpt><trkpt lat="44.0615033" lon="12.18151"><ele>90.0</ele><time>2026-04-30T08:44:19.646Z</time></trkpt><trkpt lat="44.0613617" lon="12.1814367"><ele>91.0</ele><time>2026-04-30T08:44:20.639Z</time></trkpt><trkpt lat="44.061215" lon="12.1813667"><ele>92.0</ele><time>2026-04-30T08:44:21.65Z</time></trkpt><trkpt lat="44.061065" lon="12.1813033"><ele>92.0</ele><time>2026-04-30T08:44:22.647Z</time></trkpt><trkpt lat="44.06091" lon="12.18125"><ele>92.0</ele><time>2026-04-30T08:44:23.647Z</time></trkpt><trkpt lat="44.0607517" lon="12.1811933"><ele>92.0</ele><time>2026-04-30T08:44:24.653Z</time></trkpt><trkpt lat="44.0605967" lon="12.1811367"><ele>92.33333333333334</ele><time>2026-04-30T08:44:25.652Z</time></trkpt><trkpt lat="44.06044" lon="12.1810833"><ele>92.66666666666667</ele><time>2026-04-30T08:44:26.66Z</time></trkpt><trkpt lat="44.060285" lon="12.1810267"><ele>93.0</ele><time>2026-04-30T08:44:27.65Z</time></trkpt><trkpt lat="44.060125" lon="12.1809783"><ele>93.0</ele><time>2026-04-30T08:44:28.643Z</time></trkpt><trkpt lat="44.05997" lon="12.1809333"><ele>93.0</ele><time>2026-04-30T08:44:29.645Z</time></trkpt><trkpt lat="44.059815" lon="12.1808933"><ele>93.0</ele><time>2026-04-30T08:44:30.651Z</time></trkpt><trkpt lat="44.0596583" lon="12.180855"><ele>92.66666666666667</ele><time>2026-04-30T08:44:31.641Z</time></trkpt><trkpt lat="44.05949" lon="12.1808217"><ele>92.33333333333334</ele><time>2026-04-30T08:44:32.647Z</time></trkpt><trkpt lat="44.0593067" lon="12.180785"><ele>92.0</ele><time>2026-04-30T08:44:33.646Z</time></trkpt><trkpt lat="44.0591083" lon="12.18074"><ele>92.0</ele><time>2026-04-30T08:44:34.658Z</time></trkpt><trkpt lat="44.0589067" lon="12.1806883"><ele>92.0</ele><time>2026-04-30T08:44:35.654Z</time></trkpt><trkpt lat="44.058715" lon="12.1806383"><ele>92.0</ele><time>2026-04-30T08:44:36.646Z</time></trkpt><trkpt lat="44.0585417" lon="12.1805983"><ele>92.75</ele><time>2026-04-30T08:44:37.644Z</time></trkpt><trkpt lat="44.0583817" lon="12.1805683"><ele>93.5</ele><time>2026-04-30T08:44:38.651Z</time></trkpt><trkpt lat="44.058235" lon="12.1805433"><ele>94.25</ele><time>2026-04-30T08:44:39.641Z</time></trkpt><trkpt lat="44.0580983" lon="12.1805233"><ele>95.0</ele><time>2026-04-30T08:44:40.644Z</time></trkpt><trkpt lat="44.0579717" lon="12.1804983"><ele>95.0</ele><time>2026-04-30T08:44:41.644Z</time></trkpt><trkpt lat="44.0578517" lon="12.1804733"><ele>95.0</ele><time>2026-04-30T08:44:42.649Z</time></trkpt><trkpt lat="44.0577317" lon="12.1804517"><ele>95.0</ele><time>2026-04-30T08:44:43.642Z</time></trkpt><trkpt lat="44.05761" lon="12.180435"><ele>95.0</ele><time>2026-04-30T08:44:44.654Z</time></trkpt><trkpt lat="44.0574917" lon="12.1804117"><ele>93.0</ele><time>2026-04-30T08:44:45.645Z</time></trkpt><trkpt lat="44.05737" lon="12.18039"><ele>91.0</ele><time>2026-04-30T08:44:46.642Z</time></trkpt><trkpt lat="44.057245" lon="12.1803683"><ele>89.0</ele><time>2026-04-30T08:44:47.646Z</time></trkpt><trkpt lat="44.0571183" lon="12.18035"><ele>87.0</ele><time>2026-04-30T08:44:48.645Z</time></trkpt><trkpt lat="44.05699" lon="12.180325"><ele>87.0</ele><time>2026-04-30T08:44:49.643Z</time></trkpt><trkpt lat="44.056855" lon="12.1803"><ele>87.0</ele><time>2026-04-30T08:44:50.643Z</time></trkpt><trkpt lat="44.0567167" lon="12.18028"><ele>87.0</ele><time>2026-04-30T08:44:51.646Z</time></trkpt><trkpt lat="44.056575" lon="12.180255"><ele>87.0</ele><time>2026-04-30T08:44:52.642Z</time></trkpt><trkpt lat="44.0564383" lon="12.1802183"><ele>85.25</ele><time>2026-04-30T08:44:53.644Z</time></trkpt><trkpt lat="44.0563067" lon="12.1801733"><ele>83.5</ele><time>2026-04-30T08:44:54.643Z</time></trkpt><trkpt lat="44.0561833" lon="12.1801083"><ele>81.75</ele><time>2026-04-30T08:44:55.642Z</time></trkpt><trkpt lat="44.05606" lon="12.1800383"><ele>80.0</ele><time>2026-04-30T08:44:56.643Z</time></trkpt><trkpt lat="44.0559383" lon="12.17997"><ele>80.0</ele><time>2026-04-30T08:44:57.643Z</time></trkpt><trkpt lat="44.0558167" lon="12.179905"><ele>80.0</ele><time>2026-04-30T08:44:58.65Z</time></trkpt><trkpt lat="44.0556967" lon="12.1798433"><ele>80.0</ele><time>2026-04-30T08:44:59.648Z</time></trkpt><trkpt lat="44.0555783" lon="12.17978"><ele>80.0</ele><time>2026-04-30T08:45:00.645Z</time></trkpt><trkpt lat="44.05546" lon="12.179715"><ele>80.25</ele><time>2026-04-30T08:45:01.648Z</time></trkpt><trkpt lat="44.0553417" lon="12.1796483"><ele>80.5</ele><time>2026-04-30T08:45:02.643Z</time></trkpt><trkpt lat="44.055225" lon="12.1795717"><ele>80.75</ele><time>2026-04-30T08:45:03.643Z</time></trkpt><trkpt lat="44.0551117" lon="12.1794883"><ele>81.0</ele><time>2026-04-30T08:45:04.659Z</time></trkpt><trkpt lat="44.055005" lon="12.1793983"><ele>79.25</ele><time>2026-04-30T08:45:05.647Z</time></trkpt><trkpt lat="44.0549017" lon="12.1793133"><ele>77.5</ele><time>2026-04-30T08:45:06.644Z</time></trkpt><trkpt lat="44.0547967" lon="12.1792333"><ele>75.75</ele><time>2026-04-30T08:45:07.654Z</time></trkpt><trkpt lat="44.054695" lon="12.1791383"><ele>74.0</ele><time>2026-04-30T08:45:08.648Z</time></trkpt><trkpt lat="44.054595" lon="12.1790483"><ele>74.8</ele><time>2026-04-30T08:45:09.645Z</time></trkpt><trkpt lat="44.0544983" lon="12.178965"><ele>75.60000000000001</ele><time>2026-04-30T08:45:10.643Z</time></trkpt><trkpt lat="44.0544067" lon="12.1788867"><ele>76.4</ele><time>2026-04-30T08:45:11.646Z</time></trkpt><trkpt lat="44.0543167" lon="12.1788133"><ele>77.2</ele><time>2026-04-30T08:45:12.648Z</time></trkpt><trkpt lat="44.0542317" lon="12.178745"><ele>78.0</ele><time>2026-04-30T08:45:13.645Z</time></trkpt><trkpt lat="44.0541533" lon="12.17868"><ele>77.33333333333333</ele><time>2026-04-30T08:45:14.644Z</time></trkpt><trkpt lat="44.0540767" lon="12.1786217"><ele>76.66666666666667</ele><time>2026-04-30T08:45:15.651Z</time></trkpt><trkpt lat="44.0539967" lon="12.1785633"><ele>76.0</ele><time>2026-04-30T08:45:16.638Z</time></trkpt><trkpt lat="44.05392" lon="12.178495"><ele>75.33333333333334</ele><time>2026-04-30T08:45:17.646Z</time></trkpt><trkpt lat="44.0538433" lon="12.1784317"><ele>74.66666666666667</ele><time>2026-04-30T08:45:18.644Z</time></trkpt><trkpt lat="44.0537667" lon="12.1783717"><ele>74.0</ele><time>2026-04-30T08:45:19.64Z</time></trkpt><trkpt lat="44.0536933" lon="12.17831"><ele>74.0</ele><time>2026-04-30T08:45:20.643Z</time></trkpt><trkpt lat="44.05362" lon="12.1782483"><ele>74.0</ele><time>2026-04-30T08:45:21.642Z</time></trkpt><trkpt lat="44.0535517" lon="12.1781867"><ele>74.0</ele><time>2026-04-30T08:45:22.66Z</time></trkpt><trkpt lat="44.0534817" lon="12.1781267"><ele>74.0</ele><time>2026-04-30T08:45:23.642Z</time></trkpt><trkpt lat="44.053415" lon="12.1780633"><ele>74.0</ele><time>2026-04-30T08:45:24.639Z</time></trkpt><trkpt lat="44.0533467" lon="12.1780017"><ele>74.0</ele><time>2026-04-30T08:45:25.64Z</time></trkpt><trkpt lat="44.0532833" lon="12.17794"><ele>73.5</ele><time>2026-04-30T08:45:26.643Z</time></trkpt><trkpt lat="44.0532217" lon="12.177885"><ele>73.0</ele><time>2026-04-30T08:45:27.646Z</time></trkpt><trkpt lat="44.0531667" lon="12.1778367"><ele>72.5</ele><time>2026-04-30T08:45:28.642Z</time></trkpt><trkpt lat="44.0530633" lon="12.1777483"><ele>72.0</ele><time>2026-04-30T08:45:30.645Z</time></trkpt><trkpt lat="44.052965" lon="12.177655"><ele>71.5</ele><time>2026-04-30T08:45:32.65Z</time></trkpt><trkpt lat="44.05291" lon="12.1776033"><ele>71.0</ele><time>2026-04-30T08:45:33.64Z</time></trkpt><trkpt lat="44.0528117" lon="12.17751"><ele>71.0</ele><time>2026-04-30T08:45:35.649Z</time></trkpt><trkpt lat="44.0527383" lon="12.1774283"><ele>71.0</ele><time>2026-04-30T08:45:37.65Z</time></trkpt><trkpt lat="44.0526817" lon="12.1773533"><ele>71.0</ele><time>2026-04-30T08:45:39.651Z</time></trkpt><trkpt lat="44.05263" lon="12.1772583"><ele>71.0</ele><time>2026-04-30T08:45:41.648Z</time></trkpt><trkpt lat="44.0525717" lon="12.1771517"><ele>71.0</ele><time>2026-04-30T08:45:43.649Z</time></trkpt><trkpt lat="44.05251" lon="12.17703"><ele>71.0</ele><time>2026-04-30T08:45:45.651Z</time></trkpt><trkpt lat="44.0524517" lon="12.176915"><ele>71.0</ele><time>2026-04-30T08:45:47.64Z</time></trkpt><trkpt lat="44.05239" lon="12.1767933"><ele>71.0</ele><time>2026-04-30T08:45:49.651Z</time></trkpt><trkpt lat="44.0523167" lon="12.1766767"><ele>71.0</ele><time>2026-04-30T08:45:51.657Z</time></trkpt><trkpt lat="44.0522617" lon="12.17656"><ele>71.0</ele><time>2026-04-30T08:45:53.649Z</time></trkpt><trkpt lat="44.0522" lon="12.1764483"><ele>71.2</ele><time>2026-04-30T08:45:55.644Z</time></trkpt><trkpt lat="44.0521367" lon="12.17634"><ele>71.39999999999999</ele><time>2026-04-30T08:45:57.648Z</time></trkpt><trkpt lat="44.0520667" lon="12.17622"><ele>71.6</ele><time>2026-04-30T08:45:59.642Z</time></trkpt><trkpt lat="44.05199" lon="12.1761017"><ele>71.8</ele><time>2026-04-30T08:46:01.649Z</time></trkpt><trkpt lat="44.0519167" lon="12.1759867"><ele>72.0</ele><time>2026-04-30T08:46:03.649Z</time></trkpt><trkpt lat="44.0518683" lon="12.1759117"><ele>72.0</ele><time>2026-04-30T08:46:05.65Z</time></trkpt><trkpt lat="44.05183" lon="12.175835"><ele>72.0</ele><time>2026-04-30T08:46:07.645Z</time></trkpt><trkpt lat="44.0517733" lon="12.1757583"><ele>72.0</ele><time>2026-04-30T08:46:09.65Z</time></trkpt><trkpt lat="44.0516817" lon="12.1757817"><ele>72.0</ele><time>2026-04-30T08:46:12.646Z</time></trkpt><trkpt lat="44.0515883" lon="12.1758233"><ele>72.0</ele><time>2026-04-30T08:46:14.651Z</time></trkpt><trkpt lat="44.0514733" lon="12.1758633"><ele>71.8</ele><time>2026-04-30T08:46:16.643Z</time></trkpt><trkpt lat="44.0514017" lon="12.1759033"><ele>71.6</ele><time>2026-04-30T08:46:17.654Z</time></trkpt><trkpt lat="44.0513217" lon="12.1759667"><ele>71.39999999999999</ele><time>2026-04-30T08:46:18.651Z</time></trkpt><trkpt lat="44.05124" lon="12.1760483"><ele>71.2</ele><time>2026-04-30T08:46:19.646Z</time></trkpt><trkpt lat="44.0511617" lon="12.1761567"><ele>71.0</ele><time>2026-04-30T08:46:20.643Z</time></trkpt><trkpt lat="44.05109" lon="12.1762817"><ele>71.0</ele><time>2026-04-30T08:46:21.652Z</time></trkpt><trkpt lat="44.0510183" lon="12.17643"><ele>71.0</ele><time>2026-04-30T08:46:22.641Z</time></trkpt><trkpt lat="44.05096" lon="12.1766067"><ele>71.0</ele><time>2026-04-30T08:46:23.648Z</time></trkpt><trkpt lat="44.05091" lon="12.1767767"><ele>71.0</ele><time>2026-04-30T08:46:24.644Z</time></trkpt><trkpt lat="44.0508667" lon="12.176925"><ele>70.8</ele><time>2026-04-30T08:46:25.642Z</time></trkpt><trkpt lat="44.050825" lon="12.1770567"><ele>70.6</ele><time>2026-04-30T08:46:26.642Z</time></trkpt><trkpt lat="44.0507783" lon="12.177175"><ele>70.4</ele><time>2026-04-30T08:46:27.641Z</time></trkpt><trkpt lat="44.050715" lon="12.1772867"><ele>70.2</ele><time>2026-04-30T08:46:28.648Z</time></trkpt><trkpt lat="44.0506417" lon="12.1773833"><ele>70.0</ele><time>2026-04-30T08:46:29.654Z</time></trkpt><trkpt lat="44.0505517" lon="12.1774583"><ele>70.8</ele><time>2026-04-30T08:46:30.646Z</time></trkpt><trkpt lat="44.0504517" lon="12.17752"><ele>71.6</ele><time>2026-04-30T08:46:31.645Z</time></trkpt><trkpt lat="44.0503567" lon="12.1775783"><ele>72.4</ele><time>2026-04-30T08:46:32.648Z</time></trkpt><trkpt lat="44.050265" lon="12.177635"><ele>73.2</ele><time>2026-04-30T08:46:33.655Z</time></trkpt><trkpt lat="44.0501617" lon="12.1776883"><ele>74.0</ele><time>2026-04-30T08:46:34.646Z</time></trkpt><trkpt lat="44.050055" lon="12.17774"><ele>74.25</ele><time>2026-04-30T08:46:35.652Z</time></trkpt><trkpt lat="44.049945" lon="12.177795"><ele>74.5</ele><time>2026-04-30T08:46:36.644Z</time></trkpt><trkpt lat="44.0498317" lon="12.1778533"><ele>74.75</ele><time>2026-04-30T08:46:37.648Z</time></trkpt><trkpt lat="44.0497217" lon="12.177905"><ele>75.0</ele><time>2026-04-30T08:46:38.642Z</time></trkpt><trkpt lat="44.0496117" lon="12.1779583"><ele>75.0</ele><time>2026-04-30T08:46:39.646Z</time></trkpt><trkpt lat="44.0495067" lon="12.1780117"><ele>75.0</ele><time>2026-04-30T08:46:40.643Z</time></trkpt><trkpt lat="44.0493983" lon="12.17806"><ele>75.0</ele><time>2026-04-30T08:46:41.657Z</time></trkpt><trkpt lat="44.049295" lon="12.178105"><ele>75.0</ele><time>2026-04-30T08:46:42.649Z</time></trkpt><trkpt lat="44.0491983" lon="12.1781517"><ele>75.0</ele><time>2026-04-30T08:46:43.656Z</time></trkpt><trkpt lat="44.049105" lon="12.178195"><ele>76.0</ele><time>2026-04-30T08:46:44.641Z</time></trkpt><trkpt lat="44.049015" lon="12.178235"><ele>77.0</ele><time>2026-04-30T08:46:45.64Z</time></trkpt><trkpt lat="44.0489233" lon="12.1782767"><ele>78.0</ele><time>2026-04-30T08:46:46.644Z</time></trkpt><trkpt lat="44.0488333" lon="12.1783217"><ele>79.0</ele><time>2026-04-30T08:46:47.646Z</time></trkpt><trkpt lat="44.04874" lon="12.1783733"><ele>80.0</ele><time>2026-04-30T08:46:48.649Z</time></trkpt><trkpt lat="44.0486433" lon="12.1784183"><ele>80.0</ele><time>2026-04-30T08:46:49.646Z</time></trkpt><trkpt lat="44.0485433" lon="12.1784733"><ele>80.0</ele><time>2026-04-30T08:46:50.652Z</time></trkpt><trkpt lat="44.0484483" lon="12.1785183"><ele>80.0</ele><time>2026-04-30T08:46:51.647Z</time></trkpt><trkpt lat="44.04836" lon="12.178555"><ele>80.0</ele><time>2026-04-30T08:46:52.639Z</time></trkpt><trkpt lat="44.04828" lon="12.1786"><ele>80.0</ele><time>2026-04-30T08:46:53.646Z</time></trkpt><trkpt lat="44.04821" lon="12.178635"><ele>80.66666666666667</ele><time>2026-04-30T08:46:54.64Z</time></trkpt><trkpt lat="44.0481467" lon="12.178675"><ele>81.33333333333334</ele><time>2026-04-30T08:46:55.649Z</time></trkpt><trkpt lat="44.04808" lon="12.1787167"><ele>82.0</ele><time>2026-04-30T08:46:56.652Z</time></trkpt><trkpt lat="44.0480117" lon="12.1787617"><ele>82.66666666666667</ele><time>2026-04-30T08:46:57.646Z</time></trkpt><trkpt lat="44.0479367" lon="12.178805"><ele>83.33333333333333</ele><time>2026-04-30T08:46:58.643Z</time></trkpt><trkpt lat="44.04786" lon="12.1788517"><ele>84.0</ele><time>2026-04-30T08:46:59.638Z</time></trkpt><trkpt lat="44.04778" lon="12.1788933"><ele>84.0</ele><time>2026-04-30T08:47:00.64Z</time></trkpt><trkpt lat="44.0476917" lon="12.178925"><ele>84.0</ele><time>2026-04-30T08:47:01.65Z</time></trkpt><trkpt lat="44.0475967" lon="12.1789467"><ele>84.0</ele><time>2026-04-30T08:47:02.641Z</time></trkpt><trkpt lat="44.0474983" lon="12.178955"><ele>84.0</ele><time>2026-04-30T08:47:03.652Z</time></trkpt><trkpt lat="44.0473983" lon="12.1789383"><ele>84.0</ele><time>2026-04-30T08:47:04.648Z</time></trkpt><trkpt lat="44.047305" lon="12.1788917"><ele>87.4</ele><time>2026-04-30T08:47:05.647Z</time></trkpt><trkpt lat="44.04722" lon="12.1788033"><ele>90.80000000000001</ele><time>2026-04-30T08:47:06.642Z</time></trkpt><trkpt lat="44.047145" lon="12.178675"><ele>94.19999999999999</ele><time>2026-04-30T08:47:07.645Z</time></trkpt><trkpt lat="44.0470883" lon="12.1785483"><ele>97.6</ele><time>2026-04-30T08:47:08.65Z</time></trkpt><trkpt lat="44.0470383" lon="12.178445"><ele>101.0</ele><time>2026-04-30T08:47:09.645Z</time></trkpt><trkpt lat="44.0469917" lon="12.1783683"><ele>101.0</ele><time>2026-04-30T08:47:10.644Z</time></trkpt><trkpt lat="44.0468817" lon="12.17841"><ele>101.0</ele><time>2026-04-30T08:47:12.646Z</time></trkpt><trkpt lat="44.0468433" lon="12.17854"><ele>101.0</ele><time>2026-04-30T08:47:13.648Z</time></trkpt><trkpt lat="44.0468283" lon="12.1786833"><ele>101.0</ele><time>2026-04-30T08:47:14.646Z</time></trkpt><trkpt lat="44.0468367" lon="12.1788533"><ele>101.0</ele><time>2026-04-30T08:47:15.645Z</time></trkpt><trkpt lat="44.0468383" lon="12.179015"><ele>100.6</ele><time>2026-04-30T08:47:16.649Z</time></trkpt><trkpt lat="44.0468417" lon="12.17916"><ele>100.19999999999999</ele><time>2026-04-30T08:47:17.648Z</time></trkpt><trkpt lat="44.0468317" lon="12.179295"><ele>99.80000000000001</ele><time>2026-04-30T08:47:18.646Z</time></trkpt><trkpt lat="44.046795" lon="12.1794233"><ele>99.4</ele><time>2026-04-30T08:47:19.656Z</time></trkpt><trkpt lat="44.0467367" lon="12.1795383"><ele>99.0</ele><time>2026-04-30T08:47:20.643Z</time></trkpt><trkpt lat="44.0466633" lon="12.179635"><ele>99.16666666666667</ele><time>2026-04-30T08:47:21.655Z</time></trkpt><trkpt lat="44.04659" lon="12.1797067"><ele>99.33333333333334</ele><time>2026-04-30T08:47:22.641Z</time></trkpt><trkpt lat="44.046525" lon="12.179755"><ele>99.5</ele><time>2026-04-30T08:47:23.645Z</time></trkpt><trkpt lat="44.0464533" lon="12.1797717"><ele>99.66666666666667</ele><time>2026-04-30T08:47:25.642Z</time></trkpt><trkpt lat="44.046395" lon="12.1798233"><ele>99.83333333333334</ele><time>2026-04-30T08:47:28.655Z</time></trkpt><trkpt lat="44.0464083" lon="12.17991"><ele>100.0</ele><time>2026-04-30T08:47:31.654Z</time></trkpt><trkpt lat="44.0464667" lon="12.179805"><ele>101.2</ele><time>2026-04-30T08:47:38.653Z</time></trkpt><trkpt lat="44.04649" lon="12.1796417"><ele>102.4</ele><time>2026-04-30T08:47:40.651Z</time></trkpt><trkpt lat="44.0465133" lon="12.1795133"><ele>103.6</ele><time>2026-04-30T08:47:41.642Z</time></trkpt><trkpt lat="44.0465333" lon="12.1793817"><ele>104.8</ele><time>2026-04-30T08:47:42.645Z</time></trkpt><trkpt lat="44.04655" lon="12.17924"><ele>106.0</ele><time>2026-04-30T08:47:43.643Z</time></trkpt><trkpt lat="44.046555" lon="12.17909"><ele>108.4</ele><time>2026-04-30T08:47:44.645Z</time></trkpt><trkpt lat="44.0465467" lon="12.1789433"><ele>110.8</ele><time>2026-04-30T08:47:45.651Z</time></trkpt><trkpt lat="44.04652" lon="12.17881"><ele>113.20000000000002</ele><time>2026-04-30T08:47:46.649Z</time></trkpt><trkpt lat="44.04649" lon="12.178685"><ele>115.60000000000001</ele><time>2026-04-30T08:47:47.642Z</time></trkpt><trkpt lat="44.0464617" lon="12.17856"><ele>118.0</ele><time>2026-04-30T08:47:48.645Z</time></trkpt><trkpt lat="44.0464417" lon="12.1784117"><ele>118.0</ele><time>2026-04-30T08:47:49.649Z</time></trkpt><trkpt lat="44.0464183" lon="12.17827"><ele>118.00000000000001</ele><time>2026-04-30T08:47:50.653Z</time></trkpt><trkpt lat="44.0463917" lon="12.178165"><ele>118.00000000000001</ele><time>2026-04-30T08:47:51.648Z</time></trkpt><trkpt lat="44.0463567" lon="12.17809"><ele>118.0</ele><time>2026-04-30T08:47:52.64Z</time></trkpt><trkpt lat="44.046235" lon="12.1781433"><ele>118.0</ele><time>2026-04-30T08:47:54.645Z</time></trkpt><trkpt lat="44.04617" lon="12.1782317"><ele>118.0</ele><time>2026-04-30T08:47:55.646Z</time></trkpt><trkpt lat="44.0461067" lon="12.17831"><ele>118.00000000000001</ele><time>2026-04-30T08:47:56.651Z</time></trkpt><trkpt lat="44.0460417" lon="12.1783183"><ele>118.00000000000001</ele><time>2026-04-30T08:47:57.649Z</time></trkpt><trkpt lat="44.0459717" lon="12.17816"><ele>118.0</ele><time>2026-04-30T08:47:59.656Z</time></trkpt><trkpt lat="44.0459583" lon="12.17802"><ele>118.0</ele><time>2026-04-30T08:48:00.648Z</time></trkpt><trkpt lat="44.0459617" lon="12.1778483"><ele>120.0</ele><time>2026-04-30T08:48:01.645Z</time></trkpt><trkpt lat="44.0459667" lon="12.1776883"><ele>122.0</ele><time>2026-04-30T08:48:02.65Z</time></trkpt><trkpt lat="44.0459833" lon="12.17752"><ele>124.0</ele><time>2026-04-30T08:48:03.643Z</time></trkpt><trkpt lat="44.0459883" lon="12.1773567"><ele>126.0</ele><time>2026-04-30T08:48:04.641Z</time></trkpt><trkpt lat="44.04598" lon="12.1771933"><ele>126.4</ele><time>2026-04-30T08:48:05.64Z</time></trkpt><trkpt lat="44.04596" lon="12.1770367"><ele>126.8</ele><time>2026-04-30T08:48:06.643Z</time></trkpt><trkpt lat="44.0459317" lon="12.1769"><ele>127.20000000000002</ele><time>2026-04-30T08:48:07.655Z</time></trkpt><trkpt lat="44.0458967" lon="12.176785"><ele>127.60000000000001</ele><time>2026-04-30T08:48:08.645Z</time></trkpt><trkpt lat="44.0458583" lon="12.1766967"><ele>128.0</ele><time>2026-04-30T08:48:09.645Z</time></trkpt><trkpt lat="44.04579" lon="12.1766683"><ele>134.60000000000002</ele><time>2026-04-30T08:48:11.644Z</time></trkpt><trkpt lat="44.045755" lon="12.176845"><ele>141.20000000000002</ele><time>2026-04-30T08:48:13.648Z</time></trkpt><trkpt lat="44.0457733" lon="12.17696"><ele>147.8</ele><time>2026-04-30T08:48:14.649Z</time></trkpt><trkpt lat="44.045775" lon="12.1770917"><ele>154.4</ele><time>2026-04-30T08:48:15.642Z</time></trkpt><trkpt lat="44.0457617" lon="12.1772217"><ele>161.0</ele><time>2026-04-30T08:48:16.642Z</time></trkpt><trkpt lat="44.045725" lon="12.177335"><ele>157.60000000000002</ele><time>2026-04-30T08:48:17.651Z</time></trkpt><trkpt lat="44.0456717" lon="12.177435"><ele>154.20000000000002</ele><time>2026-04-30T08:48:18.645Z</time></trkpt><trkpt lat="44.0456017" lon="12.1775217"><ele>150.8</ele><time>2026-04-30T08:48:19.647Z</time></trkpt><trkpt lat="44.0455117" lon="12.1775683"><ele>147.4</ele><time>2026-04-30T08:48:20.652Z</time></trkpt><trkpt lat="44.04542" lon="12.177595"><ele>144.0</ele><time>2026-04-30T08:48:21.649Z</time></trkpt><trkpt lat="44.0453167" lon="12.1775967"><ele>144.0</ele><time>2026-04-30T08:48:22.638Z</time></trkpt><trkpt lat="44.0452167" lon="12.1775783"><ele>144.0</ele><time>2026-04-30T08:48:23.647Z</time></trkpt><trkpt lat="44.0451133" lon="12.1775633"><ele>144.0</ele><time>2026-04-30T08:48:24.648Z</time></trkpt><trkpt lat="44.0450017" lon="12.1775417"><ele>144.0</ele><time>2026-04-30T08:48:25.649Z</time></trkpt><trkpt lat="44.0448933" lon="12.1775167"><ele>144.0</ele><time>2026-04-30T08:48:26.649Z</time></trkpt><trkpt lat="44.0447933" lon="12.1775117"><ele>143.8</ele><time>2026-04-30T08:48:27.645Z</time></trkpt><trkpt lat="44.044715" lon="12.177495"><ele>143.60000000000002</ele><time>2026-04-30T08:48:28.648Z</time></trkpt><trkpt lat="44.0446067" lon="12.1774233"><ele>143.4</ele><time>2026-04-30T08:48:30.646Z</time></trkpt><trkpt lat="44.0446517" lon="12.177285"><ele>143.20000000000002</ele><time>2026-04-30T08:48:32.647Z</time></trkpt><trkpt lat="44.04474" lon="12.1772783"><ele>143.0</ele><time>2026-04-30T08:48:33.645Z</time></trkpt><trkpt lat="44.0448417" lon="12.1772833"><ele>146.60000000000002</ele><time>2026-04-30T08:48:34.64Z</time></trkpt><trkpt lat="44.0449517" lon="12.1772867"><ele>150.20000000000002</ele><time>2026-04-30T08:48:35.641Z</time></trkpt><trkpt lat="44.0450533" lon="12.17728"><ele>153.8</ele><time>2026-04-30T08:48:36.645Z</time></trkpt><trkpt lat="44.04515" lon="12.1772517"><ele>157.4</ele><time>2026-04-30T08:48:37.649Z</time></trkpt><trkpt lat="44.04524" lon="12.1771917"><ele>161.0</ele><time>2026-04-30T08:48:38.644Z</time></trkpt><trkpt lat="44.0453067" lon="12.1770967"><ele>161.0</ele><time>2026-04-30T08:48:39.64Z</time></trkpt><trkpt lat="44.0453567" lon="12.176985"><ele>161.0</ele><time>2026-04-30T08:48:40.639Z</time></trkpt><trkpt lat="44.0453833" lon="12.1768517"><ele>161.0</ele><time>2026-04-30T08:48:41.642Z</time></trkpt><trkpt lat="44.04536" lon="12.1767117"><ele>161.0</ele><time>2026-04-30T08:48:42.647Z</time></trkpt><trkpt lat="44.045325" lon="12.1765817"><ele>161.0</ele><time>2026-04-30T08:48:43.642Z</time></trkpt><trkpt lat="44.045275" lon="12.1764633"><ele>162.0</ele><time>2026-04-30T08:48:44.642Z</time></trkpt><trkpt lat="44.0452067" lon="12.1763583"><ele>163.0</ele><time>2026-04-30T08:48:45.648Z</time></trkpt><trkpt lat="44.0451317" lon="12.1762617"><ele>164.0</ele><time>2026-04-30T08:48:46.65Z</time></trkpt><trkpt lat="44.0450483" lon="12.1761767"><ele>165.0</ele><time>2026-04-30T08:48:47.64Z</time></trkpt><trkpt lat="44.044965" lon="12.17611"><ele>166.0</ele><time>2026-04-30T08:48:48.643Z</time></trkpt><trkpt lat="44.0448767" lon="12.1760583"><ele>166.0</ele><time>2026-04-30T08:48:49.649Z</time></trkpt><trkpt lat="44.0447817" lon="12.1760183"><ele>166.0</ele><time>2026-04-30T08:48:50.645Z</time></trkpt><trkpt lat="44.0446817" lon="12.1759867"><ele>166.0</ele><time>2026-04-30T08:48:51.641Z</time></trkpt><trkpt lat="44.0445767" lon="12.1759567"><ele>166.0</ele><time>2026-04-30T08:48:52.653Z</time></trkpt><trkpt lat="44.0444717" lon="12.1759267"><ele>166.0</ele><time>2026-04-30T08:48:53.654Z</time></trkpt><trkpt lat="44.0443683" lon="12.17587"><ele>166.0</ele><time>2026-04-30T08:48:54.637Z</time></trkpt><trkpt lat="44.0442683" lon="12.1757983"><ele>166.0</ele><time>2026-04-30T08:48:55.649Z</time></trkpt><trkpt lat="44.0441683" lon="12.17573"><ele>166.0</ele><time>2026-04-30T08:48:56.639Z</time></trkpt><trkpt lat="44.044065" lon="12.175665"><ele>166.0</ele><time>2026-04-30T08:48:57.653Z</time></trkpt><trkpt lat="44.0439667" lon="12.175585"><ele>170.25</ele><time>2026-04-30T08:48:58.651Z</time></trkpt><trkpt lat="44.0438717" lon="12.175495"><ele>174.5</ele><time>2026-04-30T08:48:59.652Z</time></trkpt><trkpt lat="44.04379" lon="12.17539"><ele>178.75</ele><time>2026-04-30T08:49:00.64Z</time></trkpt><trkpt lat="44.04371" lon="12.175275"><ele>183.0</ele><time>2026-04-30T08:49:01.647Z</time></trkpt><trkpt lat="44.0436283" lon="12.1751533"><ele>183.0</ele><time>2026-04-30T08:49:02.643Z</time></trkpt><trkpt lat="44.0435467" lon="12.1750267"><ele>183.0</ele><time>2026-04-30T08:49:03.661Z</time></trkpt><trkpt lat="44.0434733" lon="12.17489"><ele>183.0</ele><time>2026-04-30T08:49:04.643Z</time></trkpt><trkpt lat="44.0434117" lon="12.1747617"><ele>183.0</ele><time>2026-04-30T08:49:05.647Z</time></trkpt><trkpt lat="44.04335" lon="12.1746567"><ele>183.2</ele><time>2026-04-30T08:49:06.642Z</time></trkpt><trkpt lat="44.0432667" lon="12.1745867"><ele>183.4</ele><time>2026-04-30T08:49:07.651Z</time></trkpt><trkpt lat="44.0431683" lon="12.1745283"><ele>183.6</ele><time>2026-04-30T08:49:08.641Z</time></trkpt><trkpt lat="44.0430483" lon="12.1745"><ele>183.79999999999998</ele><time>2026-04-30T08:49:09.642Z</time></trkpt><trkpt lat="44.042925" lon="12.1744933"><ele>184.0</ele><time>2026-04-30T08:49:10.646Z</time></trkpt><trkpt lat="44.0428033" lon="12.1744883"><ele>184.0</ele><time>2026-04-30T08:49:11.648Z</time></trkpt><trkpt lat="44.0426833" lon="12.1744833"><ele>184.0</ele><time>2026-04-30T08:49:12.652Z</time></trkpt><trkpt lat="44.0425667" lon="12.1744717"><ele>184.0</ele><time>2026-04-30T08:49:13.653Z</time></trkpt><trkpt lat="44.04245" lon="12.17446"><ele>184.0</ele><time>2026-04-30T08:49:14.64Z</time></trkpt><trkpt lat="44.04233" lon="12.1744683"><ele>188.25</ele><time>2026-04-30T08:49:15.647Z</time></trkpt><trkpt lat="44.042205" lon="12.1744967"><ele>192.5</ele><time>2026-04-30T08:49:16.641Z</time></trkpt><trkpt lat="44.0420833" lon="12.17454"><ele>196.75</ele><time>2026-04-30T08:49:17.642Z</time></trkpt><trkpt lat="44.0419683" lon="12.1746033"><ele>201.0</ele><time>2026-04-30T08:49:18.648Z</time></trkpt><trkpt lat="44.0418533" lon="12.174685"><ele>201.0</ele><time>2026-04-30T08:49:19.644Z</time></trkpt><trkpt lat="44.04174" lon="12.1747617"><ele>201.0</ele><time>2026-04-30T08:49:20.652Z</time></trkpt><trkpt lat="44.0416317" lon="12.1748367"><ele>201.0</ele><time>2026-04-30T08:49:21.65Z</time></trkpt><trkpt lat="44.041525" lon="12.1749167"><ele>201.0</ele><time>2026-04-30T08:49:22.647Z</time></trkpt><trkpt lat="44.0414183" lon="12.1749883"><ele>200.8</ele><time>2026-04-30T08:49:23.647Z</time></trkpt><trkpt lat="44.0413217" lon="12.1750317"><ele>200.60000000000002</ele><time>2026-04-30T08:49:24.655Z</time></trkpt><trkpt lat="44.0412183" lon="12.1750483"><ele>200.4</ele><time>2026-04-30T08:49:25.651Z</time></trkpt><trkpt lat="44.0411117" lon="12.1750467"><ele>200.2</ele><time>2026-04-30T08:49:26.646Z</time></trkpt><trkpt lat="44.041" lon="12.1750267"><ele>200.0</ele><time>2026-04-30T08:49:27.645Z</time></trkpt><trkpt lat="44.0408867" lon="12.1750017"><ele>201.6</ele><time>2026-04-30T08:49:28.65Z</time></trkpt><trkpt lat="44.0407733" lon="12.1749767"><ele>203.2</ele><time>2026-04-30T08:49:29.657Z</time></trkpt><trkpt lat="44.040665" lon="12.1749567"><ele>204.8</ele><time>2026-04-30T08:49:30.642Z</time></trkpt><trkpt lat="44.04056" lon="12.17494"><ele>206.4</ele><time>2026-04-30T08:49:31.649Z</time></trkpt><trkpt lat="44.0404567" lon="12.1749233"><ele>208.0</ele><time>2026-04-30T08:49:32.653Z</time></trkpt><trkpt lat="44.0403583" lon="12.1749017"><ele>208.0</ele><time>2026-04-30T08:49:33.647Z</time></trkpt><trkpt lat="44.0402667" lon="12.1748717"><ele>208.0</ele><time>2026-04-30T08:49:34.647Z</time></trkpt><trkpt lat="44.0401733" lon="12.1748233"><ele>208.0</ele><time>2026-04-30T08:49:35.648Z</time></trkpt><trkpt lat="44.04008" lon="12.1747583"><ele>208.0</ele><time>2026-04-30T08:49:36.65Z</time></trkpt><trkpt lat="44.0399983" lon="12.1746883"><ele>208.0</ele><time>2026-04-30T08:49:37.654Z</time></trkpt><trkpt lat="44.0399317" lon="12.1746167"><ele>209.16666666666666</ele><time>2026-04-30T08:49:38.648Z</time></trkpt><trkpt lat="44.039865" lon="12.174545"><ele>210.33333333333331</ele><time>2026-04-30T08:49:39.654Z</time></trkpt><trkpt lat="44.0397983" lon="12.1744733"><ele>211.5</ele><time>2026-04-30T08:49:40.654Z</time></trkpt><trkpt lat="44.0397283" lon="12.1744"><ele>212.66666666666669</ele><time>2026-04-30T08:49:41.651Z</time></trkpt><trkpt lat="44.039655" lon="12.17433"><ele>213.83333333333334</ele><time>2026-04-30T08:49:42.648Z</time></trkpt><trkpt lat="44.0395817" lon="12.1742583"><ele>215.0</ele><time>2026-04-30T08:49:43.644Z</time></trkpt><trkpt lat="44.03951" lon="12.1741817"><ele>215.0</ele><time>2026-04-30T08:49:44.647Z</time></trkpt><trkpt lat="44.039445" lon="12.1740983"><ele>215.0</ele><time>2026-04-30T08:49:45.65Z</time></trkpt><trkpt lat="44.03938" lon="12.1740067"><ele>215.0</ele><time>2026-04-30T08:49:46.656Z</time></trkpt><trkpt lat="44.039315" lon="12.1739133"><ele>215.0</ele><time>2026-04-30T08:49:47.64Z</time></trkpt><trkpt lat="44.0392417" lon="12.173825"><ele>215.0</ele><time>2026-04-30T08:49:48.652Z</time></trkpt><trkpt lat="44.03917" lon="12.17373"><ele>214.6</ele><time>2026-04-30T08:49:49.644Z</time></trkpt><trkpt lat="44.0390967" lon="12.1736333"><ele>214.2</ele><time>2026-04-30T08:49:50.64Z</time></trkpt><trkpt lat="44.0390183" lon="12.1735467"><ele>213.8</ele><time>2026-04-30T08:49:51.654Z</time></trkpt><trkpt lat="44.0389367" lon="12.1734733"><ele>213.4</ele><time>2026-04-30T08:49:52.649Z</time></trkpt><trkpt lat="44.03885" lon="12.1734117"><ele>213.0</ele><time>2026-04-30T08:49:53.65Z</time></trkpt><trkpt lat="44.0387617" lon="12.173365"><ele>213.0</ele><time>2026-04-30T08:49:54.646Z</time></trkpt><trkpt lat="44.0386633" lon="12.17334"><ele>213.0</ele><time>2026-04-30T08:49:55.648Z</time></trkpt><trkpt lat="44.0385483" lon="12.1733317"><ele>213.0</ele><time>2026-04-30T08:49:56.653Z</time></trkpt><trkpt lat="44.0384283" lon="12.173335"><ele>213.0</ele><time>2026-04-30T08:49:57.646Z</time></trkpt><trkpt lat="44.0383133" lon="12.17334"><ele>215.0</ele><time>2026-04-30T08:49:58.641Z</time></trkpt><trkpt lat="44.0382" lon="12.1733483"><ele>217.0</ele><time>2026-04-30T08:49:59.642Z</time></trkpt><trkpt lat="44.038085" lon="12.1733533"><ele>219.0</ele><time>2026-04-30T08:50:00.649Z</time></trkpt><trkpt lat="44.037965" lon="12.1733567"><ele>221.0</ele><time>2026-04-30T08:50:01.648Z</time></trkpt><trkpt lat="44.0378467" lon="12.1733483"><ele>221.0</ele><time>2026-04-30T08:50:02.644Z</time></trkpt><trkpt lat="44.0377283" lon="12.1733267"><ele>221.0</ele><time>2026-04-30T08:50:03.643Z</time></trkpt><trkpt lat="44.0376167" lon="12.1732867"><ele>221.0</ele><time>2026-04-30T08:50:04.651Z</time></trkpt><trkpt lat="44.0375117" lon="12.173225"><ele>221.0</ele><time>2026-04-30T08:50:05.647Z</time></trkpt><trkpt lat="44.03741" lon="12.1731417"><ele>223.4</ele><time>2026-04-30T08:50:06.642Z</time></trkpt><trkpt lat="44.0373117" lon="12.1730483"><ele>225.8</ele><time>2026-04-30T08:50:07.646Z</time></trkpt><trkpt lat="44.0372133" lon="12.1729717"><ele>228.20000000000002</ele><time>2026-04-30T08:50:08.65Z</time></trkpt><trkpt lat="44.03711" lon="12.1729167"><ele>230.60000000000002</ele><time>2026-04-30T08:50:09.646Z</time></trkpt><trkpt lat="44.0370083" lon="12.1728783"><ele>233.0</ele><time>2026-04-30T08:50:10.645Z</time></trkpt><trkpt lat="44.0369117" lon="12.17285"><ele>233.00000000000003</ele><time>2026-04-30T08:50:11.641Z</time></trkpt><trkpt lat="44.036825" lon="12.1728133"><ele>233.0</ele><time>2026-04-30T08:50:12.645Z</time></trkpt><trkpt lat="44.0367433" lon="12.172755"><ele>233.0</ele><time>2026-04-30T08:50:13.647Z</time></trkpt><trkpt lat="44.03668" lon="12.1726717"><ele>233.0</ele><time>2026-04-30T08:50:14.643Z</time></trkpt><trkpt lat="44.03663" lon="12.1725667"><ele>233.00000000000003</ele><time>2026-04-30T08:50:15.66Z</time></trkpt><trkpt lat="44.03659" lon="12.1724583"><ele>233.0</ele><time>2026-04-30T08:50:16.647Z</time></trkpt><trkpt lat="44.0365483" lon="12.1723617"><ele>233.16666666666669</ele><time>2026-04-30T08:50:17.648Z</time></trkpt><trkpt lat="44.0365033" lon="12.172285"><ele>233.33333333333334</ele><time>2026-04-30T08:50:18.639Z</time></trkpt><trkpt lat="44.0364533" lon="12.17223"><ele>233.5</ele><time>2026-04-30T08:50:19.639Z</time></trkpt><trkpt lat="44.0363367" lon="12.17225"><ele>233.66666666666669</ele><time>2026-04-30T08:50:21.656Z</time></trkpt><trkpt lat="44.036295" lon="12.1723233"><ele>233.83333333333334</ele><time>2026-04-30T08:50:22.645Z</time></trkpt><trkpt lat="44.0362517" lon="12.1724117"><ele>234.0</ele><time>2026-04-30T08:50:23.649Z</time></trkpt><trkpt lat="44.0362017" lon="12.1724933"><ele>234.0</ele><time>2026-04-30T08:50:24.651Z</time></trkpt><trkpt lat="44.0361533" lon="12.172555"><ele>233.99999999999997</ele><time>2026-04-30T08:50:25.638Z</time></trkpt><trkpt lat="44.0360433" lon="12.1725183"><ele>233.99999999999997</ele><time>2026-04-30T08:50:27.64Z</time></trkpt><trkpt lat="44.0359833" lon="12.172415"><ele>234.0</ele><time>2026-04-30T08:50:28.639Z</time></trkpt><trkpt lat="44.0359233" lon="12.172285"><ele>234.0</ele><time>2026-04-30T08:50:29.657Z</time></trkpt><trkpt lat="44.03587" lon="12.172165"><ele>234.79999999999998</ele><time>2026-04-30T08:50:30.653Z</time></trkpt><trkpt lat="44.0358083" lon="12.172055"><ele>235.59999999999997</ele><time>2026-04-30T08:50:31.647Z</time></trkpt><trkpt lat="44.0357383" lon="12.1719517"><ele>236.4</ele><time>2026-04-30T08:50:32.648Z</time></trkpt><trkpt lat="44.0356567" lon="12.1718717"><ele>237.2</ele><time>2026-04-30T08:50:33.652Z</time></trkpt><trkpt lat="44.0355717" lon="12.1717967"><ele>238.0</ele><time>2026-04-30T08:50:34.646Z</time></trkpt><trkpt lat="44.0354833" lon="12.1717233"><ele>238.2</ele><time>2026-04-30T08:50:35.643Z</time></trkpt><trkpt lat="44.0353983" lon="12.1716533"><ele>238.4</ele><time>2026-04-30T08:50:36.655Z</time></trkpt><trkpt lat="44.03531" lon="12.1715883"><ele>238.59999999999997</ele><time>2026-04-30T08:50:37.648Z</time></trkpt><trkpt lat="44.03522" lon="12.17153"><ele>238.79999999999998</ele><time>2026-04-30T08:50:38.646Z</time></trkpt><trkpt lat="44.0351183" lon="12.171475"><ele>239.0</ele><time>2026-04-30T08:50:39.649Z</time></trkpt><trkpt lat="44.0350067" lon="12.17142"><ele>242.0</ele><time>2026-04-30T08:50:40.648Z</time></trkpt><trkpt lat="44.0348883" lon="12.1713683"><ele>245.0</ele><time>2026-04-30T08:50:41.647Z</time></trkpt><trkpt lat="44.0347717" lon="12.1713167"><ele>248.0</ele><time>2026-04-30T08:50:42.643Z</time></trkpt><trkpt lat="44.0346617" lon="12.1712617"><ele>251.0</ele><time>2026-04-30T08:50:43.652Z</time></trkpt><trkpt lat="44.0345633" lon="12.1712017"><ele>251.0</ele><time>2026-04-30T08:50:44.642Z</time></trkpt><trkpt lat="44.0344733" lon="12.1711367"><ele>251.00000000000003</ele><time>2026-04-30T08:50:45.655Z</time></trkpt><trkpt lat="44.0343933" lon="12.1710467"><ele>251.00000000000003</ele><time>2026-04-30T08:50:46.647Z</time></trkpt><trkpt lat="44.0343083" lon="12.170935"><ele>251.0</ele><time>2026-04-30T08:50:47.647Z</time></trkpt><trkpt lat="44.0342183" lon="12.1708217"><ele>251.0</ele><time>2026-04-30T08:50:48.653Z</time></trkpt><trkpt lat="44.03413" lon="12.17072"><ele>246.8</ele><time>2026-04-30T08:50:49.643Z</time></trkpt><trkpt lat="44.034045" lon="12.1706433"><ele>242.60000000000002</ele><time>2026-04-30T08:50:50.654Z</time></trkpt><trkpt lat="44.0339633" lon="12.170595"><ele>238.4</ele><time>2026-04-30T08:50:51.645Z</time></trkpt><trkpt lat="44.0338717" lon="12.1705683"><ele>234.2</ele><time>2026-04-30T08:50:52.644Z</time></trkpt><trkpt lat="44.0337733" lon="12.1705783"><ele>230.0</ele><time>2026-04-30T08:50:53.643Z</time></trkpt><trkpt lat="44.033665" lon="12.170625"><ele>232.0</ele><time>2026-04-30T08:50:54.644Z</time></trkpt><trkpt lat="44.0335533" lon="12.170695"><ele>234.0</ele><time>2026-04-30T08:50:55.66Z</time></trkpt><trkpt lat="44.0334383" lon="12.1707667"><ele>236.0</ele><time>2026-04-30T08:50:56.65Z</time></trkpt><trkpt lat="44.0333283" lon="12.1708433"><ele>238.0</ele><time>2026-04-30T08:50:57.654Z</time></trkpt><trkpt lat="44.0332367" lon="12.1709367"><ele>238.0</ele><time>2026-04-30T08:50:58.651Z</time></trkpt><trkpt lat="44.0331467" lon="12.1710517"><ele>238.0</ele><time>2026-04-30T08:50:59.651Z</time></trkpt><trkpt lat="44.03306" lon="12.1711783"><ele>238.0</ele><time>2026-04-30T08:51:00.649Z</time></trkpt><trkpt lat="44.032965" lon="12.1713067"><ele>238.0</ele><time>2026-04-30T08:51:01.641Z</time></trkpt><trkpt lat="44.0328633" lon="12.171425"><ele>243.5</ele><time>2026-04-30T08:51:02.644Z</time></trkpt><trkpt lat="44.032755" lon="12.17154"><ele>249.0</ele><time>2026-04-30T08:51:03.647Z</time></trkpt><trkpt lat="44.0326467" lon="12.17165"><ele>254.5</ele><time>2026-04-30T08:51:04.652Z</time></trkpt><trkpt lat="44.032545" lon="12.1717533"><ele>260.0</ele><time>2026-04-30T08:51:05.654Z</time></trkpt><trkpt lat="44.03245" lon="12.1718417"><ele>260.4</ele><time>2026-04-30T08:51:06.657Z</time></trkpt><trkpt lat="44.0323583" lon="12.171905"><ele>260.8</ele><time>2026-04-30T08:51:07.644Z</time></trkpt><trkpt lat="44.0322617" lon="12.17194"><ele>261.2</ele><time>2026-04-30T08:51:08.638Z</time></trkpt><trkpt lat="44.0321467" lon="12.1719667"><ele>261.6</ele><time>2026-04-30T08:51:09.642Z</time></trkpt><trkpt lat="44.032025" lon="12.1719817"><ele>262.0</ele><time>2026-04-30T08:51:10.643Z</time></trkpt><trkpt lat="44.031905" lon="12.1719867"><ele>262.0</ele><time>2026-04-30T08:51:11.647Z</time></trkpt><trkpt lat="44.0317867" lon="12.1719733"><ele>262.0</ele><time>2026-04-30T08:51:12.648Z</time></trkpt><trkpt lat="44.0316733" lon="12.1719433"><ele>262.0</ele><time>2026-04-30T08:51:13.65Z</time></trkpt><trkpt lat="44.031565" lon="12.17191"><ele>262.0</ele><time>2026-04-30T08:51:14.65Z</time></trkpt><trkpt lat="44.0314583" lon="12.171885"><ele>263.0</ele><time>2026-04-30T08:51:15.654Z</time></trkpt><trkpt lat="44.031355" lon="12.1718717"><ele>264.0</ele><time>2026-04-30T08:51:16.649Z</time></trkpt><trkpt lat="44.0312567" lon="12.1718683"><ele>265.0</ele><time>2026-04-30T08:51:17.65Z</time></trkpt><trkpt lat="44.03116" lon="12.1718683"><ele>266.0</ele><time>2026-04-30T08:51:18.641Z</time></trkpt><trkpt lat="44.03107" lon="12.1718767"><ele>267.0</ele><time>2026-04-30T08:51:19.648Z</time></trkpt><trkpt lat="44.0309817" lon="12.171885"><ele>267.0</ele><time>2026-04-30T08:51:20.649Z</time></trkpt><trkpt lat="44.0308867" lon="12.1718883"><ele>267.0</ele><time>2026-04-30T08:51:21.662Z</time></trkpt><trkpt lat="44.0307967" lon="12.1718917"><ele>267.0</ele><time>2026-04-30T08:51:22.658Z</time></trkpt><trkpt lat="44.0307083" lon="12.1718917"><ele>267.0</ele><time>2026-04-30T08:51:23.645Z</time></trkpt><trkpt lat="44.03062" lon="12.171885"><ele>267.0</ele><time>2026-04-30T08:51:24.646Z</time></trkpt><trkpt lat="44.03054" lon="12.171875"><ele>267.0</ele><time>2026-04-30T08:51:25.652Z</time></trkpt><trkpt lat="44.0304617" lon="12.1718583"><ele>266.5</ele><time>2026-04-30T08:51:26.644Z</time></trkpt><trkpt lat="44.0303883" lon="12.1718333"><ele>266.0</ele><time>2026-04-30T08:51:27.645Z</time></trkpt><trkpt lat="44.0303183" lon="12.1717933"><ele>265.5</ele><time>2026-04-30T08:51:28.661Z</time></trkpt><trkpt lat="44.03025" lon="12.171745"><ele>265.0</ele><time>2026-04-30T08:51:29.651Z</time></trkpt><trkpt lat="44.0301917" lon="12.1716867"><ele>264.5</ele><time>2026-04-30T08:51:30.641Z</time></trkpt><trkpt lat="44.0301467" lon="12.1716233"><ele>264.0</ele><time>2026-04-30T08:51:31.648Z</time></trkpt><trkpt lat="44.0300767" lon="12.1714917"><ele>262.2</ele><time>2026-04-30T08:51:33.656Z</time></trkpt><trkpt lat="44.0300217" lon="12.171355"><ele>260.4</ele><time>2026-04-30T08:51:35.647Z</time></trkpt><trkpt lat="44.0299733" lon="12.171225"><ele>258.6</ele><time>2026-04-30T08:51:37.646Z</time></trkpt><trkpt lat="44.0299333" lon="12.1711283"><ele>256.8</ele><time>2026-04-30T08:51:39.639Z</time></trkpt><trkpt lat="44.0298367" lon="12.171055"><ele>255.0</ele><time>2026-04-30T09:07:45.657Z</time></trkpt><trkpt lat="44.0297617" lon="12.17102"><ele>255.0</ele><time>2026-04-30T09:07:48.646Z</time></trkpt><trkpt lat="44.0296867" lon="12.17101"><ele>255.0</ele><time>2026-04-30T09:08:31.664Z</time></trkpt><trkpt lat="44.0296183" lon="12.1709783"><ele>255.0</ele><time>2026-04-30T09:08:33.641Z</time></trkpt><trkpt lat="44.029515" lon="12.1708883"><ele>255.0</ele><time>2026-04-30T09:08:35.644Z</time></trkpt><trkpt lat="44.029465" lon="12.1708233"><ele>255.0</ele><time>2026-04-30T09:08:36.657Z</time></trkpt><trkpt lat="44.0294133" lon="12.1707517"><ele>255.0</ele><time>2026-04-30T09:08:37.639Z</time></trkpt><trkpt lat="44.029355" lon="12.1706817"><ele>254.0</ele><time>2026-04-30T09:08:38.644Z</time></trkpt><trkpt lat="44.0292833" lon="12.17062"><ele>253.0</ele><time>2026-04-30T09:08:39.643Z</time></trkpt><trkpt lat="44.0292017" lon="12.1705767"><ele>252.0</ele><time>2026-04-30T09:08:40.654Z</time></trkpt><trkpt lat="44.0291217" lon="12.1705367"><ele>251.0</ele><time>2026-04-30T09:08:41.642Z</time></trkpt><trkpt lat="44.02904" lon="12.1704767"><ele>250.0</ele><time>2026-04-30T09:08:42.652Z</time></trkpt><trkpt lat="44.0289667" lon="12.170395"><ele>249.0</ele><time>2026-04-30T09:08:43.645Z</time></trkpt><trkpt lat="44.0289" lon="12.1702817"><ele>248.75</ele><time>2026-04-30T09:08:44.642Z</time></trkpt><trkpt lat="44.0288383" lon="12.17014"><ele>248.5</ele><time>2026-04-30T09:08:45.646Z</time></trkpt><trkpt lat="44.0287833" lon="12.169995"><ele>248.25</ele><time>2026-04-30T09:08:46.645Z</time></trkpt><trkpt lat="44.0287267" lon="12.1698533"><ele>248.0</ele><time>2026-04-30T09:08:47.647Z</time></trkpt><trkpt lat="44.0286717" lon="12.1697217"><ele>248.0</ele><time>2026-04-30T09:08:48.643Z</time></trkpt><trkpt lat="44.0286183" lon="12.16961"><ele>248.0</ele><time>2026-04-30T09:08:49.64Z</time></trkpt><trkpt lat="44.0285533" lon="12.1695083"><ele>248.0</ele><time>2026-04-30T09:08:50.648Z</time></trkpt><trkpt lat="44.02846" lon="12.16942"><ele>248.0</ele><time>2026-04-30T09:08:51.651Z</time></trkpt><trkpt lat="44.02836" lon="12.1693467"><ele>248.0</ele><time>2026-04-30T09:08:52.647Z</time></trkpt><trkpt lat="44.0282733" lon="12.16928"><ele>248.2</ele><time>2026-04-30T09:08:53.648Z</time></trkpt><trkpt lat="44.0282117" lon="12.1692033"><ele>248.4</ele><time>2026-04-30T09:08:54.647Z</time></trkpt><trkpt lat="44.0281617" lon="12.1691167"><ele>248.59999999999997</ele><time>2026-04-30T09:08:55.651Z</time></trkpt><trkpt lat="44.028125" lon="12.1690183"><ele>248.79999999999998</ele><time>2026-04-30T09:08:56.641Z</time></trkpt><trkpt lat="44.0280883" lon="12.1688683"><ele>249.0</ele><time>2026-04-30T09:08:58.638Z</time></trkpt><trkpt lat="44.0280267" lon="12.1687067"><ele>250.79999999999998</ele><time>2026-04-30T09:09:00.65Z</time></trkpt><trkpt lat="44.0279833" lon="12.1686283"><ele>252.59999999999997</ele><time>2026-04-30T09:09:01.646Z</time></trkpt><trkpt lat="44.0279" lon="12.168535"><ele>254.4</ele><time>2026-04-30T09:09:02.649Z</time></trkpt><trkpt lat="44.0278133" lon="12.16844"><ele>256.2</ele><time>2026-04-30T09:09:03.654Z</time></trkpt><trkpt lat="44.02773" lon="12.1683433"><ele>258.0</ele><time>2026-04-30T09:09:04.644Z</time></trkpt><trkpt lat="44.0276683" lon="12.1682417"><ele>258.4</ele><time>2026-04-30T09:09:05.648Z</time></trkpt><trkpt lat="44.027615" lon="12.168125"><ele>258.8</ele><time>2026-04-30T09:09:06.651Z</time></trkpt><trkpt lat="44.02756" lon="12.1679833"><ele>259.2</ele><time>2026-04-30T09:09:07.655Z</time></trkpt><trkpt lat="44.0275083" lon="12.1678317"><ele>259.6</ele><time>2026-04-30T09:09:08.65Z</time></trkpt><trkpt lat="44.0274667" lon="12.16769"><ele>260.0</ele><time>2026-04-30T09:09:09.648Z</time></trkpt><trkpt lat="44.0274267" lon="12.1675617"><ele>260.8</ele><time>2026-04-30T09:09:10.638Z</time></trkpt><trkpt lat="44.02738" lon="12.1674467"><ele>261.6</ele><time>2026-04-30T09:09:11.638Z</time></trkpt><trkpt lat="44.0273183" lon="12.1673367"><ele>262.4</ele><time>2026-04-30T09:09:12.647Z</time></trkpt><trkpt lat="44.0272467" lon="12.1672317"><ele>263.2</ele><time>2026-04-30T09:09:13.651Z</time></trkpt><trkpt lat="44.0271783" lon="12.1671367"><ele>264.0</ele><time>2026-04-30T09:09:14.646Z</time></trkpt><trkpt lat="44.02712" lon="12.167045"><ele>264.0</ele><time>2026-04-30T09:09:15.669Z</time></trkpt><trkpt lat="44.0270733" lon="12.166945"><ele>264.0</ele><time>2026-04-30T09:09:16.641Z</time></trkpt><trkpt lat="44.0270317" lon="12.166835"><ele>264.0</ele><time>2026-04-30T09:09:17.651Z</time></trkpt><trkpt lat="44.0269917" lon="12.1667217"><ele>264.0</ele><time>2026-04-30T09:09:18.643Z</time></trkpt><trkpt lat="44.02695" lon="12.166605"><ele>264.0</ele><time>2026-04-30T09:09:19.647Z</time></trkpt><trkpt lat="44.026905" lon="12.166485"><ele>264.8</ele><time>2026-04-30T09:09:20.648Z</time></trkpt><trkpt lat="44.0268617" lon="12.166365"><ele>265.59999999999997</ele><time>2026-04-30T09:09:21.647Z</time></trkpt><trkpt lat="44.0268267" lon="12.1662433"><ele>266.4</ele><time>2026-04-30T09:09:22.643Z</time></trkpt><trkpt lat="44.0268" lon="12.1661233"><ele>267.2</ele><time>2026-04-30T09:09:23.646Z</time></trkpt><trkpt lat="44.0267817" lon="12.1660017"><ele>268.0</ele><time>2026-04-30T09:09:24.646Z</time></trkpt><trkpt lat="44.0267717" lon="12.165885"><ele>268.0</ele><time>2026-04-30T09:09:25.648Z</time></trkpt><trkpt lat="44.0267733" lon="12.1657833"><ele>268.0</ele><time>2026-04-30T09:09:26.653Z</time></trkpt><trkpt lat="44.0268017" lon="12.1656983"><ele>268.0</ele><time>2026-04-30T09:09:27.658Z</time></trkpt><trkpt lat="44.0268583" lon="12.16564"><ele>268.0</ele><time>2026-04-30T09:09:28.643Z</time></trkpt><trkpt lat="44.02692" lon="12.1656017"><ele>268.0</ele><time>2026-04-30T09:09:29.652Z</time></trkpt><trkpt lat="44.0269983" lon="12.1656"><ele>268.0</ele><time>2026-04-30T09:09:30.643Z</time></trkpt><trkpt lat="44.02708" lon="12.1656233"><ele>268.0</ele><time>2026-04-30T09:09:31.647Z</time></trkpt><trkpt lat="44.02716" lon="12.16565"><ele>268.5</ele><time>2026-04-30T09:09:32.649Z</time></trkpt><trkpt lat="44.0272317" lon="12.1656583"><ele>269.0</ele><time>2026-04-30T09:09:33.645Z</time></trkpt><trkpt lat="44.0272983" lon="12.1656333"><ele>269.5</ele><time>2026-04-30T09:09:34.645Z</time></trkpt><trkpt lat="44.0273483" lon="12.1655633"><ele>270.0</ele><time>2026-04-30T09:09:35.645Z</time></trkpt><trkpt lat="44.0273867" lon="12.1654583"><ele>270.5</ele><time>2026-04-30T09:09:36.639Z</time></trkpt><trkpt lat="44.0274117" lon="12.16531"><ele>271.0</ele><time>2026-04-30T09:09:37.642Z</time></trkpt><trkpt lat="44.0274267" lon="12.1651483"><ele>271.0</ele><time>2026-04-30T09:09:38.649Z</time></trkpt><trkpt lat="44.02744" lon="12.1649833"><ele>271.0</ele><time>2026-04-30T09:09:39.65Z</time></trkpt><trkpt lat="44.027445" lon="12.164805"><ele>271.0</ele><time>2026-04-30T09:09:40.65Z</time></trkpt><trkpt lat="44.0274417" lon="12.16463"><ele>271.0</ele><time>2026-04-30T09:09:41.659Z</time></trkpt><trkpt lat="44.0274367" lon="12.164465"><ele>270.6</ele><time>2026-04-30T09:09:42.642Z</time></trkpt><trkpt lat="44.0274317" lon="12.1643083"><ele>270.20000000000005</ele><time>2026-04-30T09:09:43.64Z</time></trkpt><trkpt lat="44.0274333" lon="12.1641517"><ele>269.79999999999995</ele><time>2026-04-30T09:09:44.65Z</time></trkpt><trkpt lat="44.0274333" lon="12.1640183"><ele>269.4</ele><time>2026-04-30T09:09:45.646Z</time></trkpt><trkpt lat="44.02743" lon="12.1639033"><ele>269.0</ele><time>2026-04-30T09:09:46.65Z</time></trkpt><trkpt lat="44.0274183" lon="12.1637933"><ele>268.0</ele><time>2026-04-30T09:09:47.643Z</time></trkpt><trkpt lat="44.0273833" lon="12.1636883"><ele>267.0</ele><time>2026-04-30T09:09:48.645Z</time></trkpt><trkpt lat="44.0273333" lon="12.1635883"><ele>266.0</ele><time>2026-04-30T09:09:49.641Z</time></trkpt><trkpt lat="44.0272667" lon="12.1634933"><ele>265.0</ele><time>2026-04-30T09:09:50.64Z</time></trkpt><trkpt lat="44.0271833" lon="12.1634033"><ele>264.0</ele><time>2026-04-30T09:09:51.644Z</time></trkpt><trkpt lat="44.0271" lon="12.1633017"><ele>262.75</ele><time>2026-04-30T09:09:52.646Z</time></trkpt><trkpt lat="44.0270133" lon="12.16319"><ele>261.5</ele><time>2026-04-30T09:09:53.657Z</time></trkpt><trkpt lat="44.0269183" lon="12.1630717"><ele>260.25</ele><time>2026-04-30T09:09:54.638Z</time></trkpt><trkpt lat="44.0268233" lon="12.162955"><ele>259.0</ele><time>2026-04-30T09:09:55.645Z</time></trkpt><trkpt lat="44.0267317" lon="12.162845"><ele>259.0</ele><time>2026-04-30T09:09:56.645Z</time></trkpt><trkpt lat="44.0266483" lon="12.1627433"><ele>259.0</ele><time>2026-04-30T09:09:57.653Z</time></trkpt><trkpt lat="44.0265717" lon="12.1626467"><ele>259.0</ele><time>2026-04-30T09:09:58.647Z</time></trkpt><trkpt lat="44.0265" lon="12.16255"><ele>259.0</ele><time>2026-04-30T09:09:59.641Z</time></trkpt><trkpt lat="44.0264367" lon="12.1624583"><ele>259.0</ele><time>2026-04-30T09:10:00.644Z</time></trkpt><trkpt lat="44.02637" lon="12.1623817"><ele>257.8</ele><time>2026-04-30T09:10:01.641Z</time></trkpt><trkpt lat="44.026295" lon="12.16232"><ele>256.59999999999997</ele><time>2026-04-30T09:10:02.64Z</time></trkpt><trkpt lat="44.026215" lon="12.162275"><ele>255.4</ele><time>2026-04-30T09:10:03.646Z</time></trkpt><trkpt lat="44.02613" lon="12.1622417"><ele>254.2</ele><time>2026-04-30T09:10:04.645Z</time></trkpt><trkpt lat="44.02604" lon="12.162215"><ele>253.0</ele><time>2026-04-30T09:10:05.645Z</time></trkpt><trkpt lat="44.0259417" lon="12.16219"><ele>253.0</ele><time>2026-04-30T09:10:06.646Z</time></trkpt><trkpt lat="44.025845" lon="12.1621683"><ele>253.0</ele><time>2026-04-30T09:10:07.643Z</time></trkpt><trkpt lat="44.02575" lon="12.1621483"><ele>253.0</ele><time>2026-04-30T09:10:08.645Z</time></trkpt><trkpt lat="44.025655" lon="12.1621267"><ele>253.0</ele><time>2026-04-30T09:10:09.647Z</time></trkpt><trkpt lat="44.02556" lon="12.162105"><ele>253.0</ele><time>2026-04-30T09:10:10.655Z</time></trkpt><trkpt lat="44.0254733" lon="12.162075"><ele>253.0</ele><time>2026-04-30T09:10:11.644Z</time></trkpt><trkpt lat="44.0253967" lon="12.162025"><ele>253.0</ele><time>2026-04-30T09:10:12.649Z</time></trkpt><trkpt lat="44.025325" lon="12.16195"><ele>253.0</ele><time>2026-04-30T09:10:13.644Z</time></trkpt><trkpt lat="44.0252467" lon="12.16183"><ele>253.0</ele><time>2026-04-30T09:10:14.649Z</time></trkpt><trkpt lat="44.0251667" lon="12.1617"><ele>253.0</ele><time>2026-04-30T09:10:15.646Z</time></trkpt><trkpt lat="44.0250817" lon="12.16158"><ele>251.5</ele><time>2026-04-30T09:10:16.646Z</time></trkpt><trkpt lat="44.0249933" lon="12.1614767"><ele>250.0</ele><time>2026-04-30T09:10:17.642Z</time></trkpt><trkpt lat="44.0249017" lon="12.161375"><ele>248.5</ele><time>2026-04-30T09:10:18.644Z</time></trkpt><trkpt lat="44.0248" lon="12.1612717"><ele>247.0</ele><time>2026-04-30T09:10:19.648Z</time></trkpt><trkpt lat="44.02469" lon="12.1611683"><ele>246.5</ele><time>2026-04-30T09:10:20.639Z</time></trkpt><trkpt lat="44.0245767" lon="12.1610617"><ele>246.0</ele><time>2026-04-30T09:10:21.648Z</time></trkpt><trkpt lat="44.0244633" lon="12.1609533"><ele>245.5</ele><time>2026-04-30T09:10:22.644Z</time></trkpt><trkpt lat="44.0243533" lon="12.1608383"><ele>245.0</ele><time>2026-04-30T09:10:23.648Z</time></trkpt><trkpt lat="44.024245" lon="12.1607217"><ele>244.5</ele><time>2026-04-30T09:10:24.652Z</time></trkpt><trkpt lat="44.0241383" lon="12.1606017"><ele>244.0</ele><time>2026-04-30T09:10:25.644Z</time></trkpt><trkpt lat="44.0240217" lon="12.1604867"><ele>243.5</ele><time>2026-04-30T09:10:26.65Z</time></trkpt><trkpt lat="44.0239083" lon="12.1603683"><ele>243.0</ele><time>2026-04-30T09:10:27.648Z</time></trkpt><trkpt lat="44.0237883" lon="12.160255"><ele>243.0</ele><time>2026-04-30T09:10:28.644Z</time></trkpt><trkpt lat="44.02366" lon="12.1601517"><ele>243.0</ele><time>2026-04-30T09:10:29.647Z</time></trkpt><trkpt lat="44.0235283" lon="12.1600467"><ele>243.0</ele><time>2026-04-30T09:10:30.648Z</time></trkpt><trkpt lat="44.0233933" lon="12.1599417"><ele>243.0</ele><time>2026-04-30T09:10:31.645Z</time></trkpt><trkpt lat="44.0232533" lon="12.15984"><ele>243.0</ele><time>2026-04-30T09:10:32.661Z</time></trkpt><trkpt lat="44.0231117" lon="12.1597283"><ele>243.0</ele><time>2026-04-30T09:10:33.645Z</time></trkpt><trkpt lat="44.0229717" lon="12.1596217"><ele>243.0</ele><time>2026-04-30T09:10:34.643Z</time></trkpt><trkpt lat="44.0228333" lon="12.15952"><ele>243.0</ele><time>2026-04-30T09:10:35.643Z</time></trkpt><trkpt lat="44.0226967" lon="12.15942"><ele>243.0</ele><time>2026-04-30T09:10:36.649Z</time></trkpt><trkpt lat="44.0225717" lon="12.1593133"><ele>242.66666666666669</ele><time>2026-04-30T09:10:37.644Z</time></trkpt><trkpt lat="44.0224517" lon="12.1591917"><ele>242.33333333333334</ele><time>2026-04-30T09:10:38.645Z</time></trkpt><trkpt lat="44.02233" lon="12.1590567"><ele>242.0</ele><time>2026-04-30T09:10:39.645Z</time></trkpt><trkpt lat="44.0222117" lon="12.1589117"><ele>243.33333333333334</ele><time>2026-04-30T09:10:40.643Z</time></trkpt><trkpt lat="44.02209" lon="12.1587633"><ele>244.66666666666669</ele><time>2026-04-30T09:10:41.653Z</time></trkpt><trkpt lat="44.0219667" lon="12.1586167"><ele>246.0</ele><time>2026-04-30T09:10:42.644Z</time></trkpt><trkpt lat="44.02184" lon="12.1584667"><ele>246.0</ele><time>2026-04-30T09:10:43.65Z</time></trkpt><trkpt lat="44.021715" lon="12.158315"><ele>246.0</ele><time>2026-04-30T09:10:44.644Z</time></trkpt><trkpt lat="44.0215883" lon="12.158165"><ele>246.0</ele><time>2026-04-30T09:10:45.641Z</time></trkpt><trkpt lat="44.02146" lon="12.1580133"><ele>247.75</ele><time>2026-04-30T09:10:46.66Z</time></trkpt><trkpt lat="44.0213417" lon="12.157875"><ele>249.5</ele><time>2026-04-30T09:10:47.642Z</time></trkpt><trkpt lat="44.0212267" lon="12.1577467"><ele>251.25</ele><time>2026-04-30T09:10:48.648Z</time></trkpt><trkpt lat="44.0211217" lon="12.1576233"><ele>253.0</ele><time>2026-04-30T09:10:49.653Z</time></trkpt><trkpt lat="44.0210283" lon="12.157505"><ele>253.0</ele><time>2026-04-30T09:10:50.645Z</time></trkpt><trkpt lat="44.02094" lon="12.1573767"><ele>253.0</ele><time>2026-04-30T09:10:51.65Z</time></trkpt><trkpt lat="44.02086" lon="12.1572267"><ele>253.0</ele><time>2026-04-30T09:10:52.694Z</time></trkpt><trkpt lat="44.0207833" lon="12.157065"><ele>253.0</ele><time>2026-04-30T09:10:53.651Z</time></trkpt><trkpt lat="44.02071" lon="12.1568983"><ele>253.0</ele><time>2026-04-30T09:10:54.659Z</time></trkpt><trkpt lat="44.0206417" lon="12.1567267"><ele>253.0</ele><time>2026-04-30T09:10:55.65Z</time></trkpt><trkpt lat="44.02058" lon="12.15655"><ele>253.0</ele><time>2026-04-30T09:10:56.645Z</time></trkpt><trkpt lat="44.0205333" lon="12.156375"><ele>253.0</ele><time>2026-04-30T09:10:57.647Z</time></trkpt><trkpt lat="44.020505" lon="12.156205"><ele>253.0</ele><time>2026-04-30T09:10:58.644Z</time></trkpt><trkpt lat="44.02049" lon="12.1560417"><ele>253.0</ele><time>2026-04-30T09:10:59.646Z</time></trkpt><trkpt lat="44.0204867" lon="12.1558783"><ele>253.0</ele><time>2026-04-30T09:11:00.651Z</time></trkpt><trkpt lat="44.0204917" lon="12.1557083"><ele>253.0</ele><time>2026-04-30T09:11:01.645Z</time></trkpt><trkpt lat="44.0205067" lon="12.15553"><ele>251.0</ele><time>2026-04-30T09:11:02.643Z</time></trkpt><trkpt lat="44.02053" lon="12.1553583"><ele>249.0</ele><time>2026-04-30T09:11:03.643Z</time></trkpt><trkpt lat="44.0205583" lon="12.1551933"><ele>247.0</ele><time>2026-04-30T09:11:04.646Z</time></trkpt><trkpt lat="44.0205917" lon="12.155025"><ele>245.0</ele><time>2026-04-30T09:11:05.644Z</time></trkpt><trkpt lat="44.020635" lon="12.1548583"><ele>246.0</ele><time>2026-04-30T09:11:06.645Z</time></trkpt><trkpt lat="44.0206867" lon="12.1546933"><ele>247.0</ele><time>2026-04-30T09:11:07.639Z</time></trkpt><trkpt lat="44.0207417" lon="12.1545267"><ele>248.0</ele><time>2026-04-30T09:11:08.651Z</time></trkpt><trkpt lat="44.0207983" lon="12.1543583"><ele>249.0</ele><time>2026-04-30T09:11:09.646Z</time></trkpt><trkpt lat="44.020855" lon="12.1541867"><ele>249.0</ele><time>2026-04-30T09:11:10.642Z</time></trkpt><trkpt lat="44.0209067" lon="12.15402"><ele>249.0</ele><time>2026-04-30T09:11:11.655Z</time></trkpt><trkpt lat="44.0209567" lon="12.1538583"><ele>249.0</ele><time>2026-04-30T09:11:12.652Z</time></trkpt><trkpt lat="44.0210033" lon="12.153705"><ele>249.0</ele><time>2026-04-30T09:11:13.653Z</time></trkpt><trkpt lat="44.021045" lon="12.1535633"><ele>249.0</ele><time>2026-04-30T09:11:14.643Z</time></trkpt><trkpt lat="44.0210833" lon="12.1534333"><ele>249.0</ele><time>2026-04-30T09:11:15.646Z</time></trkpt><trkpt lat="44.021105" lon="12.153315"><ele>249.0</ele><time>2026-04-30T09:11:16.641Z</time></trkpt><trkpt lat="44.0211183" lon="12.1532067"><ele>249.0</ele><time>2026-04-30T09:11:17.646Z</time></trkpt><trkpt lat="44.02111" lon="12.1531083"><ele>249.0</ele><time>2026-04-30T09:11:18.644Z</time></trkpt><trkpt lat="44.0210767" lon="12.1530167"><ele>249.0</ele><time>2026-04-30T09:11:19.651Z</time></trkpt><trkpt lat="44.021025" lon="12.1529433"><ele>248.39999999999998</ele><time>2026-04-30T09:11:20.651Z</time></trkpt><trkpt lat="44.0209567" lon="12.1528883"><ele>247.79999999999998</ele><time>2026-04-30T09:11:21.643Z</time></trkpt><trkpt lat="44.020865" lon="12.1528633"><ele>247.20000000000002</ele><time>2026-04-30T09:11:22.645Z</time></trkpt><trkpt lat="44.02077" lon="12.1528533"><ele>246.60000000000002</ele><time>2026-04-30T09:11:23.642Z</time></trkpt><trkpt lat="44.0206767" lon="12.1528367"><ele>246.0</ele><time>2026-04-30T09:11:24.646Z</time></trkpt><trkpt lat="44.0205817" lon="12.1528083"><ele>244.66666666666666</ele><time>2026-04-30T09:11:25.648Z</time></trkpt><trkpt lat="44.0204933" lon="12.1527717"><ele>243.33333333333331</ele><time>2026-04-30T09:11:26.644Z</time></trkpt><trkpt lat="44.02041" lon="12.15273"><ele>242.0</ele><time>2026-04-30T09:11:27.649Z</time></trkpt><trkpt lat="44.020335" lon="12.1526817"><ele>240.66666666666666</ele><time>2026-04-30T09:11:28.645Z</time></trkpt><trkpt lat="44.020265" lon="12.1526167"><ele>239.33333333333331</ele><time>2026-04-30T09:11:29.653Z</time></trkpt><trkpt lat="44.0201933" lon="12.15252"><ele>238.0</ele><time>2026-04-30T09:11:30.651Z</time></trkpt><trkpt lat="44.02013" lon="12.1523883"><ele>237.75</ele><time>2026-04-30T09:11:31.655Z</time></trkpt><trkpt lat="44.0200733" lon="12.152245"><ele>237.5</ele><time>2026-04-30T09:11:32.643Z</time></trkpt><trkpt lat="44.0200133" lon="12.1521017"><ele>237.25</ele><time>2026-04-30T09:11:33.651Z</time></trkpt><trkpt lat="44.0199483" lon="12.1519617"><ele>237.0</ele><time>2026-04-30T09:11:34.647Z</time></trkpt><trkpt lat="44.0198817" lon="12.151825"><ele>236.6</ele><time>2026-04-30T09:11:35.647Z</time></trkpt><trkpt lat="44.019815" lon="12.1516983"><ele>236.2</ele><time>2026-04-30T09:11:36.651Z</time></trkpt><trkpt lat="44.0197417" lon="12.151585"><ele>235.8</ele><time>2026-04-30T09:11:37.643Z</time></trkpt><trkpt lat="44.0196617" lon="12.15148"><ele>235.4</ele><time>2026-04-30T09:11:38.648Z</time></trkpt><trkpt lat="44.0195883" lon="12.1513617"><ele>235.0</ele><time>2026-04-30T09:11:39.654Z</time></trkpt><trkpt lat="44.0195183" lon="12.1512233"><ele>235.0</ele><time>2026-04-30T09:11:40.645Z</time></trkpt><trkpt lat="44.0194483" lon="12.15108"><ele>235.0</ele><time>2026-04-30T09:11:41.649Z</time></trkpt><trkpt lat="44.0193617" lon="12.1509483"><ele>235.0</ele><time>2026-04-30T09:11:42.643Z</time></trkpt><trkpt lat="44.0192683" lon="12.1508367"><ele>235.0</ele><time>2026-04-30T09:11:43.648Z</time></trkpt><trkpt lat="44.0191883" lon="12.150725"><ele>232.5</ele><time>2026-04-30T09:11:44.644Z</time></trkpt><trkpt lat="44.0191183" lon="12.15059"><ele>230.0</ele><time>2026-04-30T09:11:45.653Z</time></trkpt><trkpt lat="44.019055" lon="12.1504317"><ele>227.5</ele><time>2026-04-30T09:11:46.65Z</time></trkpt><trkpt lat="44.019005" lon="12.150265"><ele>225.0</ele><time>2026-04-30T09:11:47.644Z</time></trkpt><trkpt lat="44.0189683" lon="12.1501"><ele>225.0</ele><time>2026-04-30T09:11:48.645Z</time></trkpt><trkpt lat="44.0189417" lon="12.1499367"><ele>225.0</ele><time>2026-04-30T09:11:49.64Z</time></trkpt><trkpt lat="44.0189317" lon="12.1497683"><ele>225.0</ele><time>2026-04-30T09:11:50.652Z</time></trkpt><trkpt lat="44.0189333" lon="12.1496083"><ele>225.0</ele><time>2026-04-30T09:11:51.653Z</time></trkpt><trkpt lat="44.0189383" lon="12.1494617"><ele>226.2</ele><time>2026-04-30T09:11:52.645Z</time></trkpt><trkpt lat="44.0189383" lon="12.1493183"><ele>227.4</ele><time>2026-04-30T09:11:53.646Z</time></trkpt><trkpt lat="44.0189233" lon="12.1491767"><ele>228.60000000000002</ele><time>2026-04-30T09:11:54.655Z</time></trkpt><trkpt lat="44.0188967" lon="12.1490317"><ele>229.8</ele><time>2026-04-30T09:11:55.643Z</time></trkpt><trkpt lat="44.0188617" lon="12.1488833"><ele>231.0</ele><time>2026-04-30T09:11:56.639Z</time></trkpt><trkpt lat="44.0188267" lon="12.1487517"><ele>234.20000000000002</ele><time>2026-04-30T09:11:57.651Z</time></trkpt><trkpt lat="44.0187883" lon="12.14863"><ele>237.40000000000003</ele><time>2026-04-30T09:11:58.652Z</time></trkpt><trkpt lat="44.0187383" lon="12.1485133"><ele>240.6</ele><time>2026-04-30T09:11:59.646Z</time></trkpt><trkpt lat="44.0186683" lon="12.148395"><ele>243.8</ele><time>2026-04-30T09:12:00.653Z</time></trkpt><trkpt lat="44.0185717" lon="12.1482833"><ele>247.0</ele><time>2026-04-30T09:12:01.655Z</time></trkpt><trkpt lat="44.0184617" lon="12.1481733"><ele>247.75</ele><time>2026-04-30T09:12:02.642Z</time></trkpt><trkpt lat="44.018345" lon="12.148055"><ele>248.5</ele><time>2026-04-30T09:12:03.651Z</time></trkpt><trkpt lat="44.0182367" lon="12.14794"><ele>249.25</ele><time>2026-04-30T09:12:04.644Z</time></trkpt><trkpt lat="44.01814" lon="12.1478267"><ele>250.0</ele><time>2026-04-30T09:12:05.649Z</time></trkpt><trkpt lat="44.0180617" lon="12.147715"><ele>250.0</ele><time>2026-04-30T09:12:06.648Z</time></trkpt><trkpt lat="44.018005" lon="12.1475967"><ele>250.0</ele><time>2026-04-30T09:12:07.647Z</time></trkpt><trkpt lat="44.0179733" lon="12.1474633"><ele>250.0</ele><time>2026-04-30T09:12:08.649Z</time></trkpt><trkpt lat="44.0179633" lon="12.14732"><ele>250.0</ele><time>2026-04-30T09:12:09.641Z</time></trkpt><trkpt lat="44.01797" lon="12.1471817"><ele>250.0</ele><time>2026-04-30T09:12:10.662Z</time></trkpt><trkpt lat="44.017975" lon="12.14705"><ele>251.4</ele><time>2026-04-30T09:12:11.644Z</time></trkpt><trkpt lat="44.017965" lon="12.1469217"><ele>252.8</ele><time>2026-04-30T09:12:12.651Z</time></trkpt><trkpt lat="44.0179367" lon="12.1467917"><ele>254.2</ele><time>2026-04-30T09:12:13.653Z</time></trkpt><trkpt lat="44.0178817" lon="12.146665"><ele>255.6</ele><time>2026-04-30T09:12:14.646Z</time></trkpt><trkpt lat="44.0178133" lon="12.1465467"><ele>257.0</ele><time>2026-04-30T09:12:15.671Z</time></trkpt><trkpt lat="44.0177383" lon="12.1464417"><ele>257.0</ele><time>2026-04-30T09:12:16.644Z</time></trkpt><trkpt lat="44.0176633" lon="12.1463533"><ele>257.0</ele><time>2026-04-30T09:12:17.642Z</time></trkpt><trkpt lat="44.0175933" lon="12.14627"><ele>257.0</ele><time>2026-04-30T09:12:18.668Z</time></trkpt><trkpt lat="44.01752" lon="12.146195"><ele>257.0</ele><time>2026-04-30T09:12:19.648Z</time></trkpt><trkpt lat="44.0174433" lon="12.14613"><ele>257.0</ele><time>2026-04-30T09:12:20.671Z</time></trkpt><trkpt lat="44.0173617" lon="12.146075"><ele>257.2</ele><time>2026-04-30T09:12:21.644Z</time></trkpt><trkpt lat="44.0172733" lon="12.14604"><ele>257.4</ele><time>2026-04-30T09:12:22.645Z</time></trkpt><trkpt lat="44.0171817" lon="12.1460167"><ele>257.6</ele><time>2026-04-30T09:12:23.647Z</time></trkpt><trkpt lat="44.0170883" lon="12.14601"><ele>257.8</ele><time>2026-04-30T09:12:24.648Z</time></trkpt><trkpt lat="44.0169967" lon="12.1460117"><ele>258.0</ele><time>2026-04-30T09:12:25.648Z</time></trkpt><trkpt lat="44.016905" lon="12.146015"><ele>258.0</ele><time>2026-04-30T09:12:26.643Z</time></trkpt><trkpt lat="44.0168183" lon="12.14602"><ele>258.0</ele><time>2026-04-30T09:12:27.646Z</time></trkpt><trkpt lat="44.0167383" lon="12.1460267"><ele>258.0</ele><time>2026-04-30T09:12:28.639Z</time></trkpt><trkpt lat="44.0166583" lon="12.146035"><ele>258.0</ele><time>2026-04-30T09:12:29.646Z</time></trkpt><trkpt lat="44.0165633" lon="12.146045"><ele>258.0</ele><time>2026-04-30T09:12:30.65Z</time></trkpt><trkpt lat="44.016455" lon="12.1460583"><ele>258.5</ele><time>2026-04-30T09:12:31.66Z</time></trkpt><trkpt lat="44.016335" lon="12.1460733"><ele>259.0</ele><time>2026-04-30T09:12:32.646Z</time></trkpt><trkpt lat="44.0162117" lon="12.1460867"><ele>259.5</ele><time>2026-04-30T09:12:33.648Z</time></trkpt><trkpt lat="44.0160783" lon="12.1461"><ele>260.0</ele><time>2026-04-30T09:12:34.645Z</time></trkpt><trkpt lat="44.015935" lon="12.1461133"><ele>260.33333333333337</ele><time>2026-04-30T09:12:35.641Z</time></trkpt><trkpt lat="44.0157867" lon="12.146145"><ele>260.6666666666667</ele><time>2026-04-30T09:12:36.653Z</time></trkpt><trkpt lat="44.015635" lon="12.146185"><ele>261.0</ele><time>2026-04-30T09:12:37.645Z</time></trkpt><trkpt lat="44.0154933" lon="12.14623"><ele>261.0</ele><time>2026-04-30T09:12:38.65Z</time></trkpt><trkpt lat="44.0153533" lon="12.1462733"><ele>261.0</ele><time>2026-04-30T09:12:39.644Z</time></trkpt><trkpt lat="44.0152133" lon="12.1463"><ele>261.0</ele><time>2026-04-30T09:12:40.639Z</time></trkpt><trkpt lat="44.01507" lon="12.146305"><ele>261.0</ele><time>2026-04-30T09:12:41.64Z</time></trkpt><trkpt lat="44.0149217" lon="12.146275"><ele>261.6666666666667</ele><time>2026-04-30T09:12:42.638Z</time></trkpt><trkpt lat="44.0147633" lon="12.14622"><ele>262.33333333333337</ele><time>2026-04-30T09:12:43.645Z</time></trkpt><trkpt lat="44.0146167" lon="12.1461617"><ele>263.0</ele><time>2026-04-30T09:12:44.646Z</time></trkpt><trkpt lat="44.0144867" lon="12.1461"><ele>263.0</ele><time>2026-04-30T09:12:45.658Z</time></trkpt><trkpt lat="44.0143783" lon="12.146045"><ele>263.0</ele><time>2026-04-30T09:12:46.653Z</time></trkpt><trkpt lat="44.014275" lon="12.1460017"><ele>263.0</ele><time>2026-04-30T09:12:47.645Z</time></trkpt><trkpt lat="44.014165" lon="12.1459567"><ele>263.0</ele><time>2026-04-30T09:12:48.64Z</time></trkpt><trkpt lat="44.0140433" lon="12.1459033"><ele>262.5</ele><time>2026-04-30T09:12:49.653Z</time></trkpt><trkpt lat="44.0139217" lon="12.1458483"><ele>262.0</ele><time>2026-04-30T09:12:50.644Z</time></trkpt><trkpt lat="44.0138133" lon="12.1457867"><ele>261.5</ele><time>2026-04-30T09:12:51.656Z</time></trkpt><trkpt lat="44.013725" lon="12.1457"><ele>261.0</ele><time>2026-04-30T09:12:52.654Z</time></trkpt><trkpt lat="44.013645" lon="12.1455883"><ele>261.0</ele><time>2026-04-30T09:12:53.646Z</time></trkpt><trkpt lat="44.0135733" lon="12.1454467"><ele>261.0</ele><time>2026-04-30T09:12:54.649Z</time></trkpt><trkpt lat="44.0135067" lon="12.1452817"><ele>261.0</ele><time>2026-04-30T09:12:55.645Z</time></trkpt><trkpt lat="44.01343" lon="12.1451083"><ele>261.0</ele><time>2026-04-30T09:12:56.648Z</time></trkpt><trkpt lat="44.0133383" lon="12.1449367"><ele>262.5</ele><time>2026-04-30T09:12:57.647Z</time></trkpt><trkpt lat="44.0132417" lon="12.1447733"><ele>264.0</ele><time>2026-04-30T09:12:58.645Z</time></trkpt><trkpt lat="44.0131483" lon="12.1446167"><ele>265.5</ele><time>2026-04-30T09:12:59.641Z</time></trkpt><trkpt lat="44.0130617" lon="12.144465"><ele>267.0</ele><time>2026-04-30T09:13:00.645Z</time></trkpt><trkpt lat="44.0129733" lon="12.1443117"><ele>267.0</ele><time>2026-04-30T09:13:01.64Z</time></trkpt><trkpt lat="44.0128817" lon="12.1441533"><ele>267.0</ele><time>2026-04-30T09:13:02.641Z</time></trkpt><trkpt lat="44.012795" lon="12.1439883"><ele>267.0</ele><time>2026-04-30T09:13:03.642Z</time></trkpt><trkpt lat="44.012705" lon="12.1438233"><ele>267.0</ele><time>2026-04-30T09:13:04.642Z</time></trkpt><trkpt lat="44.0126167" lon="12.1436567"><ele>268.0</ele><time>2026-04-30T09:13:05.648Z</time></trkpt><trkpt lat="44.012525" lon="12.1434917"><ele>269.0</ele><time>2026-04-30T09:13:06.645Z</time></trkpt><trkpt lat="44.0124333" lon="12.1433433"><ele>270.0</ele><time>2026-04-30T09:13:07.644Z</time></trkpt><trkpt lat="44.01235" lon="12.1432017"><ele>271.0</ele><time>2026-04-30T09:13:08.645Z</time></trkpt><trkpt lat="44.012275" lon="12.1430617"><ele>274.0</ele><time>2026-04-30T09:13:09.651Z</time></trkpt><trkpt lat="44.01221" lon="12.1429233"><ele>277.0</ele><time>2026-04-30T09:13:10.64Z</time></trkpt><trkpt lat="44.0121533" lon="12.1427817"><ele>280.0</ele><time>2026-04-30T09:13:11.647Z</time></trkpt><trkpt lat="44.01211" lon="12.142645"><ele>283.0</ele><time>2026-04-30T09:13:12.643Z</time></trkpt><trkpt lat="44.0120633" lon="12.142495"><ele>283.5</ele><time>2026-04-30T09:13:13.65Z</time></trkpt><trkpt lat="44.0120233" lon="12.142335"><ele>284.0</ele><time>2026-04-30T09:13:14.643Z</time></trkpt><trkpt lat="44.011985" lon="12.14217"><ele>284.5</ele><time>2026-04-30T09:13:15.642Z</time></trkpt><trkpt lat="44.0119417" lon="12.1419933"><ele>285.0</ele><time>2026-04-30T09:13:16.645Z</time></trkpt><trkpt lat="44.0118933" lon="12.1418133"><ele>285.0</ele><time>2026-04-30T09:13:17.648Z</time></trkpt><trkpt lat="44.0118467" lon="12.1416267"><ele>285.0</ele><time>2026-04-30T09:13:18.645Z</time></trkpt><trkpt lat="44.0118017" lon="12.1414317"><ele>285.0</ele><time>2026-04-30T09:13:19.649Z</time></trkpt><trkpt lat="44.0117567" lon="12.1412383"><ele>285.0</ele><time>2026-04-30T09:13:20.656Z</time></trkpt><trkpt lat="44.0117117" lon="12.1410383"><ele>285.25</ele><time>2026-04-30T09:13:21.646Z</time></trkpt><trkpt lat="44.0116667" lon="12.1408433"><ele>285.5</ele><time>2026-04-30T09:13:22.661Z</time></trkpt><trkpt lat="44.0116267" lon="12.1406583"><ele>285.75</ele><time>2026-04-30T09:13:23.651Z</time></trkpt><trkpt lat="44.0115833" lon="12.1404867"><ele>286.0</ele><time>2026-04-30T09:13:24.642Z</time></trkpt><trkpt lat="44.011545" lon="12.1403167"><ele>287.75</ele><time>2026-04-30T09:13:25.641Z</time></trkpt><trkpt lat="44.01152" lon="12.14014"><ele>289.5</ele><time>2026-04-30T09:13:26.643Z</time></trkpt><trkpt lat="44.011505" lon="12.1399467"><ele>291.25</ele><time>2026-04-30T09:13:27.65Z</time></trkpt><trkpt lat="44.0115033" lon="12.139745"><ele>293.0</ele><time>2026-04-30T09:13:28.648Z</time></trkpt><trkpt lat="44.011505" lon="12.13954"><ele>293.5</ele><time>2026-04-30T09:13:29.641Z</time></trkpt><trkpt lat="44.0115117" lon="12.1393417"><ele>294.0</ele><time>2026-04-30T09:13:30.644Z</time></trkpt><trkpt lat="44.0115133" lon="12.13915"><ele>294.5</ele><time>2026-04-30T09:13:31.646Z</time></trkpt><trkpt lat="44.0115133" lon="12.1389533"><ele>295.0</ele><time>2026-04-30T09:13:32.637Z</time></trkpt><trkpt lat="44.0115217" lon="12.13876"><ele>295.25</ele><time>2026-04-30T09:13:33.649Z</time></trkpt><trkpt lat="44.01153" lon="12.1385783"><ele>295.5</ele><time>2026-04-30T09:13:34.642Z</time></trkpt><trkpt lat="44.0115567" lon="12.1384083"><ele>295.75</ele><time>2026-04-30T09:13:35.644Z</time></trkpt><trkpt lat="44.01159" lon="12.1382517"><ele>296.0</ele><time>2026-04-30T09:13:36.643Z</time></trkpt><trkpt lat="44.0116283" lon="12.1380983"><ele>294.40000000000003</ele><time>2026-04-30T09:13:37.644Z</time></trkpt><trkpt lat="44.0116667" lon="12.1379483"><ele>292.8</ele><time>2026-04-30T09:13:38.649Z</time></trkpt><trkpt lat="44.01171" lon="12.1378067"><ele>291.20000000000005</ele><time>2026-04-30T09:13:39.648Z</time></trkpt><trkpt lat="44.0117583" lon="12.1376783"><ele>289.6</ele><time>2026-04-30T09:13:40.653Z</time></trkpt><trkpt lat="44.0118133" lon="12.1375583"><ele>288.0</ele><time>2026-04-30T09:13:41.645Z</time></trkpt><trkpt lat="44.0118667" lon="12.13745"><ele>288.6666666666667</ele><time>2026-04-30T09:13:42.641Z</time></trkpt><trkpt lat="44.0119183" lon="12.1373483"><ele>289.3333333333333</ele><time>2026-04-30T09:13:43.646Z</time></trkpt><trkpt lat="44.0119733" lon="12.1372533"><ele>290.0</ele><time>2026-04-30T09:13:44.648Z</time></trkpt><trkpt lat="44.0120367" lon="12.1371717"><ele>290.66666666666663</ele><time>2026-04-30T09:13:45.642Z</time></trkpt><trkpt lat="44.0121067" lon="12.13711"><ele>291.3333333333333</ele><time>2026-04-30T09:13:46.651Z</time></trkpt><trkpt lat="44.012175" lon="12.13706"><ele>292.0</ele><time>2026-04-30T09:13:47.655Z</time></trkpt><trkpt lat="44.01223" lon="12.1370133"><ele>292.0</ele><time>2026-04-30T09:13:48.643Z</time></trkpt><trkpt lat="44.0123083" lon="12.1369433"><ele>292.0</ele><time>2026-04-30T09:13:50.638Z</time></trkpt><trkpt lat="44.012365" lon="12.1368767"><ele>292.0</ele><time>2026-04-30T09:13:54.64Z</time></trkpt><trkpt lat="44.0124383" lon="12.1368217"><ele>292.0</ele><time>2026-04-30T09:15:38.641Z</time></trkpt><trkpt lat="44.0124917" lon="12.1367717"><ele>292.0</ele><time>2026-04-30T09:15:40.657Z</time></trkpt><trkpt lat="44.0125533" lon="12.1367133"><ele>292.0</ele><time>2026-04-30T09:15:42.648Z</time></trkpt><trkpt lat="44.01262" lon="12.1366483"><ele>289.6</ele><time>2026-04-30T09:15:44.65Z</time></trkpt><trkpt lat="44.012695" lon="12.1365833"><ele>287.2</ele><time>2026-04-30T09:15:46.647Z</time></trkpt><trkpt lat="44.0127783" lon="12.13651"><ele>284.8</ele><time>2026-04-30T09:15:48.649Z</time></trkpt><trkpt lat="44.0128733" lon="12.13643"><ele>282.4</ele><time>2026-04-30T09:15:50.656Z</time></trkpt><trkpt lat="44.0129333" lon="12.1363783"><ele>280.0</ele><time>2026-04-30T09:15:51.652Z</time></trkpt><trkpt lat="44.0130133" lon="12.1363117"><ele>279.4</ele><time>2026-04-30T09:15:52.645Z</time></trkpt><trkpt lat="44.0131" lon="12.1362367"><ele>278.8</ele><time>2026-04-30T09:15:53.642Z</time></trkpt><trkpt lat="44.0131883" lon="12.136165"><ele>278.2</ele><time>2026-04-30T09:15:54.666Z</time></trkpt><trkpt lat="44.0132733" lon="12.136095"><ele>277.6</ele><time>2026-04-30T09:15:55.654Z</time></trkpt><trkpt lat="44.0133583" lon="12.1360333"><ele>277.0</ele><time>2026-04-30T09:15:56.652Z</time></trkpt><trkpt lat="44.0134483" lon="12.1359933"><ele>275.8333333333333</ele><time>2026-04-30T09:15:57.647Z</time></trkpt><trkpt lat="44.01354" lon="12.1359733"><ele>274.66666666666663</ele><time>2026-04-30T09:15:58.65Z</time></trkpt><trkpt lat="44.0136233" lon="12.13597"><ele>273.5</ele><time>2026-04-30T09:15:59.649Z</time></trkpt><trkpt lat="44.0136983" lon="12.1359833"><ele>272.3333333333333</ele><time>2026-04-30T09:16:00.653Z</time></trkpt><trkpt lat="44.0137667" lon="12.1360267"><ele>271.1666666666667</ele><time>2026-04-30T09:16:01.641Z</time></trkpt><trkpt lat="44.0138133" lon="12.1361067"><ele>270.0</ele><time>2026-04-30T09:16:02.651Z</time></trkpt><trkpt lat="44.0138383" lon="12.1362167"><ele>270.0</ele><time>2026-04-30T09:16:03.656Z</time></trkpt><trkpt lat="44.01382" lon="12.1363533"><ele>270.0</ele><time>2026-04-30T09:16:04.65Z</time></trkpt><trkpt lat="44.0137783" lon="12.136495"><ele>270.0</ele><time>2026-04-30T09:16:05.646Z</time></trkpt><trkpt lat="44.0137417" lon="12.136635"><ele>270.0</ele><time>2026-04-30T09:16:06.647Z</time></trkpt><trkpt lat="44.013715" lon="12.1367567"><ele>270.0</ele><time>2026-04-30T09:16:07.643Z</time></trkpt><trkpt lat="44.013705" lon="12.1368667"><ele>269.6</ele><time>2026-04-30T09:16:08.653Z</time></trkpt><trkpt lat="44.0137667" lon="12.1369867"><ele>269.2</ele><time>2026-04-30T09:16:10.646Z</time></trkpt><trkpt lat="44.0138933" lon="12.13691"><ele>268.8</ele><time>2026-04-30T09:16:12.647Z</time></trkpt><trkpt lat="44.013955" lon="12.1368283"><ele>268.4</ele><time>2026-04-30T09:16:13.646Z</time></trkpt><trkpt lat="44.0140267" lon="12.1367233"><ele>268.0</ele><time>2026-04-30T09:16:14.649Z</time></trkpt><trkpt lat="44.0141083" lon="12.1366017"><ele>266.0</ele><time>2026-04-30T09:16:15.652Z</time></trkpt><trkpt lat="44.014195" lon="12.1364767"><ele>264.0</ele><time>2026-04-30T09:16:16.643Z</time></trkpt><trkpt lat="44.0142833" lon="12.13636"><ele>262.0</ele><time>2026-04-30T09:16:17.644Z</time></trkpt><trkpt lat="44.0143733" lon="12.13625"><ele>260.0</ele><time>2026-04-30T09:16:18.643Z</time></trkpt><trkpt lat="44.0144617" lon="12.13614"><ele>260.0</ele><time>2026-04-30T09:16:19.661Z</time></trkpt><trkpt lat="44.0145433" lon="12.1360267"><ele>260.0</ele><time>2026-04-30T09:16:20.649Z</time></trkpt><trkpt lat="44.0146083" lon="12.1359033"><ele>260.0</ele><time>2026-04-30T09:16:21.657Z</time></trkpt><trkpt lat="44.0146533" lon="12.13577"><ele>260.0</ele><time>2026-04-30T09:16:22.659Z</time></trkpt><trkpt lat="44.014675" lon="12.1356367"><ele>260.0</ele><time>2026-04-30T09:16:23.648Z</time></trkpt><trkpt lat="44.0146917" lon="12.1355233"><ele>259.28571428571433</ele><time>2026-04-30T09:16:24.651Z</time></trkpt><trkpt lat="44.014725" lon="12.1354333"><ele>258.57142857142856</ele><time>2026-04-30T09:16:25.644Z</time></trkpt><trkpt lat="44.0147767" lon="12.1353783"><ele>257.8571428571429</ele><time>2026-04-30T09:16:26.642Z</time></trkpt><trkpt lat="44.0148433" lon="12.1354067"><ele>257.14285714285717</ele><time>2026-04-30T09:16:27.65Z</time></trkpt><trkpt lat="44.014885" lon="12.13548"><ele>256.42857142857144</ele><time>2026-04-30T09:16:28.644Z</time></trkpt><trkpt lat="44.014925" lon="12.1355767"><ele>255.71428571428572</ele><time>2026-04-30T09:16:29.66Z</time></trkpt><trkpt lat="44.0149767" lon="12.1356633"><ele>255.0</ele><time>2026-04-30T09:16:30.66Z</time></trkpt><trkpt lat="44.0150467" lon="12.1357283"><ele>252.75</ele><time>2026-04-30T09:16:31.64Z</time></trkpt><trkpt lat="44.01516" lon="12.1357"><ele>250.5</ele><time>2026-04-30T09:16:32.65Z</time></trkpt><trkpt lat="44.01528" lon="12.1356533"><ele>248.25</ele><time>2026-04-30T09:16:33.65Z</time></trkpt><trkpt lat="44.0154083" lon="12.1356133"><ele>246.0</ele><time>2026-04-30T09:16:34.646Z</time></trkpt><trkpt lat="44.015535" lon="12.1355833"><ele>246.0</ele><time>2026-04-30T09:16:35.655Z</time></trkpt><trkpt lat="44.0156583" lon="12.1355417"><ele>246.0</ele><time>2026-04-30T09:16:36.64Z</time></trkpt><trkpt lat="44.0157883" lon="12.1354717"><ele>246.0</ele><time>2026-04-30T09:16:37.643Z</time></trkpt><trkpt lat="44.0159217" lon="12.13538"><ele>246.0</ele><time>2026-04-30T09:16:38.647Z</time></trkpt><trkpt lat="44.0160567" lon="12.135285"><ele>243.5</ele><time>2026-04-30T09:16:39.649Z</time></trkpt><trkpt lat="44.0161917" lon="12.13519"><ele>241.0</ele><time>2026-04-30T09:16:40.645Z</time></trkpt><trkpt lat="44.01633" lon="12.1351"><ele>238.5</ele><time>2026-04-30T09:16:41.649Z</time></trkpt><trkpt lat="44.0164633" lon="12.13502"><ele>236.0</ele><time>2026-04-30T09:16:42.649Z</time></trkpt><trkpt lat="44.01659" lon="12.1349433"><ele>231.75</ele><time>2026-04-30T09:16:43.65Z</time></trkpt><trkpt lat="44.0167067" lon="12.1348633"><ele>227.5</ele><time>2026-04-30T09:16:44.661Z</time></trkpt><trkpt lat="44.0168083" lon="12.1347867"><ele>223.25</ele><time>2026-04-30T09:16:45.645Z</time></trkpt><trkpt lat="44.0169033" lon="12.13472"><ele>219.0</ele><time>2026-04-30T09:16:46.656Z</time></trkpt><trkpt lat="44.0169967" lon="12.1346767"><ele>219.0</ele><time>2026-04-30T09:16:47.649Z</time></trkpt><trkpt lat="44.0170933" lon="12.134665"><ele>218.99999999999997</ele><time>2026-04-30T09:16:48.646Z</time></trkpt><trkpt lat="44.0171933" lon="12.1346767"><ele>218.99999999999997</ele><time>2026-04-30T09:16:49.646Z</time></trkpt><trkpt lat="44.0172933" lon="12.1347"><ele>219.0</ele><time>2026-04-30T09:16:50.651Z</time></trkpt><trkpt lat="44.017395" lon="12.1347067"><ele>219.0</ele><time>2026-04-30T09:16:51.66Z</time></trkpt><trkpt lat="44.0175017" lon="12.1346783"><ele>218.0</ele><time>2026-04-30T09:16:52.644Z</time></trkpt><trkpt lat="44.0176067" lon="12.1346083"><ele>217.0</ele><time>2026-04-30T09:16:53.649Z</time></trkpt><trkpt lat="44.0177067" lon="12.134515"><ele>216.0</ele><time>2026-04-30T09:16:54.645Z</time></trkpt><trkpt lat="44.0178067" lon="12.1344283"><ele>215.0</ele><time>2026-04-30T09:16:55.649Z</time></trkpt><trkpt lat="44.0179133" lon="12.13437"><ele>215.0</ele><time>2026-04-30T09:16:56.647Z</time></trkpt><trkpt lat="44.0180267" lon="12.1343567"><ele>215.0</ele><time>2026-04-30T09:16:57.651Z</time></trkpt><trkpt lat="44.0181533" lon="12.1343933"><ele>215.0</ele><time>2026-04-30T09:16:58.646Z</time></trkpt><trkpt lat="44.018285" lon="12.1344517"><ele>215.0</ele><time>2026-04-30T09:16:59.652Z</time></trkpt><trkpt lat="44.0184167" lon="12.1345183"><ele>214.0</ele><time>2026-04-30T09:17:00.647Z</time></trkpt><trkpt lat="44.0185383" lon="12.134585"><ele>213.0</ele><time>2026-04-30T09:17:01.648Z</time></trkpt><trkpt lat="44.0186567" lon="12.13464"><ele>212.0</ele><time>2026-04-30T09:17:02.655Z</time></trkpt><trkpt lat="44.0187767" lon="12.1346783"><ele>211.0</ele><time>2026-04-30T09:17:03.646Z</time></trkpt><trkpt lat="44.018895" lon="12.1347033"><ele>211.0</ele><time>2026-04-30T09:17:04.644Z</time></trkpt><trkpt lat="44.01901" lon="12.1347033"><ele>211.0</ele><time>2026-04-30T09:17:05.651Z</time></trkpt><trkpt lat="44.019125" lon="12.1346783"><ele>211.0</ele><time>2026-04-30T09:17:06.644Z</time></trkpt><trkpt lat="44.0192433" lon="12.1346383"><ele>211.0</ele><time>2026-04-30T09:17:07.654Z</time></trkpt><trkpt lat="44.0193583" lon="12.1345883"><ele>208.75</ele><time>2026-04-30T09:17:08.645Z</time></trkpt><trkpt lat="44.019475" lon="12.1345317"><ele>206.5</ele><time>2026-04-30T09:17:09.648Z</time></trkpt><trkpt lat="44.0195883" lon="12.13448"><ele>204.25</ele><time>2026-04-30T09:17:10.651Z</time></trkpt><trkpt lat="44.0196983" lon="12.13443"><ele>202.0</ele><time>2026-04-30T09:17:11.652Z</time></trkpt><trkpt lat="44.01981" lon="12.1343917"><ele>202.0</ele><time>2026-04-30T09:17:12.651Z</time></trkpt><trkpt lat="44.0199233" lon="12.1343683"><ele>202.0</ele><time>2026-04-30T09:17:13.639Z</time></trkpt><trkpt lat="44.0200433" lon="12.13435"><ele>202.0</ele><time>2026-04-30T09:17:14.643Z</time></trkpt><trkpt lat="44.020165" lon="12.1343317"><ele>202.0</ele><time>2026-04-30T09:17:15.647Z</time></trkpt><trkpt lat="44.0202883" lon="12.1343117"><ele>199.5</ele><time>2026-04-30T09:17:16.647Z</time></trkpt><trkpt lat="44.0204133" lon="12.1342967"><ele>197.0</ele><time>2026-04-30T09:17:17.644Z</time></trkpt><trkpt lat="44.020535" lon="12.13428"><ele>194.5</ele><time>2026-04-30T09:17:18.646Z</time></trkpt><trkpt lat="44.0206467" lon="12.134255"><ele>192.0</ele><time>2026-04-30T09:17:19.65Z</time></trkpt><trkpt lat="44.0207467" lon="12.1342067"><ele>189.6</ele><time>2026-04-30T09:17:20.648Z</time></trkpt><trkpt lat="44.020835" lon="12.1341283"><ele>187.2</ele><time>2026-04-30T09:17:21.65Z</time></trkpt><trkpt lat="44.0209167" lon="12.13402"><ele>184.8</ele><time>2026-04-30T09:17:22.651Z</time></trkpt><trkpt lat="44.0209967" lon="12.13391"><ele>182.4</ele><time>2026-04-30T09:17:23.64Z</time></trkpt><trkpt lat="44.0210717" lon="12.1338217"><ele>180.0</ele><time>2026-04-30T09:17:24.648Z</time></trkpt><trkpt lat="44.0211533" lon="12.1337633"><ele>179.75</ele><time>2026-04-30T09:17:25.647Z</time></trkpt><trkpt lat="44.021255" lon="12.13374"><ele>179.5</ele><time>2026-04-30T09:17:26.643Z</time></trkpt><trkpt lat="44.0213733" lon="12.1337433"><ele>179.25</ele><time>2026-04-30T09:17:27.653Z</time></trkpt><trkpt lat="44.021505" lon="12.1337533"><ele>179.0</ele><time>2026-04-30T09:17:28.653Z</time></trkpt><trkpt lat="44.0216417" lon="12.13376"><ele>175.66666666666666</ele><time>2026-04-30T09:17:29.647Z</time></trkpt><trkpt lat="44.0217883" lon="12.1337633"><ele>172.33333333333334</ele><time>2026-04-30T09:17:30.647Z</time></trkpt><trkpt lat="44.02194" lon="12.13376"><ele>169.0</ele><time>2026-04-30T09:17:31.642Z</time></trkpt><trkpt lat="44.0220933" lon="12.1337633"><ele>169.0</ele><time>2026-04-30T09:17:32.644Z</time></trkpt><trkpt lat="44.0222483" lon="12.133765"><ele>169.0</ele><time>2026-04-30T09:17:33.648Z</time></trkpt><trkpt lat="44.0224017" lon="12.1337683"><ele>169.0</ele><time>2026-04-30T09:17:34.654Z</time></trkpt><trkpt lat="44.0225533" lon="12.1337733"><ele>166.5</ele><time>2026-04-30T09:17:35.644Z</time></trkpt><trkpt lat="44.0227033" lon="12.1337767"><ele>164.0</ele><time>2026-04-30T09:17:36.642Z</time></trkpt><trkpt lat="44.0228517" lon="12.13378"><ele>161.5</ele><time>2026-04-30T09:17:37.642Z</time></trkpt><trkpt lat="44.022995" lon="12.1337783"><ele>159.0</ele><time>2026-04-30T09:17:38.64Z</time></trkpt><trkpt lat="44.0231317" lon="12.1337817"><ele>159.0</ele><time>2026-04-30T09:17:39.646Z</time></trkpt><trkpt lat="44.023265" lon="12.1337833"><ele>159.0</ele><time>2026-04-30T09:17:40.647Z</time></trkpt><trkpt lat="44.02339" lon="12.1337817"><ele>159.0</ele><time>2026-04-30T09:17:41.649Z</time></trkpt><trkpt lat="44.0235133" lon="12.1337783"><ele>159.0</ele><time>2026-04-30T09:17:42.639Z</time></trkpt><trkpt lat="44.0236283" lon="12.133775"><ele>157.8</ele><time>2026-04-30T09:17:43.645Z</time></trkpt><trkpt lat="44.0237367" lon="12.1337717"><ele>156.60000000000002</ele><time>2026-04-30T09:17:44.639Z</time></trkpt><trkpt lat="44.02384" lon="12.13378"><ele>155.4</ele><time>2026-04-30T09:17:45.646Z</time></trkpt><trkpt lat="44.0239367" lon="12.1338033"><ele>154.20000000000002</ele><time>2026-04-30T09:17:46.653Z</time></trkpt><trkpt lat="44.0240367" lon="12.133835"><ele>153.0</ele><time>2026-04-30T09:17:47.64Z</time></trkpt><trkpt lat="44.0241417" lon="12.1338617"><ele>151.6</ele><time>2026-04-30T09:17:48.64Z</time></trkpt><trkpt lat="44.024245" lon="12.133875"><ele>150.20000000000002</ele><time>2026-04-30T09:17:49.643Z</time></trkpt><trkpt lat="44.0243433" lon="12.13389"><ele>148.8</ele><time>2026-04-30T09:17:50.644Z</time></trkpt><trkpt lat="44.024425" lon="12.1339083"><ele>147.4</ele><time>2026-04-30T09:17:51.65Z</time></trkpt><trkpt lat="44.02449" lon="12.1339333"><ele>146.0</ele><time>2026-04-30T09:17:52.644Z</time></trkpt><trkpt lat="44.02453" lon="12.13406"><ele>146.0</ele><time>2026-04-30T09:17:54.648Z</time></trkpt><trkpt lat="44.0244483" lon="12.13413"><ele>146.0</ele><time>2026-04-30T09:17:55.641Z</time></trkpt><trkpt lat="44.024365" lon="12.1341783"><ele>146.0</ele><time>2026-04-30T09:17:56.643Z</time></trkpt><trkpt lat="44.0242583" lon="12.1342167"><ele>146.0</ele><time>2026-04-30T09:17:57.638Z</time></trkpt><trkpt lat="44.0241517" lon="12.1342567"><ele>146.0</ele><time>2026-04-30T09:17:58.643Z</time></trkpt><trkpt lat="44.024065" lon="12.1343083"><ele>146.0</ele><time>2026-04-30T09:17:59.646Z</time></trkpt><trkpt lat="44.0240033" lon="12.1343717"><ele>146.0</ele><time>2026-04-30T09:18:00.641Z</time></trkpt><trkpt lat="44.0240167" lon="12.1345083"><ele>146.0</ele><time>2026-04-30T09:18:02.645Z</time></trkpt><trkpt lat="44.02409" lon="12.134525"><ele>146.0</ele><time>2026-04-30T09:18:03.645Z</time></trkpt><trkpt lat="44.02417" lon="12.1345183"><ele>146.0</ele><time>2026-04-30T09:18:04.646Z</time></trkpt><trkpt lat="44.024265" lon="12.1344983"><ele>146.0</ele><time>2026-04-30T09:18:05.644Z</time></trkpt><trkpt lat="44.0243717" lon="12.1344833"><ele>146.0</ele><time>2026-04-30T09:18:06.641Z</time></trkpt><trkpt lat="44.02448" lon="12.1345017"><ele>146.0</ele><time>2026-04-30T09:18:07.648Z</time></trkpt><trkpt lat="44.0245933" lon="12.1345567"><ele>146.0</ele><time>2026-04-30T09:18:08.646Z</time></trkpt><trkpt lat="44.0247017" lon="12.1346533"><ele>146.0</ele><time>2026-04-30T09:18:09.641Z</time></trkpt><trkpt lat="44.0248083" lon="12.1347733"><ele>144.5</ele><time>2026-04-30T09:18:10.645Z</time></trkpt><trkpt lat="44.0249117" lon="12.1349"><ele>143.0</ele><time>2026-04-30T09:18:11.642Z</time></trkpt><trkpt lat="44.0250083" lon="12.1350233"><ele>141.5</ele><time>2026-04-30T09:18:12.649Z</time></trkpt><trkpt lat="44.025095" lon="12.1351233"><ele>140.0</ele><time>2026-04-30T09:18:13.646Z</time></trkpt><trkpt lat="44.0251783" lon="12.1351883"><ele>138.6</ele><time>2026-04-30T09:18:14.646Z</time></trkpt><trkpt lat="44.02526" lon="12.135225"><ele>137.2</ele><time>2026-04-30T09:18:15.645Z</time></trkpt><trkpt lat="44.025355" lon="12.1352217"><ele>135.8</ele><time>2026-04-30T09:18:16.646Z</time></trkpt><trkpt lat="44.0254717" lon="12.1351667"><ele>134.4</ele><time>2026-04-30T09:18:17.646Z</time></trkpt><trkpt lat="44.025585" lon="12.1351267"><ele>133.0</ele><time>2026-04-30T09:18:18.648Z</time></trkpt><trkpt lat="44.0256983" lon="12.1350833"><ele>133.0</ele><time>2026-04-30T09:18:19.65Z</time></trkpt><trkpt lat="44.0257983" lon="12.13504"><ele>133.0</ele><time>2026-04-30T09:18:20.651Z</time></trkpt><trkpt lat="44.0258933" lon="12.13497"><ele>133.0</ele><time>2026-04-30T09:18:21.64Z</time></trkpt><trkpt lat="44.025965" lon="12.1348717"><ele>133.0</ele><time>2026-04-30T09:18:22.639Z</time></trkpt><trkpt lat="44.02602" lon="12.134745"><ele>133.0</ele><time>2026-04-30T09:18:23.649Z</time></trkpt><trkpt lat="44.0260533" lon="12.134605"><ele>130.0</ele><time>2026-04-30T09:18:24.647Z</time></trkpt><trkpt lat="44.0260583" lon="12.1344567"><ele>127.0</ele><time>2026-04-30T09:18:25.642Z</time></trkpt><trkpt lat="44.0260367" lon="12.1343033"><ele>124.0</ele><time>2026-04-30T09:18:26.647Z</time></trkpt><trkpt lat="44.026005" lon="12.1341433"><ele>121.0</ele><time>2026-04-30T09:18:27.642Z</time></trkpt><trkpt lat="44.0259667" lon="12.1339783"><ele>119.25</ele><time>2026-04-30T09:18:28.646Z</time></trkpt><trkpt lat="44.025925" lon="12.1338133"><ele>117.5</ele><time>2026-04-30T09:18:29.645Z</time></trkpt><trkpt lat="44.025885" lon="12.1336483"><ele>115.75</ele><time>2026-04-30T09:18:30.646Z</time></trkpt><trkpt lat="44.02585" lon="12.1334833"><ele>114.0</ele><time>2026-04-30T09:18:31.646Z</time></trkpt><trkpt lat="44.0258367" lon="12.133315"><ele>113.25</ele><time>2026-04-30T09:18:32.641Z</time></trkpt><trkpt lat="44.0258517" lon="12.1331533"><ele>112.5</ele><time>2026-04-30T09:18:33.639Z</time></trkpt><trkpt lat="44.02589" lon="12.1329933"><ele>111.75</ele><time>2026-04-30T09:18:34.65Z</time></trkpt><trkpt lat="44.0259317" lon="12.1328417"><ele>111.0</ele><time>2026-04-30T09:18:35.647Z</time></trkpt><trkpt lat="44.02597" lon="12.1326967"><ele>111.0</ele><time>2026-04-30T09:18:36.643Z</time></trkpt><trkpt lat="44.0260067" lon="12.1325617"><ele>111.0</ele><time>2026-04-30T09:18:37.646Z</time></trkpt><trkpt lat="44.02604" lon="12.1324317"><ele>111.0</ele><time>2026-04-30T09:18:38.642Z</time></trkpt><trkpt lat="44.0260733" lon="12.1323133"><ele>111.0</ele><time>2026-04-30T09:18:39.644Z</time></trkpt><trkpt lat="44.026105" lon="12.1321967"><ele>111.0</ele><time>2026-04-30T09:18:40.659Z</time></trkpt><trkpt lat="44.0261383" lon="12.1320767"><ele>110.83333333333333</ele><time>2026-04-30T09:18:41.647Z</time></trkpt><trkpt lat="44.02617" lon="12.1319617"><ele>110.66666666666666</ele><time>2026-04-30T09:18:42.644Z</time></trkpt><trkpt lat="44.0261983" lon="12.131845"><ele>110.5</ele><time>2026-04-30T09:18:43.646Z</time></trkpt><trkpt lat="44.026225" lon="12.1317433"><ele>110.33333333333333</ele><time>2026-04-30T09:18:44.649Z</time></trkpt><trkpt lat="44.0262483" lon="12.13165"><ele>110.16666666666666</ele><time>2026-04-30T09:18:45.644Z</time></trkpt><trkpt lat="44.02629" lon="12.1315167"><ele>110.0</ele><time>2026-04-30T09:18:47.644Z</time></trkpt><trkpt lat="44.0263283" lon="12.1314333"><ele>109.99999999999999</ele><time>2026-04-30T09:18:50.648Z</time></trkpt><trkpt lat="44.0262633" lon="12.1315267"><ele>110.0</ele><time>2026-04-30T09:22:15.643Z</time></trkpt><trkpt lat="44.02624" lon="12.1316133"><ele>110.0</ele><time>2026-04-30T09:22:16.646Z</time></trkpt><trkpt lat="44.0262167" lon="12.1317083"><ele>110.0</ele><time>2026-04-30T09:22:17.645Z</time></trkpt><trkpt lat="44.0261883" lon="12.1318183"><ele>109.99999999999999</ele><time>2026-04-30T09:22:18.644Z</time></trkpt><trkpt lat="44.0261567" lon="12.1319417"><ele>110.0</ele><time>2026-04-30T09:22:19.639Z</time></trkpt><trkpt lat="44.026125" lon="12.1320667"><ele>109.99999999999999</ele><time>2026-04-30T09:22:20.653Z</time></trkpt><trkpt lat="44.026095" lon="12.132185"><ele>110.0</ele><time>2026-04-30T09:22:21.658Z</time></trkpt><trkpt lat="44.026065" lon="12.1323"><ele>110.0</ele><time>2026-04-30T09:22:22.645Z</time></trkpt><trkpt lat="44.026035" lon="12.1324167"><ele>110.0</ele><time>2026-04-30T09:22:23.655Z</time></trkpt><trkpt lat="44.0260067" lon="12.1325283"><ele>109.99999999999999</ele><time>2026-04-30T09:22:24.643Z</time></trkpt><trkpt lat="44.02598" lon="12.132635"><ele>110.0</ele><time>2026-04-30T09:22:25.648Z</time></trkpt><trkpt lat="44.0259483" lon="12.132745"><ele>110.16666666666666</ele><time>2026-04-30T09:22:26.64Z</time></trkpt><trkpt lat="44.0259167" lon="12.13286"><ele>110.33333333333333</ele><time>2026-04-30T09:22:27.645Z</time></trkpt><trkpt lat="44.0258883" lon="12.13297"><ele>110.5</ele><time>2026-04-30T09:22:28.645Z</time></trkpt><trkpt lat="44.025865" lon="12.1330683"><ele>110.66666666666666</ele><time>2026-04-30T09:22:29.642Z</time></trkpt><trkpt lat="44.0258483" lon="12.133155"><ele>110.83333333333333</ele><time>2026-04-30T09:22:30.65Z</time></trkpt><trkpt lat="44.0258617" lon="12.1332583"><ele>111.0</ele><time>2026-04-30T09:22:32.647Z</time></trkpt><trkpt lat="44.025945" lon="12.1331717"><ele>111.0</ele><time>2026-04-30T09:22:35.642Z</time></trkpt><trkpt lat="44.026025" lon="12.1330717"><ele>111.0</ele><time>2026-04-30T09:22:37.651Z</time></trkpt><trkpt lat="44.0261333" lon="12.13304"><ele>111.0</ele><time>2026-04-30T09:22:39.646Z</time></trkpt><trkpt lat="44.0261967" lon="12.1330417"><ele>111.0</ele><time>2026-04-30T09:22:40.647Z</time></trkpt><trkpt lat="44.0263133" lon="12.1330717"><ele>111.0</ele><time>2026-04-30T09:22:42.649Z</time></trkpt><trkpt lat="44.02642" lon="12.1330667"><ele>111.0</ele><time>2026-04-30T09:22:44.641Z</time></trkpt><trkpt lat="44.02653" lon="12.13302"><ele>111.0</ele><time>2026-04-30T09:22:46.654Z</time></trkpt><trkpt lat="44.0266433" lon="12.133"><ele>111.0</ele><time>2026-04-30T09:22:48.647Z</time></trkpt><trkpt lat="44.0267433" lon="12.1330117"><ele>111.0</ele><time>2026-04-30T09:22:50.643Z</time></trkpt><trkpt lat="44.02682" lon="12.1330633"><ele>111.0</ele><time>2026-04-30T09:22:52.652Z</time></trkpt><trkpt lat="44.0268867" lon="12.1331517"><ele>110.8</ele><time>2026-04-30T09:22:54.647Z</time></trkpt><trkpt lat="44.0269683" lon="12.13327"><ele>110.6</ele><time>2026-04-30T09:22:56.647Z</time></trkpt><trkpt lat="44.027045" lon="12.13339"><ele>110.4</ele><time>2026-04-30T09:22:58.643Z</time></trkpt><trkpt lat="44.0271067" lon="12.1334733"><ele>110.2</ele><time>2026-04-30T09:23:00.651Z</time></trkpt><trkpt lat="44.0271717" lon="12.1335267"><ele>110.0</ele><time>2026-04-30T09:23:22.647Z</time></trkpt><trkpt lat="44.027245" lon="12.13356"><ele>110.0</ele><time>2026-04-30T09:23:28.649Z</time></trkpt><trkpt lat="44.02734" lon="12.1335433"><ele>110.0</ele><time>2026-04-30T09:23:31.646Z</time></trkpt><trkpt lat="44.027425" lon="12.1335033"><ele>110.0</ele><time>2026-04-30T09:23:33.652Z</time></trkpt><trkpt lat="44.02755" lon="12.1334167"><ele>110.0</ele><time>2026-04-30T09:23:35.645Z</time></trkpt><trkpt lat="44.02761" lon="12.1333617"><ele>110.0</ele><time>2026-04-30T09:23:36.647Z</time></trkpt><trkpt lat="44.027655" lon="12.1332883"><ele>110.0</ele><time>2026-04-30T09:23:37.647Z</time></trkpt><trkpt lat="44.0276917" lon="12.133195"><ele>110.0</ele><time>2026-04-30T09:23:38.644Z</time></trkpt><trkpt lat="44.02773" lon="12.1331117"><ele>110.0</ele><time>2026-04-30T09:23:39.646Z</time></trkpt><trkpt lat="44.027765" lon="12.1330283"><ele>110.0</ele><time>2026-04-30T09:23:40.639Z</time></trkpt><trkpt lat="44.02782" lon="12.1328883"><ele>110.0</ele><time>2026-04-30T09:23:42.656Z</time></trkpt><trkpt lat="44.0278733" lon="12.1327367"><ele>110.0</ele><time>2026-04-30T09:23:44.648Z</time></trkpt><trkpt lat="44.0279317" lon="12.132585"><ele>110.0</ele><time>2026-04-30T09:23:46.642Z</time></trkpt><trkpt lat="44.0279733" lon="12.1324783"><ele>110.0</ele><time>2026-04-30T09:23:48.646Z</time></trkpt><trkpt lat="44.028035" lon="12.1323667"><ele>110.0</ele><time>2026-04-30T09:23:58.645Z</time></trkpt><trkpt lat="44.0280983" lon="12.132225"><ele>110.0</ele><time>2026-04-30T09:24:00.67Z</time></trkpt><trkpt lat="44.0281817" lon="12.1321117"><ele>110.4</ele><time>2026-04-30T09:24:02.662Z</time></trkpt><trkpt lat="44.0282767" lon="12.132055"><ele>110.8</ele><time>2026-04-30T09:24:04.654Z</time></trkpt><trkpt lat="44.028355" lon="12.1319933"><ele>111.19999999999999</ele><time>2026-04-30T09:24:06.642Z</time></trkpt><trkpt lat="44.0284217" lon="12.13191"><ele>111.6</ele><time>2026-04-30T09:24:08.643Z</time></trkpt><trkpt lat="44.0284633" lon="12.1317433"><ele>112.0</ele><time>2026-04-30T09:24:17.651Z</time></trkpt><trkpt lat="44.028395" lon="12.1316133"><ele>113.19999999999999</ele><time>2026-04-30T09:24:19.653Z</time></trkpt><trkpt lat="44.0283417" lon="12.131545"><ele>114.39999999999999</ele><time>2026-04-30T09:24:20.651Z</time></trkpt><trkpt lat="44.0282733" lon="12.1314783"><ele>115.60000000000001</ele><time>2026-04-30T09:24:21.655Z</time></trkpt><trkpt lat="44.0281867" lon="12.131415"><ele>116.80000000000001</ele><time>2026-04-30T09:24:22.653Z</time></trkpt><trkpt lat="44.0280933" lon="12.1313567"><ele>118.0</ele><time>2026-04-30T09:24:23.644Z</time></trkpt><trkpt lat="44.0279967" lon="12.1313"><ele>118.0</ele><time>2026-04-30T09:24:24.653Z</time></trkpt><trkpt lat="44.0278967" lon="12.1312367"><ele>118.0</ele><time>2026-04-30T09:24:25.643Z</time></trkpt><trkpt lat="44.0277933" lon="12.1311717"><ele>118.0</ele><time>2026-04-30T09:24:26.639Z</time></trkpt><trkpt lat="44.02768" lon="12.1311067"><ele>118.0</ele><time>2026-04-30T09:24:27.654Z</time></trkpt><trkpt lat="44.0275683" lon="12.1310383"><ele>117.0</ele><time>2026-04-30T09:24:28.65Z</time></trkpt><trkpt lat="44.0274567" lon="12.1309767"><ele>116.0</ele><time>2026-04-30T09:24:29.649Z</time></trkpt><trkpt lat="44.0273483" lon="12.1309083"><ele>115.0</ele><time>2026-04-30T09:24:30.658Z</time></trkpt><trkpt lat="44.0272433" lon="12.1308433"><ele>114.0</ele><time>2026-04-30T09:24:31.646Z</time></trkpt><trkpt lat="44.0271383" lon="12.13079"><ele>114.0</ele><time>2026-04-30T09:24:32.642Z</time></trkpt><trkpt lat="44.0270317" lon="12.1307417"><ele>114.0</ele><time>2026-04-30T09:24:33.659Z</time></trkpt><trkpt lat="44.0269267" lon="12.1306917"><ele>114.0</ele><time>2026-04-30T09:24:34.65Z</time></trkpt><trkpt lat="44.0268267" lon="12.1306367"><ele>114.0</ele><time>2026-04-30T09:24:35.644Z</time></trkpt><trkpt lat="44.026725" lon="12.1305833"><ele>114.0</ele><time>2026-04-30T09:24:36.657Z</time></trkpt><trkpt lat="44.0266217" lon="12.13053"><ele>115.0</ele><time>2026-04-30T09:24:37.645Z</time></trkpt><trkpt lat="44.0265133" lon="12.1304767"><ele>116.0</ele><time>2026-04-30T09:24:38.659Z</time></trkpt><trkpt lat="44.0264" lon="12.1304267"><ele>117.0</ele><time>2026-04-30T09:24:39.649Z</time></trkpt><trkpt lat="44.0262817" lon="12.1303783"><ele>118.0</ele><time>2026-04-30T09:24:40.653Z</time></trkpt><trkpt lat="44.02616" lon="12.1303283"><ele>118.0</ele><time>2026-04-30T09:24:41.659Z</time></trkpt><trkpt lat="44.0260333" lon="12.1302717"><ele>118.0</ele><time>2026-04-30T09:24:42.647Z</time></trkpt><trkpt lat="44.0259017" lon="12.13021"><ele>118.0</ele><time>2026-04-30T09:24:43.656Z</time></trkpt><trkpt lat="44.02577" lon="12.13015"><ele>118.0</ele><time>2026-04-30T09:24:44.644Z</time></trkpt><trkpt lat="44.0256417" lon="12.1300817"><ele>117.0</ele><time>2026-04-30T09:24:45.652Z</time></trkpt><trkpt lat="44.0255183" lon="12.1300017"><ele>116.0</ele><time>2026-04-30T09:24:46.643Z</time></trkpt><trkpt lat="44.0254" lon="12.1299067"><ele>115.0</ele><time>2026-04-30T09:24:47.657Z</time></trkpt><trkpt lat="44.0252967" lon="12.1297867"><ele>114.0</ele><time>2026-04-30T09:24:48.64Z</time></trkpt><trkpt lat="44.0252083" lon="12.1296417"><ele>114.0</ele><time>2026-04-30T09:24:49.654Z</time></trkpt><trkpt lat="44.025125" lon="12.1294883"><ele>114.0</ele><time>2026-04-30T09:24:50.646Z</time></trkpt><trkpt lat="44.0250433" lon="12.129325"><ele>114.0</ele><time>2026-04-30T09:24:51.664Z</time></trkpt><trkpt lat="44.024965" lon="12.1291567"><ele>114.0</ele><time>2026-04-30T09:24:52.647Z</time></trkpt><trkpt lat="44.0248883" lon="12.1289917"><ele>114.25</ele><time>2026-04-30T09:24:53.644Z</time></trkpt><trkpt lat="44.0248067" lon="12.1288317"><ele>114.5</ele><time>2026-04-30T09:24:54.642Z</time></trkpt><trkpt lat="44.0247183" lon="12.1286767"><ele>114.75</ele><time>2026-04-30T09:24:55.641Z</time></trkpt><trkpt lat="44.0246217" lon="12.1285317"><ele>115.0</ele><time>2026-04-30T09:24:56.64Z</time></trkpt><trkpt lat="44.024515" lon="12.1283983"><ele>115.0</ele><time>2026-04-30T09:24:57.648Z</time></trkpt><trkpt lat="44.0244117" lon="12.12827"><ele>115.0</ele><time>2026-04-30T09:24:58.649Z</time></trkpt><trkpt lat="44.0243017" lon="12.1281517"><ele>115.0</ele><time>2026-04-30T09:24:59.647Z</time></trkpt><trkpt lat="44.0241883" lon="12.12804"><ele>115.0</ele><time>2026-04-30T09:25:00.646Z</time></trkpt><trkpt lat="44.0240767" lon="12.1279217"><ele>115.25</ele><time>2026-04-30T09:25:01.64Z</time></trkpt><trkpt lat="44.0239583" lon="12.127805"><ele>115.5</ele><time>2026-04-30T09:25:02.649Z</time></trkpt><trkpt lat="44.0238417" lon="12.1276817"><ele>115.75</ele><time>2026-04-30T09:25:03.647Z</time></trkpt><trkpt lat="44.0237217" lon="12.1275617"><ele>116.0</ele><time>2026-04-30T09:25:04.645Z</time></trkpt><trkpt lat="44.0236033" lon="12.1274417"><ele>116.0</ele><time>2026-04-30T09:25:05.643Z</time></trkpt><trkpt lat="44.0234883" lon="12.127325"><ele>116.0</ele><time>2026-04-30T09:25:06.645Z</time></trkpt><trkpt lat="44.0233783" lon="12.1272133"><ele>116.0</ele><time>2026-04-30T09:25:07.639Z</time></trkpt><trkpt lat="44.0232717" lon="12.127105"><ele>116.0</ele><time>2026-04-30T09:25:08.652Z</time></trkpt><trkpt lat="44.023165" lon="12.1269967"><ele>116.25</ele><time>2026-04-30T09:25:09.643Z</time></trkpt><trkpt lat="44.0230583" lon="12.1268917"><ele>116.5</ele><time>2026-04-30T09:25:10.648Z</time></trkpt><trkpt lat="44.022965" lon="12.1267917"><ele>116.75</ele><time>2026-04-30T09:25:11.647Z</time></trkpt><trkpt lat="44.0228783" lon="12.1267017"><ele>117.0</ele><time>2026-04-30T09:25:12.64Z</time></trkpt><trkpt lat="44.0227917" lon="12.1266117"><ele>117.39999999999999</ele><time>2026-04-30T09:25:13.649Z</time></trkpt><trkpt lat="44.0227" lon="12.126525"><ele>117.79999999999998</ele><time>2026-04-30T09:25:14.648Z</time></trkpt><trkpt lat="44.0226117" lon="12.12643"><ele>118.2</ele><time>2026-04-30T09:25:15.646Z</time></trkpt><trkpt lat="44.0225217" lon="12.1263417"><ele>118.6</ele><time>2026-04-30T09:25:16.653Z</time></trkpt><trkpt lat="44.0224333" lon="12.1262533"><ele>119.0</ele><time>2026-04-30T09:25:17.64Z</time></trkpt><trkpt lat="44.0223417" lon="12.1261617"><ele>119.0</ele><time>2026-04-30T09:25:18.651Z</time></trkpt><trkpt lat="44.0222517" lon="12.1260683"><ele>119.0</ele><time>2026-04-30T09:25:19.648Z</time></trkpt><trkpt lat="44.022165" lon="12.1259767"><ele>119.0</ele><time>2026-04-30T09:25:20.645Z</time></trkpt><trkpt lat="44.022075" lon="12.1258883"><ele>119.0</ele><time>2026-04-30T09:25:21.646Z</time></trkpt><trkpt lat="44.0219867" lon="12.1257967"><ele>119.0</ele><time>2026-04-30T09:25:22.648Z</time></trkpt><trkpt lat="44.0218917" lon="12.1257"><ele>119.25</ele><time>2026-04-30T09:25:23.657Z</time></trkpt><trkpt lat="44.0217933" lon="12.125595"><ele>119.5</ele><time>2026-04-30T09:25:24.658Z</time></trkpt><trkpt lat="44.0216967" lon="12.125485"><ele>119.75</ele><time>2026-04-30T09:25:25.653Z</time></trkpt><trkpt lat="44.02159" lon="12.1253767"><ele>120.0</ele><time>2026-04-30T09:25:26.644Z</time></trkpt><trkpt lat="44.0214867" lon="12.125265"><ele>120.0</ele><time>2026-04-30T09:25:27.652Z</time></trkpt><trkpt lat="44.02138" lon="12.1251567"><ele>120.0</ele><time>2026-04-30T09:25:28.646Z</time></trkpt><trkpt lat="44.0212717" lon="12.1250433"><ele>120.0</ele><time>2026-04-30T09:25:29.649Z</time></trkpt><trkpt lat="44.0211617" lon="12.1249317"><ele>120.0</ele><time>2026-04-30T09:25:30.645Z</time></trkpt><trkpt lat="44.021055" lon="12.12482"><ele>120.0</ele><time>2026-04-30T09:25:31.652Z</time></trkpt><trkpt lat="44.0209433" lon="12.1247083"><ele>120.0</ele><time>2026-04-30T09:25:32.646Z</time></trkpt><trkpt lat="44.02083" lon="12.1245917"><ele>120.0</ele><time>2026-04-30T09:25:33.649Z</time></trkpt><trkpt lat="44.0207167" lon="12.1244783"><ele>120.0</ele><time>2026-04-30T09:25:34.65Z</time></trkpt><trkpt lat="44.0206017" lon="12.1243667"><ele>120.0</ele><time>2026-04-30T09:25:35.649Z</time></trkpt><trkpt lat="44.0204867" lon="12.1242533"><ele>120.0</ele><time>2026-04-30T09:25:36.646Z</time></trkpt><trkpt lat="44.02037" lon="12.12414"><ele>120.0</ele><time>2026-04-30T09:25:37.643Z</time></trkpt><trkpt lat="44.0202533" lon="12.12402"><ele>120.0</ele><time>2026-04-30T09:25:38.645Z</time></trkpt><trkpt lat="44.020135" lon="12.1238983"><ele>120.33333333333334</ele><time>2026-04-30T09:25:39.651Z</time></trkpt><trkpt lat="44.020015" lon="12.1237733"><ele>120.66666666666667</ele><time>2026-04-30T09:25:40.651Z</time></trkpt><trkpt lat="44.0198933" lon="12.1236467"><ele>121.0</ele><time>2026-04-30T09:25:41.648Z</time></trkpt><trkpt lat="44.019775" lon="12.1235183"><ele>121.0</ele><time>2026-04-30T09:25:42.646Z</time></trkpt><trkpt lat="44.0196533" lon="12.1233967"><ele>121.0</ele><time>2026-04-30T09:25:43.647Z</time></trkpt><trkpt lat="44.0195283" lon="12.12327"><ele>121.0</ele><time>2026-04-30T09:25:44.659Z</time></trkpt><trkpt lat="44.0194067" lon="12.12314"><ele>122.0</ele><time>2026-04-30T09:25:45.657Z</time></trkpt><trkpt lat="44.0192833" lon="12.123015"><ele>123.0</ele><time>2026-04-30T09:25:46.639Z</time></trkpt><trkpt lat="44.0191617" lon="12.1228917"><ele>124.0</ele><time>2026-04-30T09:25:47.65Z</time></trkpt><trkpt lat="44.01904" lon="12.1227717"><ele>124.0</ele><time>2026-04-30T09:25:48.654Z</time></trkpt><trkpt lat="44.01892" lon="12.1226517"><ele>124.0</ele><time>2026-04-30T09:25:49.662Z</time></trkpt><trkpt lat="44.0188083" lon="12.122535"><ele>124.0</ele><time>2026-04-30T09:25:50.647Z</time></trkpt><trkpt lat="44.0187" lon="12.1224267"><ele>124.0</ele><time>2026-04-30T09:25:51.659Z</time></trkpt><trkpt lat="44.018585" lon="12.1223283"><ele>125.0</ele><time>2026-04-30T09:25:52.647Z</time></trkpt><trkpt lat="44.0184633" lon="12.1222383"><ele>126.0</ele><time>2026-04-30T09:25:53.65Z</time></trkpt><trkpt lat="44.0183333" lon="12.122165"><ele>127.0</ele><time>2026-04-30T09:25:54.66Z</time></trkpt><trkpt lat="44.018205" lon="12.122105"><ele>128.0</ele><time>2026-04-30T09:25:55.647Z</time></trkpt><trkpt lat="44.0180783" lon="12.1220533"><ele>128.0</ele><time>2026-04-30T09:25:56.652Z</time></trkpt><trkpt lat="44.0179533" lon="12.1219967"><ele>128.0</ele><time>2026-04-30T09:25:57.648Z</time></trkpt><trkpt lat="44.0178267" lon="12.1219467"><ele>128.0</ele><time>2026-04-30T09:25:58.652Z</time></trkpt><trkpt lat="44.0177" lon="12.1219"><ele>128.0</ele><time>2026-04-30T09:25:59.645Z</time></trkpt><trkpt lat="44.0175733" lon="12.1218533"><ele>127.5</ele><time>2026-04-30T09:26:00.652Z</time></trkpt><trkpt lat="44.0174433" lon="12.1218067"><ele>127.0</ele><time>2026-04-30T09:26:01.642Z</time></trkpt><trkpt lat="44.0173117" lon="12.12176"><ele>126.5</ele><time>2026-04-30T09:26:02.652Z</time></trkpt><trkpt lat="44.0171783" lon="12.1217117"><ele>126.0</ele><time>2026-04-30T09:26:03.646Z</time></trkpt><trkpt lat="44.0170467" lon="12.1216617"><ele>126.0</ele><time>2026-04-30T09:26:04.649Z</time></trkpt><trkpt lat="44.016915" lon="12.121615"><ele>126.0</ele><time>2026-04-30T09:26:05.647Z</time></trkpt><trkpt lat="44.016785" lon="12.121565"><ele>126.0</ele><time>2026-04-30T09:26:06.643Z</time></trkpt><trkpt lat="44.0166617" lon="12.1215183"><ele>126.0</ele><time>2026-04-30T09:26:07.65Z</time></trkpt><trkpt lat="44.0165433" lon="12.12147"><ele>127.0</ele><time>2026-04-30T09:26:08.652Z</time></trkpt><trkpt lat="44.0164267" lon="12.121425"><ele>128.0</ele><time>2026-04-30T09:26:09.655Z</time></trkpt><trkpt lat="44.0163117" lon="12.1213833"><ele>129.0</ele><time>2026-04-30T09:26:10.65Z</time></trkpt><trkpt lat="44.0161933" lon="12.1213367"><ele>130.0</ele><time>2026-04-30T09:26:11.642Z</time></trkpt><trkpt lat="44.0160733" lon="12.121285"><ele>130.0</ele><time>2026-04-30T09:26:12.647Z</time></trkpt><trkpt lat="44.0159567" lon="12.12122"><ele>130.0</ele><time>2026-04-30T09:26:13.648Z</time></trkpt><trkpt lat="44.0158367" lon="12.1211467"><ele>130.0</ele><time>2026-04-30T09:26:14.647Z</time></trkpt><trkpt lat="44.015715" lon="12.1210617"><ele>130.0</ele><time>2026-04-30T09:26:15.659Z</time></trkpt><trkpt lat="44.0155883" lon="12.1209583"><ele>129.0</ele><time>2026-04-30T09:26:16.643Z</time></trkpt><trkpt lat="44.0154483" lon="12.1208517"><ele>128.0</ele><time>2026-04-30T09:26:17.658Z</time></trkpt><trkpt lat="44.0153067" lon="12.1207467"><ele>127.0</ele><time>2026-04-30T09:26:18.656Z</time></trkpt><trkpt lat="44.0151683" lon="12.1206433"><ele>127.0</ele><time>2026-04-30T09:26:19.646Z</time></trkpt><trkpt lat="44.015025" lon="12.120535"><ele>127.0</ele><time>2026-04-30T09:26:20.657Z</time></trkpt><trkpt lat="44.0148783" lon="12.1204267"><ele>127.0</ele><time>2026-04-30T09:26:21.644Z</time></trkpt><trkpt lat="44.0147283" lon="12.1203167"><ele>126.33333333333334</ele><time>2026-04-30T09:26:22.647Z</time></trkpt><trkpt lat="44.0145783" lon="12.1202067"><ele>125.66666666666666</ele><time>2026-04-30T09:26:23.653Z</time></trkpt><trkpt lat="44.0144233" lon="12.120095"><ele>125.0</ele><time>2026-04-30T09:26:24.651Z</time></trkpt><trkpt lat="44.01427" lon="12.1199783"><ele>125.33333333333333</ele><time>2026-04-30T09:26:25.652Z</time></trkpt><trkpt lat="44.0141183" lon="12.11986"><ele>125.66666666666666</ele><time>2026-04-30T09:26:26.658Z</time></trkpt><trkpt lat="44.013975" lon="12.1197417"><ele>126.0</ele><time>2026-04-30T09:26:27.655Z</time></trkpt><trkpt lat="44.0138333" lon="12.1196283"><ele>126.0</ele><time>2026-04-30T09:26:28.648Z</time></trkpt><trkpt lat="44.0136933" lon="12.1195167"><ele>126.0</ele><time>2026-04-30T09:26:29.646Z</time></trkpt><trkpt lat="44.0135567" lon="12.11941"><ele>126.0</ele><time>2026-04-30T09:26:30.652Z</time></trkpt><trkpt lat="44.01342" lon="12.1193083"><ele>126.33333333333334</ele><time>2026-04-30T09:26:31.662Z</time></trkpt><trkpt lat="44.013285" lon="12.11921"><ele>126.66666666666667</ele><time>2026-04-30T09:26:32.638Z</time></trkpt><trkpt lat="44.0131517" lon="12.11911"><ele>127.0</ele><time>2026-04-30T09:26:33.642Z</time></trkpt><trkpt lat="44.01302" lon="12.1190067"><ele>127.0</ele><time>2026-04-30T09:26:34.639Z</time></trkpt><trkpt lat="44.0128867" lon="12.1189017"><ele>127.0</ele><time>2026-04-30T09:26:35.638Z</time></trkpt><trkpt lat="44.01275" lon="12.1187933"><ele>127.0</ele><time>2026-04-30T09:26:36.647Z</time></trkpt><trkpt lat="44.0126083" lon="12.1186867"><ele>127.66666666666667</ele><time>2026-04-30T09:26:37.641Z</time></trkpt><trkpt lat="44.0124667" lon="12.1185783"><ele>128.33333333333334</ele><time>2026-04-30T09:26:38.643Z</time></trkpt><trkpt lat="44.0123217" lon="12.1184667"><ele>129.0</ele><time>2026-04-30T09:26:39.648Z</time></trkpt><trkpt lat="44.0121733" lon="12.118355"><ele>129.0</ele><time>2026-04-30T09:26:40.65Z</time></trkpt><trkpt lat="44.0120233" lon="12.1182433"><ele>129.0</ele><time>2026-04-30T09:26:41.642Z</time></trkpt><trkpt lat="44.011875" lon="12.11813"><ele>129.0</ele><time>2026-04-30T09:26:42.644Z</time></trkpt><trkpt lat="44.0117283" lon="12.1180183"><ele>130.0</ele><time>2026-04-30T09:26:43.649Z</time></trkpt><trkpt lat="44.01158" lon="12.117905"><ele>131.0</ele><time>2026-04-30T09:26:44.64Z</time></trkpt><trkpt lat="44.0114317" lon="12.1177917"><ele>132.0</ele><time>2026-04-30T09:26:45.647Z</time></trkpt><trkpt lat="44.0112883" lon="12.1176783"><ele>132.0</ele><time>2026-04-30T09:26:46.646Z</time></trkpt><trkpt lat="44.01115" lon="12.11757"><ele>132.0</ele><time>2026-04-30T09:26:47.654Z</time></trkpt><trkpt lat="44.0110067" lon="12.11746"><ele>132.0</ele><time>2026-04-30T09:26:48.642Z</time></trkpt><trkpt lat="44.0108567" lon="12.1173417"><ele>132.66666666666666</ele><time>2026-04-30T09:26:49.644Z</time></trkpt><trkpt lat="44.0107017" lon="12.11722"><ele>133.33333333333331</ele><time>2026-04-30T09:26:50.648Z</time></trkpt><trkpt lat="44.01055" lon="12.1171033"><ele>134.0</ele><time>2026-04-30T09:26:51.643Z</time></trkpt><trkpt lat="44.0104017" lon="12.1169967"><ele>134.0</ele><time>2026-04-30T09:26:52.646Z</time></trkpt><trkpt lat="44.0102517" lon="12.1169083"><ele>134.0</ele><time>2026-04-30T09:26:53.647Z</time></trkpt><trkpt lat="44.0101017" lon="12.1168383"><ele>134.0</ele><time>2026-04-30T09:26:54.65Z</time></trkpt><trkpt lat="44.0099483" lon="12.1167833"><ele>134.33333333333331</ele><time>2026-04-30T09:26:55.645Z</time></trkpt><trkpt lat="44.0097933" lon="12.1167383"><ele>134.66666666666666</ele><time>2026-04-30T09:26:56.662Z</time></trkpt><trkpt lat="44.009635" lon="12.1167033"><ele>135.0</ele><time>2026-04-30T09:26:57.654Z</time></trkpt><trkpt lat="44.0094733" lon="12.1166783"><ele>135.0</ele><time>2026-04-30T09:26:58.642Z</time></trkpt><trkpt lat="44.0093067" lon="12.116665"><ele>135.0</ele><time>2026-04-30T09:26:59.651Z</time></trkpt><trkpt lat="44.009135" lon="12.1166783"><ele>135.0</ele><time>2026-04-30T09:27:00.652Z</time></trkpt><trkpt lat="44.0089583" lon="12.116715"><ele>135.33333333333334</ele><time>2026-04-30T09:27:01.645Z</time></trkpt><trkpt lat="44.0087867" lon="12.11676"><ele>135.66666666666669</ele><time>2026-04-30T09:27:02.644Z</time></trkpt><trkpt lat="44.00862" lon="12.1168083"><ele>136.0</ele><time>2026-04-30T09:27:03.653Z</time></trkpt><trkpt lat="44.0084567" lon="12.1168633"><ele>136.33333333333334</ele><time>2026-04-30T09:27:04.647Z</time></trkpt><trkpt lat="44.0082933" lon="12.1169183"><ele>136.66666666666666</ele><time>2026-04-30T09:27:05.648Z</time></trkpt><trkpt lat="44.00813" lon="12.1169767"><ele>137.0</ele><time>2026-04-30T09:27:06.65Z</time></trkpt><trkpt lat="44.007965" lon="12.1170333"><ele>137.0</ele><time>2026-04-30T09:27:07.65Z</time></trkpt><trkpt lat="44.0077967" lon="12.1170883"><ele>137.0</ele><time>2026-04-30T09:27:08.648Z</time></trkpt><trkpt lat="44.0076217" lon="12.1171367"><ele>137.0</ele><time>2026-04-30T09:27:09.639Z</time></trkpt><trkpt lat="44.0074483" lon="12.11718"><ele>138.0</ele><time>2026-04-30T09:27:10.649Z</time></trkpt><trkpt lat="44.0072717" lon="12.117215"><ele>139.0</ele><time>2026-04-30T09:27:11.648Z</time></trkpt><trkpt lat="44.0070933" lon="12.1172417"><ele>140.0</ele><time>2026-04-30T09:27:12.643Z</time></trkpt><trkpt lat="44.00691" lon="12.1172583"><ele>140.0</ele><time>2026-04-30T09:27:13.654Z</time></trkpt><trkpt lat="44.0067233" lon="12.1172567"><ele>140.0</ele><time>2026-04-30T09:27:14.64Z</time></trkpt><trkpt lat="44.0065333" lon="12.117235"><ele>140.0</ele><time>2026-04-30T09:27:15.657Z</time></trkpt><trkpt lat="44.0063383" lon="12.117205"><ele>140.66666666666666</ele><time>2026-04-30T09:27:16.659Z</time></trkpt><trkpt lat="44.0061467" lon="12.1171617"><ele>141.33333333333334</ele><time>2026-04-30T09:27:17.653Z</time></trkpt><trkpt lat="44.0059533" lon="12.117115"><ele>142.0</ele><time>2026-04-30T09:27:18.65Z</time></trkpt><trkpt lat="44.005755" lon="12.1170667"><ele>142.0</ele><time>2026-04-30T09:27:19.648Z</time></trkpt><trkpt lat="44.0055617" lon="12.117015"><ele>142.0</ele><time>2026-04-30T09:27:20.65Z</time></trkpt><trkpt lat="44.0053733" lon="12.1169517"><ele>142.0</ele><time>2026-04-30T09:27:21.647Z</time></trkpt><trkpt lat="44.005195" lon="12.1168667"><ele>142.0</ele><time>2026-04-30T09:27:22.653Z</time></trkpt><trkpt lat="44.0050267" lon="12.1167533"><ele>142.0</ele><time>2026-04-30T09:27:23.647Z</time></trkpt><trkpt lat="44.0048667" lon="12.11661"><ele>142.0</ele><time>2026-04-30T09:27:24.653Z</time></trkpt><trkpt lat="44.0047083" lon="12.1164567"><ele>142.66666666666669</ele><time>2026-04-30T09:27:25.646Z</time></trkpt><trkpt lat="44.004545" lon="12.1163017"><ele>143.33333333333334</ele><time>2026-04-30T09:27:26.65Z</time></trkpt><trkpt lat="44.00438" lon="12.1161483"><ele>144.0</ele><time>2026-04-30T09:27:27.647Z</time></trkpt><trkpt lat="44.0042267" lon="12.115995"><ele>143.33333333333334</ele><time>2026-04-30T09:27:28.646Z</time></trkpt><trkpt lat="44.0040833" lon="12.1158467"><ele>142.66666666666669</ele><time>2026-04-30T09:27:29.656Z</time></trkpt><trkpt lat="44.0039567" lon="12.1156817"><ele>142.0</ele><time>2026-04-30T09:27:30.639Z</time></trkpt><trkpt lat="44.0038483" lon="12.1154883"><ele>142.0</ele><time>2026-04-30T09:27:31.648Z</time></trkpt><trkpt lat="44.00376" lon="12.1152717"><ele>142.0</ele><time>2026-04-30T09:27:32.641Z</time></trkpt><trkpt lat="44.0036917" lon="12.11505"><ele>142.0</ele><time>2026-04-30T09:27:33.643Z</time></trkpt><trkpt lat="44.0036367" lon="12.1148333"><ele>142.75</ele><time>2026-04-30T09:27:34.661Z</time></trkpt><trkpt lat="44.0035917" lon="12.11463"><ele>143.5</ele><time>2026-04-30T09:27:35.649Z</time></trkpt><trkpt lat="44.0035383" lon="12.1144433"><ele>144.25</ele><time>2026-04-30T09:27:36.652Z</time></trkpt><trkpt lat="44.0034717" lon="12.1142767"><ele>145.0</ele><time>2026-04-30T09:27:37.642Z</time></trkpt><trkpt lat="44.0033933" lon="12.11413"><ele>144.75</ele><time>2026-04-30T09:27:38.651Z</time></trkpt><trkpt lat="44.0033117" lon="12.1140033"><ele>144.5</ele><time>2026-04-30T09:27:39.645Z</time></trkpt><trkpt lat="44.0032217" lon="12.1138917"><ele>144.25</ele><time>2026-04-30T09:27:40.642Z</time></trkpt><trkpt lat="44.0031267" lon="12.1137817"><ele>144.0</ele><time>2026-04-30T09:27:41.641Z</time></trkpt><trkpt lat="44.0030267" lon="12.1136633"><ele>144.0</ele><time>2026-04-30T09:27:42.648Z</time></trkpt><trkpt lat="44.0029183" lon="12.1135383"><ele>144.0</ele><time>2026-04-30T09:27:43.643Z</time></trkpt><trkpt lat="44.0028067" lon="12.1134083"><ele>144.0</ele><time>2026-04-30T09:27:44.642Z</time></trkpt><trkpt lat="44.00269" lon="12.1132833"><ele>144.0</ele><time>2026-04-30T09:27:45.651Z</time></trkpt><trkpt lat="44.0025733" lon="12.1131617"><ele>144.5</ele><time>2026-04-30T09:27:46.65Z</time></trkpt><trkpt lat="44.0024433" lon="12.1130567"><ele>145.0</ele><time>2026-04-30T09:27:47.64Z</time></trkpt><trkpt lat="44.0023183" lon="12.1129617"><ele>145.5</ele><time>2026-04-30T09:27:48.649Z</time></trkpt><trkpt lat="44.0022033" lon="12.1128833"><ele>146.0</ele><time>2026-04-30T09:27:49.65Z</time></trkpt><trkpt lat="44.0020983" lon="12.1128133"><ele>146.0</ele><time>2026-04-30T09:27:50.651Z</time></trkpt><trkpt lat="44.0019983" lon="12.11275"><ele>146.0</ele><time>2026-04-30T09:27:51.652Z</time></trkpt><trkpt lat="44.0019067" lon="12.1126933"><ele>146.0</ele><time>2026-04-30T09:27:52.647Z</time></trkpt><trkpt lat="44.0018283" lon="12.112645"><ele>146.0</ele><time>2026-04-30T09:27:53.649Z</time></trkpt><trkpt lat="44.00176" lon="12.1126083"><ele>146.0</ele><time>2026-04-30T09:27:54.645Z</time></trkpt><trkpt lat="44.0016667" lon="12.1125483"><ele>146.0</ele><time>2026-04-30T09:27:56.659Z</time></trkpt><trkpt lat="44.0015733" lon="12.11249"><ele>146.0</ele><time>2026-04-30T09:27:58.644Z</time></trkpt><trkpt lat="44.0014517" lon="12.1124417"><ele>146.0</ele><time>2026-04-30T09:28:00.642Z</time></trkpt><trkpt lat="44.0013883" lon="12.112415"><ele>146.0</ele><time>2026-04-30T09:28:01.643Z</time></trkpt><trkpt lat="44.001325" lon="12.11239"><ele>146.0</ele><time>2026-04-30T09:28:02.641Z</time></trkpt><trkpt lat="44.0012567" lon="12.1123633"><ele>146.0</ele><time>2026-04-30T09:28:03.645Z</time></trkpt><trkpt lat="44.001185" lon="12.1123367"><ele>146.0</ele><time>2026-04-30T09:28:04.643Z</time></trkpt><trkpt lat="44.0011133" lon="12.1123067"><ele>146.0</ele><time>2026-04-30T09:28:05.648Z</time></trkpt><trkpt lat="44.0010533" lon="12.1122783"><ele>146.0</ele><time>2026-04-30T09:28:06.647Z</time></trkpt><trkpt lat="44.0009667" lon="12.112235"><ele>146.0</ele><time>2026-04-30T09:28:08.645Z</time></trkpt><trkpt lat="44.0008833" lon="12.11225"><ele>146.0</ele><time>2026-04-30T09:28:11.644Z</time></trkpt><trkpt lat="44.000835" lon="12.112335"><ele>146.0</ele><time>2026-04-30T09:28:15.644Z</time></trkpt><trkpt lat="44.0008367" lon="12.1124483"><ele>146.5</ele><time>2026-04-30T09:28:18.647Z</time></trkpt><trkpt lat="44.0008183" lon="12.1125467"><ele>147.0</ele><time>2026-04-30T09:28:22.653Z</time></trkpt><trkpt lat="44.00078" lon="12.1126167"><ele>147.5</ele><time>2026-04-30T09:28:24.648Z</time></trkpt><trkpt lat="44.0007167" lon="12.1127217"><ele>148.0</ele><time>2026-04-30T09:28:27.657Z</time></trkpt><trkpt lat="44.0006583" lon="12.1128"><ele>148.5</ele><time>2026-04-30T09:28:29.653Z</time></trkpt><trkpt lat="44.0006183" lon="12.112875"><ele>149.0</ele><time>2026-04-30T09:28:32.645Z</time></trkpt><trkpt lat="44.0005317" lon="12.1128817"><ele>149.0</ele><time>2026-04-30T09:30:02.647Z</time></trkpt><trkpt lat="44.000455" lon="12.1128417"><ele>149.0</ele><time>2026-04-30T09:30:04.648Z</time></trkpt><trkpt lat="44.00039" lon="12.112745"><ele>149.0</ele><time>2026-04-30T09:30:06.648Z</time></trkpt><trkpt lat="44.00034" lon="12.112645"><ele>149.0</ele><time>2026-04-30T09:30:08.642Z</time></trkpt><trkpt lat="44.0002867" lon="12.11255"><ele>149.0</ele><time>2026-04-30T09:30:10.642Z</time></trkpt><trkpt lat="44.000215" lon="12.1124567"><ele>148.83333333333331</ele><time>2026-04-30T09:30:12.645Z</time></trkpt><trkpt lat="44.0001367" lon="12.1123167"><ele>148.66666666666666</ele><time>2026-04-30T09:30:14.648Z</time></trkpt><trkpt lat="44.0001033" lon="12.1122283"><ele>148.5</ele><time>2026-04-30T09:30:15.64Z</time></trkpt><trkpt lat="44.0000667" lon="12.1121367"><ele>148.33333333333334</ele><time>2026-04-30T09:30:16.643Z</time></trkpt><trkpt lat="44.0000267" lon="12.1120467"><ele>148.16666666666669</ele><time>2026-04-30T09:30:17.652Z</time></trkpt><trkpt lat="43.9999817" lon="12.1119483"><ele>148.0</ele><time>2026-04-30T09:30:18.649Z</time></trkpt><trkpt lat="43.9999267" lon="12.1118433"><ele>148.0</ele><time>2026-04-30T09:30:19.64Z</time></trkpt><trkpt lat="43.99987" lon="12.1117333"><ele>148.0</ele><time>2026-04-30T09:30:20.653Z</time></trkpt><trkpt lat="43.9998117" lon="12.11161"><ele>148.0</ele><time>2026-04-30T09:30:21.647Z</time></trkpt><trkpt lat="43.9997517" lon="12.111485"><ele>148.0</ele><time>2026-04-30T09:30:22.646Z</time></trkpt><trkpt lat="43.9996933" lon="12.1113567"><ele>148.0</ele><time>2026-04-30T09:30:23.646Z</time></trkpt><trkpt lat="43.9996333" lon="12.111235"><ele>147.83333333333334</ele><time>2026-04-30T09:30:24.652Z</time></trkpt><trkpt lat="43.9995817" lon="12.1111117"><ele>147.66666666666669</ele><time>2026-04-30T09:30:25.649Z</time></trkpt><trkpt lat="43.9995367" lon="12.111005"><ele>147.5</ele><time>2026-04-30T09:30:26.643Z</time></trkpt><trkpt lat="43.9994933" lon="12.1109233"><ele>147.33333333333334</ele><time>2026-04-30T09:30:27.644Z</time></trkpt><trkpt lat="43.99944" lon="12.11082"><ele>147.16666666666666</ele><time>2026-04-30T09:30:29.646Z</time></trkpt><trkpt lat="43.9993633" lon="12.110805"><ele>147.0</ele><time>2026-04-30T09:30:32.64Z</time></trkpt><trkpt lat="43.9992817" lon="12.110885"><ele>147.0</ele><time>2026-04-30T09:30:34.648Z</time></trkpt><trkpt lat="43.9992333" lon="12.1109433"><ele>147.0</ele><time>2026-04-30T09:30:35.647Z</time></trkpt><trkpt lat="43.99918" lon="12.1110167"><ele>147.0</ele><time>2026-04-30T09:30:36.643Z</time></trkpt><trkpt lat="43.999115" lon="12.1111133"><ele>147.0</ele><time>2026-04-30T09:30:37.655Z</time></trkpt><trkpt lat="43.9990433" lon="12.111215"><ele>147.0</ele><time>2026-04-30T09:30:38.648Z</time></trkpt><trkpt lat="43.9989717" lon="12.1112967"><ele>147.0</ele><time>2026-04-30T09:30:39.644Z</time></trkpt><trkpt lat="43.9989067" lon="12.1113517"><ele>147.66666666666666</ele><time>2026-04-30T09:30:40.643Z</time></trkpt><trkpt lat="43.99883" lon="12.1113783"><ele>148.33333333333334</ele><time>2026-04-30T09:30:41.651Z</time></trkpt><trkpt lat="43.9987583" lon="12.111405"><ele>149.0</ele><time>2026-04-30T09:30:42.646Z</time></trkpt><trkpt lat="43.9986967" lon="12.1114283"><ele>149.66666666666669</ele><time>2026-04-30T09:30:43.645Z</time></trkpt><trkpt lat="43.9986233" lon="12.1114417"><ele>150.33333333333334</ele><time>2026-04-30T09:30:45.642Z</time></trkpt><trkpt lat="43.9985667" lon="12.111395"><ele>151.0</ele><time>2026-04-30T09:30:47.649Z</time></trkpt><trkpt lat="43.9984917" lon="12.11131"><ele>151.0</ele><time>2026-04-30T09:30:49.643Z</time></trkpt><trkpt lat="43.9984067" lon="12.1112"><ele>151.0</ele><time>2026-04-30T09:30:51.649Z</time></trkpt><trkpt lat="43.99835" lon="12.111125"><ele>151.0</ele><time>2026-04-30T09:30:52.646Z</time></trkpt><trkpt lat="43.9982867" lon="12.11105"><ele>151.0</ele><time>2026-04-30T09:30:53.642Z</time></trkpt><trkpt lat="43.9982233" lon="12.1109783"><ele>151.0</ele><time>2026-04-30T09:30:54.642Z</time></trkpt><trkpt lat="43.998165" lon="12.1109117"><ele>151.0</ele><time>2026-04-30T09:30:55.644Z</time></trkpt><trkpt lat="43.9981" lon="12.1108433"><ele>151.4</ele><time>2026-04-30T09:30:56.643Z</time></trkpt><trkpt lat="43.998035" lon="12.110765"><ele>151.8</ele><time>2026-04-30T09:30:57.646Z</time></trkpt><trkpt lat="43.9979617" lon="12.11068"><ele>152.20000000000002</ele><time>2026-04-30T09:30:58.642Z</time></trkpt><trkpt lat="43.9978867" lon="12.11059"><ele>152.6</ele><time>2026-04-30T09:30:59.657Z</time></trkpt><trkpt lat="43.99781" lon="12.1104983"><ele>153.0</ele><time>2026-04-30T09:31:00.654Z</time></trkpt><trkpt lat="43.997725" lon="12.110405"><ele>153.0</ele><time>2026-04-30T09:31:01.644Z</time></trkpt><trkpt lat="43.997635" lon="12.1103033"><ele>153.0</ele><time>2026-04-30T09:31:02.642Z</time></trkpt><trkpt lat="43.9975417" lon="12.1101983"><ele>153.0</ele><time>2026-04-30T09:31:03.643Z</time></trkpt><trkpt lat="43.9974517" lon="12.1100983"><ele>153.0</ele><time>2026-04-30T09:31:04.652Z</time></trkpt><trkpt lat="43.9973617" lon="12.1100017"><ele>153.5</ele><time>2026-04-30T09:31:05.65Z</time></trkpt><trkpt lat="43.9972717" lon="12.1098983"><ele>154.0</ele><time>2026-04-30T09:31:06.655Z</time></trkpt><trkpt lat="43.99718" lon="12.109795"><ele>154.5</ele><time>2026-04-30T09:31:07.646Z</time></trkpt><trkpt lat="43.9970883" lon="12.1096883"><ele>155.0</ele><time>2026-04-30T09:31:08.641Z</time></trkpt><trkpt lat="43.9969933" lon="12.1095817"><ele>155.0</ele><time>2026-04-30T09:31:09.646Z</time></trkpt><trkpt lat="43.9968967" lon="12.1094717"><ele>155.0</ele><time>2026-04-30T09:31:10.647Z</time></trkpt><trkpt lat="43.9968" lon="12.109355"><ele>155.0</ele><time>2026-04-30T09:31:11.644Z</time></trkpt><trkpt lat="43.9966983" lon="12.1092417"><ele>155.0</ele><time>2026-04-30T09:31:12.649Z</time></trkpt><trkpt lat="43.9965967" lon="12.1091317"><ele>155.75</ele><time>2026-04-30T09:31:13.64Z</time></trkpt><trkpt lat="43.9964967" lon="12.10902"><ele>156.5</ele><time>2026-04-30T09:31:14.645Z</time></trkpt><trkpt lat="43.9964017" lon="12.1089133"><ele>157.25</ele><time>2026-04-30T09:31:15.647Z</time></trkpt><trkpt lat="43.9963033" lon="12.1088133"><ele>158.0</ele><time>2026-04-30T09:31:16.643Z</time></trkpt><trkpt lat="43.9962033" lon="12.1087133"><ele>158.0</ele><time>2026-04-30T09:31:17.649Z</time></trkpt><trkpt lat="43.9961033" lon="12.10862"><ele>158.0</ele><time>2026-04-30T09:31:18.647Z</time></trkpt><trkpt lat="43.996" lon="12.1085317"><ele>158.0</ele><time>2026-04-30T09:31:19.642Z</time></trkpt><trkpt lat="43.9958883" lon="12.1084483"><ele>158.0</ele><time>2026-04-30T09:31:20.643Z</time></trkpt><trkpt lat="43.9957762" lon="12.1083659"><ele>159.25</ele><time>2026-04-30T09:31:21.642Z</time></trkpt><trkpt lat="43.9956675" lon="12.1082861"><ele>160.5</ele><time>2026-04-30T09:31:22.642Z</time></trkpt><trkpt lat="43.9955619" lon="12.1082073"><ele>161.75</ele><time>2026-04-30T09:31:23.64Z</time></trkpt><trkpt lat="43.9954585" lon="12.1081272"><ele>163.0</ele><time>2026-04-30T09:31:24.651Z</time></trkpt><trkpt lat="43.9953552" lon="12.1080415"><ele>163.0</ele><time>2026-04-30T09:31:25.641Z</time></trkpt><trkpt lat="43.9952512" lon="12.1079456"><ele>163.0</ele><time>2026-04-30T09:31:26.642Z</time></trkpt><trkpt lat="43.9951474" lon="12.1078465"><ele>163.0</ele><time>2026-04-30T09:31:27.647Z</time></trkpt><trkpt lat="43.995046" lon="12.1077472"><ele>163.0</ele><time>2026-04-30T09:31:28.649Z</time></trkpt><trkpt lat="43.9949436" lon="12.1076573"><ele>164.0</ele><time>2026-04-30T09:31:29.645Z</time></trkpt><trkpt lat="43.9948355" lon="12.1075879"><ele>165.0</ele><time>2026-04-30T09:31:30.653Z</time></trkpt><trkpt lat="43.9947204" lon="12.1075578"><ele>166.0</ele><time>2026-04-30T09:31:31.644Z</time></trkpt><trkpt lat="43.9946013" lon="12.1075744"><ele>167.0</ele><time>2026-04-30T09:31:32.65Z</time></trkpt><trkpt lat="43.9944809" lon="12.1076247"><ele>167.0</ele><time>2026-04-30T09:31:33.659Z</time></trkpt><trkpt lat="43.9943569" lon="12.1076822"><ele>167.0</ele><time>2026-04-30T09:31:34.642Z</time></trkpt><trkpt lat="43.9942226" lon="12.1077403"><ele>167.0</ele><time>2026-04-30T09:31:35.644Z</time></trkpt><trkpt lat="43.9940928" lon="12.1077988"><ele>167.0</ele><time>2026-04-30T09:31:36.647Z</time></trkpt><trkpt lat="43.9939769" lon="12.1078539"><ele>170.2</ele><time>2026-04-30T09:31:37.657Z</time></trkpt><trkpt lat="43.9938791" lon="12.1078922"><ele>173.39999999999998</ele><time>2026-04-30T09:31:38.646Z</time></trkpt><trkpt lat="43.9938085" lon="12.1078895"><ele>176.60000000000002</ele><time>2026-04-30T09:31:39.643Z</time></trkpt><trkpt lat="43.9937144" lon="12.107802"><ele>179.8</ele><time>2026-04-30T09:31:41.652Z</time></trkpt><trkpt lat="43.9937804" lon="12.1076268"><ele>183.0</ele><time>2026-04-30T09:31:43.644Z</time></trkpt><trkpt lat="43.9938714" lon="12.1075016"><ele>185.25</ele><time>2026-04-30T09:31:44.641Z</time></trkpt><trkpt lat="43.9939681" lon="12.1073748"><ele>187.5</ele><time>2026-04-30T09:31:45.651Z</time></trkpt><trkpt lat="43.9940614" lon="12.1072436"><ele>189.75</ele><time>2026-04-30T09:31:46.64Z</time></trkpt><trkpt lat="43.9941553" lon="12.1071035"><ele>192.0</ele><time>2026-04-30T09:31:47.637Z</time></trkpt><trkpt lat="43.9942503" lon="12.1069644"><ele>185.75</ele><time>2026-04-30T09:31:48.643Z</time></trkpt><trkpt lat="43.994349" lon="12.1068296"><ele>179.5</ele><time>2026-04-30T09:31:49.642Z</time></trkpt><trkpt lat="43.9944581" lon="12.1066994"><ele>173.25</ele><time>2026-04-30T09:31:50.65Z</time></trkpt><trkpt lat="43.9945614" lon="12.1065846"><ele>167.0</ele><time>2026-04-30T09:31:51.644Z</time></trkpt><trkpt lat="43.9946482" lon="12.1064864"><ele>166.33333333333331</ele><time>2026-04-30T09:31:52.644Z</time></trkpt><trkpt lat="43.9947095" lon="12.1064033"><ele>165.66666666666666</ele><time>2026-04-30T09:31:53.655Z</time></trkpt><trkpt lat="43.9947467" lon="12.1063214"><ele>165.0</ele><time>2026-04-30T09:31:54.65Z</time></trkpt><trkpt lat="43.9947345" lon="12.1062222"><ele>164.33333333333334</ele><time>2026-04-30T09:31:55.64Z</time></trkpt><trkpt lat="43.9946983" lon="12.1061176"><ele>163.66666666666669</ele><time>2026-04-30T09:31:56.642Z</time></trkpt><trkpt lat="43.9946495" lon="12.1060236"><ele>163.0</ele><time>2026-04-30T09:31:57.655Z</time></trkpt><trkpt lat="43.9945922" lon="12.1059571"><ele>163.0</ele><time>2026-04-30T09:31:58.649Z</time></trkpt><trkpt lat="43.9945358" lon="12.1059143"><ele>163.0</ele><time>2026-04-30T09:31:59.639Z</time></trkpt><trkpt lat="43.9944661" lon="12.105918"><ele>163.0</ele><time>2026-04-30T09:32:00.65Z</time></trkpt><trkpt lat="43.9943902" lon="12.1059772"><ele>163.0</ele><time>2026-04-30T09:32:01.668Z</time></trkpt><trkpt lat="43.994316" lon="12.1060876"><ele>163.0</ele><time>2026-04-30T09:32:02.651Z</time></trkpt><trkpt lat="43.9942508" lon="12.1062322"><ele>163.0</ele><time>2026-04-30T09:32:03.65Z</time></trkpt><trkpt lat="43.9941765" lon="12.1063783"><ele>163.0</ele><time>2026-04-30T09:32:04.648Z</time></trkpt><trkpt lat="43.9940931" lon="12.106511"><ele>163.0</ele><time>2026-04-30T09:32:05.645Z</time></trkpt><trkpt lat="43.9940051" lon="12.1066417"><ele>163.0</ele><time>2026-04-30T09:32:06.648Z</time></trkpt><trkpt lat="43.9939287" lon="12.1067759"><ele>167.83333333333334</ele><time>2026-04-30T09:32:07.645Z</time></trkpt><trkpt lat="43.9938739" lon="12.1069053"><ele>172.66666666666669</ele><time>2026-04-30T09:32:08.649Z</time></trkpt><trkpt lat="43.993819" lon="12.1070104"><ele>177.5</ele><time>2026-04-30T09:32:09.649Z</time></trkpt><trkpt lat="43.9937716" lon="12.1070922"><ele>182.33333333333334</ele><time>2026-04-30T09:32:10.644Z</time></trkpt><trkpt lat="43.9937049" lon="12.1071303"><ele>187.16666666666666</ele><time>2026-04-30T09:32:11.666Z</time></trkpt><trkpt lat="43.9936181" lon="12.1071267"><ele>192.0</ele><time>2026-04-30T09:32:12.653Z</time></trkpt><trkpt lat="43.9935012" lon="12.1070777"><ele>192.0</ele><time>2026-04-30T09:32:13.643Z</time></trkpt><trkpt lat="43.9933802" lon="12.1069958"><ele>192.0</ele><time>2026-04-30T09:32:14.644Z</time></trkpt><trkpt lat="43.9932786" lon="12.1068778"><ele>192.0</ele><time>2026-04-30T09:32:15.648Z</time></trkpt><trkpt lat="43.9931933" lon="12.1067297"><ele>192.0</ele><time>2026-04-30T09:32:16.677Z</time></trkpt><trkpt lat="43.9931308" lon="12.1065524"><ele>192.25</ele><time>2026-04-30T09:32:17.647Z</time></trkpt><trkpt lat="43.9930876" lon="12.1063709"><ele>192.5</ele><time>2026-04-30T09:32:18.643Z</time></trkpt><trkpt lat="43.9930677" lon="12.1061907"><ele>192.75</ele><time>2026-04-30T09:32:19.649Z</time></trkpt><trkpt lat="43.9930462" lon="12.1060094"><ele>193.0</ele><time>2026-04-30T09:32:20.646Z</time></trkpt><trkpt lat="43.9930091" lon="12.1058236"><ele>191.0</ele><time>2026-04-30T09:32:21.653Z</time></trkpt><trkpt lat="43.9929503" lon="12.1056421"><ele>189.0</ele><time>2026-04-30T09:32:22.647Z</time></trkpt><trkpt lat="43.9928755" lon="12.10546"><ele>187.0</ele><time>2026-04-30T09:32:23.645Z</time></trkpt><trkpt lat="43.9928" lon="12.105277"><ele>185.0</ele><time>2026-04-30T09:32:24.638Z</time></trkpt><trkpt lat="43.9927321" lon="12.1050886"><ele>182.33333333333331</ele><time>2026-04-30T09:32:25.648Z</time></trkpt><trkpt lat="43.9926774" lon="12.1048971"><ele>179.66666666666666</ele><time>2026-04-30T09:32:26.644Z</time></trkpt><trkpt lat="43.9926324" lon="12.104696"><ele>177.0</ele><time>2026-04-30T09:32:27.643Z</time></trkpt><trkpt lat="43.9925883" lon="12.104495"><ele>177.0</ele><time>2026-04-30T09:32:28.648Z</time></trkpt><trkpt lat="43.9925267" lon="12.1043083"><ele>177.0</ele><time>2026-04-30T09:32:29.639Z</time></trkpt><trkpt lat="43.9924517" lon="12.1041333"><ele>177.0</ele><time>2026-04-30T09:32:30.651Z</time></trkpt><trkpt lat="43.9923633" lon="12.10397"><ele>177.0</ele><time>2026-04-30T09:32:31.655Z</time></trkpt><trkpt lat="43.9922633" lon="12.1038133"><ele>185.5</ele><time>2026-04-30T09:32:32.647Z</time></trkpt><trkpt lat="43.9921633" lon="12.1036667"><ele>194.0</ele><time>2026-04-30T09:32:33.643Z</time></trkpt><trkpt lat="43.9920583" lon="12.103525"><ele>202.5</ele><time>2026-04-30T09:32:34.652Z</time></trkpt><trkpt lat="43.9919567" lon="12.1033817"><ele>211.0</ele><time>2026-04-30T09:32:35.65Z</time></trkpt><trkpt lat="43.9918467" lon="12.1032533"><ele>211.5</ele><time>2026-04-30T09:32:36.649Z</time></trkpt><trkpt lat="43.9917267" lon="12.10314"><ele>212.0</ele><time>2026-04-30T09:32:37.643Z</time></trkpt><trkpt lat="43.9916" lon="12.1030517"><ele>212.5</ele><time>2026-04-30T09:32:38.653Z</time></trkpt><trkpt lat="43.9914733" lon="12.102985"><ele>213.0</ele><time>2026-04-30T09:32:39.657Z</time></trkpt><trkpt lat="43.9913533" lon="12.102925"><ele>213.0</ele><time>2026-04-30T09:32:40.65Z</time></trkpt><trkpt lat="43.9912483" lon="12.1028533"><ele>213.0</ele><time>2026-04-30T09:32:41.65Z</time></trkpt><trkpt lat="43.9911567" lon="12.1027567"><ele>213.0</ele><time>2026-04-30T09:32:42.648Z</time></trkpt><trkpt lat="43.99107" lon="12.102635"><ele>213.0</ele><time>2026-04-30T09:32:43.655Z</time></trkpt><trkpt lat="43.99098" lon="12.1025"><ele>212.5</ele><time>2026-04-30T09:32:44.638Z</time></trkpt><trkpt lat="43.99088" lon="12.10237"><ele>212.0</ele><time>2026-04-30T09:32:45.65Z</time></trkpt><trkpt lat="43.99077" lon="12.102255"><ele>211.5</ele><time>2026-04-30T09:32:46.649Z</time></trkpt><trkpt lat="43.9906517" lon="12.1021667"><ele>211.0</ele><time>2026-04-30T09:32:47.651Z</time></trkpt><trkpt lat="43.9905317" lon="12.1021167"><ele>211.0</ele><time>2026-04-30T09:32:48.645Z</time></trkpt><trkpt lat="43.9904133" lon="12.1021017"><ele>211.0</ele><time>2026-04-30T09:32:49.639Z</time></trkpt><trkpt lat="43.9903083" lon="12.1020817"><ele>211.0</ele><time>2026-04-30T09:32:50.652Z</time></trkpt><trkpt lat="43.990225" lon="12.1020183"><ele>211.0</ele><time>2026-04-30T09:32:51.644Z</time></trkpt><trkpt lat="43.990165" lon="12.1019183"><ele>211.0</ele><time>2026-04-30T09:32:52.646Z</time></trkpt><trkpt lat="43.9901283" lon="12.1017817"><ele>211.0</ele><time>2026-04-30T09:32:53.641Z</time></trkpt><trkpt lat="43.9901083" lon="12.101615"><ele>211.0</ele><time>2026-04-30T09:32:54.642Z</time></trkpt><trkpt lat="43.9900983" lon="12.1014217"><ele>211.0</ele><time>2026-04-30T09:32:55.671Z</time></trkpt><trkpt lat="43.99008" lon="12.1012183"><ele>211.0</ele><time>2026-04-30T09:32:56.659Z</time></trkpt><trkpt lat="43.9900533" lon="12.1010133"><ele>209.5</ele><time>2026-04-30T09:32:57.638Z</time></trkpt><trkpt lat="43.9900217" lon="12.1008167"><ele>208.0</ele><time>2026-04-30T09:32:58.653Z</time></trkpt><trkpt lat="43.99" lon="12.1006267"><ele>206.5</ele><time>2026-04-30T09:32:59.641Z</time></trkpt><trkpt lat="43.9899717" lon="12.1004567"><ele>205.0</ele><time>2026-04-30T09:33:00.657Z</time></trkpt><trkpt lat="43.9899317" lon="12.1003083"><ele>205.0</ele><time>2026-04-30T09:33:01.66Z</time></trkpt><trkpt lat="43.9898667" lon="12.1001933"><ele>205.0</ele><time>2026-04-30T09:33:02.649Z</time></trkpt><trkpt lat="43.9897767" lon="12.1001167"><ele>205.0</ele><time>2026-04-30T09:33:03.646Z</time></trkpt><trkpt lat="43.9896667" lon="12.1000767"><ele>205.0</ele><time>2026-04-30T09:33:04.654Z</time></trkpt><trkpt lat="43.9895433" lon="12.100055"><ele>205.0</ele><time>2026-04-30T09:33:05.65Z</time></trkpt><trkpt lat="43.9894167" lon="12.10002"><ele>205.0</ele><time>2026-04-30T09:33:06.64Z</time></trkpt><trkpt lat="43.9892917" lon="12.099985"><ele>205.0</ele><time>2026-04-30T09:33:07.646Z</time></trkpt><trkpt lat="43.9891633" lon="12.0999733"><ele>205.0</ele><time>2026-04-30T09:33:08.649Z</time></trkpt><trkpt lat="43.989025" lon="12.099995"><ele>205.0</ele><time>2026-04-30T09:33:09.648Z</time></trkpt><trkpt lat="43.9888833" lon="12.10005"><ele>206.75</ele><time>2026-04-30T09:33:10.646Z</time></trkpt><trkpt lat="43.988745" lon="12.10012"><ele>208.5</ele><time>2026-04-30T09:33:11.649Z</time></trkpt><trkpt lat="43.9886133" lon="12.1001767"><ele>210.25</ele><time>2026-04-30T09:33:12.641Z</time></trkpt><trkpt lat="43.988485" lon="12.100215"><ele>212.0</ele><time>2026-04-30T09:33:13.652Z</time></trkpt><trkpt lat="43.9883667" lon="12.1002067"><ele>211.5</ele><time>2026-04-30T09:33:14.646Z</time></trkpt><trkpt lat="43.9882517" lon="12.1001383"><ele>211.0</ele><time>2026-04-30T09:33:15.644Z</time></trkpt><trkpt lat="43.9881433" lon="12.1000383"><ele>210.5</ele><time>2026-04-30T09:33:16.645Z</time></trkpt><trkpt lat="43.9880367" lon="12.099935"><ele>210.0</ele><time>2026-04-30T09:33:17.644Z</time></trkpt><trkpt lat="43.9879183" lon="12.09987"><ele>210.25</ele><time>2026-04-30T09:33:18.654Z</time></trkpt><trkpt lat="43.9877933" lon="12.0998383"><ele>210.5</ele><time>2026-04-30T09:33:19.649Z</time></trkpt><trkpt lat="43.9876533" lon="12.0998567"><ele>210.75</ele><time>2026-04-30T09:33:20.656Z</time></trkpt><trkpt lat="43.9875167" lon="12.0999133"><ele>211.0</ele><time>2026-04-30T09:33:21.65Z</time></trkpt><trkpt lat="43.98738" lon="12.0999867"><ele>211.0</ele><time>2026-04-30T09:33:22.656Z</time></trkpt><trkpt lat="43.9872383" lon="12.1000283"><ele>211.0</ele><time>2026-04-30T09:33:23.639Z</time></trkpt><trkpt lat="43.9870983" lon="12.1000183"><ele>211.0</ele><time>2026-04-30T09:33:24.65Z</time></trkpt><trkpt lat="43.986955" lon="12.0999783"><ele>211.0</ele><time>2026-04-30T09:33:25.655Z</time></trkpt><trkpt lat="43.9868183" lon="12.099915"><ele>203.0</ele><time>2026-04-30T09:33:26.643Z</time></trkpt><trkpt lat="43.986685" lon="12.0998133"><ele>195.0</ele><time>2026-04-30T09:33:27.648Z</time></trkpt><trkpt lat="43.9865517" lon="12.0996733"><ele>187.0</ele><time>2026-04-30T09:33:28.657Z</time></trkpt><trkpt lat="43.986425" lon="12.0995233"><ele>187.0</ele><time>2026-04-30T09:33:29.647Z</time></trkpt><trkpt lat="43.986295" lon="12.0993683"><ele>187.0</ele><time>2026-04-30T09:33:30.647Z</time></trkpt><trkpt lat="43.9861733" lon="12.0992233"><ele>187.0</ele><time>2026-04-30T09:33:31.644Z</time></trkpt><trkpt lat="43.986055" lon="12.0990783"><ele>187.33333333333334</ele><time>2026-04-30T09:33:32.648Z</time></trkpt><trkpt lat="43.98594" lon="12.0989333"><ele>187.66666666666666</ele><time>2026-04-30T09:33:33.647Z</time></trkpt><trkpt lat="43.9858333" lon="12.0987917"><ele>188.0</ele><time>2026-04-30T09:33:34.648Z</time></trkpt><trkpt lat="43.9857217" lon="12.09865"><ele>188.33333333333331</ele><time>2026-04-30T09:33:35.647Z</time></trkpt><trkpt lat="43.9856117" lon="12.09851"><ele>188.66666666666666</ele><time>2026-04-30T09:33:36.645Z</time></trkpt><trkpt lat="43.9855" lon="12.0983717"><ele>189.0</ele><time>2026-04-30T09:33:37.647Z</time></trkpt><trkpt lat="43.9853867" lon="12.0982317"><ele>189.75</ele><time>2026-04-30T09:33:38.644Z</time></trkpt><trkpt lat="43.9852783" lon="12.09809"><ele>190.5</ele><time>2026-04-30T09:33:39.645Z</time></trkpt><trkpt lat="43.9851683" lon="12.0979583"><ele>191.25</ele><time>2026-04-30T09:33:40.642Z</time></trkpt><trkpt lat="43.985055" lon="12.0978283"><ele>192.0</ele><time>2026-04-30T09:33:41.65Z</time></trkpt><trkpt lat="43.9849417" lon="12.0976983"><ele>192.0</ele><time>2026-04-30T09:33:42.648Z</time></trkpt><trkpt lat="43.9848367" lon="12.0975617"><ele>192.0</ele><time>2026-04-30T09:33:43.649Z</time></trkpt><trkpt lat="43.9847383" lon="12.0974267"><ele>192.0</ele><time>2026-04-30T09:33:44.646Z</time></trkpt><trkpt lat="43.9846533" lon="12.0972983"><ele>192.0</ele><time>2026-04-30T09:33:45.644Z</time></trkpt><trkpt lat="43.984585" lon="12.09717"><ele>193.75</ele><time>2026-04-30T09:33:46.653Z</time></trkpt><trkpt lat="43.9845333" lon="12.0970317"><ele>195.5</ele><time>2026-04-30T09:33:47.652Z</time></trkpt><trkpt lat="43.984495" lon="12.0968767"><ele>197.25</ele><time>2026-04-30T09:33:48.646Z</time></trkpt><trkpt lat="43.9844683" lon="12.0967067"><ele>199.0</ele><time>2026-04-30T09:33:49.652Z</time></trkpt><trkpt lat="43.9844567" lon="12.09652"><ele>200.75</ele><time>2026-04-30T09:33:50.649Z</time></trkpt><trkpt lat="43.984445" lon="12.09633"><ele>202.5</ele><time>2026-04-30T09:33:51.646Z</time></trkpt><trkpt lat="43.984435" lon="12.0961417"><ele>204.25</ele><time>2026-04-30T09:33:52.641Z</time></trkpt><trkpt lat="43.984425" lon="12.095955"><ele>206.0</ele><time>2026-04-30T09:33:53.648Z</time></trkpt><trkpt lat="43.98441" lon="12.0957683"><ele>210.25</ele><time>2026-04-30T09:33:54.649Z</time></trkpt><trkpt lat="43.9843867" lon="12.0955767"><ele>214.5</ele><time>2026-04-30T09:33:55.645Z</time></trkpt><trkpt lat="43.984355" lon="12.0953883"><ele>218.75</ele><time>2026-04-30T09:33:56.657Z</time></trkpt><trkpt lat="43.9843233" lon="12.095195"><ele>223.0</ele><time>2026-04-30T09:33:57.653Z</time></trkpt><trkpt lat="43.984295" lon="12.09501"><ele>217.75</ele><time>2026-04-30T09:33:58.65Z</time></trkpt><trkpt lat="43.9842617" lon="12.094835"><ele>212.5</ele><time>2026-04-30T09:33:59.642Z</time></trkpt><trkpt lat="43.98421" lon="12.0946767"><ele>207.25</ele><time>2026-04-30T09:34:00.655Z</time></trkpt><trkpt lat="43.9841317" lon="12.09453"><ele>202.0</ele><time>2026-04-30T09:34:01.647Z</time></trkpt><trkpt lat="43.9840317" lon="12.0944083"><ele>202.0</ele><time>2026-04-30T09:34:02.665Z</time></trkpt><trkpt lat="43.98392" lon="12.0943067"><ele>202.0</ele><time>2026-04-30T09:34:03.652Z</time></trkpt><trkpt lat="43.9838" lon="12.0942167"><ele>202.0</ele><time>2026-04-30T09:34:04.642Z</time></trkpt><trkpt lat="43.9836767" lon="12.09414"><ele>202.0</ele><time>2026-04-30T09:34:05.641Z</time></trkpt><trkpt lat="43.98356" lon="12.0940667"><ele>205.5</ele><time>2026-04-30T09:34:06.65Z</time></trkpt><trkpt lat="43.98344" lon="12.0940033"><ele>209.0</ele><time>2026-04-30T09:34:07.646Z</time></trkpt><trkpt lat="43.9833167" lon="12.093955"><ele>212.5</ele><time>2026-04-30T09:34:08.655Z</time></trkpt><trkpt lat="43.9831833" lon="12.09393"><ele>216.0</ele><time>2026-04-30T09:34:09.654Z</time></trkpt><trkpt lat="43.983045" lon="12.0939267"><ele>216.0</ele><time>2026-04-30T09:34:10.649Z</time></trkpt><trkpt lat="43.9829017" lon="12.09395"><ele>216.0</ele><time>2026-04-30T09:34:11.649Z</time></trkpt><trkpt lat="43.982755" lon="12.0939983"><ele>216.0</ele><time>2026-04-30T09:34:12.647Z</time></trkpt><trkpt lat="43.982605" lon="12.09407"><ele>212.0</ele><time>2026-04-30T09:34:13.642Z</time></trkpt><trkpt lat="43.98246" lon="12.0941567"><ele>208.0</ele><time>2026-04-30T09:34:14.648Z</time></trkpt><trkpt lat="43.9823267" lon="12.09425"><ele>204.0</ele><time>2026-04-30T09:34:15.648Z</time></trkpt><trkpt lat="43.9822017" lon="12.0943567"><ele>204.0</ele><time>2026-04-30T09:34:16.651Z</time></trkpt><trkpt lat="43.9820867" lon="12.0944833"><ele>204.0</ele><time>2026-04-30T09:34:17.652Z</time></trkpt><trkpt lat="43.98198" lon="12.0946083"><ele>204.0</ele><time>2026-04-30T09:34:18.657Z</time></trkpt><trkpt lat="43.9818717" lon="12.0947167"><ele>204.0</ele><time>2026-04-30T09:34:19.646Z</time></trkpt><trkpt lat="43.98176" lon="12.094795"><ele>205.25</ele><time>2026-04-30T09:34:20.641Z</time></trkpt><trkpt lat="43.98165" lon="12.0948267"><ele>206.5</ele><time>2026-04-30T09:34:21.653Z</time></trkpt><trkpt lat="43.9815467" lon="12.0948083"><ele>207.75</ele><time>2026-04-30T09:34:22.651Z</time></trkpt><trkpt lat="43.9814433" lon="12.0947533"><ele>209.0</ele><time>2026-04-30T09:34:23.657Z</time></trkpt><trkpt lat="43.9813333" lon="12.094675"><ele>209.0</ele><time>2026-04-30T09:34:24.646Z</time></trkpt><trkpt lat="43.98122" lon="12.0945917"><ele>209.0</ele><time>2026-04-30T09:34:25.653Z</time></trkpt><trkpt lat="43.9811083" lon="12.0945067"><ele>209.0</ele><time>2026-04-30T09:34:26.651Z</time></trkpt><trkpt lat="43.98099" lon="12.0944233"><ele>209.0</ele><time>2026-04-30T09:34:27.644Z</time></trkpt><trkpt lat="43.9808717" lon="12.0943417"><ele>209.75</ele><time>2026-04-30T09:34:28.642Z</time></trkpt><trkpt lat="43.9807517" lon="12.094255"><ele>210.5</ele><time>2026-04-30T09:34:29.641Z</time></trkpt><trkpt lat="43.9806333" lon="12.0941683"><ele>211.25</ele><time>2026-04-30T09:34:30.646Z</time></trkpt><trkpt lat="43.9805167" lon="12.0940767"><ele>212.0</ele><time>2026-04-30T09:34:31.647Z</time></trkpt><trkpt lat="43.9804117" lon="12.093965"><ele>216.0</ele><time>2026-04-30T09:34:32.644Z</time></trkpt><trkpt lat="43.9803217" lon="12.09382"><ele>220.0</ele><time>2026-04-30T09:34:33.651Z</time></trkpt><trkpt lat="43.9802383" lon="12.09366"><ele>224.0</ele><time>2026-04-30T09:34:34.639Z</time></trkpt><trkpt lat="43.980155" lon="12.0934983"><ele>228.0</ele><time>2026-04-30T09:34:35.654Z</time></trkpt><trkpt lat="43.9800617" lon="12.09333"><ele>225.66666666666669</ele><time>2026-04-30T09:34:36.644Z</time></trkpt><trkpt lat="43.9799583" lon="12.0931667"><ele>223.33333333333334</ele><time>2026-04-30T09:34:37.649Z</time></trkpt><trkpt lat="43.9798467" lon="12.0930017"><ele>221.0</ele><time>2026-04-30T09:34:38.649Z</time></trkpt><trkpt lat="43.97973" lon="12.0928467"><ele>221.0</ele><time>2026-04-30T09:34:39.649Z</time></trkpt><trkpt lat="43.9796083" lon="12.0927"><ele>221.0</ele><time>2026-04-30T09:34:40.642Z</time></trkpt><trkpt lat="43.9794833" lon="12.0925583"><ele>221.0</ele><time>2026-04-30T09:34:41.645Z</time></trkpt><trkpt lat="43.9793567" lon="12.09242"><ele>225.0</ele><time>2026-04-30T09:34:42.659Z</time></trkpt><trkpt lat="43.9792267" lon="12.0922967"><ele>229.0</ele><time>2026-04-30T09:34:43.652Z</time></trkpt><trkpt lat="43.9790917" lon="12.0921883"><ele>233.0</ele><time>2026-04-30T09:34:44.652Z</time></trkpt><trkpt lat="43.9789533" lon="12.0920917"><ele>233.0</ele><time>2026-04-30T09:34:45.648Z</time></trkpt><trkpt lat="43.97881" lon="12.0920017"><ele>233.0</ele><time>2026-04-30T09:34:46.644Z</time></trkpt><trkpt lat="43.9786683" lon="12.091915"><ele>233.0</ele><time>2026-04-30T09:34:47.644Z</time></trkpt><trkpt lat="43.9785217" lon="12.09183"><ele>233.0</ele><time>2026-04-30T09:34:48.642Z</time></trkpt><trkpt lat="43.9783733" lon="12.091765"><ele>233.0</ele><time>2026-04-30T09:34:49.649Z</time></trkpt><trkpt lat="43.97823" lon="12.0917117"><ele>233.0</ele><time>2026-04-30T09:34:50.643Z</time></trkpt><trkpt lat="43.9780883" lon="12.091675"><ele>233.0</ele><time>2026-04-30T09:34:51.645Z</time></trkpt><trkpt lat="43.9779467" lon="12.0916567"><ele>229.0</ele><time>2026-04-30T09:34:52.652Z</time></trkpt><trkpt lat="43.9778" lon="12.0916467"><ele>225.0</ele><time>2026-04-30T09:34:53.651Z</time></trkpt><trkpt lat="43.97765" lon="12.0916383"><ele>221.0</ele><time>2026-04-30T09:34:54.651Z</time></trkpt><trkpt lat="43.9774983" lon="12.0916217"><ele>217.0</ele><time>2026-04-30T09:34:55.644Z</time></trkpt><trkpt lat="43.977345" lon="12.0916067"><ele>226.66666666666666</ele><time>2026-04-30T09:34:56.644Z</time></trkpt><trkpt lat="43.9771917" lon="12.0915867"><ele>236.33333333333331</ele><time>2026-04-30T09:34:57.647Z</time></trkpt><trkpt lat="43.9770433" lon="12.0915533"><ele>246.0</ele><time>2026-04-30T09:34:58.646Z</time></trkpt><trkpt lat="43.9769017" lon="12.0914833"><ele>246.0</ele><time>2026-04-30T09:34:59.654Z</time></trkpt><trkpt lat="43.9767667" lon="12.0913783"><ele>246.0</ele><time>2026-04-30T09:35:00.647Z</time></trkpt><trkpt lat="43.976635" lon="12.0912567"><ele>246.0</ele><time>2026-04-30T09:35:01.647Z</time></trkpt><trkpt lat="43.976505" lon="12.091125"><ele>244.33333333333331</ele><time>2026-04-30T09:35:02.647Z</time></trkpt><trkpt lat="43.9763767" lon="12.0909867"><ele>242.66666666666666</ele><time>2026-04-30T09:35:03.651Z</time></trkpt><trkpt lat="43.9762483" lon="12.0908383"><ele>241.0</ele><time>2026-04-30T09:35:04.659Z</time></trkpt><trkpt lat="43.97612" lon="12.0906817"><ele>241.0</ele><time>2026-04-30T09:35:05.642Z</time></trkpt><trkpt lat="43.9759917" lon="12.0905217"><ele>241.0</ele><time>2026-04-30T09:35:06.64Z</time></trkpt><trkpt lat="43.97586" lon="12.0903533"><ele>241.0</ele><time>2026-04-30T09:35:07.649Z</time></trkpt><trkpt lat="43.9757233" lon="12.090185"><ele>243.66666666666666</ele><time>2026-04-30T09:35:08.647Z</time></trkpt><trkpt lat="43.9755883" lon="12.0900117"><ele>246.33333333333331</ele><time>2026-04-30T09:35:09.648Z</time></trkpt><trkpt lat="43.9754583" lon="12.0898433"><ele>249.0</ele><time>2026-04-30T09:35:10.646Z</time></trkpt><trkpt lat="43.9753283" lon="12.0896917"><ele>249.0</ele><time>2026-04-30T09:35:11.643Z</time></trkpt><trkpt lat="43.9751983" lon="12.08956"><ele>249.0</ele><time>2026-04-30T09:35:12.648Z</time></trkpt><trkpt lat="43.975065" lon="12.0894417"><ele>249.0</ele><time>2026-04-30T09:35:13.646Z</time></trkpt><trkpt lat="43.9749283" lon="12.0893283"><ele>245.0</ele><time>2026-04-30T09:35:14.648Z</time></trkpt><trkpt lat="43.9747867" lon="12.0892183"><ele>241.0</ele><time>2026-04-30T09:35:15.685Z</time></trkpt><trkpt lat="43.974645" lon="12.089105"><ele>237.0</ele><time>2026-04-30T09:35:16.644Z</time></trkpt><trkpt lat="43.9745033" lon="12.0889917"><ele>242.0</ele><time>2026-04-30T09:35:17.646Z</time></trkpt><trkpt lat="43.9743617" lon="12.08888"><ele>247.0</ele><time>2026-04-30T09:35:18.647Z</time></trkpt><trkpt lat="43.97422" lon="12.08877"><ele>252.0</ele><time>2026-04-30T09:35:19.644Z</time></trkpt><trkpt lat="43.9740783" lon="12.0886667"><ele>252.0</ele><time>2026-04-30T09:35:20.641Z</time></trkpt><trkpt lat="43.9739433" lon="12.0885717"><ele>252.0</ele><time>2026-04-30T09:35:21.647Z</time></trkpt><trkpt lat="43.97381" lon="12.0884783"><ele>252.0</ele><time>2026-04-30T09:35:22.647Z</time></trkpt><trkpt lat="43.97368" lon="12.0883917"><ele>252.0</ele><time>2026-04-30T09:35:23.643Z</time></trkpt><trkpt lat="43.973565" lon="12.0883133"><ele>254.8</ele><time>2026-04-30T09:35:24.64Z</time></trkpt><trkpt lat="43.9734633" lon="12.0882467"><ele>257.6</ele><time>2026-04-30T09:35:25.649Z</time></trkpt><trkpt lat="43.9733767" lon="12.08819"><ele>260.40000000000003</ele><time>2026-04-30T09:35:26.647Z</time></trkpt><trkpt lat="43.9733067" lon="12.0881467"><ele>263.2</ele><time>2026-04-30T09:35:27.654Z</time></trkpt><trkpt lat="43.9732183" lon="12.08811"><ele>266.0</ele><time>2026-04-30T09:35:29.655Z</time></trkpt><trkpt lat="43.97315" lon="12.0882117"><ele>260.7142857142857</ele><time>2026-04-30T09:35:32.655Z</time></trkpt><trkpt lat="43.9731217" lon="12.0882933"><ele>255.42857142857144</ele><time>2026-04-30T09:35:33.65Z</time></trkpt><trkpt lat="43.97309" lon="12.088385"><ele>250.14285714285714</ele><time>2026-04-30T09:35:34.646Z</time></trkpt><trkpt lat="43.97306" lon="12.0884733"><ele>244.85714285714286</ele><time>2026-04-30T09:35:35.655Z</time></trkpt><trkpt lat="43.9730167" lon="12.0885483"><ele>239.57142857142858</ele><time>2026-04-30T09:35:36.644Z</time></trkpt><trkpt lat="43.9729633" lon="12.088605"><ele>234.28571428571428</ele><time>2026-04-30T09:35:37.648Z</time></trkpt><trkpt lat="43.9729017" lon="12.0886367"><ele>229.0</ele><time>2026-04-30T09:35:38.655Z</time></trkpt><trkpt lat="43.9728417" lon="12.0886683"><ele>229.0</ele><time>2026-04-30T09:35:39.655Z</time></trkpt><trkpt lat="43.9727433" lon="12.088775"><ele>228.99999999999997</ele><time>2026-04-30T09:35:41.647Z</time></trkpt><trkpt lat="43.9726617" lon="12.0888883"><ele>228.99999999999997</ele><time>2026-04-30T09:35:43.649Z</time></trkpt><trkpt lat="43.9725833" lon="12.0890117"><ele>229.0</ele><time>2026-04-30T09:35:45.646Z</time></trkpt><trkpt lat="43.97254" lon="12.0890833"><ele>229.0</ele><time>2026-04-30T09:35:46.646Z</time></trkpt><trkpt lat="43.9725" lon="12.0891683"><ele>228.57142857142856</ele><time>2026-04-30T09:35:47.644Z</time></trkpt><trkpt lat="43.97246" lon="12.0892533"><ele>228.14285714285717</ele><time>2026-04-30T09:35:48.644Z</time></trkpt><trkpt lat="43.9724267" lon="12.0893383"><ele>227.71428571428572</ele><time>2026-04-30T09:35:49.655Z</time></trkpt><trkpt lat="43.9723883" lon="12.08941"><ele>227.28571428571428</ele><time>2026-04-30T09:35:50.647Z</time></trkpt><trkpt lat="43.972325" lon="12.08951"><ele>226.85714285714283</ele><time>2026-04-30T09:35:52.647Z</time></trkpt><trkpt lat="43.9723267" lon="12.0896133"><ele>226.42857142857144</ele><time>2026-04-30T09:36:35.649Z</time></trkpt><trkpt lat="43.9723467" lon="12.0896967"><ele>226.0</ele><time>2026-04-30T09:36:36.653Z</time></trkpt><trkpt lat="43.972375" lon="12.08979"><ele>226.0</ele><time>2026-04-30T09:36:37.648Z</time></trkpt><trkpt lat="43.9724017" lon="12.0898933"><ele>226.0</ele><time>2026-04-30T09:36:38.647Z</time></trkpt><trkpt lat="43.9724217" lon="12.0899983"><ele>226.0</ele><time>2026-04-30T09:36:39.647Z</time></trkpt><trkpt lat="43.9724317" lon="12.0900967"><ele>226.0</ele><time>2026-04-30T09:36:40.65Z</time></trkpt><trkpt lat="43.9724283" lon="12.0901867"><ele>226.0</ele><time>2026-04-30T09:36:41.646Z</time></trkpt><trkpt lat="43.9724033" lon="12.0902733"><ele>226.0</ele><time>2026-04-30T09:36:42.65Z</time></trkpt><trkpt lat="43.97236" lon="12.0903533"><ele>226.0</ele><time>2026-04-30T09:36:43.651Z</time></trkpt><trkpt lat="43.9722917" lon="12.0904283"><ele>228.60000000000002</ele><time>2026-04-30T09:36:44.647Z</time></trkpt><trkpt lat="43.9722083" lon="12.0905033"><ele>231.20000000000002</ele><time>2026-04-30T09:36:45.646Z</time></trkpt><trkpt lat="43.9721233" lon="12.0905867"><ele>233.79999999999998</ele><time>2026-04-30T09:36:46.652Z</time></trkpt><trkpt lat="43.9720467" lon="12.0906667"><ele>236.39999999999998</ele><time>2026-04-30T09:36:47.644Z</time></trkpt><trkpt lat="43.9719717" lon="12.0907417"><ele>239.0</ele><time>2026-04-30T09:36:48.643Z</time></trkpt><trkpt lat="43.971895" lon="12.0908167"><ele>241.33333333333334</ele><time>2026-04-30T09:36:49.649Z</time></trkpt><trkpt lat="43.9718233" lon="12.0908933"><ele>243.66666666666669</ele><time>2026-04-30T09:36:50.648Z</time></trkpt><trkpt lat="43.97176" lon="12.0909717"><ele>246.0</ele><time>2026-04-30T09:36:51.648Z</time></trkpt><trkpt lat="43.9716917" lon="12.0910433"><ele>248.33333333333331</ele><time>2026-04-30T09:36:52.649Z</time></trkpt><trkpt lat="43.9716183" lon="12.0910933"><ele>250.66666666666666</ele><time>2026-04-30T09:36:53.645Z</time></trkpt><trkpt lat="43.9715533" lon="12.091125"><ele>253.0</ele><time>2026-04-30T09:36:54.656Z</time></trkpt><trkpt lat="43.97147" lon="12.0911867"><ele>253.0</ele><time>2026-04-30T09:36:56.643Z</time></trkpt><trkpt lat="43.971495" lon="12.0912783"><ele>253.0</ele><time>2026-04-30T09:36:59.644Z</time></trkpt><trkpt lat="43.9716217" lon="12.0912383"><ele>253.0</ele><time>2026-04-30T09:37:01.652Z</time></trkpt><trkpt lat="43.9717117" lon="12.0911783"><ele>253.0</ele><time>2026-04-30T09:37:02.642Z</time></trkpt><trkpt lat="43.9718017" lon="12.0911383"><ele>253.0</ele><time>2026-04-30T09:37:03.647Z</time></trkpt><trkpt lat="43.9718883" lon="12.091105"><ele>255.2</ele><time>2026-04-30T09:37:04.652Z</time></trkpt><trkpt lat="43.9719783" lon="12.0910917"><ele>257.4</ele><time>2026-04-30T09:37:05.645Z</time></trkpt><trkpt lat="43.97207" lon="12.0911"><ele>259.59999999999997</ele><time>2026-04-30T09:37:06.65Z</time></trkpt><trkpt lat="43.972165" lon="12.091145"><ele>261.8</ele><time>2026-04-30T09:37:07.647Z</time></trkpt><trkpt lat="43.9722583" lon="12.0911883"><ele>264.0</ele><time>2026-04-30T09:37:08.651Z</time></trkpt><trkpt lat="43.97236" lon="12.0912167"><ele>264.0</ele><time>2026-04-30T09:37:09.647Z</time></trkpt><trkpt lat="43.9724683" lon="12.0912267"><ele>264.0</ele><time>2026-04-30T09:37:10.642Z</time></trkpt><trkpt lat="43.972585" lon="12.091235"><ele>264.0</ele><time>2026-04-30T09:37:11.646Z</time></trkpt><trkpt lat="43.9726917" lon="12.0912467"><ele>264.0</ele><time>2026-04-30T09:37:12.652Z</time></trkpt><trkpt lat="43.9727867" lon="12.091265"><ele>264.0</ele><time>2026-04-30T09:37:13.657Z</time></trkpt><trkpt lat="43.9728667" lon="12.0912817"><ele>263.4</ele><time>2026-04-30T09:37:14.653Z</time></trkpt><trkpt lat="43.972975" lon="12.091335"><ele>262.79999999999995</ele><time>2026-04-30T09:37:16.648Z</time></trkpt><trkpt lat="43.9728917" lon="12.09144"><ele>262.20000000000005</ele><time>2026-04-30T09:37:19.644Z</time></trkpt><trkpt lat="43.9728283" lon="12.09145"><ele>261.6</ele><time>2026-04-30T09:37:20.642Z</time></trkpt><trkpt lat="43.9727433" lon="12.0914467"><ele>261.0</ele><time>2026-04-30T09:37:21.641Z</time></trkpt><trkpt lat="43.9726533" lon="12.0914633"><ele>261.0</ele><time>2026-04-30T09:37:22.646Z</time></trkpt><trkpt lat="43.9725567" lon="12.0914983"><ele>261.0</ele><time>2026-04-30T09:37:23.644Z</time></trkpt><trkpt lat="43.9724483" lon="12.09154"><ele>261.0</ele><time>2026-04-30T09:37:24.652Z</time></trkpt><trkpt lat="43.9723333" lon="12.0915767"><ele>261.0</ele><time>2026-04-30T09:37:25.642Z</time></trkpt><trkpt lat="43.9722267" lon="12.091615"><ele>261.0</ele><time>2026-04-30T09:37:26.639Z</time></trkpt><trkpt lat="43.9721367" lon="12.0916283"><ele>267.8</ele><time>2026-04-30T09:37:27.643Z</time></trkpt><trkpt lat="43.9720617" lon="12.0916217"><ele>274.6</ele><time>2026-04-30T09:37:28.65Z</time></trkpt><trkpt lat="43.9719517" lon="12.09164"><ele>281.4</ele><time>2026-04-30T09:37:30.643Z</time></trkpt><trkpt lat="43.9719417" lon="12.0917817"><ele>288.2</ele><time>2026-04-30T09:37:32.644Z</time></trkpt><trkpt lat="43.9719733" lon="12.0918583"><ele>295.0</ele><time>2026-04-30T09:37:33.641Z</time></trkpt><trkpt lat="43.9720717" lon="12.0918833"><ele>295.0</ele><time>2026-04-30T09:37:34.645Z</time></trkpt><trkpt lat="43.97216" lon="12.0918867"><ele>295.0</ele><time>2026-04-30T09:37:35.65Z</time></trkpt><trkpt lat="43.9722433" lon="12.0918533"><ele>295.0</ele><time>2026-04-30T09:37:36.651Z</time></trkpt><trkpt lat="43.972315" lon="12.0918367"><ele>295.0</ele><time>2026-04-30T09:37:37.642Z</time></trkpt><trkpt lat="43.97238" lon="12.0919417"><ele>295.0</ele><time>2026-04-30T09:37:39.654Z</time></trkpt><trkpt lat="43.9723" lon="12.092045"><ele>295.0</ele><time>2026-04-30T09:37:41.648Z</time></trkpt><trkpt lat="43.972225" lon="12.0920583"><ele>295.0</ele><time>2026-04-30T09:37:42.644Z</time></trkpt><trkpt lat="43.9721417" lon="12.0920767"><ele>295.0</ele><time>2026-04-30T09:37:43.65Z</time></trkpt><trkpt lat="43.9720567" lon="12.0921017"><ele>295.0</ele><time>2026-04-30T09:37:44.649Z</time></trkpt><trkpt lat="43.9719683" lon="12.092125"><ele>295.0</ele><time>2026-04-30T09:37:45.647Z</time></trkpt><trkpt lat="43.9718717" lon="12.0921433"><ele>295.0</ele><time>2026-04-30T09:37:46.65Z</time></trkpt><trkpt lat="43.9717683" lon="12.0921567"><ele>294.0</ele><time>2026-04-30T09:37:47.645Z</time></trkpt><trkpt lat="43.9716683" lon="12.092165"><ele>293.0</ele><time>2026-04-30T09:37:48.652Z</time></trkpt><trkpt lat="43.9715783" lon="12.0921733"><ele>292.0</ele><time>2026-04-30T09:37:49.647Z</time></trkpt><trkpt lat="43.9714933" lon="12.09219"><ele>291.0</ele><time>2026-04-30T09:37:50.643Z</time></trkpt><trkpt lat="43.97142" lon="12.0922283"><ele>290.0</ele><time>2026-04-30T09:37:51.644Z</time></trkpt><trkpt lat="43.9713567" lon="12.0922917"><ele>289.0</ele><time>2026-04-30T09:37:52.645Z</time></trkpt><trkpt lat="43.9713017" lon="12.0923733"><ele>296.66666666666663</ele><time>2026-04-30T09:37:53.659Z</time></trkpt><trkpt lat="43.971245" lon="12.09246"><ele>304.3333333333333</ele><time>2026-04-30T09:37:54.644Z</time></trkpt><trkpt lat="43.9711833" lon="12.0925267"><ele>312.0</ele><time>2026-04-30T09:37:55.65Z</time></trkpt><trkpt lat="43.9711117" lon="12.0925633"><ele>319.6666666666667</ele><time>2026-04-30T09:37:56.64Z</time></trkpt><trkpt lat="43.9710283" lon="12.092585"><ele>327.33333333333337</ele><time>2026-04-30T09:37:57.649Z</time></trkpt><trkpt lat="43.970945" lon="12.092615"><ele>335.0</ele><time>2026-04-30T09:37:58.645Z</time></trkpt><trkpt lat="43.97087" lon="12.0926483"><ele>334.0</ele><time>2026-04-30T09:37:59.647Z</time></trkpt><trkpt lat="43.9707967" lon="12.0927033"><ele>333.0</ele><time>2026-04-30T09:38:00.653Z</time></trkpt><trkpt lat="43.970745" lon="12.0927883"><ele>332.0</ele><time>2026-04-30T09:38:01.644Z</time></trkpt><trkpt lat="43.97073" lon="12.0928983"><ele>331.0</ele><time>2026-04-30T09:38:02.647Z</time></trkpt><trkpt lat="43.9707383" lon="12.0930167"><ele>330.0</ele><time>2026-04-30T09:38:03.651Z</time></trkpt><trkpt lat="43.9707733" lon="12.0931567"><ele>329.0</ele><time>2026-04-30T09:38:04.639Z</time></trkpt><trkpt lat="43.9708133" lon="12.093305"><ele>329.0</ele><time>2026-04-30T09:38:05.651Z</time></trkpt><trkpt lat="43.9708283" lon="12.093445"><ele>329.0</ele><time>2026-04-30T09:38:06.645Z</time></trkpt><trkpt lat="43.9708317" lon="12.0935933"><ele>329.0</ele><time>2026-04-30T09:38:07.641Z</time></trkpt><trkpt lat="43.9708233" lon="12.09375"><ele>329.0</ele><time>2026-04-30T09:38:08.643Z</time></trkpt><trkpt lat="43.9708217" lon="12.0939133"><ele>329.0</ele><time>2026-04-30T09:38:09.646Z</time></trkpt><trkpt lat="43.9708283" lon="12.0940617"><ele>328.83333333333337</ele><time>2026-04-30T09:38:10.643Z</time></trkpt><trkpt lat="43.9708417" lon="12.0941833"><ele>328.6666666666667</ele><time>2026-04-30T09:38:11.646Z</time></trkpt><trkpt lat="43.970865" lon="12.09427"><ele>328.5</ele><time>2026-04-30T09:38:12.641Z</time></trkpt><trkpt lat="43.970945" lon="12.0943567"><ele>328.3333333333333</ele><time>2026-04-30T09:38:14.645Z</time></trkpt><trkpt lat="43.9710033" lon="12.0943117"><ele>328.16666666666663</ele><time>2026-04-30T09:38:15.656Z</time></trkpt><trkpt lat="43.9710533" lon="12.0942367"><ele>328.0</ele><time>2026-04-30T09:38:16.642Z</time></trkpt><trkpt lat="43.971075" lon="12.094065"><ele>335.0</ele><time>2026-04-30T09:38:17.642Z</time></trkpt><trkpt lat="43.971115" lon="12.0939017"><ele>342.0</ele><time>2026-04-30T09:38:18.645Z</time></trkpt><trkpt lat="43.97116" lon="12.093725"><ele>349.0</ele><time>2026-04-30T09:38:19.644Z</time></trkpt><trkpt lat="43.9712167" lon="12.0935567"><ele>356.0</ele><time>2026-04-30T09:38:20.642Z</time></trkpt><trkpt lat="43.97128" lon="12.0934083"><ele>356.0</ele><time>2026-04-30T09:38:21.657Z</time></trkpt><trkpt lat="43.9713533" lon="12.09328"><ele>356.0</ele><time>2026-04-30T09:38:22.649Z</time></trkpt><trkpt lat="43.971435" lon="12.09317"><ele>356.0</ele><time>2026-04-30T09:38:23.648Z</time></trkpt><trkpt lat="43.9715217" lon="12.0930783"><ele>356.0</ele><time>2026-04-30T09:38:24.646Z</time></trkpt><trkpt lat="43.9716167" lon="12.09302"><ele>356.0</ele><time>2026-04-30T09:38:25.651Z</time></trkpt><trkpt lat="43.971725" lon="12.0929917"><ele>350.5</ele><time>2026-04-30T09:38:26.65Z</time></trkpt><trkpt lat="43.9718467" lon="12.0929833"><ele>345.0</ele><time>2026-04-30T09:38:27.645Z</time></trkpt><trkpt lat="43.971975" lon="12.0929917"><ele>339.5</ele><time>2026-04-30T09:38:28.646Z</time></trkpt><trkpt lat="43.9720967" lon="12.0930083"><ele>334.0</ele><time>2026-04-30T09:38:29.642Z</time></trkpt><trkpt lat="43.9722083" lon="12.0930183"><ele>334.0</ele><time>2026-04-30T09:38:30.651Z</time></trkpt><trkpt lat="43.97231" lon="12.0930283"><ele>334.0</ele><time>2026-04-30T09:38:31.651Z</time></trkpt><trkpt lat="43.9723983" lon="12.09305"><ele>334.0</ele><time>2026-04-30T09:38:32.645Z</time></trkpt><trkpt lat="43.97248" lon="12.0931033"><ele>334.0</ele><time>2026-04-30T09:38:33.651Z</time></trkpt><trkpt lat="43.9725517" lon="12.093175"><ele>334.0</ele><time>2026-04-30T09:38:34.656Z</time></trkpt><trkpt lat="43.9726217" lon="12.0932467"><ele>337.3333333333333</ele><time>2026-04-30T09:38:35.651Z</time></trkpt><trkpt lat="43.9726867" lon="12.0933083"><ele>340.66666666666663</ele><time>2026-04-30T09:38:36.648Z</time></trkpt><trkpt lat="43.9727283" lon="12.0934433"><ele>344.0</ele><time>2026-04-30T09:38:38.649Z</time></trkpt><trkpt lat="43.9726317" lon="12.0934833"><ele>347.3333333333333</ele><time>2026-04-30T09:38:40.656Z</time></trkpt><trkpt lat="43.972565" lon="12.093455"><ele>350.6666666666667</ele><time>2026-04-30T09:38:41.651Z</time></trkpt><trkpt lat="43.9724833" lon="12.0933933"><ele>354.0</ele><time>2026-04-30T09:38:42.646Z</time></trkpt><trkpt lat="43.972405" lon="12.093345"><ele>356.8333333333333</ele><time>2026-04-30T09:38:43.647Z</time></trkpt><trkpt lat="43.9723383" lon="12.0933067"><ele>359.6666666666667</ele><time>2026-04-30T09:38:44.645Z</time></trkpt><trkpt lat="43.9722283" lon="12.0933467"><ele>362.5</ele><time>2026-04-30T09:38:46.642Z</time></trkpt><trkpt lat="43.972185" lon="12.0934183"><ele>365.33333333333337</ele><time>2026-04-30T09:38:47.641Z</time></trkpt><trkpt lat="43.9721433" lon="12.0935"><ele>368.1666666666667</ele><time>2026-04-30T09:38:48.647Z</time></trkpt><trkpt lat="43.972105" lon="12.0935883"><ele>371.0</ele><time>2026-04-30T09:38:49.649Z</time></trkpt><trkpt lat="43.97207" lon="12.0936867"><ele>371.0</ele><time>2026-04-30T09:38:50.642Z</time></trkpt><trkpt lat="43.97204" lon="12.0937883"><ele>371.0</ele><time>2026-04-30T09:38:51.646Z</time></trkpt><trkpt lat="43.972025" lon="12.0939"><ele>371.0</ele><time>2026-04-30T09:38:52.647Z</time></trkpt><trkpt lat="43.972025" lon="12.0940117"><ele>371.0</ele><time>2026-04-30T09:38:53.646Z</time></trkpt><trkpt lat="43.9720433" lon="12.0941233"><ele>371.0</ele><time>2026-04-30T09:38:54.64Z</time></trkpt><trkpt lat="43.9720817" lon="12.0942367"><ele>371.0</ele><time>2026-04-30T09:38:55.642Z</time></trkpt><trkpt lat="43.9721283" lon="12.0943767"><ele>375.75</ele><time>2026-04-30T09:38:56.645Z</time></trkpt><trkpt lat="43.9721867" lon="12.09453"><ele>380.5</ele><time>2026-04-30T09:38:57.647Z</time></trkpt><trkpt lat="43.972245" lon="12.09468"><ele>385.25</ele><time>2026-04-30T09:38:58.642Z</time></trkpt><trkpt lat="43.9723083" lon="12.0948233"><ele>390.0</ele><time>2026-04-30T09:38:59.648Z</time></trkpt><trkpt lat="43.9723767" lon="12.0949633"><ele>390.75</ele><time>2026-04-30T09:39:00.65Z</time></trkpt><trkpt lat="43.9724467" lon="12.0951017"><ele>391.5</ele><time>2026-04-30T09:39:01.641Z</time></trkpt><trkpt lat="43.97252" lon="12.095235"><ele>392.25</ele><time>2026-04-30T09:39:02.638Z</time></trkpt><trkpt lat="43.9726" lon="12.0953567"><ele>393.0</ele><time>2026-04-30T09:39:03.646Z</time></trkpt><trkpt lat="43.97269" lon="12.0954667"><ele>397.0</ele><time>2026-04-30T09:39:04.64Z</time></trkpt><trkpt lat="43.9727883" lon="12.095555"><ele>401.0</ele><time>2026-04-30T09:39:05.645Z</time></trkpt><trkpt lat="43.9728867" lon="12.09563"><ele>405.0</ele><time>2026-04-30T09:39:06.648Z</time></trkpt><trkpt lat="43.9729883" lon="12.0957067"><ele>409.0</ele><time>2026-04-30T09:39:07.641Z</time></trkpt><trkpt lat="43.9730933" lon="12.09579"><ele>409.4</ele><time>2026-04-30T09:39:08.642Z</time></trkpt><trkpt lat="43.9731933" lon="12.0958833"><ele>409.79999999999995</ele><time>2026-04-30T09:39:09.644Z</time></trkpt><trkpt lat="43.97328" lon="12.0959833"><ele>410.20000000000005</ele><time>2026-04-30T09:39:10.641Z</time></trkpt><trkpt lat="43.97334" lon="12.0960867"><ele>410.6</ele><time>2026-04-30T09:39:11.645Z</time></trkpt><trkpt lat="43.9733783" lon="12.0961917"><ele>411.0</ele><time>2026-04-30T09:39:12.644Z</time></trkpt><trkpt lat="43.9733883" lon="12.0963017"><ele>411.0</ele><time>2026-04-30T09:39:13.641Z</time></trkpt><trkpt lat="43.9733717" lon="12.0964183"><ele>411.0</ele><time>2026-04-30T09:39:14.648Z</time></trkpt><trkpt lat="43.9733367" lon="12.0965567"><ele>411.0</ele><time>2026-04-30T09:39:15.656Z</time></trkpt><trkpt lat="43.9732917" lon="12.09671"><ele>411.0</ele><time>2026-04-30T09:39:16.649Z</time></trkpt><trkpt lat="43.9732433" lon="12.0968483"><ele>411.0</ele><time>2026-04-30T09:39:17.639Z</time></trkpt><trkpt lat="43.9731817" lon="12.096965"><ele>411.5</ele><time>2026-04-30T09:39:18.647Z</time></trkpt><trkpt lat="43.9731" lon="12.097075"><ele>412.0</ele><time>2026-04-30T09:39:19.645Z</time></trkpt><trkpt lat="43.9729983" lon="12.0971733"><ele>412.5</ele><time>2026-04-30T09:39:20.643Z</time></trkpt><trkpt lat="43.9728883" lon="12.0972683"><ele>413.0</ele><time>2026-04-30T09:39:21.65Z</time></trkpt><trkpt lat="43.97278" lon="12.0973567"><ele>415.59999999999997</ele><time>2026-04-30T09:39:22.648Z</time></trkpt><trkpt lat="43.97268" lon="12.097435"><ele>418.2</ele><time>2026-04-30T09:39:23.641Z</time></trkpt><trkpt lat="43.9725983" lon="12.0974933"><ele>420.8</ele><time>2026-04-30T09:39:24.645Z</time></trkpt><trkpt lat="43.9725333" lon="12.09754"><ele>423.4</ele><time>2026-04-30T09:39:25.649Z</time></trkpt><trkpt lat="43.9725367" lon="12.0976533"><ele>426.0</ele><time>2026-04-30T09:39:27.656Z</time></trkpt><trkpt lat="43.9726417" lon="12.0976983"><ele>426.0</ele><time>2026-04-30T09:39:29.645Z</time></trkpt><trkpt lat="43.9727167" lon="12.0977017"><ele>426.0</ele><time>2026-04-30T09:39:30.643Z</time></trkpt><trkpt lat="43.9727833" lon="12.09773"><ele>426.0</ele><time>2026-04-30T09:39:31.643Z</time></trkpt><trkpt lat="43.9728317" lon="12.0978717"><ele>426.0</ele><time>2026-04-30T09:39:33.651Z</time></trkpt><trkpt lat="43.9728067" lon="12.0979633"><ele>426.0</ele><time>2026-04-30T09:39:34.646Z</time></trkpt><trkpt lat="43.9727383" lon="12.0980683"><ele>426.0</ele><time>2026-04-30T09:39:35.648Z</time></trkpt><trkpt lat="43.97267" lon="12.0981717"><ele>427.5</ele><time>2026-04-30T09:39:36.643Z</time></trkpt><trkpt lat="43.9726217" lon="12.098275"><ele>429.0</ele><time>2026-04-30T09:39:37.646Z</time></trkpt><trkpt lat="43.9725833" lon="12.09838"><ele>430.5</ele><time>2026-04-30T09:39:38.646Z</time></trkpt><trkpt lat="43.9725483" lon="12.0984933"><ele>432.0</ele><time>2026-04-30T09:39:39.646Z</time></trkpt><trkpt lat="43.9725167" lon="12.0986083"><ele>433.5</ele><time>2026-04-30T09:39:40.646Z</time></trkpt><trkpt lat="43.9725067" lon="12.0987267"><ele>435.0</ele><time>2026-04-30T09:39:41.655Z</time></trkpt><trkpt lat="43.9725233" lon="12.0988317"><ele>436.0</ele><time>2026-04-30T09:39:42.647Z</time></trkpt><trkpt lat="43.9725567" lon="12.0989117"><ele>437.0</ele><time>2026-04-30T09:39:43.643Z</time></trkpt><trkpt lat="43.9726083" lon="12.0989783"><ele>438.0</ele><time>2026-04-30T09:39:44.655Z</time></trkpt><trkpt lat="43.9726783" lon="12.0990367"><ele>439.0</ele><time>2026-04-30T09:39:45.651Z</time></trkpt><trkpt lat="43.97275" lon="12.099095"><ele>440.0</ele><time>2026-04-30T09:39:46.648Z</time></trkpt><trkpt lat="43.9728233" lon="12.0991633"><ele>441.0</ele><time>2026-04-30T09:39:47.646Z</time></trkpt><trkpt lat="43.9728817" lon="12.0992483"><ele>443.8</ele><time>2026-04-30T09:39:48.647Z</time></trkpt><trkpt lat="43.9729367" lon="12.0993517"><ele>446.6</ele><time>2026-04-30T09:39:49.65Z</time></trkpt><trkpt lat="43.9729867" lon="12.0994633"><ele>449.4</ele><time>2026-04-30T09:39:50.654Z</time></trkpt><trkpt lat="43.973035" lon="12.0995733"><ele>452.2</ele><time>2026-04-30T09:39:51.644Z</time></trkpt><trkpt lat="43.973085" lon="12.09968"><ele>455.0</ele><time>2026-04-30T09:39:52.645Z</time></trkpt><trkpt lat="43.9731383" lon="12.0997883"><ele>455.0</ele><time>2026-04-30T09:39:53.649Z</time></trkpt><trkpt lat="43.973195" lon="12.09989"><ele>455.0</ele><time>2026-04-30T09:39:54.652Z</time></trkpt><trkpt lat="43.9732583" lon="12.0999783"><ele>455.0</ele><time>2026-04-30T09:39:55.644Z</time></trkpt><trkpt lat="43.9733333" lon="12.1000617"><ele>455.0</ele><time>2026-04-30T09:39:56.65Z</time></trkpt><trkpt lat="43.973415" lon="12.1001283"><ele>455.0</ele><time>2026-04-30T09:39:57.654Z</time></trkpt><trkpt lat="43.9735" lon="12.10019"><ele>460.6</ele><time>2026-04-30T09:39:58.648Z</time></trkpt><trkpt lat="43.9735833" lon="12.10026"><ele>466.2</ele><time>2026-04-30T09:39:59.646Z</time></trkpt><trkpt lat="43.9736533" lon="12.100345"><ele>471.79999999999995</ele><time>2026-04-30T09:40:00.64Z</time></trkpt><trkpt lat="43.9737083" lon="12.1004533"><ele>477.4</ele><time>2026-04-30T09:40:01.654Z</time></trkpt><trkpt lat="43.9737483" lon="12.1005817"><ele>483.0</ele><time>2026-04-30T09:40:02.65Z</time></trkpt><trkpt lat="43.9737833" lon="12.1007333"><ele>480.5</ele><time>2026-04-30T09:40:03.658Z</time></trkpt><trkpt lat="43.97382" lon="12.1009067"><ele>478.0</ele><time>2026-04-30T09:40:04.648Z</time></trkpt><trkpt lat="43.9738533" lon="12.1010817"><ele>475.5</ele><time>2026-04-30T09:40:05.65Z</time></trkpt><trkpt lat="43.9738867" lon="12.1012533"><ele>473.0</ele><time>2026-04-30T09:40:06.65Z</time></trkpt><trkpt lat="43.9739167" lon="12.1014267"><ele>471.25</ele><time>2026-04-30T09:40:07.658Z</time></trkpt><trkpt lat="43.9739417" lon="12.1016117"><ele>469.5</ele><time>2026-04-30T09:40:08.639Z</time></trkpt><trkpt lat="43.973965" lon="12.101805"><ele>467.75</ele><time>2026-04-30T09:40:09.652Z</time></trkpt><trkpt lat="43.9739833" lon="12.102"><ele>466.0</ele><time>2026-04-30T09:40:10.646Z</time></trkpt><trkpt lat="43.9740017" lon="12.1021883"><ele>466.0</ele><time>2026-04-30T09:40:11.657Z</time></trkpt><trkpt lat="43.97402" lon="12.1023783"><ele>466.0</ele><time>2026-04-30T09:40:12.651Z</time></trkpt><trkpt lat="43.974035" lon="12.1025533"><ele>466.0</ele><time>2026-04-30T09:40:13.643Z</time></trkpt><trkpt lat="43.974045" lon="12.102715"><ele>466.0</ele><time>2026-04-30T09:40:14.647Z</time></trkpt><trkpt lat="43.9740567" lon="12.1028617"><ele>464.6</ele><time>2026-04-30T09:40:15.645Z</time></trkpt><trkpt lat="43.974085" lon="12.1029933"><ele>463.20000000000005</ele><time>2026-04-30T09:40:16.642Z</time></trkpt><trkpt lat="43.97413" lon="12.10312"><ele>461.79999999999995</ele><time>2026-04-30T09:40:17.645Z</time></trkpt><trkpt lat="43.9741917" lon="12.1032333"><ele>460.4</ele><time>2026-04-30T09:40:18.646Z</time></trkpt><trkpt lat="43.9742683" lon="12.103335"><ele>459.0</ele><time>2026-04-30T09:40:19.647Z</time></trkpt><trkpt lat="43.9743517" lon="12.1034467"><ele>462.6</ele><time>2026-04-30T09:40:20.644Z</time></trkpt><trkpt lat="43.9744333" lon="12.1035683"><ele>466.2</ele><time>2026-04-30T09:40:21.639Z</time></trkpt><trkpt lat="43.9745167" lon="12.10368"><ele>469.80000000000007</ele><time>2026-04-30T09:40:22.646Z</time></trkpt><trkpt lat="43.9745917" lon="12.1037817"><ele>473.40000000000003</ele><time>2026-04-30T09:40:23.646Z</time></trkpt><trkpt lat="43.97465" lon="12.1038833"><ele>477.0</ele><time>2026-04-30T09:40:24.648Z</time></trkpt><trkpt lat="43.9746867" lon="12.103995"><ele>474.8</ele><time>2026-04-30T09:40:25.646Z</time></trkpt><trkpt lat="43.9747083" lon="12.1041367"><ele>472.6</ele><time>2026-04-30T09:40:26.646Z</time></trkpt><trkpt lat="43.9747217" lon="12.1043017"><ele>470.40000000000003</ele><time>2026-04-30T09:40:27.656Z</time></trkpt><trkpt lat="43.974735" lon="12.104465"><ele>468.20000000000005</ele><time>2026-04-30T09:40:28.644Z</time></trkpt><trkpt lat="43.9747533" lon="12.1046067"><ele>466.0</ele><time>2026-04-30T09:40:29.642Z</time></trkpt><trkpt lat="43.9747733" lon="12.104735"><ele>466.00000000000006</ele><time>2026-04-30T09:40:30.647Z</time></trkpt><trkpt lat="43.9747917" lon="12.1048533"><ele>466.0</ele><time>2026-04-30T09:40:31.648Z</time></trkpt><trkpt lat="43.9747967" lon="12.104965"><ele>466.0</ele><time>2026-04-30T09:40:32.641Z</time></trkpt><trkpt lat="43.9747833" lon="12.10508"><ele>466.0</ele><time>2026-04-30T09:40:33.64Z</time></trkpt><trkpt lat="43.974755" lon="12.1051983"><ele>466.00000000000006</ele><time>2026-04-30T09:40:34.645Z</time></trkpt><trkpt lat="43.97471" lon="12.1053033"><ele>466.0</ele><time>2026-04-30T09:40:35.645Z</time></trkpt><trkpt lat="43.9746417" lon="12.1054033"><ele>466.0</ele><time>2026-04-30T09:40:36.646Z</time></trkpt><trkpt lat="43.9745483" lon="12.1054883"><ele>466.0</ele><time>2026-04-30T09:40:37.641Z</time></trkpt><trkpt lat="43.97444" lon="12.1055567"><ele>466.0</ele><time>2026-04-30T09:40:38.646Z</time></trkpt><trkpt lat="43.9743267" lon="12.1056167"><ele>466.0</ele><time>2026-04-30T09:40:39.647Z</time></trkpt><trkpt lat="43.9742033" lon="12.1056683"><ele>461.20000000000005</ele><time>2026-04-30T09:40:40.641Z</time></trkpt><trkpt lat="43.9740867" lon="12.1056967"><ele>456.40000000000003</ele><time>2026-04-30T09:40:41.652Z</time></trkpt><trkpt lat="43.9739833" lon="12.1056883"><ele>451.6</ele><time>2026-04-30T09:40:42.643Z</time></trkpt><trkpt lat="43.97389" lon="12.10565"><ele>446.8</ele><time>2026-04-30T09:40:43.644Z</time></trkpt><trkpt lat="43.9738033" lon="12.1056017"><ele>442.0</ele><time>2026-04-30T09:40:44.651Z</time></trkpt><trkpt lat="43.9737117" lon="12.105575"><ele>442.0</ele><time>2026-04-30T09:40:45.649Z</time></trkpt><trkpt lat="43.973615" lon="12.1055833"><ele>442.00000000000006</ele><time>2026-04-30T09:40:46.641Z</time></trkpt><trkpt lat="43.973515" lon="12.1056333"><ele>442.00000000000006</ele><time>2026-04-30T09:40:47.643Z</time></trkpt><trkpt lat="43.9734183" lon="12.10571"><ele>442.0</ele><time>2026-04-30T09:40:48.651Z</time></trkpt><trkpt lat="43.9733233" lon="12.1057883"><ele>442.0</ele><time>2026-04-30T09:40:49.65Z</time></trkpt><trkpt lat="43.9732317" lon="12.10585"><ele>447.0</ele><time>2026-04-30T09:40:50.65Z</time></trkpt><trkpt lat="43.9731367" lon="12.1058933"><ele>452.00000000000006</ele><time>2026-04-30T09:40:51.653Z</time></trkpt><trkpt lat="43.9730367" lon="12.1059233"><ele>457.00000000000006</ele><time>2026-04-30T09:40:52.643Z</time></trkpt><trkpt lat="43.9729383" lon="12.1059583"><ele>462.0</ele><time>2026-04-30T09:40:53.657Z</time></trkpt><trkpt lat="43.97284" lon="12.1059967"><ele>467.0</ele><time>2026-04-30T09:40:54.65Z</time></trkpt><trkpt lat="43.972755" lon="12.1060433"><ele>466.99999999999994</ele><time>2026-04-30T09:40:55.643Z</time></trkpt><trkpt lat="43.9726733" lon="12.1060967"><ele>467.0</ele><time>2026-04-30T09:40:56.645Z</time></trkpt><trkpt lat="43.9726" lon="12.10617"><ele>467.0</ele><time>2026-04-30T09:40:57.646Z</time></trkpt><trkpt lat="43.9725367" lon="12.1062567"><ele>467.0</ele><time>2026-04-30T09:40:58.645Z</time></trkpt><trkpt lat="43.972475" lon="12.1063483"><ele>466.99999999999994</ele><time>2026-04-30T09:40:59.643Z</time></trkpt><trkpt lat="43.9724217" lon="12.106445"><ele>467.0</ele><time>2026-04-30T09:41:00.65Z</time></trkpt><trkpt lat="43.97238" lon="12.106535"><ele>466.99999999999994</ele><time>2026-04-30T09:41:01.656Z</time></trkpt><trkpt lat="43.97236" lon="12.106625"><ele>467.0</ele><time>2026-04-30T09:41:02.651Z</time></trkpt><trkpt lat="43.9724033" lon="12.1067283"><ele>467.0</ele><time>2026-04-30T09:41:04.647Z</time></trkpt><trkpt lat="43.9725083" lon="12.106695"><ele>467.0</ele><time>2026-04-30T09:41:06.647Z</time></trkpt><trkpt lat="43.972545" lon="12.10662"><ele>466.99999999999994</ele><time>2026-04-30T09:41:07.654Z</time></trkpt><trkpt lat="43.9725933" lon="12.1065433"><ele>467.0</ele><time>2026-04-30T09:41:08.64Z</time></trkpt><trkpt lat="43.9726617" lon="12.106465"><ele>467.0</ele><time>2026-04-30T09:41:09.652Z</time></trkpt><trkpt lat="43.9727483" lon="12.1064167"><ele>467.00000000000006</ele><time>2026-04-30T09:41:10.648Z</time></trkpt><trkpt lat="43.9728467" lon="12.1063917"><ele>467.00000000000006</ele><time>2026-04-30T09:41:11.648Z</time></trkpt><trkpt lat="43.9729467" lon="12.1063933"><ele>467.0</ele><time>2026-04-30T09:41:12.644Z</time></trkpt><trkpt lat="43.973055" lon="12.1064"><ele>467.0</ele><time>2026-04-30T09:41:13.651Z</time></trkpt><trkpt lat="43.9731533" lon="12.1064017"><ele>467.0</ele><time>2026-04-30T09:41:14.649Z</time></trkpt><trkpt lat="43.973225" lon="12.1063983"><ele>467.00000000000006</ele><time>2026-04-30T09:41:15.648Z</time></trkpt><trkpt lat="43.9733133" lon="12.1064533"><ele>467.00000000000006</ele><time>2026-04-30T09:41:17.641Z</time></trkpt><trkpt lat="43.973285" lon="12.10656"><ele>467.0</ele><time>2026-04-30T09:41:19.651Z</time></trkpt><trkpt lat="43.9731617" lon="12.10661"><ele>467.0</ele><time>2026-04-30T09:41:21.651Z</time></trkpt><trkpt lat="43.9730917" lon="12.1066433"><ele>472.3333333333333</ele><time>2026-04-30T09:41:22.647Z</time></trkpt><trkpt lat="43.97303" lon="12.1066933"><ele>477.66666666666663</ele><time>2026-04-30T09:41:23.653Z</time></trkpt><trkpt lat="43.9729783" lon="12.1067717"><ele>483.0</ele><time>2026-04-30T09:41:24.65Z</time></trkpt><trkpt lat="43.97294" lon="12.1068717"><ele>488.33333333333337</ele><time>2026-04-30T09:41:25.644Z</time></trkpt><trkpt lat="43.97294" lon="12.107"><ele>493.6666666666667</ele><time>2026-04-30T09:41:26.641Z</time></trkpt><trkpt lat="43.9729517" lon="12.107135"><ele>499.0</ele><time>2026-04-30T09:41:27.646Z</time></trkpt><trkpt lat="43.972975" lon="12.10728"><ele>502.25</ele><time>2026-04-30T09:41:28.656Z</time></trkpt><trkpt lat="43.9730067" lon="12.1074517"><ele>505.5</ele><time>2026-04-30T09:41:29.647Z</time></trkpt><trkpt lat="43.9730383" lon="12.1076233"><ele>508.75</ele><time>2026-04-30T09:41:30.653Z</time></trkpt><trkpt lat="43.9730717" lon="12.1077917"><ele>512.0</ele><time>2026-04-30T09:41:31.646Z</time></trkpt><trkpt lat="43.9730967" lon="12.107955"><ele>512.0</ele><time>2026-04-30T09:41:32.648Z</time></trkpt><trkpt lat="43.9731133" lon="12.1081183"><ele>512.0</ele><time>2026-04-30T09:41:33.641Z</time></trkpt><trkpt lat="43.9731183" lon="12.1082767"><ele>512.0</ele><time>2026-04-30T09:41:34.641Z</time></trkpt><trkpt lat="43.9731183" lon="12.1084217"><ele>512.0</ele><time>2026-04-30T09:41:35.65Z</time></trkpt><trkpt lat="43.9731167" lon="12.10855"><ele>512.0</ele><time>2026-04-30T09:41:36.645Z</time></trkpt><trkpt lat="43.97312" lon="12.108665"><ele>511.8</ele><time>2026-04-30T09:41:37.656Z</time></trkpt><trkpt lat="43.9731267" lon="12.1087617"><ele>511.6</ele><time>2026-04-30T09:41:38.644Z</time></trkpt><trkpt lat="43.973175" lon="12.1089"><ele>511.40000000000003</ele><time>2026-04-30T09:41:40.644Z</time></trkpt><trkpt lat="43.97325" lon="12.109005"><ele>511.20000000000005</ele><time>2026-04-30T09:41:42.644Z</time></trkpt><trkpt lat="43.9733083" lon="12.10913"><ele>511.0</ele><time>2026-04-30T09:41:44.64Z</time></trkpt><trkpt lat="43.9733433" lon="12.10926"><ele>511.6666666666667</ele><time>2026-04-30T09:41:46.647Z</time></trkpt><trkpt lat="43.9733633" lon="12.1094033"><ele>512.3333333333334</ele><time>2026-04-30T09:41:48.645Z</time></trkpt><trkpt lat="43.97339" lon="12.1095483"><ele>513.0</ele><time>2026-04-30T09:41:50.65Z</time></trkpt><trkpt lat="43.9734233" lon="12.10964"><ele>513.6666666666666</ele><time>2026-04-30T09:41:52.652Z</time></trkpt><trkpt lat="43.9734917" lon="12.1096567"><ele>514.3333333333333</ele><time>2026-04-30T09:57:52.646Z</time></trkpt><trkpt lat="43.973575" lon="12.1096133"><ele>515.0</ele><time>2026-04-30T09:57:54.643Z</time></trkpt><trkpt lat="43.9736533" lon="12.109525"><ele>515.0</ele><time>2026-04-30T09:57:56.66Z</time></trkpt><trkpt lat="43.9737517" lon="12.10941"><ele>515.0</ele><time>2026-04-30T09:57:58.645Z</time></trkpt><trkpt lat="43.9738133" lon="12.1093517"><ele>515.0</ele><time>2026-04-30T09:57:59.646Z</time></trkpt><trkpt lat="43.9738817" lon="12.1092933"><ele>515.0</ele><time>2026-04-30T09:58:00.641Z</time></trkpt><trkpt lat="43.973975" lon="12.1092283"><ele>515.0</ele><time>2026-04-30T09:58:01.638Z</time></trkpt><trkpt lat="43.974075" lon="12.109185"><ele>515.0</ele><time>2026-04-30T09:58:02.642Z</time></trkpt><trkpt lat="43.97418" lon="12.1091567"><ele>515.0</ele><time>2026-04-30T09:58:03.643Z</time></trkpt><trkpt lat="43.9742933" lon="12.10915"><ele>515.0</ele><time>2026-04-30T09:58:04.651Z</time></trkpt><trkpt lat="43.9744083" lon="12.1091467"><ele>515.0</ele><time>2026-04-30T09:58:05.651Z</time></trkpt><trkpt lat="43.97452" lon="12.10913"><ele>515.0</ele><time>2026-04-30T09:58:06.654Z</time></trkpt><trkpt lat="43.9746183" lon="12.1091183"><ele>516.8333333333333</ele><time>2026-04-30T09:58:07.642Z</time></trkpt><trkpt lat="43.9747" lon="12.1091283"><ele>518.6666666666666</ele><time>2026-04-30T09:58:08.642Z</time></trkpt><trkpt lat="43.974775" lon="12.1091417"><ele>520.5</ele><time>2026-04-30T09:58:09.657Z</time></trkpt><trkpt lat="43.9748367" lon="12.1091783"><ele>522.3333333333334</ele><time>2026-04-30T09:58:10.655Z</time></trkpt><trkpt lat="43.9748883" lon="12.1092683"><ele>524.1666666666667</ele><time>2026-04-30T09:58:11.643Z</time></trkpt><trkpt lat="43.9749267" lon="12.109375"><ele>526.0</ele><time>2026-04-30T09:58:12.643Z</time></trkpt><trkpt lat="43.9749567" lon="12.1094783"><ele>526.0</ele><time>2026-04-30T09:58:13.65Z</time></trkpt><trkpt lat="43.9749983" lon="12.109575"><ele>526.0</ele><time>2026-04-30T09:58:14.648Z</time></trkpt><trkpt lat="43.9750467" lon="12.1096783"><ele>526.0</ele><time>2026-04-30T09:58:15.642Z</time></trkpt><trkpt lat="43.975095" lon="12.1097717"><ele>526.0</ele><time>2026-04-30T09:58:16.671Z</time></trkpt><trkpt lat="43.975145" lon="12.1098383"><ele>526.0</ele><time>2026-04-30T09:58:17.657Z</time></trkpt><trkpt lat="43.9752533" lon="12.10991"><ele>526.0</ele><time>2026-04-30T09:58:19.649Z</time></trkpt><trkpt lat="43.97539" lon="12.1098717"><ele>529.2</ele><time>2026-04-30T09:58:21.646Z</time></trkpt><trkpt lat="43.9754767" lon="12.1098133"><ele>532.4000000000001</ele><time>2026-04-30T09:58:22.65Z</time></trkpt><trkpt lat="43.97557" lon="12.1097617"><ele>535.6</ele><time>2026-04-30T09:58:23.65Z</time></trkpt><trkpt lat="43.9756683" lon="12.109715"><ele>538.8000000000001</ele><time>2026-04-30T09:58:24.657Z</time></trkpt><trkpt lat="43.9757617" lon="12.1097"><ele>542.0</ele><time>2026-04-30T09:58:25.644Z</time></trkpt><trkpt lat="43.9758383" lon="12.10971"><ele>541.5</ele><time>2026-04-30T09:58:26.652Z</time></trkpt><trkpt lat="43.975905" lon="12.10974"><ele>541.0</ele><time>2026-04-30T09:58:27.647Z</time></trkpt><trkpt lat="43.975975" lon="12.109795"><ele>540.5</ele><time>2026-04-30T09:58:28.655Z</time></trkpt><trkpt lat="43.9760417" lon="12.10988"><ele>540.0</ele><time>2026-04-30T09:58:29.645Z</time></trkpt><trkpt lat="43.9761" lon="12.109985"><ele>539.5</ele><time>2026-04-30T09:58:30.652Z</time></trkpt><trkpt lat="43.9761617" lon="12.1100683"><ele>539.0</ele><time>2026-04-30T09:58:31.645Z</time></trkpt><trkpt lat="43.9762217" lon="12.1101233"><ele>535.6666666666666</ele><time>2026-04-30T09:58:32.647Z</time></trkpt><trkpt lat="43.9763267" lon="12.110165"><ele>532.3333333333333</ele><time>2026-04-30T09:58:34.645Z</time></trkpt><trkpt lat="43.9763933" lon="12.1101433"><ele>529.0</ele><time>2026-04-30T09:58:35.647Z</time></trkpt><trkpt lat="43.9764633" lon="12.1100967"><ele>525.6666666666666</ele><time>2026-04-30T09:58:36.649Z</time></trkpt><trkpt lat="43.9765267" lon="12.11004"><ele>522.3333333333334</ele><time>2026-04-30T09:58:37.642Z</time></trkpt><trkpt lat="43.9766267" lon="12.1099683"><ele>519.0</ele><time>2026-04-30T09:58:39.647Z</time></trkpt><trkpt lat="43.976725" lon="12.109935"><ele>519.0</ele><time>2026-04-30T09:58:41.651Z</time></trkpt><trkpt lat="43.976845" lon="12.1099233"><ele>519.0</ele><time>2026-04-30T09:58:43.644Z</time></trkpt><trkpt lat="43.9769117" lon="12.1099283"><ele>519.0</ele><time>2026-04-30T09:58:44.645Z</time></trkpt><trkpt lat="43.9769817" lon="12.10995"><ele>519.0</ele><time>2026-04-30T09:58:45.651Z</time></trkpt><trkpt lat="43.9770583" lon="12.109995"><ele>519.0</ele><time>2026-04-30T09:58:46.648Z</time></trkpt><trkpt lat="43.9771333" lon="12.110065"><ele>519.0</ele><time>2026-04-30T09:58:47.643Z</time></trkpt><trkpt lat="43.9772317" lon="12.11016"><ele>519.0</ele><time>2026-04-30T09:58:48.64Z</time></trkpt><trkpt lat="43.9773417" lon="12.110265"><ele>519.0</ele><time>2026-04-30T09:58:49.646Z</time></trkpt><trkpt lat="43.9774483" lon="12.110365"><ele>519.0</ele><time>2026-04-30T09:58:50.646Z</time></trkpt><trkpt lat="43.9775517" lon="12.1104583"><ele>519.0</ele><time>2026-04-30T09:58:51.655Z</time></trkpt><trkpt lat="43.977645" lon="12.1105433"><ele>521.5</ele><time>2026-04-30T09:58:52.643Z</time></trkpt><trkpt lat="43.9777333" lon="12.1106183"><ele>524.0</ele><time>2026-04-30T09:58:53.642Z</time></trkpt><trkpt lat="43.97781" lon="12.1106833"><ele>526.5</ele><time>2026-04-30T09:58:54.644Z</time></trkpt><trkpt lat="43.977875" lon="12.11075"><ele>529.0</ele><time>2026-04-30T09:58:55.644Z</time></trkpt><trkpt lat="43.9779367" lon="12.1108317"><ele>531.5</ele><time>2026-04-30T09:58:56.649Z</time></trkpt><trkpt lat="43.9779867" lon="12.1109317"><ele>534.0</ele><time>2026-04-30T09:58:57.652Z</time></trkpt><trkpt lat="43.978005" lon="12.1110833"><ele>534.0</ele><time>2026-04-30T09:58:58.647Z</time></trkpt><trkpt lat="43.9780017" lon="12.1112533"><ele>534.0</ele><time>2026-04-30T09:58:59.646Z</time></trkpt><trkpt lat="43.9779883" lon="12.11142"><ele>534.0</ele><time>2026-04-30T09:59:00.642Z</time></trkpt><trkpt lat="43.9779633" lon="12.111585"><ele>534.0</ele><time>2026-04-30T09:59:01.647Z</time></trkpt><trkpt lat="43.9779267" lon="12.111735"><ele>532.5</ele><time>2026-04-30T09:59:02.642Z</time></trkpt><trkpt lat="43.9778883" lon="12.1118633"><ele>531.0</ele><time>2026-04-30T09:59:03.638Z</time></trkpt><trkpt lat="43.9778533" lon="12.11198"><ele>529.5</ele><time>2026-04-30T09:59:04.652Z</time></trkpt><trkpt lat="43.97782" lon="12.112085"><ele>528.0</ele><time>2026-04-30T09:59:05.658Z</time></trkpt><trkpt lat="43.97779" lon="12.1121917"><ele>526.5</ele><time>2026-04-30T09:59:06.645Z</time></trkpt><trkpt lat="43.9777767" lon="12.1122867"><ele>525.0</ele><time>2026-04-30T09:59:07.647Z</time></trkpt><trkpt lat="43.9778083" lon="12.1124267"><ele>523.0</ele><time>2026-04-30T09:59:09.646Z</time></trkpt><trkpt lat="43.9779033" lon="12.1125033"><ele>521.0</ele><time>2026-04-30T09:59:11.647Z</time></trkpt><trkpt lat="43.978035" lon="12.112515"><ele>519.0</ele><time>2026-04-30T09:59:13.648Z</time></trkpt><trkpt lat="43.9781067" lon="12.1125333"><ele>517.0</ele><time>2026-04-30T09:59:14.654Z</time></trkpt><trkpt lat="43.97818" lon="12.112565"><ele>515.0</ele><time>2026-04-30T09:59:15.649Z</time></trkpt><trkpt lat="43.9782433" lon="12.1126183"><ele>515.0</ele><time>2026-04-30T09:59:16.65Z</time></trkpt><trkpt lat="43.978295" lon="12.112695"><ele>515.0</ele><time>2026-04-30T09:59:17.642Z</time></trkpt><trkpt lat="43.9783367" lon="12.1127783"><ele>515.0</ele><time>2026-04-30T09:59:18.648Z</time></trkpt><trkpt lat="43.9783767" lon="12.1128667"><ele>515.0</ele><time>2026-04-30T09:59:19.651Z</time></trkpt><trkpt lat="43.9784183" lon="12.112965"><ele>515.0</ele><time>2026-04-30T09:59:20.646Z</time></trkpt><trkpt lat="43.978465" lon="12.1130683"><ele>515.0</ele><time>2026-04-30T09:59:21.647Z</time></trkpt><trkpt lat="43.9785183" lon="12.113175"><ele>516.8</ele><time>2026-04-30T09:59:22.648Z</time></trkpt><trkpt lat="43.9785733" lon="12.11327"><ele>518.6</ele><time>2026-04-30T09:59:23.641Z</time></trkpt><trkpt lat="43.9786367" lon="12.113365"><ele>520.4</ele><time>2026-04-30T09:59:24.649Z</time></trkpt><trkpt lat="43.978695" lon="12.11346"><ele>522.2</ele><time>2026-04-30T09:59:25.644Z</time></trkpt><trkpt lat="43.978765" lon="12.113545"><ele>524.0</ele><time>2026-04-30T09:59:26.649Z</time></trkpt><trkpt lat="43.97884" lon="12.1136117"><ele>524.0</ele><time>2026-04-30T09:59:27.656Z</time></trkpt><trkpt lat="43.9789533" lon="12.1136767"><ele>524.0</ele><time>2026-04-30T09:59:28.651Z</time></trkpt><trkpt lat="43.97907" lon="12.113755"><ele>524.0</ele><time>2026-04-30T09:59:29.651Z</time></trkpt><trkpt lat="43.9791933" lon="12.1138483"><ele>524.0</ele><time>2026-04-30T09:59:30.65Z</time></trkpt><trkpt lat="43.979315" lon="12.1139567"><ele>524.75</ele><time>2026-04-30T09:59:31.644Z</time></trkpt><trkpt lat="43.9794267" lon="12.11407"><ele>525.5</ele><time>2026-04-30T09:59:32.643Z</time></trkpt><trkpt lat="43.9795267" lon="12.1141817"><ele>526.25</ele><time>2026-04-30T09:59:33.648Z</time></trkpt><trkpt lat="43.9796067" lon="12.1142867"><ele>527.0</ele><time>2026-04-30T09:59:34.644Z</time></trkpt><trkpt lat="43.9796767" lon="12.1143817"><ele>527.0</ele><time>2026-04-30T09:59:35.657Z</time></trkpt><trkpt lat="43.979745" lon="12.1144567"><ele>527.0</ele><time>2026-04-30T09:59:36.645Z</time></trkpt><trkpt lat="43.9798167" lon="12.114515"><ele>527.0</ele><time>2026-04-30T09:59:37.647Z</time></trkpt><trkpt lat="43.9798983" lon="12.114555"><ele>527.0</ele><time>2026-04-30T09:59:38.647Z</time></trkpt><trkpt lat="43.9799867" lon="12.1145867"><ele>527.0</ele><time>2026-04-30T09:59:39.652Z</time></trkpt><trkpt lat="43.9800867" lon="12.114605"><ele>527.0</ele><time>2026-04-30T09:59:40.647Z</time></trkpt><trkpt lat="43.98021" lon="12.114615"><ele>528.5</ele><time>2026-04-30T09:59:41.641Z</time></trkpt><trkpt lat="43.9803367" lon="12.1146333"><ele>530.0</ele><time>2026-04-30T09:59:42.646Z</time></trkpt><trkpt lat="43.98047" lon="12.114655"><ele>531.5</ele><time>2026-04-30T09:59:43.649Z</time></trkpt><trkpt lat="43.9805967" lon="12.1146817"><ele>533.0</ele><time>2026-04-30T09:59:44.648Z</time></trkpt><trkpt lat="43.980705" lon="12.1147283"><ele>533.0</ele><time>2026-04-30T09:59:45.645Z</time></trkpt><trkpt lat="43.98081" lon="12.1147933"><ele>533.0</ele><time>2026-04-30T09:59:46.648Z</time></trkpt><trkpt lat="43.9809117" lon="12.1148733"><ele>533.0</ele><time>2026-04-30T09:59:47.651Z</time></trkpt><trkpt lat="43.9810133" lon="12.1149717"><ele>533.0</ele><time>2026-04-30T09:59:48.647Z</time></trkpt><trkpt lat="43.9811167" lon="12.1150583"><ele>530.6</ele><time>2026-04-30T09:59:49.644Z</time></trkpt><trkpt lat="43.9812133" lon="12.1151383"><ele>528.1999999999999</ele><time>2026-04-30T09:59:50.646Z</time></trkpt><trkpt lat="43.98131" lon="12.1152117"><ele>525.8</ele><time>2026-04-30T09:59:51.65Z</time></trkpt><trkpt lat="43.9813917" lon="12.1152983"><ele>523.4</ele><time>2026-04-30T09:59:52.641Z</time></trkpt><trkpt lat="43.9814733" lon="12.1153867"><ele>521.0</ele><time>2026-04-30T09:59:53.649Z</time></trkpt><trkpt lat="43.9815433" lon="12.1154883"><ele>521.0</ele><time>2026-04-30T09:59:54.648Z</time></trkpt><trkpt lat="43.9816117" lon="12.1155867"><ele>521.0</ele><time>2026-04-30T09:59:55.642Z</time></trkpt><trkpt lat="43.98166" lon="12.1157017"><ele>521.0</ele><time>2026-04-30T09:59:56.642Z</time></trkpt><trkpt lat="43.9816917" lon="12.1158267"><ele>521.0</ele><time>2026-04-30T09:59:57.651Z</time></trkpt><trkpt lat="43.9817" lon="12.1159533"><ele>521.0</ele><time>2026-04-30T09:59:58.646Z</time></trkpt><trkpt lat="43.9816967" lon="12.1160633"><ele>521.8333333333333</ele><time>2026-04-30T09:59:59.646Z</time></trkpt><trkpt lat="43.9816733" lon="12.11617"><ele>522.6666666666666</ele><time>2026-04-30T10:00:00.651Z</time></trkpt><trkpt lat="43.9816383" lon="12.11627"><ele>523.5</ele><time>2026-04-30T10:00:01.649Z</time></trkpt><trkpt lat="43.9816067" lon="12.1163683"><ele>524.3333333333334</ele><time>2026-04-30T10:00:02.647Z</time></trkpt><trkpt lat="43.9815833" lon="12.11646"><ele>525.1666666666667</ele><time>2026-04-30T10:00:03.652Z</time></trkpt><trkpt lat="43.981565" lon="12.1166083"><ele>526.0</ele><time>2026-04-30T10:00:05.645Z</time></trkpt><trkpt lat="43.9815967" lon="12.1167267"><ele>526.4</ele><time>2026-04-30T10:00:07.643Z</time></trkpt><trkpt lat="43.9816633" lon="12.1168317"><ele>526.8</ele><time>2026-04-30T10:00:09.658Z</time></trkpt><trkpt lat="43.98172" lon="12.1169067"><ele>527.1999999999999</ele><time>2026-04-30T10:00:10.647Z</time></trkpt><trkpt lat="43.9817983" lon="12.116995"><ele>527.6</ele><time>2026-04-30T10:00:11.649Z</time></trkpt><trkpt lat="43.9818767" lon="12.1170783"><ele>528.0</ele><time>2026-04-30T10:00:12.646Z</time></trkpt><trkpt lat="43.981945" lon="12.1171583"><ele>527.6666666666666</ele><time>2026-04-30T10:00:13.638Z</time></trkpt><trkpt lat="43.982005" lon="12.1172383"><ele>527.3333333333334</ele><time>2026-04-30T10:00:14.645Z</time></trkpt><trkpt lat="43.9820617" lon="12.1173117"><ele>527.0</ele><time>2026-04-30T10:00:15.65Z</time></trkpt><trkpt lat="43.9821267" lon="12.1173833"><ele>526.6666666666667</ele><time>2026-04-30T10:00:16.649Z</time></trkpt><trkpt lat="43.9822" lon="12.117465"><ele>526.3333333333334</ele><time>2026-04-30T10:00:17.647Z</time></trkpt><trkpt lat="43.9822717" lon="12.1175467"><ele>526.0</ele><time>2026-04-30T10:00:18.646Z</time></trkpt><trkpt lat="43.9823467" lon="12.1176183"><ele>526.0</ele><time>2026-04-30T10:00:19.648Z</time></trkpt><trkpt lat="43.982425" lon="12.1176783"><ele>526.0</ele><time>2026-04-30T10:00:20.644Z</time></trkpt><trkpt lat="43.9825133" lon="12.1177183"><ele>526.0</ele><time>2026-04-30T10:00:21.651Z</time></trkpt><trkpt lat="43.9826" lon="12.11774"><ele>526.0</ele><time>2026-04-30T10:00:22.648Z</time></trkpt><trkpt lat="43.982685" lon="12.1177383"><ele>526.0</ele><time>2026-04-30T10:00:23.641Z</time></trkpt><trkpt lat="43.9827633" lon="12.117725"><ele>526.0</ele><time>2026-04-30T10:00:24.647Z</time></trkpt><trkpt lat="43.9828333" lon="12.1177083"><ele>525.0</ele><time>2026-04-30T10:00:25.648Z</time></trkpt><trkpt lat="43.9829267" lon="12.1177167"><ele>524.0</ele><time>2026-04-30T10:00:27.646Z</time></trkpt><trkpt lat="43.9829567" lon="12.1178217"><ele>523.0</ele><time>2026-04-30T10:00:29.645Z</time></trkpt><trkpt lat="43.9829533" lon="12.1179733"><ele>522.0</ele><time>2026-04-30T10:00:31.645Z</time></trkpt><trkpt lat="43.9829533" lon="12.1180667"><ele>521.0</ele><time>2026-04-30T10:00:32.645Z</time></trkpt><trkpt lat="43.98296" lon="12.118165"><ele>520.0</ele><time>2026-04-30T10:00:33.65Z</time></trkpt><trkpt lat="43.98297" lon="12.1182717"><ele>519.4</ele><time>2026-04-30T10:00:34.646Z</time></trkpt><trkpt lat="43.98298" lon="12.1183867"><ele>518.8</ele><time>2026-04-30T10:00:35.643Z</time></trkpt><trkpt lat="43.9829883" lon="12.1185117"><ele>518.2</ele><time>2026-04-30T10:00:36.651Z</time></trkpt><trkpt lat="43.983005" lon="12.11864"><ele>517.6</ele><time>2026-04-30T10:00:37.657Z</time></trkpt><trkpt lat="43.98303" lon="12.1187867"><ele>517.0</ele><time>2026-04-30T10:00:38.653Z</time></trkpt><trkpt lat="43.983065" lon="12.1189417"><ele>518.0</ele><time>2026-04-30T10:00:39.646Z</time></trkpt><trkpt lat="43.983095" lon="12.1190817"><ele>519.0</ele><time>2026-04-30T10:00:40.65Z</time></trkpt><trkpt lat="43.9831133" lon="12.1192033"><ele>520.0</ele><time>2026-04-30T10:00:41.642Z</time></trkpt><trkpt lat="43.9831233" lon="12.1193117"><ele>521.0</ele><time>2026-04-30T10:00:42.65Z</time></trkpt><trkpt lat="43.9831133" lon="12.1194067"><ele>522.0</ele><time>2026-04-30T10:00:43.647Z</time></trkpt><trkpt lat="43.9830817" lon="12.1194983"><ele>523.0</ele><time>2026-04-30T10:00:44.653Z</time></trkpt><trkpt lat="43.9830333" lon="12.1195833"><ele>523.0</ele><time>2026-04-30T10:00:45.656Z</time></trkpt><trkpt lat="43.9829717" lon="12.1196767"><ele>523.0</ele><time>2026-04-30T10:00:46.642Z</time></trkpt><trkpt lat="43.9828933" lon="12.119775"><ele>523.0</ele><time>2026-04-30T10:00:47.655Z</time></trkpt><trkpt lat="43.9827933" lon="12.1199033"><ele>523.0</ele><time>2026-04-30T10:00:48.656Z</time></trkpt><trkpt lat="43.98268" lon="12.1200717"><ele>522.25</ele><time>2026-04-30T10:00:49.653Z</time></trkpt><trkpt lat="43.982575" lon="12.1202417"><ele>521.5</ele><time>2026-04-30T10:00:50.643Z</time></trkpt><trkpt lat="43.9824783" lon="12.1203867"><ele>520.75</ele><time>2026-04-30T10:00:51.643Z</time></trkpt><trkpt lat="43.982395" lon="12.1205483"><ele>520.0</ele><time>2026-04-30T10:00:52.647Z</time></trkpt><trkpt lat="43.9823167" lon="12.1207133"><ele>518.3333333333334</ele><time>2026-04-30T10:00:53.645Z</time></trkpt><trkpt lat="43.9822367" lon="12.1208817"><ele>516.6666666666666</ele><time>2026-04-30T10:00:54.652Z</time></trkpt><trkpt lat="43.98216" lon="12.12107"><ele>515.0</ele><time>2026-04-30T10:00:55.642Z</time></trkpt><trkpt lat="43.9820817" lon="12.121265"><ele>515.0</ele><time>2026-04-30T10:00:56.652Z</time></trkpt><trkpt lat="43.982" lon="12.1214467"><ele>515.0</ele><time>2026-04-30T10:00:57.643Z</time></trkpt><trkpt lat="43.98192" lon="12.121625"><ele>515.0</ele><time>2026-04-30T10:00:58.657Z</time></trkpt><trkpt lat="43.981845" lon="12.1218033"><ele>517.3333333333333</ele><time>2026-04-30T10:00:59.643Z</time></trkpt><trkpt lat="43.9817633" lon="12.1219817"><ele>519.6666666666666</ele><time>2026-04-30T10:01:00.648Z</time></trkpt><trkpt lat="43.9816733" lon="12.1221483"><ele>522.0</ele><time>2026-04-30T10:01:01.649Z</time></trkpt><trkpt lat="43.9815783" lon="12.12231"><ele>516.0</ele><time>2026-04-30T10:01:02.653Z</time></trkpt><trkpt lat="43.981485" lon="12.1224783"><ele>510.0</ele><time>2026-04-30T10:01:03.645Z</time></trkpt><trkpt lat="43.9814" lon="12.1226683"><ele>504.0</ele><time>2026-04-30T10:01:04.647Z</time></trkpt><trkpt lat="43.981325" lon="12.12285"><ele>504.0</ele><time>2026-04-30T10:01:05.64Z</time></trkpt><trkpt lat="43.9812583" lon="12.1230517"><ele>504.0</ele><time>2026-04-30T10:01:06.643Z</time></trkpt><trkpt lat="43.9812" lon="12.1232517"><ele>504.0</ele><time>2026-04-30T10:01:07.665Z</time></trkpt><trkpt lat="43.9811383" lon="12.1234333"><ele>501.75</ele><time>2026-04-30T10:01:08.651Z</time></trkpt><trkpt lat="43.9810833" lon="12.1236183"><ele>499.5</ele><time>2026-04-30T10:01:09.658Z</time></trkpt><trkpt lat="43.9810317" lon="12.12379"><ele>497.25</ele><time>2026-04-30T10:01:10.649Z</time></trkpt><trkpt lat="43.98098" lon="12.12395"><ele>495.0</ele><time>2026-04-30T10:01:11.65Z</time></trkpt><trkpt lat="43.98093" lon="12.1240917"><ele>494.2</ele><time>2026-04-30T10:01:12.64Z</time></trkpt><trkpt lat="43.9808917" lon="12.12421"><ele>493.4</ele><time>2026-04-30T10:01:13.644Z</time></trkpt><trkpt lat="43.9808533" lon="12.1242983"><ele>492.6</ele><time>2026-04-30T10:01:14.638Z</time></trkpt><trkpt lat="43.9807983" lon="12.124395"><ele>491.8</ele><time>2026-04-30T10:01:16.658Z</time></trkpt><trkpt lat="43.9807533" lon="12.1245717"><ele>491.0</ele><time>2026-04-30T10:02:23.646Z</time></trkpt><trkpt lat="43.9807133" lon="12.12468"><ele>491.0</ele><time>2026-04-30T10:02:24.647Z</time></trkpt><trkpt lat="43.9806683" lon="12.124815"><ele>491.0</ele><time>2026-04-30T10:02:25.65Z</time></trkpt><trkpt lat="43.9806117" lon="12.1249817"><ele>491.0</ele><time>2026-04-30T10:02:26.65Z</time></trkpt><trkpt lat="43.9805433" lon="12.12516"><ele>491.0</ele><time>2026-04-30T10:02:27.651Z</time></trkpt><trkpt lat="43.980465" lon="12.1253333"><ele>490.0</ele><time>2026-04-30T10:02:28.643Z</time></trkpt><trkpt lat="43.9803817" lon="12.1255083"><ele>489.0</ele><time>2026-04-30T10:02:29.649Z</time></trkpt><trkpt lat="43.9802967" lon="12.1256783"><ele>488.0</ele><time>2026-04-30T10:02:30.643Z</time></trkpt><trkpt lat="43.9802167" lon="12.1258333"><ele>487.0</ele><time>2026-04-30T10:02:31.649Z</time></trkpt><trkpt lat="43.98014" lon="12.12598"><ele>485.75</ele><time>2026-04-30T10:02:32.645Z</time></trkpt><trkpt lat="43.9800633" lon="12.1261217"><ele>484.5</ele><time>2026-04-30T10:02:33.655Z</time></trkpt><trkpt lat="43.9799833" lon="12.1262617"><ele>483.25</ele><time>2026-04-30T10:02:34.641Z</time></trkpt><trkpt lat="43.979895" lon="12.1263983"><ele>482.0</ele><time>2026-04-30T10:02:35.638Z</time></trkpt><trkpt lat="43.9797967" lon="12.1265333"><ele>486.66666666666663</ele><time>2026-04-30T10:02:36.649Z</time></trkpt><trkpt lat="43.9796933" lon="12.126675"><ele>491.33333333333337</ele><time>2026-04-30T10:02:37.639Z</time></trkpt><trkpt lat="43.979585" lon="12.126825"><ele>496.0</ele><time>2026-04-30T10:02:38.655Z</time></trkpt><trkpt lat="43.97947" lon="12.12697"><ele>496.0</ele><time>2026-04-30T10:02:39.643Z</time></trkpt><trkpt lat="43.97935" lon="12.1271017"><ele>496.0</ele><time>2026-04-30T10:02:40.65Z</time></trkpt><trkpt lat="43.9792333" lon="12.1272017"><ele>496.0</ele><time>2026-04-30T10:02:41.65Z</time></trkpt><trkpt lat="43.9791117" lon="12.1272583"><ele>496.0</ele><time>2026-04-30T10:02:42.646Z</time></trkpt><trkpt lat="43.9789833" lon="12.127285"><ele>497.75</ele><time>2026-04-30T10:02:43.651Z</time></trkpt><trkpt lat="43.9788483" lon="12.127295"><ele>499.5</ele><time>2026-04-30T10:02:44.644Z</time></trkpt><trkpt lat="43.9787033" lon="12.1272917"><ele>501.25</ele><time>2026-04-30T10:02:45.649Z</time></trkpt><trkpt lat="43.9785533" lon="12.12729"><ele>503.0</ele><time>2026-04-30T10:02:46.643Z</time></trkpt><trkpt lat="43.978405" lon="12.127305"><ele>500.25</ele><time>2026-04-30T10:02:47.641Z</time></trkpt><trkpt lat="43.9782683" lon="12.1273283"><ele>497.5</ele><time>2026-04-30T10:02:48.647Z</time></trkpt><trkpt lat="43.9781383" lon="12.1273333"><ele>494.75</ele><time>2026-04-30T10:02:49.648Z</time></trkpt><trkpt lat="43.9780133" lon="12.1273033"><ele>492.0</ele><time>2026-04-30T10:02:50.647Z</time></trkpt><trkpt lat="43.9778967" lon="12.1272333"><ele>492.0</ele><time>2026-04-30T10:02:51.654Z</time></trkpt><trkpt lat="43.9777867" lon="12.1271233"><ele>492.0</ele><time>2026-04-30T10:02:52.649Z</time></trkpt><trkpt lat="43.9776767" lon="12.1270067"><ele>492.0</ele><time>2026-04-30T10:02:53.65Z</time></trkpt><trkpt lat="43.9775733" lon="12.1269"><ele>492.0</ele><time>2026-04-30T10:02:54.648Z</time></trkpt><trkpt lat="43.9774767" lon="12.126815"><ele>495.5</ele><time>2026-04-30T10:02:55.642Z</time></trkpt><trkpt lat="43.97737" lon="12.1267767"><ele>499.0</ele><time>2026-04-30T10:02:56.65Z</time></trkpt><trkpt lat="43.977255" lon="12.1267883"><ele>502.5</ele><time>2026-04-30T10:02:57.639Z</time></trkpt><trkpt lat="43.9771317" lon="12.1268533"><ele>506.0</ele><time>2026-04-30T10:02:58.651Z</time></trkpt><trkpt lat="43.9770067" lon="12.1269483"><ele>506.0</ele><time>2026-04-30T10:02:59.651Z</time></trkpt><trkpt lat="43.9768767" lon="12.12706"><ele>506.0</ele><time>2026-04-30T10:03:00.641Z</time></trkpt><trkpt lat="43.9767433" lon="12.12717"><ele>506.0</ele><time>2026-04-30T10:03:01.653Z</time></trkpt><trkpt lat="43.9766083" lon="12.1272667"><ele>507.0</ele><time>2026-04-30T10:03:02.638Z</time></trkpt><trkpt lat="43.9764917" lon="12.12736"><ele>508.0</ele><time>2026-04-30T10:03:03.649Z</time></trkpt><trkpt lat="43.97639" lon="12.12746"><ele>509.0</ele><time>2026-04-30T10:03:04.646Z</time></trkpt><trkpt lat="43.9763083" lon="12.1275717"><ele>510.0</ele><time>2026-04-30T10:03:05.64Z</time></trkpt><trkpt lat="43.9762517" lon="12.1277133"><ele>513.25</ele><time>2026-04-30T10:03:06.647Z</time></trkpt><trkpt lat="43.97623" lon="12.12787"><ele>516.5</ele><time>2026-04-30T10:03:07.649Z</time></trkpt><trkpt lat="43.9762367" lon="12.1280367"><ele>519.75</ele><time>2026-04-30T10:03:08.651Z</time></trkpt><trkpt lat="43.9762467" lon="12.128205"><ele>523.0</ele><time>2026-04-30T10:03:09.655Z</time></trkpt><trkpt lat="43.9762267" lon="12.1283717"><ele>527.0</ele><time>2026-04-30T10:03:10.64Z</time></trkpt><trkpt lat="43.9761683" lon="12.1285233"><ele>531.0</ele><time>2026-04-30T10:03:11.654Z</time></trkpt><trkpt lat="43.9760867" lon="12.1286567"><ele>535.0</ele><time>2026-04-30T10:03:12.651Z</time></trkpt><trkpt lat="43.97599" lon="12.1287717"><ele>539.0</ele><time>2026-04-30T10:03:13.645Z</time></trkpt><trkpt lat="43.975905" lon="12.1288783"><ele>540.4</ele><time>2026-04-30T10:03:14.655Z</time></trkpt><trkpt lat="43.9758433" lon="12.1289917"><ele>541.8</ele><time>2026-04-30T10:03:15.641Z</time></trkpt><trkpt lat="43.9758083" lon="12.1291183"><ele>543.2</ele><time>2026-04-30T10:03:16.654Z</time></trkpt><trkpt lat="43.9758033" lon="12.129265"><ele>544.6</ele><time>2026-04-30T10:03:17.642Z</time></trkpt><trkpt lat="43.975835" lon="12.1294133"><ele>546.0</ele><time>2026-04-30T10:03:18.642Z</time></trkpt><trkpt lat="43.9759033" lon="12.1295633"><ele>546.0</ele><time>2026-04-30T10:03:19.648Z</time></trkpt><trkpt lat="43.975985" lon="12.129715"><ele>546.0</ele><time>2026-04-30T10:03:20.648Z</time></trkpt><trkpt lat="43.9760733" lon="12.12987"><ele>546.0</ele><time>2026-04-30T10:03:21.645Z</time></trkpt><trkpt lat="43.9761633" lon="12.1300267"><ele>546.0</ele><time>2026-04-30T10:03:22.643Z</time></trkpt><trkpt lat="43.9762483" lon="12.1301783"><ele>544.5</ele><time>2026-04-30T10:03:23.646Z</time></trkpt><trkpt lat="43.9763167" lon="12.1303267"><ele>543.0</ele><time>2026-04-30T10:03:24.643Z</time></trkpt><trkpt lat="43.976375" lon="12.1304683"><ele>541.5</ele><time>2026-04-30T10:03:25.648Z</time></trkpt><trkpt lat="43.976415" lon="12.1306183"><ele>540.0</ele><time>2026-04-30T10:03:26.643Z</time></trkpt><trkpt lat="43.9764317" lon="12.130775"><ele>539.5</ele><time>2026-04-30T10:03:27.652Z</time></trkpt><trkpt lat="43.976415" lon="12.13093"><ele>539.0</ele><time>2026-04-30T10:03:28.647Z</time></trkpt><trkpt lat="43.9763717" lon="12.131075"><ele>538.5</ele><time>2026-04-30T10:03:29.655Z</time></trkpt><trkpt lat="43.9763033" lon="12.131205"><ele>538.0</ele><time>2026-04-30T10:03:30.642Z</time></trkpt><trkpt lat="43.9762083" lon="12.1313017"><ele>538.0</ele><time>2026-04-30T10:03:31.639Z</time></trkpt><trkpt lat="43.9760933" lon="12.1313667"><ele>538.0</ele><time>2026-04-30T10:03:32.65Z</time></trkpt><trkpt lat="43.97597" lon="12.131425"><ele>538.0</ele><time>2026-04-30T10:03:33.653Z</time></trkpt><trkpt lat="43.9758467" lon="12.131495"><ele>538.0</ele><time>2026-04-30T10:03:34.65Z</time></trkpt><trkpt lat="43.9757383" lon="12.1315833"><ele>538.1999999999999</ele><time>2026-04-30T10:03:35.656Z</time></trkpt><trkpt lat="43.97565" lon="12.13168"><ele>538.4</ele><time>2026-04-30T10:03:36.645Z</time></trkpt><trkpt lat="43.97558" lon="12.13178"><ele>538.5999999999999</ele><time>2026-04-30T10:03:37.65Z</time></trkpt><trkpt lat="43.9755533" lon="12.1318967"><ele>538.8</ele><time>2026-04-30T10:03:38.648Z</time></trkpt><trkpt lat="43.97556" lon="12.13202"><ele>539.0</ele><time>2026-04-30T10:03:39.652Z</time></trkpt><trkpt lat="43.9756217" lon="12.1321333"><ele>539.0</ele><time>2026-04-30T10:03:40.64Z</time></trkpt><trkpt lat="43.9757267" lon="12.1322217"><ele>539.0</ele><time>2026-04-30T10:03:41.653Z</time></trkpt><trkpt lat="43.975845" lon="12.13231"><ele>539.0</ele><time>2026-04-30T10:03:42.653Z</time></trkpt><trkpt lat="43.975975" lon="12.132405"><ele>539.0</ele><time>2026-04-30T10:03:43.639Z</time></trkpt><trkpt lat="43.97611" lon="12.132505"><ele>539.25</ele><time>2026-04-30T10:03:44.641Z</time></trkpt><trkpt lat="43.9762433" lon="12.1326067"><ele>539.5</ele><time>2026-04-30T10:03:45.644Z</time></trkpt><trkpt lat="43.9763683" lon="12.1327017"><ele>539.75</ele><time>2026-04-30T10:03:46.647Z</time></trkpt><trkpt lat="43.9764833" lon="12.13279"><ele>540.0</ele><time>2026-04-30T10:03:47.64Z</time></trkpt><trkpt lat="43.9765767" lon="12.1328817"><ele>540.0</ele><time>2026-04-30T10:03:48.647Z</time></trkpt><trkpt lat="43.9766483" lon="12.1329867"><ele>540.0</ele><time>2026-04-30T10:03:49.651Z</time></trkpt><trkpt lat="43.9767017" lon="12.1331183"><ele>540.0</ele><time>2026-04-30T10:03:50.659Z</time></trkpt><trkpt lat="43.9767267" lon="12.1332683"><ele>540.0</ele><time>2026-04-30T10:03:51.655Z</time></trkpt><trkpt lat="43.97673" lon="12.1334183"><ele>540.0</ele><time>2026-04-30T10:03:52.641Z</time></trkpt><trkpt lat="43.976715" lon="12.1335667"><ele>538.6</ele><time>2026-04-30T10:03:53.649Z</time></trkpt><trkpt lat="43.9766883" lon="12.1337033"><ele>537.2</ele><time>2026-04-30T10:03:54.647Z</time></trkpt><trkpt lat="43.976645" lon="12.13382"><ele>535.8</ele><time>2026-04-30T10:03:55.658Z</time></trkpt><trkpt lat="43.9765867" lon="12.133915"><ele>534.4</ele><time>2026-04-30T10:03:56.651Z</time></trkpt><trkpt lat="43.9765133" lon="12.133985"><ele>533.0</ele><time>2026-04-30T10:03:57.64Z</time></trkpt><trkpt lat="43.9764283" lon="12.1340333"><ele>534.5</ele><time>2026-04-30T10:03:58.645Z</time></trkpt><trkpt lat="43.9763333" lon="12.13406"><ele>536.0</ele><time>2026-04-30T10:03:59.647Z</time></trkpt><trkpt lat="43.9762417" lon="12.134085"><ele>537.5</ele><time>2026-04-30T10:04:00.65Z</time></trkpt><trkpt lat="43.9761567" lon="12.1341167"><ele>539.0</ele><time>2026-04-30T10:04:01.643Z</time></trkpt><trkpt lat="43.9760817" lon="12.134165"><ele>540.5</ele><time>2026-04-30T10:04:02.657Z</time></trkpt><trkpt lat="43.9760283" lon="12.13424"><ele>542.0</ele><time>2026-04-30T10:04:03.647Z</time></trkpt><trkpt lat="43.9760167" lon="12.1343483"><ele>542.0</ele><time>2026-04-30T10:04:04.647Z</time></trkpt><trkpt lat="43.97603" lon="12.1344667"><ele>542.0</ele><time>2026-04-30T10:04:05.647Z</time></trkpt><trkpt lat="43.9760867" lon="12.1345833"><ele>542.0</ele><time>2026-04-30T10:04:06.644Z</time></trkpt><trkpt lat="43.9761483" lon="12.1347017"><ele>542.0</ele><time>2026-04-30T10:04:07.65Z</time></trkpt><trkpt lat="43.97621" lon="12.13483"><ele>542.0</ele><time>2026-04-30T10:04:08.646Z</time></trkpt><trkpt lat="43.9762767" lon="12.13496"><ele>543.75</ele><time>2026-04-30T10:04:09.652Z</time></trkpt><trkpt lat="43.9763467" lon="12.13509"><ele>545.5</ele><time>2026-04-30T10:04:10.644Z</time></trkpt><trkpt lat="43.9764183" lon="12.1352233"><ele>547.25</ele><time>2026-04-30T10:04:11.646Z</time></trkpt><trkpt lat="43.9764983" lon="12.135365"><ele>549.0</ele><time>2026-04-30T10:04:12.645Z</time></trkpt><trkpt lat="43.9765717" lon="12.1355183"><ele>549.0</ele><time>2026-04-30T10:04:13.645Z</time></trkpt><trkpt lat="43.9766517" lon="12.1356783"><ele>549.0</ele><time>2026-04-30T10:04:14.651Z</time></trkpt><trkpt lat="43.976735" lon="12.1358433"><ele>549.0</ele><time>2026-04-30T10:04:15.651Z</time></trkpt><trkpt lat="43.97682" lon="12.1360117"><ele>549.0</ele><time>2026-04-30T10:04:16.644Z</time></trkpt><trkpt lat="43.9769067" lon="12.1361817"><ele>548.5</ele><time>2026-04-30T10:04:17.647Z</time></trkpt><trkpt lat="43.9769867" lon="12.1363483"><ele>548.0</ele><time>2026-04-30T10:04:18.637Z</time></trkpt><trkpt lat="43.977065" lon="12.1365133"><ele>547.5</ele><time>2026-04-30T10:04:19.651Z</time></trkpt><trkpt lat="43.9771383" lon="12.136685"><ele>547.0</ele><time>2026-04-30T10:04:20.648Z</time></trkpt><trkpt lat="43.9771917" lon="12.1368667"><ele>547.0</ele><time>2026-04-30T10:04:21.663Z</time></trkpt><trkpt lat="43.977235" lon="12.1370567"><ele>547.0</ele><time>2026-04-30T10:04:22.646Z</time></trkpt><trkpt lat="43.97726" lon="12.1372467"><ele>547.0</ele><time>2026-04-30T10:04:23.648Z</time></trkpt><trkpt lat="43.977285" lon="12.1374033"><ele>547.0</ele><time>2026-04-30T10:04:24.65Z</time></trkpt><trkpt lat="43.9773317" lon="12.1375183"><ele>547.6</ele><time>2026-04-30T10:04:25.648Z</time></trkpt><trkpt lat="43.9773917" lon="12.1376017"><ele>548.2</ele><time>2026-04-30T10:04:26.649Z</time></trkpt><trkpt lat="43.977465" lon="12.13764"><ele>548.8</ele><time>2026-04-30T10:04:27.653Z</time></trkpt><trkpt lat="43.9775433" lon="12.1376517"><ele>549.4</ele><time>2026-04-30T10:04:28.65Z</time></trkpt><trkpt lat="43.9776467" lon="12.1376517"><ele>550.0</ele><time>2026-04-30T10:04:29.646Z</time></trkpt><trkpt lat="43.977785" lon="12.137655"><ele>550.0</ele><time>2026-04-30T10:04:30.643Z</time></trkpt><trkpt lat="43.9779167" lon="12.1377"><ele>550.0</ele><time>2026-04-30T10:04:31.645Z</time></trkpt><trkpt lat="43.97804" lon="12.13778"><ele>550.0</ele><time>2026-04-30T10:04:32.645Z</time></trkpt><trkpt lat="43.97814" lon="12.1378917"><ele>550.0</ele><time>2026-04-30T10:04:33.681Z</time></trkpt><trkpt lat="43.9782283" lon="12.138015"><ele>550.0</ele><time>2026-04-30T10:04:34.645Z</time></trkpt><trkpt lat="43.9783167" lon="12.1381267"><ele>550.0</ele><time>2026-04-30T10:04:35.648Z</time></trkpt><trkpt lat="43.9784183" lon="12.1382033"><ele>550.0</ele><time>2026-04-30T10:04:36.649Z</time></trkpt><trkpt lat="43.978545" lon="12.1382517"><ele>550.0</ele><time>2026-04-30T10:04:37.639Z</time></trkpt><trkpt lat="43.9786817" lon="12.1382983"><ele>550.5</ele><time>2026-04-30T10:04:38.65Z</time></trkpt><trkpt lat="43.97882" lon="12.1383567"><ele>551.0</ele><time>2026-04-30T10:04:39.648Z</time></trkpt><trkpt lat="43.9789467" lon="12.1384333"><ele>551.5</ele><time>2026-04-30T10:04:40.647Z</time></trkpt><trkpt lat="43.97906" lon="12.1385183"><ele>552.0</ele><time>2026-04-30T10:04:41.642Z</time></trkpt><trkpt lat="43.979155" lon="12.1386233"><ele>547.75</ele><time>2026-04-30T10:04:42.646Z</time></trkpt><trkpt lat="43.979235" lon="12.1387583"><ele>543.5</ele><time>2026-04-30T10:04:43.65Z</time></trkpt><trkpt lat="43.9792933" lon="12.1389167"><ele>539.25</ele><time>2026-04-30T10:04:44.64Z</time></trkpt><trkpt lat="43.9793483" lon="12.1390783"><ele>535.0</ele><time>2026-04-30T10:04:45.652Z</time></trkpt><trkpt lat="43.9794067" lon="12.1392283"><ele>535.0</ele><time>2026-04-30T10:04:46.644Z</time></trkpt><trkpt lat="43.9794717" lon="12.1393617"><ele>535.0</ele><time>2026-04-30T10:04:47.651Z</time></trkpt><trkpt lat="43.9795383" lon="12.13948"><ele>535.0</ele><time>2026-04-30T10:04:48.641Z</time></trkpt><trkpt lat="43.979595" lon="12.139585"><ele>535.0</ele><time>2026-04-30T10:04:49.649Z</time></trkpt><trkpt lat="43.979635" lon="12.1396933"><ele>535.0</ele><time>2026-04-30T10:04:50.654Z</time></trkpt><trkpt lat="43.9796583" lon="12.139805"><ele>536.2</ele><time>2026-04-30T10:04:51.656Z</time></trkpt><trkpt lat="43.9796567" lon="12.1399233"><ele>537.4</ele><time>2026-04-30T10:04:52.658Z</time></trkpt><trkpt lat="43.9796267" lon="12.1400517"><ele>538.6</ele><time>2026-04-30T10:04:53.644Z</time></trkpt><trkpt lat="43.9795867" lon="12.1401783"><ele>539.8</ele><time>2026-04-30T10:04:54.644Z</time></trkpt><trkpt lat="43.9795267" lon="12.1403067"><ele>541.0</ele><time>2026-04-30T10:04:55.651Z</time></trkpt><trkpt lat="43.979455" lon="12.1404317"><ele>541.0</ele><time>2026-04-30T10:04:56.653Z</time></trkpt><trkpt lat="43.97938" lon="12.14055"><ele>541.0</ele><time>2026-04-30T10:04:57.644Z</time></trkpt><trkpt lat="43.9792983" lon="12.1406617"><ele>541.0</ele><time>2026-04-30T10:04:58.648Z</time></trkpt><trkpt lat="43.9792117" lon="12.1407667"><ele>541.0</ele><time>2026-04-30T10:04:59.65Z</time></trkpt><trkpt lat="43.9791217" lon="12.14087"><ele>543.25</ele><time>2026-04-30T10:05:00.644Z</time></trkpt><trkpt lat="43.9790383" lon="12.1409817"><ele>545.5</ele><time>2026-04-30T10:05:01.647Z</time></trkpt><trkpt lat="43.9789667" lon="12.1411117"><ele>547.75</ele><time>2026-04-30T10:05:02.65Z</time></trkpt><trkpt lat="43.9789117" lon="12.14126"><ele>550.0</ele><time>2026-04-30T10:05:03.642Z</time></trkpt><trkpt lat="43.9788617" lon="12.1414133"><ele>550.0</ele><time>2026-04-30T10:05:04.656Z</time></trkpt><trkpt lat="43.97881" lon="12.1415483"><ele>550.0</ele><time>2026-04-30T10:05:05.641Z</time></trkpt><trkpt lat="43.9787533" lon="12.141655"><ele>550.0</ele><time>2026-04-30T10:05:06.649Z</time></trkpt><trkpt lat="43.97869" lon="12.14173"><ele>550.0</ele><time>2026-04-30T10:05:07.654Z</time></trkpt><trkpt lat="43.97862" lon="12.1417767"><ele>550.0</ele><time>2026-04-30T10:05:08.646Z</time></trkpt><trkpt lat="43.978525" lon="12.1417817"><ele>550.2</ele><time>2026-04-30T10:05:09.65Z</time></trkpt><trkpt lat="43.9784217" lon="12.141735"><ele>550.4</ele><time>2026-04-30T10:05:10.656Z</time></trkpt><trkpt lat="43.978325" lon="12.141705"><ele>550.6</ele><time>2026-04-30T10:05:11.646Z</time></trkpt><trkpt lat="43.9782333" lon="12.141685"><ele>550.8</ele><time>2026-04-30T10:05:12.642Z</time></trkpt><trkpt lat="43.9781483" lon="12.1416717"><ele>551.0</ele><time>2026-04-30T10:05:13.642Z</time></trkpt><trkpt lat="43.978065" lon="12.1416783"><ele>551.0</ele><time>2026-04-30T10:05:14.652Z</time></trkpt><trkpt lat="43.9779833" lon="12.141715"><ele>551.0</ele><time>2026-04-30T10:05:15.647Z</time></trkpt><trkpt lat="43.977905" lon="12.1417767"><ele>551.0</ele><time>2026-04-30T10:05:16.648Z</time></trkpt><trkpt lat="43.9778333" lon="12.14188"><ele>551.0</ele><time>2026-04-30T10:05:17.643Z</time></trkpt><trkpt lat="43.9777833" lon="12.1420267"><ele>551.0</ele><time>2026-04-30T10:05:18.645Z</time></trkpt><trkpt lat="43.9777417" lon="12.14218"><ele>551.0</ele><time>2026-04-30T10:05:19.645Z</time></trkpt><trkpt lat="43.9776983" lon="12.1423433"><ele>551.0</ele><time>2026-04-30T10:05:20.654Z</time></trkpt><trkpt lat="43.9776483" lon="12.1425067"><ele>551.0</ele><time>2026-04-30T10:05:21.657Z</time></trkpt><trkpt lat="43.9775983" lon="12.142665"><ele>551.0</ele><time>2026-04-30T10:05:22.641Z</time></trkpt><trkpt lat="43.9775683" lon="12.1428217"><ele>550.75</ele><time>2026-04-30T10:05:23.646Z</time></trkpt><trkpt lat="43.9775483" lon="12.1429767"><ele>550.5</ele><time>2026-04-30T10:05:24.649Z</time></trkpt><trkpt lat="43.9775367" lon="12.1431383"><ele>550.25</ele><time>2026-04-30T10:05:25.651Z</time></trkpt><trkpt lat="43.977515" lon="12.1433033"><ele>550.0</ele><time>2026-04-30T10:05:26.643Z</time></trkpt><trkpt lat="43.9774767" lon="12.1434633"><ele>550.0</ele><time>2026-04-30T10:05:27.648Z</time></trkpt><trkpt lat="43.97742" lon="12.1436283"><ele>550.0</ele><time>2026-04-30T10:05:28.644Z</time></trkpt><trkpt lat="43.977365" lon="12.1437967"><ele>550.0</ele><time>2026-04-30T10:05:29.643Z</time></trkpt><trkpt lat="43.9773117" lon="12.1439667"><ele>550.0</ele><time>2026-04-30T10:05:30.649Z</time></trkpt><trkpt lat="43.9772717" lon="12.144145"><ele>548.0</ele><time>2026-04-30T10:05:31.641Z</time></trkpt><trkpt lat="43.977245" lon="12.14433"><ele>546.0</ele><time>2026-04-30T10:05:32.65Z</time></trkpt><trkpt lat="43.9772267" lon="12.1445183"><ele>544.0</ele><time>2026-04-30T10:05:33.656Z</time></trkpt><trkpt lat="43.9772083" lon="12.1446933"><ele>542.0</ele><time>2026-04-30T10:05:34.649Z</time></trkpt><trkpt lat="43.9771817" lon="12.1448667"><ele>539.25</ele><time>2026-04-30T10:05:35.643Z</time></trkpt><trkpt lat="43.977155" lon="12.14504"><ele>536.5</ele><time>2026-04-30T10:05:36.65Z</time></trkpt><trkpt lat="43.9771133" lon="12.1452117"><ele>533.75</ele><time>2026-04-30T10:05:37.638Z</time></trkpt><trkpt lat="43.9770683" lon="12.1453883"><ele>531.0</ele><time>2026-04-30T10:05:38.643Z</time></trkpt><trkpt lat="43.9770283" lon="12.1455717"><ele>527.25</ele><time>2026-04-30T10:05:39.65Z</time></trkpt><trkpt lat="43.9769917" lon="12.1457667"><ele>523.5</ele><time>2026-04-30T10:05:40.648Z</time></trkpt><trkpt lat="43.9769617" lon="12.1459567"><ele>519.75</ele><time>2026-04-30T10:05:41.647Z</time></trkpt><trkpt lat="43.97693" lon="12.1461383"><ele>516.0</ele><time>2026-04-30T10:05:42.645Z</time></trkpt><trkpt lat="43.9769067" lon="12.1463033"><ele>516.0</ele><time>2026-04-30T10:05:43.644Z</time></trkpt><trkpt lat="43.9768917" lon="12.1464467"><ele>516.0</ele><time>2026-04-30T10:05:44.648Z</time></trkpt><trkpt lat="43.97688" lon="12.1465583"><ele>516.0</ele><time>2026-04-30T10:05:45.651Z</time></trkpt><trkpt lat="43.9768417" lon="12.1466783"><ele>516.0</ele><time>2026-04-30T10:05:47.649Z</time></trkpt><trkpt lat="43.976785" lon="12.1467317"><ele>516.0</ele><time>2026-04-30T10:05:58.644Z</time></trkpt><trkpt lat="43.9768" lon="12.1468167"><ele>516.0</ele><time>2026-04-30T10:06:00.662Z</time></trkpt><trkpt lat="43.9768217" lon="12.1469"><ele>516.0</ele><time>2026-04-30T10:06:02.645Z</time></trkpt><trkpt lat="43.9768417" lon="12.1467867"><ele>516.0</ele><time>2026-04-30T10:06:27.646Z</time></trkpt><trkpt lat="43.97681" lon="12.1466867"><ele>516.0</ele><time>2026-04-30T10:06:28.646Z</time></trkpt><trkpt lat="43.9767633" lon="12.14659"><ele>516.0</ele><time>2026-04-30T10:06:29.649Z</time></trkpt><trkpt lat="43.97671" lon="12.1464933"><ele>516.0</ele><time>2026-04-30T10:06:30.648Z</time></trkpt><trkpt lat="43.9766517" lon="12.146395"><ele>516.0</ele><time>2026-04-30T10:06:31.643Z</time></trkpt><trkpt lat="43.976595" lon="12.146295"><ele>522.0</ele><time>2026-04-30T10:06:32.649Z</time></trkpt><trkpt lat="43.9765333" lon="12.1461983"><ele>528.0</ele><time>2026-04-30T10:06:33.645Z</time></trkpt><trkpt lat="43.9764733" lon="12.1461"><ele>534.0</ele><time>2026-04-30T10:06:34.649Z</time></trkpt><trkpt lat="43.9764133" lon="12.1460067"><ele>540.0</ele><time>2026-04-30T10:06:35.64Z</time></trkpt><trkpt lat="43.9763517" lon="12.14592"><ele>546.0</ele><time>2026-04-30T10:06:36.643Z</time></trkpt><trkpt lat="43.9762933" lon="12.1458317"><ele>546.0</ele><time>2026-04-30T10:06:37.644Z</time></trkpt><trkpt lat="43.97623" lon="12.1457433"><ele>546.0</ele><time>2026-04-30T10:06:38.649Z</time></trkpt><trkpt lat="43.97617" lon="12.1456517"><ele>546.0</ele><time>2026-04-30T10:06:39.647Z</time></trkpt><trkpt lat="43.97609" lon="12.1455833"><ele>546.0</ele><time>2026-04-30T10:06:40.651Z</time></trkpt><trkpt lat="43.975995" lon="12.1455367"><ele>546.0</ele><time>2026-04-30T10:06:41.646Z</time></trkpt><trkpt lat="43.9758917" lon="12.1454967"><ele>553.0</ele><time>2026-04-30T10:06:42.645Z</time></trkpt><trkpt lat="43.9757867" lon="12.145455"><ele>560.0</ele><time>2026-04-30T10:06:43.64Z</time></trkpt><trkpt lat="43.9756783" lon="12.1454"><ele>567.0</ele><time>2026-04-30T10:06:44.639Z</time></trkpt><trkpt lat="43.9755683" lon="12.1453433"><ele>574.0</ele><time>2026-04-30T10:06:45.642Z</time></trkpt><trkpt lat="43.9754533" lon="12.1452867"><ele>574.0</ele><time>2026-04-30T10:06:46.648Z</time></trkpt><trkpt lat="43.97534" lon="12.14523"><ele>574.0</ele><time>2026-04-30T10:06:47.643Z</time></trkpt><trkpt lat="43.9752267" lon="12.1451783"><ele>574.0</ele><time>2026-04-30T10:06:48.643Z</time></trkpt><trkpt lat="43.9751117" lon="12.1451367"><ele>574.0</ele><time>2026-04-30T10:06:49.643Z</time></trkpt><trkpt lat="43.9750017" lon="12.1450833"><ele>573.25</ele><time>2026-04-30T10:06:50.644Z</time></trkpt><trkpt lat="43.9748983" lon="12.1450033"><ele>572.5</ele><time>2026-04-30T10:06:51.657Z</time></trkpt><trkpt lat="43.974805" lon="12.144905"><ele>571.75</ele><time>2026-04-30T10:06:52.646Z</time></trkpt><trkpt lat="43.9747083" lon="12.1448067"><ele>571.0</ele><time>2026-04-30T10:06:53.646Z</time></trkpt><trkpt lat="43.9746133" lon="12.1447067"><ele>571.0</ele><time>2026-04-30T10:06:54.65Z</time></trkpt><trkpt lat="43.9745167" lon="12.1446133"><ele>571.0</ele><time>2026-04-30T10:06:55.652Z</time></trkpt><trkpt lat="43.9744183" lon="12.144545"><ele>571.0</ele><time>2026-04-30T10:06:56.642Z</time></trkpt><trkpt lat="43.9743217" lon="12.1444967"><ele>571.0</ele><time>2026-04-30T10:06:57.643Z</time></trkpt><trkpt lat="43.9742267" lon="12.1444567"><ele>571.0</ele><time>2026-04-30T10:06:58.65Z</time></trkpt><trkpt lat="43.9741283" lon="12.14443"><ele>571.8</ele><time>2026-04-30T10:06:59.654Z</time></trkpt><trkpt lat="43.9740317" lon="12.144415"><ele>572.6</ele><time>2026-04-30T10:07:00.652Z</time></trkpt><trkpt lat="43.97393" lon="12.1444217"><ele>573.4</ele><time>2026-04-30T10:07:01.643Z</time></trkpt><trkpt lat="43.9738267" lon="12.1444283"><ele>574.2</ele><time>2026-04-30T10:07:02.644Z</time></trkpt><trkpt lat="43.9737267" lon="12.1444367"><ele>575.0</ele><time>2026-04-30T10:07:03.644Z</time></trkpt><trkpt lat="43.9736317" lon="12.1444267"><ele>575.0</ele><time>2026-04-30T10:07:04.653Z</time></trkpt><trkpt lat="43.9735333" lon="12.14441"><ele>575.0</ele><time>2026-04-30T10:07:05.648Z</time></trkpt><trkpt lat="43.9734333" lon="12.1443667"><ele>575.0</ele><time>2026-04-30T10:07:06.65Z</time></trkpt><trkpt lat="43.973335" lon="12.1443083"><ele>575.0</ele><time>2026-04-30T10:07:07.654Z</time></trkpt><trkpt lat="43.9732367" lon="12.1442383"><ele>575.0</ele><time>2026-04-30T10:07:08.65Z</time></trkpt><trkpt lat="43.9731383" lon="12.144165"><ele>573.6</ele><time>2026-04-30T10:07:09.649Z</time></trkpt><trkpt lat="43.9730417" lon="12.1440917"><ele>572.2</ele><time>2026-04-30T10:07:10.647Z</time></trkpt><trkpt lat="43.9729417" lon="12.1440267"><ele>570.8</ele><time>2026-04-30T10:07:11.651Z</time></trkpt><trkpt lat="43.9728417" lon="12.1439817"><ele>569.4</ele><time>2026-04-30T10:07:12.648Z</time></trkpt><trkpt lat="43.9727433" lon="12.1439583"><ele>568.0</ele><time>2026-04-30T10:07:13.643Z</time></trkpt><trkpt lat="43.9726433" lon="12.1439533"><ele>566.5</ele><time>2026-04-30T10:07:14.648Z</time></trkpt><trkpt lat="43.972555" lon="12.1439517"><ele>565.0</ele><time>2026-04-30T10:07:15.659Z</time></trkpt><trkpt lat="43.9724717" lon="12.1439467"><ele>563.5</ele><time>2026-04-30T10:07:16.642Z</time></trkpt><trkpt lat="43.9723933" lon="12.1439367"><ele>562.0</ele><time>2026-04-30T10:07:17.643Z</time></trkpt><trkpt lat="43.9723217" lon="12.1439183"><ele>560.5</ele><time>2026-04-30T10:07:18.644Z</time></trkpt><trkpt lat="43.97225" lon="12.1438917"><ele>559.0</ele><time>2026-04-30T10:07:19.642Z</time></trkpt><trkpt lat="43.9721767" lon="12.143845"><ele>559.0</ele><time>2026-04-30T10:07:20.638Z</time></trkpt><trkpt lat="43.9721017" lon="12.1437883"><ele>559.0</ele><time>2026-04-30T10:07:21.644Z</time></trkpt><trkpt lat="43.97203" lon="12.14373"><ele>559.0</ele><time>2026-04-30T10:07:22.64Z</time></trkpt><trkpt lat="43.97196" lon="12.1436733"><ele>559.0</ele><time>2026-04-30T10:07:23.648Z</time></trkpt><trkpt lat="43.9718817" lon="12.1436283"><ele>559.0</ele><time>2026-04-30T10:07:24.644Z</time></trkpt><trkpt lat="43.971795" lon="12.143595"><ele>559.0</ele><time>2026-04-30T10:07:25.643Z</time></trkpt><trkpt lat="43.9717033" lon="12.1435717"><ele>557.0</ele><time>2026-04-30T10:07:26.644Z</time></trkpt><trkpt lat="43.971615" lon="12.1435633"><ele>555.0</ele><time>2026-04-30T10:07:27.654Z</time></trkpt><trkpt lat="43.9715333" lon="12.14357"><ele>553.0</ele><time>2026-04-30T10:07:28.648Z</time></trkpt><trkpt lat="43.9714617" lon="12.14358"><ele>551.0</ele><time>2026-04-30T10:07:29.651Z</time></trkpt><trkpt lat="43.9713983" lon="12.1435983"><ele>549.0</ele><time>2026-04-30T10:07:30.644Z</time></trkpt><trkpt lat="43.9712883" lon="12.1436133"><ele>547.0</ele><time>2026-04-30T10:07:32.646Z</time></trkpt><trkpt lat="43.9711783" lon="12.1435933"><ele>547.0</ele><time>2026-04-30T10:07:34.646Z</time></trkpt><trkpt lat="43.9711133" lon="12.1435583"><ele>547.0</ele><time>2026-04-30T10:07:35.652Z</time></trkpt><trkpt lat="43.9710433" lon="12.1435017"><ele>547.0</ele><time>2026-04-30T10:07:36.65Z</time></trkpt><trkpt lat="43.9709667" lon="12.1434233"><ele>547.0</ele><time>2026-04-30T10:07:37.646Z</time></trkpt><trkpt lat="43.9708817" lon="12.14335"><ele>547.0</ele><time>2026-04-30T10:07:38.656Z</time></trkpt><trkpt lat="43.9707983" lon="12.1432767"><ele>547.0</ele><time>2026-04-30T10:07:39.649Z</time></trkpt><trkpt lat="43.970725" lon="12.1431917"><ele>546.5</ele><time>2026-04-30T10:07:40.65Z</time></trkpt><trkpt lat="43.97067" lon="12.1430933"><ele>546.0</ele><time>2026-04-30T10:07:41.651Z</time></trkpt><trkpt lat="43.97062" lon="12.14298"><ele>545.5</ele><time>2026-04-30T10:07:42.642Z</time></trkpt><trkpt lat="43.9705833" lon="12.14287"><ele>545.0</ele><time>2026-04-30T10:07:43.652Z</time></trkpt><trkpt lat="43.970545" lon="12.1427667"><ele>544.5</ele><time>2026-04-30T10:07:44.646Z</time></trkpt><trkpt lat="43.970495" lon="12.1426617"><ele>544.0</ele><time>2026-04-30T10:07:45.649Z</time></trkpt><trkpt lat="43.970435" lon="12.1425467"><ele>544.0</ele><time>2026-04-30T10:07:46.649Z</time></trkpt><trkpt lat="43.97037" lon="12.142425"><ele>544.0</ele><time>2026-04-30T10:07:47.647Z</time></trkpt><trkpt lat="43.9703083" lon="12.1422917"><ele>544.0</ele><time>2026-04-30T10:07:48.65Z</time></trkpt><trkpt lat="43.9702483" lon="12.1421517"><ele>544.0</ele><time>2026-04-30T10:07:49.655Z</time></trkpt><trkpt lat="43.9701967" lon="12.1419883"><ele>542.5</ele><time>2026-04-30T10:07:50.655Z</time></trkpt><trkpt lat="43.9701517" lon="12.1418183"><ele>541.0</ele><time>2026-04-30T10:07:51.645Z</time></trkpt><trkpt lat="43.9701033" lon="12.1416567"><ele>539.5</ele><time>2026-04-30T10:07:52.651Z</time></trkpt><trkpt lat="43.9700633" lon="12.141515"><ele>538.0</ele><time>2026-04-30T10:07:53.652Z</time></trkpt><trkpt lat="43.9700283" lon="12.1413883"><ele>542.6</ele><time>2026-04-30T10:07:54.65Z</time></trkpt><trkpt lat="43.9699817" lon="12.1412767"><ele>547.1999999999999</ele><time>2026-04-30T10:07:55.656Z</time></trkpt><trkpt lat="43.96993" lon="12.1411783"><ele>551.8</ele><time>2026-04-30T10:07:56.642Z</time></trkpt><trkpt lat="43.96987" lon="12.14109"><ele>556.4</ele><time>2026-04-30T10:07:57.646Z</time></trkpt><trkpt lat="43.96979" lon="12.1410217"><ele>561.0</ele><time>2026-04-30T10:07:58.644Z</time></trkpt><trkpt lat="43.9696867" lon="12.140985"><ele>561.0</ele><time>2026-04-30T10:07:59.648Z</time></trkpt><trkpt lat="43.9695583" lon="12.141015"><ele>561.0</ele><time>2026-04-30T10:08:00.651Z</time></trkpt><trkpt lat="43.969445" lon="12.141035"><ele>561.0</ele><time>2026-04-30T10:08:01.642Z</time></trkpt><trkpt lat="43.96934" lon="12.141005"><ele>561.0</ele><time>2026-04-30T10:08:02.642Z</time></trkpt><trkpt lat="43.9692383" lon="12.14095"><ele>562.75</ele><time>2026-04-30T10:08:03.643Z</time></trkpt><trkpt lat="43.9691417" lon="12.14086"><ele>564.5</ele><time>2026-04-30T10:08:04.648Z</time></trkpt><trkpt lat="43.9690583" lon="12.140735"><ele>566.25</ele><time>2026-04-30T10:08:05.645Z</time></trkpt><trkpt lat="43.968985" lon="12.140585"><ele>568.0</ele><time>2026-04-30T10:08:06.642Z</time></trkpt><trkpt lat="43.96892" lon="12.1404367"><ele>564.8</ele><time>2026-04-30T10:08:07.653Z</time></trkpt><trkpt lat="43.9688617" lon="12.14031"><ele>561.5999999999999</ele><time>2026-04-30T10:08:08.649Z</time></trkpt><trkpt lat="43.9688017" lon="12.1402067"><ele>558.4000000000001</ele><time>2026-04-30T10:08:09.643Z</time></trkpt><trkpt lat="43.9687217" lon="12.14015"><ele>555.2</ele><time>2026-04-30T10:08:10.641Z</time></trkpt><trkpt lat="43.9686233" lon="12.1401267"><ele>552.0</ele><time>2026-04-30T10:08:11.653Z</time></trkpt><trkpt lat="43.968505" lon="12.1401483"><ele>552.0</ele><time>2026-04-30T10:08:12.648Z</time></trkpt><trkpt lat="43.96839" lon="12.1401583"><ele>552.0</ele><time>2026-04-30T10:08:13.656Z</time></trkpt><trkpt lat="43.968275" lon="12.1401433"><ele>552.0</ele><time>2026-04-30T10:08:14.65Z</time></trkpt><trkpt lat="43.9681683" lon="12.1400767"><ele>552.0</ele><time>2026-04-30T10:08:15.643Z</time></trkpt><trkpt lat="43.9680717" lon="12.1399967"><ele>551.75</ele><time>2026-04-30T10:08:16.65Z</time></trkpt><trkpt lat="43.96799" lon="12.1398933"><ele>551.5</ele><time>2026-04-30T10:08:17.656Z</time></trkpt><trkpt lat="43.9679083" lon="12.1397933"><ele>551.25</ele><time>2026-04-30T10:08:18.649Z</time></trkpt><trkpt lat="43.9678133" lon="12.1397017"><ele>551.0</ele><time>2026-04-30T10:08:19.646Z</time></trkpt><trkpt lat="43.9677133" lon="12.1396033"><ele>551.0</ele><time>2026-04-30T10:08:20.644Z</time></trkpt><trkpt lat="43.967645" lon="12.13948"><ele>551.0</ele><time>2026-04-30T10:08:21.652Z</time></trkpt><trkpt lat="43.9675933" lon="12.139345"><ele>551.0</ele><time>2026-04-30T10:08:22.645Z</time></trkpt><trkpt lat="43.96754" lon="12.139205"><ele>551.0</ele><time>2026-04-30T10:08:23.644Z</time></trkpt><trkpt lat="43.9674633" lon="12.139075"><ele>556.25</ele><time>2026-04-30T10:08:24.656Z</time></trkpt><trkpt lat="43.967375" lon="12.1389633"><ele>561.5</ele><time>2026-04-30T10:08:25.648Z</time></trkpt><trkpt lat="43.96728" lon="12.138855"><ele>566.75</ele><time>2026-04-30T10:08:26.648Z</time></trkpt><trkpt lat="43.9671933" lon="12.1387383"><ele>572.0</ele><time>2026-04-30T10:08:27.659Z</time></trkpt><trkpt lat="43.967125" lon="12.1386317"><ele>572.0</ele><time>2026-04-30T10:08:28.653Z</time></trkpt><trkpt lat="43.967075" lon="12.1385533"><ele>572.0</ele><time>2026-04-30T10:08:29.652Z</time></trkpt><trkpt lat="43.9670283" lon="12.1384667"><ele>572.0</ele><time>2026-04-30T10:08:31.657Z</time></trkpt><trkpt lat="43.96699" lon="12.13834"><ele>572.0</ele><time>2026-04-30T10:08:43.646Z</time></trkpt><trkpt lat="43.9669667" lon="12.1382417"><ele>572.0</ele><time>2026-04-30T10:08:44.644Z</time></trkpt><trkpt lat="43.9669233" lon="12.1381117"><ele>572.0</ele><time>2026-04-30T10:08:45.652Z</time></trkpt><trkpt lat="43.9668783" lon="12.1379683"><ele>575.25</ele><time>2026-04-30T10:08:46.649Z</time></trkpt><trkpt lat="43.9668367" lon="12.1378233"><ele>578.5</ele><time>2026-04-30T10:08:47.645Z</time></trkpt><trkpt lat="43.9668017" lon="12.13767"><ele>581.75</ele><time>2026-04-30T10:08:48.649Z</time></trkpt><trkpt lat="43.9667833" lon="12.1375017"><ele>585.0</ele><time>2026-04-30T10:08:49.65Z</time></trkpt><trkpt lat="43.9667617" lon="12.1373367"><ele>586.75</ele><time>2026-04-30T10:08:50.65Z</time></trkpt><trkpt lat="43.9667483" lon="12.13717"><ele>588.5</ele><time>2026-04-30T10:08:51.644Z</time></trkpt><trkpt lat="43.966715" lon="12.1370033"><ele>590.25</ele><time>2026-04-30T10:08:52.655Z</time></trkpt><trkpt lat="43.9666617" lon="12.1368467"><ele>592.0</ele><time>2026-04-30T10:08:53.648Z</time></trkpt><trkpt lat="43.9666067" lon="12.1366933"><ele>585.25</ele><time>2026-04-30T10:08:54.649Z</time></trkpt><trkpt lat="43.9665583" lon="12.1365517"><ele>578.5</ele><time>2026-04-30T10:08:55.654Z</time></trkpt><trkpt lat="43.9665317" lon="12.136395"><ele>571.75</ele><time>2026-04-30T10:08:56.639Z</time></trkpt><trkpt lat="43.966505" lon="12.1362383"><ele>565.0</ele><time>2026-04-30T10:08:57.665Z</time></trkpt><trkpt lat="43.9664867" lon="12.1360683"><ele>565.0</ele><time>2026-04-30T10:08:58.654Z</time></trkpt><trkpt lat="43.9664833" lon="12.1359017"><ele>565.0</ele><time>2026-04-30T10:08:59.655Z</time></trkpt><trkpt lat="43.966475" lon="12.1357383"><ele>565.0</ele><time>2026-04-30T10:09:00.649Z</time></trkpt><trkpt lat="43.9664567" lon="12.1355883"><ele>565.0</ele><time>2026-04-30T10:09:01.649Z</time></trkpt><trkpt lat="43.966415" lon="12.1354467"><ele>563.4</ele><time>2026-04-30T10:09:02.65Z</time></trkpt><trkpt lat="43.9663583" lon="12.135325"><ele>561.8</ele><time>2026-04-30T10:09:03.642Z</time></trkpt><trkpt lat="43.9662833" lon="12.1352167"><ele>560.2</ele><time>2026-04-30T10:09:04.651Z</time></trkpt><trkpt lat="43.96619" lon="12.135125"><ele>558.6</ele><time>2026-04-30T10:09:05.652Z</time></trkpt><trkpt lat="43.9660817" lon="12.135055"><ele>557.0</ele><time>2026-04-30T10:09:06.646Z</time></trkpt><trkpt lat="43.96597" lon="12.135"><ele>557.0</ele><time>2026-04-30T10:09:07.648Z</time></trkpt><trkpt lat="43.9658633" lon="12.1349317"><ele>557.0</ele><time>2026-04-30T10:09:08.648Z</time></trkpt><trkpt lat="43.965765" lon="12.134855"><ele>557.0</ele><time>2026-04-30T10:09:09.649Z</time></trkpt><trkpt lat="43.965675" lon="12.1347667"><ele>557.0</ele><time>2026-04-30T10:09:10.653Z</time></trkpt><trkpt lat="43.96559" lon="12.1346567"><ele>558.0</ele><time>2026-04-30T10:09:11.643Z</time></trkpt><trkpt lat="43.9655017" lon="12.13452"><ele>559.0</ele><time>2026-04-30T10:09:12.671Z</time></trkpt><trkpt lat="43.9654067" lon="12.1343683"><ele>560.0</ele><time>2026-04-30T10:09:13.647Z</time></trkpt><trkpt lat="43.9653167" lon="12.13423"><ele>561.0</ele><time>2026-04-30T10:09:14.651Z</time></trkpt><trkpt lat="43.9652183" lon="12.13412"><ele>559.25</ele><time>2026-04-30T10:09:15.643Z</time></trkpt><trkpt lat="43.9651117" lon="12.1340233"><ele>557.5</ele><time>2026-04-30T10:09:16.646Z</time></trkpt><trkpt lat="43.9649967" lon="12.1339283"><ele>555.75</ele><time>2026-04-30T10:09:17.638Z</time></trkpt><trkpt lat="43.9648833" lon="12.1338317"><ele>554.0</ele><time>2026-04-30T10:09:18.647Z</time></trkpt><trkpt lat="43.9647717" lon="12.1337383"><ele>554.0</ele><time>2026-04-30T10:09:19.644Z</time></trkpt><trkpt lat="43.96466" lon="12.13365"><ele>554.0</ele><time>2026-04-30T10:09:20.649Z</time></trkpt><trkpt lat="43.9645433" lon="12.13356"><ele>554.0</ele><time>2026-04-30T10:09:21.653Z</time></trkpt><trkpt lat="43.96443" lon="12.1334583"><ele>554.0</ele><time>2026-04-30T10:09:22.645Z</time></trkpt><trkpt lat="43.9643283" lon="12.1333517"><ele>554.0</ele><time>2026-04-30T10:09:23.649Z</time></trkpt><trkpt lat="43.964235" lon="12.1332483"><ele>554.0</ele><time>2026-04-30T10:09:24.656Z</time></trkpt><trkpt lat="43.9641317" lon="12.1331683"><ele>554.0</ele><time>2026-04-30T10:09:25.637Z</time></trkpt><trkpt lat="43.9640233" lon="12.133115"><ele>554.0</ele><time>2026-04-30T10:09:26.646Z</time></trkpt><trkpt lat="43.9639217" lon="12.13307"><ele>546.6</ele><time>2026-04-30T10:09:27.656Z</time></trkpt><trkpt lat="43.9638267" lon="12.13304"><ele>539.2</ele><time>2026-04-30T10:09:28.654Z</time></trkpt><trkpt lat="43.96373" lon="12.1330383"><ele>531.8000000000001</ele><time>2026-04-30T10:09:29.645Z</time></trkpt><trkpt lat="43.9636217" lon="12.1330633"><ele>524.4</ele><time>2026-04-30T10:09:30.647Z</time></trkpt><trkpt lat="43.9635033" lon="12.1331"><ele>517.0</ele><time>2026-04-30T10:09:31.656Z</time></trkpt><trkpt lat="43.9633817" lon="12.1331333"><ele>515.8000000000001</ele><time>2026-04-30T10:09:32.654Z</time></trkpt><trkpt lat="43.9632717" lon="12.1331633"><ele>514.6</ele><time>2026-04-30T10:09:33.64Z</time></trkpt><trkpt lat="43.9631633" lon="12.1331833"><ele>513.4000000000001</ele><time>2026-04-30T10:09:34.648Z</time></trkpt><trkpt lat="43.9630517" lon="12.1331883"><ele>512.2</ele><time>2026-04-30T10:09:35.657Z</time></trkpt><trkpt lat="43.962945" lon="12.133195"><ele>511.0</ele><time>2026-04-30T10:09:36.653Z</time></trkpt><trkpt lat="43.9628433" lon="12.1332033"><ele>511.00000000000006</ele><time>2026-04-30T10:09:37.643Z</time></trkpt><trkpt lat="43.9627583" lon="12.133205"><ele>511.0</ele><time>2026-04-30T10:09:38.648Z</time></trkpt><trkpt lat="43.9626717" lon="12.1332083"><ele>511.0</ele><time>2026-04-30T10:09:39.647Z</time></trkpt><trkpt lat="43.962585" lon="12.1332083"><ele>511.0</ele><time>2026-04-30T10:09:40.645Z</time></trkpt><trkpt lat="43.9624983" lon="12.1332083"><ele>511.00000000000006</ele><time>2026-04-30T10:09:41.639Z</time></trkpt><trkpt lat="43.9624083" lon="12.1332083"><ele>511.0</ele><time>2026-04-30T10:09:42.64Z</time></trkpt><trkpt lat="43.9623217" lon="12.1332033"><ele>512.3333333333334</ele><time>2026-04-30T10:09:43.653Z</time></trkpt><trkpt lat="43.96224" lon="12.1331867"><ele>513.6666666666667</ele><time>2026-04-30T10:09:44.647Z</time></trkpt><trkpt lat="43.9621583" lon="12.1331517"><ele>515.0</ele><time>2026-04-30T10:09:45.65Z</time></trkpt><trkpt lat="43.9620817" lon="12.1331067"><ele>516.3333333333334</ele><time>2026-04-30T10:09:46.652Z</time></trkpt><trkpt lat="43.9620083" lon="12.133045"><ele>517.6666666666666</ele><time>2026-04-30T10:09:47.644Z</time></trkpt><trkpt lat="43.96193" lon="12.13298"><ele>519.0</ele><time>2026-04-30T10:09:48.648Z</time></trkpt><trkpt lat="43.9618433" lon="12.13293"><ele>519.0</ele><time>2026-04-30T10:09:49.642Z</time></trkpt><trkpt lat="43.961755" lon="12.132895"><ele>519.0</ele><time>2026-04-30T10:09:50.655Z</time></trkpt><trkpt lat="43.96167" lon="12.132875"><ele>519.0</ele><time>2026-04-30T10:09:51.641Z</time></trkpt><trkpt lat="43.9615883" lon="12.1328483"><ele>519.0</ele><time>2026-04-30T10:09:52.645Z</time></trkpt><trkpt lat="43.961515" lon="12.1328067"><ele>519.0</ele><time>2026-04-30T10:09:53.647Z</time></trkpt><trkpt lat="43.9614467" lon="12.13276"><ele>519.0</ele><time>2026-04-30T10:09:54.645Z</time></trkpt><trkpt lat="43.96138" lon="12.1327183"><ele>521.0</ele><time>2026-04-30T10:09:55.65Z</time></trkpt><trkpt lat="43.9613167" lon="12.1326867"><ele>523.0</ele><time>2026-04-30T10:09:56.651Z</time></trkpt><trkpt lat="43.9612467" lon="12.1326583"><ele>525.0</ele><time>2026-04-30T10:09:57.649Z</time></trkpt><trkpt lat="43.9611683" lon="12.1326333"><ele>527.0</ele><time>2026-04-30T10:09:58.645Z</time></trkpt><trkpt lat="43.96109" lon="12.1326183"><ele>529.0</ele><time>2026-04-30T10:09:59.649Z</time></trkpt><trkpt lat="43.9610117" lon="12.1326117"><ele>531.0</ele><time>2026-04-30T10:10:00.647Z</time></trkpt><trkpt lat="43.9609467" lon="12.1326183"><ele>533.0</ele><time>2026-04-30T10:10:01.644Z</time></trkpt><trkpt lat="43.960885" lon="12.1326483"><ele>532.6</ele><time>2026-04-30T10:10:02.638Z</time></trkpt><trkpt lat="43.960825" lon="12.1327033"><ele>532.1999999999999</ele><time>2026-04-30T10:10:03.644Z</time></trkpt><trkpt lat="43.960765" lon="12.1327783"><ele>531.8</ele><time>2026-04-30T10:10:04.641Z</time></trkpt><trkpt lat="43.960695" lon="12.132885"><ele>531.4</ele><time>2026-04-30T10:10:05.643Z</time></trkpt><trkpt lat="43.96061" lon="12.133015"><ele>531.0</ele><time>2026-04-30T10:10:06.641Z</time></trkpt><trkpt lat="43.96052" lon="12.13316"><ele>531.0</ele><time>2026-04-30T10:10:07.646Z</time></trkpt><trkpt lat="43.9604267" lon="12.1332967"><ele>531.0</ele><time>2026-04-30T10:10:08.647Z</time></trkpt><trkpt lat="43.96033" lon="12.1334167"><ele>531.0</ele><time>2026-04-30T10:10:09.654Z</time></trkpt><trkpt lat="43.9602283" lon="12.1335217"><ele>531.0</ele><time>2026-04-30T10:10:10.642Z</time></trkpt><trkpt lat="43.96012" lon="12.1336133"><ele>530.4</ele><time>2026-04-30T10:10:11.655Z</time></trkpt><trkpt lat="43.9600117" lon="12.133685"><ele>529.8</ele><time>2026-04-30T10:10:12.648Z</time></trkpt><trkpt lat="43.9599067" lon="12.13374"><ele>529.1999999999999</ele><time>2026-04-30T10:10:13.655Z</time></trkpt><trkpt lat="43.959805" lon="12.1337867"><ele>528.6</ele><time>2026-04-30T10:10:14.65Z</time></trkpt><trkpt lat="43.95971" lon="12.1338383"><ele>528.0</ele><time>2026-04-30T10:10:15.652Z</time></trkpt><trkpt lat="43.9596233" lon="12.1338967"><ele>528.0</ele><time>2026-04-30T10:10:16.645Z</time></trkpt><trkpt lat="43.9595433" lon="12.133955"><ele>528.0</ele><time>2026-04-30T10:10:17.65Z</time></trkpt><trkpt lat="43.9594683" lon="12.134015"><ele>528.0</ele><time>2026-04-30T10:10:18.641Z</time></trkpt><trkpt lat="43.9593917" lon="12.1340767"><ele>528.0</ele><time>2026-04-30T10:10:19.651Z</time></trkpt><trkpt lat="43.9593167" lon="12.1341367"><ele>528.0</ele><time>2026-04-30T10:10:20.647Z</time></trkpt><trkpt lat="43.9592367" lon="12.1341783"><ele>528.0</ele><time>2026-04-30T10:10:21.647Z</time></trkpt><trkpt lat="43.95915" lon="12.134205"><ele>527.3333333333334</ele><time>2026-04-30T10:10:22.647Z</time></trkpt><trkpt lat="43.959065" lon="12.1342233"><ele>526.6666666666666</ele><time>2026-04-30T10:10:23.644Z</time></trkpt><trkpt lat="43.9589783" lon="12.1342317"><ele>526.0</ele><time>2026-04-30T10:10:24.652Z</time></trkpt><trkpt lat="43.9588933" lon="12.1342283"><ele>525.3333333333333</ele><time>2026-04-30T10:10:25.646Z</time></trkpt><trkpt lat="43.9588117" lon="12.13422"><ele>524.6666666666666</ele><time>2026-04-30T10:10:26.639Z</time></trkpt><trkpt lat="43.9587283" lon="12.1342267"><ele>524.0</ele><time>2026-04-30T10:10:27.64Z</time></trkpt><trkpt lat="43.958645" lon="12.1342517"><ele>524.0</ele><time>2026-04-30T10:10:28.648Z</time></trkpt><trkpt lat="43.9585633" lon="12.134305"><ele>524.0</ele><time>2026-04-30T10:10:29.65Z</time></trkpt><trkpt lat="43.958485" lon="12.1343767"><ele>524.0</ele><time>2026-04-30T10:10:30.646Z</time></trkpt><trkpt lat="43.9584167" lon="12.134465"><ele>524.0</ele><time>2026-04-30T10:10:31.641Z</time></trkpt><trkpt lat="43.95835" lon="12.134555"><ele>524.0</ele><time>2026-04-30T10:10:32.65Z</time></trkpt><trkpt lat="43.95828" lon="12.134645"><ele>524.0</ele><time>2026-04-30T10:10:33.659Z</time></trkpt><trkpt lat="43.95821" lon="12.13474"><ele>524.0</ele><time>2026-04-30T10:10:34.639Z</time></trkpt><trkpt lat="43.9581433" lon="12.134845"><ele>524.0</ele><time>2026-04-30T10:10:35.651Z</time></trkpt><trkpt lat="43.9580917" lon="12.13497"><ele>524.0</ele><time>2026-04-30T10:10:36.638Z</time></trkpt><trkpt lat="43.9580433" lon="12.1350917"><ele>524.0</ele><time>2026-04-30T10:10:37.644Z</time></trkpt><trkpt lat="43.9579893" lon="12.1352029"><ele>524.0</ele><time>2026-04-30T10:10:38.641Z</time></trkpt><trkpt lat="43.9579215" lon="12.1352928"><ele>524.0</ele><time>2026-04-30T10:10:39.645Z</time></trkpt><trkpt lat="43.9578416" lon="12.1353486"><ele>524.0</ele><time>2026-04-30T10:10:40.645Z</time></trkpt><trkpt lat="43.9577508" lon="12.135369"><ele>524.0</ele><time>2026-04-30T10:10:41.648Z</time></trkpt><trkpt lat="43.9576396" lon="12.1353516"><ele>524.0</ele><time>2026-04-30T10:10:42.645Z</time></trkpt><trkpt lat="43.9575172" lon="12.1353029"><ele>530.75</ele><time>2026-04-30T10:10:43.643Z</time></trkpt><trkpt lat="43.957392" lon="12.1352538"><ele>537.5</ele><time>2026-04-30T10:10:44.651Z</time></trkpt><trkpt lat="43.9572738" lon="12.1352249"><ele>544.25</ele><time>2026-04-30T10:10:45.651Z</time></trkpt><trkpt lat="43.9571543" lon="12.1352302"><ele>551.0</ele><time>2026-04-30T10:10:46.662Z</time></trkpt><trkpt lat="43.9570294" lon="12.1352723"><ele>551.0</ele><time>2026-04-30T10:10:47.646Z</time></trkpt><trkpt lat="43.9569011" lon="12.1353366"><ele>551.0</ele><time>2026-04-30T10:10:48.653Z</time></trkpt><trkpt lat="43.9567765" lon="12.1354017"><ele>551.0</ele><time>2026-04-30T10:10:49.659Z</time></trkpt><trkpt lat="43.9566506" lon="12.1354639"><ele>551.0</ele><time>2026-04-30T10:10:50.645Z</time></trkpt><trkpt lat="43.9565205" lon="12.1355344"><ele>548.25</ele><time>2026-04-30T10:10:51.653Z</time></trkpt><trkpt lat="43.956392" lon="12.1356064"><ele>545.5</ele><time>2026-04-30T10:10:52.649Z</time></trkpt><trkpt lat="43.9562648" lon="12.1356816"><ele>542.75</ele><time>2026-04-30T10:10:53.651Z</time></trkpt><trkpt lat="43.9561432" lon="12.1357438"><ele>540.0</ele><time>2026-04-30T10:10:54.643Z</time></trkpt><trkpt lat="43.9560341" lon="12.135796"><ele>540.0</ele><time>2026-04-30T10:10:55.644Z</time></trkpt><trkpt lat="43.9559339" lon="12.1358307"><ele>540.0</ele><time>2026-04-30T10:10:56.655Z</time></trkpt><trkpt lat="43.9558426" lon="12.1358413"><ele>540.0</ele><time>2026-04-30T10:10:57.648Z</time></trkpt><trkpt lat="43.9557545" lon="12.1358165"><ele>540.0</ele><time>2026-04-30T10:10:58.647Z</time></trkpt><trkpt lat="43.9556733" lon="12.135743"><ele>540.0</ele><time>2026-04-30T10:10:59.643Z</time></trkpt><trkpt lat="43.9556017" lon="12.135634"><ele>549.0</ele><time>2026-04-30T10:11:00.649Z</time></trkpt><trkpt lat="43.95554" lon="12.1354989"><ele>558.0</ele><time>2026-04-30T10:11:01.645Z</time></trkpt><trkpt lat="43.955488" lon="12.1353415"><ele>567.0</ele><time>2026-04-30T10:11:02.648Z</time></trkpt><trkpt lat="43.9554345" lon="12.1351913"><ele>576.0</ele><time>2026-04-30T10:11:03.645Z</time></trkpt><trkpt lat="43.9553583" lon="12.1350645"><ele>576.0</ele><time>2026-04-30T10:11:04.65Z</time></trkpt><trkpt lat="43.9552572" lon="12.1349653"><ele>576.0</ele><time>2026-04-30T10:11:05.648Z</time></trkpt><trkpt lat="43.9551324" lon="12.1348882"><ele>576.0</ele><time>2026-04-30T10:11:06.652Z</time></trkpt><trkpt lat="43.9549936" lon="12.1348196"><ele>576.0</ele><time>2026-04-30T10:11:07.645Z</time></trkpt><trkpt lat="43.9548442" lon="12.1347718"><ele>573.75</ele><time>2026-04-30T10:11:08.637Z</time></trkpt><trkpt lat="43.9546893" lon="12.134744"><ele>571.5</ele><time>2026-04-30T10:11:09.646Z</time></trkpt><trkpt lat="43.9545433" lon="12.1347323"><ele>569.25</ele><time>2026-04-30T10:11:10.642Z</time></trkpt><trkpt lat="43.9544061" lon="12.1347415"><ele>567.0</ele><time>2026-04-30T10:11:11.651Z</time></trkpt><trkpt lat="43.9542789" lon="12.1347691"><ele>565.5</ele><time>2026-04-30T10:11:12.639Z</time></trkpt><trkpt lat="43.9541564" lon="12.1348253"><ele>564.0</ele><time>2026-04-30T10:11:13.641Z</time></trkpt><trkpt lat="43.9540309" lon="12.1349029"><ele>562.5</ele><time>2026-04-30T10:11:14.653Z</time></trkpt><trkpt lat="43.9539027" lon="12.1349977"><ele>561.0</ele><time>2026-04-30T10:11:15.646Z</time></trkpt><trkpt lat="43.9537727" lon="12.1351071"><ele>561.0</ele><time>2026-04-30T10:11:16.641Z</time></trkpt><trkpt lat="43.9536339" lon="12.1352214"><ele>561.0</ele><time>2026-04-30T10:11:17.653Z</time></trkpt><trkpt lat="43.9534922" lon="12.135325"><ele>561.0</ele><time>2026-04-30T10:11:18.652Z</time></trkpt><trkpt lat="43.953345" lon="12.1354018"><ele>565.0</ele><time>2026-04-30T10:11:19.652Z</time></trkpt><trkpt lat="43.9531933" lon="12.1354375"><ele>569.0</ele><time>2026-04-30T10:11:20.649Z</time></trkpt><trkpt lat="43.9530389" lon="12.1354365"><ele>573.0</ele><time>2026-04-30T10:11:21.665Z</time></trkpt><trkpt lat="43.952885" lon="12.135398"><ele>573.0</ele><time>2026-04-30T10:11:22.647Z</time></trkpt><trkpt lat="43.9527286" lon="12.1353213"><ele>573.0</ele><time>2026-04-30T10:11:23.643Z</time></trkpt><trkpt lat="43.9525655" lon="12.1352242"><ele>573.0</ele><time>2026-04-30T10:11:24.644Z</time></trkpt><trkpt lat="43.9523984" lon="12.1351426"><ele>572.3333333333334</ele><time>2026-04-30T10:11:25.652Z</time></trkpt><trkpt lat="43.9522164" lon="12.1351067"><ele>571.6666666666667</ele><time>2026-04-30T10:11:26.648Z</time></trkpt><trkpt lat="43.9520189" lon="12.1350915"><ele>571.0</ele><time>2026-04-30T10:11:27.645Z</time></trkpt><trkpt lat="43.9518086" lon="12.1350842"><ele>569.0</ele><time>2026-04-30T10:11:28.651Z</time></trkpt><trkpt lat="43.9516016" lon="12.1350743"><ele>567.0</ele><time>2026-04-30T10:11:29.646Z</time></trkpt><trkpt lat="43.9514055" lon="12.1350675"><ele>565.0</ele><time>2026-04-30T10:11:30.646Z</time></trkpt><trkpt lat="43.9512222" lon="12.1350584"><ele>565.0</ele><time>2026-04-30T10:11:31.647Z</time></trkpt><trkpt lat="43.951052" lon="12.1350476"><ele>565.0</ele><time>2026-04-30T10:11:32.645Z</time></trkpt><trkpt lat="43.9508935" lon="12.1350332"><ele>565.0</ele><time>2026-04-30T10:11:33.653Z</time></trkpt><trkpt lat="43.9507521" lon="12.135008"><ele>566.0</ele><time>2026-04-30T10:11:34.645Z</time></trkpt><trkpt lat="43.9506277" lon="12.1349676"><ele>567.0</ele><time>2026-04-30T10:11:35.654Z</time></trkpt><trkpt lat="43.9505142" lon="12.1349123"><ele>568.0</ele><time>2026-04-30T10:11:36.644Z</time></trkpt><trkpt lat="43.9504084" lon="12.1348372"><ele>569.0</ele><time>2026-04-30T10:11:37.65Z</time></trkpt><trkpt lat="43.9503126" lon="12.1347532"><ele>566.6</ele><time>2026-04-30T10:11:38.646Z</time></trkpt><trkpt lat="43.9502325" lon="12.13466"><ele>564.2</ele><time>2026-04-30T10:11:39.652Z</time></trkpt><trkpt lat="43.9501732" lon="12.1345613"><ele>561.8000000000001</ele><time>2026-04-30T10:11:40.646Z</time></trkpt><trkpt lat="43.9501271" lon="12.1344479"><ele>559.4</ele><time>2026-04-30T10:11:41.639Z</time></trkpt><trkpt lat="43.9500952" lon="12.1343144"><ele>557.0</ele><time>2026-04-30T10:11:42.643Z</time></trkpt><trkpt lat="43.9500729" lon="12.1341618"><ele>555.0</ele><time>2026-04-30T10:11:43.643Z</time></trkpt><trkpt lat="43.95006" lon="12.133985"><ele>553.0</ele><time>2026-04-30T10:11:44.648Z</time></trkpt><trkpt lat="43.950045" lon="12.1338033"><ele>551.0</ele><time>2026-04-30T10:11:45.652Z</time></trkpt><trkpt lat="43.95003" lon="12.1336183"><ele>549.0</ele><time>2026-04-30T10:11:46.649Z</time></trkpt><trkpt lat="43.9500167" lon="12.1334333"><ele>551.0</ele><time>2026-04-30T10:11:47.653Z</time></trkpt><trkpt lat="43.9500033" lon="12.133255"><ele>553.0</ele><time>2026-04-30T10:11:48.652Z</time></trkpt><trkpt lat="43.95" lon="12.1330883"><ele>555.0</ele><time>2026-04-30T10:11:49.653Z</time></trkpt><trkpt lat="43.9500117" lon="12.1329433"><ele>557.0</ele><time>2026-04-30T10:11:50.647Z</time></trkpt><trkpt lat="43.9500417" lon="12.1328217"><ele>559.0</ele><time>2026-04-30T10:11:51.648Z</time></trkpt><trkpt lat="43.9500983" lon="12.1327267"><ele>559.0</ele><time>2026-04-30T10:11:52.641Z</time></trkpt><trkpt lat="43.9501783" lon="12.1326517"><ele>559.0</ele><time>2026-04-30T10:11:53.642Z</time></trkpt><trkpt lat="43.9502817" lon="12.1325967"><ele>559.0</ele><time>2026-04-30T10:11:54.644Z</time></trkpt><trkpt lat="43.9504033" lon="12.1325483"><ele>559.0</ele><time>2026-04-30T10:11:55.645Z</time></trkpt><trkpt lat="43.95053" lon="12.1325067"><ele>559.0</ele><time>2026-04-30T10:11:56.643Z</time></trkpt><trkpt lat="43.950645" lon="12.1324517"><ele>559.0</ele><time>2026-04-30T10:11:57.647Z</time></trkpt><trkpt lat="43.95075" lon="12.1323933"><ele>559.0</ele><time>2026-04-30T10:11:58.642Z</time></trkpt><trkpt lat="43.9508367" lon="12.13231"><ele>559.0</ele><time>2026-04-30T10:11:59.648Z</time></trkpt><trkpt lat="43.9509" lon="12.1322083"><ele>559.0</ele><time>2026-04-30T10:12:00.648Z</time></trkpt><trkpt lat="43.950935" lon="12.1320833"><ele>558.6666666666667</ele><time>2026-04-30T10:12:01.647Z</time></trkpt><trkpt lat="43.950945" lon="12.1319483"><ele>558.3333333333334</ele><time>2026-04-30T10:12:02.648Z</time></trkpt><trkpt lat="43.9509367" lon="12.13182"><ele>558.0</ele><time>2026-04-30T10:12:03.646Z</time></trkpt><trkpt lat="43.950925" lon="12.1317133"><ele>557.6666666666666</ele><time>2026-04-30T10:12:04.652Z</time></trkpt><trkpt lat="43.9509117" lon="12.1316267"><ele>557.3333333333333</ele><time>2026-04-30T10:12:05.652Z</time></trkpt><trkpt lat="43.9508617" lon="12.13153"><ele>557.0</ele><time>2026-04-30T10:12:07.654Z</time></trkpt><trkpt lat="43.95078" lon="12.1315433"><ele>558.6</ele><time>2026-04-30T10:12:09.647Z</time></trkpt><trkpt lat="43.9506683" lon="12.1316517"><ele>560.2</ele><time>2026-04-30T10:12:11.646Z</time></trkpt><trkpt lat="43.9505933" lon="12.13172"><ele>561.8</ele><time>2026-04-30T10:12:12.641Z</time></trkpt><trkpt lat="43.9505067" lon="12.1317733"><ele>563.4</ele><time>2026-04-30T10:12:13.649Z</time></trkpt><trkpt lat="43.9504117" lon="12.131805"><ele>565.0</ele><time>2026-04-30T10:12:14.644Z</time></trkpt><trkpt lat="43.9503117" lon="12.131805"><ele>565.0</ele><time>2026-04-30T10:12:15.649Z</time></trkpt><trkpt lat="43.950205" lon="12.1317933"><ele>565.0</ele><time>2026-04-30T10:12:16.654Z</time></trkpt><trkpt lat="43.9500933" lon="12.1317917"><ele>565.0</ele><time>2026-04-30T10:12:17.645Z</time></trkpt><trkpt lat="43.9499767" lon="12.1318117"><ele>565.0</ele><time>2026-04-30T10:12:18.653Z</time></trkpt><trkpt lat="43.9498633" lon="12.131845"><ele>565.6</ele><time>2026-04-30T10:12:19.655Z</time></trkpt><trkpt lat="43.9497533" lon="12.131865"><ele>566.2</ele><time>2026-04-30T10:12:20.646Z</time></trkpt><trkpt lat="43.9496467" lon="12.131855"><ele>566.8</ele><time>2026-04-30T10:12:21.644Z</time></trkpt><trkpt lat="43.9495467" lon="12.1318017"><ele>567.4</ele><time>2026-04-30T10:12:22.653Z</time></trkpt><trkpt lat="43.94946" lon="12.1317133"><ele>568.0</ele><time>2026-04-30T10:12:23.647Z</time></trkpt><trkpt lat="43.9493767" lon="12.1316167"><ele>566.4</ele><time>2026-04-30T10:12:24.649Z</time></trkpt><trkpt lat="43.94929" lon="12.1315317"><ele>564.8</ele><time>2026-04-30T10:12:25.646Z</time></trkpt><trkpt lat="43.9491867" lon="12.1314733"><ele>563.2</ele><time>2026-04-30T10:12:26.651Z</time></trkpt><trkpt lat="43.94908" lon="12.1314383"><ele>561.6</ele><time>2026-04-30T10:12:27.654Z</time></trkpt><trkpt lat="43.9489733" lon="12.13144"><ele>560.0</ele><time>2026-04-30T10:12:28.641Z</time></trkpt><trkpt lat="43.948875" lon="12.1314917"><ele>565.75</ele><time>2026-04-30T10:12:29.641Z</time></trkpt><trkpt lat="43.9487867" lon="12.1315883"><ele>571.5</ele><time>2026-04-30T10:12:30.645Z</time></trkpt><trkpt lat="43.948705" lon="12.1317383"><ele>577.25</ele><time>2026-04-30T10:12:31.647Z</time></trkpt><trkpt lat="43.948625" lon="12.1319017"><ele>583.0</ele><time>2026-04-30T10:12:32.642Z</time></trkpt><trkpt lat="43.9485433" lon="12.1320583"><ele>583.0</ele><time>2026-04-30T10:12:33.653Z</time></trkpt><trkpt lat="43.94845" lon="12.1321867"><ele>583.0</ele><time>2026-04-30T10:12:34.648Z</time></trkpt><trkpt lat="43.9483417" lon="12.1322767"><ele>583.0</ele><time>2026-04-30T10:12:35.642Z</time></trkpt><trkpt lat="43.9482217" lon="12.1323317"><ele>583.0</ele><time>2026-04-30T10:12:36.652Z</time></trkpt><trkpt lat="43.9481" lon="12.13239"><ele>586.4</ele><time>2026-04-30T10:12:37.65Z</time></trkpt><trkpt lat="43.948" lon="12.1324767"><ele>589.8</ele><time>2026-04-30T10:12:38.643Z</time></trkpt><trkpt lat="43.9479333" lon="12.132605"><ele>593.2</ele><time>2026-04-30T10:12:39.642Z</time></trkpt><trkpt lat="43.9478817" lon="12.13274"><ele>596.6</ele><time>2026-04-30T10:12:40.646Z</time></trkpt><trkpt lat="43.94784" lon="12.1328683"><ele>600.0</ele><time>2026-04-30T10:12:41.646Z</time></trkpt><trkpt lat="43.9477983" lon="12.1329867"><ele>600.0</ele><time>2026-04-30T10:12:42.643Z</time></trkpt><trkpt lat="43.947755" lon="12.1331"><ele>600.0</ele><time>2026-04-30T10:12:43.647Z</time></trkpt><trkpt lat="43.947705" lon="12.1331967"><ele>600.0</ele><time>2026-04-30T10:12:44.644Z</time></trkpt><trkpt lat="43.9476483" lon="12.1332817"><ele>600.0</ele><time>2026-04-30T10:12:45.648Z</time></trkpt><trkpt lat="43.9475867" lon="12.13335"><ele>600.0</ele><time>2026-04-30T10:12:46.65Z</time></trkpt><trkpt lat="43.9475133" lon="12.1333917"><ele>600.0</ele><time>2026-04-30T10:12:47.651Z</time></trkpt><trkpt lat="43.9474283" lon="12.1334083"><ele>600.8</ele><time>2026-04-30T10:12:48.65Z</time></trkpt><trkpt lat="43.9473283" lon="12.1334183"><ele>601.6</ele><time>2026-04-30T10:12:49.644Z</time></trkpt><trkpt lat="43.947215" lon="12.1334217"><ele>602.4</ele><time>2026-04-30T10:12:50.644Z</time></trkpt><trkpt lat="43.947105" lon="12.1334167"><ele>603.2</ele><time>2026-04-30T10:12:51.656Z</time></trkpt><trkpt lat="43.9470117" lon="12.13341"><ele>604.0</ele><time>2026-04-30T10:12:52.648Z</time></trkpt><trkpt lat="43.946935" lon="12.1334033"><ele>604.0</ele><time>2026-04-30T10:12:53.655Z</time></trkpt><trkpt lat="43.9468667" lon="12.1333983"><ele>604.0</ele><time>2026-04-30T10:12:54.651Z</time></trkpt><trkpt lat="43.9467533" lon="12.1334083"><ele>604.0</ele><time>2026-04-30T10:12:56.65Z</time></trkpt><trkpt lat="43.9466717" lon="12.1334433"><ele>604.0</ele><time>2026-04-30T10:12:58.649Z</time></trkpt><trkpt lat="43.9466133" lon="12.1335067"><ele>604.0</ele><time>2026-04-30T10:13:25.645Z</time></trkpt><trkpt lat="43.9465167" lon="12.1335667"><ele>604.0</ele><time>2026-04-30T10:13:27.658Z</time></trkpt><trkpt lat="43.9464433" lon="12.1335967"><ele>604.2</ele><time>2026-04-30T10:13:57.64Z</time></trkpt><trkpt lat="43.94636" lon="12.133605"><ele>604.4</ele><time>2026-04-30T10:13:58.646Z</time></trkpt><trkpt lat="43.94625" lon="12.1336133"><ele>604.6</ele><time>2026-04-30T10:13:59.645Z</time></trkpt><trkpt lat="43.9461617" lon="12.1336067"><ele>604.8</ele><time>2026-04-30T10:14:00.65Z</time></trkpt><trkpt lat="43.946075" lon="12.13359"><ele>605.0</ele><time>2026-04-30T10:14:01.64Z</time></trkpt><trkpt lat="43.9459933" lon="12.1335383"><ele>605.0</ele><time>2026-04-30T10:14:02.651Z</time></trkpt><trkpt lat="43.9459167" lon="12.13346"><ele>605.0</ele><time>2026-04-30T10:14:03.641Z</time></trkpt><trkpt lat="43.9458417" lon="12.1333483"><ele>605.0</ele><time>2026-04-30T10:14:04.651Z</time></trkpt><trkpt lat="43.94577" lon="12.13321"><ele>605.0</ele><time>2026-04-30T10:14:05.652Z</time></trkpt><trkpt lat="43.9457" lon="12.1330583"><ele>605.2</ele><time>2026-04-30T10:14:06.651Z</time></trkpt><trkpt lat="43.9456417" lon="12.132905"><ele>605.4</ele><time>2026-04-30T10:14:07.646Z</time></trkpt><trkpt lat="43.9455917" lon="12.1327683"><ele>605.6</ele><time>2026-04-30T10:14:08.643Z</time></trkpt><trkpt lat="43.9455517" lon="12.1326383"><ele>605.8</ele><time>2026-04-30T10:14:09.65Z</time></trkpt><trkpt lat="43.9455167" lon="12.13251"><ele>606.0</ele><time>2026-04-30T10:14:10.649Z</time></trkpt><trkpt lat="43.9454967" lon="12.13237"><ele>606.0</ele><time>2026-04-30T10:14:11.654Z</time></trkpt><trkpt lat="43.945485" lon="12.1322217"><ele>606.0</ele><time>2026-04-30T10:14:12.65Z</time></trkpt><trkpt lat="43.945485" lon="12.13209"><ele>606.0</ele><time>2026-04-30T10:14:13.649Z</time></trkpt><trkpt lat="43.9454817" lon="12.1319767"><ele>606.0</ele><time>2026-04-30T10:14:14.644Z</time></trkpt><trkpt lat="43.9454667" lon="12.1318733"><ele>606.0</ele><time>2026-04-30T10:14:15.652Z</time></trkpt><trkpt lat="43.94544" lon="12.1317717"><ele>606.0</ele><time>2026-04-30T10:14:16.644Z</time></trkpt><trkpt lat="43.9454067" lon="12.131665"><ele>607.0</ele><time>2026-04-30T10:14:17.651Z</time></trkpt><trkpt lat="43.9453717" lon="12.1315467"><ele>608.0</ele><time>2026-04-30T10:14:18.646Z</time></trkpt><trkpt lat="43.9453367" lon="12.131415"><ele>609.0</ele><time>2026-04-30T10:14:19.649Z</time></trkpt><trkpt lat="43.945305" lon="12.13128"><ele>610.0</ele><time>2026-04-30T10:14:20.644Z</time></trkpt><trkpt lat="43.9452733" lon="12.1311433"><ele>611.0</ele><time>2026-04-30T10:14:21.657Z</time></trkpt><trkpt lat="43.94524" lon="12.131005"><ele>611.0</ele><time>2026-04-30T10:14:22.65Z</time></trkpt><trkpt lat="43.9452017" lon="12.1308633"><ele>611.0</ele><time>2026-04-30T10:14:23.645Z</time></trkpt><trkpt lat="43.9451517" lon="12.1307083"><ele>611.0</ele><time>2026-04-30T10:14:24.647Z</time></trkpt><trkpt lat="43.9451017" lon="12.13055"><ele>611.0</ele><time>2026-04-30T10:14:25.651Z</time></trkpt><trkpt lat="43.9450583" lon="12.1303933"><ele>617.5</ele><time>2026-04-30T10:14:26.647Z</time></trkpt><trkpt lat="43.945025" lon="12.1302367"><ele>624.0</ele><time>2026-04-30T10:14:27.642Z</time></trkpt><trkpt lat="43.9449967" lon="12.13008"><ele>630.5</ele><time>2026-04-30T10:14:28.654Z</time></trkpt><trkpt lat="43.9449667" lon="12.12993"><ele>637.0</ele><time>2026-04-30T10:14:29.645Z</time></trkpt><trkpt lat="43.9449333" lon="12.1297933"><ele>637.6</ele><time>2026-04-30T10:14:30.644Z</time></trkpt><trkpt lat="43.944895" lon="12.12967"><ele>638.2</ele><time>2026-04-30T10:14:31.651Z</time></trkpt><trkpt lat="43.94486" lon="12.1295633"><ele>638.8</ele><time>2026-04-30T10:14:32.644Z</time></trkpt><trkpt lat="43.944825" lon="12.12948"><ele>639.4</ele><time>2026-04-30T10:14:33.647Z</time></trkpt><trkpt lat="43.944745" lon="12.1293883"><ele>640.0</ele><time>2026-04-30T10:14:35.648Z</time></trkpt><trkpt lat="43.944625" lon="12.1293233"><ele>640.0</ele><time>2026-04-30T10:14:37.642Z</time></trkpt><trkpt lat="43.9445567" lon="12.1292817"><ele>640.0</ele><time>2026-04-30T10:14:38.645Z</time></trkpt><trkpt lat="43.9444917" lon="12.1292233"><ele>640.0</ele><time>2026-04-30T10:14:39.66Z</time></trkpt><trkpt lat="43.94444" lon="12.12915"><ele>640.0</ele><time>2026-04-30T10:14:40.655Z</time></trkpt><trkpt lat="43.9444" lon="12.1290567"><ele>640.0</ele><time>2026-04-30T10:14:41.657Z</time></trkpt><trkpt lat="43.9443817" lon="12.1289367"><ele>640.0</ele><time>2026-04-30T10:14:42.649Z</time></trkpt><trkpt lat="43.9443817" lon="12.1287917"><ele>638.2</ele><time>2026-04-30T10:14:43.649Z</time></trkpt><trkpt lat="43.9443867" lon="12.1286483"><ele>636.4</ele><time>2026-04-30T10:14:44.649Z</time></trkpt><trkpt lat="43.9443967" lon="12.1285067"><ele>634.6</ele><time>2026-04-30T10:14:45.644Z</time></trkpt><trkpt lat="43.9444017" lon="12.1283633"><ele>632.8</ele><time>2026-04-30T10:14:46.654Z</time></trkpt><trkpt lat="43.9444" lon="12.12822"><ele>631.0</ele><time>2026-04-30T10:14:47.648Z</time></trkpt><trkpt lat="43.944405" lon="12.1280833"><ele>627.2</ele><time>2026-04-30T10:14:48.642Z</time></trkpt><trkpt lat="43.944415" lon="12.1279533"><ele>623.4000000000001</ele><time>2026-04-30T10:14:49.647Z</time></trkpt><trkpt lat="43.9444117" lon="12.1278117"><ele>619.6</ele><time>2026-04-30T10:14:50.648Z</time></trkpt><trkpt lat="43.9443967" lon="12.1276683"><ele>615.8000000000001</ele><time>2026-04-30T10:14:51.647Z</time></trkpt><trkpt lat="43.94436" lon="12.1275283"><ele>612.0</ele><time>2026-04-30T10:14:52.641Z</time></trkpt><trkpt lat="43.9443183" lon="12.1273983"><ele>611.6</ele><time>2026-04-30T10:14:53.655Z</time></trkpt><trkpt lat="43.9442633" lon="12.127285"><ele>611.2</ele><time>2026-04-30T10:14:54.655Z</time></trkpt><trkpt lat="43.944205" lon="12.1271867"><ele>610.8</ele><time>2026-04-30T10:14:55.647Z</time></trkpt><trkpt lat="43.94414" lon="12.1271"><ele>610.4</ele><time>2026-04-30T10:14:56.663Z</time></trkpt><trkpt lat="43.9440667" lon="12.12703"><ele>610.0</ele><time>2026-04-30T10:14:57.65Z</time></trkpt><trkpt lat="43.9439817" lon="12.1269783"><ele>610.0</ele><time>2026-04-30T10:14:58.65Z</time></trkpt><trkpt lat="43.9438883" lon="12.1269567"><ele>610.0</ele><time>2026-04-30T10:14:59.648Z</time></trkpt><trkpt lat="43.9437833" lon="12.126955"><ele>610.0</ele><time>2026-04-30T10:15:00.643Z</time></trkpt><trkpt lat="43.94368" lon="12.12697"><ele>610.0</ele><time>2026-04-30T10:15:01.645Z</time></trkpt><trkpt lat="43.9435833" lon="12.1270033"><ele>610.0</ele><time>2026-04-30T10:15:02.658Z</time></trkpt><trkpt lat="43.94349" lon="12.12705"><ele>610.0</ele><time>2026-04-30T10:15:03.646Z</time></trkpt><trkpt lat="43.9434033" lon="12.127115"><ele>610.0</ele><time>2026-04-30T10:15:04.643Z</time></trkpt><trkpt lat="43.9433183" lon="12.1271917"><ele>610.0</ele><time>2026-04-30T10:15:05.645Z</time></trkpt><trkpt lat="43.9432317" lon="12.127265"><ele>610.0</ele><time>2026-04-30T10:15:06.644Z</time></trkpt><trkpt lat="43.9431317" lon="12.1273233"><ele>610.0</ele><time>2026-04-30T10:15:07.645Z</time></trkpt><trkpt lat="43.9430267" lon="12.1273483"><ele>608.0</ele><time>2026-04-30T10:15:08.662Z</time></trkpt><trkpt lat="43.9429183" lon="12.1273517"><ele>606.0</ele><time>2026-04-30T10:15:09.646Z</time></trkpt><trkpt lat="43.9428067" lon="12.1273467"><ele>604.0</ele><time>2026-04-30T10:15:10.643Z</time></trkpt><trkpt lat="43.942705" lon="12.1273383"><ele>602.0</ele><time>2026-04-30T10:15:11.647Z</time></trkpt><trkpt lat="43.9426083" lon="12.1273033"><ele>600.0</ele><time>2026-04-30T10:15:12.655Z</time></trkpt><trkpt lat="43.942515" lon="12.1272483"><ele>597.5</ele><time>2026-04-30T10:15:13.654Z</time></trkpt><trkpt lat="43.9424217" lon="12.127165"><ele>595.0</ele><time>2026-04-30T10:15:14.646Z</time></trkpt><trkpt lat="43.9423333" lon="12.1270617"><ele>592.5</ele><time>2026-04-30T10:15:15.649Z</time></trkpt><trkpt lat="43.9422517" lon="12.1269467"><ele>590.0</ele><time>2026-04-30T10:15:16.646Z</time></trkpt><trkpt lat="43.94217" lon="12.1268183"><ele>590.0</ele><time>2026-04-30T10:15:17.646Z</time></trkpt><trkpt lat="43.9420883" lon="12.12668"><ele>590.0</ele><time>2026-04-30T10:15:18.644Z</time></trkpt><trkpt lat="43.94201" lon="12.1265383"><ele>590.0</ele><time>2026-04-30T10:15:19.648Z</time></trkpt><trkpt lat="43.9419383" lon="12.1264"><ele>590.0</ele><time>2026-04-30T10:15:20.654Z</time></trkpt><trkpt lat="43.94187" lon="12.1262717"><ele>588.6</ele><time>2026-04-30T10:15:21.646Z</time></trkpt><trkpt lat="43.9418117" lon="12.1261467"><ele>587.2</ele><time>2026-04-30T10:15:22.651Z</time></trkpt><trkpt lat="43.9417633" lon="12.1260283"><ele>585.8</ele><time>2026-04-30T10:15:23.639Z</time></trkpt><trkpt lat="43.94173" lon="12.12591"><ele>584.4</ele><time>2026-04-30T10:15:24.639Z</time></trkpt><trkpt lat="43.9417033" lon="12.125805"><ele>583.0</ele><time>2026-04-30T10:15:25.653Z</time></trkpt><trkpt lat="43.94167" lon="12.1257133"><ele>583.0</ele><time>2026-04-30T10:15:26.652Z</time></trkpt><trkpt lat="43.9416217" lon="12.12565"><ele>583.0</ele><time>2026-04-30T10:15:27.647Z</time></trkpt><trkpt lat="43.94155" lon="12.125615"><ele>583.0</ele><time>2026-04-30T10:15:28.653Z</time></trkpt><trkpt lat="43.94147" lon="12.1256183"><ele>583.0</ele><time>2026-04-30T10:15:29.645Z</time></trkpt><trkpt lat="43.941385" lon="12.1256917"><ele>583.0</ele><time>2026-04-30T10:15:30.654Z</time></trkpt><trkpt lat="43.9412883" lon="12.1257983"><ele>583.0</ele><time>2026-04-30T10:15:31.643Z</time></trkpt><trkpt lat="43.94119" lon="12.125905"><ele>583.0</ele><time>2026-04-30T10:15:32.65Z</time></trkpt><trkpt lat="43.9411" lon="12.1260133"><ele>583.0</ele><time>2026-04-30T10:15:33.656Z</time></trkpt><trkpt lat="43.9410183" lon="12.1261283"><ele>583.0</ele><time>2026-04-30T10:15:34.637Z</time></trkpt><trkpt lat="43.94095" lon="12.1262517"><ele>583.0</ele><time>2026-04-30T10:15:35.651Z</time></trkpt><trkpt lat="43.940885" lon="12.1263567"><ele>583.0</ele><time>2026-04-30T10:15:36.646Z</time></trkpt><trkpt lat="43.940825" lon="12.1264617"><ele>583.4</ele><time>2026-04-30T10:15:37.648Z</time></trkpt><trkpt lat="43.940785" lon="12.1265733"><ele>583.8</ele><time>2026-04-30T10:15:38.642Z</time></trkpt><trkpt lat="43.94075" lon="12.12671"><ele>584.2</ele><time>2026-04-30T10:15:39.649Z</time></trkpt><trkpt lat="43.9407267" lon="12.1268483"><ele>584.6</ele><time>2026-04-30T10:15:40.641Z</time></trkpt><trkpt lat="43.9406983" lon="12.126975"><ele>585.0</ele><time>2026-04-30T10:15:41.643Z</time></trkpt><trkpt lat="43.9406633" lon="12.1270933"><ele>585.0</ele><time>2026-04-30T10:15:42.653Z</time></trkpt><trkpt lat="43.940615" lon="12.1271867"><ele>585.0</ele><time>2026-04-30T10:15:43.664Z</time></trkpt><trkpt lat="43.940545" lon="12.1272533"><ele>585.0</ele><time>2026-04-30T10:15:44.649Z</time></trkpt><trkpt lat="43.9404483" lon="12.1272767"><ele>585.0</ele><time>2026-04-30T10:15:45.661Z</time></trkpt><trkpt lat="43.9403483" lon="12.12729"><ele>585.0</ele><time>2026-04-30T10:15:46.642Z</time></trkpt><trkpt lat="43.940245" lon="12.1272567"><ele>585.0</ele><time>2026-04-30T10:15:47.643Z</time></trkpt><trkpt lat="43.9401467" lon="12.127205"><ele>585.0</ele><time>2026-04-30T10:15:48.648Z</time></trkpt><trkpt lat="43.9400567" lon="12.1271367"><ele>585.0</ele><time>2026-04-30T10:15:49.647Z</time></trkpt><trkpt lat="43.9399717" lon="12.1270333"><ele>585.0</ele><time>2026-04-30T10:15:50.644Z</time></trkpt><trkpt lat="43.93989" lon="12.1269067"><ele>585.0</ele><time>2026-04-30T10:15:51.652Z</time></trkpt><trkpt lat="43.939815" lon="12.126775"><ele>581.5</ele><time>2026-04-30T10:15:52.654Z</time></trkpt><trkpt lat="43.9397533" lon="12.12662"><ele>578.0</ele><time>2026-04-30T10:15:53.641Z</time></trkpt><trkpt lat="43.9397067" lon="12.126465"><ele>574.5</ele><time>2026-04-30T10:15:54.646Z</time></trkpt><trkpt lat="43.9396683" lon="12.1263183"><ele>571.0</ele><time>2026-04-30T10:15:55.647Z</time></trkpt><trkpt lat="43.9396267" lon="12.1261933"><ele>568.2</ele><time>2026-04-30T10:15:56.646Z</time></trkpt><trkpt lat="43.9395783" lon="12.1260883"><ele>565.4000000000001</ele><time>2026-04-30T10:15:57.651Z</time></trkpt><trkpt lat="43.9395183" lon="12.1260017"><ele>562.6</ele><time>2026-04-30T10:15:58.655Z</time></trkpt><trkpt lat="43.9394467" lon="12.1259233"><ele>559.8000000000001</ele><time>2026-04-30T10:15:59.637Z</time></trkpt><trkpt lat="43.9393367" lon="12.1258833"><ele>557.0</ele><time>2026-04-30T10:16:00.64Z</time></trkpt><trkpt lat="43.93922" lon="12.12585"><ele>561.2</ele><time>2026-04-30T10:16:01.649Z</time></trkpt><trkpt lat="43.939115" lon="12.1258267"><ele>565.4000000000001</ele><time>2026-04-30T10:16:02.646Z</time></trkpt><trkpt lat="43.9390117" lon="12.125825"><ele>569.5999999999999</ele><time>2026-04-30T10:16:03.645Z</time></trkpt><trkpt lat="43.9389133" lon="12.1258433"><ele>573.8</ele><time>2026-04-30T10:16:04.652Z</time></trkpt><trkpt lat="43.9388267" lon="12.1258633"><ele>578.0</ele><time>2026-04-30T10:16:05.654Z</time></trkpt><trkpt lat="43.9387383" lon="12.12586"><ele>578.0</ele><time>2026-04-30T10:16:06.646Z</time></trkpt><trkpt lat="43.9386433" lon="12.1258233"><ele>578.0</ele><time>2026-04-30T10:16:07.651Z</time></trkpt><trkpt lat="43.9385333" lon="12.125755"><ele>578.0</ele><time>2026-04-30T10:16:08.648Z</time></trkpt><trkpt lat="43.93842" lon="12.1256583"><ele>578.0</ele><time>2026-04-30T10:16:09.647Z</time></trkpt><trkpt lat="43.9383133" lon="12.125555"><ele>579.0</ele><time>2026-04-30T10:16:10.649Z</time></trkpt><trkpt lat="43.9382133" lon="12.1254617"><ele>580.0</ele><time>2026-04-30T10:16:11.643Z</time></trkpt><trkpt lat="43.9381133" lon="12.1253983"><ele>581.0</ele><time>2026-04-30T10:16:12.645Z</time></trkpt><trkpt lat="43.9380133" lon="12.1253417"><ele>582.0</ele><time>2026-04-30T10:16:13.652Z</time></trkpt><trkpt lat="43.937925" lon="12.125285"><ele>583.0</ele><time>2026-04-30T10:16:14.644Z</time></trkpt><trkpt lat="43.9378483" lon="12.1252133"><ele>583.0</ele><time>2026-04-30T10:16:15.649Z</time></trkpt><trkpt lat="43.9377833" lon="12.1251283"><ele>583.0</ele><time>2026-04-30T10:16:16.647Z</time></trkpt><trkpt lat="43.9377367" lon="12.1250283"><ele>583.0</ele><time>2026-04-30T10:16:17.647Z</time></trkpt><trkpt lat="43.9377083" lon="12.124915"><ele>583.0</ele><time>2026-04-30T10:16:18.648Z</time></trkpt><trkpt lat="43.9376983" lon="12.124785"><ele>583.0</ele><time>2026-04-30T10:16:19.648Z</time></trkpt><trkpt lat="43.9376983" lon="12.1246167"><ele>582.0</ele><time>2026-04-30T10:16:20.648Z</time></trkpt><trkpt lat="43.93769" lon="12.1244367"><ele>581.0</ele><time>2026-04-30T10:16:21.646Z</time></trkpt><trkpt lat="43.9376617" lon="12.124255"><ele>580.0</ele><time>2026-04-30T10:16:22.642Z</time></trkpt><trkpt lat="43.9376267" lon="12.1240783"><ele>579.0</ele><time>2026-04-30T10:16:23.642Z</time></trkpt><trkpt lat="43.9375867" lon="12.1239183"><ele>573.4</ele><time>2026-04-30T10:16:24.643Z</time></trkpt><trkpt lat="43.9375383" lon="12.1237667"><ele>567.8</ele><time>2026-04-30T10:16:25.643Z</time></trkpt><trkpt lat="43.937495" lon="12.1236383"><ele>562.2</ele><time>2026-04-30T10:16:26.654Z</time></trkpt><trkpt lat="43.9374417" lon="12.123535"><ele>556.6</ele><time>2026-04-30T10:16:27.651Z</time></trkpt><trkpt lat="43.9373833" lon="12.1234533"><ele>551.0</ele><time>2026-04-30T10:16:28.64Z</time></trkpt><trkpt lat="43.9373267" lon="12.12338"><ele>551.0</ele><time>2026-04-30T10:16:29.64Z</time></trkpt><trkpt lat="43.9372733" lon="12.1233167"><ele>551.0</ele><time>2026-04-30T10:16:30.642Z</time></trkpt><trkpt lat="43.9372" lon="12.1231867"><ele>551.0</ele><time>2026-04-30T10:16:32.65Z</time></trkpt><trkpt lat="43.9371683" lon="12.1230267"><ele>551.0</ele><time>2026-04-30T10:16:34.654Z</time></trkpt><trkpt lat="43.93715" lon="12.1229333"><ele>551.0</ele><time>2026-04-30T10:16:35.645Z</time></trkpt><trkpt lat="43.9371317" lon="12.1228267"><ele>550.6</ele><time>2026-04-30T10:16:36.648Z</time></trkpt><trkpt lat="43.937105" lon="12.1227033"><ele>550.2</ele><time>2026-04-30T10:16:37.656Z</time></trkpt><trkpt lat="43.937075" lon="12.122575"><ele>549.8</ele><time>2026-04-30T10:16:38.647Z</time></trkpt><trkpt lat="43.9370367" lon="12.12245"><ele>549.4</ele><time>2026-04-30T10:16:39.646Z</time></trkpt><trkpt lat="43.9369933" lon="12.122325"><ele>549.0</ele><time>2026-04-30T10:16:40.641Z</time></trkpt><trkpt lat="43.9369233" lon="12.122195"><ele>549.6666666666666</ele><time>2026-04-30T10:16:41.648Z</time></trkpt><trkpt lat="43.9368283" lon="12.122045"><ele>550.3333333333333</ele><time>2026-04-30T10:16:42.647Z</time></trkpt><trkpt lat="43.9367217" lon="12.1218833"><ele>551.0</ele><time>2026-04-30T10:16:43.648Z</time></trkpt><trkpt lat="43.9366167" lon="12.1217083"><ele>556.25</ele><time>2026-04-30T10:16:44.647Z</time></trkpt><trkpt lat="43.9365183" lon="12.1215333"><ele>561.5</ele><time>2026-04-30T10:16:45.639Z</time></trkpt><trkpt lat="43.9364417" lon="12.12138"><ele>566.75</ele><time>2026-04-30T10:16:46.65Z</time></trkpt><trkpt lat="43.9363583" lon="12.12126"><ele>572.0</ele><time>2026-04-30T10:16:47.644Z</time></trkpt><trkpt lat="43.9362617" lon="12.121165"><ele>572.0</ele><time>2026-04-30T10:16:48.645Z</time></trkpt><trkpt lat="43.9361417" lon="12.1210917"><ele>572.0</ele><time>2026-04-30T10:16:49.643Z</time></trkpt><trkpt lat="43.936005" lon="12.1210417"><ele>572.0</ele><time>2026-04-30T10:16:50.653Z</time></trkpt><trkpt lat="43.935875" lon="12.1209967"><ele>572.0</ele><time>2026-04-30T10:16:51.643Z</time></trkpt><trkpt lat="43.935755" lon="12.1209583"><ele>571.0</ele><time>2026-04-30T10:16:52.647Z</time></trkpt><trkpt lat="43.9356383" lon="12.1209117"><ele>570.0</ele><time>2026-04-30T10:16:53.646Z</time></trkpt><trkpt lat="43.9355317" lon="12.12088"><ele>569.0</ele><time>2026-04-30T10:16:54.647Z</time></trkpt><trkpt lat="43.9354333" lon="12.1208733"><ele>568.0</ele><time>2026-04-30T10:16:55.643Z</time></trkpt><trkpt lat="43.935345" lon="12.1208833"><ele>567.0</ele><time>2026-04-30T10:16:56.649Z</time></trkpt><trkpt lat="43.9352617" lon="12.1208967"><ele>567.0</ele><time>2026-04-30T10:16:57.647Z</time></trkpt><trkpt lat="43.9351833" lon="12.12089"><ele>567.0</ele><time>2026-04-30T10:16:58.64Z</time></trkpt><trkpt lat="43.9351317" lon="12.1208333"><ele>567.0</ele><time>2026-04-30T10:16:59.643Z</time></trkpt><trkpt lat="43.9351067" lon="12.1207417"><ele>567.0</ele><time>2026-04-30T10:17:00.658Z</time></trkpt><trkpt lat="43.9350967" lon="12.1206367"><ele>567.0</ele><time>2026-04-30T10:17:01.657Z</time></trkpt><trkpt lat="43.9351183" lon="12.1205217"><ele>567.0</ele><time>2026-04-30T10:17:02.645Z</time></trkpt><trkpt lat="43.93515" lon="12.1204117"><ele>565.0</ele><time>2026-04-30T10:17:03.649Z</time></trkpt><trkpt lat="43.9352033" lon="12.1203133"><ele>563.0</ele><time>2026-04-30T10:17:04.643Z</time></trkpt><trkpt lat="43.9352883" lon="12.1202283"><ele>561.0</ele><time>2026-04-30T10:17:05.651Z</time></trkpt><trkpt lat="43.935395" lon="12.1201633"><ele>559.0</ele><time>2026-04-30T10:17:06.645Z</time></trkpt><trkpt lat="43.93549" lon="12.1200967"><ele>557.0</ele><time>2026-04-30T10:17:07.647Z</time></trkpt><trkpt lat="43.9355783" lon="12.12005"><ele>557.0</ele><time>2026-04-30T10:17:08.652Z</time></trkpt><trkpt lat="43.9356617" lon="12.1200233"><ele>557.0</ele><time>2026-04-30T10:17:09.654Z</time></trkpt><trkpt lat="43.9357483" lon="12.120015"><ele>557.0</ele><time>2026-04-30T10:17:10.648Z</time></trkpt><trkpt lat="43.935825" lon="12.1200183"><ele>557.0</ele><time>2026-04-30T10:17:11.644Z</time></trkpt><trkpt lat="43.9358917" lon="12.1200017"><ele>557.0</ele><time>2026-04-30T10:17:12.644Z</time></trkpt><trkpt lat="43.9359483" lon="12.11996"><ele>557.0</ele><time>2026-04-30T10:17:13.652Z</time></trkpt><trkpt lat="43.9360433" lon="12.1198933"><ele>556.6</ele><time>2026-04-30T10:17:15.65Z</time></trkpt><trkpt lat="43.9361167" lon="12.1198433"><ele>556.2</ele><time>2026-04-30T10:17:17.649Z</time></trkpt><trkpt lat="43.9362083" lon="12.1198083"><ele>555.8</ele><time>2026-04-30T10:18:21.645Z</time></trkpt><trkpt lat="43.9362817" lon="12.1197483"><ele>555.4</ele><time>2026-04-30T10:18:22.64Z</time></trkpt><trkpt lat="43.9363917" lon="12.1196467"><ele>555.0</ele><time>2026-04-30T10:18:23.651Z</time></trkpt><trkpt lat="43.93649" lon="12.1195467"><ele>555.0</ele><time>2026-04-30T10:18:24.644Z</time></trkpt><trkpt lat="43.9365817" lon="12.119435"><ele>555.0</ele><time>2026-04-30T10:18:25.651Z</time></trkpt><trkpt lat="43.9366617" lon="12.11931"><ele>555.0</ele><time>2026-04-30T10:18:26.644Z</time></trkpt><trkpt lat="43.936735" lon="12.1191617"><ele>555.0</ele><time>2026-04-30T10:18:27.652Z</time></trkpt><trkpt lat="43.9367983" lon="12.1190117"><ele>555.0</ele><time>2026-04-30T10:18:28.645Z</time></trkpt><trkpt lat="43.936845" lon="12.11887"><ele>555.0</ele><time>2026-04-30T10:18:29.649Z</time></trkpt><trkpt lat="43.936885" lon="12.11874"><ele>555.0</ele><time>2026-04-30T10:18:30.648Z</time></trkpt><trkpt lat="43.936915" lon="12.1186217"><ele>555.0</ele><time>2026-04-30T10:18:31.642Z</time></trkpt><trkpt lat="43.93694" lon="12.1185167"><ele>555.0</ele><time>2026-04-30T10:18:32.649Z</time></trkpt><trkpt lat="43.936975" lon="12.1184333"><ele>555.0</ele><time>2026-04-30T10:18:33.645Z</time></trkpt><trkpt lat="43.93702" lon="12.1183617"><ele>555.0</ele><time>2026-04-30T10:18:34.649Z</time></trkpt><trkpt lat="43.93711" lon="12.1183567"><ele>555.0</ele><time>2026-04-30T10:18:35.645Z</time></trkpt><trkpt lat="43.9371983" lon="12.11836"><ele>555.0</ele><time>2026-04-30T10:18:36.643Z</time></trkpt><trkpt lat="43.9372933" lon="12.11836"><ele>555.0</ele><time>2026-04-30T10:18:37.648Z</time></trkpt><trkpt lat="43.9373833" lon="12.1183367"><ele>555.0</ele><time>2026-04-30T10:18:38.644Z</time></trkpt><trkpt lat="43.93747" lon="12.1182833"><ele>554.0</ele><time>2026-04-30T10:18:39.648Z</time></trkpt><trkpt lat="43.937545" lon="12.1181883"><ele>553.0</ele><time>2026-04-30T10:18:40.645Z</time></trkpt><trkpt lat="43.937605" lon="12.1180733"><ele>552.0</ele><time>2026-04-30T10:18:41.642Z</time></trkpt><trkpt lat="43.9376467" lon="12.1179617"><ele>551.0</ele><time>2026-04-30T10:18:42.65Z</time></trkpt><trkpt lat="43.9376767" lon="12.1178483"><ele>550.0</ele><time>2026-04-30T10:18:43.648Z</time></trkpt><trkpt lat="43.9377" lon="12.1177333"><ele>550.0</ele><time>2026-04-30T10:18:44.646Z</time></trkpt><trkpt lat="43.9377167" lon="12.11762"><ele>550.0</ele><time>2026-04-30T10:18:45.646Z</time></trkpt><trkpt lat="43.9377367" lon="12.1175167"><ele>550.0</ele><time>2026-04-30T10:18:46.649Z</time></trkpt><trkpt lat="43.9377717" lon="12.117425"><ele>550.0</ele><time>2026-04-30T10:18:47.648Z</time></trkpt><trkpt lat="43.9378233" lon="12.117355"><ele>550.0</ele><time>2026-04-30T10:18:48.645Z</time></trkpt><trkpt lat="43.9379033" lon="12.117305"><ele>550.0</ele><time>2026-04-30T10:18:49.642Z</time></trkpt><trkpt lat="43.9379983" lon="12.1172817"><ele>547.8</ele><time>2026-04-30T10:18:50.645Z</time></trkpt><trkpt lat="43.9380917" lon="12.1172583"><ele>545.6</ele><time>2026-04-30T10:18:51.647Z</time></trkpt><trkpt lat="43.9381817" lon="12.1172233"><ele>543.4</ele><time>2026-04-30T10:18:52.642Z</time></trkpt><trkpt lat="43.9382667" lon="12.1171683"><ele>541.2</ele><time>2026-04-30T10:18:53.644Z</time></trkpt><trkpt lat="43.9383333" lon="12.117085"><ele>539.0</ele><time>2026-04-30T10:18:54.644Z</time></trkpt><trkpt lat="43.9383883" lon="12.1169583"><ele>539.0</ele><time>2026-04-30T10:18:55.642Z</time></trkpt><trkpt lat="43.9384333" lon="12.1168333"><ele>539.0</ele><time>2026-04-30T10:18:56.643Z</time></trkpt><trkpt lat="43.9384617" lon="12.1166917"><ele>539.0</ele><time>2026-04-30T10:18:57.642Z</time></trkpt><trkpt lat="43.9384883" lon="12.1165533"><ele>539.0</ele><time>2026-04-30T10:18:58.653Z</time></trkpt><trkpt lat="43.9385033" lon="12.1164133"><ele>539.0</ele><time>2026-04-30T10:18:59.651Z</time></trkpt><trkpt lat="43.9385117" lon="12.1162683"><ele>538.4</ele><time>2026-04-30T10:19:00.644Z</time></trkpt><trkpt lat="43.9385217" lon="12.1161167"><ele>537.8</ele><time>2026-04-30T10:19:01.659Z</time></trkpt><trkpt lat="43.9385267" lon="12.1159617"><ele>537.2</ele><time>2026-04-30T10:19:02.647Z</time></trkpt><trkpt lat="43.9385433" lon="12.11581"><ele>536.6</ele><time>2026-04-30T10:19:03.651Z</time></trkpt><trkpt lat="43.9385583" lon="12.1156567"><ele>536.0</ele><time>2026-04-30T10:19:04.652Z</time></trkpt><trkpt lat="43.9385783" lon="12.1155083"><ele>536.0</ele><time>2026-04-30T10:19:05.647Z</time></trkpt><trkpt lat="43.9386133" lon="12.1153617"><ele>536.0</ele><time>2026-04-30T10:19:06.648Z</time></trkpt><trkpt lat="43.93865" lon="12.1152183"><ele>536.0</ele><time>2026-04-30T10:19:07.645Z</time></trkpt><trkpt lat="43.9386833" lon="12.1150683"><ele>536.0</ele><time>2026-04-30T10:19:08.649Z</time></trkpt><trkpt lat="43.938715" lon="12.1149317"><ele>536.0</ele><time>2026-04-30T10:19:09.653Z</time></trkpt><trkpt lat="43.9387383" lon="12.1147933"><ele>540.0</ele><time>2026-04-30T10:19:10.651Z</time></trkpt><trkpt lat="43.93875" lon="12.11464"><ele>544.0</ele><time>2026-04-30T10:19:11.647Z</time></trkpt><trkpt lat="43.9387583" lon="12.1144767"><ele>548.0</ele><time>2026-04-30T10:19:12.649Z</time></trkpt><trkpt lat="43.93876" lon="12.1143067"><ele>552.0</ele><time>2026-04-30T10:19:13.647Z</time></trkpt><trkpt lat="43.9387667" lon="12.1141383"><ele>550.8000000000001</ele><time>2026-04-30T10:19:14.65Z</time></trkpt><trkpt lat="43.9387733" lon="12.1139883"><ele>549.6</ele><time>2026-04-30T10:19:15.65Z</time></trkpt><trkpt lat="43.93879" lon="12.1138533"><ele>548.4000000000001</ele><time>2026-04-30T10:19:16.649Z</time></trkpt><trkpt lat="43.9388233" lon="12.1137283"><ele>547.2</ele><time>2026-04-30T10:19:17.655Z</time></trkpt><trkpt lat="43.9388767" lon="12.1136183"><ele>546.0</ele><time>2026-04-30T10:19:18.646Z</time></trkpt><trkpt lat="43.9389467" lon="12.1135183"><ele>546.0</ele><time>2026-04-30T10:19:19.649Z</time></trkpt><trkpt lat="43.9390433" lon="12.1134283"><ele>546.0</ele><time>2026-04-30T10:19:20.651Z</time></trkpt><trkpt lat="43.9391567" lon="12.1133433"><ele>546.0</ele><time>2026-04-30T10:19:21.646Z</time></trkpt><trkpt lat="43.9392717" lon="12.1132517"><ele>546.0</ele><time>2026-04-30T10:19:22.648Z</time></trkpt><trkpt lat="43.9393733" lon="12.1131667"><ele>543.0</ele><time>2026-04-30T10:19:23.643Z</time></trkpt><trkpt lat="43.939465" lon="12.11306"><ele>540.0</ele><time>2026-04-30T10:19:24.664Z</time></trkpt><trkpt lat="43.9395467" lon="12.1129233"><ele>537.0</ele><time>2026-04-30T10:19:25.644Z</time></trkpt><trkpt lat="43.939615" lon="12.11277"><ele>534.0</ele><time>2026-04-30T10:19:26.647Z</time></trkpt><trkpt lat="43.9396683" lon="12.1125917"><ele>534.25</ele><time>2026-04-30T10:19:27.648Z</time></trkpt><trkpt lat="43.9397167" lon="12.112405"><ele>534.5</ele><time>2026-04-30T10:19:28.648Z</time></trkpt><trkpt lat="43.939765" lon="12.1122217"><ele>534.75</ele><time>2026-04-30T10:19:29.647Z</time></trkpt><trkpt lat="43.9398133" lon="12.11204"><ele>535.0</ele><time>2026-04-30T10:19:30.645Z</time></trkpt><trkpt lat="43.939865" lon="12.1118567"><ele>535.0</ele><time>2026-04-30T10:19:31.648Z</time></trkpt><trkpt lat="43.9399167" lon="12.11167"><ele>535.0</ele><time>2026-04-30T10:19:32.646Z</time></trkpt><trkpt lat="43.939965" lon="12.11149"><ele>535.0</ele><time>2026-04-30T10:19:33.656Z</time></trkpt><trkpt lat="43.9400083" lon="12.111325"><ele>535.0</ele><time>2026-04-30T10:19:34.651Z</time></trkpt><trkpt lat="43.9400417" lon="12.11116"><ele>533.5</ele><time>2026-04-30T10:19:35.647Z</time></trkpt><trkpt lat="43.9400633" lon="12.1109933"><ele>532.0</ele><time>2026-04-30T10:19:36.649Z</time></trkpt><trkpt lat="43.9400767" lon="12.1108283"><ele>530.5</ele><time>2026-04-30T10:19:37.646Z</time></trkpt><trkpt lat="43.940085" lon="12.1106783"><ele>529.0</ele><time>2026-04-30T10:19:38.65Z</time></trkpt><trkpt lat="43.9400883" lon="12.1105383"><ele>532.2</ele><time>2026-04-30T10:19:39.653Z</time></trkpt><trkpt lat="43.940105" lon="12.110415"><ele>535.4</ele><time>2026-04-30T10:19:40.638Z</time></trkpt><trkpt lat="43.9401617" lon="12.1103033"><ele>538.6</ele><time>2026-04-30T10:19:41.644Z</time></trkpt><trkpt lat="43.9402367" lon="12.110205"><ele>541.8</ele><time>2026-04-30T10:19:42.647Z</time></trkpt><trkpt lat="43.94032" lon="12.11009"><ele>545.0</ele><time>2026-04-30T10:19:43.643Z</time></trkpt><trkpt lat="43.940395" lon="12.10997"><ele>547.4</ele><time>2026-04-30T10:19:44.653Z</time></trkpt><trkpt lat="43.9404517" lon="12.1098367"><ele>549.8</ele><time>2026-04-30T10:19:45.651Z</time></trkpt><trkpt lat="43.940485" lon="12.109695"><ele>552.2</ele><time>2026-04-30T10:19:46.643Z</time></trkpt><trkpt lat="43.940495" lon="12.1095617"><ele>554.6</ele><time>2026-04-30T10:19:47.646Z</time></trkpt><trkpt lat="43.9404783" lon="12.10941"><ele>557.0</ele><time>2026-04-30T10:19:48.653Z</time></trkpt><trkpt lat="43.9404483" lon="12.1092583"><ele>557.0</ele><time>2026-04-30T10:19:49.655Z</time></trkpt><trkpt lat="43.94042" lon="12.1091083"><ele>557.0</ele><time>2026-04-30T10:19:50.645Z</time></trkpt><trkpt lat="43.9404117" lon="12.10895"><ele>557.0</ele><time>2026-04-30T10:19:51.654Z</time></trkpt><trkpt lat="43.94043" lon="12.1087933"><ele>557.0</ele><time>2026-04-30T10:19:52.643Z</time></trkpt><trkpt lat="43.94046" lon="12.1086517"><ele>557.0</ele><time>2026-04-30T10:19:53.647Z</time></trkpt><trkpt lat="43.9404933" lon="12.1085233"><ele>556.2</ele><time>2026-04-30T10:19:54.649Z</time></trkpt><trkpt lat="43.9405167" lon="12.1084067"><ele>555.4000000000001</ele><time>2026-04-30T10:19:55.648Z</time></trkpt><trkpt lat="43.9405233" lon="12.1082933"><ele>554.5999999999999</ele><time>2026-04-30T10:19:56.645Z</time></trkpt><trkpt lat="43.9404767" lon="12.1081633"><ele>553.8</ele><time>2026-04-30T10:19:57.645Z</time></trkpt><trkpt lat="43.9404133" lon="12.1080217"><ele>553.0</ele><time>2026-04-30T10:19:58.65Z</time></trkpt><trkpt lat="43.940345" lon="12.1078817"><ele>555.0</ele><time>2026-04-30T10:19:59.642Z</time></trkpt><trkpt lat="43.9402883" lon="12.1077533"><ele>557.0</ele><time>2026-04-30T10:20:00.66Z</time></trkpt><trkpt lat="43.94025" lon="12.107635"><ele>559.0</ele><time>2026-04-30T10:20:01.639Z</time></trkpt><trkpt lat="43.940235" lon="12.107505"><ele>561.0</ele><time>2026-04-30T10:20:02.651Z</time></trkpt><trkpt lat="43.9402267" lon="12.107365"><ele>563.0</ele><time>2026-04-30T10:20:03.647Z</time></trkpt><trkpt lat="43.94021" lon="12.1072217"><ele>564.8</ele><time>2026-04-30T10:20:04.647Z</time></trkpt><trkpt lat="43.9401817" lon="12.107085"><ele>566.5999999999999</ele><time>2026-04-30T10:20:05.64Z</time></trkpt><trkpt lat="43.9401733" lon="12.1069433"><ele>568.4000000000001</ele><time>2026-04-30T10:20:06.646Z</time></trkpt><trkpt lat="43.9401767" lon="12.1068017"><ele>570.2</ele><time>2026-04-30T10:20:07.653Z</time></trkpt><trkpt lat="43.940165" lon="12.1066767"><ele>572.0</ele><time>2026-04-30T10:20:08.641Z</time></trkpt><trkpt lat="43.940145" lon="12.1065633"><ele>572.0</ele><time>2026-04-30T10:20:09.654Z</time></trkpt><trkpt lat="43.940105" lon="12.1064633"><ele>572.0</ele><time>2026-04-30T10:20:10.646Z</time></trkpt><trkpt lat="43.9400817" lon="12.10637"><ele>572.0</ele><time>2026-04-30T10:20:11.647Z</time></trkpt><trkpt lat="43.9400733" lon="12.10628"><ele>572.0</ele><time>2026-04-30T10:20:12.645Z</time></trkpt><trkpt lat="43.9400867" lon="12.1061667"><ele>572.0</ele><time>2026-04-30T10:20:13.646Z</time></trkpt><trkpt lat="43.9401133" lon="12.10603"><ele>572.0</ele><time>2026-04-30T10:20:14.639Z</time></trkpt><trkpt lat="43.940165" lon="12.1058933"><ele>572.0</ele><time>2026-04-30T10:20:15.646Z</time></trkpt><trkpt lat="43.940235" lon="12.10576"><ele>572.0</ele><time>2026-04-30T10:20:16.657Z</time></trkpt><trkpt lat="43.9403017" lon="12.105635"><ele>572.0</ele><time>2026-04-30T10:20:17.647Z</time></trkpt><trkpt lat="43.9403533" lon="12.1055183"><ele>572.0</ele><time>2026-04-30T10:20:18.66Z</time></trkpt><trkpt lat="43.9403867" lon="12.105385"><ele>572.0</ele><time>2026-04-30T10:20:19.641Z</time></trkpt><trkpt lat="43.94041" lon="12.10525"><ele>572.2</ele><time>2026-04-30T10:20:20.646Z</time></trkpt><trkpt lat="43.9404233" lon="12.105115"><ele>572.4000000000001</ele><time>2026-04-30T10:20:21.648Z</time></trkpt><trkpt lat="43.9404217" lon="12.1049717"><ele>572.5999999999999</ele><time>2026-04-30T10:20:22.644Z</time></trkpt><trkpt lat="43.94041" lon="12.1048167"><ele>572.8</ele><time>2026-04-30T10:20:23.652Z</time></trkpt><trkpt lat="43.9403967" lon="12.1046533"><ele>573.0</ele><time>2026-04-30T10:20:24.646Z</time></trkpt><trkpt lat="43.9403817" lon="12.10449"><ele>573.0</ele><time>2026-04-30T10:20:25.645Z</time></trkpt><trkpt lat="43.9403583" lon="12.1043383"><ele>573.0</ele><time>2026-04-30T10:20:26.647Z</time></trkpt><trkpt lat="43.940315" lon="12.104185"><ele>573.0</ele><time>2026-04-30T10:20:27.647Z</time></trkpt><trkpt lat="43.9402583" lon="12.1040233"><ele>573.0</ele><time>2026-04-30T10:20:28.645Z</time></trkpt><trkpt lat="43.9402133" lon="12.1038733"><ele>575.1999999999999</ele><time>2026-04-30T10:20:29.647Z</time></trkpt><trkpt lat="43.9401717" lon="12.1037467"><ele>577.4</ele><time>2026-04-30T10:20:30.645Z</time></trkpt><trkpt lat="43.9401217" lon="12.1036383"><ele>579.5999999999999</ele><time>2026-04-30T10:20:31.65Z</time></trkpt><trkpt lat="43.94005" lon="12.1035483"><ele>581.8</ele><time>2026-04-30T10:20:32.646Z</time></trkpt><trkpt lat="43.9399683" lon="12.1034733"><ele>584.0</ele><time>2026-04-30T10:20:33.644Z</time></trkpt><trkpt lat="43.9398983" lon="12.1034083"><ele>584.0</ele><time>2026-04-30T10:20:34.64Z</time></trkpt><trkpt lat="43.9398483" lon="12.10335"><ele>584.0</ele><time>2026-04-30T10:20:35.641Z</time></trkpt><trkpt lat="43.9398267" lon="12.1031917"><ele>584.0</ele><time>2026-04-30T10:20:37.641Z</time></trkpt><trkpt lat="43.9398517" lon="12.1030983"><ele>584.0</ele><time>2026-04-30T10:20:38.645Z</time></trkpt><trkpt lat="43.9398833" lon="12.10299"><ele>584.0</ele><time>2026-04-30T10:20:39.641Z</time></trkpt><trkpt lat="43.939915" lon="12.1028633"><ele>584.0</ele><time>2026-04-30T10:20:40.652Z</time></trkpt><trkpt lat="43.9399283" lon="12.102735"><ele>586.0</ele><time>2026-04-30T10:20:41.646Z</time></trkpt><trkpt lat="43.93994" lon="12.1026017"><ele>588.0</ele><time>2026-04-30T10:20:42.645Z</time></trkpt><trkpt lat="43.9399467" lon="12.1024983"><ele>590.0</ele><time>2026-04-30T10:20:43.643Z</time></trkpt><trkpt lat="43.93996" lon="12.1023983"><ele>592.0</ele><time>2026-04-30T10:20:44.65Z</time></trkpt><trkpt lat="43.9399767" lon="12.1022933"><ele>594.0</ele><time>2026-04-30T10:20:45.656Z</time></trkpt><trkpt lat="43.9399933" lon="12.10218"><ele>596.0</ele><time>2026-04-30T10:20:46.656Z</time></trkpt><trkpt lat="43.9399983" lon="12.1020567"><ele>596.1666666666666</ele><time>2026-04-30T10:20:47.651Z</time></trkpt><trkpt lat="43.9399833" lon="12.1019217"><ele>596.3333333333333</ele><time>2026-04-30T10:20:48.642Z</time></trkpt><trkpt lat="43.9399683" lon="12.101785"><ele>596.5</ele><time>2026-04-30T10:20:49.648Z</time></trkpt><trkpt lat="43.93996" lon="12.101655"><ele>596.6666666666666</ele><time>2026-04-30T10:20:50.648Z</time></trkpt><trkpt lat="43.939975" lon="12.10155"><ele>596.8333333333334</ele><time>2026-04-30T10:20:51.649Z</time></trkpt><trkpt lat="43.940005" lon="12.101455"><ele>597.0</ele><time>2026-04-30T10:20:52.644Z</time></trkpt><trkpt lat="43.9400483" lon="12.1013567"><ele>598.0</ele><time>2026-04-30T10:20:53.645Z</time></trkpt><trkpt lat="43.9400883" lon="12.10127"><ele>599.0</ele><time>2026-04-30T10:20:54.648Z</time></trkpt><trkpt lat="43.940115" lon="12.10118"><ele>600.0</ele><time>2026-04-30T10:20:55.648Z</time></trkpt><trkpt lat="43.9401283" lon="12.1010883"><ele>601.0</ele><time>2026-04-30T10:20:56.643Z</time></trkpt><trkpt lat="43.9401167" lon="12.1009783"><ele>602.0</ele><time>2026-04-30T10:20:57.644Z</time></trkpt><trkpt lat="43.9400833" lon="12.1008683"><ele>603.0</ele><time>2026-04-30T10:20:58.648Z</time></trkpt><trkpt lat="43.94003" lon="12.1007583"><ele>604.3333333333334</ele><time>2026-04-30T10:20:59.648Z</time></trkpt><trkpt lat="43.93999" lon="12.1006533"><ele>605.6666666666666</ele><time>2026-04-30T10:21:00.654Z</time></trkpt><trkpt lat="43.939965" lon="12.100545"><ele>607.0</ele><time>2026-04-30T10:21:01.642Z</time></trkpt><trkpt lat="43.939945" lon="12.1004317"><ele>608.3333333333333</ele><time>2026-04-30T10:21:02.641Z</time></trkpt><trkpt lat="43.9399233" lon="12.1003067"><ele>609.6666666666666</ele><time>2026-04-30T10:21:03.65Z</time></trkpt><trkpt lat="43.9398967" lon="12.1001867"><ele>611.0</ele><time>2026-04-30T10:21:04.642Z</time></trkpt><trkpt lat="43.9398683" lon="12.1000867"><ele>611.0</ele><time>2026-04-30T10:21:05.658Z</time></trkpt><trkpt lat="43.9398417" lon="12.100005"><ele>611.0</ele><time>2026-04-30T10:21:06.648Z</time></trkpt><trkpt lat="43.93978" lon="12.0998833"><ele>611.0</ele><time>2026-04-30T10:21:08.646Z</time></trkpt><trkpt lat="43.9397167" lon="12.0997867"><ele>611.0</ele><time>2026-04-30T10:21:10.644Z</time></trkpt><trkpt lat="43.939655" lon="12.0996733"><ele>611.0</ele><time>2026-04-30T10:21:12.648Z</time></trkpt><trkpt lat="43.9396033" lon="12.0995367"><ele>613.8333333333333</ele><time>2026-04-30T10:21:14.647Z</time></trkpt><trkpt lat="43.9395733" lon="12.099455"><ele>616.6666666666666</ele><time>2026-04-30T10:21:15.649Z</time></trkpt><trkpt lat="43.9395433" lon="12.0993683"><ele>619.5</ele><time>2026-04-30T10:21:16.659Z</time></trkpt><trkpt lat="43.9395133" lon="12.09928"><ele>622.3333333333334</ele><time>2026-04-30T10:21:17.648Z</time></trkpt><trkpt lat="43.93948" lon="12.09918"><ele>625.1666666666667</ele><time>2026-04-30T10:21:18.641Z</time></trkpt><trkpt lat="43.9394417" lon="12.0990683"><ele>628.0</ele><time>2026-04-30T10:21:19.644Z</time></trkpt><trkpt lat="43.9394083" lon="12.0989617"><ele>629.6</ele><time>2026-04-30T10:21:20.652Z</time></trkpt><trkpt lat="43.9393717" lon="12.098865"><ele>631.1999999999999</ele><time>2026-04-30T10:21:21.649Z</time></trkpt><trkpt lat="43.9393217" lon="12.0987683"><ele>632.8</ele><time>2026-04-30T10:21:22.647Z</time></trkpt><trkpt lat="43.9392467" lon="12.0986667"><ele>634.4</ele><time>2026-04-30T10:21:23.647Z</time></trkpt><trkpt lat="43.9391433" lon="12.0985617"><ele>636.0</ele><time>2026-04-30T10:21:24.642Z</time></trkpt><trkpt lat="43.9390333" lon="12.0984583"><ele>630.0</ele><time>2026-04-30T10:21:25.648Z</time></trkpt><trkpt lat="43.9389217" lon="12.0983633"><ele>624.0</ele><time>2026-04-30T10:21:26.642Z</time></trkpt><trkpt lat="43.9388183" lon="12.098275"><ele>618.0</ele><time>2026-04-30T10:21:27.643Z</time></trkpt><trkpt lat="43.938725" lon="12.0982117"><ele>612.0</ele><time>2026-04-30T10:21:28.642Z</time></trkpt><trkpt lat="43.9386333" lon="12.0981783"><ele>612.5</ele><time>2026-04-30T10:21:29.642Z</time></trkpt><trkpt lat="43.93853" lon="12.0981883"><ele>613.0</ele><time>2026-04-30T10:21:30.648Z</time></trkpt><trkpt lat="43.9384367" lon="12.0982217"><ele>613.5</ele><time>2026-04-30T10:21:31.647Z</time></trkpt><trkpt lat="43.9383567" lon="12.09826"><ele>614.0</ele><time>2026-04-30T10:21:32.646Z</time></trkpt><trkpt lat="43.9382833" lon="12.098275"><ele>614.5</ele><time>2026-04-30T10:21:33.653Z</time></trkpt><trkpt lat="43.93822" lon="12.098255"><ele>615.0</ele><time>2026-04-30T10:21:34.652Z</time></trkpt><trkpt lat="43.938175" lon="12.0981917"><ele>613.8333333333334</ele><time>2026-04-30T10:21:35.647Z</time></trkpt><trkpt lat="43.93813" lon="12.0980983"><ele>612.6666666666666</ele><time>2026-04-30T10:21:36.649Z</time></trkpt><trkpt lat="43.9380717" lon="12.0980133"><ele>611.5</ele><time>2026-04-30T10:21:37.638Z</time></trkpt><trkpt lat="43.9380083" lon="12.0979317"><ele>610.3333333333333</ele><time>2026-04-30T10:21:38.642Z</time></trkpt><trkpt lat="43.9379333" lon="12.0978633"><ele>609.1666666666666</ele><time>2026-04-30T10:21:39.644Z</time></trkpt><trkpt lat="43.937855" lon="12.0978217"><ele>608.0</ele><time>2026-04-30T10:21:40.648Z</time></trkpt><trkpt lat="43.9377767" lon="12.0977833"><ele>608.0</ele><time>2026-04-30T10:21:41.656Z</time></trkpt><trkpt lat="43.9376983" lon="12.097735"><ele>608.0</ele><time>2026-04-30T10:21:42.651Z</time></trkpt><trkpt lat="43.937625" lon="12.0976633"><ele>608.0</ele><time>2026-04-30T10:21:43.646Z</time></trkpt><trkpt lat="43.937555" lon="12.0975683"><ele>608.0</ele><time>2026-04-30T10:21:44.661Z</time></trkpt><trkpt lat="43.937485" lon="12.0974733"><ele>608.0</ele><time>2026-04-30T10:21:45.643Z</time></trkpt><trkpt lat="43.9374017" lon="12.0973917"><ele>613.0</ele><time>2026-04-30T10:21:46.649Z</time></trkpt><trkpt lat="43.93731" lon="12.0973317"><ele>618.0</ele><time>2026-04-30T10:21:47.646Z</time></trkpt><trkpt lat="43.93721" lon="12.097285"><ele>623.0</ele><time>2026-04-30T10:21:48.637Z</time></trkpt><trkpt lat="43.9370967" lon="12.0972467"><ele>628.0</ele><time>2026-04-30T10:21:49.643Z</time></trkpt><trkpt lat="43.9369783" lon="12.097215"><ele>633.0</ele><time>2026-04-30T10:21:50.645Z</time></trkpt><trkpt lat="43.9368617" lon="12.09718"><ele>633.0</ele><time>2026-04-30T10:21:51.655Z</time></trkpt><trkpt lat="43.9367483" lon="12.0971583"><ele>633.0</ele><time>2026-04-30T10:21:52.647Z</time></trkpt><trkpt lat="43.936645" lon="12.097145"><ele>633.0</ele><time>2026-04-30T10:21:53.645Z</time></trkpt><trkpt lat="43.9365533" lon="12.0971417"><ele>633.0</ele><time>2026-04-30T10:21:54.643Z</time></trkpt><trkpt lat="43.93646" lon="12.097165"><ele>633.0</ele><time>2026-04-30T10:21:55.653Z</time></trkpt><trkpt lat="43.9363767" lon="12.0971967"><ele>637.3333333333334</ele><time>2026-04-30T10:21:56.643Z</time></trkpt><trkpt lat="43.9362983" lon="12.0972333"><ele>641.6666666666666</ele><time>2026-04-30T10:21:57.643Z</time></trkpt><trkpt lat="43.9362267" lon="12.0972683"><ele>646.0</ele><time>2026-04-30T10:21:58.643Z</time></trkpt><trkpt lat="43.936155" lon="12.0972833"><ele>650.3333333333333</ele><time>2026-04-30T10:21:59.643Z</time></trkpt><trkpt lat="43.9360917" lon="12.0972383"><ele>654.6666666666666</ele><time>2026-04-30T10:22:00.644Z</time></trkpt><trkpt lat="43.9360333" lon="12.09716"><ele>659.0</ele><time>2026-04-30T10:22:01.653Z</time></trkpt><trkpt lat="43.9359783" lon="12.0970617"><ele>659.0</ele><time>2026-04-30T10:22:02.643Z</time></trkpt><trkpt lat="43.9359283" lon="12.0969417"><ele>659.0</ele><time>2026-04-30T10:22:03.647Z</time></trkpt><trkpt lat="43.935885" lon="12.0968067"><ele>659.0</ele><time>2026-04-30T10:22:04.644Z</time></trkpt><trkpt lat="43.9358483" lon="12.0966733"><ele>659.0</ele><time>2026-04-30T10:22:05.643Z</time></trkpt><trkpt lat="43.9358133" lon="12.0965517"><ele>659.0</ele><time>2026-04-30T10:22:06.646Z</time></trkpt><trkpt lat="43.935775" lon="12.0964467"><ele>655.8333333333333</ele><time>2026-04-30T10:22:07.643Z</time></trkpt><trkpt lat="43.9357283" lon="12.096365"><ele>652.6666666666666</ele><time>2026-04-30T10:22:08.649Z</time></trkpt><trkpt lat="43.935675" lon="12.096305"><ele>649.5</ele><time>2026-04-30T10:22:09.639Z</time></trkpt><trkpt lat="43.9355833" lon="12.09622"><ele>646.3333333333334</ele><time>2026-04-30T10:22:11.661Z</time></trkpt><trkpt lat="43.93553" lon="12.09615"><ele>643.1666666666667</ele><time>2026-04-30T10:22:13.646Z</time></trkpt><trkpt lat="43.935465" lon="12.0960633"><ele>640.0</ele><time>2026-04-30T10:24:35.649Z</time></trkpt><trkpt lat="43.9354033" lon="12.09601"><ele>640.0</ele><time>2026-04-30T10:24:36.649Z</time></trkpt><trkpt lat="43.9353317" lon="12.0959433"><ele>640.0</ele><time>2026-04-30T10:24:37.648Z</time></trkpt><trkpt lat="43.9352483" lon="12.0958733"><ele>640.0</ele><time>2026-04-30T10:24:38.656Z</time></trkpt><trkpt lat="43.93515" lon="12.09581"><ele>640.0</ele><time>2026-04-30T10:24:39.647Z</time></trkpt><trkpt lat="43.9350367" lon="12.0957483"><ele>640.0</ele><time>2026-04-30T10:24:40.649Z</time></trkpt><trkpt lat="43.93493" lon="12.0956933"><ele>635.4</ele><time>2026-04-30T10:24:41.647Z</time></trkpt><trkpt lat="43.9348217" lon="12.0956417"><ele>630.8</ele><time>2026-04-30T10:24:42.653Z</time></trkpt><trkpt lat="43.93472" lon="12.0956017"><ele>626.2</ele><time>2026-04-30T10:24:43.652Z</time></trkpt><trkpt lat="43.93463" lon="12.0955583"><ele>621.6</ele><time>2026-04-30T10:24:44.65Z</time></trkpt><trkpt lat="43.9345517" lon="12.0955017"><ele>617.0</ele><time>2026-04-30T10:24:45.646Z</time></trkpt><trkpt lat="43.9344833" lon="12.095425"><ele>617.0</ele><time>2026-04-30T10:24:46.645Z</time></trkpt><trkpt lat="43.934425" lon="12.0953333"><ele>617.0</ele><time>2026-04-30T10:24:47.648Z</time></trkpt><trkpt lat="43.93436" lon="12.0952433"><ele>617.0</ele><time>2026-04-30T10:24:48.653Z</time></trkpt><trkpt lat="43.9342867" lon="12.09515"><ele>617.0</ele><time>2026-04-30T10:24:49.647Z</time></trkpt><trkpt lat="43.9342067" lon="12.0950533"><ele>617.0</ele><time>2026-04-30T10:24:50.646Z</time></trkpt><trkpt lat="43.9341183" lon="12.09496"><ele>619.25</ele><time>2026-04-30T10:24:51.649Z</time></trkpt><trkpt lat="43.93401" lon="12.094885"><ele>621.5</ele><time>2026-04-30T10:24:52.648Z</time></trkpt><trkpt lat="43.9339017" lon="12.0948117"><ele>623.75</ele><time>2026-04-30T10:24:53.654Z</time></trkpt><trkpt lat="43.93379" lon="12.094745"><ele>626.0</ele><time>2026-04-30T10:24:54.649Z</time></trkpt><trkpt lat="43.9336833" lon="12.0946917"><ele>626.0</ele><time>2026-04-30T10:24:55.652Z</time></trkpt><trkpt lat="43.9335667" lon="12.09465"><ele>626.0</ele><time>2026-04-30T10:24:56.647Z</time></trkpt><trkpt lat="43.9334517" lon="12.0946183"><ele>626.0</ele><time>2026-04-30T10:24:57.654Z</time></trkpt><trkpt lat="43.9333367" lon="12.0945733"><ele>626.0</ele><time>2026-04-30T10:24:58.65Z</time></trkpt><trkpt lat="43.9332217" lon="12.0945033"><ele>629.2</ele><time>2026-04-30T10:24:59.645Z</time></trkpt><trkpt lat="43.9331233" lon="12.09441"><ele>632.4000000000001</ele><time>2026-04-30T10:25:00.655Z</time></trkpt><trkpt lat="43.933045" lon="12.0943167"><ele>635.6</ele><time>2026-04-30T10:25:01.644Z</time></trkpt><trkpt lat="43.9329767" lon="12.0942317"><ele>638.8000000000001</ele><time>2026-04-30T10:25:02.645Z</time></trkpt><trkpt lat="43.9329017" lon="12.094175"><ele>642.0</ele><time>2026-04-30T10:25:03.649Z</time></trkpt><trkpt lat="43.93282" lon="12.0941483"><ele>642.0</ele><time>2026-04-30T10:25:04.647Z</time></trkpt><trkpt lat="43.9327233" lon="12.0941467"><ele>642.0</ele><time>2026-04-30T10:25:05.647Z</time></trkpt><trkpt lat="43.9326167" lon="12.09415"><ele>642.0</ele><time>2026-04-30T10:25:06.643Z</time></trkpt><trkpt lat="43.9325167" lon="12.0941267"><ele>642.0</ele><time>2026-04-30T10:25:07.646Z</time></trkpt><trkpt lat="43.9324133" lon="12.0940983"><ele>642.0</ele><time>2026-04-30T10:25:08.645Z</time></trkpt><trkpt lat="43.9323133" lon="12.0940583"><ele>643.5</ele><time>2026-04-30T10:25:09.645Z</time></trkpt><trkpt lat="43.93221" lon="12.0940217"><ele>645.0</ele><time>2026-04-30T10:25:10.649Z</time></trkpt><trkpt lat="43.9321167" lon="12.0939833"><ele>646.5</ele><time>2026-04-30T10:25:11.643Z</time></trkpt><trkpt lat="43.9320433" lon="12.0939383"><ele>648.0</ele><time>2026-04-30T10:25:12.648Z</time></trkpt><trkpt lat="43.931975" lon="12.0939"><ele>649.5</ele><time>2026-04-30T10:25:13.652Z</time></trkpt><trkpt lat="43.9319" lon="12.093875"><ele>651.0</ele><time>2026-04-30T10:25:14.648Z</time></trkpt><trkpt lat="43.9318133" lon="12.0938583"><ele>658.0</ele><time>2026-04-30T10:25:15.64Z</time></trkpt><trkpt lat="43.9317217" lon="12.0938417"><ele>665.0</ele><time>2026-04-30T10:25:16.639Z</time></trkpt><trkpt lat="43.9316317" lon="12.0938267"><ele>672.0</ele><time>2026-04-30T10:25:17.648Z</time></trkpt><trkpt lat="43.9315467" lon="12.0938133"><ele>679.0</ele><time>2026-04-30T10:25:18.644Z</time></trkpt><trkpt lat="43.9314733" lon="12.0938"><ele>686.0</ele><time>2026-04-30T10:25:19.64Z</time></trkpt><trkpt lat="43.93141" lon="12.0937833"><ele>693.0</ele><time>2026-04-30T10:25:20.64Z</time></trkpt><trkpt lat="43.9313017" lon="12.0937917"><ele>693.0</ele><time>2026-04-30T10:25:22.647Z</time></trkpt><trkpt lat="43.9312483" lon="12.0938417"><ele>693.0</ele><time>2026-04-30T10:25:23.646Z</time></trkpt><trkpt lat="43.93119" lon="12.0938883"><ele>693.0</ele><time>2026-04-30T10:25:24.646Z</time></trkpt><trkpt lat="43.9311333" lon="12.09393"><ele>693.0</ele><time>2026-04-30T10:25:25.648Z</time></trkpt><trkpt lat="43.9310717" lon="12.09396"><ele>693.0</ele><time>2026-04-30T10:25:26.657Z</time></trkpt><trkpt lat="43.9310083" lon="12.0939817"><ele>693.0</ele><time>2026-04-30T10:25:27.645Z</time></trkpt><trkpt lat="43.9309417" lon="12.094005"><ele>693.0</ele><time>2026-04-30T10:25:28.642Z</time></trkpt><trkpt lat="43.93087" lon="12.0940183"><ele>695.1666666666666</ele><time>2026-04-30T10:25:29.647Z</time></trkpt><trkpt lat="43.93079" lon="12.09402"><ele>697.3333333333334</ele><time>2026-04-30T10:25:30.644Z</time></trkpt><trkpt lat="43.9307117" lon="12.0940033"><ele>699.5</ele><time>2026-04-30T10:25:31.657Z</time></trkpt><trkpt lat="43.9306267" lon="12.0939767"><ele>701.6666666666667</ele><time>2026-04-30T10:25:32.646Z</time></trkpt><trkpt lat="43.9305433" lon="12.09395"><ele>703.8333333333334</ele><time>2026-04-30T10:25:33.651Z</time></trkpt><trkpt lat="43.9304733" lon="12.093935"><ele>706.0</ele><time>2026-04-30T10:25:34.653Z</time></trkpt><trkpt lat="43.93037" lon="12.0939233"><ele>706.0</ele><time>2026-04-30T10:25:36.65Z</time></trkpt><trkpt lat="43.9303167" lon="12.093875"><ele>706.0</ele><time>2026-04-30T10:25:38.648Z</time></trkpt><trkpt lat="43.9303217" lon="12.093775"><ele>706.0</ele><time>2026-04-30T10:25:40.645Z</time></trkpt><trkpt lat="43.9304083" lon="12.0936833"><ele>706.0</ele><time>2026-04-30T10:25:42.653Z</time></trkpt><trkpt lat="43.9304767" lon="12.093655"><ele>706.0</ele><time>2026-04-30T10:25:43.66Z</time></trkpt><trkpt lat="43.9305583" lon="12.0936533"><ele>706.0</ele><time>2026-04-30T10:25:44.644Z</time></trkpt><trkpt lat="43.9306467" lon="12.0936433"><ele>706.0</ele><time>2026-04-30T10:25:45.659Z</time></trkpt><trkpt lat="43.9307267" lon="12.09361"><ele>706.0</ele><time>2026-04-30T10:25:46.642Z</time></trkpt><trkpt lat="43.9308033" lon="12.0935517"><ele>706.0</ele><time>2026-04-30T10:25:47.642Z</time></trkpt><trkpt lat="43.930875" lon="12.09346"><ele>706.0</ele><time>2026-04-30T10:25:48.645Z</time></trkpt><trkpt lat="43.93095" lon="12.093355"><ele>706.0</ele><time>2026-04-30T10:25:49.64Z</time></trkpt><trkpt lat="43.9310283" lon="12.093255"><ele>704.5</ele><time>2026-04-30T10:25:50.641Z</time></trkpt><trkpt lat="43.9310917" lon="12.093155"><ele>703.0</ele><time>2026-04-30T10:25:51.645Z</time></trkpt><trkpt lat="43.9311417" lon="12.093065"><ele>701.5</ele><time>2026-04-30T10:25:52.643Z</time></trkpt><trkpt lat="43.9311617" lon="12.0929667"><ele>700.0</ele><time>2026-04-30T10:25:53.641Z</time></trkpt><trkpt lat="43.9311683" lon="12.0928783"><ele>698.5</ele><time>2026-04-30T10:25:54.649Z</time></trkpt><trkpt lat="43.9311317" lon="12.0927667"><ele>697.0</ele><time>2026-04-30T10:25:55.646Z</time></trkpt><trkpt lat="43.9310617" lon="12.09268"><ele>697.0</ele><time>2026-04-30T10:25:56.644Z</time></trkpt><trkpt lat="43.9309733" lon="12.0926233"><ele>697.0</ele><time>2026-04-30T10:25:57.649Z</time></trkpt><trkpt lat="43.930895" lon="12.0925533"><ele>697.0</ele><time>2026-04-30T10:25:58.646Z</time></trkpt><trkpt lat="43.93083" lon="12.0924717"><ele>697.0</ele><time>2026-04-30T10:25:59.643Z</time></trkpt><trkpt lat="43.93078" lon="12.0923817"><ele>697.0</ele><time>2026-04-30T10:26:00.64Z</time></trkpt><trkpt lat="43.9307233" lon="12.09229"><ele>697.0</ele><time>2026-04-30T10:26:01.646Z</time></trkpt><trkpt lat="43.9306517" lon="12.0922033"><ele>700.8333333333334</ele><time>2026-04-30T10:26:02.647Z</time></trkpt><trkpt lat="43.930555" lon="12.0921417"><ele>704.6666666666667</ele><time>2026-04-30T10:26:03.658Z</time></trkpt><trkpt lat="43.9304583" lon="12.092095"><ele>708.5</ele><time>2026-04-30T10:26:04.642Z</time></trkpt><trkpt lat="43.9303783" lon="12.0920617"><ele>712.3333333333334</ele><time>2026-04-30T10:26:05.642Z</time></trkpt><trkpt lat="43.9303083" lon="12.0920317"><ele>716.1666666666666</ele><time>2026-04-30T10:26:06.643Z</time></trkpt><trkpt lat="43.9302317" lon="12.0919883"><ele>720.0</ele><time>2026-04-30T10:26:07.645Z</time></trkpt><trkpt lat="43.9301533" lon="12.0919217"><ele>720.0</ele><time>2026-04-30T10:26:08.642Z</time></trkpt><trkpt lat="43.9300733" lon="12.0918383"><ele>720.0</ele><time>2026-04-30T10:26:09.652Z</time></trkpt><trkpt lat="43.9299983" lon="12.0917483"><ele>720.0</ele><time>2026-04-30T10:26:10.644Z</time></trkpt><trkpt lat="43.9299283" lon="12.0916617"><ele>720.0</ele><time>2026-04-30T10:26:11.642Z</time></trkpt><trkpt lat="43.9298733" lon="12.0915783"><ele>720.0</ele><time>2026-04-30T10:26:12.646Z</time></trkpt><trkpt lat="43.9298283" lon="12.0915017"><ele>720.0</ele><time>2026-04-30T10:26:13.642Z</time></trkpt><trkpt lat="43.9297767" lon="12.0914283"><ele>723.3333333333334</ele><time>2026-04-30T10:26:14.643Z</time></trkpt><trkpt lat="43.929715" lon="12.09137"><ele>726.6666666666666</ele><time>2026-04-30T10:26:15.647Z</time></trkpt><trkpt lat="43.9296417" lon="12.091335"><ele>730.0</ele><time>2026-04-30T10:26:16.651Z</time></trkpt><trkpt lat="43.9295617" lon="12.091315"><ele>733.3333333333333</ele><time>2026-04-30T10:26:17.646Z</time></trkpt><trkpt lat="43.92948" lon="12.0913067"><ele>736.6666666666666</ele><time>2026-04-30T10:26:18.648Z</time></trkpt><trkpt lat="43.9294" lon="12.0913217"><ele>740.0</ele><time>2026-04-30T10:26:19.644Z</time></trkpt><trkpt lat="43.9293283" lon="12.0913483"><ele>740.0</ele><time>2026-04-30T10:26:20.65Z</time></trkpt><trkpt lat="43.929255" lon="12.0913783"><ele>740.0</ele><time>2026-04-30T10:26:21.646Z</time></trkpt><trkpt lat="43.9291467" lon="12.09137"><ele>740.0</ele><time>2026-04-30T10:26:23.649Z</time></trkpt><trkpt lat="43.9290883" lon="12.0912967"><ele>740.0</ele><time>2026-04-30T10:26:25.655Z</time></trkpt><trkpt lat="43.9290867" lon="12.091165"><ele>740.0</ele><time>2026-04-30T10:26:37.646Z</time></trkpt><trkpt lat="43.9290767" lon="12.0910567"><ele>740.0</ele><time>2026-04-30T10:26:38.649Z</time></trkpt><trkpt lat="43.92906" lon="12.09097"><ele>737.8333333333333</ele><time>2026-04-30T10:26:39.65Z</time></trkpt><trkpt lat="43.9290433" lon="12.0908783"><ele>735.6666666666666</ele><time>2026-04-30T10:26:40.644Z</time></trkpt><trkpt lat="43.929035" lon="12.0907733"><ele>733.5</ele><time>2026-04-30T10:26:41.648Z</time></trkpt><trkpt lat="43.9290283" lon="12.0906333"><ele>731.3333333333334</ele><time>2026-04-30T10:26:42.645Z</time></trkpt><trkpt lat="43.929025" lon="12.090495"><ele>729.1666666666667</ele><time>2026-04-30T10:26:43.649Z</time></trkpt><trkpt lat="43.9290167" lon="12.0903633"><ele>727.0</ele><time>2026-04-30T10:26:44.647Z</time></trkpt><trkpt lat="43.9289967" lon="12.0902483"><ele>727.0</ele><time>2026-04-30T10:26:45.644Z</time></trkpt><trkpt lat="43.9289633" lon="12.0901367"><ele>727.0</ele><time>2026-04-30T10:26:46.647Z</time></trkpt><trkpt lat="43.9289133" lon="12.090025"><ele>727.0</ele><time>2026-04-30T10:26:47.644Z</time></trkpt><trkpt lat="43.9288217" lon="12.08994"><ele>727.0</ele><time>2026-04-30T10:26:48.646Z</time></trkpt><trkpt lat="43.92873" lon="12.089865"><ele>727.0</ele><time>2026-04-30T10:26:49.643Z</time></trkpt><trkpt lat="43.9286383" lon="12.089805"><ele>725.6</ele><time>2026-04-30T10:26:50.644Z</time></trkpt><trkpt lat="43.9285633" lon="12.0897517"><ele>724.2</ele><time>2026-04-30T10:26:51.648Z</time></trkpt><trkpt lat="43.9285017" lon="12.08969"><ele>722.8</ele><time>2026-04-30T10:26:52.648Z</time></trkpt><trkpt lat="43.92845" lon="12.0896083"><ele>721.4</ele><time>2026-04-30T10:26:53.649Z</time></trkpt><trkpt lat="43.9284067" lon="12.089495"><ele>720.0</ele><time>2026-04-30T10:26:54.641Z</time></trkpt><trkpt lat="43.9283717" lon="12.0893333"><ele>720.0</ele><time>2026-04-30T10:26:55.645Z</time></trkpt><trkpt lat="43.9283283" lon="12.0891733"><ele>720.0</ele><time>2026-04-30T10:26:56.643Z</time></trkpt><trkpt lat="43.9282867" lon="12.089015"><ele>720.0</ele><time>2026-04-30T10:26:57.642Z</time></trkpt><trkpt lat="43.9282433" lon="12.0888717"><ele>720.0</ele><time>2026-04-30T10:26:58.638Z</time></trkpt><trkpt lat="43.928185" lon="12.0887433"><ele>717.25</ele><time>2026-04-30T10:26:59.646Z</time></trkpt><trkpt lat="43.928115" lon="12.0886333"><ele>714.5</ele><time>2026-04-30T10:27:00.65Z</time></trkpt><trkpt lat="43.9280333" lon="12.08853"><ele>711.75</ele><time>2026-04-30T10:27:01.657Z</time></trkpt><trkpt lat="43.9279417" lon="12.088425"><ele>709.0</ele><time>2026-04-30T10:27:02.653Z</time></trkpt><trkpt lat="43.92785" lon="12.08831"><ele>713.0</ele><time>2026-04-30T10:27:03.652Z</time></trkpt><trkpt lat="43.9277617" lon="12.088185"><ele>717.0</ele><time>2026-04-30T10:27:04.645Z</time></trkpt><trkpt lat="43.92768" lon="12.0880517"><ele>721.0</ele><time>2026-04-30T10:27:05.643Z</time></trkpt><trkpt lat="43.9276017" lon="12.087915"><ele>725.0</ele><time>2026-04-30T10:27:06.66Z</time></trkpt><trkpt lat="43.9275333" lon="12.0877867"><ele>725.0</ele><time>2026-04-30T10:27:07.654Z</time></trkpt><trkpt lat="43.927475" lon="12.0876667"><ele>725.0</ele><time>2026-04-30T10:27:08.643Z</time></trkpt><trkpt lat="43.9274333" lon="12.0875383"><ele>725.0</ele><time>2026-04-30T10:27:09.65Z</time></trkpt><trkpt lat="43.9273967" lon="12.08739"><ele>725.0</ele><time>2026-04-30T10:27:10.647Z</time></trkpt><trkpt lat="43.9273667" lon="12.0872417"><ele>725.0</ele><time>2026-04-30T10:27:11.652Z</time></trkpt><trkpt lat="43.9273367" lon="12.0870917"><ele>723.6</ele><time>2026-04-30T10:27:12.651Z</time></trkpt><trkpt lat="43.9273067" lon="12.0869417"><ele>722.2</ele><time>2026-04-30T10:27:13.648Z</time></trkpt><trkpt lat="43.9272767" lon="12.0868"><ele>720.8</ele><time>2026-04-30T10:27:14.649Z</time></trkpt><trkpt lat="43.9272467" lon="12.08667"><ele>719.4</ele><time>2026-04-30T10:27:15.648Z</time></trkpt><trkpt lat="43.9272117" lon="12.0865483"><ele>718.0</ele><time>2026-04-30T10:27:16.652Z</time></trkpt><trkpt lat="43.9271733" lon="12.0864367"><ele>715.3333333333334</ele><time>2026-04-30T10:27:17.645Z</time></trkpt><trkpt lat="43.9271317" lon="12.08634"><ele>712.6666666666667</ele><time>2026-04-30T10:27:18.647Z</time></trkpt><trkpt lat="43.9270817" lon="12.0862767"><ele>710.0</ele><time>2026-04-30T10:27:19.647Z</time></trkpt><trkpt lat="43.9270033" lon="12.086265"><ele>707.3333333333334</ele><time>2026-04-30T10:27:20.651Z</time></trkpt><trkpt lat="43.9269183" lon="12.0862617"><ele>704.6666666666666</ele><time>2026-04-30T10:27:21.646Z</time></trkpt><trkpt lat="43.9268367" lon="12.0862533"><ele>702.0</ele><time>2026-04-30T10:27:22.647Z</time></trkpt><trkpt lat="43.926765" lon="12.0862417"><ele>704.2</ele><time>2026-04-30T10:27:23.639Z</time></trkpt><trkpt lat="43.9266667" lon="12.0861667"><ele>706.4000000000001</ele><time>2026-04-30T10:27:25.642Z</time></trkpt><trkpt lat="43.9266167" lon="12.08604"><ele>708.5999999999999</ele><time>2026-04-30T10:27:27.662Z</time></trkpt><trkpt lat="43.9265883" lon="12.0858883"><ele>710.8</ele><time>2026-04-30T10:27:29.647Z</time></trkpt><trkpt lat="43.9265567" lon="12.08576"><ele>713.0</ele><time>2026-04-30T10:27:31.654Z</time></trkpt><trkpt lat="43.92652" lon="12.0856767"><ele>713.0</ele><time>2026-04-30T10:27:33.658Z</time></trkpt><trkpt lat="43.9264683" lon="12.08562"><ele>713.0</ele><time>2026-04-30T10:27:35.65Z</time></trkpt><trkpt lat="43.9263933" lon="12.0854833"><ele>713.0</ele><time>2026-04-30T10:28:10.645Z</time></trkpt><trkpt lat="43.9263467" lon="12.0854"><ele>713.0</ele><time>2026-04-30T10:28:11.653Z</time></trkpt><trkpt lat="43.9262983" lon="12.085315"><ele>713.0</ele><time>2026-04-30T10:28:12.655Z</time></trkpt><trkpt lat="43.9262383" lon="12.0852017"><ele>713.0</ele><time>2026-04-30T10:28:13.652Z</time></trkpt><trkpt lat="43.9261767" lon="12.0850783"><ele>713.0</ele><time>2026-04-30T10:28:14.652Z</time></trkpt><trkpt lat="43.9261167" lon="12.0849633"><ele>713.0</ele><time>2026-04-30T10:28:15.65Z</time></trkpt><trkpt lat="43.92607" lon="12.0848567"><ele>713.0</ele><time>2026-04-30T10:28:16.648Z</time></trkpt><trkpt lat="43.9260333" lon="12.0847583"><ele>713.0</ele><time>2026-04-30T10:28:17.639Z</time></trkpt><trkpt lat="43.9260083" lon="12.08465"><ele>713.0</ele><time>2026-04-30T10:28:18.646Z</time></trkpt><trkpt lat="43.9259917" lon="12.08452"><ele>713.0</ele><time>2026-04-30T10:28:19.658Z</time></trkpt><trkpt lat="43.92601" lon="12.08435"><ele>712.2</ele><time>2026-04-30T10:28:20.644Z</time></trkpt><trkpt lat="43.9260283" lon="12.08418"><ele>711.4</ele><time>2026-04-30T10:28:21.651Z</time></trkpt><trkpt lat="43.9260333" lon="12.0840217"><ele>710.6</ele><time>2026-04-30T10:28:22.657Z</time></trkpt><trkpt lat="43.9260233" lon="12.08388"><ele>709.8000000000001</ele><time>2026-04-30T10:28:23.647Z</time></trkpt><trkpt lat="43.92601" lon="12.0837567"><ele>709.0</ele><time>2026-04-30T10:28:24.648Z</time></trkpt><trkpt lat="43.9259967" lon="12.0836417"><ele>709.0</ele><time>2026-04-30T10:28:25.647Z</time></trkpt><trkpt lat="43.925985" lon="12.0835283"><ele>709.0</ele><time>2026-04-30T10:28:26.653Z</time></trkpt><trkpt lat="43.9259867" lon="12.0834067"><ele>709.0</ele><time>2026-04-30T10:28:27.657Z</time></trkpt><trkpt lat="43.9260017" lon="12.083295"><ele>709.0</ele><time>2026-04-30T10:28:28.646Z</time></trkpt><trkpt lat="43.9260183" lon="12.08319"><ele>709.0</ele><time>2026-04-30T10:28:29.641Z</time></trkpt><trkpt lat="43.92603" lon="12.0830933"><ele>709.0</ele><time>2026-04-30T10:28:30.649Z</time></trkpt><trkpt lat="43.9260233" lon="12.0830033"><ele>706.2</ele><time>2026-04-30T10:28:31.645Z</time></trkpt><trkpt lat="43.9259967" lon="12.0829233"><ele>703.4000000000001</ele><time>2026-04-30T10:28:32.65Z</time></trkpt><trkpt lat="43.9259433" lon="12.0828633"><ele>700.6</ele><time>2026-04-30T10:28:33.641Z</time></trkpt><trkpt lat="43.925865" lon="12.0828133"><ele>697.8</ele><time>2026-04-30T10:28:34.639Z</time></trkpt><trkpt lat="43.9257667" lon="12.082765"><ele>695.0</ele><time>2026-04-30T10:28:35.646Z</time></trkpt><trkpt lat="43.92563" lon="12.082715"><ele>705.25</ele><time>2026-04-30T10:28:36.645Z</time></trkpt><trkpt lat="43.925505" lon="12.0826467"><ele>715.5</ele><time>2026-04-30T10:28:37.643Z</time></trkpt><trkpt lat="43.925385" lon="12.0825967"><ele>725.75</ele><time>2026-04-30T10:28:38.646Z</time></trkpt><trkpt lat="43.9252667" lon="12.0825733"><ele>736.0</ele><time>2026-04-30T10:28:39.653Z</time></trkpt><trkpt lat="43.9251667" lon="12.0825617"><ele>736.0</ele><time>2026-04-30T10:28:40.649Z</time></trkpt><trkpt lat="43.9250817" lon="12.0825567"><ele>736.0</ele><time>2026-04-30T10:28:41.645Z</time></trkpt><trkpt lat="43.9250083" lon="12.0825383"><ele>736.0</ele><time>2026-04-30T10:28:42.645Z</time></trkpt><trkpt lat="43.9249417" lon="12.0825083"><ele>736.0</ele><time>2026-04-30T10:28:43.642Z</time></trkpt><trkpt lat="43.9248867" lon="12.08246"><ele>736.0</ele><time>2026-04-30T10:28:44.645Z</time></trkpt><trkpt lat="43.9247883" lon="12.0823483"><ele>736.0</ele><time>2026-04-30T10:28:46.64Z</time></trkpt><trkpt lat="43.92468" lon="12.0822567"><ele>739.3333333333334</ele><time>2026-04-30T10:28:48.647Z</time></trkpt><trkpt lat="43.9246283" lon="12.0821933"><ele>742.6666666666667</ele><time>2026-04-30T10:28:49.652Z</time></trkpt><trkpt lat="43.9245867" lon="12.08212"><ele>746.0</ele><time>2026-04-30T10:28:50.64Z</time></trkpt><trkpt lat="43.9245667" lon="12.0820367"><ele>749.3333333333334</ele><time>2026-04-30T10:28:51.643Z</time></trkpt><trkpt lat="43.924575" lon="12.0819467"><ele>752.6666666666666</ele><time>2026-04-30T10:28:52.649Z</time></trkpt><trkpt lat="43.924555" lon="12.081805"><ele>756.0</ele><time>2026-04-30T10:28:54.653Z</time></trkpt><trkpt lat="43.92449" lon="12.0817117"><ele>756.0</ele><time>2026-04-30T10:28:56.644Z</time></trkpt><trkpt lat="43.9244233" lon="12.0816733"><ele>756.0</ele><time>2026-04-30T10:28:57.644Z</time></trkpt><trkpt lat="43.92434" lon="12.0816333"><ele>756.0</ele><time>2026-04-30T10:28:58.643Z</time></trkpt><trkpt lat="43.9242567" lon="12.0815733"><ele>756.0</ele><time>2026-04-30T10:28:59.649Z</time></trkpt><trkpt lat="43.9241883" lon="12.0815083"><ele>756.0</ele><time>2026-04-30T10:29:00.649Z</time></trkpt><trkpt lat="43.92414" lon="12.0814367"><ele>756.0</ele><time>2026-04-30T10:29:01.653Z</time></trkpt><trkpt lat="43.924115" lon="12.0813533"><ele>755.0</ele><time>2026-04-30T10:29:02.642Z</time></trkpt><trkpt lat="43.9241117" lon="12.08124"><ele>754.0</ele><time>2026-04-30T10:29:03.647Z</time></trkpt><trkpt lat="43.924125" lon="12.0811167"><ele>753.0</ele><time>2026-04-30T10:29:04.647Z</time></trkpt><trkpt lat="43.924125" lon="12.0810083"><ele>752.0</ele><time>2026-04-30T10:29:05.648Z</time></trkpt><trkpt lat="43.924115" lon="12.0809217"><ele>751.0</ele><time>2026-04-30T10:29:06.651Z</time></trkpt><trkpt lat="43.92407" lon="12.0808467"><ele>750.0</ele><time>2026-04-30T10:29:12.66Z</time></trkpt><trkpt lat="43.9239617" lon="12.0807817"><ele>752.6666666666666</ele><time>2026-04-30T10:29:14.643Z</time></trkpt><trkpt lat="43.9238883" lon="12.0807467"><ele>755.3333333333334</ele><time>2026-04-30T10:29:15.65Z</time></trkpt><trkpt lat="43.9238033" lon="12.080715"><ele>758.0</ele><time>2026-04-30T10:29:16.639Z</time></trkpt><trkpt lat="43.92372" lon="12.0806783"><ele>760.6666666666667</ele><time>2026-04-30T10:29:17.647Z</time></trkpt><trkpt lat="43.923655" lon="12.08064"><ele>763.3333333333334</ele><time>2026-04-30T10:29:18.645Z</time></trkpt><trkpt lat="43.9236067" lon="12.08052"><ele>766.0</ele><time>2026-04-30T10:29:20.643Z</time></trkpt><trkpt lat="43.92361" lon="12.0804317"><ele>766.0</ele><time>2026-04-30T10:29:21.648Z</time></trkpt><trkpt lat="43.9236233" lon="12.0803417"><ele>766.0</ele><time>2026-04-30T10:29:22.646Z</time></trkpt><trkpt lat="43.923635" lon="12.0801933"><ele>766.0</ele><time>2026-04-30T10:29:24.65Z</time></trkpt><trkpt lat="43.923565" lon="12.080045"><ele>766.0</ele><time>2026-04-30T10:29:26.643Z</time></trkpt><trkpt lat="43.92351" lon="12.0799733"><ele>766.0</ele><time>2026-04-30T10:29:27.646Z</time></trkpt><trkpt lat="43.9234567" lon="12.079815"><ele>766.8333333333334</ele><time>2026-04-30T10:29:29.645Z</time></trkpt><trkpt lat="43.9234667" lon="12.0797167"><ele>767.6666666666667</ele><time>2026-04-30T10:29:30.643Z</time></trkpt><trkpt lat="43.923505" lon="12.0796033"><ele>768.5</ele><time>2026-04-30T10:29:31.647Z</time></trkpt><trkpt lat="43.9235383" lon="12.0794783"><ele>769.3333333333334</ele><time>2026-04-30T10:29:32.649Z</time></trkpt><trkpt lat="43.92355" lon="12.0793567"><ele>770.1666666666666</ele><time>2026-04-30T10:29:33.65Z</time></trkpt><trkpt lat="43.9235417" lon="12.0792433"><ele>771.0</ele><time>2026-04-30T10:29:34.648Z</time></trkpt><trkpt lat="43.9235233" lon="12.07914"><ele>770.75</ele><time>2026-04-30T10:29:35.654Z</time></trkpt><trkpt lat="43.9234667" lon="12.0790567"><ele>770.5</ele><time>2026-04-30T10:29:36.649Z</time></trkpt><trkpt lat="43.9233567" lon="12.0789917"><ele>770.25</ele><time>2026-04-30T10:29:37.648Z</time></trkpt><trkpt lat="43.9232383" lon="12.0789183"><ele>770.0</ele><time>2026-04-30T10:29:38.64Z</time></trkpt><trkpt lat="43.9231217" lon="12.0788517"><ele>770.4</ele><time>2026-04-30T10:29:39.641Z</time></trkpt><trkpt lat="43.923005" lon="12.0788083"><ele>770.8</ele><time>2026-04-30T10:29:40.663Z</time></trkpt><trkpt lat="43.9228867" lon="12.0787833"><ele>771.2</ele><time>2026-04-30T10:29:41.647Z</time></trkpt><trkpt lat="43.922775" lon="12.0787717"><ele>771.6</ele><time>2026-04-30T10:29:42.643Z</time></trkpt><trkpt lat="43.9226883" lon="12.0787583"><ele>772.0</ele><time>2026-04-30T10:29:43.638Z</time></trkpt><trkpt lat="43.9226217" lon="12.0787633"><ele>770.8</ele><time>2026-04-30T10:29:44.643Z</time></trkpt><trkpt lat="43.922535" lon="12.078745"><ele>769.6</ele><time>2026-04-30T10:29:46.645Z</time></trkpt><trkpt lat="43.9224267" lon="12.0787167"><ele>768.4</ele><time>2026-04-30T10:29:48.643Z</time></trkpt><trkpt lat="43.9223167" lon="12.07868"><ele>767.1999999999999</ele><time>2026-04-30T10:29:50.648Z</time></trkpt><trkpt lat="43.9221983" lon="12.0786633"><ele>766.0</ele><time>2026-04-30T10:29:52.652Z</time></trkpt><trkpt lat="43.922135" lon="12.0786517"><ele>766.0</ele><time>2026-04-30T10:29:53.645Z</time></trkpt><trkpt lat="43.92201" lon="12.0786383"><ele>766.0</ele><time>2026-04-30T10:29:55.647Z</time></trkpt><trkpt lat="43.921945" lon="12.078645"><ele>766.0</ele><time>2026-04-30T10:29:56.65Z</time></trkpt><trkpt lat="43.9218683" lon="12.07866"><ele>766.0</ele><time>2026-04-30T10:29:57.654Z</time></trkpt><trkpt lat="43.9217867" lon="12.078675"><ele>766.0</ele><time>2026-04-30T10:29:58.644Z</time></trkpt><trkpt lat="43.9217033" lon="12.078695"><ele>766.0</ele><time>2026-04-30T10:29:59.643Z</time></trkpt><trkpt lat="43.9216133" lon="12.0787167"><ele>762.4</ele><time>2026-04-30T10:30:00.646Z</time></trkpt><trkpt lat="43.9215167" lon="12.0787317"><ele>758.8</ele><time>2026-04-30T10:30:01.642Z</time></trkpt><trkpt lat="43.9214167" lon="12.0787433"><ele>755.1999999999999</ele><time>2026-04-30T10:30:02.647Z</time></trkpt><trkpt lat="43.921315" lon="12.0787483"><ele>751.5999999999999</ele><time>2026-04-30T10:30:03.656Z</time></trkpt><trkpt lat="43.9212167" lon="12.0787633"><ele>748.0</ele><time>2026-04-30T10:30:04.646Z</time></trkpt><trkpt lat="43.9211283" lon="12.0787783"><ele>748.0</ele><time>2026-04-30T10:30:05.644Z</time></trkpt><trkpt lat="43.9210467" lon="12.0788033"><ele>748.0</ele><time>2026-04-30T10:30:06.65Z</time></trkpt><trkpt lat="43.9209717" lon="12.0788417"><ele>748.0</ele><time>2026-04-30T10:30:07.645Z</time></trkpt><trkpt lat="43.9209057" lon="12.0788932"><ele>748.0</ele><time>2026-04-30T10:30:08.646Z</time></trkpt><trkpt lat="43.9208553" lon="12.0789505"><ele>748.0</ele><time>2026-04-30T10:30:09.65Z</time></trkpt><trkpt lat="43.9208134" lon="12.0790194"><ele>748.0</ele><time>2026-04-30T10:30:10.649Z</time></trkpt><trkpt lat="43.9207805" lon="12.079097"><ele>748.0</ele><time>2026-04-30T10:30:11.651Z</time></trkpt><trkpt lat="43.9207123" lon="12.0792215"><ele>743.2</ele><time>2026-04-30T10:30:13.641Z</time></trkpt><trkpt lat="43.9206219" lon="12.0792363"><ele>738.4</ele><time>2026-04-30T10:30:15.644Z</time></trkpt><trkpt lat="43.9206124" lon="12.0790649"><ele>733.6</ele><time>2026-04-30T10:30:17.64Z</time></trkpt><trkpt lat="43.9206462" lon="12.0789298"><ele>728.8000000000001</ele><time>2026-04-30T10:30:18.648Z</time></trkpt><trkpt lat="43.9206751" lon="12.0787839"><ele>724.0</ele><time>2026-04-30T10:30:19.645Z</time></trkpt><trkpt lat="43.9206979" lon="12.0786405"><ele>724.0</ele><time>2026-04-30T10:30:20.643Z</time></trkpt><trkpt lat="43.9207148" lon="12.0785029"><ele>724.0</ele><time>2026-04-30T10:30:21.641Z</time></trkpt><trkpt lat="43.9207286" lon="12.0783647"><ele>724.0</ele><time>2026-04-30T10:30:22.68Z</time></trkpt><trkpt lat="43.9207417" lon="12.0782356"><ele>724.0</ele><time>2026-04-30T10:30:23.65Z</time></trkpt><trkpt lat="43.9207549" lon="12.078107"><ele>724.0</ele><time>2026-04-30T10:30:24.653Z</time></trkpt><trkpt lat="43.9207705" lon="12.0779841"><ele>723.8000000000001</ele><time>2026-04-30T10:30:25.647Z</time></trkpt><trkpt lat="43.9207856" lon="12.0778643"><ele>723.6</ele><time>2026-04-30T10:30:26.639Z</time></trkpt><trkpt lat="43.9207888" lon="12.0777431"><ele>723.4</ele><time>2026-04-30T10:30:27.65Z</time></trkpt><trkpt lat="43.9207755" lon="12.0776145"><ele>723.2</ele><time>2026-04-30T10:30:28.647Z</time></trkpt><trkpt lat="43.9207491" lon="12.0774659"><ele>723.0</ele><time>2026-04-30T10:30:29.646Z</time></trkpt><trkpt lat="43.9207217" lon="12.0773186"><ele>722.8333333333334</ele><time>2026-04-30T10:30:30.652Z</time></trkpt><trkpt lat="43.9207011" lon="12.077187"><ele>722.6666666666666</ele><time>2026-04-30T10:30:31.645Z</time></trkpt><trkpt lat="43.9206865" lon="12.0770691"><ele>722.5</ele><time>2026-04-30T10:30:32.651Z</time></trkpt><trkpt lat="43.9206742" lon="12.0769654"><ele>722.3333333333333</ele><time>2026-04-30T10:30:33.656Z</time></trkpt><trkpt lat="43.92066" lon="12.0768771"><ele>722.1666666666666</ele><time>2026-04-30T10:30:34.643Z</time></trkpt><trkpt lat="43.9206292" lon="12.07673"><ele>722.0</ele><time>2026-04-30T10:30:36.645Z</time></trkpt><trkpt lat="43.9205671" lon="12.0766395"><ele>722.0</ele><time>2026-04-30T10:30:38.649Z</time></trkpt><trkpt lat="43.920464" lon="12.076632"><ele>722.0</ele><time>2026-04-30T10:30:40.655Z</time></trkpt><trkpt lat="43.9203733" lon="12.076755"><ele>722.0</ele><time>2026-04-30T10:30:42.644Z</time></trkpt><trkpt lat="43.920355" lon="12.0768683"><ele>722.0</ele><time>2026-04-30T10:30:43.645Z</time></trkpt><trkpt lat="43.92035" lon="12.07699"><ele>722.0</ele><time>2026-04-30T10:30:44.649Z</time></trkpt><trkpt lat="43.92036" lon="12.0771283"><ele>722.0</ele><time>2026-04-30T10:30:45.646Z</time></trkpt><trkpt lat="43.9203833" lon="12.0772683"><ele>722.0</ele><time>2026-04-30T10:30:46.644Z</time></trkpt><trkpt lat="43.920405" lon="12.0773967"><ele>722.0</ele><time>2026-04-30T10:30:47.65Z</time></trkpt><trkpt lat="43.9204267" lon="12.07751"><ele>722.0</ele><time>2026-04-30T10:30:48.648Z</time></trkpt><trkpt lat="43.9204433" lon="12.07761"><ele>722.0</ele><time>2026-04-30T10:30:49.653Z</time></trkpt><trkpt lat="43.9204483" lon="12.0777067"><ele>722.0</ele><time>2026-04-30T10:30:50.644Z</time></trkpt><trkpt lat="43.9204333" lon="12.077795"><ele>722.1666666666666</ele><time>2026-04-30T10:30:51.647Z</time></trkpt><trkpt lat="43.9203933" lon="12.07788"><ele>722.3333333333333</ele><time>2026-04-30T10:30:52.645Z</time></trkpt><trkpt lat="43.9203383" lon="12.0779517"><ele>722.5</ele><time>2026-04-30T10:30:53.642Z</time></trkpt><trkpt lat="43.9202633" lon="12.078015"><ele>722.6666666666666</ele><time>2026-04-30T10:30:54.651Z</time></trkpt><trkpt lat="43.9201783" lon="12.0780817"><ele>722.8333333333334</ele><time>2026-04-30T10:30:55.651Z</time></trkpt><trkpt lat="43.9200883" lon="12.078155"><ele>723.0</ele><time>2026-04-30T10:30:56.646Z</time></trkpt><trkpt lat="43.9199933" lon="12.078235"><ele>718.5999999999999</ele><time>2026-04-30T10:30:57.648Z</time></trkpt><trkpt lat="43.9199" lon="12.07831"><ele>714.1999999999999</ele><time>2026-04-30T10:30:58.652Z</time></trkpt><trkpt lat="43.919815" lon="12.0783867"><ele>709.8</ele><time>2026-04-30T10:30:59.649Z</time></trkpt><trkpt lat="43.9197433" lon="12.078485"><ele>705.4</ele><time>2026-04-30T10:31:00.641Z</time></trkpt><trkpt lat="43.9196683" lon="12.0786033"><ele>701.0</ele><time>2026-04-30T10:31:01.651Z</time></trkpt><trkpt lat="43.9195983" lon="12.0787217"><ele>701.0</ele><time>2026-04-30T10:31:02.649Z</time></trkpt><trkpt lat="43.9195433" lon="12.0788333"><ele>701.0</ele><time>2026-04-30T10:31:03.643Z</time></trkpt><trkpt lat="43.9194917" lon="12.0789333"><ele>701.0</ele><time>2026-04-30T10:31:04.644Z</time></trkpt><trkpt lat="43.919435" lon="12.079015"><ele>701.0</ele><time>2026-04-30T10:31:05.65Z</time></trkpt><trkpt lat="43.9193583" lon="12.0790867"><ele>701.0</ele><time>2026-04-30T10:31:06.649Z</time></trkpt><trkpt lat="43.919265" lon="12.07912"><ele>698.8</ele><time>2026-04-30T10:31:07.643Z</time></trkpt><trkpt lat="43.9191783" lon="12.0791667"><ele>696.5999999999999</ele><time>2026-04-30T10:31:08.656Z</time></trkpt><trkpt lat="43.9191" lon="12.079235"><ele>694.4</ele><time>2026-04-30T10:31:09.642Z</time></trkpt><trkpt lat="43.9190383" lon="12.0793133"><ele>692.2</ele><time>2026-04-30T10:31:10.646Z</time></trkpt><trkpt lat="43.918985" lon="12.07942"><ele>690.0</ele><time>2026-04-30T10:31:11.646Z</time></trkpt><trkpt lat="43.91894" lon="12.0795517"><ele>690.0</ele><time>2026-04-30T10:31:12.646Z</time></trkpt><trkpt lat="43.9189" lon="12.0797017"><ele>690.0</ele><time>2026-04-30T10:31:13.646Z</time></trkpt><trkpt lat="43.9188567" lon="12.0798467"><ele>690.0</ele><time>2026-04-30T10:31:14.65Z</time></trkpt><trkpt lat="43.9188067" lon="12.0799867"><ele>690.0</ele><time>2026-04-30T10:31:15.651Z</time></trkpt><trkpt lat="43.9187483" lon="12.0801083"><ele>690.0</ele><time>2026-04-30T10:31:16.647Z</time></trkpt><trkpt lat="43.918675" lon="12.080215"><ele>690.1666666666666</ele><time>2026-04-30T10:31:17.644Z</time></trkpt><trkpt lat="43.918605" lon="12.08031"><ele>690.3333333333334</ele><time>2026-04-30T10:31:18.645Z</time></trkpt><trkpt lat="43.9185433" lon="12.0803917"><ele>690.5</ele><time>2026-04-30T10:31:19.644Z</time></trkpt><trkpt lat="43.9184883" lon="12.0804533"><ele>690.6666666666667</ele><time>2026-04-30T10:31:20.645Z</time></trkpt><trkpt lat="43.9184017" lon="12.08055"><ele>690.8333333333334</ele><time>2026-04-30T10:31:22.648Z</time></trkpt><trkpt lat="43.91833" lon="12.0805667"><ele>691.0</ele><time>2026-04-30T10:31:24.64Z</time></trkpt><trkpt lat="43.9183183" lon="12.0804733"><ele>691.0</ele><time>2026-04-30T10:31:27.648Z</time></trkpt><trkpt lat="43.9183783" lon="12.080415"><ele>691.0</ele><time>2026-04-30T10:31:29.648Z</time></trkpt><trkpt lat="43.91845" lon="12.0803367"><ele>691.0</ele><time>2026-04-30T10:31:31.643Z</time></trkpt><trkpt lat="43.91852" lon="12.08024"><ele>691.0</ele><time>2026-04-30T10:31:33.648Z</time></trkpt><trkpt lat="43.918565" lon="12.0801083"><ele>691.0</ele><time>2026-04-30T10:31:35.649Z</time></trkpt><trkpt lat="43.9185867" lon="12.0799183"><ele>690.8</ele><time>2026-04-30T10:31:37.65Z</time></trkpt><trkpt lat="43.9185817" lon="12.079765"><ele>690.5999999999999</ele><time>2026-04-30T10:31:38.652Z</time></trkpt><trkpt lat="43.9185833" lon="12.079615"><ele>690.4</ele><time>2026-04-30T10:31:39.656Z</time></trkpt><trkpt lat="43.9185917" lon="12.0794783"><ele>690.2</ele><time>2026-04-30T10:31:40.643Z</time></trkpt><trkpt lat="43.918595" lon="12.0793483"><ele>690.0</ele><time>2026-04-30T10:31:41.65Z</time></trkpt><trkpt lat="43.918605" lon="12.0792217"><ele>687.6</ele><time>2026-04-30T10:31:42.645Z</time></trkpt><trkpt lat="43.9186283" lon="12.079095"><ele>685.2</ele><time>2026-04-30T10:31:43.646Z</time></trkpt><trkpt lat="43.9186733" lon="12.0789717"><ele>682.8</ele><time>2026-04-30T10:31:44.64Z</time></trkpt><trkpt lat="43.9187267" lon="12.0788667"><ele>680.4</ele><time>2026-04-30T10:31:45.641Z</time></trkpt><trkpt lat="43.918775" lon="12.07877"><ele>678.0</ele><time>2026-04-30T10:31:46.655Z</time></trkpt><trkpt lat="43.9188067" lon="12.0786667"><ele>678.0</ele><time>2026-04-30T10:31:47.64Z</time></trkpt><trkpt lat="43.91882" lon="12.07857"><ele>678.0</ele><time>2026-04-30T10:31:48.645Z</time></trkpt><trkpt lat="43.9188083" lon="12.0784783"><ele>678.0</ele><time>2026-04-30T10:31:49.646Z</time></trkpt><trkpt lat="43.918775" lon="12.0783933"><ele>678.0</ele><time>2026-04-30T10:31:50.641Z</time></trkpt><trkpt lat="43.9187117" lon="12.078315"><ele>678.0</ele><time>2026-04-30T10:31:51.649Z</time></trkpt><trkpt lat="43.9185967" lon="12.07829"><ele>678.0</ele><time>2026-04-30T10:31:52.647Z</time></trkpt><trkpt lat="43.9184917" lon="12.0782817"><ele>675.0</ele><time>2026-04-30T10:31:53.643Z</time></trkpt><trkpt lat="43.9183917" lon="12.078275"><ele>672.0</ele><time>2026-04-30T10:31:54.649Z</time></trkpt><trkpt lat="43.9183017" lon="12.0782567"><ele>669.0</ele><time>2026-04-30T10:31:55.649Z</time></trkpt><trkpt lat="43.91822" lon="12.07822"><ele>666.0</ele><time>2026-04-30T10:31:56.639Z</time></trkpt><trkpt lat="43.91815" lon="12.0781633"><ele>663.0</ele><time>2026-04-30T10:31:57.652Z</time></trkpt><trkpt lat="43.9181017" lon="12.078075"><ele>660.0</ele><time>2026-04-30T10:31:58.642Z</time></trkpt><trkpt lat="43.9180717" lon="12.0779517"><ele>660.0</ele><time>2026-04-30T10:31:59.656Z</time></trkpt><trkpt lat="43.918055" lon="12.077805"><ele>660.0</ele><time>2026-04-30T10:32:00.647Z</time></trkpt><trkpt lat="43.91804" lon="12.07766"><ele>660.0</ele><time>2026-04-30T10:32:01.649Z</time></trkpt><trkpt lat="43.9180167" lon="12.07753"><ele>660.0</ele><time>2026-04-30T10:32:02.649Z</time></trkpt><trkpt lat="43.9179883" lon="12.0774133"><ele>660.0</ele><time>2026-04-30T10:32:03.652Z</time></trkpt><trkpt lat="43.917955" lon="12.0773017"><ele>659.6</ele><time>2026-04-30T10:32:04.65Z</time></trkpt><trkpt lat="43.91792" lon="12.0771867"><ele>659.2</ele><time>2026-04-30T10:32:05.638Z</time></trkpt><trkpt lat="43.9178933" lon="12.0770667"><ele>658.8</ele><time>2026-04-30T10:32:06.652Z</time></trkpt><trkpt lat="43.9178717" lon="12.0769417"><ele>658.4</ele><time>2026-04-30T10:32:07.647Z</time></trkpt><trkpt lat="43.9178533" lon="12.07682"><ele>658.0</ele><time>2026-04-30T10:32:08.653Z</time></trkpt><trkpt lat="43.9178433" lon="12.0766917"><ele>657.2</ele><time>2026-04-30T10:32:09.643Z</time></trkpt><trkpt lat="43.91784" lon="12.076545"><ele>656.4</ele><time>2026-04-30T10:32:10.647Z</time></trkpt><trkpt lat="43.9178417" lon="12.0763983"><ele>655.6</ele><time>2026-04-30T10:32:11.644Z</time></trkpt><trkpt lat="43.917845" lon="12.0762483"><ele>654.8000000000001</ele><time>2026-04-30T10:32:12.651Z</time></trkpt><trkpt lat="43.9178517" lon="12.07611"><ele>654.0</ele><time>2026-04-30T10:32:13.647Z</time></trkpt><trkpt lat="43.9178633" lon="12.0759733"><ele>654.0</ele><time>2026-04-30T10:32:14.648Z</time></trkpt><trkpt lat="43.9178817" lon="12.0758283"><ele>654.0</ele><time>2026-04-30T10:32:15.643Z</time></trkpt><trkpt lat="43.9179017" lon="12.0756733"><ele>654.0</ele><time>2026-04-30T10:32:16.656Z</time></trkpt><trkpt lat="43.9179233" lon="12.0755133"><ele>654.0</ele><time>2026-04-30T10:32:17.643Z</time></trkpt><trkpt lat="43.917945" lon="12.075365"><ele>654.0</ele><time>2026-04-30T10:32:18.649Z</time></trkpt><trkpt lat="43.9179583" lon="12.0752267"><ele>652.8333333333334</ele><time>2026-04-30T10:32:19.645Z</time></trkpt><trkpt lat="43.91797" lon="12.0750983"><ele>651.6666666666666</ele><time>2026-04-30T10:32:20.652Z</time></trkpt><trkpt lat="43.9179833" lon="12.07498"><ele>650.5</ele><time>2026-04-30T10:32:21.646Z</time></trkpt><trkpt lat="43.918" lon="12.0748683"><ele>649.3333333333333</ele><time>2026-04-30T10:32:22.646Z</time></trkpt><trkpt lat="43.918015" lon="12.074765"><ele>648.1666666666666</ele><time>2026-04-30T10:32:23.641Z</time></trkpt><trkpt lat="43.9180283" lon="12.07467"><ele>647.0</ele><time>2026-04-30T10:32:24.651Z</time></trkpt><trkpt lat="43.91804" lon="12.074525"><ele>645.1666666666666</ele><time>2026-04-30T10:32:26.655Z</time></trkpt><trkpt lat="43.917995" lon="12.0744333"><ele>643.3333333333333</ele><time>2026-04-30T10:32:28.644Z</time></trkpt><trkpt lat="43.9179267" lon="12.07442"><ele>641.5</ele><time>2026-04-30T10:32:30.645Z</time></trkpt><trkpt lat="43.91787" lon="12.0744967"><ele>639.6666666666666</ele><time>2026-04-30T10:32:32.641Z</time></trkpt><trkpt lat="43.9178613" lon="12.0746299"><ele>637.8333333333334</ele><time>2026-04-30T10:32:35.67Z</time></trkpt><trkpt lat="43.917816" lon="12.0747416"><ele>636.0</ele><time>2026-04-30T10:32:37.646Z</time></trkpt><trkpt lat="43.917767" lon="12.0748591"><ele>637.8333333333334</ele><time>2026-04-30T10:32:39.65Z</time></trkpt><trkpt lat="43.9177254" lon="12.0749691"><ele>639.6666666666666</ele><time>2026-04-30T10:32:41.701Z</time></trkpt><trkpt lat="43.9176916" lon="12.0750571"><ele>641.5</ele><time>2026-04-30T10:32:43.651Z</time></trkpt><trkpt lat="43.9176388" lon="12.0751633"><ele>643.3333333333333</ele><time>2026-04-30T10:32:45.646Z</time></trkpt><trkpt lat="43.917551" lon="12.0752827"><ele>645.1666666666666</ele><time>2026-04-30T10:32:47.643Z</time></trkpt><trkpt lat="43.9174962" lon="12.0753443"><ele>647.0</ele><time>2026-04-30T10:32:48.647Z</time></trkpt><trkpt lat="43.9174339" lon="12.0754053"><ele>642.2</ele><time>2026-04-30T10:32:49.638Z</time></trkpt><trkpt lat="43.9173593" lon="12.0754678"><ele>637.4000000000001</ele><time>2026-04-30T10:32:50.652Z</time></trkpt><trkpt lat="43.917279" lon="12.0755351"><ele>632.5999999999999</ele><time>2026-04-30T10:32:51.645Z</time></trkpt><trkpt lat="43.9171931" lon="12.0756061"><ele>627.8</ele><time>2026-04-30T10:32:52.651Z</time></trkpt><trkpt lat="43.9171026" lon="12.0756778"><ele>623.0</ele><time>2026-04-30T10:32:53.653Z</time></trkpt><trkpt lat="43.9170144" lon="12.0757453"><ele>624.6</ele><time>2026-04-30T10:32:54.664Z</time></trkpt><trkpt lat="43.91693" lon="12.0758083"><ele>626.1999999999999</ele><time>2026-04-30T10:32:55.649Z</time></trkpt><trkpt lat="43.916848" lon="12.07586"><ele>627.8</ele><time>2026-04-30T10:32:56.643Z</time></trkpt><trkpt lat="43.9167665" lon="12.0759051"><ele>629.4</ele><time>2026-04-30T10:32:57.647Z</time></trkpt><trkpt lat="43.9166797" lon="12.0759467"><ele>631.0</ele><time>2026-04-30T10:32:58.647Z</time></trkpt><trkpt lat="43.9165913" lon="12.0759789"><ele>628.0</ele><time>2026-04-30T10:32:59.654Z</time></trkpt><trkpt lat="43.9165047" lon="12.0760029"><ele>625.0</ele><time>2026-04-30T10:33:00.648Z</time></trkpt><trkpt lat="43.916421" lon="12.0760244"><ele>622.0</ele><time>2026-04-30T10:33:01.647Z</time></trkpt><trkpt lat="43.9163452" lon="12.0760501"><ele>619.0</ele><time>2026-04-30T10:33:02.651Z</time></trkpt><trkpt lat="43.9162798" lon="12.0760851"><ele>616.0</ele><time>2026-04-30T10:33:03.648Z</time></trkpt><trkpt lat="43.9162219" lon="12.0761275"><ele>613.0</ele><time>2026-04-30T10:33:04.645Z</time></trkpt><trkpt lat="43.9161703" lon="12.0761831"><ele>613.0</ele><time>2026-04-30T10:33:05.648Z</time></trkpt><trkpt lat="43.9161246" lon="12.076259"><ele>613.0</ele><time>2026-04-30T10:33:06.651Z</time></trkpt><trkpt lat="43.9160902" lon="12.0763552"><ele>613.0</ele><time>2026-04-30T10:33:07.649Z</time></trkpt><trkpt lat="43.9160745" lon="12.0764629"><ele>613.0</ele><time>2026-04-30T10:33:08.644Z</time></trkpt><trkpt lat="43.9160759" lon="12.0765776"><ele>613.0</ele><time>2026-04-30T10:33:09.65Z</time></trkpt><trkpt lat="43.9160989" lon="12.0767002"><ele>613.0</ele><time>2026-04-30T10:33:10.646Z</time></trkpt><trkpt lat="43.9161377" lon="12.0768329"><ele>613.0</ele><time>2026-04-30T10:33:11.652Z</time></trkpt><trkpt lat="43.9161806" lon="12.0769712"><ele>613.0</ele><time>2026-04-30T10:33:12.642Z</time></trkpt><trkpt lat="43.9162151" lon="12.0771064"><ele>613.0</ele><time>2026-04-30T10:33:13.646Z</time></trkpt><trkpt lat="43.9162452" lon="12.0772351"><ele>613.0</ele><time>2026-04-30T10:33:14.642Z</time></trkpt><trkpt lat="43.9162698" lon="12.0773597"><ele>613.0</ele><time>2026-04-30T10:33:15.652Z</time></trkpt><trkpt lat="43.9162924" lon="12.0774823"><ele>612.8333333333334</ele><time>2026-04-30T10:33:16.649Z</time></trkpt><trkpt lat="43.9163074" lon="12.077603"><ele>612.6666666666667</ele><time>2026-04-30T10:33:17.648Z</time></trkpt><trkpt lat="43.9163163" lon="12.0777186"><ele>612.5</ele><time>2026-04-30T10:33:18.644Z</time></trkpt><trkpt lat="43.9163133" lon="12.07782"><ele>612.3333333333334</ele><time>2026-04-30T10:33:19.648Z</time></trkpt><trkpt lat="43.91631" lon="12.0779233"><ele>612.1666666666666</ele><time>2026-04-30T10:33:20.654Z</time></trkpt><trkpt lat="43.91631" lon="12.078035"><ele>612.0</ele><time>2026-04-30T10:33:21.64Z</time></trkpt><trkpt lat="43.916315" lon="12.0781533"><ele>611.8000000000001</ele><time>2026-04-30T10:33:22.649Z</time></trkpt><trkpt lat="43.9163233" lon="12.07828"><ele>611.6</ele><time>2026-04-30T10:33:23.64Z</time></trkpt><trkpt lat="43.916325" lon="12.07842"><ele>611.4000000000001</ele><time>2026-04-30T10:33:24.65Z</time></trkpt><trkpt lat="43.91632" lon="12.07855"><ele>611.2</ele><time>2026-04-30T10:33:25.643Z</time></trkpt><trkpt lat="43.916305" lon="12.0786783"><ele>611.0</ele><time>2026-04-30T10:33:26.641Z</time></trkpt><trkpt lat="43.9162917" lon="12.0788"><ele>611.0</ele><time>2026-04-30T10:33:27.65Z</time></trkpt><trkpt lat="43.9162783" lon="12.0789083"><ele>611.0</ele><time>2026-04-30T10:33:28.642Z</time></trkpt><trkpt lat="43.9162767" lon="12.07901"><ele>611.0</ele><time>2026-04-30T10:33:29.648Z</time></trkpt><trkpt lat="43.9163167" lon="12.0791567"><ele>611.0</ele><time>2026-04-30T10:33:31.651Z</time></trkpt><trkpt lat="43.9163967" lon="12.079295"><ele>611.0</ele><time>2026-04-30T10:33:33.65Z</time></trkpt><trkpt lat="43.9164517" lon="12.0794433"><ele>610.0</ele><time>2026-04-30T10:33:35.646Z</time></trkpt><trkpt lat="43.9164467" lon="12.07962"><ele>609.0</ele><time>2026-04-30T10:33:37.646Z</time></trkpt><trkpt lat="43.9164133" lon="12.079705"><ele>608.0</ele><time>2026-04-30T10:33:38.653Z</time></trkpt><trkpt lat="43.91636" lon="12.07979"><ele>607.0</ele><time>2026-04-30T10:33:39.649Z</time></trkpt><trkpt lat="43.9162933" lon="12.0798833"><ele>606.0</ele><time>2026-04-30T10:33:40.642Z</time></trkpt><trkpt lat="43.9162267" lon="12.07998"><ele>605.4</ele><time>2026-04-30T10:33:41.652Z</time></trkpt><trkpt lat="43.91616" lon="12.080085"><ele>604.8</ele><time>2026-04-30T10:33:42.65Z</time></trkpt><trkpt lat="43.9160917" lon="12.0802"><ele>604.1999999999999</ele><time>2026-04-30T10:33:43.648Z</time></trkpt><trkpt lat="43.9160233" lon="12.0803167"><ele>603.6</ele><time>2026-04-30T10:33:44.651Z</time></trkpt><trkpt lat="43.9159483" lon="12.0804183"><ele>603.0</ele><time>2026-04-30T10:33:45.65Z</time></trkpt><trkpt lat="43.9158733" lon="12.080525"><ele>598.4</ele><time>2026-04-30T10:33:46.648Z</time></trkpt><trkpt lat="43.9158033" lon="12.08064"><ele>593.8</ele><time>2026-04-30T10:33:47.649Z</time></trkpt><trkpt lat="43.915735" lon="12.0807467"><ele>589.2</ele><time>2026-04-30T10:33:48.65Z</time></trkpt><trkpt lat="43.9156717" lon="12.08085"><ele>584.6</ele><time>2026-04-30T10:33:49.654Z</time></trkpt><trkpt lat="43.915615" lon="12.08095"><ele>580.0</ele><time>2026-04-30T10:33:50.639Z</time></trkpt><trkpt lat="43.91557" lon="12.0810533"><ele>580.0</ele><time>2026-04-30T10:33:51.645Z</time></trkpt><trkpt lat="43.9155383" lon="12.0811633"><ele>580.0</ele><time>2026-04-30T10:33:52.643Z</time></trkpt><trkpt lat="43.9155083" lon="12.0812867"><ele>580.0</ele><time>2026-04-30T10:33:53.651Z</time></trkpt><trkpt lat="43.9154833" lon="12.0814142"><ele>580.0</ele><time>2026-04-30T10:33:54.644Z</time></trkpt><trkpt lat="43.9154591" lon="12.0815378"><ele>580.0</ele><time>2026-04-30T10:33:55.655Z</time></trkpt><trkpt lat="43.9154316" lon="12.0816547"><ele>581.2</ele><time>2026-04-30T10:33:56.646Z</time></trkpt><trkpt lat="43.91539" lon="12.0817763"><ele>582.4</ele><time>2026-04-30T10:33:57.648Z</time></trkpt><trkpt lat="43.9153357" lon="12.0818987"><ele>583.6</ele><time>2026-04-30T10:33:58.657Z</time></trkpt><trkpt lat="43.9152749" lon="12.0820165"><ele>584.8</ele><time>2026-04-30T10:33:59.641Z</time></trkpt><trkpt lat="43.9152124" lon="12.0821337"><ele>586.0</ele><time>2026-04-30T10:34:00.653Z</time></trkpt><trkpt lat="43.9151465" lon="12.0822485"><ele>586.0</ele><time>2026-04-30T10:34:01.65Z</time></trkpt><trkpt lat="43.9150815" lon="12.0823615"><ele>586.0</ele><time>2026-04-30T10:34:02.643Z</time></trkpt><trkpt lat="43.9150167" lon="12.0824614"><ele>586.0</ele><time>2026-04-30T10:34:03.639Z</time></trkpt><trkpt lat="43.9149483" lon="12.0825333"><ele>586.0</ele><time>2026-04-30T10:34:04.643Z</time></trkpt><trkpt lat="43.9148738" lon="12.0825736"><ele>586.0</ele><time>2026-04-30T10:34:05.657Z</time></trkpt><trkpt lat="43.9148002" lon="12.0825889"><ele>586.0</ele><time>2026-04-30T10:34:06.647Z</time></trkpt><trkpt lat="43.9147323" lon="12.0826045"><ele>581.2</ele><time>2026-04-30T10:34:07.647Z</time></trkpt><trkpt lat="43.9146491" lon="12.0826949"><ele>576.4000000000001</ele><time>2026-04-30T10:34:09.653Z</time></trkpt><trkpt lat="43.9146459" lon="12.0828458"><ele>571.6</ele><time>2026-04-30T10:34:11.648Z</time></trkpt><trkpt lat="43.9147306" lon="12.0829607"><ele>566.8000000000001</ele><time>2026-04-30T10:34:13.651Z</time></trkpt><trkpt lat="43.9148126" lon="12.0829741"><ele>562.0</ele><time>2026-04-30T10:34:14.642Z</time></trkpt><trkpt lat="43.9149061" lon="12.0829767"><ele>562.0</ele><time>2026-04-30T10:34:15.655Z</time></trkpt><trkpt lat="43.915027" lon="12.0829602"><ele>562.0</ele><time>2026-04-30T10:34:16.643Z</time></trkpt><trkpt lat="43.9151759" lon="12.082929"><ele>562.0</ele><time>2026-04-30T10:34:17.642Z</time></trkpt><trkpt lat="43.9153291" lon="12.0828899"><ele>562.0</ele><time>2026-04-30T10:34:18.647Z</time></trkpt><trkpt lat="43.9154804" lon="12.0828448"><ele>563.0</ele><time>2026-04-30T10:34:19.65Z</time></trkpt><trkpt lat="43.9156181" lon="12.0827998"><ele>564.0</ele><time>2026-04-30T10:34:20.642Z</time></trkpt><trkpt lat="43.9157475" lon="12.0827502"><ele>565.0</ele><time>2026-04-30T10:34:21.653Z</time></trkpt><trkpt lat="43.9158592" lon="12.0827125"><ele>566.0</ele><time>2026-04-30T10:34:22.645Z</time></trkpt><trkpt lat="43.9159558" lon="12.0827045"><ele>567.2</ele><time>2026-04-30T10:34:23.649Z</time></trkpt><trkpt lat="43.9160386" lon="12.0827307"><ele>568.4000000000001</ele><time>2026-04-30T10:34:24.641Z</time></trkpt><trkpt lat="43.9161175" lon="12.0827805"><ele>569.6</ele><time>2026-04-30T10:34:25.648Z</time></trkpt><trkpt lat="43.9161869" lon="12.0828653"><ele>570.8000000000001</ele><time>2026-04-30T10:34:26.648Z</time></trkpt><trkpt lat="43.9162456" lon="12.0830035"><ele>572.0</ele><time>2026-04-30T10:34:27.645Z</time></trkpt><trkpt lat="43.9163012" lon="12.0831615"><ele>566.75</ele><time>2026-04-30T10:34:28.649Z</time></trkpt><trkpt lat="43.9163535" lon="12.0833143"><ele>561.5</ele><time>2026-04-30T10:34:29.649Z</time></trkpt><trkpt lat="43.9164131" lon="12.0834564"><ele>556.25</ele><time>2026-04-30T10:34:30.648Z</time></trkpt><trkpt lat="43.916477" lon="12.0835832"><ele>551.0</ele><time>2026-04-30T10:34:31.651Z</time></trkpt><trkpt lat="43.9165395" lon="12.0837007"><ele>551.0</ele><time>2026-04-30T10:34:32.644Z</time></trkpt><trkpt lat="43.9166055" lon="12.0838065"><ele>551.0</ele><time>2026-04-30T10:34:33.654Z</time></trkpt><trkpt lat="43.916661" lon="12.0839105"><ele>551.0</ele><time>2026-04-30T10:34:34.645Z</time></trkpt><trkpt lat="43.9167008" lon="12.0840431"><ele>551.0</ele><time>2026-04-30T10:34:35.641Z</time></trkpt><trkpt lat="43.9167273" lon="12.0842034"><ele>551.0</ele><time>2026-04-30T10:34:36.642Z</time></trkpt><trkpt lat="43.9167445" lon="12.0843728"><ele>549.4</ele><time>2026-04-30T10:34:37.647Z</time></trkpt><trkpt lat="43.9167559" lon="12.0845305"><ele>547.8</ele><time>2026-04-30T10:34:38.646Z</time></trkpt><trkpt lat="43.9167726" lon="12.0846678"><ele>546.1999999999999</ele><time>2026-04-30T10:34:39.641Z</time></trkpt><trkpt lat="43.9168036" lon="12.0847933"><ele>544.6</ele><time>2026-04-30T10:34:40.649Z</time></trkpt><trkpt lat="43.916852" lon="12.0849002"><ele>543.0</ele><time>2026-04-30T10:34:41.653Z</time></trkpt><trkpt lat="43.9169003" lon="12.0849901"><ele>543.0</ele><time>2026-04-30T10:34:42.641Z</time></trkpt><trkpt lat="43.9169384" lon="12.0850687"><ele>543.0</ele><time>2026-04-30T10:34:43.648Z</time></trkpt><trkpt lat="43.916957" lon="12.0852061"><ele>543.0</ele><time>2026-04-30T10:34:45.657Z</time></trkpt><trkpt lat="43.9168836" lon="12.0852572"><ele>543.0</ele><time>2026-04-30T10:34:47.658Z</time></trkpt><trkpt lat="43.9168234" lon="12.0852274"><ele>543.0</ele><time>2026-04-30T10:34:48.642Z</time></trkpt><trkpt lat="43.9167621" lon="12.0851648"><ele>543.0</ele><time>2026-04-30T10:34:49.651Z</time></trkpt><trkpt lat="43.9166977" lon="12.0850701"><ele>542.0</ele><time>2026-04-30T10:34:50.643Z</time></trkpt><trkpt lat="43.9166276" lon="12.084954"><ele>541.0</ele><time>2026-04-30T10:34:51.649Z</time></trkpt><trkpt lat="43.9165545" lon="12.0848338"><ele>540.0</ele><time>2026-04-30T10:34:52.649Z</time></trkpt><trkpt lat="43.9164775" lon="12.0847147"><ele>539.0</ele><time>2026-04-30T10:34:53.648Z</time></trkpt><trkpt lat="43.9163969" lon="12.0846004"><ele>539.0</ele><time>2026-04-30T10:34:54.657Z</time></trkpt><trkpt lat="43.9163107" lon="12.0844941"><ele>539.0</ele><time>2026-04-30T10:34:55.643Z</time></trkpt><trkpt lat="43.9162245" lon="12.0843956"><ele>539.0</ele><time>2026-04-30T10:34:56.644Z</time></trkpt><trkpt lat="43.9161417" lon="12.0843051"><ele>539.0</ele><time>2026-04-30T10:34:57.658Z</time></trkpt><trkpt lat="43.9160658" lon="12.0842268"><ele>539.0</ele><time>2026-04-30T10:34:58.648Z</time></trkpt><trkpt lat="43.9160004" lon="12.0841511"><ele>539.3333333333333</ele><time>2026-04-30T10:34:59.649Z</time></trkpt><trkpt lat="43.9159483" lon="12.0840833"><ele>539.6666666666666</ele><time>2026-04-30T10:35:00.648Z</time></trkpt><trkpt lat="43.9158433" lon="12.0840167"><ele>540.0</ele><time>2026-04-30T10:35:02.652Z</time></trkpt><trkpt lat="43.915765" lon="12.084055"><ele>540.3333333333334</ele><time>2026-04-30T10:35:04.643Z</time></trkpt><trkpt lat="43.91577" lon="12.0841567"><ele>540.6666666666667</ele><time>2026-04-30T10:35:05.643Z</time></trkpt><trkpt lat="43.9157833" lon="12.0842617"><ele>541.0</ele><time>2026-04-30T10:35:06.646Z</time></trkpt><trkpt lat="43.9157967" lon="12.084375"><ele>540.6666666666667</ele><time>2026-04-30T10:35:07.654Z</time></trkpt><trkpt lat="43.9158183" lon="12.08449"><ele>540.3333333333334</ele><time>2026-04-30T10:35:08.648Z</time></trkpt><trkpt lat="43.9158433" lon="12.0846033"><ele>540.0</ele><time>2026-04-30T10:35:09.648Z</time></trkpt><trkpt lat="43.91588" lon="12.0847017"><ele>539.6666666666666</ele><time>2026-04-30T10:35:10.661Z</time></trkpt><trkpt lat="43.9159133" lon="12.0847917"><ele>539.3333333333333</ele><time>2026-04-30T10:35:11.652Z</time></trkpt><trkpt lat="43.915995" lon="12.08491"><ele>539.0</ele><time>2026-04-30T10:35:13.646Z</time></trkpt><trkpt lat="43.9160983" lon="12.084995"><ele>537.1428571428571</ele><time>2026-04-30T10:35:15.659Z</time></trkpt><trkpt lat="43.91616" lon="12.08504"><ele>535.2857142857142</ele><time>2026-04-30T10:35:16.651Z</time></trkpt><trkpt lat="43.9162233" lon="12.0850867"><ele>533.4285714285714</ele><time>2026-04-30T10:35:17.644Z</time></trkpt><trkpt lat="43.9162833" lon="12.0851367"><ele>531.5714285714286</ele><time>2026-04-30T10:35:18.654Z</time></trkpt><trkpt lat="43.91634" lon="12.08519"><ele>529.7142857142857</ele><time>2026-04-30T10:35:19.646Z</time></trkpt><trkpt lat="43.91639" lon="12.0852483"><ele>527.8571428571429</ele><time>2026-04-30T10:35:20.653Z</time></trkpt><trkpt lat="43.9164283" lon="12.08538"><ele>526.0</ele><time>2026-04-30T10:35:22.642Z</time></trkpt><trkpt lat="43.9163883" lon="12.08548"><ele>526.0</ele><time>2026-04-30T10:35:24.651Z</time></trkpt><trkpt lat="43.9162917" lon="12.0854783"><ele>526.0</ele><time>2026-04-30T10:35:26.644Z</time></trkpt><trkpt lat="43.9161733" lon="12.085395"><ele>526.0</ele><time>2026-04-30T10:35:28.647Z</time></trkpt><trkpt lat="43.9161033" lon="12.0853483"><ele>526.0</ele><time>2026-04-30T10:35:29.645Z</time></trkpt><trkpt lat="43.9160317" lon="12.0853017"><ele>526.0</ele><time>2026-04-30T10:35:30.648Z</time></trkpt><trkpt lat="43.9159633" lon="12.0852717"><ele>522.3333333333334</ele><time>2026-04-30T10:35:31.643Z</time></trkpt><trkpt lat="43.9159" lon="12.0852533"><ele>518.6666666666667</ele><time>2026-04-30T10:35:32.648Z</time></trkpt><trkpt lat="43.9157933" lon="12.0852283"><ele>515.0</ele><time>2026-04-30T10:35:34.648Z</time></trkpt><trkpt lat="43.9156883" lon="12.0852183"><ele>511.33333333333337</ele><time>2026-04-30T10:35:36.65Z</time></trkpt><trkpt lat="43.915595" lon="12.0852067"><ele>507.6666666666667</ele><time>2026-04-30T10:35:38.642Z</time></trkpt><trkpt lat="43.9155233" lon="12.0852133"><ele>504.0</ele><time>2026-04-30T10:35:40.651Z</time></trkpt><trkpt lat="43.9154417" lon="12.0851783"><ele>504.0</ele><time>2026-04-30T10:40:13.645Z</time></trkpt><trkpt lat="43.91538" lon="12.0851067"><ele>504.0</ele><time>2026-04-30T10:40:15.645Z</time></trkpt><trkpt lat="43.9153267" lon="12.084995"><ele>504.0</ele><time>2026-04-30T10:40:17.652Z</time></trkpt><trkpt lat="43.9152906" lon="12.0848658"><ele>504.0</ele><time>2026-04-30T10:40:19.647Z</time></trkpt><trkpt lat="43.9152551" lon="12.0847024"><ele>504.0</ele><time>2026-04-30T10:40:21.652Z</time></trkpt><trkpt lat="43.9152281" lon="12.0846119"><ele>503.7142857142857</ele><time>2026-04-30T10:40:22.654Z</time></trkpt><trkpt lat="43.9152015" lon="12.084526"><ele>503.42857142857144</ele><time>2026-04-30T10:40:23.647Z</time></trkpt><trkpt lat="43.9151683" lon="12.0844454"><ele>503.1428571428571</ele><time>2026-04-30T10:40:24.648Z</time></trkpt><trkpt lat="43.9151253" lon="12.0843716"><ele>502.85714285714283</ele><time>2026-04-30T10:40:25.643Z</time></trkpt><trkpt lat="43.9150714" lon="12.0843139"><ele>502.57142857142856</ele><time>2026-04-30T10:40:26.655Z</time></trkpt><trkpt lat="43.9150065" lon="12.0842785"><ele>502.2857142857142</ele><time>2026-04-30T10:40:27.654Z</time></trkpt><trkpt lat="43.9149342" lon="12.084261"><ele>501.99999999999994</ele><time>2026-04-30T10:40:28.648Z</time></trkpt><trkpt lat="43.914853" lon="12.0842527"><ele>502.00000000000006</ele><time>2026-04-30T10:40:29.66Z</time></trkpt><trkpt lat="43.9147703" lon="12.0842523"><ele>502.0</ele><time>2026-04-30T10:40:30.648Z</time></trkpt><trkpt lat="43.9146877" lon="12.0842595"><ele>502.0</ele><time>2026-04-30T10:40:31.647Z</time></trkpt><trkpt lat="43.9146061" lon="12.0842694"><ele>502.0</ele><time>2026-04-30T10:40:32.638Z</time></trkpt><trkpt lat="43.9145277" lon="12.0842748"><ele>502.00000000000006</ele><time>2026-04-30T10:40:33.647Z</time></trkpt><trkpt lat="43.9144483" lon="12.0842734"><ele>502.0</ele><time>2026-04-30T10:40:34.647Z</time></trkpt><trkpt lat="43.9143667" lon="12.0842717"><ele>502.00000000000006</ele><time>2026-04-30T10:40:35.645Z</time></trkpt><trkpt lat="43.9142821" lon="12.0842771"><ele>502.0</ele><time>2026-04-30T10:40:36.649Z</time></trkpt><trkpt lat="43.9141931" lon="12.0842796"><ele>502.0</ele><time>2026-04-30T10:40:37.643Z</time></trkpt><trkpt lat="43.9141008" lon="12.0842829"><ele>502.0</ele><time>2026-04-30T10:40:38.651Z</time></trkpt><trkpt lat="43.9140148" lon="12.0842814"><ele>502.00000000000006</ele><time>2026-04-30T10:40:39.65Z</time></trkpt><trkpt lat="43.9139344" lon="12.0842869"><ele>502.0</ele><time>2026-04-30T10:40:40.644Z</time></trkpt><trkpt lat="43.9138538" lon="12.0843006"><ele>500.00000000000006</ele><time>2026-04-30T10:40:41.643Z</time></trkpt><trkpt lat="43.9137758" lon="12.0843233"><ele>498.0</ele><time>2026-04-30T10:40:42.648Z</time></trkpt><trkpt lat="43.9137028" lon="12.0843558"><ele>496.0</ele><time>2026-04-30T10:40:43.65Z</time></trkpt><trkpt lat="43.9136321" lon="12.0843975"><ele>494.0</ele><time>2026-04-30T10:40:44.642Z</time></trkpt><trkpt lat="43.9135594" lon="12.084442"><ele>492.00000000000006</ele><time>2026-04-30T10:40:45.653Z</time></trkpt><trkpt lat="43.9134946" lon="12.0844778"><ele>490.0</ele><time>2026-04-30T10:40:46.643Z</time></trkpt><trkpt lat="43.9134275" lon="12.0844979"><ele>488.0</ele><time>2026-04-30T10:40:47.649Z</time></trkpt><trkpt lat="43.9133595" lon="12.0844908"><ele>486.0</ele><time>2026-04-30T10:40:48.648Z</time></trkpt><trkpt lat="43.913265" lon="12.0843959"><ele>484.0</ele><time>2026-04-30T10:40:50.641Z</time></trkpt><trkpt lat="43.9132475" lon="12.0842238"><ele>482.0</ele><time>2026-04-30T10:40:52.644Z</time></trkpt><trkpt lat="43.9132631" lon="12.0841094"><ele>480.0</ele><time>2026-04-30T10:40:53.642Z</time></trkpt><trkpt lat="43.9132851" lon="12.083993"><ele>480.0</ele><time>2026-04-30T10:40:54.651Z</time></trkpt><trkpt lat="43.9133021" lon="12.083885"><ele>480.0</ele><time>2026-04-30T10:40:55.651Z</time></trkpt><trkpt lat="43.9133129" lon="12.0837818"><ele>480.0</ele><time>2026-04-30T10:40:56.651Z</time></trkpt><trkpt lat="43.9133137" lon="12.0836741"><ele>480.0</ele><time>2026-04-30T10:40:57.663Z</time></trkpt><trkpt lat="43.9132903" lon="12.0835602"><ele>480.0</ele><time>2026-04-30T10:40:58.641Z</time></trkpt><trkpt lat="43.9132421" lon="12.0834468"><ele>480.0</ele><time>2026-04-30T10:40:59.651Z</time></trkpt><trkpt lat="43.9131905" lon="12.0833378"><ele>479.6</ele><time>2026-04-30T10:41:00.649Z</time></trkpt><trkpt lat="43.913145" lon="12.083223"><ele>479.2</ele><time>2026-04-30T10:41:01.641Z</time></trkpt><trkpt lat="43.9131043" lon="12.0831135"><ele>478.79999999999995</ele><time>2026-04-30T10:41:02.646Z</time></trkpt><trkpt lat="43.9130707" lon="12.0830002"><ele>478.4</ele><time>2026-04-30T10:41:03.649Z</time></trkpt><trkpt lat="43.9130494" lon="12.0828798"><ele>478.0</ele><time>2026-04-30T10:41:04.639Z</time></trkpt><trkpt lat="43.9130417" lon="12.0827536"><ele>478.00000000000006</ele><time>2026-04-30T10:41:05.64Z</time></trkpt><trkpt lat="43.913044" lon="12.0826314"><ele>478.0</ele><time>2026-04-30T10:41:06.651Z</time></trkpt><trkpt lat="43.9130467" lon="12.082509"><ele>478.0</ele><time>2026-04-30T10:41:07.648Z</time></trkpt><trkpt lat="43.9130388" lon="12.0823876"><ele>478.0</ele><time>2026-04-30T10:41:08.642Z</time></trkpt><trkpt lat="43.9130199" lon="12.0822671"><ele>478.00000000000006</ele><time>2026-04-30T10:41:09.651Z</time></trkpt><trkpt lat="43.9129956" lon="12.0821525"><ele>478.0</ele><time>2026-04-30T10:41:10.647Z</time></trkpt><trkpt lat="43.9129676" lon="12.0820435"><ele>477.83333333333337</ele><time>2026-04-30T10:41:11.646Z</time></trkpt><trkpt lat="43.9129438" lon="12.0819419"><ele>477.6666666666667</ele><time>2026-04-30T10:41:12.654Z</time></trkpt><trkpt lat="43.9129308" lon="12.0818421"><ele>477.5</ele><time>2026-04-30T10:41:13.648Z</time></trkpt><trkpt lat="43.9129268" lon="12.0817386"><ele>477.33333333333337</ele><time>2026-04-30T10:41:14.645Z</time></trkpt><trkpt lat="43.9129345" lon="12.0816275"><ele>477.1666666666667</ele><time>2026-04-30T10:41:15.651Z</time></trkpt><trkpt lat="43.9129551" lon="12.0815227"><ele>477.0</ele><time>2026-04-30T10:41:16.637Z</time></trkpt><trkpt lat="43.9129844" lon="12.0814285"><ele>476.6</ele><time>2026-04-30T10:41:17.644Z</time></trkpt><trkpt lat="43.9130242" lon="12.0813451"><ele>476.20000000000005</ele><time>2026-04-30T10:41:18.65Z</time></trkpt><trkpt lat="43.9130614" lon="12.0812657"><ele>475.8</ele><time>2026-04-30T10:41:19.642Z</time></trkpt><trkpt lat="43.9130841" lon="12.0811253"><ele>475.4</ele><time>2026-04-30T10:41:21.652Z</time></trkpt><trkpt lat="43.9130371" lon="12.0810107"><ele>475.0</ele><time>2026-04-30T10:41:23.65Z</time></trkpt><trkpt lat="43.9129212" lon="12.0810285"><ele>475.0</ele><time>2026-04-30T10:41:25.64Z</time></trkpt><trkpt lat="43.9128376" lon="12.0811085"><ele>475.0</ele><time>2026-04-30T10:41:26.646Z</time></trkpt><trkpt lat="43.9127621" lon="12.0812159"><ele>475.0</ele><time>2026-04-30T10:41:27.646Z</time></trkpt><trkpt lat="43.912694" lon="12.0813337"><ele>475.0</ele><time>2026-04-30T10:41:28.647Z</time></trkpt><trkpt lat="43.9126335" lon="12.0814649"><ele>475.0</ele><time>2026-04-30T10:41:29.646Z</time></trkpt><trkpt lat="43.9125846" lon="12.0816001"><ele>472.6</ele><time>2026-04-30T10:41:30.651Z</time></trkpt><trkpt lat="43.9125483" lon="12.0817336"><ele>470.2</ele><time>2026-04-30T10:41:31.643Z</time></trkpt><trkpt lat="43.9125147" lon="12.0818854"><ele>467.79999999999995</ele><time>2026-04-30T10:41:32.647Z</time></trkpt><trkpt lat="43.9124807" lon="12.0820391"><ele>465.4</ele><time>2026-04-30T10:41:33.654Z</time></trkpt><trkpt lat="43.9124498" lon="12.0821734"><ele>463.0</ele><time>2026-04-30T10:41:34.643Z</time></trkpt><trkpt lat="43.9124202" lon="12.0822975"><ele>463.0</ele><time>2026-04-30T10:41:35.648Z</time></trkpt><trkpt lat="43.9123869" lon="12.0824168"><ele>462.99999999999994</ele><time>2026-04-30T10:41:36.65Z</time></trkpt><trkpt lat="43.9123579" lon="12.0825397"><ele>462.99999999999994</ele><time>2026-04-30T10:41:37.649Z</time></trkpt><trkpt lat="43.9123345" lon="12.0826675"><ele>463.0</ele><time>2026-04-30T10:41:38.644Z</time></trkpt><trkpt lat="43.9123131" lon="12.0827962"><ele>463.0</ele><time>2026-04-30T10:41:39.65Z</time></trkpt><trkpt lat="43.9122924" lon="12.0829283"><ele>460.79999999999995</ele><time>2026-04-30T10:41:40.651Z</time></trkpt><trkpt lat="43.9122732" lon="12.0830703"><ele>458.59999999999997</ele><time>2026-04-30T10:41:41.644Z</time></trkpt><trkpt lat="43.9122493" lon="12.0832239"><ele>456.40000000000003</ele><time>2026-04-30T10:41:42.643Z</time></trkpt><trkpt lat="43.9122313" lon="12.0833859"><ele>454.20000000000005</ele><time>2026-04-30T10:41:43.652Z</time></trkpt><trkpt lat="43.9122176" lon="12.0835271"><ele>452.0</ele><time>2026-04-30T10:41:44.649Z</time></trkpt><trkpt lat="43.9121985" lon="12.0836505"><ele>450.99999999999994</ele><time>2026-04-30T10:41:45.642Z</time></trkpt><trkpt lat="43.9121708" lon="12.0837631"><ele>450.0</ele><time>2026-04-30T10:41:46.645Z</time></trkpt><trkpt lat="43.91213" lon="12.083861"><ele>449.0</ele><time>2026-04-30T10:41:47.643Z</time></trkpt><trkpt lat="43.9120945" lon="12.0839477"><ele>448.0</ele><time>2026-04-30T10:41:48.65Z</time></trkpt><trkpt lat="43.9120705" lon="12.0840307"><ele>446.99999999999994</ele><time>2026-04-30T10:41:49.641Z</time></trkpt><trkpt lat="43.9120754" lon="12.0841928"><ele>446.0</ele><time>2026-04-30T10:41:51.657Z</time></trkpt><trkpt lat="43.9121176" lon="12.0842833"><ele>445.49999999999994</ele><time>2026-04-30T10:41:52.649Z</time></trkpt><trkpt lat="43.9121688" lon="12.0843779"><ele>445.0</ele><time>2026-04-30T10:41:53.648Z</time></trkpt><trkpt lat="43.9122163" lon="12.0844814"><ele>444.5</ele><time>2026-04-30T10:41:54.642Z</time></trkpt><trkpt lat="43.9122483" lon="12.0845877"><ele>444.0</ele><time>2026-04-30T10:41:55.648Z</time></trkpt><trkpt lat="43.9122504" lon="12.0846886"><ele>443.49999999999994</ele><time>2026-04-30T10:41:56.646Z</time></trkpt><trkpt lat="43.9122265" lon="12.0847715"><ele>443.0</ele><time>2026-04-30T10:41:57.652Z</time></trkpt><trkpt lat="43.9121794" lon="12.0848398"><ele>442.99999999999994</ele><time>2026-04-30T10:41:58.644Z</time></trkpt><trkpt lat="43.9121133" lon="12.0849033"><ele>443.0</ele><time>2026-04-30T10:41:59.651Z</time></trkpt><trkpt lat="43.91206" lon="12.0849667"><ele>443.0</ele><time>2026-04-30T10:42:00.644Z</time></trkpt><trkpt lat="43.9120117" lon="12.0850367"><ele>443.0</ele><time>2026-04-30T10:42:01.649Z</time></trkpt><trkpt lat="43.9119567" lon="12.0851867"><ele>442.99999999999994</ele><time>2026-04-30T10:42:03.648Z</time></trkpt><trkpt lat="43.9119783" lon="12.085315"><ele>443.0</ele><time>2026-04-30T10:42:05.647Z</time></trkpt><trkpt lat="43.912025" lon="12.0853817"><ele>441.66666666666663</ele><time>2026-04-30T10:42:06.641Z</time></trkpt><trkpt lat="43.9121" lon="12.0854467"><ele>440.3333333333333</ele><time>2026-04-30T10:42:07.644Z</time></trkpt><trkpt lat="43.9121467" lon="12.08553"><ele>439.0</ele><time>2026-04-30T10:42:08.652Z</time></trkpt><trkpt lat="43.9121867" lon="12.085625"><ele>437.66666666666663</ele><time>2026-04-30T10:42:09.664Z</time></trkpt><trkpt lat="43.9122067" lon="12.0857233"><ele>436.3333333333333</ele><time>2026-04-30T10:42:10.644Z</time></trkpt><trkpt lat="43.9122167" lon="12.0858217"><ele>435.0</ele><time>2026-04-30T10:42:11.646Z</time></trkpt><trkpt lat="43.9122083" lon="12.0859167"><ele>434.3333333333333</ele><time>2026-04-30T10:42:12.645Z</time></trkpt><trkpt lat="43.91219" lon="12.0860033"><ele>433.66666666666663</ele><time>2026-04-30T10:42:13.648Z</time></trkpt><trkpt lat="43.9121567" lon="12.0860833"><ele>433.0</ele><time>2026-04-30T10:42:14.645Z</time></trkpt><trkpt lat="43.91212" lon="12.0861567"><ele>432.3333333333333</ele><time>2026-04-30T10:42:15.645Z</time></trkpt><trkpt lat="43.912085" lon="12.0862583"><ele>431.66666666666663</ele><time>2026-04-30T10:42:16.647Z</time></trkpt><trkpt lat="43.91206" lon="12.0863933"><ele>431.0</ele><time>2026-04-30T10:42:17.647Z</time></trkpt><trkpt lat="43.9120367" lon="12.0865517"><ele>431.6</ele><time>2026-04-30T10:42:18.643Z</time></trkpt><trkpt lat="43.9120133" lon="12.0866983"><ele>432.20000000000005</ele><time>2026-04-30T10:42:19.658Z</time></trkpt><trkpt lat="43.91199" lon="12.086835"><ele>432.79999999999995</ele><time>2026-04-30T10:42:20.648Z</time></trkpt><trkpt lat="43.9119667" lon="12.08697"><ele>433.4</ele><time>2026-04-30T10:42:21.65Z</time></trkpt><trkpt lat="43.9119433" lon="12.0871083"><ele>434.0</ele><time>2026-04-30T10:42:22.645Z</time></trkpt><trkpt lat="43.9119283" lon="12.0872317"><ele>434.0</ele><time>2026-04-30T10:42:23.648Z</time></trkpt><trkpt lat="43.9119133" lon="12.0873417"><ele>434.0</ele><time>2026-04-30T10:42:24.641Z</time></trkpt><trkpt lat="43.9119067" lon="12.087445"><ele>434.0</ele><time>2026-04-30T10:42:25.648Z</time></trkpt><trkpt lat="43.9119217" lon="12.0875367"><ele>434.0</ele><time>2026-04-30T10:42:26.647Z</time></trkpt><trkpt lat="43.9119433" lon="12.0876317"><ele>434.0</ele><time>2026-04-30T10:42:27.646Z</time></trkpt><trkpt lat="43.911985" lon="12.0877083"><ele>434.0</ele><time>2026-04-30T10:42:28.64Z</time></trkpt><trkpt lat="43.91204" lon="12.0877817"><ele>434.0</ele><time>2026-04-30T10:42:29.651Z</time></trkpt><trkpt lat="43.9121533" lon="12.0877967"><ele>436.4</ele><time>2026-04-30T10:42:30.644Z</time></trkpt><trkpt lat="43.9122633" lon="12.08778"><ele>438.79999999999995</ele><time>2026-04-30T10:42:31.649Z</time></trkpt><trkpt lat="43.91238" lon="12.0877583"><ele>441.20000000000005</ele><time>2026-04-30T10:42:32.653Z</time></trkpt><trkpt lat="43.9124817" lon="12.0877367"><ele>443.6</ele><time>2026-04-30T10:42:33.648Z</time></trkpt><trkpt lat="43.91258" lon="12.0877217"><ele>446.0</ele><time>2026-04-30T10:42:34.653Z</time></trkpt><trkpt lat="43.9126717" lon="12.0877117"><ele>441.99999999999994</ele><time>2026-04-30T10:42:35.645Z</time></trkpt><trkpt lat="43.9127517" lon="12.087715"><ele>438.0</ele><time>2026-04-30T10:42:36.641Z</time></trkpt><trkpt lat="43.9128267" lon="12.0877367"><ele>434.0</ele><time>2026-04-30T10:42:37.642Z</time></trkpt><trkpt lat="43.9128917" lon="12.0877767"><ele>430.0</ele><time>2026-04-30T10:42:38.651Z</time></trkpt><trkpt lat="43.9129667" lon="12.0879267"><ele>425.99999999999994</ele><time>2026-04-30T10:42:40.646Z</time></trkpt><trkpt lat="43.9129817" lon="12.088025"><ele>422.0</ele><time>2026-04-30T10:42:41.648Z</time></trkpt><trkpt lat="43.912985" lon="12.0881333"><ele>421.99999999999994</ele><time>2026-04-30T10:42:42.645Z</time></trkpt><trkpt lat="43.9129783" lon="12.0882483"><ele>422.0</ele><time>2026-04-30T10:42:43.65Z</time></trkpt><trkpt lat="43.912985" lon="12.0883617"><ele>422.0</ele><time>2026-04-30T10:42:44.651Z</time></trkpt><trkpt lat="43.912995" lon="12.0884833"><ele>422.0</ele><time>2026-04-30T10:42:45.649Z</time></trkpt><trkpt lat="43.91302" lon="12.0886"><ele>421.99999999999994</ele><time>2026-04-30T10:42:46.652Z</time></trkpt><trkpt lat="43.91305" lon="12.0887183"><ele>422.0</ele><time>2026-04-30T10:42:47.646Z</time></trkpt><trkpt lat="43.91307" lon="12.0888383"><ele>425.6</ele><time>2026-04-30T10:42:48.649Z</time></trkpt><trkpt lat="43.913085" lon="12.0889633"><ele>429.20000000000005</ele><time>2026-04-30T10:42:49.652Z</time></trkpt><trkpt lat="43.9130867" lon="12.0891017"><ele>432.8</ele><time>2026-04-30T10:42:50.64Z</time></trkpt><trkpt lat="43.9130833" lon="12.089245"><ele>436.4</ele><time>2026-04-30T10:42:51.65Z</time></trkpt><trkpt lat="43.9130783" lon="12.0893933"><ele>440.0</ele><time>2026-04-30T10:42:52.649Z</time></trkpt><trkpt lat="43.9130633" lon="12.0895367"><ele>439.99999999999994</ele><time>2026-04-30T10:42:53.651Z</time></trkpt><trkpt lat="43.9130417" lon="12.0896717"><ele>440.0</ele><time>2026-04-30T10:42:54.665Z</time></trkpt><trkpt lat="43.91303" lon="12.0897967"><ele>440.0</ele><time>2026-04-30T10:42:55.642Z</time></trkpt><trkpt lat="43.9130183" lon="12.0899133"><ele>440.0</ele><time>2026-04-30T10:42:56.649Z</time></trkpt><trkpt lat="43.9130133" lon="12.0900317"><ele>439.99999999999994</ele><time>2026-04-30T10:42:57.649Z</time></trkpt><trkpt lat="43.91301" lon="12.0901467"><ele>440.0</ele><time>2026-04-30T10:42:58.643Z</time></trkpt><trkpt lat="43.9130267" lon="12.0902567"><ele>439.99999999999994</ele><time>2026-04-30T10:42:59.642Z</time></trkpt><trkpt lat="43.9130333" lon="12.0903683"><ele>440.0</ele><time>2026-04-30T10:43:00.644Z</time></trkpt><trkpt lat="43.9130383" lon="12.0904917"><ele>440.0</ele><time>2026-04-30T10:43:01.646Z</time></trkpt><trkpt lat="43.91304" lon="12.090615"><ele>440.0</ele><time>2026-04-30T10:43:02.645Z</time></trkpt><trkpt lat="43.9130233" lon="12.0907417"><ele>439.99999999999994</ele><time>2026-04-30T10:43:03.652Z</time></trkpt><trkpt lat="43.913005" lon="12.09087"><ele>440.0</ele><time>2026-04-30T10:43:04.644Z</time></trkpt><trkpt lat="43.9129833" lon="12.0909917"><ele>438.66666666666663</ele><time>2026-04-30T10:43:05.648Z</time></trkpt><trkpt lat="43.91295" lon="12.0911083"><ele>437.3333333333333</ele><time>2026-04-30T10:43:06.647Z</time></trkpt><trkpt lat="43.91291" lon="12.0912117"><ele>436.0</ele><time>2026-04-30T10:43:07.653Z</time></trkpt><trkpt lat="43.912865" lon="12.0913017"><ele>434.66666666666663</ele><time>2026-04-30T10:43:08.654Z</time></trkpt><trkpt lat="43.91282" lon="12.0913883"><ele>433.3333333333333</ele><time>2026-04-30T10:43:09.649Z</time></trkpt><trkpt lat="43.9127767" lon="12.09146"><ele>432.0</ele><time>2026-04-30T10:43:10.648Z</time></trkpt><trkpt lat="43.9127067" lon="12.0915983"><ele>429.8</ele><time>2026-04-30T10:43:12.644Z</time></trkpt><trkpt lat="43.912675" lon="12.09176"><ele>427.6</ele><time>2026-04-30T10:43:14.644Z</time></trkpt><trkpt lat="43.912715" lon="12.0919217"><ele>425.40000000000003</ele><time>2026-04-30T10:43:16.653Z</time></trkpt><trkpt lat="43.9127767" lon="12.0919933"><ele>423.20000000000005</ele><time>2026-04-30T10:43:17.638Z</time></trkpt><trkpt lat="43.912845" lon="12.0920633"><ele>421.0</ele><time>2026-04-30T10:43:18.648Z</time></trkpt><trkpt lat="43.912895" lon="12.09215"><ele>421.00000000000006</ele><time>2026-04-30T10:43:19.648Z</time></trkpt><trkpt lat="43.9129317" lon="12.09225"><ele>421.0</ele><time>2026-04-30T10:43:20.641Z</time></trkpt><trkpt lat="43.9129683" lon="12.092355"><ele>421.0</ele><time>2026-04-30T10:43:21.643Z</time></trkpt><trkpt lat="43.9129967" lon="12.0924633"><ele>421.0</ele><time>2026-04-30T10:43:22.646Z</time></trkpt><trkpt lat="43.91302" lon="12.0925667"><ele>421.00000000000006</ele><time>2026-04-30T10:43:23.65Z</time></trkpt><trkpt lat="43.91303" lon="12.0926667"><ele>421.0</ele><time>2026-04-30T10:43:24.651Z</time></trkpt><trkpt lat="43.91303" lon="12.0927633"><ele>420.5714285714286</ele><time>2026-04-30T10:43:25.641Z</time></trkpt><trkpt lat="43.9130133" lon="12.092855"><ele>420.14285714285717</ele><time>2026-04-30T10:43:26.651Z</time></trkpt><trkpt lat="43.9129917" lon="12.09294"><ele>419.7142857142857</ele><time>2026-04-30T10:43:27.656Z</time></trkpt><trkpt lat="43.9129467" lon="12.093005"><ele>419.28571428571433</ele><time>2026-04-30T10:43:28.644Z</time></trkpt><trkpt lat="43.9129083" lon="12.093075"><ele>418.85714285714283</ele><time>2026-04-30T10:43:29.644Z</time></trkpt><trkpt lat="43.91288" lon="12.0931567"><ele>418.42857142857144</ele><time>2026-04-30T10:43:30.643Z</time></trkpt><trkpt lat="43.9128667" lon="12.093245"><ele>418.0</ele><time>2026-04-30T10:43:31.651Z</time></trkpt><trkpt lat="43.91288" lon="12.093345"><ele>417.00000000000006</ele><time>2026-04-30T10:43:32.646Z</time></trkpt><trkpt lat="43.912925" lon="12.093455"><ele>416.0</ele><time>2026-04-30T10:43:33.644Z</time></trkpt><trkpt lat="43.9129733" lon="12.093565"><ele>415.0</ele><time>2026-04-30T10:43:34.649Z</time></trkpt><trkpt lat="43.913015" lon="12.09367"><ele>414.0</ele><time>2026-04-30T10:43:35.647Z</time></trkpt><trkpt lat="43.9130383" lon="12.093775"><ele>413.00000000000006</ele><time>2026-04-30T10:43:36.646Z</time></trkpt><trkpt lat="43.9130467" lon="12.09389"><ele>412.0</ele><time>2026-04-30T10:43:37.64Z</time></trkpt><trkpt lat="43.9130517" lon="12.094015"><ele>412.6666666666667</ele><time>2026-04-30T10:43:38.643Z</time></trkpt><trkpt lat="43.91306" lon="12.0941383"><ele>413.33333333333337</ele><time>2026-04-30T10:43:39.652Z</time></trkpt><trkpt lat="43.9130683" lon="12.0942617"><ele>414.0</ele><time>2026-04-30T10:43:40.648Z</time></trkpt><trkpt lat="43.9130817" lon="12.0943767"><ele>414.66666666666663</ele><time>2026-04-30T10:43:41.651Z</time></trkpt><trkpt lat="43.9130933" lon="12.0944917"><ele>415.3333333333333</ele><time>2026-04-30T10:43:42.651Z</time></trkpt><trkpt lat="43.9131083" lon="12.094605"><ele>416.0</ele><time>2026-04-30T10:43:43.648Z</time></trkpt><trkpt lat="43.9131183" lon="12.0947183"><ele>416.0</ele><time>2026-04-30T10:43:44.649Z</time></trkpt><trkpt lat="43.9131217" lon="12.0948267"><ele>416.0</ele><time>2026-04-30T10:43:45.643Z</time></trkpt><trkpt lat="43.9131217" lon="12.0949317"><ele>416.0</ele><time>2026-04-30T10:43:46.65Z</time></trkpt><trkpt lat="43.91312" lon="12.0950333"><ele>416.0</ele><time>2026-04-30T10:43:47.646Z</time></trkpt><trkpt lat="43.9131133" lon="12.0951267"><ele>416.0</ele><time>2026-04-30T10:43:48.649Z</time></trkpt><trkpt lat="43.9131083" lon="12.0952167"><ele>416.0</ele><time>2026-04-30T10:43:49.65Z</time></trkpt><trkpt lat="43.913085" lon="12.0953017"><ele>416.0</ele><time>2026-04-30T10:43:50.646Z</time></trkpt><trkpt lat="43.9130533" lon="12.09539"><ele>415.3333333333333</ele><time>2026-04-30T10:43:51.652Z</time></trkpt><trkpt lat="43.9130067" lon="12.09547"><ele>414.66666666666663</ele><time>2026-04-30T10:43:52.646Z</time></trkpt><trkpt lat="43.9129433" lon="12.0955417"><ele>414.0</ele><time>2026-04-30T10:43:53.642Z</time></trkpt><trkpt lat="43.912865" lon="12.095585"><ele>413.33333333333337</ele><time>2026-04-30T10:43:54.643Z</time></trkpt><trkpt lat="43.9127883" lon="12.0956"><ele>412.6666666666667</ele><time>2026-04-30T10:43:55.647Z</time></trkpt><trkpt lat="43.91272" lon="12.0956067"><ele>412.0</ele><time>2026-04-30T10:43:56.659Z</time></trkpt><trkpt lat="43.9126033" lon="12.0956417"><ele>408.33333333333337</ele><time>2026-04-30T10:43:58.643Z</time></trkpt><trkpt lat="43.9125283" lon="12.0957617"><ele>404.6666666666667</ele><time>2026-04-30T10:44:00.65Z</time></trkpt><trkpt lat="43.91252" lon="12.0958583"><ele>401.0</ele><time>2026-04-30T10:44:01.648Z</time></trkpt><trkpt lat="43.91254" lon="12.0959667"><ele>397.33333333333337</ele><time>2026-04-30T10:44:02.646Z</time></trkpt><trkpt lat="43.9125883" lon="12.0960633"><ele>393.6666666666667</ele><time>2026-04-30T10:44:03.644Z</time></trkpt><trkpt lat="43.9126383" lon="12.0961483"><ele>390.0</ele><time>2026-04-30T10:44:04.661Z</time></trkpt><trkpt lat="43.9126733" lon="12.0962317"><ele>390.0</ele><time>2026-04-30T10:44:05.647Z</time></trkpt><trkpt lat="43.9126967" lon="12.0963233"><ele>390.0</ele><time>2026-04-30T10:44:06.641Z</time></trkpt><trkpt lat="43.912695" lon="12.0964267"><ele>390.0</ele><time>2026-04-30T10:44:07.648Z</time></trkpt><trkpt lat="43.912665" lon="12.0965483"><ele>390.0</ele><time>2026-04-30T10:44:08.657Z</time></trkpt><trkpt lat="43.9126167" lon="12.0966717"><ele>390.0</ele><time>2026-04-30T10:44:09.642Z</time></trkpt><trkpt lat="43.9125633" lon="12.0967833"><ele>390.0</ele><time>2026-04-30T10:44:10.646Z</time></trkpt><trkpt lat="43.9125067" lon="12.0968883"><ele>388.4</ele><time>2026-04-30T10:44:11.646Z</time></trkpt><trkpt lat="43.9124433" lon="12.0969983"><ele>386.8</ele><time>2026-04-30T10:44:12.639Z</time></trkpt><trkpt lat="43.91237" lon="12.097105"><ele>385.20000000000005</ele><time>2026-04-30T10:44:13.649Z</time></trkpt><trkpt lat="43.91231" lon="12.097215"><ele>383.6</ele><time>2026-04-30T10:44:14.653Z</time></trkpt><trkpt lat="43.9122533" lon="12.0973317"><ele>382.0</ele><time>2026-04-30T10:44:15.65Z</time></trkpt><trkpt lat="43.9121983" lon="12.0974583"><ele>382.0</ele><time>2026-04-30T10:44:16.654Z</time></trkpt><trkpt lat="43.91214" lon="12.0975883"><ele>382.0</ele><time>2026-04-30T10:44:17.643Z</time></trkpt><trkpt lat="43.91209" lon="12.09772"><ele>382.0</ele><time>2026-04-30T10:44:18.652Z</time></trkpt><trkpt lat="43.9120467" lon="12.0978483"><ele>382.0</ele><time>2026-04-30T10:44:19.649Z</time></trkpt><trkpt lat="43.9120017" lon="12.0979583"><ele>382.0</ele><time>2026-04-30T10:44:20.649Z</time></trkpt><trkpt lat="43.9119633" lon="12.098065"><ele>382.0</ele><time>2026-04-30T10:44:21.658Z</time></trkpt><trkpt lat="43.9119233" lon="12.098165"><ele>382.0</ele><time>2026-04-30T10:44:22.65Z</time></trkpt><trkpt lat="43.9118667" lon="12.0982567"><ele>382.0</ele><time>2026-04-30T10:44:23.651Z</time></trkpt><trkpt lat="43.911795" lon="12.098335"><ele>382.0</ele><time>2026-04-30T10:44:24.648Z</time></trkpt><trkpt lat="43.9117133" lon="12.0984067"><ele>382.0</ele><time>2026-04-30T10:44:25.653Z</time></trkpt><trkpt lat="43.91163" lon="12.09848"><ele>386.0</ele><time>2026-04-30T10:44:26.653Z</time></trkpt><trkpt lat="43.911545" lon="12.0985383"><ele>390.0</ele><time>2026-04-30T10:44:27.651Z</time></trkpt><trkpt lat="43.9114533" lon="12.0985933"><ele>394.0</ele><time>2026-04-30T10:44:28.652Z</time></trkpt><trkpt lat="43.911375" lon="12.09867"><ele>398.0</ele><time>2026-04-30T10:44:29.64Z</time></trkpt><trkpt lat="43.911295" lon="12.0987533"><ele>402.0</ele><time>2026-04-30T10:44:30.652Z</time></trkpt><trkpt lat="43.9112217" lon="12.098855"><ele>402.0</ele><time>2026-04-30T10:44:31.64Z</time></trkpt><trkpt lat="43.9111533" lon="12.0989617"><ele>402.0</ele><time>2026-04-30T10:44:32.65Z</time></trkpt><trkpt lat="43.9110883" lon="12.09908"><ele>402.0</ele><time>2026-04-30T10:44:33.665Z</time></trkpt><trkpt lat="43.9110317" lon="12.0992083"><ele>402.0</ele><time>2026-04-30T10:44:34.647Z</time></trkpt><trkpt lat="43.910985" lon="12.0993217"><ele>402.0</ele><time>2026-04-30T10:44:35.645Z</time></trkpt><trkpt lat="43.91095" lon="12.0994333"><ele>404.1666666666667</ele><time>2026-04-30T10:44:36.648Z</time></trkpt><trkpt lat="43.9108817" lon="12.0995767"><ele>406.33333333333337</ele><time>2026-04-30T10:44:38.649Z</time></trkpt><trkpt lat="43.910845" lon="12.0996783"><ele>408.5</ele><time>2026-04-30T10:44:39.655Z</time></trkpt><trkpt lat="43.910805" lon="12.099785"><ele>410.6666666666667</ele><time>2026-04-30T10:44:40.654Z</time></trkpt><trkpt lat="43.9107633" lon="12.0998883"><ele>412.83333333333337</ele><time>2026-04-30T10:44:41.648Z</time></trkpt><trkpt lat="43.9107267" lon="12.0999667"><ele>415.0</ele><time>2026-04-30T10:44:42.642Z</time></trkpt><trkpt lat="43.9106833" lon="12.10003"><ele>409.50000000000006</ele><time>2026-04-30T10:44:43.65Z</time></trkpt><trkpt lat="43.9105617" lon="12.10006"><ele>404.0</ele><time>2026-04-30T10:44:45.652Z</time></trkpt><trkpt lat="43.9104883" lon="12.100055"><ele>398.5</ele><time>2026-04-30T10:44:46.652Z</time></trkpt><trkpt lat="43.91041" lon="12.10006"><ele>393.0</ele><time>2026-04-30T10:44:47.656Z</time></trkpt><trkpt lat="43.9103333" lon="12.100085"><ele>387.5</ele><time>2026-04-30T10:44:48.644Z</time></trkpt><trkpt lat="43.9102583" lon="12.100115"><ele>382.0</ele><time>2026-04-30T10:44:49.648Z</time></trkpt><trkpt lat="43.9101867" lon="12.1001533"><ele>382.0</ele><time>2026-04-30T10:44:50.641Z</time></trkpt><trkpt lat="43.9101183" lon="12.100195"><ele>382.0</ele><time>2026-04-30T10:44:51.653Z</time></trkpt><trkpt lat="43.9099967" lon="12.1002783"><ele>382.0</ele><time>2026-04-30T10:44:53.645Z</time></trkpt><trkpt lat="43.9099467" lon="12.10034"><ele>382.0</ele><time>2026-04-30T10:44:54.647Z</time></trkpt><trkpt lat="43.9099067" lon="12.100415"><ele>382.0</ele><time>2026-04-30T10:44:55.652Z</time></trkpt><trkpt lat="43.9098883" lon="12.1005117"><ele>382.0</ele><time>2026-04-30T10:44:56.647Z</time></trkpt><trkpt lat="43.9098917" lon="12.1006383"><ele>382.3333333333333</ele><time>2026-04-30T10:44:57.646Z</time></trkpt><trkpt lat="43.9099067" lon="12.100765"><ele>382.66666666666663</ele><time>2026-04-30T10:44:58.65Z</time></trkpt><trkpt lat="43.909935" lon="12.1008883"><ele>383.0</ele><time>2026-04-30T10:44:59.653Z</time></trkpt><trkpt lat="43.9099683" lon="12.101005"><ele>383.3333333333333</ele><time>2026-04-30T10:45:00.645Z</time></trkpt><trkpt lat="43.9100017" lon="12.1011133"><ele>383.6666666666667</ele><time>2026-04-30T10:45:01.649Z</time></trkpt><trkpt lat="43.9100383" lon="12.10121"><ele>384.0</ele><time>2026-04-30T10:45:02.648Z</time></trkpt><trkpt lat="43.9100633" lon="12.1013017"><ele>384.0</ele><time>2026-04-30T10:45:03.642Z</time></trkpt><trkpt lat="43.910045" lon="12.101455"><ele>384.0</ele><time>2026-04-30T10:45:05.651Z</time></trkpt><trkpt lat="43.9099733" lon="12.1015133"><ele>384.0</ele><time>2026-04-30T10:45:06.649Z</time></trkpt><trkpt lat="43.9098883" lon="12.1015567"><ele>384.0</ele><time>2026-04-30T10:45:07.64Z</time></trkpt><trkpt lat="43.9097983" lon="12.101595"><ele>384.0</ele><time>2026-04-30T10:45:08.645Z</time></trkpt><trkpt lat="43.909715" lon="12.101625"><ele>380.0</ele><time>2026-04-30T10:45:09.642Z</time></trkpt><trkpt lat="43.90964" lon="12.101665"><ele>376.0</ele><time>2026-04-30T10:45:10.646Z</time></trkpt><trkpt lat="43.9095717" lon="12.1017117"><ele>372.0</ele><time>2026-04-30T10:45:11.642Z</time></trkpt><trkpt lat="43.9095117" lon="12.101755"><ele>368.0</ele><time>2026-04-30T10:45:12.64Z</time></trkpt><trkpt lat="43.909415" lon="12.1018483"><ele>364.0</ele><time>2026-04-30T10:45:14.643Z</time></trkpt><trkpt lat="43.909325" lon="12.10197"><ele>369.79999999999995</ele><time>2026-04-30T10:45:16.641Z</time></trkpt><trkpt lat="43.9092267" lon="12.1020617"><ele>375.59999999999997</ele><time>2026-04-30T10:45:18.642Z</time></trkpt><trkpt lat="43.9091217" lon="12.102085"><ele>381.4</ele><time>2026-04-30T10:45:20.645Z</time></trkpt><trkpt lat="43.9090167" lon="12.1020267"><ele>387.2</ele><time>2026-04-30T10:45:22.645Z</time></trkpt><trkpt lat="43.908925" lon="12.1019483"><ele>393.0</ele><time>2026-04-30T10:45:24.658Z</time></trkpt><trkpt lat="43.9088067" lon="12.1018917"><ele>393.0</ele><time>2026-04-30T10:45:26.642Z</time></trkpt><trkpt lat="43.9087417" lon="12.1018833"><ele>393.0</ele><time>2026-04-30T10:45:27.647Z</time></trkpt><trkpt lat="43.908625" lon="12.1019067"><ele>393.0</ele><time>2026-04-30T10:45:29.643Z</time></trkpt><trkpt lat="43.9085717" lon="12.10199"><ele>393.0</ele><time>2026-04-30T10:45:30.648Z</time></trkpt><trkpt lat="43.9085433" lon="12.1021417"><ele>393.0</ele><time>2026-04-30T10:45:31.643Z</time></trkpt><trkpt lat="43.908515" lon="12.1022883"><ele>388.1666666666667</ele><time>2026-04-30T10:45:32.655Z</time></trkpt><trkpt lat="43.9085033" lon="12.1024433"><ele>383.3333333333333</ele><time>2026-04-30T10:45:33.644Z</time></trkpt><trkpt lat="43.9084867" lon="12.1025733"><ele>378.5</ele><time>2026-04-30T10:45:34.651Z</time></trkpt><trkpt lat="43.9084633" lon="12.1026783"><ele>373.66666666666663</ele><time>2026-04-30T10:45:35.64Z</time></trkpt><trkpt lat="43.9084317" lon="12.1027667"><ele>368.8333333333333</ele><time>2026-04-30T10:45:36.645Z</time></trkpt><trkpt lat="43.9083967" lon="12.1028417"><ele>364.0</ele><time>2026-04-30T10:45:37.643Z</time></trkpt><trkpt lat="43.9083317" lon="12.1028433"><ele>364.0</ele><time>2026-04-30T10:45:38.645Z</time></trkpt><trkpt lat="43.9082267" lon="12.1027317"><ele>364.0</ele><time>2026-04-30T10:45:40.642Z</time></trkpt><trkpt lat="43.908175" lon="12.1026183"><ele>364.0</ele><time>2026-04-30T10:45:41.644Z</time></trkpt><trkpt lat="43.9081083" lon="12.1025033"><ele>364.0</ele><time>2026-04-30T10:45:42.64Z</time></trkpt><trkpt lat="43.9080333" lon="12.102405"><ele>364.0</ele><time>2026-04-30T10:45:43.649Z</time></trkpt><trkpt lat="43.9079567" lon="12.1023217"><ele>367.66666666666663</ele><time>2026-04-30T10:45:44.647Z</time></trkpt><trkpt lat="43.9078833" lon="12.10226"><ele>371.3333333333333</ele><time>2026-04-30T10:45:45.647Z</time></trkpt><trkpt lat="43.9078117" lon="12.102215"><ele>375.0</ele><time>2026-04-30T10:45:46.66Z</time></trkpt><trkpt lat="43.90775" lon="12.1021883"><ele>378.66666666666663</ele><time>2026-04-30T10:45:47.646Z</time></trkpt><trkpt lat="43.9076783" lon="12.1021867"><ele>382.3333333333333</ele><time>2026-04-30T10:45:48.639Z</time></trkpt><trkpt lat="43.9076133" lon="12.1022167"><ele>386.0</ele><time>2026-04-30T10:45:49.651Z</time></trkpt><trkpt lat="43.9075583" lon="12.1023083"><ele>382.4</ele><time>2026-04-30T10:45:50.646Z</time></trkpt><trkpt lat="43.9075067" lon="12.1024233"><ele>378.8</ele><time>2026-04-30T10:45:51.644Z</time></trkpt><trkpt lat="43.9074833" lon="12.102545"><ele>375.2</ele><time>2026-04-30T10:45:52.648Z</time></trkpt><trkpt lat="43.9074583" lon="12.1026667"><ele>371.59999999999997</ele><time>2026-04-30T10:45:53.654Z</time></trkpt><trkpt lat="43.9074517" lon="12.1028"><ele>368.0</ele><time>2026-04-30T10:45:54.647Z</time></trkpt><trkpt lat="43.9074583" lon="12.1029367"><ele>368.0</ele><time>2026-04-30T10:45:55.656Z</time></trkpt><trkpt lat="43.90747" lon="12.1030717"><ele>368.0</ele><time>2026-04-30T10:45:56.64Z</time></trkpt><trkpt lat="43.907485" lon="12.10321"><ele>368.0</ele><time>2026-04-30T10:45:57.65Z</time></trkpt><trkpt lat="43.9074967" lon="12.10334"><ele>368.0</ele><time>2026-04-30T10:45:58.657Z</time></trkpt><trkpt lat="43.9075017" lon="12.1034617"><ele>368.0</ele><time>2026-04-30T10:45:59.661Z</time></trkpt><trkpt lat="43.907505" lon="12.103575"><ele>365.79999999999995</ele><time>2026-04-30T10:46:00.649Z</time></trkpt><trkpt lat="43.907505" lon="12.1036817"><ele>363.6</ele><time>2026-04-30T10:46:01.656Z</time></trkpt><trkpt lat="43.9074967" lon="12.103775"><ele>361.4</ele><time>2026-04-30T10:46:02.642Z</time></trkpt><trkpt lat="43.9074467" lon="12.1039317"><ele>359.20000000000005</ele><time>2026-04-30T10:46:04.648Z</time></trkpt><trkpt lat="43.90736" lon="12.1040533"><ele>357.0</ele><time>2026-04-30T10:46:06.648Z</time></trkpt><trkpt lat="43.9072567" lon="12.1040383"><ele>357.0</ele><time>2026-04-30T10:46:07.642Z</time></trkpt><trkpt lat="43.90716" lon="12.104055"><ele>357.0</ele><time>2026-04-30T10:46:08.649Z</time></trkpt><trkpt lat="43.9070667" lon="12.1040783"><ele>357.0</ele><time>2026-04-30T10:46:09.649Z</time></trkpt><trkpt lat="43.9069833" lon="12.10411"><ele>357.0</ele><time>2026-04-30T10:46:10.645Z</time></trkpt><trkpt lat="43.9069067" lon="12.1041667"><ele>357.0</ele><time>2026-04-30T10:46:11.643Z</time></trkpt><trkpt lat="43.9068483" lon="12.104215"><ele>357.0</ele><time>2026-04-30T10:46:12.651Z</time></trkpt><trkpt lat="43.906785" lon="12.1042733"><ele>356.3333333333333</ele><time>2026-04-30T10:46:13.654Z</time></trkpt><trkpt lat="43.9067267" lon="12.1043467"><ele>355.6666666666667</ele><time>2026-04-30T10:46:14.656Z</time></trkpt><trkpt lat="43.9066733" lon="12.10441"><ele>355.0</ele><time>2026-04-30T10:46:15.639Z</time></trkpt><trkpt lat="43.90662" lon="12.1044583"><ele>354.33333333333337</ele><time>2026-04-30T10:46:16.647Z</time></trkpt><trkpt lat="43.9065" lon="12.10451"><ele>353.6666666666667</ele><time>2026-04-30T10:46:18.651Z</time></trkpt><trkpt lat="43.9064367" lon="12.1045083"><ele>353.0</ele><time>2026-04-30T10:46:19.657Z</time></trkpt><trkpt lat="43.9063167" lon="12.1044717"><ele>353.0</ele><time>2026-04-30T10:46:21.644Z</time></trkpt><trkpt lat="43.9062483" lon="12.1044617"><ele>353.0</ele><time>2026-04-30T10:46:22.647Z</time></trkpt><trkpt lat="43.9061783" lon="12.1044617"><ele>353.0</ele><time>2026-04-30T10:46:23.647Z</time></trkpt><trkpt lat="43.9060583" lon="12.1044967"><ele>353.0</ele><time>2026-04-30T10:46:25.646Z</time></trkpt><trkpt lat="43.9059917" lon="12.1045217"><ele>353.0</ele><time>2026-04-30T10:46:26.647Z</time></trkpt><trkpt lat="43.9059183" lon="12.1045367"><ele>353.0</ele><time>2026-04-30T10:46:27.65Z</time></trkpt><trkpt lat="43.9058417" lon="12.104545"><ele>354.0</ele><time>2026-04-30T10:46:28.645Z</time></trkpt><trkpt lat="43.90577" lon="12.1045433"><ele>355.0</ele><time>2026-04-30T10:46:29.643Z</time></trkpt><trkpt lat="43.9057" lon="12.1045467"><ele>356.0</ele><time>2026-04-30T10:46:30.651Z</time></trkpt><trkpt lat="43.9056367" lon="12.10455"><ele>357.0</ele><time>2026-04-30T10:46:31.643Z</time></trkpt><trkpt lat="43.9055117" lon="12.10459"><ele>358.0</ele><time>2026-04-30T10:46:33.651Z</time></trkpt><trkpt lat="43.905445" lon="12.10461"><ele>359.0</ele><time>2026-04-30T10:46:34.645Z</time></trkpt><trkpt lat="43.9053733" lon="12.1046317"><ele>359.0</ele><time>2026-04-30T10:46:35.642Z</time></trkpt><trkpt lat="43.9053017" lon="12.10465"><ele>359.0</ele><time>2026-04-30T10:46:36.641Z</time></trkpt><trkpt lat="43.9052283" lon="12.1047"><ele>359.0</ele><time>2026-04-30T10:46:37.643Z</time></trkpt><trkpt lat="43.9051567" lon="12.1047583"><ele>359.0</ele><time>2026-04-30T10:46:38.65Z</time></trkpt><trkpt lat="43.905085" lon="12.1048267"><ele>359.0</ele><time>2026-04-30T10:46:39.648Z</time></trkpt><trkpt lat="43.9050183" lon="12.104905"><ele>359.0</ele><time>2026-04-30T10:46:40.643Z</time></trkpt><trkpt lat="43.90495" lon="12.1049917"><ele>354.8571428571429</ele><time>2026-04-30T10:46:41.651Z</time></trkpt><trkpt lat="43.9048933" lon="12.1050817"><ele>350.7142857142857</ele><time>2026-04-30T10:46:42.644Z</time></trkpt><trkpt lat="43.9048483" lon="12.1051433"><ele>346.57142857142856</ele><time>2026-04-30T10:46:43.642Z</time></trkpt><trkpt lat="43.9047983" lon="12.10521"><ele>342.42857142857144</ele><time>2026-04-30T10:46:44.644Z</time></trkpt><trkpt lat="43.904745" lon="12.1052683"><ele>338.2857142857143</ele><time>2026-04-30T10:46:45.642Z</time></trkpt><trkpt lat="43.9046867" lon="12.1053183"><ele>334.14285714285717</ele><time>2026-04-30T10:46:46.643Z</time></trkpt><trkpt lat="43.9046183" lon="12.1053517"><ele>330.0</ele><time>2026-04-30T10:46:47.649Z</time></trkpt><trkpt lat="43.9045433" lon="12.1053767"><ele>330.0</ele><time>2026-04-30T10:46:48.642Z</time></trkpt><trkpt lat="43.90446" lon="12.1053983"><ele>330.0</ele><time>2026-04-30T10:46:49.644Z</time></trkpt><trkpt lat="43.9043767" lon="12.1054167"><ele>330.0</ele><time>2026-04-30T10:46:50.642Z</time></trkpt><trkpt lat="43.904295" lon="12.1054333"><ele>330.0</ele><time>2026-04-30T10:46:51.645Z</time></trkpt><trkpt lat="43.9042167" lon="12.1054383"><ele>330.0</ele><time>2026-04-30T10:46:52.642Z</time></trkpt><trkpt lat="43.9041367" lon="12.10546"><ele>330.0</ele><time>2026-04-30T10:46:53.646Z</time></trkpt><trkpt lat="43.904055" lon="12.1054867"><ele>333.2</ele><time>2026-04-30T10:46:54.651Z</time></trkpt><trkpt lat="43.9039733" lon="12.1055283"><ele>336.4</ele><time>2026-04-30T10:46:55.648Z</time></trkpt><trkpt lat="43.90388" lon="12.1056017"><ele>339.6</ele><time>2026-04-30T10:46:56.644Z</time></trkpt><trkpt lat="43.903795" lon="12.1056967"><ele>342.8</ele><time>2026-04-30T10:46:57.643Z</time></trkpt><trkpt lat="43.9037233" lon="12.1057967"><ele>346.0</ele><time>2026-04-30T10:46:58.64Z</time></trkpt><trkpt lat="43.9036567" lon="12.1058867"><ele>341.0</ele><time>2026-04-30T10:46:59.645Z</time></trkpt><trkpt lat="43.9035883" lon="12.1059667"><ele>336.0</ele><time>2026-04-30T10:47:00.64Z</time></trkpt><trkpt lat="43.90351" lon="12.10604"><ele>331.0</ele><time>2026-04-30T10:47:01.645Z</time></trkpt><trkpt lat="43.9034233" lon="12.1060917"><ele>326.0</ele><time>2026-04-30T10:47:02.643Z</time></trkpt><trkpt lat="43.9033333" lon="12.1061333"><ele>321.0</ele><time>2026-04-30T10:47:03.65Z</time></trkpt><trkpt lat="43.903245" lon="12.106155"><ele>321.0</ele><time>2026-04-30T10:47:04.645Z</time></trkpt><trkpt lat="43.9031567" lon="12.1061767"><ele>321.0</ele><time>2026-04-30T10:47:05.652Z</time></trkpt><trkpt lat="43.90307" lon="12.1061967"><ele>321.0</ele><time>2026-04-30T10:47:06.645Z</time></trkpt><trkpt lat="43.90299" lon="12.1062283"><ele>321.0</ele><time>2026-04-30T10:47:07.646Z</time></trkpt><trkpt lat="43.9029133" lon="12.106265"><ele>321.0</ele><time>2026-04-30T10:47:08.649Z</time></trkpt><trkpt lat="43.9028367" lon="12.1063017"><ele>321.0</ele><time>2026-04-30T10:47:09.644Z</time></trkpt><trkpt lat="43.90276" lon="12.1063467"><ele>321.0</ele><time>2026-04-30T10:47:10.646Z</time></trkpt><trkpt lat="43.902685" lon="12.10642"><ele>321.0</ele><time>2026-04-30T10:47:11.643Z</time></trkpt><trkpt lat="43.9026167" lon="12.1065017"><ele>321.0</ele><time>2026-04-30T10:47:12.644Z</time></trkpt><trkpt lat="43.902555" lon="12.1066033"><ele>321.0</ele><time>2026-04-30T10:47:13.645Z</time></trkpt><trkpt lat="43.9025017" lon="12.1067167"><ele>321.0</ele><time>2026-04-30T10:47:14.646Z</time></trkpt><trkpt lat="43.9024583" lon="12.10683"><ele>318.5</ele><time>2026-04-30T10:47:15.65Z</time></trkpt><trkpt lat="43.90242" lon="12.1069333"><ele>316.0</ele><time>2026-04-30T10:47:16.647Z</time></trkpt><trkpt lat="43.902375" lon="12.1070217"><ele>313.5</ele><time>2026-04-30T10:47:17.641Z</time></trkpt><trkpt lat="43.9023217" lon="12.1071017"><ele>311.0</ele><time>2026-04-30T10:47:18.644Z</time></trkpt><trkpt lat="43.9022667" lon="12.1071883"><ele>308.5</ele><time>2026-04-30T10:47:19.646Z</time></trkpt><trkpt lat="43.90221" lon="12.1072717"><ele>306.0</ele><time>2026-04-30T10:47:20.653Z</time></trkpt><trkpt lat="43.9021633" lon="12.107345"><ele>298.6</ele><time>2026-04-30T10:47:21.65Z</time></trkpt><trkpt lat="43.9020833" lon="12.1074567"><ele>291.20000000000005</ele><time>2026-04-30T10:47:23.641Z</time></trkpt><trkpt lat="43.90202" lon="12.107525"><ele>283.79999999999995</ele><time>2026-04-30T10:47:25.65Z</time></trkpt><trkpt lat="43.901945" lon="12.10763"><ele>276.4</ele><time>2026-04-30T10:48:12.646Z</time></trkpt><trkpt lat="43.9018733" lon="12.1076783"><ele>269.0</ele><time>2026-04-30T10:48:15.645Z</time></trkpt><trkpt lat="43.9017917" lon="12.1077383"><ele>272.0</ele><time>2026-04-30T10:48:17.643Z</time></trkpt><trkpt lat="43.9016883" lon="12.1078333"><ele>275.0</ele><time>2026-04-30T10:48:19.641Z</time></trkpt><trkpt lat="43.9016183" lon="12.1078917"><ele>278.0</ele><time>2026-04-30T10:48:20.643Z</time></trkpt><trkpt lat="43.9015483" lon="12.1079533"><ele>281.0</ele><time>2026-04-30T10:48:21.655Z</time></trkpt><trkpt lat="43.9014683" lon="12.1080283"><ele>284.0</ele><time>2026-04-30T10:48:22.644Z</time></trkpt><trkpt lat="43.9013933" lon="12.1081167"><ele>284.0</ele><time>2026-04-30T10:48:23.647Z</time></trkpt><trkpt lat="43.9013167" lon="12.1082117"><ele>284.0</ele><time>2026-04-30T10:48:24.656Z</time></trkpt><trkpt lat="43.90125" lon="12.1083183"><ele>284.0</ele><time>2026-04-30T10:48:25.642Z</time></trkpt><trkpt lat="43.90119" lon="12.108435"><ele>284.0</ele><time>2026-04-30T10:48:26.653Z</time></trkpt><trkpt lat="43.9011367" lon="12.1085533"><ele>284.0</ele><time>2026-04-30T10:48:27.648Z</time></trkpt><trkpt lat="43.90108" lon="12.1086667"><ele>280.5</ele><time>2026-04-30T10:48:28.638Z</time></trkpt><trkpt lat="43.9010167" lon="12.10877"><ele>277.0</ele><time>2026-04-30T10:48:29.651Z</time></trkpt><trkpt lat="43.90096" lon="12.1088617"><ele>273.5</ele><time>2026-04-30T10:48:30.64Z</time></trkpt><trkpt lat="43.9009233" lon="12.10895"><ele>270.0</ele><time>2026-04-30T10:48:31.648Z</time></trkpt><trkpt lat="43.9009067" lon="12.1090417"><ele>266.5</ele><time>2026-04-30T10:48:32.64Z</time></trkpt><trkpt lat="43.9009433" lon="12.1091533"><ele>263.0</ele><time>2026-04-30T10:48:33.646Z</time></trkpt><trkpt lat="43.9010017" lon="12.1092583"><ele>261.6666666666667</ele><time>2026-04-30T10:48:34.644Z</time></trkpt><trkpt lat="43.901055" lon="12.109365"><ele>260.33333333333337</ele><time>2026-04-30T10:48:35.648Z</time></trkpt><trkpt lat="43.9010917" lon="12.1094783"><ele>259.0</ele><time>2026-04-30T10:48:36.645Z</time></trkpt><trkpt lat="43.9011133" lon="12.10959"><ele>257.6666666666667</ele><time>2026-04-30T10:48:37.652Z</time></trkpt><trkpt lat="43.901125" lon="12.1096917"><ele>256.3333333333333</ele><time>2026-04-30T10:48:38.643Z</time></trkpt><trkpt lat="43.901125" lon="12.1097883"><ele>255.0</ele><time>2026-04-30T10:48:40.648Z</time></trkpt><trkpt lat="43.9010717" lon="12.10987"><ele>254.8</ele><time>2026-04-30T10:48:44.64Z</time></trkpt><trkpt lat="43.9010483" lon="12.109955"><ele>254.6</ele><time>2026-04-30T10:48:47.648Z</time></trkpt><trkpt lat="43.9010833" lon="12.1100467"><ele>254.39999999999998</ele><time>2026-04-30T10:48:49.659Z</time></trkpt><trkpt lat="43.90115" lon="12.110195"><ele>254.2</ele><time>2026-04-30T10:48:51.657Z</time></trkpt><trkpt lat="43.9012083" lon="12.1103033"><ele>254.0</ele><time>2026-04-30T10:48:52.647Z</time></trkpt><trkpt lat="43.901265" lon="12.11042"><ele>254.0</ele><time>2026-04-30T10:48:53.646Z</time></trkpt><trkpt lat="43.9013267" lon="12.1105433"><ele>253.99999999999997</ele><time>2026-04-30T10:48:54.65Z</time></trkpt><trkpt lat="43.90139" lon="12.1106617"><ele>253.99999999999997</ele><time>2026-04-30T10:48:55.649Z</time></trkpt><trkpt lat="43.9014483" lon="12.1107717"><ele>254.0</ele><time>2026-04-30T10:48:56.655Z</time></trkpt><trkpt lat="43.9014917" lon="12.1108933"><ele>254.0</ele><time>2026-04-30T10:48:57.658Z</time></trkpt><trkpt lat="43.9015133" lon="12.1110283"><ele>255.25</ele><time>2026-04-30T10:48:58.637Z</time></trkpt><trkpt lat="43.901495" lon="12.1111733"><ele>256.5</ele><time>2026-04-30T10:48:59.642Z</time></trkpt><trkpt lat="43.90145" lon="12.111335"><ele>257.75</ele><time>2026-04-30T10:49:00.649Z</time></trkpt><trkpt lat="43.9013983" lon="12.111495"><ele>259.0</ele><time>2026-04-30T10:49:01.649Z</time></trkpt><trkpt lat="43.9013517" lon="12.1116583"><ele>261.5</ele><time>2026-04-30T10:49:02.647Z</time></trkpt><trkpt lat="43.9013267" lon="12.1118367"><ele>264.0</ele><time>2026-04-30T10:49:03.647Z</time></trkpt><trkpt lat="43.901325" lon="12.1120117"><ele>266.5</ele><time>2026-04-30T10:49:04.644Z</time></trkpt><trkpt lat="43.9013583" lon="12.1121817"><ele>269.0</ele><time>2026-04-30T10:49:05.646Z</time></trkpt><trkpt lat="43.9014233" lon="12.112345"><ele>267.33333333333337</ele><time>2026-04-30T10:49:06.649Z</time></trkpt><trkpt lat="43.9015017" lon="12.1125083"><ele>265.6666666666667</ele><time>2026-04-30T10:49:07.642Z</time></trkpt><trkpt lat="43.9015883" lon="12.1126817"><ele>264.0</ele><time>2026-04-30T10:49:08.647Z</time></trkpt><trkpt lat="43.90168" lon="12.1128633"><ele>265.5</ele><time>2026-04-30T10:49:09.646Z</time></trkpt><trkpt lat="43.90177" lon="12.1130417"><ele>267.0</ele><time>2026-04-30T10:49:10.647Z</time></trkpt><trkpt lat="43.9018533" lon="12.1132083"><ele>268.5</ele><time>2026-04-30T10:49:11.651Z</time></trkpt><trkpt lat="43.9019317" lon="12.1133567"><ele>270.0</ele><time>2026-04-30T10:49:12.648Z</time></trkpt><trkpt lat="43.902005" lon="12.1134967"><ele>270.0</ele><time>2026-04-30T10:49:13.645Z</time></trkpt><trkpt lat="43.902075" lon="12.1136333"><ele>270.0</ele><time>2026-04-30T10:49:14.644Z</time></trkpt><trkpt lat="43.9021367" lon="12.11376"><ele>270.0</ele><time>2026-04-30T10:49:15.65Z</time></trkpt><trkpt lat="43.9021983" lon="12.1138667"><ele>270.0</ele><time>2026-04-30T10:49:16.648Z</time></trkpt><trkpt lat="43.9022467" lon="12.11394"><ele>270.0</ele><time>2026-04-30T10:49:17.652Z</time></trkpt><trkpt lat="43.9023" lon="12.1140317"><ele>268.5</ele><time>2026-04-30T10:49:19.645Z</time></trkpt><trkpt lat="43.902385" lon="12.1140967"><ele>267.0</ele><time>2026-04-30T10:50:01.65Z</time></trkpt><trkpt lat="43.9024567" lon="12.1141233"><ele>265.5</ele><time>2026-04-30T10:50:02.65Z</time></trkpt><trkpt lat="43.9025317" lon="12.1141417"><ele>264.0</ele><time>2026-04-30T10:50:03.647Z</time></trkpt><trkpt lat="43.9026183" lon="12.1141367"><ele>262.5</ele><time>2026-04-30T10:50:04.654Z</time></trkpt><trkpt lat="43.9026983" lon="12.1141067"><ele>261.0</ele><time>2026-04-30T10:50:05.649Z</time></trkpt><trkpt lat="43.90278" lon="12.1140617"><ele>260.8</ele><time>2026-04-30T10:50:06.643Z</time></trkpt><trkpt lat="43.902855" lon="12.1139883"><ele>260.6</ele><time>2026-04-30T10:50:07.646Z</time></trkpt><trkpt lat="43.9029333" lon="12.1139"><ele>260.4</ele><time>2026-04-30T10:50:08.646Z</time></trkpt><trkpt lat="43.9030117" lon="12.113805"><ele>260.2</ele><time>2026-04-30T10:50:09.65Z</time></trkpt><trkpt lat="43.9030983" lon="12.1137"><ele>260.0</ele><time>2026-04-30T10:50:10.644Z</time></trkpt><trkpt lat="43.903195" lon="12.1135967"><ele>260.0</ele><time>2026-04-30T10:50:11.651Z</time></trkpt><trkpt lat="43.9032917" lon="12.1134967"><ele>260.0</ele><time>2026-04-30T10:50:12.654Z</time></trkpt><trkpt lat="43.9033883" lon="12.1134"><ele>260.0</ele><time>2026-04-30T10:50:13.651Z</time></trkpt><trkpt lat="43.9034917" lon="12.1133133"><ele>260.0</ele><time>2026-04-30T10:50:14.648Z</time></trkpt><trkpt lat="43.9036" lon="12.1132283"><ele>263.75</ele><time>2026-04-30T10:50:15.651Z</time></trkpt><trkpt lat="43.903715" lon="12.1131483"><ele>267.5</ele><time>2026-04-30T10:50:16.643Z</time></trkpt><trkpt lat="43.90384" lon="12.113075"><ele>271.25</ele><time>2026-04-30T10:50:17.651Z</time></trkpt><trkpt lat="43.9039717" lon="12.1130167"><ele>275.0</ele><time>2026-04-30T10:50:18.643Z</time></trkpt><trkpt lat="43.9041133" lon="12.1129767"><ele>275.0</ele><time>2026-04-30T10:50:19.651Z</time></trkpt><trkpt lat="43.90426" lon="12.1129533"><ele>275.0</ele><time>2026-04-30T10:50:20.647Z</time></trkpt><trkpt lat="43.9044117" lon="12.112945"><ele>275.0</ele><time>2026-04-30T10:50:21.644Z</time></trkpt><trkpt lat="43.90456" lon="12.1129517"><ele>275.0</ele><time>2026-04-30T10:50:22.649Z</time></trkpt><trkpt lat="43.9047133" lon="12.1129717"><ele>275.0</ele><time>2026-04-30T10:50:23.647Z</time></trkpt><trkpt lat="43.9048683" lon="12.113005"><ele>275.0</ele><time>2026-04-30T10:50:24.655Z</time></trkpt><trkpt lat="43.9050283" lon="12.1130533"><ele>275.0</ele><time>2026-04-30T10:50:25.658Z</time></trkpt><trkpt lat="43.9051933" lon="12.1130967"><ele>279.6666666666667</ele><time>2026-04-30T10:50:26.645Z</time></trkpt><trkpt lat="43.905355" lon="12.1131467"><ele>284.3333333333333</ele><time>2026-04-30T10:50:27.652Z</time></trkpt><trkpt lat="43.90552" lon="12.11318"><ele>289.0</ele><time>2026-04-30T10:50:28.645Z</time></trkpt><trkpt lat="43.9056883" lon="12.1132283"><ele>285.66666666666663</ele><time>2026-04-30T10:50:29.647Z</time></trkpt><trkpt lat="43.9058633" lon="12.113275"><ele>282.3333333333333</ele><time>2026-04-30T10:50:30.646Z</time></trkpt><trkpt lat="43.906035" lon="12.1133267"><ele>279.0</ele><time>2026-04-30T10:50:31.644Z</time></trkpt><trkpt lat="43.9062067" lon="12.1133917"><ele>279.0</ele><time>2026-04-30T10:50:32.642Z</time></trkpt><trkpt lat="43.9063717" lon="12.1134917"><ele>279.0</ele><time>2026-04-30T10:50:33.647Z</time></trkpt><trkpt lat="43.9065267" lon="12.1136267"><ele>279.0</ele><time>2026-04-30T10:50:34.639Z</time></trkpt><trkpt lat="43.9066617" lon="12.1137917"><ele>278.0</ele><time>2026-04-30T10:50:35.648Z</time></trkpt><trkpt lat="43.90678" lon="12.1139733"><ele>277.0</ele><time>2026-04-30T10:50:36.638Z</time></trkpt><trkpt lat="43.906895" lon="12.11415"><ele>276.0</ele><time>2026-04-30T10:50:37.642Z</time></trkpt><trkpt lat="43.9070067" lon="12.11432"><ele>276.0</ele><time>2026-04-30T10:50:38.645Z</time></trkpt><trkpt lat="43.9071233" lon="12.11448"><ele>276.0</ele><time>2026-04-30T10:50:39.653Z</time></trkpt><trkpt lat="43.9072333" lon="12.1146517"><ele>276.0</ele><time>2026-04-30T10:50:40.653Z</time></trkpt><trkpt lat="43.907335" lon="12.1148383"><ele>272.3333333333333</ele><time>2026-04-30T10:50:41.648Z</time></trkpt><trkpt lat="43.90742" lon="12.1150467"><ele>268.66666666666663</ele><time>2026-04-30T10:50:42.649Z</time></trkpt><trkpt lat="43.90749" lon="12.1152733"><ele>265.0</ele><time>2026-04-30T10:50:43.651Z</time></trkpt><trkpt lat="43.907555" lon="12.115505"><ele>270.66666666666663</ele><time>2026-04-30T10:50:44.658Z</time></trkpt><trkpt lat="43.9076117" lon="12.11574"><ele>276.3333333333333</ele><time>2026-04-30T10:50:45.654Z</time></trkpt><trkpt lat="43.907665" lon="12.1159733"><ele>282.0</ele><time>2026-04-30T10:50:46.647Z</time></trkpt><trkpt lat="43.907715" lon="12.1162017"><ele>282.0</ele><time>2026-04-30T10:50:47.652Z</time></trkpt><trkpt lat="43.9077617" lon="12.1164133"><ele>282.0</ele><time>2026-04-30T10:50:48.648Z</time></trkpt><trkpt lat="43.9078133" lon="12.1165983"><ele>282.0</ele><time>2026-04-30T10:50:49.656Z</time></trkpt><trkpt lat="43.907875" lon="12.1167433"><ele>282.0</ele><time>2026-04-30T10:50:50.645Z</time></trkpt><trkpt lat="43.9079533" lon="12.116835"><ele>277.75</ele><time>2026-04-30T10:50:51.641Z</time></trkpt><trkpt lat="43.908055" lon="12.1168717"><ele>273.5</ele><time>2026-04-30T10:50:52.648Z</time></trkpt><trkpt lat="43.9081733" lon="12.11685"><ele>269.25</ele><time>2026-04-30T10:50:53.649Z</time></trkpt><trkpt lat="43.908295" lon="12.1167717"><ele>265.0</ele><time>2026-04-30T10:50:54.65Z</time></trkpt><trkpt lat="43.9084117" lon="12.1166967"><ele>265.0</ele><time>2026-04-30T10:50:55.648Z</time></trkpt><trkpt lat="43.9085283" lon="12.1166283"><ele>265.0</ele><time>2026-04-30T10:50:56.652Z</time></trkpt><trkpt lat="43.908645" lon="12.1165867"><ele>265.0</ele><time>2026-04-30T10:50:57.651Z</time></trkpt><trkpt lat="43.9087617" lon="12.1165833"><ele>265.0</ele><time>2026-04-30T10:50:58.652Z</time></trkpt><trkpt lat="43.9088633" lon="12.1166283"><ele>265.0</ele><time>2026-04-30T10:50:59.657Z</time></trkpt><trkpt lat="43.908925" lon="12.11674"><ele>265.0</ele><time>2026-04-30T10:51:00.646Z</time></trkpt><trkpt lat="43.908955" lon="12.116885"><ele>265.0</ele><time>2026-04-30T10:51:01.655Z</time></trkpt><trkpt lat="43.9089483" lon="12.1170267"><ele>265.0</ele><time>2026-04-30T10:51:02.654Z</time></trkpt><trkpt lat="43.9089083" lon="12.117165"><ele>265.0</ele><time>2026-04-30T10:51:03.649Z</time></trkpt><trkpt lat="43.9088483" lon="12.117275"><ele>265.0</ele><time>2026-04-30T10:51:04.653Z</time></trkpt><trkpt lat="43.908785" lon="12.11736"><ele>265.0</ele><time>2026-04-30T10:51:05.649Z</time></trkpt><trkpt lat="43.9087267" lon="12.11744"><ele>265.0</ele><time>2026-04-30T10:51:06.643Z</time></trkpt><trkpt lat="43.9086683" lon="12.117525"><ele>265.0</ele><time>2026-04-30T10:51:07.648Z</time></trkpt><trkpt lat="43.9086033" lon="12.1176083"><ele>265.0</ele><time>2026-04-30T10:51:08.643Z</time></trkpt><trkpt lat="43.9085433" lon="12.1176883"><ele>265.0</ele><time>2026-04-30T10:51:09.648Z</time></trkpt><trkpt lat="43.9084883" lon="12.1177683"><ele>266.0</ele><time>2026-04-30T10:51:10.66Z</time></trkpt><trkpt lat="43.908445" lon="12.1178617"><ele>267.0</ele><time>2026-04-30T10:51:11.639Z</time></trkpt><trkpt lat="43.9084217" lon="12.1179717"><ele>268.0</ele><time>2026-04-30T10:51:12.641Z</time></trkpt><trkpt lat="43.908455" lon="12.11811"><ele>269.0</ele><time>2026-04-30T10:51:13.648Z</time></trkpt><trkpt lat="43.9085117" lon="12.1182567"><ele>270.0</ele><time>2026-04-30T10:51:14.648Z</time></trkpt><trkpt lat="43.908585" lon="12.1184067"><ele>270.0</ele><time>2026-04-30T10:51:15.646Z</time></trkpt><trkpt lat="43.90867" lon="12.1185667"><ele>270.0</ele><time>2026-04-30T10:51:16.657Z</time></trkpt><trkpt lat="43.9087633" lon="12.1187417"><ele>270.0</ele><time>2026-04-30T10:51:17.645Z</time></trkpt><trkpt lat="43.9088583" lon="12.1189183"><ele>267.0</ele><time>2026-04-30T10:51:18.642Z</time></trkpt><trkpt lat="43.9089583" lon="12.1191067"><ele>264.0</ele><time>2026-04-30T10:51:19.65Z</time></trkpt><trkpt lat="43.9090567" lon="12.1192983"><ele>261.0</ele><time>2026-04-30T10:51:20.652Z</time></trkpt><trkpt lat="43.9091533" lon="12.1194883"><ele>263.3333333333333</ele><time>2026-04-30T10:51:21.648Z</time></trkpt><trkpt lat="43.9092567" lon="12.1196833"><ele>265.66666666666663</ele><time>2026-04-30T10:51:22.643Z</time></trkpt><trkpt lat="43.90936" lon="12.119885"><ele>268.0</ele><time>2026-04-30T10:51:23.652Z</time></trkpt><trkpt lat="43.9094617" lon="12.12009"><ele>268.0</ele><time>2026-04-30T10:51:24.642Z</time></trkpt><trkpt lat="43.909565" lon="12.1202983"><ele>268.0</ele><time>2026-04-30T10:51:25.65Z</time></trkpt><trkpt lat="43.9096633" lon="12.120505"><ele>268.0</ele><time>2026-04-30T10:51:26.646Z</time></trkpt><trkpt lat="43.909755" lon="12.1207133"><ele>270.0</ele><time>2026-04-30T10:51:27.657Z</time></trkpt><trkpt lat="43.9098567" lon="12.1209167"><ele>272.0</ele><time>2026-04-30T10:51:28.645Z</time></trkpt><trkpt lat="43.90997" lon="12.12111"><ele>274.0</ele><time>2026-04-30T10:51:29.646Z</time></trkpt><trkpt lat="43.9100983" lon="12.1212867"><ele>274.0</ele><time>2026-04-30T10:51:30.644Z</time></trkpt><trkpt lat="43.9102317" lon="12.1214567"><ele>274.0</ele><time>2026-04-30T10:51:31.651Z</time></trkpt><trkpt lat="43.91037" lon="12.12163"><ele>274.0</ele><time>2026-04-30T10:51:32.652Z</time></trkpt><trkpt lat="43.9105017" lon="12.1218"><ele>268.0</ele><time>2026-04-30T10:51:33.65Z</time></trkpt><trkpt lat="43.9106333" lon="12.1219717"><ele>262.0</ele><time>2026-04-30T10:51:34.658Z</time></trkpt><trkpt lat="43.9107583" lon="12.12215"><ele>256.0</ele><time>2026-04-30T10:51:35.648Z</time></trkpt><trkpt lat="43.9108717" lon="12.122335"><ele>258.3333333333333</ele><time>2026-04-30T10:51:36.653Z</time></trkpt><trkpt lat="43.9109733" lon="12.1225217"><ele>260.6666666666667</ele><time>2026-04-30T10:51:37.654Z</time></trkpt><trkpt lat="43.9110633" lon="12.1227017"><ele>263.0</ele><time>2026-04-30T10:51:38.643Z</time></trkpt><trkpt lat="43.91114" lon="12.1228767"><ele>263.0</ele><time>2026-04-30T10:51:39.651Z</time></trkpt><trkpt lat="43.9112183" lon="12.12305"><ele>263.0</ele><time>2026-04-30T10:51:40.651Z</time></trkpt><trkpt lat="43.9113067" lon="12.1232267"><ele>263.0</ele><time>2026-04-30T10:51:41.65Z</time></trkpt><trkpt lat="43.911395" lon="12.1234067"><ele>261.33333333333337</ele><time>2026-04-30T10:51:42.643Z</time></trkpt><trkpt lat="43.9114867" lon="12.1235817"><ele>259.6666666666667</ele><time>2026-04-30T10:51:43.646Z</time></trkpt><trkpt lat="43.9115833" lon="12.1237433"><ele>258.0</ele><time>2026-04-30T10:51:44.648Z</time></trkpt><trkpt lat="43.9116833" lon="12.123885"><ele>258.5</ele><time>2026-04-30T10:51:45.651Z</time></trkpt><trkpt lat="43.9117833" lon="12.1240017"><ele>259.0</ele><time>2026-04-30T10:51:46.647Z</time></trkpt><trkpt lat="43.9118917" lon="12.1240883"><ele>259.5</ele><time>2026-04-30T10:51:47.648Z</time></trkpt><trkpt lat="43.9120033" lon="12.1241317"><ele>260.0</ele><time>2026-04-30T10:51:48.649Z</time></trkpt><trkpt lat="43.9121167" lon="12.1241167"><ele>260.0</ele><time>2026-04-30T10:51:49.649Z</time></trkpt><trkpt lat="43.912225" lon="12.1240667"><ele>260.0</ele><time>2026-04-30T10:51:50.652Z</time></trkpt><trkpt lat="43.9123217" lon="12.1240267"><ele>260.0</ele><time>2026-04-30T10:51:51.663Z</time></trkpt><trkpt lat="43.9124083" lon="12.1240217"><ele>260.0</ele><time>2026-04-30T10:51:52.646Z</time></trkpt><trkpt lat="43.9124933" lon="12.1240567"><ele>260.0</ele><time>2026-04-30T10:51:53.647Z</time></trkpt><trkpt lat="43.9125533" lon="12.12415"><ele>258.25</ele><time>2026-04-30T10:51:54.648Z</time></trkpt><trkpt lat="43.9125767" lon="12.1242967"><ele>256.5</ele><time>2026-04-30T10:51:55.644Z</time></trkpt><trkpt lat="43.9125817" lon="12.124465"><ele>254.75</ele><time>2026-04-30T10:51:56.652Z</time></trkpt><trkpt lat="43.912565" lon="12.1246333"><ele>253.0</ele><time>2026-04-30T10:51:57.645Z</time></trkpt><trkpt lat="43.9125283" lon="12.1247933"><ele>252.0</ele><time>2026-04-30T10:51:58.645Z</time></trkpt><trkpt lat="43.912485" lon="12.12495"><ele>251.0</ele><time>2026-04-30T10:51:59.642Z</time></trkpt><trkpt lat="43.9124317" lon="12.1251017"><ele>250.0</ele><time>2026-04-30T10:52:00.646Z</time></trkpt><trkpt lat="43.9123817" lon="12.1252667"><ele>249.0</ele><time>2026-04-30T10:52:01.641Z</time></trkpt><trkpt lat="43.9123367" lon="12.125445"><ele>249.0</ele><time>2026-04-30T10:52:02.647Z</time></trkpt><trkpt lat="43.912305" lon="12.1256283"><ele>249.0</ele><time>2026-04-30T10:52:03.643Z</time></trkpt><trkpt lat="43.912295" lon="12.1258167"><ele>249.0</ele><time>2026-04-30T10:52:04.644Z</time></trkpt><trkpt lat="43.91231" lon="12.12601"><ele>249.0</ele><time>2026-04-30T10:52:05.645Z</time></trkpt><trkpt lat="43.912355" lon="12.1262017"><ele>248.0</ele><time>2026-04-30T10:52:06.646Z</time></trkpt><trkpt lat="43.9124217" lon="12.1263917"><ele>247.0</ele><time>2026-04-30T10:52:07.645Z</time></trkpt><trkpt lat="43.9124967" lon="12.1265833"><ele>246.0</ele><time>2026-04-30T10:52:08.648Z</time></trkpt><trkpt lat="43.9125783" lon="12.12677"><ele>247.5</ele><time>2026-04-30T10:52:09.656Z</time></trkpt><trkpt lat="43.912665" lon="12.1269467"><ele>249.0</ele><time>2026-04-30T10:52:10.647Z</time></trkpt><trkpt lat="43.9127467" lon="12.12712"><ele>250.5</ele><time>2026-04-30T10:52:11.646Z</time></trkpt><trkpt lat="43.9128333" lon="12.1272783"><ele>252.0</ele><time>2026-04-30T10:52:12.646Z</time></trkpt><trkpt lat="43.9129233" lon="12.1274183"><ele>252.0</ele><time>2026-04-30T10:52:13.646Z</time></trkpt><trkpt lat="43.9130183" lon="12.1275433"><ele>252.0</ele><time>2026-04-30T10:52:14.647Z</time></trkpt><trkpt lat="43.9131083" lon="12.1276533"><ele>252.0</ele><time>2026-04-30T10:52:15.648Z</time></trkpt><trkpt lat="43.9131933" lon="12.127755"><ele>252.0</ele><time>2026-04-30T10:52:16.644Z</time></trkpt><trkpt lat="43.9132733" lon="12.1278517"><ele>252.0</ele><time>2026-04-30T10:52:17.648Z</time></trkpt><trkpt lat="43.9133433" lon="12.1279483"><ele>252.0</ele><time>2026-04-30T10:52:18.641Z</time></trkpt><trkpt lat="43.9134033" lon="12.1280367"><ele>252.0</ele><time>2026-04-30T10:52:19.645Z</time></trkpt><trkpt lat="43.9134567" lon="12.1281133"><ele>252.0</ele><time>2026-04-30T10:52:20.648Z</time></trkpt><trkpt lat="43.9135" lon="12.12818"><ele>252.0</ele><time>2026-04-30T10:52:21.65Z</time></trkpt><trkpt lat="43.913565" lon="12.128285"><ele>252.0</ele><time>2026-04-30T10:52:23.64Z</time></trkpt><trkpt lat="43.9136233" lon="12.1283533"><ele>253.66666666666666</ele><time>2026-04-30T10:52:25.649Z</time></trkpt><trkpt lat="43.9136717" lon="12.1284233"><ele>255.33333333333331</ele><time>2026-04-30T10:52:28.647Z</time></trkpt><trkpt lat="43.9137433" lon="12.1285467"><ele>257.0</ele><time>2026-04-30T10:52:56.647Z</time></trkpt><trkpt lat="43.9138" lon="12.1285967"><ele>258.66666666666663</ele><time>2026-04-30T10:52:57.643Z</time></trkpt><trkpt lat="43.913865" lon="12.1286583"><ele>260.3333333333333</ele><time>2026-04-30T10:52:58.648Z</time></trkpt><trkpt lat="43.9139383" lon="12.1287383"><ele>262.0</ele><time>2026-04-30T10:52:59.645Z</time></trkpt><trkpt lat="43.9140117" lon="12.1288383"><ele>262.0</ele><time>2026-04-30T10:53:00.646Z</time></trkpt><trkpt lat="43.9140767" lon="12.1289617"><ele>262.0</ele><time>2026-04-30T10:53:01.642Z</time></trkpt><trkpt lat="43.914135" lon="12.1291017"><ele>262.0</ele><time>2026-04-30T10:53:02.644Z</time></trkpt><trkpt lat="43.9141933" lon="12.129245"><ele>262.0</ele><time>2026-04-30T10:53:03.652Z</time></trkpt><trkpt lat="43.9142517" lon="12.1293833"><ele>266.5</ele><time>2026-04-30T10:53:04.644Z</time></trkpt><trkpt lat="43.9143083" lon="12.1295283"><ele>271.0</ele><time>2026-04-30T10:53:05.64Z</time></trkpt><trkpt lat="43.9143617" lon="12.1296867"><ele>275.5</ele><time>2026-04-30T10:53:06.647Z</time></trkpt><trkpt lat="43.9143967" lon="12.12986"><ele>280.0</ele><time>2026-04-30T10:53:07.646Z</time></trkpt><trkpt lat="43.9144083" lon="12.1300517"><ele>280.0</ele><time>2026-04-30T10:53:08.645Z</time></trkpt><trkpt lat="43.9144117" lon="12.1302517"><ele>280.0</ele><time>2026-04-30T10:53:09.643Z</time></trkpt><trkpt lat="43.91441" lon="12.130455"><ele>280.0</ele><time>2026-04-30T10:53:10.658Z</time></trkpt><trkpt lat="43.91441" lon="12.1306617"><ele>280.0</ele><time>2026-04-30T10:53:11.65Z</time></trkpt><trkpt lat="43.9144067" lon="12.1308667"><ele>278.5</ele><time>2026-04-30T10:53:12.64Z</time></trkpt><trkpt lat="43.914405" lon="12.1310733"><ele>277.0</ele><time>2026-04-30T10:53:13.651Z</time></trkpt><trkpt lat="43.9144017" lon="12.1312833"><ele>275.5</ele><time>2026-04-30T10:53:14.654Z</time></trkpt><trkpt lat="43.9143967" lon="12.1314867"><ele>274.0</ele><time>2026-04-30T10:53:15.644Z</time></trkpt><trkpt lat="43.91439" lon="12.1316783"><ele>272.4</ele><time>2026-04-30T10:53:16.65Z</time></trkpt><trkpt lat="43.9143817" lon="12.1318583"><ele>270.79999999999995</ele><time>2026-04-30T10:53:17.65Z</time></trkpt><trkpt lat="43.9143733" lon="12.13202"><ele>269.20000000000005</ele><time>2026-04-30T10:53:18.651Z</time></trkpt><trkpt lat="43.9143667" lon="12.1321533"><ele>267.6</ele><time>2026-04-30T10:53:19.649Z</time></trkpt><trkpt lat="43.9143617" lon="12.1322683"><ele>266.0</ele><time>2026-04-30T10:53:20.642Z</time></trkpt><trkpt lat="43.9143617" lon="12.1323617"><ele>266.0</ele><time>2026-04-30T10:53:21.655Z</time></trkpt><trkpt lat="43.914345" lon="12.1324983"><ele>266.0</ele><time>2026-04-30T10:53:23.648Z</time></trkpt><trkpt lat="43.9142717" lon="12.1324067"><ele>266.0</ele><time>2026-04-30T10:53:26.644Z</time></trkpt><trkpt lat="43.91425" lon="12.1322467"><ele>266.0</ele><time>2026-04-30T10:53:28.651Z</time></trkpt><trkpt lat="43.91422" lon="12.1321567"><ele>266.0</ele><time>2026-04-30T10:53:29.643Z</time></trkpt><trkpt lat="43.9141767" lon="12.1320833"><ele>259.1666666666667</ele><time>2026-04-30T10:53:30.651Z</time></trkpt><trkpt lat="43.914105" lon="12.1320567"><ele>252.33333333333334</ele><time>2026-04-30T10:53:31.647Z</time></trkpt><trkpt lat="43.9140233" lon="12.1320683"><ele>245.5</ele><time>2026-04-30T10:53:32.654Z</time></trkpt><trkpt lat="43.9139483" lon="12.13213"><ele>238.66666666666669</ele><time>2026-04-30T10:53:33.639Z</time></trkpt><trkpt lat="43.91388" lon="12.1322117"><ele>231.83333333333334</ele><time>2026-04-30T10:53:34.649Z</time></trkpt><trkpt lat="43.9138217" lon="12.1323"><ele>225.0</ele><time>2026-04-30T10:53:35.638Z</time></trkpt><trkpt lat="43.9137767" lon="12.1323917"><ele>225.0</ele><time>2026-04-30T10:53:36.652Z</time></trkpt><trkpt lat="43.9137383" lon="12.1324867"><ele>225.0</ele><time>2026-04-30T10:53:37.651Z</time></trkpt><trkpt lat="43.91371" lon="12.13259"><ele>225.0</ele><time>2026-04-30T10:53:38.645Z</time></trkpt><trkpt lat="43.9136933" lon="12.1326983"><ele>225.0</ele><time>2026-04-30T10:53:39.645Z</time></trkpt><trkpt lat="43.9136967" lon="12.13283"><ele>225.0</ele><time>2026-04-30T10:53:40.641Z</time></trkpt><trkpt lat="43.9137117" lon="12.1329567"><ele>225.0</ele><time>2026-04-30T10:53:41.648Z</time></trkpt><trkpt lat="43.9137217" lon="12.1330883"><ele>225.2</ele><time>2026-04-30T10:53:42.655Z</time></trkpt><trkpt lat="43.91372" lon="12.133235"><ele>225.4</ele><time>2026-04-30T10:53:43.649Z</time></trkpt><trkpt lat="43.9137" lon="12.13338"><ele>225.60000000000002</ele><time>2026-04-30T10:53:44.646Z</time></trkpt><trkpt lat="43.913665" lon="12.1335117"><ele>225.8</ele><time>2026-04-30T10:53:45.644Z</time></trkpt><trkpt lat="43.9136283" lon="12.133635"><ele>226.0</ele><time>2026-04-30T10:53:46.646Z</time></trkpt><trkpt lat="43.913615" lon="12.1337583"><ele>226.0</ele><time>2026-04-30T10:53:47.643Z</time></trkpt><trkpt lat="43.913625" lon="12.1338817"><ele>226.00000000000003</ele><time>2026-04-30T10:53:48.638Z</time></trkpt><trkpt lat="43.9136583" lon="12.1340067"><ele>226.00000000000003</ele><time>2026-04-30T10:53:49.649Z</time></trkpt><trkpt lat="43.91372" lon="12.13413"><ele>226.0</ele><time>2026-04-30T10:53:50.642Z</time></trkpt><trkpt lat="43.913795" lon="12.1342483"><ele>226.0</ele><time>2026-04-30T10:53:51.654Z</time></trkpt><trkpt lat="43.913875" lon="12.1343567"><ele>225.49999999999997</ele><time>2026-04-30T10:53:52.639Z</time></trkpt><trkpt lat="43.9139567" lon="12.1344367"><ele>225.0</ele><time>2026-04-30T10:53:53.649Z</time></trkpt><trkpt lat="43.91403" lon="12.134505"><ele>224.5</ele><time>2026-04-30T10:53:54.649Z</time></trkpt><trkpt lat="43.9140883" lon="12.1345667"><ele>224.0</ele><time>2026-04-30T10:53:55.644Z</time></trkpt><trkpt lat="43.91412" lon="12.134695"><ele>223.49999999999997</ele><time>2026-04-30T10:53:57.651Z</time></trkpt><trkpt lat="43.91405" lon="12.1347717"><ele>223.0</ele><time>2026-04-30T10:53:59.643Z</time></trkpt><trkpt lat="43.913975" lon="12.1347267"><ele>223.0</ele><time>2026-04-30T10:54:00.652Z</time></trkpt><trkpt lat="43.9139033" lon="12.1346517"><ele>223.0</ele><time>2026-04-30T10:54:01.646Z</time></trkpt><trkpt lat="43.91382" lon="12.134555"><ele>223.0</ele><time>2026-04-30T10:54:02.644Z</time></trkpt><trkpt lat="43.9137217" lon="12.1344433"><ele>223.0</ele><time>2026-04-30T10:54:03.654Z</time></trkpt><trkpt lat="43.9136183" lon="12.1343233"><ele>223.0</ele><time>2026-04-30T10:54:04.642Z</time></trkpt><trkpt lat="43.91351" lon="12.1341933"><ele>223.0</ele><time>2026-04-30T10:54:05.653Z</time></trkpt><trkpt lat="43.9133917" lon="12.1340567"><ele>223.0</ele><time>2026-04-30T10:54:06.644Z</time></trkpt><trkpt lat="43.9132583" lon="12.13392"><ele>216.33333333333331</ele><time>2026-04-30T10:54:07.64Z</time></trkpt><trkpt lat="43.9131133" lon="12.1338033"><ele>209.66666666666669</ele><time>2026-04-30T10:54:08.644Z</time></trkpt><trkpt lat="43.9129667" lon="12.1336967"><ele>203.0</ele><time>2026-04-30T10:54:09.657Z</time></trkpt><trkpt lat="43.9128233" lon="12.133595"><ele>203.0</ele><time>2026-04-30T10:54:10.647Z</time></trkpt><trkpt lat="43.9126883" lon="12.1334983"><ele>203.0</ele><time>2026-04-30T10:54:11.64Z</time></trkpt><trkpt lat="43.9125633" lon="12.1334067"><ele>203.0</ele><time>2026-04-30T10:54:12.645Z</time></trkpt><trkpt lat="43.912445" lon="12.133325"><ele>203.0</ele><time>2026-04-30T10:54:13.656Z</time></trkpt><trkpt lat="43.9123417" lon="12.133245"><ele>202.8</ele><time>2026-04-30T10:54:14.642Z</time></trkpt><trkpt lat="43.9122683" lon="12.1331567"><ele>202.60000000000002</ele><time>2026-04-30T10:54:15.65Z</time></trkpt><trkpt lat="43.9122317" lon="12.1330533"><ele>202.39999999999998</ele><time>2026-04-30T10:54:16.66Z</time></trkpt><trkpt lat="43.9122167" lon="12.132945"><ele>202.2</ele><time>2026-04-30T10:54:17.641Z</time></trkpt><trkpt lat="43.9122317" lon="12.1328267"><ele>202.0</ele><time>2026-04-30T10:54:18.652Z</time></trkpt><trkpt lat="43.9122867" lon="12.132695"><ele>202.0</ele><time>2026-04-30T10:54:19.648Z</time></trkpt><trkpt lat="43.9123367" lon="12.13255"><ele>202.0</ele><time>2026-04-30T10:54:20.647Z</time></trkpt><trkpt lat="43.91238" lon="12.132405"><ele>202.0</ele><time>2026-04-30T10:54:21.659Z</time></trkpt><trkpt lat="43.91239" lon="12.132255"><ele>202.0</ele><time>2026-04-30T10:54:22.642Z</time></trkpt><trkpt lat="43.912385" lon="12.132095"><ele>202.75</ele><time>2026-04-30T10:54:23.654Z</time></trkpt><trkpt lat="43.9123717" lon="12.1319167"><ele>203.5</ele><time>2026-04-30T10:54:24.649Z</time></trkpt><trkpt lat="43.9123733" lon="12.131725"><ele>204.25</ele><time>2026-04-30T10:54:25.648Z</time></trkpt><trkpt lat="43.9123633" lon="12.1315533"><ele>205.0</ele><time>2026-04-30T10:54:26.656Z</time></trkpt><trkpt lat="43.9123317" lon="12.1313933"><ele>205.0</ele><time>2026-04-30T10:54:27.644Z</time></trkpt><trkpt lat="43.912285" lon="12.1312417"><ele>205.0</ele><time>2026-04-30T10:54:28.654Z</time></trkpt><trkpt lat="43.9122167" lon="12.1311033"><ele>205.0</ele><time>2026-04-30T10:54:29.644Z</time></trkpt><trkpt lat="43.91213" lon="12.1309983"><ele>205.0</ele><time>2026-04-30T10:54:30.652Z</time></trkpt><trkpt lat="43.9120333" lon="12.13092"><ele>205.0</ele><time>2026-04-30T10:54:31.65Z</time></trkpt><trkpt lat="43.9119433" lon="12.1308317"><ele>205.0</ele><time>2026-04-30T10:54:32.647Z</time></trkpt><trkpt lat="43.9118883" lon="12.1307033"><ele>205.0</ele><time>2026-04-30T10:54:33.642Z</time></trkpt><trkpt lat="43.9118567" lon="12.1305533"><ele>205.0</ele><time>2026-04-30T10:54:34.655Z</time></trkpt><trkpt lat="43.9118117" lon="12.130395"><ele>206.2</ele><time>2026-04-30T10:54:35.649Z</time></trkpt><trkpt lat="43.9117683" lon="12.1302483"><ele>207.4</ele><time>2026-04-30T10:54:36.646Z</time></trkpt><trkpt lat="43.9117233" lon="12.1301233"><ele>208.60000000000002</ele><time>2026-04-30T10:54:37.641Z</time></trkpt><trkpt lat="43.9116767" lon="12.1300317"><ele>209.8</ele><time>2026-04-30T10:54:38.641Z</time></trkpt><trkpt lat="43.911615" lon="12.1300017"><ele>211.0</ele><time>2026-04-30T10:54:39.653Z</time></trkpt><trkpt lat="43.911515" lon="12.1300933"><ele>211.0</ele><time>2026-04-30T10:54:41.644Z</time></trkpt><trkpt lat="43.9115133" lon="12.130215"><ele>211.0</ele><time>2026-04-30T10:54:42.642Z</time></trkpt><trkpt lat="43.9115317" lon="12.130345"><ele>211.0</ele><time>2026-04-30T10:54:43.652Z</time></trkpt><trkpt lat="43.911545" lon="12.1304883"><ele>211.0</ele><time>2026-04-30T10:54:44.646Z</time></trkpt><trkpt lat="43.911525" lon="12.1306483"><ele>211.0</ele><time>2026-04-30T10:54:45.652Z</time></trkpt><trkpt lat="43.911495" lon="12.1308083"><ele>215.0</ele><time>2026-04-30T10:54:46.647Z</time></trkpt><trkpt lat="43.91147" lon="12.1309617"><ele>219.0</ele><time>2026-04-30T10:54:47.639Z</time></trkpt><trkpt lat="43.911465" lon="12.131105"><ele>223.00000000000003</ele><time>2026-04-30T10:54:48.65Z</time></trkpt><trkpt lat="43.911495" lon="12.131225"><ele>227.0</ele><time>2026-04-30T10:54:49.644Z</time></trkpt><trkpt lat="43.9115483" lon="12.13132"><ele>231.0</ele><time>2026-04-30T10:54:50.649Z</time></trkpt><trkpt lat="43.9115867" lon="12.1314117"><ele>231.0</ele><time>2026-04-30T10:54:51.65Z</time></trkpt><trkpt lat="43.91161" lon="12.1315"><ele>231.0</ele><time>2026-04-30T10:54:52.658Z</time></trkpt><trkpt lat="43.9115633" lon="12.1315617"><ele>231.0</ele><time>2026-04-30T10:54:54.644Z</time></trkpt><trkpt lat="43.91148" lon="12.1314417"><ele>231.0</ele><time>2026-04-30T10:54:56.645Z</time></trkpt><trkpt lat="43.91143" lon="12.1313467"><ele>231.0</ele><time>2026-04-30T10:54:57.65Z</time></trkpt><trkpt lat="43.9113717" lon="12.1312333"><ele>231.0</ele><time>2026-04-30T10:54:58.639Z</time></trkpt><trkpt lat="43.9113033" lon="12.1311183"><ele>231.0</ele><time>2026-04-30T10:54:59.645Z</time></trkpt><trkpt lat="43.9112517" lon="12.13099"><ele>231.0</ele><time>2026-04-30T10:55:00.645Z</time></trkpt><trkpt lat="43.9112283" lon="12.1308433"><ele>231.0</ele><time>2026-04-30T10:55:01.643Z</time></trkpt><trkpt lat="43.911215" lon="12.1306767"><ele>231.0</ele><time>2026-04-30T10:55:02.646Z</time></trkpt><trkpt lat="43.9111983" lon="12.1305167"><ele>231.8</ele><time>2026-04-30T10:55:03.652Z</time></trkpt><trkpt lat="43.9111767" lon="12.1303783"><ele>232.60000000000002</ele><time>2026-04-30T10:55:04.645Z</time></trkpt><trkpt lat="43.9111333" lon="12.13026"><ele>233.4</ele><time>2026-04-30T10:55:05.654Z</time></trkpt><trkpt lat="43.9110567" lon="12.13017"><ele>234.2</ele><time>2026-04-30T10:55:06.639Z</time></trkpt><trkpt lat="43.9109533" lon="12.130095"><ele>235.0</ele><time>2026-04-30T10:55:07.642Z</time></trkpt><trkpt lat="43.91084" lon="12.1300333"><ele>235.0</ele><time>2026-04-30T10:55:08.65Z</time></trkpt><trkpt lat="43.910715" lon="12.129975"><ele>235.0</ele><time>2026-04-30T10:55:09.648Z</time></trkpt><trkpt lat="43.91059" lon="12.1299183"><ele>235.0</ele><time>2026-04-30T10:55:10.643Z</time></trkpt><trkpt lat="43.910465" lon="12.1298583"><ele>235.0</ele><time>2026-04-30T10:55:11.648Z</time></trkpt><trkpt lat="43.910335" lon="12.1297983"><ele>235.5</ele><time>2026-04-30T10:55:12.646Z</time></trkpt><trkpt lat="43.9102017" lon="12.1297317"><ele>236.0</ele><time>2026-04-30T10:55:13.65Z</time></trkpt><trkpt lat="43.9100667" lon="12.1296683"><ele>236.5</ele><time>2026-04-30T10:55:14.647Z</time></trkpt><trkpt lat="43.9099317" lon="12.1295967"><ele>237.0</ele><time>2026-04-30T10:55:15.646Z</time></trkpt><trkpt lat="43.909805" lon="12.1295"><ele>237.0</ele><time>2026-04-30T10:55:16.651Z</time></trkpt><trkpt lat="43.9096983" lon="12.1293683"><ele>237.0</ele><time>2026-04-30T10:55:17.641Z</time></trkpt><trkpt lat="43.9096" lon="12.129215"><ele>237.0</ele><time>2026-04-30T10:55:18.647Z</time></trkpt><trkpt lat="43.909505" lon="12.12905"><ele>237.0</ele><time>2026-04-30T10:55:19.646Z</time></trkpt><trkpt lat="43.909405" lon="12.1288867"><ele>241.66666666666669</ele><time>2026-04-30T10:55:20.65Z</time></trkpt><trkpt lat="43.909305" lon="12.128725"><ele>246.33333333333334</ele><time>2026-04-30T10:55:21.654Z</time></trkpt><trkpt lat="43.9092033" lon="12.1285633"><ele>251.0</ele><time>2026-04-30T10:55:22.649Z</time></trkpt><trkpt lat="43.909105" lon="12.1284067"><ele>251.0</ele><time>2026-04-30T10:55:23.649Z</time></trkpt><trkpt lat="43.9090183" lon="12.1282567"><ele>251.0</ele><time>2026-04-30T10:55:24.647Z</time></trkpt><trkpt lat="43.9089383" lon="12.128115"><ele>251.0</ele><time>2026-04-30T10:55:25.654Z</time></trkpt><trkpt lat="43.9088667" lon="12.1279767"><ele>251.0</ele><time>2026-04-30T10:55:26.646Z</time></trkpt><trkpt lat="43.908795" lon="12.1278617"><ele>247.8</ele><time>2026-04-30T10:55:27.642Z</time></trkpt><trkpt lat="43.908715" lon="12.1277733"><ele>244.60000000000002</ele><time>2026-04-30T10:55:28.645Z</time></trkpt><trkpt lat="43.9086233" lon="12.1277133"><ele>241.4</ele><time>2026-04-30T10:55:29.648Z</time></trkpt><trkpt lat="43.9085183" lon="12.1276883"><ele>238.2</ele><time>2026-04-30T10:55:30.646Z</time></trkpt><trkpt lat="43.9084067" lon="12.1276917"><ele>235.0</ele><time>2026-04-30T10:55:31.643Z</time></trkpt><trkpt lat="43.90829" lon="12.1277283"><ele>245.25</ele><time>2026-04-30T10:55:32.649Z</time></trkpt><trkpt lat="43.9081683" lon="12.1277733"><ele>255.5</ele><time>2026-04-30T10:55:33.653Z</time></trkpt><trkpt lat="43.9080383" lon="12.12783"><ele>265.75</ele><time>2026-04-30T10:55:34.651Z</time></trkpt><trkpt lat="43.907905" lon="12.1278867"><ele>276.0</ele><time>2026-04-30T10:55:35.654Z</time></trkpt><trkpt lat="43.9077717" lon="12.1279417"><ele>276.0</ele><time>2026-04-30T10:55:36.644Z</time></trkpt><trkpt lat="43.9076367" lon="12.1279967"><ele>276.0</ele><time>2026-04-30T10:55:37.644Z</time></trkpt><trkpt lat="43.9075017" lon="12.128055"><ele>276.0</ele><time>2026-04-30T10:55:38.646Z</time></trkpt><trkpt lat="43.9073667" lon="12.1281117"><ele>276.0</ele><time>2026-04-30T10:55:39.65Z</time></trkpt><trkpt lat="43.9072267" lon="12.1281733"><ele>277.0</ele><time>2026-04-30T10:55:40.645Z</time></trkpt><trkpt lat="43.9070917" lon="12.1282367"><ele>278.0</ele><time>2026-04-30T10:55:41.645Z</time></trkpt><trkpt lat="43.9069567" lon="12.1283067"><ele>279.0</ele><time>2026-04-30T10:55:42.659Z</time></trkpt><trkpt lat="43.9068233" lon="12.1283767"><ele>280.0</ele><time>2026-04-30T10:55:43.645Z</time></trkpt><trkpt lat="43.90669" lon="12.1284433"><ele>282.0</ele><time>2026-04-30T10:55:44.665Z</time></trkpt><trkpt lat="43.9065667" lon="12.1285"><ele>284.0</ele><time>2026-04-30T10:55:45.646Z</time></trkpt><trkpt lat="43.9064533" lon="12.1285467"><ele>286.0</ele><time>2026-04-30T10:55:46.643Z</time></trkpt><trkpt lat="43.90635" lon="12.1285983"><ele>288.0</ele><time>2026-04-30T10:55:47.649Z</time></trkpt><trkpt lat="43.9062733" lon="12.1286733"><ele>288.0</ele><time>2026-04-30T10:55:48.642Z</time></trkpt><trkpt lat="43.9062267" lon="12.1287833"><ele>288.0</ele><time>2026-04-30T10:55:49.644Z</time></trkpt><trkpt lat="43.9062067" lon="12.128915"><ele>288.0</ele><time>2026-04-30T10:55:50.642Z</time></trkpt><trkpt lat="43.906225" lon="12.1290533"><ele>288.0</ele><time>2026-04-30T10:55:51.644Z</time></trkpt><trkpt lat="43.9062717" lon="12.1291933"><ele>288.0</ele><time>2026-04-30T10:55:52.641Z</time></trkpt><trkpt lat="43.9063317" lon="12.12935"><ele>289.75</ele><time>2026-04-30T10:55:53.652Z</time></trkpt><trkpt lat="43.90639" lon="12.1295167"><ele>291.5</ele><time>2026-04-30T10:55:54.647Z</time></trkpt><trkpt lat="43.9064517" lon="12.1296983"><ele>293.25</ele><time>2026-04-30T10:55:55.655Z</time></trkpt><trkpt lat="43.9065217" lon="12.1298917"><ele>295.0</ele><time>2026-04-30T10:55:56.658Z</time></trkpt><trkpt lat="43.9066" lon="12.130095"><ele>294.75</ele><time>2026-04-30T10:55:57.643Z</time></trkpt><trkpt lat="43.906685" lon="12.1302917"><ele>294.5</ele><time>2026-04-30T10:55:58.649Z</time></trkpt><trkpt lat="43.906765" lon="12.13047"><ele>294.25</ele><time>2026-04-30T10:55:59.642Z</time></trkpt><trkpt lat="43.9068333" lon="12.1306233"><ele>294.0</ele><time>2026-04-30T10:56:00.645Z</time></trkpt><trkpt lat="43.9068883" lon="12.13075"><ele>294.0</ele><time>2026-04-30T10:56:01.649Z</time></trkpt><trkpt lat="43.9069083" lon="12.13086"><ele>294.0</ele><time>2026-04-30T10:56:02.646Z</time></trkpt><trkpt lat="43.9069083" lon="12.13096"><ele>294.0</ele><time>2026-04-30T10:56:03.646Z</time></trkpt><trkpt lat="43.9068317" lon="12.1309817"><ele>294.0</ele><time>2026-04-30T10:56:05.654Z</time></trkpt><trkpt lat="43.9067783" lon="12.130925"><ele>294.0</ele><time>2026-04-30T10:56:06.642Z</time></trkpt><trkpt lat="43.906715" lon="12.1308217"><ele>294.0</ele><time>2026-04-30T10:56:07.646Z</time></trkpt><trkpt lat="43.9066483" lon="12.1306983"><ele>297.25</ele><time>2026-04-30T10:56:08.648Z</time></trkpt><trkpt lat="43.906585" lon="12.1305633"><ele>300.5</ele><time>2026-04-30T10:56:09.647Z</time></trkpt><trkpt lat="43.9065067" lon="12.1304167"><ele>303.75</ele><time>2026-04-30T10:56:10.648Z</time></trkpt><trkpt lat="43.9064167" lon="12.13026"><ele>307.0</ele><time>2026-04-30T10:56:11.64Z</time></trkpt><trkpt lat="43.9063233" lon="12.1301033"><ele>307.0</ele><time>2026-04-30T10:56:12.655Z</time></trkpt><trkpt lat="43.906225" lon="12.129965"><ele>307.0</ele><time>2026-04-30T10:56:13.654Z</time></trkpt><trkpt lat="43.9061283" lon="12.1298433"><ele>307.0</ele><time>2026-04-30T10:56:14.649Z</time></trkpt><trkpt lat="43.9060383" lon="12.129755"><ele>307.0</ele><time>2026-04-30T10:56:15.654Z</time></trkpt><trkpt lat="43.9059383" lon="12.12972"><ele>308.25</ele><time>2026-04-30T10:56:16.649Z</time></trkpt><trkpt lat="43.9058383" lon="12.129725"><ele>309.5</ele><time>2026-04-30T10:56:17.639Z</time></trkpt><trkpt lat="43.9057267" lon="12.1297733"><ele>310.75</ele><time>2026-04-30T10:56:18.652Z</time></trkpt><trkpt lat="43.90561" lon="12.1298233"><ele>312.0</ele><time>2026-04-30T10:56:19.65Z</time></trkpt><trkpt lat="43.9054883" lon="12.129865"><ele>312.0</ele><time>2026-04-30T10:56:20.64Z</time></trkpt><trkpt lat="43.90536" lon="12.1298867"><ele>312.0</ele><time>2026-04-30T10:56:21.644Z</time></trkpt><trkpt lat="43.9052367" lon="12.1298683"><ele>312.0</ele><time>2026-04-30T10:56:22.64Z</time></trkpt><trkpt lat="43.9051217" lon="12.1298117"><ele>312.0</ele><time>2026-04-30T10:56:23.649Z</time></trkpt><trkpt lat="43.9050133" lon="12.129725"><ele>318.25</ele><time>2026-04-30T10:56:24.648Z</time></trkpt><trkpt lat="43.9049167" lon="12.1296067"><ele>324.5</ele><time>2026-04-30T10:56:25.657Z</time></trkpt><trkpt lat="43.90483" lon="12.1294583"><ele>330.75</ele><time>2026-04-30T10:56:26.651Z</time></trkpt><trkpt lat="43.90475" lon="12.1292867"><ele>337.0</ele><time>2026-04-30T10:56:27.647Z</time></trkpt><trkpt lat="43.9046867" lon="12.129105"><ele>335.66666666666663</ele><time>2026-04-30T10:56:28.652Z</time></trkpt><trkpt lat="43.9046383" lon="12.12891"><ele>334.3333333333333</ele><time>2026-04-30T10:56:29.644Z</time></trkpt><trkpt lat="43.904605" lon="12.1287"><ele>333.0</ele><time>2026-04-30T10:56:30.654Z</time></trkpt><trkpt lat="43.9045717" lon="12.1284883"><ele>333.0</ele><time>2026-04-30T10:56:31.643Z</time></trkpt><trkpt lat="43.9045367" lon="12.1282817"><ele>333.0</ele><time>2026-04-30T10:56:32.639Z</time></trkpt><trkpt lat="43.9045133" lon="12.128075"><ele>333.0</ele><time>2026-04-30T10:56:33.649Z</time></trkpt><trkpt lat="43.9044883" lon="12.1278717"><ele>331.75</ele><time>2026-04-30T10:56:34.649Z</time></trkpt><trkpt lat="43.90446" lon="12.127675"><ele>330.5</ele><time>2026-04-30T10:56:35.641Z</time></trkpt><trkpt lat="43.904425" lon="12.127495"><ele>329.25</ele><time>2026-04-30T10:56:36.644Z</time></trkpt><trkpt lat="43.9043717" lon="12.1273517"><ele>328.0</ele><time>2026-04-30T10:56:37.646Z</time></trkpt><trkpt lat="43.9043067" lon="12.127245"><ele>330.4</ele><time>2026-04-30T10:56:38.65Z</time></trkpt><trkpt lat="43.9042283" lon="12.1271883"><ele>332.79999999999995</ele><time>2026-04-30T10:56:39.648Z</time></trkpt><trkpt lat="43.9041467" lon="12.12715"><ele>335.2</ele><time>2026-04-30T10:56:40.648Z</time></trkpt><trkpt lat="43.9040583" lon="12.1271467"><ele>337.6</ele><time>2026-04-30T10:56:41.65Z</time></trkpt><trkpt lat="43.903975" lon="12.12725"><ele>340.0</ele><time>2026-04-30T10:56:42.656Z</time></trkpt><trkpt lat="43.903925" lon="12.1273817"><ele>344.75</ele><time>2026-04-30T10:56:43.657Z</time></trkpt><trkpt lat="43.90389" lon="12.1275217"><ele>349.5</ele><time>2026-04-30T10:56:44.644Z</time></trkpt><trkpt lat="43.9038717" lon="12.12767"><ele>354.25</ele><time>2026-04-30T10:56:45.642Z</time></trkpt><trkpt lat="43.9038667" lon="12.12783"><ele>359.0</ele><time>2026-04-30T10:56:46.649Z</time></trkpt><trkpt lat="43.9038383" lon="12.1279917"><ele>359.0</ele><time>2026-04-30T10:56:47.654Z</time></trkpt><trkpt lat="43.9037917" lon="12.12815"><ele>359.0</ele><time>2026-04-30T10:56:48.652Z</time></trkpt><trkpt lat="43.9037367" lon="12.1283"><ele>359.0</ele><time>2026-04-30T10:56:49.652Z</time></trkpt><trkpt lat="43.9036933" lon="12.1284517"><ele>359.0</ele><time>2026-04-30T10:56:50.648Z</time></trkpt><trkpt lat="43.9036667" lon="12.1286083"><ele>361.0</ele><time>2026-04-30T10:56:51.647Z</time></trkpt><trkpt lat="43.9036633" lon="12.1287667"><ele>363.0</ele><time>2026-04-30T10:56:52.646Z</time></trkpt><trkpt lat="43.9036883" lon="12.128925"><ele>365.0</ele><time>2026-04-30T10:56:53.641Z</time></trkpt><trkpt lat="43.9037433" lon="12.1290683"><ele>367.0</ele><time>2026-04-30T10:56:54.643Z</time></trkpt><trkpt lat="43.9038133" lon="12.129215"><ele>368.25</ele><time>2026-04-30T10:56:55.647Z</time></trkpt><trkpt lat="43.903885" lon="12.12937"><ele>369.5</ele><time>2026-04-30T10:56:56.656Z</time></trkpt><trkpt lat="43.9039583" lon="12.12953"><ele>370.75</ele><time>2026-04-30T10:56:57.643Z</time></trkpt><trkpt lat="43.90402" lon="12.129675"><ele>372.0</ele><time>2026-04-30T10:56:58.646Z</time></trkpt><trkpt lat="43.9040717" lon="12.129805"><ele>372.8</ele><time>2026-04-30T10:56:59.646Z</time></trkpt><trkpt lat="43.9041117" lon="12.129925"><ele>373.6</ele><time>2026-04-30T10:57:00.639Z</time></trkpt><trkpt lat="43.9041433" lon="12.1300467"><ele>374.40000000000003</ele><time>2026-04-30T10:57:01.661Z</time></trkpt><trkpt lat="43.90417" lon="12.1301817"><ele>375.20000000000005</ele><time>2026-04-30T10:57:02.645Z</time></trkpt><trkpt lat="43.9041917" lon="12.1303333"><ele>376.0</ele><time>2026-04-30T10:57:03.641Z</time></trkpt><trkpt lat="43.9042133" lon="12.1304933"><ele>376.0</ele><time>2026-04-30T10:57:04.643Z</time></trkpt><trkpt lat="43.9042217" lon="12.1306583"><ele>376.0</ele><time>2026-04-30T10:57:05.645Z</time></trkpt><trkpt lat="43.9042033" lon="12.1308233"><ele>376.0</ele><time>2026-04-30T10:57:06.646Z</time></trkpt><trkpt lat="43.9041617" lon="12.1309883"><ele>376.0</ele><time>2026-04-30T10:57:07.643Z</time></trkpt><trkpt lat="43.9041083" lon="12.1311533"><ele>379.0</ele><time>2026-04-30T10:57:08.643Z</time></trkpt><trkpt lat="43.90406" lon="12.13132"><ele>382.0</ele><time>2026-04-30T10:57:09.65Z</time></trkpt><trkpt lat="43.9040267" lon="12.1314983"><ele>385.0</ele><time>2026-04-30T10:57:10.654Z</time></trkpt><trkpt lat="43.9040067" lon="12.13168"><ele>388.0</ele><time>2026-04-30T10:57:11.645Z</time></trkpt><trkpt lat="43.903985" lon="12.1318533"><ele>391.75</ele><time>2026-04-30T10:57:12.647Z</time></trkpt><trkpt lat="43.903955" lon="12.1320167"><ele>395.5</ele><time>2026-04-30T10:57:13.647Z</time></trkpt><trkpt lat="43.9039117" lon="12.1321683"><ele>399.25</ele><time>2026-04-30T10:57:14.649Z</time></trkpt><trkpt lat="43.9038483" lon="12.1323017"><ele>403.0</ele><time>2026-04-30T10:57:15.649Z</time></trkpt><trkpt lat="43.9037633" lon="12.1324117"><ele>403.75</ele><time>2026-04-30T10:57:16.65Z</time></trkpt><trkpt lat="43.9036717" lon="12.1324967"><ele>404.5</ele><time>2026-04-30T10:57:17.645Z</time></trkpt><trkpt lat="43.90357" lon="12.132555"><ele>405.25</ele><time>2026-04-30T10:57:18.64Z</time></trkpt><trkpt lat="43.9034617" lon="12.1326133"><ele>406.0</ele><time>2026-04-30T10:57:19.65Z</time></trkpt><trkpt lat="43.9033483" lon="12.1326733"><ele>403.5</ele><time>2026-04-30T10:57:20.649Z</time></trkpt><trkpt lat="43.9032283" lon="12.1327217"><ele>401.0</ele><time>2026-04-30T10:57:21.654Z</time></trkpt><trkpt lat="43.9031067" lon="12.1327617"><ele>398.5</ele><time>2026-04-30T10:57:22.654Z</time></trkpt><trkpt lat="43.90298" lon="12.1327967"><ele>396.0</ele><time>2026-04-30T10:57:23.649Z</time></trkpt><trkpt lat="43.9028467" lon="12.1328183"><ele>396.0</ele><time>2026-04-30T10:57:24.646Z</time></trkpt><trkpt lat="43.9027183" lon="12.1328133"><ele>396.0</ele><time>2026-04-30T10:57:25.648Z</time></trkpt><trkpt lat="43.9025967" lon="12.1328033"><ele>396.0</ele><time>2026-04-30T10:57:26.649Z</time></trkpt><trkpt lat="43.9024717" lon="12.1328217"><ele>396.0</ele><time>2026-04-30T10:57:27.661Z</time></trkpt><trkpt lat="43.9023433" lon="12.1328783"><ele>396.5</ele><time>2026-04-30T10:57:28.66Z</time></trkpt><trkpt lat="43.902215" lon="12.1329583"><ele>397.0</ele><time>2026-04-30T10:57:29.645Z</time></trkpt><trkpt lat="43.9020833" lon="12.133045"><ele>397.5</ele><time>2026-04-30T10:57:30.643Z</time></trkpt><trkpt lat="43.9019583" lon="12.133155"><ele>398.0</ele><time>2026-04-30T10:57:31.645Z</time></trkpt><trkpt lat="43.90185" lon="12.1332833"><ele>399.25</ele><time>2026-04-30T10:57:32.644Z</time></trkpt><trkpt lat="43.9017533" lon="12.1334117"><ele>400.5</ele><time>2026-04-30T10:57:33.65Z</time></trkpt><trkpt lat="43.9016617" lon="12.1335367"><ele>401.75</ele><time>2026-04-30T10:57:34.642Z</time></trkpt><trkpt lat="43.901575" lon="12.13365"><ele>403.0</ele><time>2026-04-30T10:57:35.648Z</time></trkpt><trkpt lat="43.9014833" lon="12.1337533"><ele>403.0</ele><time>2026-04-30T10:57:36.643Z</time></trkpt><trkpt lat="43.90137" lon="12.1338367"><ele>403.0</ele><time>2026-04-30T10:57:37.648Z</time></trkpt><trkpt lat="43.9012467" lon="12.13391"><ele>403.0</ele><time>2026-04-30T10:57:38.652Z</time></trkpt><trkpt lat="43.901125" lon="12.133995"><ele>403.0</ele><time>2026-04-30T10:57:39.66Z</time></trkpt><trkpt lat="43.9009983" lon="12.1340867"><ele>403.25</ele><time>2026-04-30T10:57:40.654Z</time></trkpt><trkpt lat="43.9008783" lon="12.134185"><ele>403.5</ele><time>2026-04-30T10:57:41.641Z</time></trkpt><trkpt lat="43.9007583" lon="12.134295"><ele>403.75</ele><time>2026-04-30T10:57:42.644Z</time></trkpt><trkpt lat="43.90064" lon="12.134395"><ele>404.0</ele><time>2026-04-30T10:57:43.653Z</time></trkpt><trkpt lat="43.900525" lon="12.134475"><ele>404.0</ele><time>2026-04-30T10:57:44.644Z</time></trkpt><trkpt lat="43.90041" lon="12.1345283"><ele>404.0</ele><time>2026-04-30T10:57:45.647Z</time></trkpt><trkpt lat="43.9002883" lon="12.134535"><ele>404.0</ele><time>2026-04-30T10:57:46.645Z</time></trkpt><trkpt lat="43.900165" lon="12.1344883"><ele>404.0</ele><time>2026-04-30T10:57:47.642Z</time></trkpt><trkpt lat="43.9000417" lon="12.1344117"><ele>401.75</ele><time>2026-04-30T10:57:48.651Z</time></trkpt><trkpt lat="43.89992" lon="12.13432"><ele>399.5</ele><time>2026-04-30T10:57:49.655Z</time></trkpt><trkpt lat="43.8997967" lon="12.1342417"><ele>397.25</ele><time>2026-04-30T10:57:50.645Z</time></trkpt><trkpt lat="43.899675" lon="12.1341483"><ele>395.0</ele><time>2026-04-30T10:57:51.647Z</time></trkpt><trkpt lat="43.8995583" lon="12.13403"><ele>395.0</ele><time>2026-04-30T10:57:52.646Z</time></trkpt><trkpt lat="43.899435" lon="12.1339133"><ele>395.0</ele><time>2026-04-30T10:57:53.653Z</time></trkpt><trkpt lat="43.8993117" lon="12.1338017"><ele>395.0</ele><time>2026-04-30T10:57:54.648Z</time></trkpt><trkpt lat="43.899195" lon="12.1336917"><ele>395.0</ele><time>2026-04-30T10:57:55.644Z</time></trkpt><trkpt lat="43.899095" lon="12.1335883"><ele>399.49999999999994</ele><time>2026-04-30T10:57:56.651Z</time></trkpt><trkpt lat="43.8990167" lon="12.1335017"><ele>404.0</ele><time>2026-04-30T10:57:57.649Z</time></trkpt><trkpt lat="43.8989483" lon="12.1334533"><ele>408.5</ele><time>2026-04-30T10:57:58.647Z</time></trkpt><trkpt lat="43.8988867" lon="12.133435"><ele>413.0</ele><time>2026-04-30T10:57:59.645Z</time></trkpt><trkpt lat="43.8988567" lon="12.1335183"><ele>417.49999999999994</ele><time>2026-04-30T10:58:00.648Z</time></trkpt><trkpt lat="43.898845" lon="12.133615"><ele>422.0</ele><time>2026-04-30T10:58:01.64Z</time></trkpt><trkpt lat="43.8989" lon="12.1337117"><ele>422.0</ele><time>2026-04-30T10:58:02.651Z</time></trkpt><trkpt lat="43.8989767" lon="12.1338033"><ele>422.0</ele><time>2026-04-30T10:58:03.65Z</time></trkpt><trkpt lat="43.899075" lon="12.1338917"><ele>422.0</ele><time>2026-04-30T10:58:04.64Z</time></trkpt><trkpt lat="43.89917" lon="12.1340017"><ele>422.0</ele><time>2026-04-30T10:58:05.648Z</time></trkpt><trkpt lat="43.8992633" lon="12.1341267"><ele>420.75</ele><time>2026-04-30T10:58:06.651Z</time></trkpt><trkpt lat="43.8993583" lon="12.1342467"><ele>419.5</ele><time>2026-04-30T10:58:07.649Z</time></trkpt><trkpt lat="43.8994533" lon="12.1343567"><ele>418.25</ele><time>2026-04-30T10:58:08.645Z</time></trkpt><trkpt lat="43.8995383" lon="12.1344717"><ele>417.0</ele><time>2026-04-30T10:58:09.653Z</time></trkpt><trkpt lat="43.8996133" lon="12.1345933"><ele>417.0</ele><time>2026-04-30T10:58:10.649Z</time></trkpt><trkpt lat="43.899695" lon="12.1347117"><ele>417.0</ele><time>2026-04-30T10:58:11.644Z</time></trkpt><trkpt lat="43.8997833" lon="12.1348233"><ele>417.0</ele><time>2026-04-30T10:58:12.645Z</time></trkpt><trkpt lat="43.8998717" lon="12.13494"><ele>417.0</ele><time>2026-04-30T10:58:13.65Z</time></trkpt><trkpt lat="43.8999433" lon="12.1350567"><ele>415.6</ele><time>2026-04-30T10:58:14.648Z</time></trkpt><trkpt lat="43.8999883" lon="12.1351533"><ele>414.20000000000005</ele><time>2026-04-30T10:58:15.648Z</time></trkpt><trkpt lat="43.900045" lon="12.135275"><ele>412.8</ele><time>2026-04-30T10:58:17.646Z</time></trkpt><trkpt lat="43.9001333" lon="12.1353883"><ele>411.4</ele><time>2026-04-30T10:59:04.641Z</time></trkpt><trkpt lat="43.9001783" lon="12.1354583"><ele>410.0</ele><time>2026-04-30T10:59:05.647Z</time></trkpt><trkpt lat="43.900205" lon="12.135555"><ele>409.99999999999994</ele><time>2026-04-30T10:59:06.649Z</time></trkpt><trkpt lat="43.9002133" lon="12.13567"><ele>410.0</ele><time>2026-04-30T10:59:07.655Z</time></trkpt><trkpt lat="43.9001983" lon="12.1358033"><ele>410.0</ele><time>2026-04-30T10:59:08.643Z</time></trkpt><trkpt lat="43.90018" lon="12.1359333"><ele>410.0</ele><time>2026-04-30T10:59:09.646Z</time></trkpt><trkpt lat="43.90016" lon="12.1360467"><ele>409.99999999999994</ele><time>2026-04-30T10:59:10.646Z</time></trkpt><trkpt lat="43.9001383" lon="12.1361317"><ele>410.0</ele><time>2026-04-30T10:59:11.644Z</time></trkpt><trkpt lat="43.9000733" lon="12.1362483"><ele>412.49999999999994</ele><time>2026-04-30T10:59:13.649Z</time></trkpt><trkpt lat="43.9000067" lon="12.1362567"><ele>415.0</ele><time>2026-04-30T10:59:15.644Z</time></trkpt><trkpt lat="43.8999483" lon="12.1362067"><ele>417.5</ele><time>2026-04-30T10:59:18.644Z</time></trkpt><trkpt lat="43.9000167" lon="12.136275"><ele>420.0</ele><time>2026-04-30T10:59:27.65Z</time></trkpt><trkpt lat="43.9000883" lon="12.13631"><ele>422.49999999999994</ele><time>2026-04-30T10:59:30.648Z</time></trkpt><trkpt lat="43.9001717" lon="12.1363883"><ele>425.0</ele><time>2026-04-30T10:59:33.647Z</time></trkpt><trkpt lat="43.9002183" lon="12.1364533"><ele>425.0</ele><time>2026-04-30T10:59:34.643Z</time></trkpt><trkpt lat="43.9002767" lon="12.1365383"><ele>425.0</ele><time>2026-04-30T10:59:35.642Z</time></trkpt><trkpt lat="43.9003517" lon="12.1366267"><ele>425.0</ele><time>2026-04-30T10:59:36.642Z</time></trkpt><trkpt lat="43.9004383" lon="12.13672"><ele>425.0</ele><time>2026-04-30T10:59:37.649Z</time></trkpt><trkpt lat="43.9005217" lon="12.1368167"><ele>425.0</ele><time>2026-04-30T10:59:38.645Z</time></trkpt><trkpt lat="43.9006017" lon="12.1369117"><ele>429.6</ele><time>2026-04-30T10:59:39.646Z</time></trkpt><trkpt lat="43.900675" lon="12.13701"><ele>434.2</ele><time>2026-04-30T10:59:40.645Z</time></trkpt><trkpt lat="43.9007417" lon="12.1371183"><ele>438.79999999999995</ele><time>2026-04-30T10:59:41.649Z</time></trkpt><trkpt lat="43.9007917" lon="12.137235"><ele>443.4</ele><time>2026-04-30T10:59:42.652Z</time></trkpt><trkpt lat="43.900825" lon="12.1373567"><ele>448.0</ele><time>2026-04-30T10:59:43.643Z</time></trkpt><trkpt lat="43.9008483" lon="12.1374733"><ele>450.33333333333337</ele><time>2026-04-30T10:59:44.648Z</time></trkpt><trkpt lat="43.900865" lon="12.13758"><ele>452.6666666666667</ele><time>2026-04-30T10:59:45.652Z</time></trkpt><trkpt lat="43.90088" lon="12.1376717"><ele>455.0</ele><time>2026-04-30T10:59:46.652Z</time></trkpt><trkpt lat="43.9009117" lon="12.1378233"><ele>457.33333333333337</ele><time>2026-04-30T10:59:48.651Z</time></trkpt><trkpt lat="43.900945" lon="12.13794"><ele>459.6666666666667</ele><time>2026-04-30T10:59:50.644Z</time></trkpt><trkpt lat="43.90101" lon="12.1379917"><ele>462.0</ele><time>2026-04-30T11:03:56.656Z</time></trkpt><trkpt lat="43.9009833" lon="12.1378967"><ele>462.0</ele><time>2026-04-30T11:04:01.663Z</time></trkpt><trkpt lat="43.9009183" lon="12.1377467"><ele>462.00000000000006</ele><time>2026-04-30T11:04:03.65Z</time></trkpt><trkpt lat="43.9008917" lon="12.1376517"><ele>462.00000000000006</ele><time>2026-04-30T11:04:04.657Z</time></trkpt><trkpt lat="43.900865" lon="12.137545"><ele>462.0</ele><time>2026-04-30T11:04:05.658Z</time></trkpt><trkpt lat="43.900845" lon="12.1374317"><ele>462.0</ele><time>2026-04-30T11:04:06.648Z</time></trkpt><trkpt lat="43.9008167" lon="12.13732"><ele>459.20000000000005</ele><time>2026-04-30T11:04:07.649Z</time></trkpt><trkpt lat="43.900785" lon="12.1372133"><ele>456.40000000000003</ele><time>2026-04-30T11:04:08.662Z</time></trkpt><trkpt lat="43.9007383" lon="12.1371033"><ele>453.59999999999997</ele><time>2026-04-30T11:04:09.662Z</time></trkpt><trkpt lat="43.90067" lon="12.1369917"><ele>450.79999999999995</ele><time>2026-04-30T11:04:10.657Z</time></trkpt><trkpt lat="43.90059" lon="12.1368883"><ele>448.0</ele><time>2026-04-30T11:04:11.657Z</time></trkpt><trkpt lat="43.90051" lon="12.1367883"><ele>448.00000000000006</ele><time>2026-04-30T11:04:12.65Z</time></trkpt><trkpt lat="43.9004267" lon="12.1366933"><ele>448.0</ele><time>2026-04-30T11:04:13.67Z</time></trkpt><trkpt lat="43.9003467" lon="12.1366017"><ele>448.0</ele><time>2026-04-30T11:04:14.649Z</time></trkpt><trkpt lat="43.9002767" lon="12.1365183"><ele>448.0</ele><time>2026-04-30T11:04:15.649Z</time></trkpt><trkpt lat="43.9002233" lon="12.1364367"><ele>448.00000000000006</ele><time>2026-04-30T11:04:16.65Z</time></trkpt><trkpt lat="43.9001917" lon="12.1363583"><ele>448.0</ele><time>2026-04-30T11:04:17.648Z</time></trkpt><trkpt lat="43.9001717" lon="12.1362083"><ele>444.1666666666667</ele><time>2026-04-30T11:04:19.66Z</time></trkpt><trkpt lat="43.9001817" lon="12.1360433"><ele>440.33333333333337</ele><time>2026-04-30T11:04:21.646Z</time></trkpt><trkpt lat="43.9001933" lon="12.1359483"><ele>436.5</ele><time>2026-04-30T11:04:22.649Z</time></trkpt><trkpt lat="43.9002067" lon="12.13585"><ele>432.66666666666663</ele><time>2026-04-30T11:04:23.642Z</time></trkpt><trkpt lat="43.9002183" lon="12.13575"><ele>428.8333333333333</ele><time>2026-04-30T11:04:24.657Z</time></trkpt><trkpt lat="43.9002267" lon="12.13565"><ele>425.0</ele><time>2026-04-30T11:04:25.665Z</time></trkpt><trkpt lat="43.9002267" lon="12.1355533"><ele>422.49999999999994</ele><time>2026-04-30T11:04:26.657Z</time></trkpt><trkpt lat="43.9002167" lon="12.13546"><ele>420.0</ele><time>2026-04-30T11:04:27.666Z</time></trkpt><trkpt lat="43.9001833" lon="12.1353783"><ele>417.5</ele><time>2026-04-30T11:04:28.639Z</time></trkpt><trkpt lat="43.9001267" lon="12.1353117"><ele>415.0</ele><time>2026-04-30T11:04:29.65Z</time></trkpt><trkpt lat="43.90008" lon="12.1352333"><ele>412.49999999999994</ele><time>2026-04-30T11:04:30.654Z</time></trkpt><trkpt lat="43.9000267" lon="12.1351367"><ele>410.0</ele><time>2026-04-30T11:04:31.656Z</time></trkpt><trkpt lat="43.8999683" lon="12.1350383"><ele>411.4</ele><time>2026-04-30T11:04:32.651Z</time></trkpt><trkpt lat="43.8999033" lon="12.134945"><ele>412.8</ele><time>2026-04-30T11:04:33.654Z</time></trkpt><trkpt lat="43.8998333" lon="12.13485"><ele>414.20000000000005</ele><time>2026-04-30T11:04:34.651Z</time></trkpt><trkpt lat="43.8997617" lon="12.1347567"><ele>415.6</ele><time>2026-04-30T11:04:35.65Z</time></trkpt><trkpt lat="43.8996917" lon="12.13466"><ele>417.0</ele><time>2026-04-30T11:04:36.652Z</time></trkpt><trkpt lat="43.899625" lon="12.1345633"><ele>417.0</ele><time>2026-04-30T11:04:37.653Z</time></trkpt><trkpt lat="43.89956" lon="12.1344667"><ele>417.0</ele><time>2026-04-30T11:04:38.653Z</time></trkpt><trkpt lat="43.8994983" lon="12.1343767"><ele>417.0</ele><time>2026-04-30T11:04:39.657Z</time></trkpt><trkpt lat="43.899435" lon="12.1342883"><ele>417.0</ele><time>2026-04-30T11:04:40.665Z</time></trkpt><trkpt lat="43.8993717" lon="12.1341983"><ele>417.0</ele><time>2026-04-30T11:04:41.663Z</time></trkpt><trkpt lat="43.8993083" lon="12.1341067"><ele>418.0</ele><time>2026-04-30T11:04:42.654Z</time></trkpt><trkpt lat="43.899245" lon="12.134015"><ele>419.0</ele><time>2026-04-30T11:04:43.653Z</time></trkpt><trkpt lat="43.8991783" lon="12.1339283"><ele>420.0</ele><time>2026-04-30T11:04:44.651Z</time></trkpt><trkpt lat="43.8990333" lon="12.1337933"><ele>421.0</ele><time>2026-04-30T11:04:46.646Z</time></trkpt><trkpt lat="43.8989633" lon="12.1337367"><ele>422.0</ele><time>2026-04-30T11:04:47.642Z</time></trkpt><trkpt lat="43.89891" lon="12.13368"><ele>422.0</ele><time>2026-04-30T11:04:48.646Z</time></trkpt><trkpt lat="43.8988683" lon="12.133565"><ele>422.0</ele><time>2026-04-30T11:04:50.648Z</time></trkpt><trkpt lat="43.8989067" lon="12.1334883"><ele>422.0</ele><time>2026-04-30T11:04:52.647Z</time></trkpt><trkpt lat="43.8990117" lon="12.133545"><ele>422.0</ele><time>2026-04-30T11:04:54.644Z</time></trkpt><trkpt lat="43.8990833" lon="12.1336117"><ele>422.0</ele><time>2026-04-30T11:04:55.661Z</time></trkpt><trkpt lat="43.899165" lon="12.1336833"><ele>415.25</ele><time>2026-04-30T11:04:56.644Z</time></trkpt><trkpt lat="43.8992583" lon="12.1337667"><ele>408.5</ele><time>2026-04-30T11:04:57.658Z</time></trkpt><trkpt lat="43.8993533" lon="12.13386"><ele>401.75</ele><time>2026-04-30T11:04:58.652Z</time></trkpt><trkpt lat="43.8994483" lon="12.133955"><ele>395.0</ele><time>2026-04-30T11:04:59.657Z</time></trkpt><trkpt lat="43.8995517" lon="12.1340467"><ele>400.5</ele><time>2026-04-30T11:05:00.656Z</time></trkpt><trkpt lat="43.8996533" lon="12.1341283"><ele>406.0</ele><time>2026-04-30T11:05:01.65Z</time></trkpt><trkpt lat="43.8997567" lon="12.1341983"><ele>411.5</ele><time>2026-04-30T11:05:02.652Z</time></trkpt><trkpt lat="43.89986" lon="12.13426"><ele>417.0</ele><time>2026-04-30T11:05:03.657Z</time></trkpt><trkpt lat="43.8999583" lon="12.1343333"><ele>417.0</ele><time>2026-04-30T11:05:04.661Z</time></trkpt><trkpt lat="43.90005" lon="12.1344083"><ele>417.0</ele><time>2026-04-30T11:05:05.654Z</time></trkpt><trkpt lat="43.9001383" lon="12.1344783"><ele>417.0</ele><time>2026-04-30T11:05:06.651Z</time></trkpt><trkpt lat="43.9002283" lon="12.1345383"><ele>417.0</ele><time>2026-04-30T11:05:07.652Z</time></trkpt><trkpt lat="43.90032" lon="12.13457"><ele>417.0</ele><time>2026-04-30T11:05:08.65Z</time></trkpt><trkpt lat="43.9004083" lon="12.1345717"><ele>414.40000000000003</ele><time>2026-04-30T11:05:09.654Z</time></trkpt><trkpt lat="43.9005017" lon="12.1345417"><ele>411.8</ele><time>2026-04-30T11:05:10.653Z</time></trkpt><trkpt lat="43.900585" lon="12.1344717"><ele>409.2</ele><time>2026-04-30T11:05:11.65Z</time></trkpt><trkpt lat="43.9006717" lon="12.1343933"><ele>406.6</ele><time>2026-04-30T11:05:12.66Z</time></trkpt><trkpt lat="43.90076" lon="12.1343083"><ele>404.0</ele><time>2026-04-30T11:05:13.66Z</time></trkpt><trkpt lat="43.9008567" lon="12.1342267"><ele>403.75</ele><time>2026-04-30T11:05:14.66Z</time></trkpt><trkpt lat="43.9009517" lon="12.1341417"><ele>403.5</ele><time>2026-04-30T11:05:15.659Z</time></trkpt><trkpt lat="43.90105" lon="12.1340633"><ele>403.25</ele><time>2026-04-30T11:05:16.651Z</time></trkpt><trkpt lat="43.901155" lon="12.1339917"><ele>403.0</ele><time>2026-04-30T11:05:17.652Z</time></trkpt><trkpt lat="43.9012683" lon="12.13392"><ele>403.0</ele><time>2026-04-30T11:05:18.65Z</time></trkpt><trkpt lat="43.9013833" lon="12.1338417"><ele>403.0</ele><time>2026-04-30T11:05:19.65Z</time></trkpt><trkpt lat="43.90149" lon="12.1337567"><ele>403.0</ele><time>2026-04-30T11:05:20.653Z</time></trkpt><trkpt lat="43.9015917" lon="12.1336567"><ele>403.0</ele><time>2026-04-30T11:05:21.655Z</time></trkpt><trkpt lat="43.9016783" lon="12.1335417"><ele>401.75</ele><time>2026-04-30T11:05:22.654Z</time></trkpt><trkpt lat="43.9017633" lon="12.1334183"><ele>400.5</ele><time>2026-04-30T11:05:23.649Z</time></trkpt><trkpt lat="43.90185" lon="12.133295"><ele>399.25</ele><time>2026-04-30T11:05:24.639Z</time></trkpt><trkpt lat="43.901945" lon="12.133185"><ele>398.0</ele><time>2026-04-30T11:05:25.642Z</time></trkpt><trkpt lat="43.9020467" lon="12.1330867"><ele>398.0</ele><time>2026-04-30T11:05:26.659Z</time></trkpt><trkpt lat="43.9021567" lon="12.1330033"><ele>398.0</ele><time>2026-04-30T11:05:27.651Z</time></trkpt><trkpt lat="43.9022683" lon="12.132925"><ele>398.0</ele><time>2026-04-30T11:05:28.659Z</time></trkpt><trkpt lat="43.90239" lon="12.1328617"><ele>398.0</ele><time>2026-04-30T11:05:29.651Z</time></trkpt><trkpt lat="43.9025167" lon="12.1328217"><ele>397.5</ele><time>2026-04-30T11:05:30.658Z</time></trkpt><trkpt lat="43.902655" lon="12.1328183"><ele>397.0</ele><time>2026-04-30T11:05:31.652Z</time></trkpt><trkpt lat="43.9027967" lon="12.1328233"><ele>396.5</ele><time>2026-04-30T11:05:32.642Z</time></trkpt><trkpt lat="43.9029417" lon="12.13281"><ele>396.0</ele><time>2026-04-30T11:05:33.652Z</time></trkpt><trkpt lat="43.9030883" lon="12.13277"><ele>396.0</ele><time>2026-04-30T11:05:34.657Z</time></trkpt><trkpt lat="43.9032283" lon="12.1327217"><ele>396.0</ele><time>2026-04-30T11:05:35.665Z</time></trkpt><trkpt lat="43.903365" lon="12.132665"><ele>396.0</ele><time>2026-04-30T11:05:36.649Z</time></trkpt><trkpt lat="43.903495" lon="12.1325933"><ele>396.0</ele><time>2026-04-30T11:05:37.659Z</time></trkpt><trkpt lat="43.903625" lon="12.1325167"><ele>397.75</ele><time>2026-04-30T11:05:38.657Z</time></trkpt><trkpt lat="43.903745" lon="12.1324433"><ele>399.5</ele><time>2026-04-30T11:05:39.655Z</time></trkpt><trkpt lat="43.903845" lon="12.1323517"><ele>401.25</ele><time>2026-04-30T11:05:40.654Z</time></trkpt><trkpt lat="43.9039217" lon="12.1322217"><ele>403.0</ele><time>2026-04-30T11:05:41.646Z</time></trkpt><trkpt lat="43.9039733" lon="12.1320533"><ele>403.0</ele><time>2026-04-30T11:05:42.657Z</time></trkpt><trkpt lat="43.9040033" lon="12.1318667"><ele>403.0</ele><time>2026-04-30T11:05:43.645Z</time></trkpt><trkpt lat="43.904015" lon="12.1316767"><ele>403.0</ele><time>2026-04-30T11:05:44.652Z</time></trkpt><trkpt lat="43.9040283" lon="12.1314933"><ele>403.0</ele><time>2026-04-30T11:05:45.657Z</time></trkpt><trkpt lat="43.904065" lon="12.1313133"><ele>399.25</ele><time>2026-04-30T11:05:46.654Z</time></trkpt><trkpt lat="43.9041183" lon="12.13114"><ele>395.5</ele><time>2026-04-30T11:05:47.658Z</time></trkpt><trkpt lat="43.9041717" lon="12.1309717"><ele>391.75</ele><time>2026-04-30T11:05:48.651Z</time></trkpt><trkpt lat="43.9042117" lon="12.1308033"><ele>388.0</ele><time>2026-04-30T11:05:49.656Z</time></trkpt><trkpt lat="43.9042267" lon="12.130625"><ele>385.0</ele><time>2026-04-30T11:05:50.648Z</time></trkpt><trkpt lat="43.904215" lon="12.13044"><ele>382.0</ele><time>2026-04-30T11:05:51.644Z</time></trkpt><trkpt lat="43.90419" lon="12.1302567"><ele>379.0</ele><time>2026-04-30T11:05:52.654Z</time></trkpt><trkpt lat="43.9041567" lon="12.13007"><ele>376.0</ele><time>2026-04-30T11:05:53.648Z</time></trkpt><trkpt lat="43.9041167" lon="12.129895"><ele>375.0</ele><time>2026-04-30T11:05:54.652Z</time></trkpt><trkpt lat="43.9040583" lon="12.129725"><ele>374.0</ele><time>2026-04-30T11:05:55.657Z</time></trkpt><trkpt lat="43.9039883" lon="12.1295667"><ele>373.0</ele><time>2026-04-30T11:05:56.652Z</time></trkpt><trkpt lat="43.9039133" lon="12.12941"><ele>372.0</ele><time>2026-04-30T11:05:57.663Z</time></trkpt><trkpt lat="43.903765" lon="12.1291017"><ele>371.0</ele><time>2026-04-30T11:05:59.652Z</time></trkpt><trkpt lat="43.9037117" lon="12.1289533"><ele>370.0</ele><time>2026-04-30T11:06:00.652Z</time></trkpt><trkpt lat="43.903675" lon="12.1288083"><ele>369.0</ele><time>2026-04-30T11:06:01.651Z</time></trkpt><trkpt lat="43.9036617" lon="12.1286633"><ele>368.0</ele><time>2026-04-30T11:06:02.66Z</time></trkpt><trkpt lat="43.9036783" lon="12.1285183"><ele>367.0</ele><time>2026-04-30T11:06:03.658Z</time></trkpt><trkpt lat="43.9037217" lon="12.12837"><ele>364.3333333333333</ele><time>2026-04-30T11:06:04.652Z</time></trkpt><trkpt lat="43.9037833" lon="12.1282183"><ele>361.6666666666667</ele><time>2026-04-30T11:06:05.653Z</time></trkpt><trkpt lat="43.9038367" lon="12.128065"><ele>359.0</ele><time>2026-04-30T11:06:06.657Z</time></trkpt><trkpt lat="43.9038833" lon="12.1277483"><ele>359.0</ele><time>2026-04-30T11:06:08.651Z</time></trkpt><trkpt lat="43.9039033" lon="12.1275967"><ele>359.0</ele><time>2026-04-30T11:06:09.659Z</time></trkpt><trkpt lat="43.9039433" lon="12.1274483"><ele>359.0</ele><time>2026-04-30T11:06:10.655Z</time></trkpt><trkpt lat="43.903995" lon="12.1273183"><ele>359.0</ele><time>2026-04-30T11:06:11.651Z</time></trkpt><trkpt lat="43.9040617" lon="12.1272333"><ele>359.0</ele><time>2026-04-30T11:06:12.655Z</time></trkpt><trkpt lat="43.9041383" lon="12.1271867"><ele>355.2</ele><time>2026-04-30T11:06:13.651Z</time></trkpt><trkpt lat="43.9042283" lon="12.1272183"><ele>351.4</ele><time>2026-04-30T11:06:14.657Z</time></trkpt><trkpt lat="43.904315" lon="12.1272667"><ele>347.6</ele><time>2026-04-30T11:06:15.659Z</time></trkpt><trkpt lat="43.9043883" lon="12.1273917"><ele>343.8</ele><time>2026-04-30T11:06:16.667Z</time></trkpt><trkpt lat="43.9044317" lon="12.1275583"><ele>340.0</ele><time>2026-04-30T11:06:17.652Z</time></trkpt><trkpt lat="43.9044583" lon="12.12773"><ele>338.25</ele><time>2026-04-30T11:06:18.653Z</time></trkpt><trkpt lat="43.9044733" lon="12.1279133"><ele>336.5</ele><time>2026-04-30T11:06:19.666Z</time></trkpt><trkpt lat="43.9045033" lon="12.12809"><ele>334.75</ele><time>2026-04-30T11:06:20.652Z</time></trkpt><trkpt lat="43.9045283" lon="12.128275"><ele>333.0</ele><time>2026-04-30T11:06:21.653Z</time></trkpt><trkpt lat="43.9045567" lon="12.128465"><ele>333.0</ele><time>2026-04-30T11:06:22.655Z</time></trkpt><trkpt lat="43.904585" lon="12.1286533"><ele>333.0</ele><time>2026-04-30T11:06:23.644Z</time></trkpt><trkpt lat="43.90462" lon="12.1288367"><ele>333.0</ele><time>2026-04-30T11:06:24.648Z</time></trkpt><trkpt lat="43.904665" lon="12.129015"><ele>333.0</ele><time>2026-04-30T11:06:25.651Z</time></trkpt><trkpt lat="43.9047067" lon="12.12919"><ele>334.0</ele><time>2026-04-30T11:06:26.651Z</time></trkpt><trkpt lat="43.904755" lon="12.1293583"><ele>335.0</ele><time>2026-04-30T11:06:27.686Z</time></trkpt><trkpt lat="43.9048217" lon="12.1295117"><ele>336.0</ele><time>2026-04-30T11:06:28.645Z</time></trkpt><trkpt lat="43.9048967" lon="12.1296483"><ele>337.0</ele><time>2026-04-30T11:06:29.656Z</time></trkpt><trkpt lat="43.90499" lon="12.1297617"><ele>336.0</ele><time>2026-04-30T11:06:30.657Z</time></trkpt><trkpt lat="43.90511" lon="12.1298517"><ele>335.0</ele><time>2026-04-30T11:06:31.651Z</time></trkpt><trkpt lat="43.9052333" lon="12.1299117"><ele>334.0</ele><time>2026-04-30T11:06:32.657Z</time></trkpt><trkpt lat="43.9053517" lon="12.1299367"><ele>333.0</ele><time>2026-04-30T11:06:33.66Z</time></trkpt><trkpt lat="43.905595" lon="12.129885"><ele>328.79999999999995</ele><time>2026-04-30T11:06:35.653Z</time></trkpt><trkpt lat="43.9057067" lon="12.12983"><ele>324.59999999999997</ele><time>2026-04-30T11:06:36.644Z</time></trkpt><trkpt lat="43.9058183" lon="12.129785"><ele>320.4</ele><time>2026-04-30T11:06:37.664Z</time></trkpt><trkpt lat="43.9059267" lon="12.129775"><ele>316.2</ele><time>2026-04-30T11:06:38.654Z</time></trkpt><trkpt lat="43.9060283" lon="12.1298083"><ele>312.0</ele><time>2026-04-30T11:06:39.661Z</time></trkpt><trkpt lat="43.90613" lon="12.1298917"><ele>310.3333333333333</ele><time>2026-04-30T11:06:40.654Z</time></trkpt><trkpt lat="43.9062267" lon="12.13001"><ele>308.66666666666663</ele><time>2026-04-30T11:06:41.651Z</time></trkpt><trkpt lat="43.906315" lon="12.13014"><ele>307.0</ele><time>2026-04-30T11:06:42.655Z</time></trkpt><trkpt lat="43.9064683" lon="12.1304233"><ele>307.0</ele><time>2026-04-30T11:06:44.654Z</time></trkpt><trkpt lat="43.9065433" lon="12.1305667"><ele>307.0</ele><time>2026-04-30T11:06:45.656Z</time></trkpt><trkpt lat="43.906615" lon="12.130705"><ele>307.0</ele><time>2026-04-30T11:06:46.661Z</time></trkpt><trkpt lat="43.906685" lon="12.1308283"><ele>307.0</ele><time>2026-04-30T11:06:47.651Z</time></trkpt><trkpt lat="43.9067483" lon="12.13093"><ele>304.8333333333333</ele><time>2026-04-30T11:06:48.653Z</time></trkpt><trkpt lat="43.9068033" lon="12.1310067"><ele>302.66666666666663</ele><time>2026-04-30T11:06:49.659Z</time></trkpt><trkpt lat="43.9068683" lon="12.1310317"><ele>300.5</ele><time>2026-04-30T11:06:50.658Z</time></trkpt><trkpt lat="43.9069617" lon="12.1309617"><ele>298.3333333333333</ele><time>2026-04-30T11:06:52.664Z</time></trkpt><trkpt lat="43.906945" lon="12.1308433"><ele>296.1666666666667</ele><time>2026-04-30T11:06:53.65Z</time></trkpt><trkpt lat="43.9069167" lon="12.1307183"><ele>294.0</ele><time>2026-04-30T11:06:54.653Z</time></trkpt><trkpt lat="43.9068733" lon="12.1305783"><ele>292.3333333333333</ele><time>2026-04-30T11:06:55.641Z</time></trkpt><trkpt lat="43.9067883" lon="12.1304033"><ele>290.66666666666663</ele><time>2026-04-30T11:06:56.675Z</time></trkpt><trkpt lat="43.90671" lon="12.1302217"><ele>289.0</ele><time>2026-04-30T11:06:57.653Z</time></trkpt><trkpt lat="43.9066283" lon="12.1300333"><ele>291.0</ele><time>2026-04-30T11:06:58.649Z</time></trkpt><trkpt lat="43.9065483" lon="12.1298417"><ele>293.0</ele><time>2026-04-30T11:06:59.652Z</time></trkpt><trkpt lat="43.9064733" lon="12.12965"><ele>295.0</ele><time>2026-04-30T11:07:00.657Z</time></trkpt><trkpt lat="43.9063983" lon="12.1294633"><ele>295.0</ele><time>2026-04-30T11:07:01.655Z</time></trkpt><trkpt lat="43.9063267" lon="12.1292817"><ele>295.0</ele><time>2026-04-30T11:07:02.655Z</time></trkpt><trkpt lat="43.9062667" lon="12.129115"><ele>295.0</ele><time>2026-04-30T11:07:03.646Z</time></trkpt><trkpt lat="43.9062283" lon="12.1289683"><ele>295.0</ele><time>2026-04-30T11:07:04.653Z</time></trkpt><trkpt lat="43.9062117" lon="12.12884"><ele>293.6</ele><time>2026-04-30T11:07:05.655Z</time></trkpt><trkpt lat="43.90624" lon="12.128725"><ele>292.2</ele><time>2026-04-30T11:07:06.658Z</time></trkpt><trkpt lat="43.9062983" lon="12.12862"><ele>290.8</ele><time>2026-04-30T11:07:07.658Z</time></trkpt><trkpt lat="43.9063983" lon="12.1285533"><ele>289.4</ele><time>2026-04-30T11:07:08.66Z</time></trkpt><trkpt lat="43.9065217" lon="12.1285083"><ele>288.0</ele><time>2026-04-30T11:07:09.653Z</time></trkpt><trkpt lat="43.9066533" lon="12.1284533"><ele>286.0</ele><time>2026-04-30T11:07:10.652Z</time></trkpt><trkpt lat="43.9067867" lon="12.12839"><ele>284.0</ele><time>2026-04-30T11:07:11.651Z</time></trkpt><trkpt lat="43.9069217" lon="12.12833"><ele>282.0</ele><time>2026-04-30T11:07:12.647Z</time></trkpt><trkpt lat="43.9070583" lon="12.1282717"><ele>280.0</ele><time>2026-04-30T11:07:13.662Z</time></trkpt><trkpt lat="43.9071933" lon="12.1282067"><ele>279.75</ele><time>2026-04-30T11:07:14.66Z</time></trkpt><trkpt lat="43.9073317" lon="12.1281383"><ele>279.5</ele><time>2026-04-30T11:07:15.663Z</time></trkpt><trkpt lat="43.9074767" lon="12.1280817"><ele>279.25</ele><time>2026-04-30T11:07:16.659Z</time></trkpt><trkpt lat="43.9076233" lon="12.1280267"><ele>279.0</ele><time>2026-04-30T11:07:17.651Z</time></trkpt><trkpt lat="43.9077683" lon="12.1279683"><ele>278.0</ele><time>2026-04-30T11:07:18.651Z</time></trkpt><trkpt lat="43.90805" lon="12.127855"><ele>277.0</ele><time>2026-04-30T11:07:20.648Z</time></trkpt><trkpt lat="43.908185" lon="12.1277983"><ele>276.0</ele><time>2026-04-30T11:07:21.652Z</time></trkpt><trkpt lat="43.908315" lon="12.1277517"><ele>265.75</ele><time>2026-04-30T11:07:22.651Z</time></trkpt><trkpt lat="43.9084417" lon="12.1277267"><ele>255.5</ele><time>2026-04-30T11:07:23.65Z</time></trkpt><trkpt lat="43.9085667" lon="12.127735"><ele>245.25</ele><time>2026-04-30T11:07:24.655Z</time></trkpt><trkpt lat="43.9086817" lon="12.1277933"><ele>235.0</ele><time>2026-04-30T11:07:25.653Z</time></trkpt><trkpt lat="43.9087833" lon="12.12789"><ele>235.0</ele><time>2026-04-30T11:07:26.647Z</time></trkpt><trkpt lat="43.90887" lon="12.1280333"><ele>235.0</ele><time>2026-04-30T11:07:27.655Z</time></trkpt><trkpt lat="43.9089567" lon="12.128195"><ele>235.0</ele><time>2026-04-30T11:07:28.652Z</time></trkpt><trkpt lat="43.90905" lon="12.1283633"><ele>235.0</ele><time>2026-04-30T11:07:29.653Z</time></trkpt><trkpt lat="43.9091483" lon="12.1285333"><ele>225.0</ele><time>2026-04-30T11:07:30.658Z</time></trkpt><trkpt lat="43.909255" lon="12.1286983"><ele>215.0</ele><time>2026-04-30T11:07:31.655Z</time></trkpt><trkpt lat="43.9093567" lon="12.12886"><ele>205.0</ele><time>2026-04-30T11:07:32.653Z</time></trkpt><trkpt lat="43.9094533" lon="12.1290217"><ele>213.0</ele><time>2026-04-30T11:07:33.66Z</time></trkpt><trkpt lat="43.9095433" lon="12.12918"><ele>221.0</ele><time>2026-04-30T11:07:34.652Z</time></trkpt><trkpt lat="43.9096333" lon="12.1293317"><ele>229.0</ele><time>2026-04-30T11:07:35.648Z</time></trkpt><trkpt lat="43.9097233" lon="12.129465"><ele>237.0</ele><time>2026-04-30T11:07:36.651Z</time></trkpt><trkpt lat="43.909825" lon="12.129575"><ele>237.0</ele><time>2026-04-30T11:07:37.646Z</time></trkpt><trkpt lat="43.90994" lon="12.129665"><ele>237.0</ele><time>2026-04-30T11:07:38.659Z</time></trkpt><trkpt lat="43.910065" lon="12.12974"><ele>237.0</ele><time>2026-04-30T11:07:39.656Z</time></trkpt><trkpt lat="43.9101917" lon="12.129805"><ele>237.0</ele><time>2026-04-30T11:07:40.643Z</time></trkpt><trkpt lat="43.91032" lon="12.1298633"><ele>236.5</ele><time>2026-04-30T11:07:41.652Z</time></trkpt><trkpt lat="43.910445" lon="12.1299217"><ele>236.0</ele><time>2026-04-30T11:07:42.66Z</time></trkpt><trkpt lat="43.9105683" lon="12.1299817"><ele>235.5</ele><time>2026-04-30T11:07:43.655Z</time></trkpt><trkpt lat="43.9106933" lon="12.1300383"><ele>235.0</ele><time>2026-04-30T11:07:44.657Z</time></trkpt><trkpt lat="43.9108183" lon="12.130095"><ele>230.2</ele><time>2026-04-30T11:07:45.655Z</time></trkpt><trkpt lat="43.910935" lon="12.1301483"><ele>225.4</ele><time>2026-04-30T11:07:46.654Z</time></trkpt><trkpt lat="43.9110283" lon="12.1302117"><ele>220.60000000000002</ele><time>2026-04-30T11:07:47.65Z</time></trkpt><trkpt lat="43.9111" lon="12.130295"><ele>215.8</ele><time>2026-04-30T11:07:48.651Z</time></trkpt><trkpt lat="43.91115" lon="12.1304083"><ele>211.0</ele><time>2026-04-30T11:07:49.649Z</time></trkpt><trkpt lat="43.9111817" lon="12.13054"><ele>211.0</ele><time>2026-04-30T11:07:50.655Z</time></trkpt><trkpt lat="43.911195" lon="12.1306867"><ele>211.0</ele><time>2026-04-30T11:07:51.658Z</time></trkpt><trkpt lat="43.9112017" lon="12.1308433"><ele>211.0</ele><time>2026-04-30T11:07:52.649Z</time></trkpt><trkpt lat="43.9112117" lon="12.131"><ele>211.0</ele><time>2026-04-30T11:07:53.654Z</time></trkpt><trkpt lat="43.9112333" lon="12.1311417"><ele>211.0</ele><time>2026-04-30T11:07:54.651Z</time></trkpt><trkpt lat="43.911285" lon="12.1312583"><ele>214.33333333333331</ele><time>2026-04-30T11:07:55.645Z</time></trkpt><trkpt lat="43.911355" lon="12.13136"><ele>217.66666666666666</ele><time>2026-04-30T11:07:56.663Z</time></trkpt><trkpt lat="43.9114167" lon="12.131455"><ele>221.0</ele><time>2026-04-30T11:07:57.647Z</time></trkpt><trkpt lat="43.9114633" lon="12.13154"><ele>224.33333333333331</ele><time>2026-04-30T11:07:58.65Z</time></trkpt><trkpt lat="43.9115117" lon="12.1315967"><ele>227.66666666666666</ele><time>2026-04-30T11:07:59.648Z</time></trkpt><trkpt lat="43.9116033" lon="12.1315567"><ele>231.0</ele><time>2026-04-30T11:08:01.647Z</time></trkpt><trkpt lat="43.9116183" lon="12.13141"><ele>231.0</ele><time>2026-04-30T11:08:03.661Z</time></trkpt><trkpt lat="43.9115" lon="12.1311533"><ele>231.0</ele><time>2026-04-30T11:08:05.655Z</time></trkpt><trkpt lat="43.9114817" lon="12.1310167"><ele>231.0</ele><time>2026-04-30T11:08:06.651Z</time></trkpt><trkpt lat="43.9114917" lon="12.130875"><ele>231.0</ele><time>2026-04-30T11:08:07.655Z</time></trkpt><trkpt lat="43.9115183" lon="12.1307317"><ele>227.66666666666666</ele><time>2026-04-30T11:08:08.652Z</time></trkpt><trkpt lat="43.9115517" lon="12.1305917"><ele>224.33333333333331</ele><time>2026-04-30T11:08:09.653Z</time></trkpt><trkpt lat="43.9115783" lon="12.1304583"><ele>221.0</ele><time>2026-04-30T11:08:10.649Z</time></trkpt><trkpt lat="43.9115783" lon="12.1303383"><ele>217.66666666666666</ele><time>2026-04-30T11:08:11.655Z</time></trkpt><trkpt lat="43.9115633" lon="12.1302333"><ele>214.33333333333331</ele><time>2026-04-30T11:08:12.655Z</time></trkpt><trkpt lat="43.9115617" lon="12.1301417"><ele>211.0</ele><time>2026-04-30T11:08:13.66Z</time></trkpt><trkpt lat="43.91163" lon="12.13005"><ele>211.0</ele><time>2026-04-30T11:08:15.651Z</time></trkpt><trkpt lat="43.9117333" lon="12.13016"><ele>211.0</ele><time>2026-04-30T11:08:17.657Z</time></trkpt><trkpt lat="43.91178" lon="12.130275"><ele>211.0</ele><time>2026-04-30T11:08:18.648Z</time></trkpt><trkpt lat="43.91182" lon="12.1304117"><ele>211.0</ele><time>2026-04-30T11:08:19.652Z</time></trkpt><trkpt lat="43.9118483" lon="12.13055"><ele>211.0</ele><time>2026-04-30T11:08:20.653Z</time></trkpt><trkpt lat="43.9118667" lon="12.130685"><ele>209.8</ele><time>2026-04-30T11:08:21.653Z</time></trkpt><trkpt lat="43.9119" lon="12.1308017"><ele>208.60000000000002</ele><time>2026-04-30T11:08:22.657Z</time></trkpt><trkpt lat="43.9119467" lon="12.1309117"><ele>207.4</ele><time>2026-04-30T11:08:23.655Z</time></trkpt><trkpt lat="43.9120167" lon="12.1309817"><ele>206.2</ele><time>2026-04-30T11:08:24.649Z</time></trkpt><trkpt lat="43.9121033" lon="12.1310483"><ele>205.0</ele><time>2026-04-30T11:08:25.66Z</time></trkpt><trkpt lat="43.9121783" lon="12.13115"><ele>205.0</ele><time>2026-04-30T11:08:26.667Z</time></trkpt><trkpt lat="43.91225" lon="12.1312733"><ele>205.0</ele><time>2026-04-30T11:08:27.661Z</time></trkpt><trkpt lat="43.91231" lon="12.1314183"><ele>205.0</ele><time>2026-04-30T11:08:28.663Z</time></trkpt><trkpt lat="43.9123383" lon="12.1315817"><ele>205.0</ele><time>2026-04-30T11:08:29.653Z</time></trkpt><trkpt lat="43.9123483" lon="12.13174"><ele>205.75</ele><time>2026-04-30T11:08:30.651Z</time></trkpt><trkpt lat="43.912355" lon="12.1318967"><ele>206.5</ele><time>2026-04-30T11:08:31.653Z</time></trkpt><trkpt lat="43.9123683" lon="12.1320533"><ele>207.25</ele><time>2026-04-30T11:08:32.656Z</time></trkpt><trkpt lat="43.9123783" lon="12.1322133"><ele>208.0</ele><time>2026-04-30T11:08:33.655Z</time></trkpt><trkpt lat="43.9123783" lon="12.1323683"><ele>206.8</ele><time>2026-04-30T11:08:34.657Z</time></trkpt><trkpt lat="43.9123517" lon="12.1325267"><ele>205.60000000000002</ele><time>2026-04-30T11:08:35.652Z</time></trkpt><trkpt lat="43.9123083" lon="12.1326817"><ele>204.39999999999998</ele><time>2026-04-30T11:08:36.65Z</time></trkpt><trkpt lat="43.91227" lon="12.1328217"><ele>203.2</ele><time>2026-04-30T11:08:37.652Z</time></trkpt><trkpt lat="43.9122383" lon="12.132945"><ele>202.0</ele><time>2026-04-30T11:08:38.651Z</time></trkpt><trkpt lat="43.9122183" lon="12.133065"><ele>201.25</ele><time>2026-04-30T11:08:39.652Z</time></trkpt><trkpt lat="43.9122517" lon="12.1332917"><ele>200.5</ele><time>2026-04-30T11:08:41.653Z</time></trkpt><trkpt lat="43.9123067" lon="12.1333917"><ele>199.75</ele><time>2026-04-30T11:08:42.661Z</time></trkpt><trkpt lat="43.9123867" lon="12.1334783"><ele>199.0</ele><time>2026-04-30T11:08:43.656Z</time></trkpt><trkpt lat="43.912475" lon="12.1335517"><ele>200.0</ele><time>2026-04-30T11:08:44.655Z</time></trkpt><trkpt lat="43.912595" lon="12.1336117"><ele>201.0</ele><time>2026-04-30T11:08:45.668Z</time></trkpt><trkpt lat="43.9127067" lon="12.13368"><ele>202.0</ele><time>2026-04-30T11:08:46.653Z</time></trkpt><trkpt lat="43.9128283" lon="12.1337467"><ele>203.0</ele><time>2026-04-30T11:08:47.648Z</time></trkpt><trkpt lat="43.9129417" lon="12.1338183"><ele>203.0</ele><time>2026-04-30T11:08:48.645Z</time></trkpt><trkpt lat="43.9130667" lon="12.1338833"><ele>203.0</ele><time>2026-04-30T11:08:49.652Z</time></trkpt><trkpt lat="43.9131883" lon="12.13396"><ele>203.0</ele><time>2026-04-30T11:08:50.646Z</time></trkpt><trkpt lat="43.9133167" lon="12.134055"><ele>203.0</ele><time>2026-04-30T11:08:51.652Z</time></trkpt><trkpt lat="43.9134283" lon="12.13416"><ele>208.0</ele><time>2026-04-30T11:08:52.657Z</time></trkpt><trkpt lat="43.91354" lon="12.1342733"><ele>213.0</ele><time>2026-04-30T11:08:53.655Z</time></trkpt><trkpt lat="43.91365" lon="12.13439"><ele>218.0</ele><time>2026-04-30T11:08:54.65Z</time></trkpt><trkpt lat="43.9137617" lon="12.134505"><ele>223.0</ele><time>2026-04-30T11:08:55.679Z</time></trkpt><trkpt lat="43.913865" lon="12.1346183"><ele>223.0</ele><time>2026-04-30T11:08:56.655Z</time></trkpt><trkpt lat="43.9139517" lon="12.134715"><ele>223.0</ele><time>2026-04-30T11:08:57.66Z</time></trkpt><trkpt lat="43.91402" lon="12.1347767"><ele>223.0</ele><time>2026-04-30T11:08:58.654Z</time></trkpt><trkpt lat="43.9140817" lon="12.134805"><ele>223.0</ele><time>2026-04-30T11:08:59.651Z</time></trkpt><trkpt lat="43.9141483" lon="12.1347133"><ele>223.0</ele><time>2026-04-30T11:09:01.662Z</time></trkpt><trkpt lat="43.9140867" lon="12.1345783"><ele>222.99999999999997</ele><time>2026-04-30T11:09:03.652Z</time></trkpt><trkpt lat="43.91402" lon="12.1344933"><ele>223.0</ele><time>2026-04-30T11:09:05.648Z</time></trkpt><trkpt lat="43.9139433" lon="12.134415"><ele>223.0</ele><time>2026-04-30T11:09:08.657Z</time></trkpt><trkpt lat="43.9138967" lon="12.1343517"><ele>223.0</ele><time>2026-04-30T11:09:10.654Z</time></trkpt><trkpt lat="43.9138517" lon="12.1342817"><ele>222.99999999999997</ele><time>2026-04-30T11:09:12.658Z</time></trkpt><trkpt lat="43.9138033" lon="12.1342167"><ele>223.0</ele><time>2026-04-30T11:09:14.647Z</time></trkpt><trkpt lat="43.9137533" lon="12.1341483"><ele>223.0</ele><time>2026-04-30T11:09:16.649Z</time></trkpt><trkpt lat="43.91371" lon="12.1340633"><ele>223.0</ele><time>2026-04-30T11:09:18.647Z</time></trkpt><trkpt lat="43.9136667" lon="12.13397"><ele>223.0</ele><time>2026-04-30T11:09:20.651Z</time></trkpt><trkpt lat="43.9136333" lon="12.1338417"><ele>223.0</ele><time>2026-04-30T11:09:22.655Z</time></trkpt><trkpt lat="43.91364" lon="12.1336883"><ele>223.0</ele><time>2026-04-30T11:09:24.656Z</time></trkpt><trkpt lat="43.9136933" lon="12.1335167"><ele>223.28571428571428</ele><time>2026-04-30T11:09:26.652Z</time></trkpt><trkpt lat="43.91372" lon="12.133425"><ele>223.57142857142856</ele><time>2026-04-30T11:09:27.661Z</time></trkpt><trkpt lat="43.9137433" lon="12.1333267"><ele>223.8571428571429</ele><time>2026-04-30T11:09:28.655Z</time></trkpt><trkpt lat="43.9137567" lon="12.133225"><ele>224.14285714285717</ele><time>2026-04-30T11:09:29.65Z</time></trkpt><trkpt lat="43.913755" lon="12.13312"><ele>224.42857142857144</ele><time>2026-04-30T11:09:30.652Z</time></trkpt><trkpt lat="43.91374" lon="12.133015"><ele>224.71428571428575</ele><time>2026-04-30T11:09:31.659Z</time></trkpt><trkpt lat="43.9137267" lon="12.1329133"><ele>225.00000000000003</ele><time>2026-04-30T11:09:32.654Z</time></trkpt><trkpt lat="43.9137167" lon="12.1328067"><ele>225.0</ele><time>2026-04-30T11:09:33.653Z</time></trkpt><trkpt lat="43.9137167" lon="12.1327017"><ele>225.0</ele><time>2026-04-30T11:09:34.645Z</time></trkpt><trkpt lat="43.91373" lon="12.1325983"><ele>225.0</ele><time>2026-04-30T11:09:35.651Z</time></trkpt><trkpt lat="43.9137617" lon="12.1325033"><ele>225.0</ele><time>2026-04-30T11:09:36.66Z</time></trkpt><trkpt lat="43.913805" lon="12.1324133"><ele>225.0</ele><time>2026-04-30T11:09:37.654Z</time></trkpt><trkpt lat="43.91385" lon="12.132325"><ele>225.0</ele><time>2026-04-30T11:09:38.651Z</time></trkpt><trkpt lat="43.9138983" lon="12.1322367"><ele>225.0</ele><time>2026-04-30T11:09:39.655Z</time></trkpt><trkpt lat="43.9139533" lon="12.1321583"><ele>225.0</ele><time>2026-04-30T11:09:40.654Z</time></trkpt><trkpt lat="43.914015" lon="12.1320967"><ele>225.0</ele><time>2026-04-30T11:09:41.664Z</time></trkpt><trkpt lat="43.9140867" lon="12.1320667"><ele>225.0</ele><time>2026-04-30T11:09:42.642Z</time></trkpt><trkpt lat="43.9142133" lon="12.1321183"><ele>225.0</ele><time>2026-04-30T11:09:44.653Z</time></trkpt><trkpt lat="43.9142483" lon="12.1322067"><ele>225.0</ele><time>2026-04-30T11:09:45.656Z</time></trkpt><trkpt lat="43.9142583" lon="12.1323217"><ele>231.33333333333334</ele><time>2026-04-30T11:09:46.662Z</time></trkpt><trkpt lat="43.9142767" lon="12.132425"><ele>237.66666666666669</ele><time>2026-04-30T11:09:47.651Z</time></trkpt><trkpt lat="43.9142983" lon="12.13251"><ele>244.0</ele><time>2026-04-30T11:09:48.654Z</time></trkpt><trkpt lat="43.9143467" lon="12.1325967"><ele>250.33333333333334</ele><time>2026-04-30T11:09:50.644Z</time></trkpt><trkpt lat="43.9144" lon="12.1325083"><ele>256.6666666666667</ele><time>2026-04-30T11:09:53.644Z</time></trkpt><trkpt lat="43.9144033" lon="12.132355"><ele>263.0</ele><time>2026-04-30T11:09:55.654Z</time></trkpt><trkpt lat="43.9144017" lon="12.1322617"><ele>263.6</ele><time>2026-04-30T11:09:56.653Z</time></trkpt><trkpt lat="43.9144" lon="12.1321567"><ele>264.20000000000005</ele><time>2026-04-30T11:09:57.656Z</time></trkpt><trkpt lat="43.9143983" lon="12.1320433"><ele>264.8</ele><time>2026-04-30T11:09:58.655Z</time></trkpt><trkpt lat="43.9143983" lon="12.1319233"><ele>265.40000000000003</ele><time>2026-04-30T11:09:59.659Z</time></trkpt><trkpt lat="43.9144" lon="12.1318033"><ele>266.0</ele><time>2026-04-30T11:10:00.657Z</time></trkpt><trkpt lat="43.91441" lon="12.1315683"><ele>267.33333333333337</ele><time>2026-04-30T11:10:02.655Z</time></trkpt><trkpt lat="43.9144133" lon="12.1314567"><ele>268.6666666666667</ele><time>2026-04-30T11:10:03.651Z</time></trkpt><trkpt lat="43.9144133" lon="12.1313467"><ele>270.0</ele><time>2026-04-30T11:10:04.66Z</time></trkpt><trkpt lat="43.91441" lon="12.1312333"><ele>271.3333333333333</ele><time>2026-04-30T11:10:05.651Z</time></trkpt><trkpt lat="43.91441" lon="12.1311133"><ele>272.66666666666663</ele><time>2026-04-30T11:10:06.653Z</time></trkpt><trkpt lat="43.91441" lon="12.13099"><ele>274.0</ele><time>2026-04-30T11:10:07.657Z</time></trkpt><trkpt lat="43.91441" lon="12.1308633"><ele>274.0</ele><time>2026-04-30T11:10:08.649Z</time></trkpt><trkpt lat="43.91441" lon="12.1307333"><ele>274.0</ele><time>2026-04-30T11:10:09.659Z</time></trkpt><trkpt lat="43.9144083" lon="12.1306"><ele>274.0</ele><time>2026-04-30T11:10:10.655Z</time></trkpt><trkpt lat="43.9144083" lon="12.1304683"><ele>274.0</ele><time>2026-04-30T11:10:11.654Z</time></trkpt><trkpt lat="43.91441" lon="12.1303367"><ele>274.0</ele><time>2026-04-30T11:10:12.656Z</time></trkpt><trkpt lat="43.9144117" lon="12.130205"><ele>275.2</ele><time>2026-04-30T11:10:13.654Z</time></trkpt><trkpt lat="43.9144117" lon="12.1300733"><ele>276.4</ele><time>2026-04-30T11:10:14.664Z</time></trkpt><trkpt lat="43.91441" lon="12.1299417"><ele>277.6</ele><time>2026-04-30T11:10:15.647Z</time></trkpt><trkpt lat="43.914395" lon="12.1298117"><ele>278.8</ele><time>2026-04-30T11:10:16.654Z</time></trkpt><trkpt lat="43.9143683" lon="12.1296833"><ele>280.0</ele><time>2026-04-30T11:10:17.651Z</time></trkpt><trkpt lat="43.9143267" lon="12.1295583"><ele>282.6</ele><time>2026-04-30T11:10:18.654Z</time></trkpt><trkpt lat="43.9142767" lon="12.1294317"><ele>285.2</ele><time>2026-04-30T11:10:19.647Z</time></trkpt><trkpt lat="43.9142233" lon="12.1293"><ele>287.8</ele><time>2026-04-30T11:10:20.645Z</time></trkpt><trkpt lat="43.9141717" lon="12.1291667"><ele>290.4</ele><time>2026-04-30T11:10:21.649Z</time></trkpt><trkpt lat="43.9141183" lon="12.12903"><ele>293.0</ele><time>2026-04-30T11:10:22.645Z</time></trkpt><trkpt lat="43.91406" lon="12.1289"><ele>286.8</ele><time>2026-04-30T11:10:23.651Z</time></trkpt><trkpt lat="43.9139933" lon="12.1287783"><ele>280.6</ele><time>2026-04-30T11:10:24.649Z</time></trkpt><trkpt lat="43.91392" lon="12.12867"><ele>274.4</ele><time>2026-04-30T11:10:25.653Z</time></trkpt><trkpt lat="43.9138367" lon="12.12857"><ele>268.2</ele><time>2026-04-30T11:10:26.651Z</time></trkpt><trkpt lat="43.9137517" lon="12.12847"><ele>262.0</ele><time>2026-04-30T11:10:27.652Z</time></trkpt><trkpt lat="43.9136667" lon="12.1283633"><ele>262.0</ele><time>2026-04-30T11:10:28.649Z</time></trkpt><trkpt lat="43.9135833" lon="12.1282483"><ele>262.0</ele><time>2026-04-30T11:10:29.65Z</time></trkpt><trkpt lat="43.913505" lon="12.12813"><ele>262.0</ele><time>2026-04-30T11:10:30.65Z</time></trkpt><trkpt lat="43.913425" lon="12.1280083"><ele>262.0</ele><time>2026-04-30T11:10:31.654Z</time></trkpt><trkpt lat="43.913345" lon="12.12789"><ele>259.5</ele><time>2026-04-30T11:10:32.651Z</time></trkpt><trkpt lat="43.9132617" lon="12.1277767"><ele>257.0</ele><time>2026-04-30T11:10:33.654Z</time></trkpt><trkpt lat="43.9131767" lon="12.1276717"><ele>254.5</ele><time>2026-04-30T11:10:34.655Z</time></trkpt><trkpt lat="43.9130883" lon="12.1275667"><ele>252.0</ele><time>2026-04-30T11:10:35.651Z</time></trkpt><trkpt lat="43.9129983" lon="12.1274517"><ele>257.6666666666667</ele><time>2026-04-30T11:10:36.655Z</time></trkpt><trkpt lat="43.9128267" lon="12.1271917"><ele>263.33333333333337</ele><time>2026-04-30T11:10:38.651Z</time></trkpt><trkpt lat="43.91275" lon="12.1270467"><ele>269.0</ele><time>2026-04-30T11:10:39.657Z</time></trkpt><trkpt lat="43.912675" lon="12.1269"><ele>269.0</ele><time>2026-04-30T11:10:40.666Z</time></trkpt><trkpt lat="43.9126033" lon="12.1267533"><ele>269.0</ele><time>2026-04-30T11:10:41.66Z</time></trkpt><trkpt lat="43.9125317" lon="12.1266033"><ele>269.0</ele><time>2026-04-30T11:10:42.659Z</time></trkpt><trkpt lat="43.9124633" lon="12.1264483"><ele>269.0</ele><time>2026-04-30T11:10:43.648Z</time></trkpt><trkpt lat="43.912405" lon="12.1262933"><ele>264.0</ele><time>2026-04-30T11:10:44.654Z</time></trkpt><trkpt lat="43.9123567" lon="12.126125"><ele>259.0</ele><time>2026-04-30T11:10:45.648Z</time></trkpt><trkpt lat="43.9123267" lon="12.1259467"><ele>254.0</ele><time>2026-04-30T11:10:46.648Z</time></trkpt><trkpt lat="43.9123183" lon="12.125765"><ele>249.0</ele><time>2026-04-30T11:10:47.653Z</time></trkpt><trkpt lat="43.9123233" lon="12.1255867"><ele>249.0</ele><time>2026-04-30T11:10:48.649Z</time></trkpt><trkpt lat="43.9123467" lon="12.1254067"><ele>249.0</ele><time>2026-04-30T11:10:49.652Z</time></trkpt><trkpt lat="43.9123833" lon="12.1252383"><ele>249.0</ele><time>2026-04-30T11:10:50.654Z</time></trkpt><trkpt lat="43.91243" lon="12.1250717"><ele>249.0</ele><time>2026-04-30T11:10:51.656Z</time></trkpt><trkpt lat="43.9124817" lon="12.1249067"><ele>250.0</ele><time>2026-04-30T11:10:52.659Z</time></trkpt><trkpt lat="43.9125283" lon="12.124745"><ele>251.0</ele><time>2026-04-30T11:10:53.653Z</time></trkpt><trkpt lat="43.9125617" lon="12.1245767"><ele>252.0</ele><time>2026-04-30T11:10:54.651Z</time></trkpt><trkpt lat="43.91257" lon="12.1244033"><ele>253.0</ele><time>2026-04-30T11:10:55.669Z</time></trkpt><trkpt lat="43.912555" lon="12.12424"><ele>253.0</ele><time>2026-04-30T11:10:56.648Z</time></trkpt><trkpt lat="43.9125133" lon="12.1241017"><ele>253.0</ele><time>2026-04-30T11:10:57.657Z</time></trkpt><trkpt lat="43.9124417" lon="12.124005"><ele>253.0</ele><time>2026-04-30T11:10:58.652Z</time></trkpt><trkpt lat="43.91235" lon="12.1239583"><ele>253.0</ele><time>2026-04-30T11:10:59.653Z</time></trkpt><trkpt lat="43.9122533" lon="12.1239683"><ele>253.0</ele><time>2026-04-30T11:11:00.643Z</time></trkpt><trkpt lat="43.9121633" lon="12.1240183"><ele>253.0</ele><time>2026-04-30T11:11:01.653Z</time></trkpt><trkpt lat="43.912075" lon="12.1240733"><ele>253.0</ele><time>2026-04-30T11:11:02.654Z</time></trkpt><trkpt lat="43.9119833" lon="12.12409"><ele>253.0</ele><time>2026-04-30T11:11:03.654Z</time></trkpt><trkpt lat="43.91189" lon="12.124075"><ele>253.0</ele><time>2026-04-30T11:11:04.65Z</time></trkpt><trkpt lat="43.9118017" lon="12.1240133"><ele>253.0</ele><time>2026-04-30T11:11:05.651Z</time></trkpt><trkpt lat="43.9117167" lon="12.1239167"><ele>254.66666666666666</ele><time>2026-04-30T11:11:06.648Z</time></trkpt><trkpt lat="43.9116367" lon="12.1238067"><ele>256.3333333333333</ele><time>2026-04-30T11:11:07.652Z</time></trkpt><trkpt lat="43.9114933" lon="12.1235467"><ele>258.0</ele><time>2026-04-30T11:11:09.638Z</time></trkpt><trkpt lat="43.9114233" lon="12.1234167"><ele>258.0</ele><time>2026-04-30T11:11:10.651Z</time></trkpt><trkpt lat="43.911355" lon="12.1232867"><ele>258.0</ele><time>2026-04-30T11:11:11.652Z</time></trkpt><trkpt lat="43.91129" lon="12.1231633"><ele>258.0</ele><time>2026-04-30T11:11:12.653Z</time></trkpt><trkpt lat="43.9112333" lon="12.1230467"><ele>258.0</ele><time>2026-04-30T11:11:13.656Z</time></trkpt><trkpt lat="43.9111867" lon="12.1229367"><ele>258.0</ele><time>2026-04-30T11:11:14.65Z</time></trkpt><trkpt lat="43.9111467" lon="12.1228333"><ele>259.0</ele><time>2026-04-30T11:11:15.649Z</time></trkpt><trkpt lat="43.9111267" lon="12.1227333"><ele>260.0</ele><time>2026-04-30T11:11:16.651Z</time></trkpt><trkpt lat="43.9111217" lon="12.122555"><ele>261.0</ele><time>2026-04-30T11:11:18.655Z</time></trkpt><trkpt lat="43.9111267" lon="12.1224133"><ele>262.0</ele><time>2026-04-30T11:11:20.66Z</time></trkpt><trkpt lat="43.9111033" lon="12.122275"><ele>263.0</ele><time>2026-04-30T11:11:22.65Z</time></trkpt><trkpt lat="43.9110433" lon="12.1221533"><ele>271.0</ele><time>2026-04-30T11:11:24.661Z</time></trkpt><trkpt lat="43.910995" lon="12.12208"><ele>271.0</ele><time>2026-04-30T11:11:25.645Z</time></trkpt><trkpt lat="43.9109417" lon="12.1219967"><ele>271.0</ele><time>2026-04-30T11:11:26.651Z</time></trkpt><trkpt lat="43.9109017" lon="12.1219133"><ele>256.0</ele><time>2026-04-30T11:11:27.653Z</time></trkpt><trkpt lat="43.9108583" lon="12.121795"><ele>256.0</ele><time>2026-04-30T11:11:29.649Z</time></trkpt><trkpt lat="43.9108717" lon="12.1218833"><ele>256.0</ele><time>2026-04-30T11:13:23.646Z</time></trkpt></trkseg><trkseg><trkpt lat="43.9108664" lon="12.121827"><ele>255.99999999999997</ele><time>2026-04-30T12:27:47.646Z</time></trkpt><trkpt lat="43.9109003" lon="12.1219979"><ele>256.0</ele><time>2026-04-30T12:27:51.651Z</time></trkpt><trkpt lat="43.9109494" lon="12.1220968"><ele>256.0</ele><time>2026-04-30T12:27:54.656Z</time></trkpt><trkpt lat="43.910984" lon="12.1221775"><ele>256.0</ele><time>2026-04-30T12:27:56.571Z</time></trkpt><trkpt lat="43.9110428" lon="12.1222518"><ele>255.99999999999997</ele><time>2026-04-30T12:27:58.677Z</time></trkpt><trkpt lat="43.9110896" lon="12.122338"><ele>256.0</ele><time>2026-04-30T12:28:01.687Z</time></trkpt><trkpt lat="43.9110585" lon="12.1222618"><ele>257.40000000000003</ele><time>2026-04-30T12:28:06.648Z</time></trkpt><trkpt lat="43.9111083" lon="12.1223569"><ele>258.8</ele><time>2026-04-30T12:28:12.645Z</time></trkpt><trkpt lat="43.9111209" lon="12.1224657"><ele>260.20000000000005</ele><time>2026-04-30T12:28:15.655Z</time></trkpt><trkpt lat="43.9111113" lon="12.1225581"><ele>261.6</ele><time>2026-04-30T12:28:18.652Z</time></trkpt><trkpt lat="43.9110808" lon="12.1226606"><ele>263.0</ele><time>2026-04-30T12:28:45.653Z</time></trkpt><trkpt lat="43.9111399" lon="12.1229395"><ele>263.0</ele><time>2026-04-30T12:28:47.648Z</time></trkpt><trkpt lat="43.9111911" lon="12.1230715"><ele>263.0</ele><time>2026-04-30T12:28:48.661Z</time></trkpt><trkpt lat="43.9112417" lon="12.1231811"><ele>263.0</ele><time>2026-04-30T12:28:49.649Z</time></trkpt><trkpt lat="43.9112944" lon="12.1232861"><ele>263.0</ele><time>2026-04-30T12:28:50.648Z</time></trkpt><trkpt lat="43.9113506" lon="12.1233956"><ele>263.0</ele><time>2026-04-30T12:28:51.651Z</time></trkpt><trkpt lat="43.9114137" lon="12.1235112"><ele>262.4</ele><time>2026-04-30T12:28:52.653Z</time></trkpt><trkpt lat="43.9114806" lon="12.1236287"><ele>261.8</ele><time>2026-04-30T12:28:53.644Z</time></trkpt><trkpt lat="43.9115495" lon="12.1237418"><ele>261.2</ele><time>2026-04-30T12:28:54.646Z</time></trkpt><trkpt lat="43.9116198" lon="12.1238491"><ele>260.6</ele><time>2026-04-30T12:28:55.654Z</time></trkpt><trkpt lat="43.9116942" lon="12.1239495"><ele>260.0</ele><time>2026-04-30T12:28:56.65Z</time></trkpt><trkpt lat="43.9117797" lon="12.1240352"><ele>260.0</ele><time>2026-04-30T12:28:57.658Z</time></trkpt><trkpt lat="43.9118707" lon="12.1240977"><ele>260.0</ele><time>2026-04-30T12:28:58.65Z</time></trkpt><trkpt lat="43.9119696" lon="12.124133"><ele>260.0</ele><time>2026-04-30T12:28:59.648Z</time></trkpt><trkpt lat="43.9120712" lon="12.124129"><ele>260.0</ele><time>2026-04-30T12:29:00.648Z</time></trkpt><trkpt lat="43.9121611" lon="12.124086"><ele>260.0</ele><time>2026-04-30T12:29:01.65Z</time></trkpt><trkpt lat="43.91224" lon="12.1240374"><ele>260.0</ele><time>2026-04-30T12:29:02.652Z</time></trkpt><trkpt lat="43.9123111" lon="12.1240103"><ele>260.0</ele><time>2026-04-30T12:29:03.649Z</time></trkpt><trkpt lat="43.912383" lon="12.1240214"><ele>260.0</ele><time>2026-04-30T12:29:04.649Z</time></trkpt><trkpt lat="43.9124504" lon="12.1240603"><ele>260.0</ele><time>2026-04-30T12:29:05.653Z</time></trkpt><trkpt lat="43.9125083" lon="12.124135"><ele>260.0</ele><time>2026-04-30T12:29:06.645Z</time></trkpt><trkpt lat="43.9125473" lon="12.1242511"><ele>260.0</ele><time>2026-04-30T12:29:07.644Z</time></trkpt><trkpt lat="43.9125532" lon="12.1243957"><ele>258.25</ele><time>2026-04-30T12:29:08.642Z</time></trkpt><trkpt lat="43.9125408" lon="12.1245532"><ele>256.5</ele><time>2026-04-30T12:29:09.651Z</time></trkpt><trkpt lat="43.9125127" lon="12.1247079"><ele>254.75</ele><time>2026-04-30T12:29:10.653Z</time></trkpt><trkpt lat="43.9124749" lon="12.1248555"><ele>253.0</ele><time>2026-04-30T12:29:11.65Z</time></trkpt><trkpt lat="43.9124325" lon="12.1250034"><ele>252.0</ele><time>2026-04-30T12:29:12.648Z</time></trkpt><trkpt lat="43.9123861" lon="12.1251513"><ele>251.0</ele><time>2026-04-30T12:29:13.644Z</time></trkpt><trkpt lat="43.9123436" lon="12.1253046"><ele>250.0</ele><time>2026-04-30T12:29:14.647Z</time></trkpt><trkpt lat="43.9123084" lon="12.1254656"><ele>249.0</ele><time>2026-04-30T12:29:15.657Z</time></trkpt><trkpt lat="43.9122835" lon="12.1256282"><ele>248.25</ele><time>2026-04-30T12:29:16.647Z</time></trkpt><trkpt lat="43.9122733" lon="12.1257992"><ele>247.5</ele><time>2026-04-30T12:29:17.647Z</time></trkpt><trkpt lat="43.9122807" lon="12.1259722"><ele>246.75</ele><time>2026-04-30T12:29:18.655Z</time></trkpt><trkpt lat="43.9123113" lon="12.1261411"><ele>246.0</ele><time>2026-04-30T12:29:19.641Z</time></trkpt><trkpt lat="43.9123627" lon="12.1263103"><ele>246.0</ele><time>2026-04-30T12:29:20.651Z</time></trkpt><trkpt lat="43.9124264" lon="12.12647"><ele>246.0</ele><time>2026-04-30T12:29:21.655Z</time></trkpt><trkpt lat="43.9124936" lon="12.1266223"><ele>246.0</ele><time>2026-04-30T12:29:22.651Z</time></trkpt><trkpt lat="43.9125628" lon="12.1267669"><ele>246.0</ele><time>2026-04-30T12:29:23.645Z</time></trkpt><trkpt lat="43.9126293" lon="12.1269099"><ele>247.5</ele><time>2026-04-30T12:29:24.641Z</time></trkpt><trkpt lat="43.9126944" lon="12.1270501"><ele>249.0</ele><time>2026-04-30T12:29:25.639Z</time></trkpt><trkpt lat="43.9127608" lon="12.1271823"><ele>250.5</ele><time>2026-04-30T12:29:26.646Z</time></trkpt><trkpt lat="43.912832" lon="12.1273026"><ele>252.0</ele><time>2026-04-30T12:29:27.645Z</time></trkpt><trkpt lat="43.9129056" lon="12.127414"><ele>252.0</ele><time>2026-04-30T12:29:28.643Z</time></trkpt><trkpt lat="43.9129862" lon="12.1275131"><ele>252.0</ele><time>2026-04-30T12:29:29.644Z</time></trkpt><trkpt lat="43.9130698" lon="12.1276053"><ele>252.0</ele><time>2026-04-30T12:29:30.642Z</time></trkpt><trkpt lat="43.9131496" lon="12.1276948"><ele>252.0</ele><time>2026-04-30T12:29:31.649Z</time></trkpt><trkpt lat="43.9132185" lon="12.1277838"><ele>252.0</ele><time>2026-04-30T12:29:32.648Z</time></trkpt><trkpt lat="43.9132832" lon="12.127873"><ele>252.0</ele><time>2026-04-30T12:29:33.647Z</time></trkpt><trkpt lat="43.9133428" lon="12.1279571"><ele>252.0</ele><time>2026-04-30T12:29:34.647Z</time></trkpt><trkpt lat="43.9133946" lon="12.1280346"><ele>252.0</ele><time>2026-04-30T12:29:35.642Z</time></trkpt><trkpt lat="43.9134386" lon="12.1281049"><ele>252.0</ele><time>2026-04-30T12:29:36.655Z</time></trkpt><trkpt lat="43.9135109" lon="12.1282136"><ele>252.0</ele><time>2026-04-30T12:29:38.644Z</time></trkpt><trkpt lat="43.9135638" lon="12.1282864"><ele>252.0</ele><time>2026-04-30T12:29:40.649Z</time></trkpt><trkpt lat="43.9136067" lon="12.1283617"><ele>253.66666666666666</ele><time>2026-04-30T12:31:35.644Z</time></trkpt><trkpt lat="43.9136783" lon="12.1284567"><ele>255.33333333333331</ele><time>2026-04-30T12:31:37.649Z</time></trkpt><trkpt lat="43.91377" lon="12.1285567"><ele>257.0</ele><time>2026-04-30T12:31:39.651Z</time></trkpt><trkpt lat="43.913825" lon="12.1286067"><ele>258.66666666666663</ele><time>2026-04-30T12:31:40.649Z</time></trkpt><trkpt lat="43.9138867" lon="12.1286683"><ele>260.3333333333333</ele><time>2026-04-30T12:31:41.651Z</time></trkpt><trkpt lat="43.9139517" lon="12.1287433"><ele>262.0</ele><time>2026-04-30T12:31:42.648Z</time></trkpt><trkpt lat="43.91401" lon="12.1288367"><ele>262.0</ele><time>2026-04-30T12:31:43.648Z</time></trkpt><trkpt lat="43.914055" lon="12.1289383"><ele>262.0</ele><time>2026-04-30T12:31:44.652Z</time></trkpt><trkpt lat="43.9141" lon="12.1290367"><ele>262.0</ele><time>2026-04-30T12:31:45.645Z</time></trkpt><trkpt lat="43.9141417" lon="12.1291383"><ele>262.0</ele><time>2026-04-30T12:31:46.646Z</time></trkpt><trkpt lat="43.9141833" lon="12.12924"><ele>262.0</ele><time>2026-04-30T12:31:47.646Z</time></trkpt><trkpt lat="43.91423" lon="12.12935"><ele>262.0</ele><time>2026-04-30T12:31:48.642Z</time></trkpt><trkpt lat="43.91428" lon="12.12947"><ele>265.6</ele><time>2026-04-30T12:31:49.648Z</time></trkpt><trkpt lat="43.91432" lon="12.1296033"><ele>269.2</ele><time>2026-04-30T12:31:50.649Z</time></trkpt><trkpt lat="43.9143583" lon="12.129745"><ele>272.8</ele><time>2026-04-30T12:31:51.659Z</time></trkpt><trkpt lat="43.914385" lon="12.1298933"><ele>276.4</ele><time>2026-04-30T12:31:52.645Z</time></trkpt><trkpt lat="43.914395" lon="12.13005"><ele>280.0</ele><time>2026-04-30T12:31:53.645Z</time></trkpt><trkpt lat="43.9143983" lon="12.13022"><ele>280.0</ele><time>2026-04-30T12:31:54.652Z</time></trkpt><trkpt lat="43.9143967" lon="12.1304017"><ele>280.0</ele><time>2026-04-30T12:31:55.648Z</time></trkpt><trkpt lat="43.9143967" lon="12.13059"><ele>280.0</ele><time>2026-04-30T12:31:56.651Z</time></trkpt><trkpt lat="43.9143983" lon="12.1307833"><ele>280.0</ele><time>2026-04-30T12:31:57.649Z</time></trkpt><trkpt lat="43.9143967" lon="12.130975"><ele>278.5</ele><time>2026-04-30T12:31:58.649Z</time></trkpt><trkpt lat="43.9143917" lon="12.1311633"><ele>277.0</ele><time>2026-04-30T12:31:59.646Z</time></trkpt><trkpt lat="43.9143883" lon="12.1313533"><ele>275.5</ele><time>2026-04-30T12:32:00.644Z</time></trkpt><trkpt lat="43.9143833" lon="12.1315383"><ele>274.0</ele><time>2026-04-30T12:32:01.642Z</time></trkpt><trkpt lat="43.9143817" lon="12.1317117"><ele>272.66666666666663</ele><time>2026-04-30T12:32:02.649Z</time></trkpt><trkpt lat="43.91438" lon="12.1318717"><ele>271.3333333333333</ele><time>2026-04-30T12:32:03.652Z</time></trkpt><trkpt lat="43.91438" lon="12.1320083"><ele>270.0</ele><time>2026-04-30T12:32:04.658Z</time></trkpt><trkpt lat="43.91438" lon="12.1321267"><ele>268.6666666666667</ele><time>2026-04-30T12:32:05.649Z</time></trkpt><trkpt lat="43.9143783" lon="12.1322317"><ele>267.33333333333337</ele><time>2026-04-30T12:32:06.648Z</time></trkpt><trkpt lat="43.9143767" lon="12.132325"><ele>266.0</ele><time>2026-04-30T12:32:07.652Z</time></trkpt><trkpt lat="43.9143733" lon="12.13248"><ele>266.0</ele><time>2026-04-30T12:32:09.658Z</time></trkpt><trkpt lat="43.91431" lon="12.1325333"><ele>266.0</ele><time>2026-04-30T12:32:11.651Z</time></trkpt><trkpt lat="43.9142567" lon="12.1323867"><ele>266.0</ele><time>2026-04-30T12:32:13.644Z</time></trkpt><trkpt lat="43.9142317" lon="12.132215"><ele>266.0</ele><time>2026-04-30T12:32:15.649Z</time></trkpt><trkpt lat="43.9142" lon="12.1321333"><ele>266.0</ele><time>2026-04-30T12:32:16.654Z</time></trkpt><trkpt lat="43.914135" lon="12.132075"><ele>257.8</ele><time>2026-04-30T12:32:17.64Z</time></trkpt><trkpt lat="43.91406" lon="12.1320383"><ele>249.60000000000002</ele><time>2026-04-30T12:32:18.655Z</time></trkpt><trkpt lat="43.9139683" lon="12.132095"><ele>241.4</ele><time>2026-04-30T12:32:19.661Z</time></trkpt><trkpt lat="43.9138867" lon="12.13218"><ele>233.2</ele><time>2026-04-30T12:32:20.65Z</time></trkpt><trkpt lat="43.9138333" lon="12.1323017"><ele>225.0</ele><time>2026-04-30T12:32:21.654Z</time></trkpt><trkpt lat="43.913785" lon="12.1324133"><ele>225.0</ele><time>2026-04-30T12:32:22.656Z</time></trkpt><trkpt lat="43.9137417" lon="12.1325317"><ele>225.0</ele><time>2026-04-30T12:32:23.645Z</time></trkpt><trkpt lat="43.9137083" lon="12.1326533"><ele>225.0</ele><time>2026-04-30T12:32:24.654Z</time></trkpt><trkpt lat="43.9137017" lon="12.13279"><ele>225.0</ele><time>2026-04-30T12:32:25.651Z</time></trkpt><trkpt lat="43.9137067" lon="12.1329233"><ele>225.0</ele><time>2026-04-30T12:32:26.659Z</time></trkpt><trkpt lat="43.913715" lon="12.133055"><ele>225.0</ele><time>2026-04-30T12:32:27.653Z</time></trkpt><trkpt lat="43.913715" lon="12.1331933"><ele>225.0</ele><time>2026-04-30T12:32:28.652Z</time></trkpt><trkpt lat="43.9136967" lon="12.1333367"><ele>225.0</ele><time>2026-04-30T12:32:29.644Z</time></trkpt><trkpt lat="43.9136683" lon="12.1334717"><ele>225.0</ele><time>2026-04-30T12:32:30.649Z</time></trkpt><trkpt lat="43.913635" lon="12.133595"><ele>225.0</ele><time>2026-04-30T12:32:31.65Z</time></trkpt><trkpt lat="43.9136117" lon="12.1337117"><ele>225.16666666666666</ele><time>2026-04-30T12:32:32.649Z</time></trkpt><trkpt lat="43.9136" lon="12.1338267"><ele>225.33333333333331</ele><time>2026-04-30T12:32:33.659Z</time></trkpt><trkpt lat="43.91361" lon="12.133945"><ele>225.5</ele><time>2026-04-30T12:32:34.648Z</time></trkpt><trkpt lat="43.9136467" lon="12.1340583"><ele>225.66666666666666</ele><time>2026-04-30T12:32:35.662Z</time></trkpt><trkpt lat="43.9136967" lon="12.1341633"><ele>225.83333333333331</ele><time>2026-04-30T12:32:36.651Z</time></trkpt><trkpt lat="43.91376" lon="12.13426"><ele>226.0</ele><time>2026-04-30T12:32:37.645Z</time></trkpt><trkpt lat="43.913825" lon="12.1343433"><ele>225.49999999999997</ele><time>2026-04-30T12:32:38.657Z</time></trkpt><trkpt lat="43.9138883" lon="12.13442"><ele>225.0</ele><time>2026-04-30T12:32:39.651Z</time></trkpt><trkpt lat="43.913955" lon="12.134485"><ele>224.5</ele><time>2026-04-30T12:32:40.653Z</time></trkpt><trkpt lat="43.9140117" lon="12.13454"><ele>224.0</ele><time>2026-04-30T12:32:41.652Z</time></trkpt><trkpt lat="43.9140817" lon="12.134655"><ele>223.49999999999997</ele><time>2026-04-30T12:32:43.648Z</time></trkpt><trkpt lat="43.9140683" lon="12.1347633"><ele>223.0</ele><time>2026-04-30T12:32:45.648Z</time></trkpt><trkpt lat="43.9139633" lon="12.1347467"><ele>223.0</ele><time>2026-04-30T12:32:47.646Z</time></trkpt><trkpt lat="43.9138983" lon="12.1346867"><ele>223.0</ele><time>2026-04-30T12:32:48.65Z</time></trkpt><trkpt lat="43.9138233" lon="12.1346067"><ele>223.0</ele><time>2026-04-30T12:32:49.651Z</time></trkpt><trkpt lat="43.9137417" lon="12.13452"><ele>223.0</ele><time>2026-04-30T12:32:50.657Z</time></trkpt><trkpt lat="43.9136517" lon="12.13443"><ele>223.0</ele><time>2026-04-30T12:32:51.65Z</time></trkpt><trkpt lat="43.9135567" lon="12.13432"><ele>223.0</ele><time>2026-04-30T12:32:52.643Z</time></trkpt><trkpt lat="43.9134533" lon="12.1342017"><ele>223.0</ele><time>2026-04-30T12:32:53.653Z</time></trkpt><trkpt lat="43.91335" lon="12.13409"><ele>223.0</ele><time>2026-04-30T12:32:54.644Z</time></trkpt><trkpt lat="43.91324" lon="12.13398"><ele>223.0</ele><time>2026-04-30T12:32:55.642Z</time></trkpt><trkpt lat="43.9131217" lon="12.1338783"><ele>218.0</ele><time>2026-04-30T12:32:56.649Z</time></trkpt><trkpt lat="43.9129967" lon="12.1337783"><ele>213.0</ele><time>2026-04-30T12:32:57.648Z</time></trkpt><trkpt lat="43.912865" lon="12.133685"><ele>208.0</ele><time>2026-04-30T12:32:58.651Z</time></trkpt><trkpt lat="43.91273" lon="12.1335917"><ele>203.0</ele><time>2026-04-30T12:32:59.656Z</time></trkpt><trkpt lat="43.9126" lon="12.1334967"><ele>202.75</ele><time>2026-04-30T12:33:00.644Z</time></trkpt><trkpt lat="43.912475" lon="12.1334"><ele>202.5</ele><time>2026-04-30T12:33:01.648Z</time></trkpt><trkpt lat="43.912365" lon="12.1333"><ele>202.25</ele><time>2026-04-30T12:33:02.651Z</time></trkpt><trkpt lat="43.9122783" lon="12.1331917"><ele>202.0</ele><time>2026-04-30T12:33:03.652Z</time></trkpt><trkpt lat="43.9122333" lon="12.1330717"><ele>202.0</ele><time>2026-04-30T12:33:04.659Z</time></trkpt><trkpt lat="43.9122383" lon="12.13293"><ele>202.0</ele><time>2026-04-30T12:33:05.653Z</time></trkpt><trkpt lat="43.9122733" lon="12.1327917"><ele>202.0</ele><time>2026-04-30T12:33:06.653Z</time></trkpt><trkpt lat="43.9123133" lon="12.132655"><ele>202.0</ele><time>2026-04-30T12:33:07.646Z</time></trkpt><trkpt lat="43.9123533" lon="12.13252"><ele>202.0</ele><time>2026-04-30T12:33:08.646Z</time></trkpt><trkpt lat="43.9123833" lon="12.132385"><ele>203.2</ele><time>2026-04-30T12:33:09.653Z</time></trkpt><trkpt lat="43.9123867" lon="12.1322367"><ele>204.39999999999998</ele><time>2026-04-30T12:33:10.646Z</time></trkpt><trkpt lat="43.9123717" lon="12.132085"><ele>205.60000000000002</ele><time>2026-04-30T12:33:11.655Z</time></trkpt><trkpt lat="43.9123533" lon="12.1319283"><ele>206.8</ele><time>2026-04-30T12:33:12.653Z</time></trkpt><trkpt lat="43.9123517" lon="12.1317683"><ele>208.0</ele><time>2026-04-30T12:33:13.649Z</time></trkpt><trkpt lat="43.9123567" lon="12.1316133"><ele>207.4</ele><time>2026-04-30T12:33:14.651Z</time></trkpt><trkpt lat="43.9123533" lon="12.1314667"><ele>206.8</ele><time>2026-04-30T12:33:15.648Z</time></trkpt><trkpt lat="43.91232" lon="12.1313233"><ele>206.2</ele><time>2026-04-30T12:33:16.646Z</time></trkpt><trkpt lat="43.9122567" lon="12.13119"><ele>205.6</ele><time>2026-04-30T12:33:17.651Z</time></trkpt><trkpt lat="43.9121833" lon="12.131075"><ele>205.0</ele><time>2026-04-30T12:33:18.647Z</time></trkpt><trkpt lat="43.9120967" lon="12.130985"><ele>205.0</ele><time>2026-04-30T12:33:19.647Z</time></trkpt><trkpt lat="43.9120033" lon="12.1309117"><ele>205.0</ele><time>2026-04-30T12:33:20.661Z</time></trkpt><trkpt lat="43.9119267" lon="12.1308117"><ele>205.0</ele><time>2026-04-30T12:33:21.649Z</time></trkpt><trkpt lat="43.9118833" lon="12.1306783"><ele>205.0</ele><time>2026-04-30T12:33:22.654Z</time></trkpt><trkpt lat="43.9118433" lon="12.130545"><ele>205.0</ele><time>2026-04-30T12:33:23.651Z</time></trkpt><trkpt lat="43.9117983" lon="12.13041"><ele>206.2</ele><time>2026-04-30T12:33:24.651Z</time></trkpt><trkpt lat="43.9117583" lon="12.13028"><ele>207.4</ele><time>2026-04-30T12:33:25.65Z</time></trkpt><trkpt lat="43.9117233" lon="12.130165"><ele>208.60000000000002</ele><time>2026-04-30T12:33:26.646Z</time></trkpt><trkpt lat="43.9116817" lon="12.13007"><ele>209.8</ele><time>2026-04-30T12:33:27.663Z</time></trkpt><trkpt lat="43.91158" lon="12.13002"><ele>211.0</ele><time>2026-04-30T12:33:29.649Z</time></trkpt><trkpt lat="43.91153" lon="12.130095"><ele>211.0</ele><time>2026-04-30T12:33:30.647Z</time></trkpt><trkpt lat="43.9115033" lon="12.130205"><ele>211.0</ele><time>2026-04-30T12:33:31.649Z</time></trkpt><trkpt lat="43.9115017" lon="12.1303233"><ele>211.0</ele><time>2026-04-30T12:33:32.651Z</time></trkpt><trkpt lat="43.91151" lon="12.1304567"><ele>211.0</ele><time>2026-04-30T12:33:33.652Z</time></trkpt><trkpt lat="43.911495" lon="12.1305883"><ele>211.0</ele><time>2026-04-30T12:33:34.649Z</time></trkpt><trkpt lat="43.9114717" lon="12.13072"><ele>214.33333333333331</ele><time>2026-04-30T12:33:35.655Z</time></trkpt><trkpt lat="43.911445" lon="12.1308483"><ele>217.66666666666666</ele><time>2026-04-30T12:33:36.645Z</time></trkpt><trkpt lat="43.9114217" lon="12.1309733"><ele>221.0</ele><time>2026-04-30T12:33:37.652Z</time></trkpt><trkpt lat="43.9114183" lon="12.131095"><ele>224.33333333333331</ele><time>2026-04-30T12:33:38.65Z</time></trkpt><trkpt lat="43.9114417" lon="12.1312083"><ele>227.66666666666666</ele><time>2026-04-30T12:33:39.653Z</time></trkpt><trkpt lat="43.911485" lon="12.131305"><ele>231.0</ele><time>2026-04-30T12:33:40.647Z</time></trkpt><trkpt lat="43.91154" lon="12.1313817"><ele>231.0</ele><time>2026-04-30T12:33:41.651Z</time></trkpt><trkpt lat="43.91159" lon="12.1315133"><ele>231.0</ele><time>2026-04-30T12:33:43.648Z</time></trkpt><trkpt lat="43.9115333" lon="12.1315567"><ele>231.0</ele><time>2026-04-30T12:33:45.656Z</time></trkpt><trkpt lat="43.9114533" lon="12.1314667"><ele>231.0</ele><time>2026-04-30T12:33:47.651Z</time></trkpt><trkpt lat="43.91141" lon="12.1313883"><ele>231.0</ele><time>2026-04-30T12:33:48.643Z</time></trkpt><trkpt lat="43.9113567" lon="12.1312983"><ele>231.0</ele><time>2026-04-30T12:33:49.646Z</time></trkpt><trkpt lat="43.9112967" lon="12.1312117"><ele>231.0</ele><time>2026-04-30T12:33:50.652Z</time></trkpt><trkpt lat="43.9112467" lon="12.1310983"><ele>231.00000000000003</ele><time>2026-04-30T12:33:51.649Z</time></trkpt><trkpt lat="43.91121" lon="12.1309733"><ele>231.00000000000003</ele><time>2026-04-30T12:33:52.661Z</time></trkpt><trkpt lat="43.9111883" lon="12.13084"><ele>231.0</ele><time>2026-04-30T12:33:53.649Z</time></trkpt><trkpt lat="43.9111783" lon="12.130695"><ele>231.0</ele><time>2026-04-30T12:33:54.659Z</time></trkpt><trkpt lat="43.9111617" lon="12.1305517"><ele>231.8</ele><time>2026-04-30T12:33:55.65Z</time></trkpt><trkpt lat="43.9111433" lon="12.1304133"><ele>232.60000000000002</ele><time>2026-04-30T12:33:56.643Z</time></trkpt><trkpt lat="43.9111083" lon="12.1302867"><ele>233.4</ele><time>2026-04-30T12:33:57.65Z</time></trkpt><trkpt lat="43.9110417" lon="12.1301867"><ele>234.2</ele><time>2026-04-30T12:33:58.654Z</time></trkpt><trkpt lat="43.91095" lon="12.13012"><ele>235.0</ele><time>2026-04-30T12:33:59.652Z</time></trkpt><trkpt lat="43.91084" lon="12.1300617"><ele>235.0</ele><time>2026-04-30T12:34:00.649Z</time></trkpt><trkpt lat="43.91072" lon="12.1300067"><ele>235.0</ele><time>2026-04-30T12:34:01.653Z</time></trkpt><trkpt lat="43.9105967" lon="12.1299533"><ele>235.0</ele><time>2026-04-30T12:34:02.65Z</time></trkpt><trkpt lat="43.910475" lon="12.1299017"><ele>235.0</ele><time>2026-04-30T12:34:03.654Z</time></trkpt><trkpt lat="43.910355" lon="12.129845"><ele>235.5</ele><time>2026-04-30T12:34:04.654Z</time></trkpt><trkpt lat="43.91023" lon="12.129785"><ele>236.0</ele><time>2026-04-30T12:34:05.652Z</time></trkpt><trkpt lat="43.9101" lon="12.12972"><ele>236.5</ele><time>2026-04-30T12:34:06.661Z</time></trkpt><trkpt lat="43.9099733" lon="12.1296517"><ele>237.0</ele><time>2026-04-30T12:34:07.658Z</time></trkpt><trkpt lat="43.90985" lon="12.1295733"><ele>237.0</ele><time>2026-04-30T12:34:08.648Z</time></trkpt><trkpt lat="43.9097417" lon="12.1294633"><ele>237.0</ele><time>2026-04-30T12:34:09.646Z</time></trkpt><trkpt lat="43.9096483" lon="12.129325"><ele>237.0</ele><time>2026-04-30T12:34:10.654Z</time></trkpt><trkpt lat="43.9095583" lon="12.12918"><ele>237.0</ele><time>2026-04-30T12:34:11.648Z</time></trkpt><trkpt lat="43.9094683" lon="12.1290267"><ele>240.5</ele><time>2026-04-30T12:34:12.652Z</time></trkpt><trkpt lat="43.9093767" lon="12.1288717"><ele>244.0</ele><time>2026-04-30T12:34:13.648Z</time></trkpt><trkpt lat="43.90928" lon="12.1287217"><ele>247.5</ele><time>2026-04-30T12:34:14.653Z</time></trkpt><trkpt lat="43.9091867" lon="12.1285683"><ele>251.0</ele><time>2026-04-30T12:34:15.653Z</time></trkpt><trkpt lat="43.9090983" lon="12.1284233"><ele>251.0</ele><time>2026-04-30T12:34:16.648Z</time></trkpt><trkpt lat="43.9090167" lon="12.1282867"><ele>251.0</ele><time>2026-04-30T12:34:17.65Z</time></trkpt><trkpt lat="43.9089433" lon="12.128145"><ele>251.0</ele><time>2026-04-30T12:34:18.648Z</time></trkpt><trkpt lat="43.9088767" lon="12.128005"><ele>251.0</ele><time>2026-04-30T12:34:19.649Z</time></trkpt><trkpt lat="43.9088" lon="12.1278783"><ele>247.0</ele><time>2026-04-30T12:34:20.648Z</time></trkpt><trkpt lat="43.908705" lon="12.1277833"><ele>243.0</ele><time>2026-04-30T12:34:21.652Z</time></trkpt><trkpt lat="43.908595" lon="12.1277233"><ele>239.0</ele><time>2026-04-30T12:34:22.65Z</time></trkpt><trkpt lat="43.90847" lon="12.1277017"><ele>235.0</ele><time>2026-04-30T12:34:23.647Z</time></trkpt><trkpt lat="43.90834" lon="12.1277133"><ele>245.25</ele><time>2026-04-30T12:34:24.646Z</time></trkpt><trkpt lat="43.9082" lon="12.12776"><ele>255.5</ele><time>2026-04-30T12:34:25.645Z</time></trkpt><trkpt lat="43.9080617" lon="12.12782"><ele>265.75</ele><time>2026-04-30T12:34:26.641Z</time></trkpt><trkpt lat="43.90792" lon="12.1278833"><ele>276.0</ele><time>2026-04-30T12:34:27.649Z</time></trkpt><trkpt lat="43.907775" lon="12.1279433"><ele>276.0</ele><time>2026-04-30T12:34:28.654Z</time></trkpt><trkpt lat="43.9076333" lon="12.128005"><ele>276.0</ele><time>2026-04-30T12:34:29.654Z</time></trkpt><trkpt lat="43.9074933" lon="12.128065"><ele>276.0</ele><time>2026-04-30T12:34:30.662Z</time></trkpt><trkpt lat="43.9073567" lon="12.128125"><ele>276.0</ele><time>2026-04-30T12:34:31.655Z</time></trkpt><trkpt lat="43.9072267" lon="12.1281817"><ele>277.0</ele><time>2026-04-30T12:34:32.647Z</time></trkpt><trkpt lat="43.9070983" lon="12.12824"><ele>278.0</ele><time>2026-04-30T12:34:33.656Z</time></trkpt><trkpt lat="43.9069717" lon="12.1282983"><ele>279.0</ele><time>2026-04-30T12:34:34.653Z</time></trkpt><trkpt lat="43.9068467" lon="12.1283633"><ele>280.0</ele><time>2026-04-30T12:34:35.649Z</time></trkpt><trkpt lat="43.9067233" lon="12.1284167"><ele>282.0</ele><time>2026-04-30T12:34:36.652Z</time></trkpt><trkpt lat="43.9066017" lon="12.128475"><ele>284.0</ele><time>2026-04-30T12:34:37.652Z</time></trkpt><trkpt lat="43.906485" lon="12.12853"><ele>286.0</ele><time>2026-04-30T12:34:38.655Z</time></trkpt><trkpt lat="43.9063783" lon="12.1285867"><ele>288.0</ele><time>2026-04-30T12:34:39.65Z</time></trkpt><trkpt lat="43.90629" lon="12.128655"><ele>288.0</ele><time>2026-04-30T12:34:40.657Z</time></trkpt><trkpt lat="43.9062233" lon="12.1287517"><ele>288.0</ele><time>2026-04-30T12:34:41.66Z</time></trkpt><trkpt lat="43.9061867" lon="12.1288783"><ele>288.0</ele><time>2026-04-30T12:34:42.644Z</time></trkpt><trkpt lat="43.90619" lon="12.1290183"><ele>288.0</ele><time>2026-04-30T12:34:43.646Z</time></trkpt><trkpt lat="43.9062233" lon="12.1291683"><ele>288.0</ele><time>2026-04-30T12:34:44.653Z</time></trkpt><trkpt lat="43.90628" lon="12.1293233"><ele>289.75</ele><time>2026-04-30T12:34:45.652Z</time></trkpt><trkpt lat="43.906345" lon="12.1294933"><ele>291.5</ele><time>2026-04-30T12:34:46.648Z</time></trkpt><trkpt lat="43.9064083" lon="12.129665"><ele>293.25</ele><time>2026-04-30T12:34:47.655Z</time></trkpt><trkpt lat="43.9064683" lon="12.129835"><ele>295.0</ele><time>2026-04-30T12:34:48.648Z</time></trkpt><trkpt lat="43.906535" lon="12.130005"><ele>293.5</ele><time>2026-04-30T12:34:49.656Z</time></trkpt><trkpt lat="43.9066017" lon="12.1301733"><ele>292.0</ele><time>2026-04-30T12:34:50.643Z</time></trkpt><trkpt lat="43.9066683" lon="12.1303383"><ele>290.5</ele><time>2026-04-30T12:34:51.648Z</time></trkpt><trkpt lat="43.9067367" lon="12.1304933"><ele>289.0</ele><time>2026-04-30T12:34:52.648Z</time></trkpt><trkpt lat="43.906805" lon="12.1306383"><ele>289.8333333333333</ele><time>2026-04-30T12:34:53.651Z</time></trkpt><trkpt lat="43.9068667" lon="12.1307567"><ele>290.66666666666663</ele><time>2026-04-30T12:34:54.656Z</time></trkpt><trkpt lat="43.9069083" lon="12.1308517"><ele>291.5</ele><time>2026-04-30T12:34:55.654Z</time></trkpt><trkpt lat="43.9069217" lon="12.1309417"><ele>292.3333333333333</ele><time>2026-04-30T12:34:56.643Z</time></trkpt><trkpt lat="43.9068383" lon="12.1309983"><ele>293.1666666666667</ele><time>2026-04-30T12:34:58.657Z</time></trkpt><trkpt lat="43.9067717" lon="12.130935"><ele>294.0</ele><time>2026-04-30T12:34:59.66Z</time></trkpt><trkpt lat="43.90671" lon="12.130835"><ele>296.59999999999997</ele><time>2026-04-30T12:35:00.649Z</time></trkpt><trkpt lat="43.9066517" lon="12.1307183"><ele>299.2</ele><time>2026-04-30T12:35:01.65Z</time></trkpt><trkpt lat="43.9065917" lon="12.1305983"><ele>301.79999999999995</ele><time>2026-04-30T12:35:02.641Z</time></trkpt><trkpt lat="43.9065317" lon="12.13048"><ele>304.4</ele><time>2026-04-30T12:35:03.655Z</time></trkpt><trkpt lat="43.90647" lon="12.1303533"><ele>307.0</ele><time>2026-04-30T12:35:04.647Z</time></trkpt><trkpt lat="43.9064067" lon="12.1302317"><ele>307.0</ele><time>2026-04-30T12:35:05.644Z</time></trkpt><trkpt lat="43.9063433" lon="12.1301233"><ele>307.0</ele><time>2026-04-30T12:35:06.653Z</time></trkpt><trkpt lat="43.90627" lon="12.13002"><ele>307.0</ele><time>2026-04-30T12:35:07.652Z</time></trkpt><trkpt lat="43.9061833" lon="12.1299233"><ele>307.0</ele><time>2026-04-30T12:35:08.654Z</time></trkpt><trkpt lat="43.9061033" lon="12.1298383"><ele>307.0</ele><time>2026-04-30T12:35:09.657Z</time></trkpt><trkpt lat="43.90602" lon="12.1297717"><ele>308.0</ele><time>2026-04-30T12:35:10.661Z</time></trkpt><trkpt lat="43.90593" lon="12.1297383"><ele>309.0</ele><time>2026-04-30T12:35:11.654Z</time></trkpt><trkpt lat="43.90583" lon="12.1297433"><ele>310.0</ele><time>2026-04-30T12:35:12.653Z</time></trkpt><trkpt lat="43.9057183" lon="12.1297967"><ele>311.0</ele><time>2026-04-30T12:35:13.647Z</time></trkpt><trkpt lat="43.9056017" lon="12.1298533"><ele>312.0</ele><time>2026-04-30T12:35:14.658Z</time></trkpt><trkpt lat="43.9054717" lon="12.1298967"><ele>312.0</ele><time>2026-04-30T12:35:15.661Z</time></trkpt><trkpt lat="43.9053367" lon="12.12991"><ele>312.0</ele><time>2026-04-30T12:35:16.651Z</time></trkpt><trkpt lat="43.9052067" lon="12.12987"><ele>312.0</ele><time>2026-04-30T12:35:17.644Z</time></trkpt><trkpt lat="43.905085" lon="12.1298"><ele>312.0</ele><time>2026-04-30T12:35:18.655Z</time></trkpt><trkpt lat="43.9049767" lon="12.1297"><ele>318.25</ele><time>2026-04-30T12:35:19.649Z</time></trkpt><trkpt lat="43.9048867" lon="12.1295767"><ele>324.5</ele><time>2026-04-30T12:35:20.649Z</time></trkpt><trkpt lat="43.9048033" lon="12.1294367"><ele>330.75</ele><time>2026-04-30T12:35:21.652Z</time></trkpt><trkpt lat="43.904735" lon="12.1292783"><ele>337.0</ele><time>2026-04-30T12:35:22.657Z</time></trkpt><trkpt lat="43.9046833" lon="12.1291067"><ele>336.0</ele><time>2026-04-30T12:35:23.655Z</time></trkpt><trkpt lat="43.904645" lon="12.1289267"><ele>335.0</ele><time>2026-04-30T12:35:24.655Z</time></trkpt><trkpt lat="43.9046117" lon="12.12874"><ele>334.0</ele><time>2026-04-30T12:35:25.65Z</time></trkpt><trkpt lat="43.9045833" lon="12.1285483"><ele>333.0</ele><time>2026-04-30T12:35:26.646Z</time></trkpt><trkpt lat="43.9045467" lon="12.1283583"><ele>331.75</ele><time>2026-04-30T12:35:27.645Z</time></trkpt><trkpt lat="43.9045133" lon="12.1281733"><ele>330.5</ele><time>2026-04-30T12:35:28.65Z</time></trkpt><trkpt lat="43.9044917" lon="12.12799"><ele>329.25</ele><time>2026-04-30T12:35:29.649Z</time></trkpt><trkpt lat="43.9044733" lon="12.127805"><ele>328.0</ele><time>2026-04-30T12:35:30.651Z</time></trkpt><trkpt lat="43.9044483" lon="12.1276317"><ele>328.0</ele><time>2026-04-30T12:35:31.649Z</time></trkpt><trkpt lat="43.9044083" lon="12.1274783"><ele>328.0</ele><time>2026-04-30T12:35:32.65Z</time></trkpt><trkpt lat="43.9043567" lon="12.1273517"><ele>328.0</ele><time>2026-04-30T12:35:33.655Z</time></trkpt><trkpt lat="43.9042917" lon="12.127255"><ele>328.0</ele><time>2026-04-30T12:35:34.651Z</time></trkpt><trkpt lat="43.904215" lon="12.1272017"><ele>328.0</ele><time>2026-04-30T12:35:35.646Z</time></trkpt><trkpt lat="43.90414" lon="12.1271783"><ele>330.4</ele><time>2026-04-30T12:35:36.651Z</time></trkpt><trkpt lat="43.90406" lon="12.1272"><ele>332.79999999999995</ele><time>2026-04-30T12:35:37.651Z</time></trkpt><trkpt lat="43.903975" lon="12.1272783"><ele>335.2</ele><time>2026-04-30T12:35:38.64Z</time></trkpt><trkpt lat="43.9039167" lon="12.1274083"><ele>337.6</ele><time>2026-04-30T12:35:39.647Z</time></trkpt><trkpt lat="43.9038783" lon="12.1275717"><ele>340.0</ele><time>2026-04-30T12:35:40.648Z</time></trkpt><trkpt lat="43.90386" lon="12.127725"><ele>343.8</ele><time>2026-04-30T12:35:41.647Z</time></trkpt><trkpt lat="43.903845" lon="12.1278733"><ele>347.6</ele><time>2026-04-30T12:35:42.649Z</time></trkpt><trkpt lat="43.9038283" lon="12.128025"><ele>351.4</ele><time>2026-04-30T12:35:43.657Z</time></trkpt><trkpt lat="43.9037917" lon="12.1281567"><ele>355.2</ele><time>2026-04-30T12:35:44.651Z</time></trkpt><trkpt lat="43.90375" lon="12.1282733"><ele>359.0</ele><time>2026-04-30T12:35:45.651Z</time></trkpt><trkpt lat="43.90371" lon="12.1283933"><ele>360.6</ele><time>2026-04-30T12:35:46.647Z</time></trkpt><trkpt lat="43.9036783" lon="12.12852"><ele>362.2</ele><time>2026-04-30T12:35:47.653Z</time></trkpt><trkpt lat="43.9036533" lon="12.1286483"><ele>363.8</ele><time>2026-04-30T12:35:48.646Z</time></trkpt><trkpt lat="43.903655" lon="12.1287867"><ele>365.40000000000003</ele><time>2026-04-30T12:35:49.648Z</time></trkpt><trkpt lat="43.9036783" lon="12.12893"><ele>367.0</ele><time>2026-04-30T12:35:50.649Z</time></trkpt><trkpt lat="43.9037217" lon="12.129075"><ele>368.25</ele><time>2026-04-30T12:35:51.652Z</time></trkpt><trkpt lat="43.9037817" lon="12.1292233"><ele>369.5</ele><time>2026-04-30T12:35:52.653Z</time></trkpt><trkpt lat="43.903855" lon="12.129375"><ele>370.75</ele><time>2026-04-30T12:35:53.649Z</time></trkpt><trkpt lat="43.9039267" lon="12.1295267"><ele>372.0</ele><time>2026-04-30T12:35:54.648Z</time></trkpt><trkpt lat="43.9039933" lon="12.1296767"><ele>372.0</ele><time>2026-04-30T12:35:55.647Z</time></trkpt><trkpt lat="43.904055" lon="12.1298267"><ele>372.0</ele><time>2026-04-30T12:35:56.654Z</time></trkpt><trkpt lat="43.9041167" lon="12.129985"><ele>372.0</ele><time>2026-04-30T12:35:57.654Z</time></trkpt><trkpt lat="43.9041617" lon="12.130155"><ele>372.0</ele><time>2026-04-30T12:35:58.651Z</time></trkpt><trkpt lat="43.90419" lon="12.1303267"><ele>373.0</ele><time>2026-04-30T12:35:59.654Z</time></trkpt><trkpt lat="43.9042067" lon="12.130495"><ele>374.0</ele><time>2026-04-30T12:36:00.652Z</time></trkpt><trkpt lat="43.90421" lon="12.130675"><ele>375.0</ele><time>2026-04-30T12:36:01.655Z</time></trkpt><trkpt lat="43.9041883" lon="12.1308533"><ele>376.0</ele><time>2026-04-30T12:36:02.656Z</time></trkpt><trkpt lat="43.9041417" lon="12.1310283"><ele>379.0</ele><time>2026-04-30T12:36:03.642Z</time></trkpt><trkpt lat="43.904085" lon="12.1312017"><ele>382.0</ele><time>2026-04-30T12:36:04.645Z</time></trkpt><trkpt lat="43.904035" lon="12.1313783"><ele>385.0</ele><time>2026-04-30T12:36:05.64Z</time></trkpt><trkpt lat="43.9040033" lon="12.1315667"><ele>388.0</ele><time>2026-04-30T12:36:06.652Z</time></trkpt><trkpt lat="43.9039817" lon="12.1317583"><ele>391.75</ele><time>2026-04-30T12:36:07.653Z</time></trkpt><trkpt lat="43.9039617" lon="12.1319417"><ele>395.5</ele><time>2026-04-30T12:36:08.642Z</time></trkpt><trkpt lat="43.903925" lon="12.13211"><ele>399.25</ele><time>2026-04-30T12:36:09.66Z</time></trkpt><trkpt lat="43.9038633" lon="12.1322667"><ele>403.0</ele><time>2026-04-30T12:36:10.647Z</time></trkpt><trkpt lat="43.9037767" lon="12.1324"><ele>403.75</ele><time>2026-04-30T12:36:11.651Z</time></trkpt><trkpt lat="43.903675" lon="12.1324967"><ele>404.5</ele><time>2026-04-30T12:36:12.651Z</time></trkpt><trkpt lat="43.903565" lon="12.1325733"><ele>405.25</ele><time>2026-04-30T12:36:13.643Z</time></trkpt><trkpt lat="43.9034467" lon="12.1326467"><ele>406.0</ele><time>2026-04-30T12:36:14.657Z</time></trkpt><trkpt lat="43.9033167" lon="12.1327067"><ele>403.5</ele><time>2026-04-30T12:36:15.651Z</time></trkpt><trkpt lat="43.903185" lon="12.1327417"><ele>401.0</ele><time>2026-04-30T12:36:16.644Z</time></trkpt><trkpt lat="43.9030583" lon="12.1327767"><ele>398.5</ele><time>2026-04-30T12:36:17.648Z</time></trkpt><trkpt lat="43.9029333" lon="12.13281"><ele>396.0</ele><time>2026-04-30T12:36:18.652Z</time></trkpt><trkpt lat="43.9028067" lon="12.1328283"><ele>396.0</ele><time>2026-04-30T12:36:19.645Z</time></trkpt><trkpt lat="43.902685" lon="12.132825"><ele>396.0</ele><time>2026-04-30T12:36:20.654Z</time></trkpt><trkpt lat="43.9025667" lon="12.1328267"><ele>396.0</ele><time>2026-04-30T12:36:21.65Z</time></trkpt><trkpt lat="43.9024483" lon="12.13285"><ele>396.0</ele><time>2026-04-30T12:36:22.65Z</time></trkpt><trkpt lat="43.9023317" lon="12.132895"><ele>396.5</ele><time>2026-04-30T12:36:23.665Z</time></trkpt><trkpt lat="43.9022217" lon="12.1329617"><ele>397.0</ele><time>2026-04-30T12:36:24.658Z</time></trkpt><trkpt lat="43.9021117" lon="12.1330433"><ele>397.5</ele><time>2026-04-30T12:36:25.672Z</time></trkpt><trkpt lat="43.9020017" lon="12.1331383"><ele>398.0</ele><time>2026-04-30T12:36:26.645Z</time></trkpt><trkpt lat="43.9018967" lon="12.1332517"><ele>399.25</ele><time>2026-04-30T12:36:27.656Z</time></trkpt><trkpt lat="43.9017933" lon="12.1333717"><ele>400.5</ele><time>2026-04-30T12:36:28.649Z</time></trkpt><trkpt lat="43.9016917" lon="12.1335"><ele>401.75</ele><time>2026-04-30T12:36:29.65Z</time></trkpt><trkpt lat="43.9015933" lon="12.1336283"><ele>403.0</ele><time>2026-04-30T12:36:30.649Z</time></trkpt><trkpt lat="43.9014917" lon="12.13374"><ele>403.0</ele><time>2026-04-30T12:36:31.647Z</time></trkpt><trkpt lat="43.90138" lon="12.1338383"><ele>403.0</ele><time>2026-04-30T12:36:32.651Z</time></trkpt><trkpt lat="43.9012583" lon="12.1339217"><ele>403.0</ele><time>2026-04-30T12:36:33.66Z</time></trkpt><trkpt lat="43.9011333" lon="12.1339983"><ele>403.0</ele><time>2026-04-30T12:36:34.648Z</time></trkpt><trkpt lat="43.901005" lon="12.1340883"><ele>403.25</ele><time>2026-04-30T12:36:35.654Z</time></trkpt><trkpt lat="43.900885" lon="12.13419"><ele>403.5</ele><time>2026-04-30T12:36:36.643Z</time></trkpt><trkpt lat="43.9007683" lon="12.1342983"><ele>403.75</ele><time>2026-04-30T12:36:37.648Z</time></trkpt><trkpt lat="43.9006583" lon="12.1343883"><ele>404.0</ele><time>2026-04-30T12:36:38.641Z</time></trkpt><trkpt lat="43.900555" lon="12.1344683"><ele>404.0</ele><time>2026-04-30T12:36:39.65Z</time></trkpt><trkpt lat="43.9004517" lon="12.1345317"><ele>404.0</ele><time>2026-04-30T12:36:40.651Z</time></trkpt><trkpt lat="43.900335" lon="12.1345583"><ele>404.0</ele><time>2026-04-30T12:36:41.65Z</time></trkpt><trkpt lat="43.9002133" lon="12.1345317"><ele>404.0</ele><time>2026-04-30T12:36:42.641Z</time></trkpt><trkpt lat="43.9000967" lon="12.134455"><ele>407.25</ele><time>2026-04-30T12:36:43.65Z</time></trkpt><trkpt lat="43.8999833" lon="12.1343633"><ele>410.5</ele><time>2026-04-30T12:36:44.646Z</time></trkpt><trkpt lat="43.8998683" lon="12.1342767"><ele>413.75</ele><time>2026-04-30T12:36:45.656Z</time></trkpt><trkpt lat="43.899755" lon="12.1342017"><ele>417.0</ele><time>2026-04-30T12:36:46.655Z</time></trkpt><trkpt lat="43.8996467" lon="12.1341133"><ele>418.25</ele><time>2026-04-30T12:36:47.648Z</time></trkpt><trkpt lat="43.8995467" lon="12.1340117"><ele>419.5</ele><time>2026-04-30T12:36:48.647Z</time></trkpt><trkpt lat="43.8994433" lon="12.133915"><ele>420.75</ele><time>2026-04-30T12:36:49.648Z</time></trkpt><trkpt lat="43.8993417" lon="12.13382"><ele>422.0</ele><time>2026-04-30T12:36:50.648Z</time></trkpt><trkpt lat="43.8992433" lon="12.1337317"><ele>422.0</ele><time>2026-04-30T12:36:51.661Z</time></trkpt><trkpt lat="43.8991517" lon="12.1336483"><ele>422.0</ele><time>2026-04-30T12:36:52.684Z</time></trkpt><trkpt lat="43.8990767" lon="12.1335733"><ele>422.0</ele><time>2026-04-30T12:36:53.641Z</time></trkpt><trkpt lat="43.899005" lon="12.13351"><ele>422.0</ele><time>2026-04-30T12:36:54.645Z</time></trkpt><trkpt lat="43.8989383" lon="12.1334683"><ele>422.0</ele><time>2026-04-30T12:36:55.642Z</time></trkpt><trkpt lat="43.8988233" lon="12.1334983"><ele>422.0</ele><time>2026-04-30T12:36:57.647Z</time></trkpt><trkpt lat="43.898865" lon="12.133695"><ele>422.0</ele><time>2026-04-30T12:36:59.649Z</time></trkpt><trkpt lat="43.89894" lon="12.13379"><ele>422.0</ele><time>2026-04-30T12:37:00.647Z</time></trkpt><trkpt lat="43.899035" lon="12.133865"><ele>422.0</ele><time>2026-04-30T12:37:01.648Z</time></trkpt><trkpt lat="43.89913" lon="12.13396"><ele>420.75</ele><time>2026-04-30T12:37:02.656Z</time></trkpt><trkpt lat="43.899235" lon="12.1340817"><ele>419.5</ele><time>2026-04-30T12:37:03.65Z</time></trkpt><trkpt lat="43.8993317" lon="12.1342183"><ele>418.25</ele><time>2026-04-30T12:37:04.649Z</time></trkpt><trkpt lat="43.89943" lon="12.1343567"><ele>417.0</ele><time>2026-04-30T12:37:05.649Z</time></trkpt><trkpt lat="43.8995267" lon="12.13449"><ele>417.0</ele><time>2026-04-30T12:37:06.646Z</time></trkpt><trkpt lat="43.8996167" lon="12.1346183"><ele>417.0</ele><time>2026-04-30T12:37:07.647Z</time></trkpt><trkpt lat="43.8997017" lon="12.1347383"><ele>417.0</ele><time>2026-04-30T12:37:08.654Z</time></trkpt><trkpt lat="43.8997833" lon="12.134855"><ele>417.0</ele><time>2026-04-30T12:37:09.647Z</time></trkpt><trkpt lat="43.89986" lon="12.1349633"><ele>415.8333333333333</ele><time>2026-04-30T12:37:10.646Z</time></trkpt><trkpt lat="43.89992" lon="12.13505"><ele>414.66666666666663</ele><time>2026-04-30T12:37:11.648Z</time></trkpt><trkpt lat="43.8999567" lon="12.1351233"><ele>413.5</ele><time>2026-04-30T12:37:12.647Z</time></trkpt><trkpt lat="43.89999" lon="12.13522"><ele>412.3333333333333</ele><time>2026-04-30T12:37:15.646Z</time></trkpt><trkpt lat="43.9000667" lon="12.1353033"><ele>411.16666666666663</ele><time>2026-04-30T12:38:40.648Z</time></trkpt><trkpt lat="43.90014" lon="12.135435"><ele>410.0</ele><time>2026-04-30T12:38:42.645Z</time></trkpt><trkpt lat="43.900165" lon="12.1355267"><ele>409.99999999999994</ele><time>2026-04-30T12:38:43.643Z</time></trkpt><trkpt lat="43.9001767" lon="12.1356383"><ele>410.0</ele><time>2026-04-30T12:38:44.638Z</time></trkpt><trkpt lat="43.9001717" lon="12.13576"><ele>410.0</ele><time>2026-04-30T12:38:45.652Z</time></trkpt><trkpt lat="43.9001567" lon="12.13588"><ele>410.0</ele><time>2026-04-30T12:38:46.647Z</time></trkpt><trkpt lat="43.9001417" lon="12.13599"><ele>409.99999999999994</ele><time>2026-04-30T12:38:47.659Z</time></trkpt><trkpt lat="43.90013" lon="12.1360883"><ele>410.0</ele><time>2026-04-30T12:38:48.644Z</time></trkpt><trkpt lat="43.9001033" lon="12.136225"><ele>419.2</ele><time>2026-04-30T12:38:50.655Z</time></trkpt><trkpt lat="43.900035" lon="12.136285"><ele>428.4</ele><time>2026-04-30T12:38:52.64Z</time></trkpt><trkpt lat="43.8999083" lon="12.13624"><ele>437.6</ele><time>2026-04-30T12:38:54.657Z</time></trkpt><trkpt lat="43.89983" lon="12.13617"><ele>446.8</ele><time>2026-04-30T12:38:55.642Z</time></trkpt><trkpt lat="43.8997433" lon="12.1360917"><ele>456.0</ele><time>2026-04-30T12:38:56.646Z</time></trkpt><trkpt lat="43.8996483" lon="12.1360233"><ele>456.0</ele><time>2026-04-30T12:38:57.649Z</time></trkpt><trkpt lat="43.8995533" lon="12.1359583"><ele>456.0</ele><time>2026-04-30T12:38:58.652Z</time></trkpt><trkpt lat="43.89946" lon="12.135895"><ele>456.0</ele><time>2026-04-30T12:38:59.659Z</time></trkpt><trkpt lat="43.899365" lon="12.1358333"><ele>456.0</ele><time>2026-04-30T12:39:00.647Z</time></trkpt><trkpt lat="43.8992733" lon="12.135775"><ele>456.0</ele><time>2026-04-30T12:39:01.652Z</time></trkpt><trkpt lat="43.8991883" lon="12.1357267"><ele>458.1666666666667</ele><time>2026-04-30T12:39:02.646Z</time></trkpt><trkpt lat="43.8991117" lon="12.1356833"><ele>460.33333333333337</ele><time>2026-04-30T12:39:03.655Z</time></trkpt><trkpt lat="43.8990333" lon="12.1356433"><ele>462.5</ele><time>2026-04-30T12:39:04.646Z</time></trkpt><trkpt lat="43.8989533" lon="12.1356017"><ele>464.6666666666667</ele><time>2026-04-30T12:39:05.642Z</time></trkpt><trkpt lat="43.8988733" lon="12.135555"><ele>466.83333333333337</ele><time>2026-04-30T12:39:06.65Z</time></trkpt><trkpt lat="43.8987883" lon="12.1354983"><ele>469.0</ele><time>2026-04-30T12:39:07.651Z</time></trkpt><trkpt lat="43.8987033" lon="12.1354433"><ele>469.00000000000006</ele><time>2026-04-30T12:39:08.651Z</time></trkpt><trkpt lat="43.898615" lon="12.1354"><ele>469.0</ele><time>2026-04-30T12:39:09.639Z</time></trkpt><trkpt lat="43.8985233" lon="12.1353683"><ele>469.0</ele><time>2026-04-30T12:39:10.648Z</time></trkpt><trkpt lat="43.8984367" lon="12.1353433"><ele>469.0</ele><time>2026-04-30T12:39:11.65Z</time></trkpt><trkpt lat="43.89835" lon="12.135335"><ele>469.00000000000006</ele><time>2026-04-30T12:39:12.645Z</time></trkpt><trkpt lat="43.8982683" lon="12.1353383"><ele>469.0</ele><time>2026-04-30T12:39:13.651Z</time></trkpt><trkpt lat="43.8981883" lon="12.1353533"><ele>470.83333333333337</ele><time>2026-04-30T12:39:14.657Z</time></trkpt><trkpt lat="43.8981133" lon="12.13538"><ele>472.6666666666667</ele><time>2026-04-30T12:39:15.661Z</time></trkpt><trkpt lat="43.89804" lon="12.135405"><ele>474.5</ele><time>2026-04-30T12:39:16.644Z</time></trkpt><trkpt lat="43.8979633" lon="12.1354383"><ele>476.33333333333337</ele><time>2026-04-30T12:39:17.654Z</time></trkpt><trkpt lat="43.8978917" lon="12.13548"><ele>478.1666666666667</ele><time>2026-04-30T12:39:18.649Z</time></trkpt><trkpt lat="43.8978233" lon="12.1355217"><ele>480.0</ele><time>2026-04-30T12:39:19.652Z</time></trkpt><trkpt lat="43.8977567" lon="12.135565"><ele>480.0</ele><time>2026-04-30T12:39:20.65Z</time></trkpt><trkpt lat="43.8976883" lon="12.135605"><ele>480.0</ele><time>2026-04-30T12:39:21.658Z</time></trkpt><trkpt lat="43.89762" lon="12.1356267"><ele>480.0</ele><time>2026-04-30T12:39:22.653Z</time></trkpt><trkpt lat="43.89755" lon="12.135625"><ele>480.0</ele><time>2026-04-30T12:39:23.648Z</time></trkpt><trkpt lat="43.897485" lon="12.1355967"><ele>480.0</ele><time>2026-04-30T12:39:24.651Z</time></trkpt><trkpt lat="43.897425" lon="12.1355483"><ele>480.0</ele><time>2026-04-30T12:39:25.645Z</time></trkpt><trkpt lat="43.89737" lon="12.1354783"><ele>480.0</ele><time>2026-04-30T12:39:26.655Z</time></trkpt><trkpt lat="43.8973217" lon="12.1353967"><ele>481.8571428571429</ele><time>2026-04-30T12:39:27.657Z</time></trkpt><trkpt lat="43.8972717" lon="12.135325"><ele>483.71428571428567</ele><time>2026-04-30T12:39:28.651Z</time></trkpt><trkpt lat="43.8972133" lon="12.1352683"><ele>485.57142857142856</ele><time>2026-04-30T12:39:29.647Z</time></trkpt><trkpt lat="43.8971567" lon="12.1352217"><ele>487.42857142857144</ele><time>2026-04-30T12:39:30.648Z</time></trkpt><trkpt lat="43.8970883" lon="12.1351933"><ele>489.28571428571433</ele><time>2026-04-30T12:39:31.658Z</time></trkpt><trkpt lat="43.8970267" lon="12.135165"><ele>491.1428571428571</ele><time>2026-04-30T12:39:32.644Z</time></trkpt><trkpt lat="43.8969433" lon="12.13512"><ele>493.0</ele><time>2026-04-30T12:39:34.646Z</time></trkpt><trkpt lat="43.8968467" lon="12.1351033"><ele>493.00000000000006</ele><time>2026-04-30T12:39:41.659Z</time></trkpt><trkpt lat="43.89678" lon="12.1350967"><ele>493.0</ele><time>2026-04-30T12:39:42.653Z</time></trkpt><trkpt lat="43.8967067" lon="12.1350933"><ele>493.0</ele><time>2026-04-30T12:39:43.646Z</time></trkpt><trkpt lat="43.8966283" lon="12.13508"><ele>493.0</ele><time>2026-04-30T12:39:44.65Z</time></trkpt><trkpt lat="43.896545" lon="12.1350517"><ele>493.00000000000006</ele><time>2026-04-30T12:39:45.639Z</time></trkpt><trkpt lat="43.89647" lon="12.1349983"><ele>493.0</ele><time>2026-04-30T12:39:46.65Z</time></trkpt><trkpt lat="43.8964133" lon="12.1349233"><ele>496.00000000000006</ele><time>2026-04-30T12:39:47.662Z</time></trkpt><trkpt lat="43.896365" lon="12.134835"><ele>499.0</ele><time>2026-04-30T12:39:48.65Z</time></trkpt><trkpt lat="43.8963383" lon="12.134725"><ele>502.0</ele><time>2026-04-30T12:39:49.65Z</time></trkpt><trkpt lat="43.8963333" lon="12.134605"><ele>505.0</ele><time>2026-04-30T12:39:50.65Z</time></trkpt><trkpt lat="43.896325" lon="12.1344833"><ele>508.00000000000006</ele><time>2026-04-30T12:39:51.647Z</time></trkpt><trkpt lat="43.8963083" lon="12.1343633"><ele>511.0</ele><time>2026-04-30T12:39:52.647Z</time></trkpt><trkpt lat="43.89628" lon="12.1342517"><ele>511.00000000000006</ele><time>2026-04-30T12:39:53.655Z</time></trkpt><trkpt lat="43.8962417" lon="12.1341467"><ele>511.0</ele><time>2026-04-30T12:39:54.659Z</time></trkpt><trkpt lat="43.896195" lon="12.1340483"><ele>511.0</ele><time>2026-04-30T12:39:55.649Z</time></trkpt><trkpt lat="43.8961367" lon="12.1339533"><ele>511.0</ele><time>2026-04-30T12:39:56.663Z</time></trkpt><trkpt lat="43.896075" lon="12.1338567"><ele>511.00000000000006</ele><time>2026-04-30T12:39:57.653Z</time></trkpt><trkpt lat="43.8960133" lon="12.1337583"><ele>511.0</ele><time>2026-04-30T12:39:58.653Z</time></trkpt><trkpt lat="43.895965" lon="12.13364"><ele>510.6</ele><time>2026-04-30T12:39:59.65Z</time></trkpt><trkpt lat="43.8959283" lon="12.1335133"><ele>510.20000000000005</ele><time>2026-04-30T12:40:00.648Z</time></trkpt><trkpt lat="43.8958767" lon="12.1333833"><ele>509.79999999999995</ele><time>2026-04-30T12:40:01.648Z</time></trkpt><trkpt lat="43.8958067" lon="12.1332717"><ele>509.4</ele><time>2026-04-30T12:40:02.653Z</time></trkpt><trkpt lat="43.8957217" lon="12.1331733"><ele>509.0</ele><time>2026-04-30T12:40:03.657Z</time></trkpt><trkpt lat="43.8956333" lon="12.133085"><ele>509.0</ele><time>2026-04-30T12:40:04.648Z</time></trkpt><trkpt lat="43.8955433" lon="12.1330033"><ele>509.0</ele><time>2026-04-30T12:40:05.646Z</time></trkpt><trkpt lat="43.89545" lon="12.1329317"><ele>509.0</ele><time>2026-04-30T12:40:06.653Z</time></trkpt><trkpt lat="43.89536" lon="12.1328783"><ele>509.0</ele><time>2026-04-30T12:40:07.663Z</time></trkpt><trkpt lat="43.89527" lon="12.1328367"><ele>509.0</ele><time>2026-04-30T12:40:08.648Z</time></trkpt><trkpt lat="43.8951717" lon="12.132815"><ele>512.2</ele><time>2026-04-30T12:40:09.663Z</time></trkpt><trkpt lat="43.89507" lon="12.132805"><ele>515.4</ele><time>2026-04-30T12:40:10.647Z</time></trkpt><trkpt lat="43.8949683" lon="12.132805"><ele>518.6</ele><time>2026-04-30T12:40:11.642Z</time></trkpt><trkpt lat="43.8948617" lon="12.1327817"><ele>521.8</ele><time>2026-04-30T12:40:12.652Z</time></trkpt><trkpt lat="43.8947617" lon="12.132735"><ele>525.0</ele><time>2026-04-30T12:40:13.65Z</time></trkpt><trkpt lat="43.8946667" lon="12.1326717"><ele>525.0</ele><time>2026-04-30T12:40:14.652Z</time></trkpt><trkpt lat="43.894575" lon="12.132595"><ele>525.0</ele><time>2026-04-30T12:40:15.644Z</time></trkpt><trkpt lat="43.8944783" lon="12.1325217"><ele>525.0</ele><time>2026-04-30T12:40:16.646Z</time></trkpt><trkpt lat="43.894375" lon="12.1324617"><ele>525.0</ele><time>2026-04-30T12:40:17.646Z</time></trkpt><trkpt lat="43.8942617" lon="12.132425"><ele>525.0</ele><time>2026-04-30T12:40:18.652Z</time></trkpt><trkpt lat="43.89415" lon="12.132405"><ele>525.25</ele><time>2026-04-30T12:40:19.653Z</time></trkpt><trkpt lat="43.8940317" lon="12.1323983"><ele>525.5</ele><time>2026-04-30T12:40:20.644Z</time></trkpt><trkpt lat="43.893915" lon="12.1323867"><ele>525.75</ele><time>2026-04-30T12:40:21.654Z</time></trkpt><trkpt lat="43.8937917" lon="12.1323817"><ele>526.0</ele><time>2026-04-30T12:40:22.649Z</time></trkpt><trkpt lat="43.8936633" lon="12.13237"><ele>531.5</ele><time>2026-04-30T12:40:23.649Z</time></trkpt><trkpt lat="43.8935333" lon="12.1323683"><ele>537.0</ele><time>2026-04-30T12:40:24.645Z</time></trkpt><trkpt lat="43.8934017" lon="12.1323517"><ele>542.5</ele><time>2026-04-30T12:40:25.644Z</time></trkpt><trkpt lat="43.8932733" lon="12.1323283"><ele>548.0</ele><time>2026-04-30T12:40:26.646Z</time></trkpt><trkpt lat="43.89315" lon="12.1322867"><ele>551.25</ele><time>2026-04-30T12:40:27.646Z</time></trkpt><trkpt lat="43.8930317" lon="12.1322067"><ele>554.5</ele><time>2026-04-30T12:40:28.65Z</time></trkpt><trkpt lat="43.8929317" lon="12.132085"><ele>557.75</ele><time>2026-04-30T12:40:29.648Z</time></trkpt><trkpt lat="43.892855" lon="12.1319317"><ele>561.0</ele><time>2026-04-30T12:40:30.645Z</time></trkpt><trkpt lat="43.8928" lon="12.1317583"><ele>561.0</ele><time>2026-04-30T12:40:31.648Z</time></trkpt><trkpt lat="43.8927467" lon="12.1315883"><ele>561.0</ele><time>2026-04-30T12:40:32.646Z</time></trkpt><trkpt lat="43.8926717" lon="12.1314383"><ele>561.0</ele><time>2026-04-30T12:40:33.649Z</time></trkpt><trkpt lat="43.892565" lon="12.1313117"><ele>561.0</ele><time>2026-04-30T12:40:34.649Z</time></trkpt><trkpt lat="43.8924541" lon="12.1311993"><ele>563.0</ele><time>2026-04-30T12:40:35.645Z</time></trkpt><trkpt lat="43.8923418" lon="12.1310891"><ele>565.0</ele><time>2026-04-30T12:40:36.643Z</time></trkpt><trkpt lat="43.8922321" lon="12.1309735"><ele>567.0</ele><time>2026-04-30T12:40:37.652Z</time></trkpt><trkpt lat="43.8921249" lon="12.130864"><ele>569.0</ele><time>2026-04-30T12:40:38.649Z</time></trkpt><trkpt lat="43.8920115" lon="12.1307642"><ele>571.25</ele><time>2026-04-30T12:40:39.648Z</time></trkpt><trkpt lat="43.8918932" lon="12.1306761"><ele>573.5</ele><time>2026-04-30T12:40:40.644Z</time></trkpt><trkpt lat="43.8917712" lon="12.1306022"><ele>575.75</ele><time>2026-04-30T12:40:41.644Z</time></trkpt><trkpt lat="43.8916456" lon="12.1305351"><ele>578.0</ele><time>2026-04-30T12:40:42.648Z</time></trkpt><trkpt lat="43.891516" lon="12.1304777"><ele>578.0</ele><time>2026-04-30T12:40:43.641Z</time></trkpt><trkpt lat="43.891381" lon="12.1304296"><ele>578.0</ele><time>2026-04-30T12:40:44.646Z</time></trkpt><trkpt lat="43.8912464" lon="12.1303863"><ele>578.0</ele><time>2026-04-30T12:40:45.657Z</time></trkpt><trkpt lat="43.8911138" lon="12.1303533"><ele>578.0</ele><time>2026-04-30T12:40:46.647Z</time></trkpt><trkpt lat="43.890986" lon="12.1303169"><ele>577.25</ele><time>2026-04-30T12:40:47.651Z</time></trkpt><trkpt lat="43.8908655" lon="12.1302722"><ele>576.5</ele><time>2026-04-30T12:40:48.645Z</time></trkpt><trkpt lat="43.890753" lon="12.1302136"><ele>575.75</ele><time>2026-04-30T12:40:49.653Z</time></trkpt><trkpt lat="43.8906491" lon="12.130143"><ele>575.0</ele><time>2026-04-30T12:40:50.655Z</time></trkpt><trkpt lat="43.8905478" lon="12.1300769"><ele>575.0</ele><time>2026-04-30T12:40:51.645Z</time></trkpt><trkpt lat="43.8904474" lon="12.130016"><ele>575.0</ele><time>2026-04-30T12:40:52.651Z</time></trkpt><trkpt lat="43.8903492" lon="12.1299642"><ele>575.0</ele><time>2026-04-30T12:40:53.65Z</time></trkpt><trkpt lat="43.8902517" lon="12.1299142"><ele>575.0</ele><time>2026-04-30T12:40:54.647Z</time></trkpt><trkpt lat="43.8901603" lon="12.1298719"><ele>575.0</ele><time>2026-04-30T12:40:55.648Z</time></trkpt><trkpt lat="43.890078" lon="12.1298396"><ele>572.3333333333333</ele><time>2026-04-30T12:40:56.644Z</time></trkpt><trkpt lat="43.8899999" lon="12.1298104"><ele>569.6666666666666</ele><time>2026-04-30T12:40:57.649Z</time></trkpt><trkpt lat="43.8899237" lon="12.1297887"><ele>567.0</ele><time>2026-04-30T12:40:58.652Z</time></trkpt><trkpt lat="43.889849" lon="12.1297806"><ele>564.3333333333334</ele><time>2026-04-30T12:40:59.645Z</time></trkpt><trkpt lat="43.8897729" lon="12.1297854"><ele>561.6666666666667</ele><time>2026-04-30T12:41:00.643Z</time></trkpt><trkpt lat="43.8896907" lon="12.1297942"><ele>559.0</ele><time>2026-04-30T12:41:01.654Z</time></trkpt><trkpt lat="43.8896047" lon="12.1298062"><ele>559.0</ele><time>2026-04-30T12:41:02.654Z</time></trkpt><trkpt lat="43.8895192" lon="12.1298141"><ele>559.0</ele><time>2026-04-30T12:41:03.649Z</time></trkpt><trkpt lat="43.8894306" lon="12.1298172"><ele>559.0</ele><time>2026-04-30T12:41:04.656Z</time></trkpt><trkpt lat="43.8893436" lon="12.1298105"><ele>559.0</ele><time>2026-04-30T12:41:05.653Z</time></trkpt><trkpt lat="43.8892581" lon="12.1297834"><ele>559.0</ele><time>2026-04-30T12:41:06.648Z</time></trkpt><trkpt lat="43.8891762" lon="12.1297297"><ele>559.0</ele><time>2026-04-30T12:41:07.647Z</time></trkpt><trkpt lat="43.8890948" lon="12.1296552"><ele>561.6</ele><time>2026-04-30T12:41:08.645Z</time></trkpt><trkpt lat="43.8890099" lon="12.1295787"><ele>564.2</ele><time>2026-04-30T12:41:09.653Z</time></trkpt><trkpt lat="43.8889229" lon="12.1295047"><ele>566.8000000000001</ele><time>2026-04-30T12:41:10.655Z</time></trkpt><trkpt lat="43.8888373" lon="12.1294257"><ele>569.4</ele><time>2026-04-30T12:41:11.653Z</time></trkpt><trkpt lat="43.8887539" lon="12.1293581"><ele>572.0</ele><time>2026-04-30T12:41:12.649Z</time></trkpt><trkpt lat="43.8886719" lon="12.1293106"><ele>572.0</ele><time>2026-04-30T12:41:13.654Z</time></trkpt><trkpt lat="43.8886025" lon="12.1293111"><ele>572.0</ele><time>2026-04-30T12:41:14.655Z</time></trkpt><trkpt lat="43.8885338" lon="12.1293486"><ele>572.0</ele><time>2026-04-30T12:41:15.649Z</time></trkpt><trkpt lat="43.8884594" lon="12.1294244"><ele>572.0</ele><time>2026-04-30T12:41:16.652Z</time></trkpt><trkpt lat="43.8883834" lon="12.1295208"><ele>572.0</ele><time>2026-04-30T12:41:17.645Z</time></trkpt><trkpt lat="43.8883053" lon="12.129618"><ele>572.0</ele><time>2026-04-30T12:41:18.644Z</time></trkpt><trkpt lat="43.8882267" lon="12.1297169"><ele>572.4</ele><time>2026-04-30T12:41:19.651Z</time></trkpt><trkpt lat="43.8881482" lon="12.1298188"><ele>572.8000000000001</ele><time>2026-04-30T12:41:20.656Z</time></trkpt><trkpt lat="43.8880711" lon="12.1299204"><ele>573.2</ele><time>2026-04-30T12:41:21.661Z</time></trkpt><trkpt lat="43.8879877" lon="12.1300087"><ele>573.6</ele><time>2026-04-30T12:41:22.651Z</time></trkpt><trkpt lat="43.8878952" lon="12.1300806"><ele>574.0</ele><time>2026-04-30T12:41:23.657Z</time></trkpt><trkpt lat="43.8877956" lon="12.1301365"><ele>579.75</ele><time>2026-04-30T12:41:24.649Z</time></trkpt><trkpt lat="43.8876902" lon="12.1301904"><ele>585.5</ele><time>2026-04-30T12:41:25.652Z</time></trkpt><trkpt lat="43.8875848" lon="12.13025"><ele>591.25</ele><time>2026-04-30T12:41:26.639Z</time></trkpt><trkpt lat="43.8874772" lon="12.1303249"><ele>597.0</ele><time>2026-04-30T12:41:27.652Z</time></trkpt><trkpt lat="43.8873716" lon="12.1304072"><ele>597.2</ele><time>2026-04-30T12:41:28.65Z</time></trkpt><trkpt lat="43.887272" lon="12.1304747"><ele>597.4000000000001</ele><time>2026-04-30T12:41:29.651Z</time></trkpt><trkpt lat="43.8871787" lon="12.1304997"><ele>597.5999999999999</ele><time>2026-04-30T12:41:30.646Z</time></trkpt><trkpt lat="43.8870928" lon="12.1304781"><ele>597.8</ele><time>2026-04-30T12:41:31.649Z</time></trkpt><trkpt lat="43.8870152" lon="12.1304096"><ele>598.0</ele><time>2026-04-30T12:41:32.649Z</time></trkpt><trkpt lat="43.8869322" lon="12.1303119"><ele>598.0</ele><time>2026-04-30T12:41:33.652Z</time></trkpt><trkpt lat="43.8868539" lon="12.13023"><ele>598.0</ele><time>2026-04-30T12:41:34.644Z</time></trkpt><trkpt lat="43.8867619" lon="12.1301817"><ele>598.0</ele><time>2026-04-30T12:41:35.65Z</time></trkpt><trkpt lat="43.886661" lon="12.1301547"><ele>598.0</ele><time>2026-04-30T12:41:36.652Z</time></trkpt><trkpt lat="43.88656" lon="12.1301357"><ele>598.0</ele><time>2026-04-30T12:41:37.649Z</time></trkpt><trkpt lat="43.8864634" lon="12.1301431"><ele>600.8</ele><time>2026-04-30T12:41:38.641Z</time></trkpt><trkpt lat="43.8863691" lon="12.1301923"><ele>603.5999999999999</ele><time>2026-04-30T12:41:39.653Z</time></trkpt><trkpt lat="43.8862793" lon="12.1302679"><ele>606.4000000000001</ele><time>2026-04-30T12:41:40.644Z</time></trkpt><trkpt lat="43.8861881" lon="12.1303336"><ele>609.2</ele><time>2026-04-30T12:41:41.645Z</time></trkpt><trkpt lat="43.8860999" lon="12.1303564"><ele>612.0</ele><time>2026-04-30T12:41:42.643Z</time></trkpt><trkpt lat="43.8860118" lon="12.1303338"><ele>612.0</ele><time>2026-04-30T12:41:43.646Z</time></trkpt><trkpt lat="43.8859378" lon="12.1302723"><ele>612.0</ele><time>2026-04-30T12:41:44.642Z</time></trkpt><trkpt lat="43.885862" lon="12.1302123"><ele>612.0</ele><time>2026-04-30T12:41:45.646Z</time></trkpt><trkpt lat="43.8857962" lon="12.1302101"><ele>612.0</ele><time>2026-04-30T12:41:46.65Z</time></trkpt><trkpt lat="43.8857299" lon="12.1302649"><ele>612.0</ele><time>2026-04-30T12:41:47.642Z</time></trkpt><trkpt lat="43.8856602" lon="12.130351"><ele>612.0</ele><time>2026-04-30T12:41:48.651Z</time></trkpt><trkpt lat="43.8855905" lon="12.1304527"><ele>612.0</ele><time>2026-04-30T12:41:49.652Z</time></trkpt><trkpt lat="43.8855193" lon="12.1305504"><ele>612.0</ele><time>2026-04-30T12:41:50.649Z</time></trkpt><trkpt lat="43.8854411" lon="12.1306217"><ele>612.0</ele><time>2026-04-30T12:41:51.641Z</time></trkpt><trkpt lat="43.8853565" lon="12.1306482"><ele>612.0</ele><time>2026-04-30T12:41:52.647Z</time></trkpt><trkpt lat="43.8852712" lon="12.1306496"><ele>612.0</ele><time>2026-04-30T12:41:53.649Z</time></trkpt><trkpt lat="43.8851885" lon="12.1306604"><ele>612.0</ele><time>2026-04-30T12:41:54.65Z</time></trkpt><trkpt lat="43.8851057" lon="12.1307039"><ele>617.6</ele><time>2026-04-30T12:41:55.643Z</time></trkpt><trkpt lat="43.8850204" lon="12.130781"><ele>623.2</ele><time>2026-04-30T12:41:56.654Z</time></trkpt><trkpt lat="43.8849313" lon="12.1308565"><ele>628.8</ele><time>2026-04-30T12:41:57.649Z</time></trkpt><trkpt lat="43.8848366" lon="12.1309155"><ele>634.4</ele><time>2026-04-30T12:41:58.649Z</time></trkpt><trkpt lat="43.8847395" lon="12.1309555"><ele>640.0</ele><time>2026-04-30T12:41:59.653Z</time></trkpt><trkpt lat="43.884645" lon="12.1309844"><ele>640.0</ele><time>2026-04-30T12:42:00.656Z</time></trkpt><trkpt lat="43.8845503" lon="12.1310012"><ele>640.0</ele><time>2026-04-30T12:42:01.659Z</time></trkpt><trkpt lat="43.8844533" lon="12.1309958"><ele>640.0</ele><time>2026-04-30T12:42:02.641Z</time></trkpt><trkpt lat="43.8843596" lon="12.1309514"><ele>640.0</ele><time>2026-04-30T12:42:03.651Z</time></trkpt><trkpt lat="43.8842784" lon="12.1308677"><ele>640.0</ele><time>2026-04-30T12:42:04.648Z</time></trkpt><trkpt lat="43.884209" lon="12.1307603"><ele>637.2</ele><time>2026-04-30T12:42:05.651Z</time></trkpt><trkpt lat="43.8841407" lon="12.1306508"><ele>634.4</ele><time>2026-04-30T12:42:06.649Z</time></trkpt><trkpt lat="43.8840684" lon="12.1305542"><ele>631.6</ele><time>2026-04-30T12:42:07.652Z</time></trkpt><trkpt lat="43.883988" lon="12.1304764"><ele>628.8</ele><time>2026-04-30T12:42:08.65Z</time></trkpt><trkpt lat="43.8839102" lon="12.130397"><ele>626.0</ele><time>2026-04-30T12:42:09.638Z</time></trkpt><trkpt lat="43.8838398" lon="12.1303209"><ele>626.0</ele><time>2026-04-30T12:42:10.647Z</time></trkpt><trkpt lat="43.883774" lon="12.1302678"><ele>626.0</ele><time>2026-04-30T12:42:11.649Z</time></trkpt><trkpt lat="43.8836939" lon="12.1302555"><ele>626.0</ele><time>2026-04-30T12:42:12.65Z</time></trkpt><trkpt lat="43.8836064" lon="12.130299"><ele>626.0</ele><time>2026-04-30T12:42:13.646Z</time></trkpt><trkpt lat="43.8835127" lon="12.1303543"><ele>626.0</ele><time>2026-04-30T12:42:14.648Z</time></trkpt><trkpt lat="43.8834115" lon="12.1303784"><ele>629.8</ele><time>2026-04-30T12:42:15.652Z</time></trkpt><trkpt lat="43.8833107" lon="12.1303723"><ele>633.6</ele><time>2026-04-30T12:42:16.651Z</time></trkpt><trkpt lat="43.8832154" lon="12.1303341"><ele>637.4</ele><time>2026-04-30T12:42:17.653Z</time></trkpt><trkpt lat="43.8831262" lon="12.1302666"><ele>641.2</ele><time>2026-04-30T12:42:18.645Z</time></trkpt><trkpt lat="43.8830379" lon="12.1301833"><ele>645.0</ele><time>2026-04-30T12:42:19.644Z</time></trkpt><trkpt lat="43.8829484" lon="12.1300944"><ele>645.0</ele><time>2026-04-30T12:42:20.648Z</time></trkpt><trkpt lat="43.8828572" lon="12.1299991"><ele>645.0</ele><time>2026-04-30T12:42:21.651Z</time></trkpt><trkpt lat="43.8827745" lon="12.1298952"><ele>645.0</ele><time>2026-04-30T12:42:22.647Z</time></trkpt><trkpt lat="43.8827032" lon="12.1297926"><ele>645.0</ele><time>2026-04-30T12:42:23.644Z</time></trkpt><trkpt lat="43.8826504" lon="12.1296904"><ele>645.0</ele><time>2026-04-30T12:42:24.682Z</time></trkpt><trkpt lat="43.8826108" lon="12.1295985"><ele>646.8333333333334</ele><time>2026-04-30T12:42:25.642Z</time></trkpt><trkpt lat="43.8825636" lon="12.1295236"><ele>648.6666666666666</ele><time>2026-04-30T12:42:26.647Z</time></trkpt><trkpt lat="43.8825065" lon="12.1294762"><ele>650.5</ele><time>2026-04-30T12:42:27.646Z</time></trkpt><trkpt lat="43.8824128" lon="12.1295562"><ele>652.3333333333333</ele><time>2026-04-30T12:42:29.641Z</time></trkpt><trkpt lat="43.8824157" lon="12.1296496"><ele>654.1666666666666</ele><time>2026-04-30T12:42:30.647Z</time></trkpt><trkpt lat="43.8824452" lon="12.1297556"><ele>656.0</ele><time>2026-04-30T12:42:31.644Z</time></trkpt><trkpt lat="43.8825036" lon="12.1298646"><ele>653.8</ele><time>2026-04-30T12:42:32.645Z</time></trkpt><trkpt lat="43.8825804" lon="12.1299806"><ele>651.5999999999999</ele><time>2026-04-30T12:42:33.644Z</time></trkpt><trkpt lat="43.8826592" lon="12.1300952"><ele>649.4</ele><time>2026-04-30T12:42:34.641Z</time></trkpt><trkpt lat="43.8827339" lon="12.1302065"><ele>647.2</ele><time>2026-04-30T12:42:35.644Z</time></trkpt><trkpt lat="43.882815" lon="12.1303134"><ele>645.0</ele><time>2026-04-30T12:42:36.643Z</time></trkpt><trkpt lat="43.8829032" lon="12.1304173"><ele>645.0</ele><time>2026-04-30T12:42:37.644Z</time></trkpt><trkpt lat="43.8829956" lon="12.1305263"><ele>645.0</ele><time>2026-04-30T12:42:38.648Z</time></trkpt><trkpt lat="43.8830911" lon="12.1306428"><ele>645.0</ele><time>2026-04-30T12:42:39.653Z</time></trkpt><trkpt lat="43.8831824" lon="12.130751"><ele>645.0</ele><time>2026-04-30T12:42:40.646Z</time></trkpt><trkpt lat="43.8832629" lon="12.1308329"><ele>649.6</ele><time>2026-04-30T12:42:41.649Z</time></trkpt><trkpt lat="43.8833241" lon="12.1309021"><ele>654.2</ele><time>2026-04-30T12:42:42.641Z</time></trkpt><trkpt lat="43.8833635" lon="12.1309753"><ele>658.8</ele><time>2026-04-30T12:42:43.648Z</time></trkpt><trkpt lat="43.8833043" lon="12.131081"><ele>663.4</ele><time>2026-04-30T12:42:45.651Z</time></trkpt><trkpt lat="43.8831887" lon="12.1310009"><ele>668.0</ele><time>2026-04-30T12:42:47.657Z</time></trkpt><trkpt lat="43.8831204" lon="12.1309176"><ele>668.0</ele><time>2026-04-30T12:42:48.655Z</time></trkpt><trkpt lat="43.883042" lon="12.1308296"><ele>668.0</ele><time>2026-04-30T12:42:49.657Z</time></trkpt><trkpt lat="43.8829557" lon="12.1307547"><ele>668.0</ele><time>2026-04-30T12:42:50.645Z</time></trkpt><trkpt lat="43.8828567" lon="12.1307008"><ele>668.0</ele><time>2026-04-30T12:42:51.659Z</time></trkpt><trkpt lat="43.8827523" lon="12.130684"><ele>668.0</ele><time>2026-04-30T12:42:52.65Z</time></trkpt><trkpt lat="43.8826451" lon="12.1306946"><ele>669.5999999999999</ele><time>2026-04-30T12:42:53.641Z</time></trkpt><trkpt lat="43.8825374" lon="12.1307179"><ele>671.1999999999999</ele><time>2026-04-30T12:42:54.64Z</time></trkpt><trkpt lat="43.8824329" lon="12.1307451"><ele>672.8</ele><time>2026-04-30T12:42:55.64Z</time></trkpt><trkpt lat="43.8823305" lon="12.1307663"><ele>674.4</ele><time>2026-04-30T12:42:56.639Z</time></trkpt><trkpt lat="43.8822286" lon="12.130782"><ele>676.0</ele><time>2026-04-30T12:42:57.64Z</time></trkpt><trkpt lat="43.8821278" lon="12.1307877"><ele>676.0</ele><time>2026-04-30T12:42:58.655Z</time></trkpt><trkpt lat="43.8820282" lon="12.1307772"><ele>676.0</ele><time>2026-04-30T12:42:59.645Z</time></trkpt><trkpt lat="43.8819277" lon="12.1307389"><ele>676.0</ele><time>2026-04-30T12:43:00.66Z</time></trkpt><trkpt lat="43.8818297" lon="12.1306716"><ele>676.0</ele><time>2026-04-30T12:43:01.642Z</time></trkpt><trkpt lat="43.8817239" lon="12.1305983"><ele>676.0</ele><time>2026-04-30T12:43:02.651Z</time></trkpt><trkpt lat="43.8816114" lon="12.1305345"><ele>680.0</ele><time>2026-04-30T12:43:03.66Z</time></trkpt><trkpt lat="43.8814919" lon="12.1304866"><ele>684.0</ele><time>2026-04-30T12:43:04.665Z</time></trkpt><trkpt lat="43.8813704" lon="12.1304539"><ele>688.0</ele><time>2026-04-30T12:43:05.653Z</time></trkpt><trkpt lat="43.8812525" lon="12.1304292"><ele>692.0</ele><time>2026-04-30T12:43:06.64Z</time></trkpt><trkpt lat="43.8811363" lon="12.1304057"><ele>692.0</ele><time>2026-04-30T12:43:07.64Z</time></trkpt><trkpt lat="43.8810167" lon="12.1303913"><ele>692.0</ele><time>2026-04-30T12:43:08.655Z</time></trkpt><trkpt lat="43.8808977" lon="12.130386"><ele>692.0</ele><time>2026-04-30T12:43:09.646Z</time></trkpt><trkpt lat="43.8807817" lon="12.1303907"><ele>692.0</ele><time>2026-04-30T12:43:10.649Z</time></trkpt><trkpt lat="43.8806694" lon="12.1304095"><ele>698.25</ele><time>2026-04-30T12:43:11.648Z</time></trkpt><trkpt lat="43.8805633" lon="12.1304438"><ele>704.5</ele><time>2026-04-30T12:43:12.644Z</time></trkpt><trkpt lat="43.8804575" lon="12.1304996"><ele>710.75</ele><time>2026-04-30T12:43:13.638Z</time></trkpt><trkpt lat="43.880351" lon="12.1305618"><ele>717.0</ele><time>2026-04-30T12:43:14.651Z</time></trkpt><trkpt lat="43.8802478" lon="12.1306241"><ele>717.0</ele><time>2026-04-30T12:43:15.655Z</time></trkpt><trkpt lat="43.8801563" lon="12.1306922"><ele>717.0</ele><time>2026-04-30T12:43:16.65Z</time></trkpt><trkpt lat="43.8800791" lon="12.1307611"><ele>717.0</ele><time>2026-04-30T12:43:17.651Z</time></trkpt><trkpt lat="43.8800191" lon="12.1308416"><ele>717.0</ele><time>2026-04-30T12:43:18.655Z</time></trkpt><trkpt lat="43.8799767" lon="12.1309332"><ele>717.0</ele><time>2026-04-30T12:43:19.649Z</time></trkpt><trkpt lat="43.8799589" lon="12.1310448"><ele>717.0</ele><time>2026-04-30T12:43:20.651Z</time></trkpt><trkpt lat="43.8799622" lon="12.1311765"><ele>715.6</ele><time>2026-04-30T12:43:21.653Z</time></trkpt><trkpt lat="43.8799555" lon="12.1313025"><ele>714.2</ele><time>2026-04-30T12:43:22.645Z</time></trkpt><trkpt lat="43.8799307" lon="12.1314174"><ele>712.8</ele><time>2026-04-30T12:43:23.642Z</time></trkpt><trkpt lat="43.8798889" lon="12.1315239"><ele>711.4</ele><time>2026-04-30T12:43:24.648Z</time></trkpt><trkpt lat="43.8798207" lon="12.1316047"><ele>710.0</ele><time>2026-04-30T12:43:25.643Z</time></trkpt><trkpt lat="43.8797308" lon="12.1316586"><ele>710.0</ele><time>2026-04-30T12:43:26.647Z</time></trkpt><trkpt lat="43.8796215" lon="12.1316926"><ele>710.0</ele><time>2026-04-30T12:43:27.642Z</time></trkpt><trkpt lat="43.879512" lon="12.1317224"><ele>710.0</ele><time>2026-04-30T12:43:28.645Z</time></trkpt><trkpt lat="43.8794113" lon="12.1317591"><ele>710.0</ele><time>2026-04-30T12:43:29.641Z</time></trkpt><trkpt lat="43.8793267" lon="12.1318227"><ele>710.0</ele><time>2026-04-30T12:43:30.646Z</time></trkpt><trkpt lat="43.8792601" lon="12.1319225"><ele>715.2</ele><time>2026-04-30T12:43:31.646Z</time></trkpt><trkpt lat="43.8792019" lon="12.1320449"><ele>720.4</ele><time>2026-04-30T12:43:32.642Z</time></trkpt><trkpt lat="43.8791459" lon="12.1321779"><ele>725.5999999999999</ele><time>2026-04-30T12:43:33.638Z</time></trkpt><trkpt lat="43.8790828" lon="12.1323093"><ele>730.8</ele><time>2026-04-30T12:43:34.655Z</time></trkpt><trkpt lat="43.8790254" lon="12.1324423"><ele>736.0</ele><time>2026-04-30T12:43:35.645Z</time></trkpt><trkpt lat="43.8789825" lon="12.1325809"><ele>736.0</ele><time>2026-04-30T12:43:36.651Z</time></trkpt><trkpt lat="43.8789663" lon="12.1327195"><ele>736.0</ele><time>2026-04-30T12:43:37.642Z</time></trkpt><trkpt lat="43.8789572" lon="12.1328466"><ele>736.0</ele><time>2026-04-30T12:43:38.654Z</time></trkpt><trkpt lat="43.8789317" lon="12.1329599"><ele>736.0</ele><time>2026-04-30T12:43:39.645Z</time></trkpt><trkpt lat="43.878892" lon="12.1330694"><ele>736.0</ele><time>2026-04-30T12:43:40.649Z</time></trkpt><trkpt lat="43.87885" lon="12.133175"><ele>735.1999999999999</ele><time>2026-04-30T12:43:41.645Z</time></trkpt><trkpt lat="43.8788179" lon="12.1332811"><ele>734.4</ele><time>2026-04-30T12:43:42.648Z</time></trkpt><trkpt lat="43.8788012" lon="12.133397"><ele>733.6</ele><time>2026-04-30T12:43:43.648Z</time></trkpt><trkpt lat="43.8788049" lon="12.1335277"><ele>732.8</ele><time>2026-04-30T12:43:44.643Z</time></trkpt><trkpt lat="43.8788376" lon="12.1336678"><ele>732.0</ele><time>2026-04-30T12:43:45.64Z</time></trkpt><trkpt lat="43.8788842" lon="12.1338139"><ele>732.0</ele><time>2026-04-30T12:43:46.645Z</time></trkpt><trkpt lat="43.878925" lon="12.1339657"><ele>732.0</ele><time>2026-04-30T12:43:47.645Z</time></trkpt><trkpt lat="43.8789542" lon="12.134126"><ele>732.0</ele><time>2026-04-30T12:43:48.643Z</time></trkpt><trkpt lat="43.8789818" lon="12.134282"><ele>732.0</ele><time>2026-04-30T12:43:49.656Z</time></trkpt><trkpt lat="43.8790136" lon="12.1344197"><ele>735.0</ele><time>2026-04-30T12:43:50.646Z</time></trkpt><trkpt lat="43.8790631" lon="12.134528"><ele>738.0</ele><time>2026-04-30T12:43:51.646Z</time></trkpt><trkpt lat="43.8791248" lon="12.1346171"><ele>741.0</ele><time>2026-04-30T12:43:52.648Z</time></trkpt><trkpt lat="43.8792051" lon="12.1346788"><ele>744.0</ele><time>2026-04-30T12:43:53.646Z</time></trkpt><trkpt lat="43.8793059" lon="12.1347238"><ele>747.0</ele><time>2026-04-30T12:43:54.645Z</time></trkpt><trkpt lat="43.8793943" lon="12.134778"><ele>743.0</ele><time>2026-04-30T12:43:55.647Z</time></trkpt><trkpt lat="43.8794478" lon="12.1348701"><ele>739.0</ele><time>2026-04-30T12:43:56.644Z</time></trkpt><trkpt lat="43.8794802" lon="12.134992"><ele>735.0</ele><time>2026-04-30T12:43:57.654Z</time></trkpt><trkpt lat="43.8795019" lon="12.1351221"><ele>731.0</ele><time>2026-04-30T12:43:58.653Z</time></trkpt><trkpt lat="43.8795074" lon="12.1352519"><ele>727.0</ele><time>2026-04-30T12:43:59.639Z</time></trkpt><trkpt lat="43.8794741" lon="12.1353774"><ele>727.0</ele><time>2026-04-30T12:44:00.649Z</time></trkpt><trkpt lat="43.8794138" lon="12.1354882"><ele>727.0</ele><time>2026-04-30T12:44:01.648Z</time></trkpt><trkpt lat="43.8793364" lon="12.1355891"><ele>727.0</ele><time>2026-04-30T12:44:02.64Z</time></trkpt><trkpt lat="43.8792506" lon="12.1356887"><ele>727.0</ele><time>2026-04-30T12:44:03.647Z</time></trkpt><trkpt lat="43.8791731" lon="12.1357919"><ele>727.0</ele><time>2026-04-30T12:44:04.648Z</time></trkpt><trkpt lat="43.8791163" lon="12.1359053"><ele>733.0</ele><time>2026-04-30T12:44:05.643Z</time></trkpt><trkpt lat="43.8790804" lon="12.136026"><ele>739.0</ele><time>2026-04-30T12:44:06.643Z</time></trkpt><trkpt lat="43.8790491" lon="12.1361371"><ele>745.0</ele><time>2026-04-30T12:44:07.644Z</time></trkpt><trkpt lat="43.8790114" lon="12.1362244"><ele>751.0</ele><time>2026-04-30T12:44:08.639Z</time></trkpt><trkpt lat="43.8789615" lon="12.1362792"><ele>757.0</ele><time>2026-04-30T12:44:09.639Z</time></trkpt><trkpt lat="43.8788916" lon="12.1362939"><ele>763.0</ele><time>2026-04-30T12:44:10.64Z</time></trkpt><trkpt lat="43.8788019" lon="12.1362704"><ele>763.0</ele><time>2026-04-30T12:44:11.642Z</time></trkpt><trkpt lat="43.8786986" lon="12.1362169"><ele>763.0</ele><time>2026-04-30T12:44:12.645Z</time></trkpt><trkpt lat="43.8786023" lon="12.1361548"><ele>763.0</ele><time>2026-04-30T12:44:13.646Z</time></trkpt><trkpt lat="43.8785169" lon="12.1360891"><ele>763.0</ele><time>2026-04-30T12:44:14.643Z</time></trkpt><trkpt lat="43.8784495" lon="12.1360042"><ele>763.0</ele><time>2026-04-30T12:44:15.652Z</time></trkpt><trkpt lat="43.8784037" lon="12.1358945"><ele>763.25</ele><time>2026-04-30T12:44:16.653Z</time></trkpt><trkpt lat="43.8783913" lon="12.1357419"><ele>763.5</ele><time>2026-04-30T12:44:17.649Z</time></trkpt><trkpt lat="43.878379" lon="12.1355779"><ele>763.75</ele><time>2026-04-30T12:44:18.655Z</time></trkpt><trkpt lat="43.8783641" lon="12.1354131"><ele>764.0</ele><time>2026-04-30T12:44:19.648Z</time></trkpt><trkpt lat="43.8783517" lon="12.1352555"><ele>765.8000000000001</ele><time>2026-04-30T12:44:20.644Z</time></trkpt><trkpt lat="43.8783426" lon="12.1351099"><ele>767.6</ele><time>2026-04-30T12:44:21.652Z</time></trkpt><trkpt lat="43.8783297" lon="12.1349724"><ele>769.4</ele><time>2026-04-30T12:44:22.653Z</time></trkpt><trkpt lat="43.8782911" lon="12.1348453"><ele>771.2</ele><time>2026-04-30T12:44:23.64Z</time></trkpt><trkpt lat="43.8782266" lon="12.1347278"><ele>773.0</ele><time>2026-04-30T12:44:24.644Z</time></trkpt><trkpt lat="43.8781497" lon="12.1346161"><ele>773.5999999999999</ele><time>2026-04-30T12:44:25.648Z</time></trkpt><trkpt lat="43.8780833" lon="12.1344986"><ele>774.1999999999999</ele><time>2026-04-30T12:44:26.644Z</time></trkpt><trkpt lat="43.8780366" lon="12.1343675"><ele>774.8</ele><time>2026-04-30T12:44:27.649Z</time></trkpt><trkpt lat="43.8780012" lon="12.1342224"><ele>775.4</ele><time>2026-04-30T12:44:28.648Z</time></trkpt><trkpt lat="43.8779687" lon="12.1340679"><ele>776.0</ele><time>2026-04-30T12:44:29.644Z</time></trkpt><trkpt lat="43.8779363" lon="12.1339113"><ele>776.25</ele><time>2026-04-30T12:44:30.644Z</time></trkpt><trkpt lat="43.8779045" lon="12.1337526"><ele>776.5</ele><time>2026-04-30T12:44:31.641Z</time></trkpt><trkpt lat="43.8778693" lon="12.1335961"><ele>776.75</ele><time>2026-04-30T12:44:32.649Z</time></trkpt><trkpt lat="43.8778355" lon="12.1334457"><ele>777.0</ele><time>2026-04-30T12:44:33.665Z</time></trkpt><trkpt lat="43.8778097" lon="12.1332953"><ele>777.5</ele><time>2026-04-30T12:44:34.646Z</time></trkpt><trkpt lat="43.877799" lon="12.1331332"><ele>778.0</ele><time>2026-04-30T12:44:35.645Z</time></trkpt><trkpt lat="43.8778124" lon="12.1329637"><ele>778.5</ele><time>2026-04-30T12:44:36.645Z</time></trkpt><trkpt lat="43.8778501" lon="12.1327988"><ele>779.0</ele><time>2026-04-30T12:44:37.647Z</time></trkpt><trkpt lat="43.8778947" lon="12.1326409"><ele>779.0</ele><time>2026-04-30T12:44:38.646Z</time></trkpt><trkpt lat="43.8779261" lon="12.1324789"><ele>779.0</ele><time>2026-04-30T12:44:39.644Z</time></trkpt><trkpt lat="43.8779277" lon="12.1323104"><ele>779.0</ele><time>2026-04-30T12:44:40.644Z</time></trkpt><trkpt lat="43.8779119" lon="12.1321415"><ele>779.0</ele><time>2026-04-30T12:44:41.646Z</time></trkpt><trkpt lat="43.8778806" lon="12.1319702"><ele>781.5</ele><time>2026-04-30T12:44:42.646Z</time></trkpt><trkpt lat="43.8778398" lon="12.1317996"><ele>784.0</ele><time>2026-04-30T12:44:43.653Z</time></trkpt><trkpt lat="43.8777963" lon="12.1316392"><ele>786.5</ele><time>2026-04-30T12:44:44.653Z</time></trkpt><trkpt lat="43.8777415" lon="12.1314954"><ele>789.0</ele><time>2026-04-30T12:44:45.644Z</time></trkpt><trkpt lat="43.8776791" lon="12.1313603"><ele>787.25</ele><time>2026-04-30T12:44:46.654Z</time></trkpt><trkpt lat="43.8776011" lon="12.131236"><ele>785.5</ele><time>2026-04-30T12:44:47.645Z</time></trkpt><trkpt lat="43.8775037" lon="12.1311195"><ele>783.75</ele><time>2026-04-30T12:44:48.65Z</time></trkpt><trkpt lat="43.8773981" lon="12.1310171"><ele>782.0</ele><time>2026-04-30T12:44:49.649Z</time></trkpt><trkpt lat="43.8772894" lon="12.130925"><ele>782.0</ele><time>2026-04-30T12:44:50.653Z</time></trkpt><trkpt lat="43.8771802" lon="12.1308405"><ele>782.0</ele><time>2026-04-30T12:44:51.647Z</time></trkpt><trkpt lat="43.8770677" lon="12.130762"><ele>782.0</ele><time>2026-04-30T12:44:52.649Z</time></trkpt><trkpt lat="43.8769574" lon="12.1306805"><ele>782.0</ele><time>2026-04-30T12:44:53.65Z</time></trkpt><trkpt lat="43.8768471" lon="12.1305925"><ele>782.25</ele><time>2026-04-30T12:44:54.646Z</time></trkpt><trkpt lat="43.8767353" lon="12.1305068"><ele>782.5</ele><time>2026-04-30T12:44:55.643Z</time></trkpt><trkpt lat="43.8766176" lon="12.1304344"><ele>782.75</ele><time>2026-04-30T12:44:56.652Z</time></trkpt><trkpt lat="43.8764963" lon="12.1303714"><ele>783.0</ele><time>2026-04-30T12:44:57.65Z</time></trkpt><trkpt lat="43.87637" lon="12.1303217"><ele>783.0</ele><time>2026-04-30T12:44:58.65Z</time></trkpt><trkpt lat="43.8762428" lon="12.1302738"><ele>783.0</ele><time>2026-04-30T12:44:59.651Z</time></trkpt><trkpt lat="43.8761162" lon="12.1302293"><ele>783.0</ele><time>2026-04-30T12:45:00.641Z</time></trkpt><trkpt lat="43.8759902" lon="12.1301918"><ele>783.0</ele><time>2026-04-30T12:45:01.647Z</time></trkpt><trkpt lat="43.8758707" lon="12.1301574"><ele>786.25</ele><time>2026-04-30T12:45:02.641Z</time></trkpt><trkpt lat="43.8757563" lon="12.1301265"><ele>789.5</ele><time>2026-04-30T12:45:03.655Z</time></trkpt><trkpt lat="43.875641" lon="12.1301124"><ele>792.75</ele><time>2026-04-30T12:45:04.655Z</time></trkpt><trkpt lat="43.8755173" lon="12.130115"><ele>796.0</ele><time>2026-04-30T12:45:05.65Z</time></trkpt><trkpt lat="43.8753887" lon="12.1301156"><ele>796.0</ele><time>2026-04-30T12:45:06.643Z</time></trkpt><trkpt lat="43.8752591" lon="12.1301104"><ele>796.0</ele><time>2026-04-30T12:45:07.646Z</time></trkpt><trkpt lat="43.8751271" lon="12.1300995"><ele>796.0</ele><time>2026-04-30T12:45:08.649Z</time></trkpt><trkpt lat="43.8749946" lon="12.13008"><ele>796.0</ele><time>2026-04-30T12:45:09.655Z</time></trkpt><trkpt lat="43.8748647" lon="12.1300504"><ele>795.25</ele><time>2026-04-30T12:45:10.647Z</time></trkpt><trkpt lat="43.8747318" lon="12.130022"><ele>794.5</ele><time>2026-04-30T12:45:11.653Z</time></trkpt><trkpt lat="43.8745999" lon="12.1299885"><ele>793.75</ele><time>2026-04-30T12:45:12.65Z</time></trkpt><trkpt lat="43.8744682" lon="12.1299401"><ele>793.0</ele><time>2026-04-30T12:45:13.649Z</time></trkpt><trkpt lat="43.8743392" lon="12.1298694"><ele>793.5</ele><time>2026-04-30T12:45:14.65Z</time></trkpt><trkpt lat="43.8742092" lon="12.1297949"><ele>794.0</ele><time>2026-04-30T12:45:15.659Z</time></trkpt><trkpt lat="43.874077" lon="12.129734"><ele>794.5</ele><time>2026-04-30T12:45:16.645Z</time></trkpt><trkpt lat="43.8739401" lon="12.1296962"><ele>795.0</ele><time>2026-04-30T12:45:17.653Z</time></trkpt><trkpt lat="43.8737981" lon="12.1296773"><ele>795.0</ele><time>2026-04-30T12:45:18.651Z</time></trkpt><trkpt lat="43.8736558" lon="12.1296647"><ele>795.0</ele><time>2026-04-30T12:45:19.644Z</time></trkpt><trkpt lat="43.8735148" lon="12.1296495"><ele>795.0</ele><time>2026-04-30T12:45:20.65Z</time></trkpt><trkpt lat="43.8733733" lon="12.1296316"><ele>795.0</ele><time>2026-04-30T12:45:21.66Z</time></trkpt><trkpt lat="43.8732323" lon="12.1296129"><ele>793.0</ele><time>2026-04-30T12:45:22.648Z</time></trkpt><trkpt lat="43.8730841" lon="12.1295906"><ele>791.0</ele><time>2026-04-30T12:45:23.657Z</time></trkpt><trkpt lat="43.8729347" lon="12.1295593"><ele>789.0</ele><time>2026-04-30T12:45:24.647Z</time></trkpt><trkpt lat="43.872784" lon="12.1295174"><ele>789.0</ele><time>2026-04-30T12:45:25.654Z</time></trkpt><trkpt lat="43.8726379" lon="12.129469"><ele>789.0</ele><time>2026-04-30T12:45:26.653Z</time></trkpt><trkpt lat="43.8724933" lon="12.1294154"><ele>789.0</ele><time>2026-04-30T12:45:27.645Z</time></trkpt><trkpt lat="43.8723527" lon="12.1293649"><ele>789.0</ele><time>2026-04-30T12:45:28.646Z</time></trkpt><trkpt lat="43.8722168" lon="12.1293197"><ele>790.0</ele><time>2026-04-30T12:45:29.653Z</time></trkpt><trkpt lat="43.8720944" lon="12.1292814"><ele>791.0</ele><time>2026-04-30T12:45:30.647Z</time></trkpt><trkpt lat="43.8719773" lon="12.1292603"><ele>792.0</ele><time>2026-04-30T12:45:31.642Z</time></trkpt><trkpt lat="43.8718625" lon="12.1292765"><ele>793.0</ele><time>2026-04-30T12:45:32.654Z</time></trkpt><trkpt lat="43.871754" lon="12.1293327"><ele>795.25</ele><time>2026-04-30T12:45:33.654Z</time></trkpt><trkpt lat="43.8716523" lon="12.1294178"><ele>797.5</ele><time>2026-04-30T12:45:34.647Z</time></trkpt><trkpt lat="43.8715487" lon="12.1295045"><ele>799.75</ele><time>2026-04-30T12:45:35.648Z</time></trkpt><trkpt lat="43.8714358" lon="12.1295606"><ele>802.0</ele><time>2026-04-30T12:45:36.645Z</time></trkpt><trkpt lat="43.8713123" lon="12.1295783"><ele>802.0</ele><time>2026-04-30T12:45:37.652Z</time></trkpt><trkpt lat="43.871182" lon="12.1295681"><ele>802.0</ele><time>2026-04-30T12:45:38.644Z</time></trkpt><trkpt lat="43.8710533" lon="12.1295433"><ele>802.0</ele><time>2026-04-30T12:45:39.654Z</time></trkpt><trkpt lat="43.8709267" lon="12.1295383"><ele>802.0</ele><time>2026-04-30T12:45:40.638Z</time></trkpt><trkpt lat="43.8708067" lon="12.129545"><ele>802.2</ele><time>2026-04-30T12:45:41.646Z</time></trkpt><trkpt lat="43.87069" lon="12.12958"><ele>802.4000000000001</ele><time>2026-04-30T12:45:42.648Z</time></trkpt><trkpt lat="43.8705833" lon="12.129625"><ele>802.5999999999999</ele><time>2026-04-30T12:45:43.648Z</time></trkpt><trkpt lat="43.8704867" lon="12.12964"><ele>802.8</ele><time>2026-04-30T12:45:44.651Z</time></trkpt><trkpt lat="43.8703933" lon="12.1296133"><ele>803.0</ele><time>2026-04-30T12:45:45.646Z</time></trkpt><trkpt lat="43.8703033" lon="12.1295333"><ele>803.0</ele><time>2026-04-30T12:45:46.649Z</time></trkpt><trkpt lat="43.8702283" lon="12.129405"><ele>803.0</ele><time>2026-04-30T12:45:47.644Z</time></trkpt><trkpt lat="43.8701567" lon="12.1292717"><ele>803.0</ele><time>2026-04-30T12:45:48.644Z</time></trkpt><trkpt lat="43.8701067" lon="12.1291317"><ele>803.0</ele><time>2026-04-30T12:45:49.646Z</time></trkpt><trkpt lat="43.870075" lon="12.1289917"><ele>804.75</ele><time>2026-04-30T12:45:50.654Z</time></trkpt><trkpt lat="43.8700667" lon="12.1288417"><ele>806.5</ele><time>2026-04-30T12:45:51.643Z</time></trkpt><trkpt lat="43.870085" lon="12.128685"><ele>808.25</ele><time>2026-04-30T12:45:52.643Z</time></trkpt><trkpt lat="43.87011" lon="12.128525"><ele>810.0</ele><time>2026-04-30T12:45:53.65Z</time></trkpt><trkpt lat="43.8701433" lon="12.1283633"><ele>809.5</ele><time>2026-04-30T12:45:54.648Z</time></trkpt><trkpt lat="43.87017" lon="12.1282033"><ele>809.0</ele><time>2026-04-30T12:45:55.646Z</time></trkpt><trkpt lat="43.8701867" lon="12.1280483"><ele>808.5</ele><time>2026-04-30T12:45:56.641Z</time></trkpt><trkpt lat="43.87018" lon="12.1278883"><ele>808.0</ele><time>2026-04-30T12:45:57.647Z</time></trkpt><trkpt lat="43.8701483" lon="12.1277233"><ele>803.5</ele><time>2026-04-30T12:45:58.647Z</time></trkpt><trkpt lat="43.8700983" lon="12.1275583"><ele>799.0</ele><time>2026-04-30T12:45:59.647Z</time></trkpt><trkpt lat="43.870045" lon="12.1274"><ele>794.5</ele><time>2026-04-30T12:46:00.642Z</time></trkpt><trkpt lat="43.8699867" lon="12.1272533"><ele>790.0</ele><time>2026-04-30T12:46:01.653Z</time></trkpt><trkpt lat="43.8699083" lon="12.12713"><ele>790.0</ele><time>2026-04-30T12:46:02.647Z</time></trkpt><trkpt lat="43.869805" lon="12.127035"><ele>790.0</ele><time>2026-04-30T12:46:03.646Z</time></trkpt><trkpt lat="43.8696833" lon="12.1269667"><ele>790.0</ele><time>2026-04-30T12:46:04.644Z</time></trkpt><trkpt lat="43.8695533" lon="12.1269"><ele>790.0</ele><time>2026-04-30T12:46:05.65Z</time></trkpt><trkpt lat="43.869425" lon="12.1268167"><ele>790.0</ele><time>2026-04-30T12:46:06.65Z</time></trkpt><trkpt lat="43.86931" lon="12.1267017"><ele>790.0</ele><time>2026-04-30T12:46:07.656Z</time></trkpt><trkpt lat="43.8692167" lon="12.126565"><ele>790.0</ele><time>2026-04-30T12:46:08.647Z</time></trkpt><trkpt lat="43.8691317" lon="12.126425"><ele>790.0</ele><time>2026-04-30T12:46:09.64Z</time></trkpt><trkpt lat="43.8690467" lon="12.1262983"><ele>786.6</ele><time>2026-04-30T12:46:10.647Z</time></trkpt><trkpt lat="43.86896" lon="12.1262"><ele>783.2</ele><time>2026-04-30T12:46:11.644Z</time></trkpt><trkpt lat="43.868875" lon="12.1261233"><ele>779.8</ele><time>2026-04-30T12:46:12.644Z</time></trkpt><trkpt lat="43.8688017" lon="12.126065"><ele>776.4</ele><time>2026-04-30T12:46:13.642Z</time></trkpt><trkpt lat="43.8686983" lon="12.1260217"><ele>773.0</ele><time>2026-04-30T12:46:15.66Z</time></trkpt><trkpt lat="43.8687133" lon="12.1261517"><ele>773.0000000000001</ele><time>2026-04-30T12:46:18.644Z</time></trkpt><trkpt lat="43.8687633" lon="12.12622"><ele>773.0</ele><time>2026-04-30T12:46:19.65Z</time></trkpt><trkpt lat="43.8688183" lon="12.1263033"><ele>773.0</ele><time>2026-04-30T12:46:20.647Z</time></trkpt><trkpt lat="43.86887" lon="12.1263967"><ele>773.0</ele><time>2026-04-30T12:46:21.644Z</time></trkpt><trkpt lat="43.8689033" lon="12.126495"><ele>773.0000000000001</ele><time>2026-04-30T12:46:22.648Z</time></trkpt><trkpt lat="43.86892" lon="12.1265933"><ele>773.0</ele><time>2026-04-30T12:46:23.648Z</time></trkpt><trkpt lat="43.86892" lon="12.1266883"><ele>771.0000000000001</ele><time>2026-04-30T12:46:24.648Z</time></trkpt><trkpt lat="43.86892" lon="12.1267783"><ele>769.0</ele><time>2026-04-30T12:46:25.644Z</time></trkpt><trkpt lat="43.8689617" lon="12.12693"><ele>767.0</ele><time>2026-04-30T12:46:27.653Z</time></trkpt><trkpt lat="43.8690083" lon="12.1269967"><ele>765.0</ele><time>2026-04-30T12:46:28.645Z</time></trkpt><trkpt lat="43.8690733" lon="12.1270667"><ele>763.0</ele><time>2026-04-30T12:46:29.649Z</time></trkpt><trkpt lat="43.8691483" lon="12.1271467"><ele>761.0</ele><time>2026-04-30T12:46:30.647Z</time></trkpt><trkpt lat="43.8692233" lon="12.12724"><ele>763.8333333333333</ele><time>2026-04-30T12:46:31.647Z</time></trkpt><trkpt lat="43.869285" lon="12.12734"><ele>766.6666666666666</ele><time>2026-04-30T12:46:32.644Z</time></trkpt><trkpt lat="43.8693333" lon="12.1274383"><ele>769.5</ele><time>2026-04-30T12:46:33.661Z</time></trkpt><trkpt lat="43.86938" lon="12.1275267"><ele>772.3333333333333</ele><time>2026-04-30T12:46:34.661Z</time></trkpt><trkpt lat="43.8694183" lon="12.1276133"><ele>775.1666666666666</ele><time>2026-04-30T12:46:35.648Z</time></trkpt><trkpt lat="43.8694367" lon="12.1277"><ele>778.0</ele><time>2026-04-30T12:46:36.646Z</time></trkpt><trkpt lat="43.8694317" lon="12.1277933"><ele>777.9999999999999</ele><time>2026-04-30T12:46:37.646Z</time></trkpt><trkpt lat="43.86941" lon="12.1278783"><ele>778.0</ele><time>2026-04-30T12:46:38.659Z</time></trkpt><trkpt lat="43.8693117" lon="12.128"><ele>778.0</ele><time>2026-04-30T12:46:40.649Z</time></trkpt><trkpt lat="43.8692383" lon="12.1280433"><ele>778.0</ele><time>2026-04-30T12:46:41.647Z</time></trkpt><trkpt lat="43.8691633" lon="12.1280867"><ele>777.9999999999999</ele><time>2026-04-30T12:46:42.646Z</time></trkpt><trkpt lat="43.8690883" lon="12.128135"><ele>778.0</ele><time>2026-04-30T12:46:43.646Z</time></trkpt><trkpt lat="43.8690133" lon="12.1281917"><ele>772.3333333333333</ele><time>2026-04-30T12:46:44.65Z</time></trkpt><trkpt lat="43.8689483" lon="12.1282517"><ele>766.6666666666666</ele><time>2026-04-30T12:46:45.65Z</time></trkpt><trkpt lat="43.8688933" lon="12.1283217"><ele>761.0</ele><time>2026-04-30T12:46:46.656Z</time></trkpt><trkpt lat="43.8688467" lon="12.1284117"><ele>755.3333333333333</ele><time>2026-04-30T12:46:47.646Z</time></trkpt><trkpt lat="43.8688183" lon="12.12851"><ele>749.6666666666666</ele><time>2026-04-30T12:46:48.648Z</time></trkpt><trkpt lat="43.8688033" lon="12.1286133"><ele>744.0</ele><time>2026-04-30T12:46:49.65Z</time></trkpt><trkpt lat="43.868805" lon="12.12872"><ele>744.0</ele><time>2026-04-30T12:46:50.649Z</time></trkpt><trkpt lat="43.8688233" lon="12.12882"><ele>744.0</ele><time>2026-04-30T12:46:51.657Z</time></trkpt><trkpt lat="43.86884" lon="12.1289117"><ele>744.0</ele><time>2026-04-30T12:46:52.65Z</time></trkpt><trkpt lat="43.868845" lon="12.1290717"><ele>744.0</ele><time>2026-04-30T12:46:54.645Z</time></trkpt><trkpt lat="43.8687817" lon="12.1291917"><ele>744.0</ele><time>2026-04-30T12:46:56.645Z</time></trkpt><trkpt lat="43.8687233" lon="12.1292333"><ele>744.0</ele><time>2026-04-30T12:46:57.657Z</time></trkpt><trkpt lat="43.8686567" lon="12.1292767"><ele>745.0</ele><time>2026-04-30T12:46:58.65Z</time></trkpt><trkpt lat="43.86857" lon="12.1293067"><ele>746.0</ele><time>2026-04-30T12:46:59.647Z</time></trkpt><trkpt lat="43.8684683" lon="12.12935"><ele>747.0</ele><time>2026-04-30T12:47:00.646Z</time></trkpt><trkpt lat="43.86837" lon="12.1294017"><ele>748.0</ele><time>2026-04-30T12:47:01.65Z</time></trkpt><trkpt lat="43.868275" lon="12.129455"><ele>749.0</ele><time>2026-04-30T12:47:02.648Z</time></trkpt><trkpt lat="43.8681933" lon="12.1295117"><ele>746.0</ele><time>2026-04-30T12:47:03.652Z</time></trkpt><trkpt lat="43.8681167" lon="12.12957"><ele>743.0</ele><time>2026-04-30T12:47:04.648Z</time></trkpt><trkpt lat="43.8680483" lon="12.12963"><ele>740.0</ele><time>2026-04-30T12:47:05.649Z</time></trkpt><trkpt lat="43.8679933" lon="12.1296983"><ele>737.0</ele><time>2026-04-30T12:47:06.646Z</time></trkpt><trkpt lat="43.8679483" lon="12.12978"><ele>734.0</ele><time>2026-04-30T12:47:07.656Z</time></trkpt><trkpt lat="43.8679117" lon="12.1298717"><ele>731.0</ele><time>2026-04-30T12:47:08.648Z</time></trkpt><trkpt lat="43.8678933" lon="12.1299833"><ele>731.0</ele><time>2026-04-30T12:47:09.639Z</time></trkpt><trkpt lat="43.8678967" lon="12.13011"><ele>731.0</ele><time>2026-04-30T12:47:10.665Z</time></trkpt><trkpt lat="43.867915" lon="12.13023"><ele>731.0</ele><time>2026-04-30T12:47:11.651Z</time></trkpt><trkpt lat="43.8679367" lon="12.1303383"><ele>731.0</ele><time>2026-04-30T12:47:12.648Z</time></trkpt><trkpt lat="43.8679483" lon="12.1304333"><ele>731.0</ele><time>2026-04-30T12:47:13.645Z</time></trkpt><trkpt lat="43.867925" lon="12.13057"><ele>731.0</ele><time>2026-04-30T12:47:15.657Z</time></trkpt><trkpt lat="43.8678117" lon="12.1306517"><ele>731.0</ele><time>2026-04-30T12:47:17.644Z</time></trkpt><trkpt lat="43.8677167" lon="12.1306683"><ele>731.0</ele><time>2026-04-30T12:47:18.647Z</time></trkpt><trkpt lat="43.8676183" lon="12.1306917"><ele>731.0</ele><time>2026-04-30T12:47:19.655Z</time></trkpt><trkpt lat="43.8675233" lon="12.1307233"><ele>731.0</ele><time>2026-04-30T12:47:20.655Z</time></trkpt><trkpt lat="43.867435" lon="12.1307683"><ele>731.0</ele><time>2026-04-30T12:47:21.646Z</time></trkpt><trkpt lat="43.8673533" lon="12.1308183"><ele>727.5999999999999</ele><time>2026-04-30T12:47:22.64Z</time></trkpt><trkpt lat="43.8672717" lon="12.1308867"><ele>724.2</ele><time>2026-04-30T12:47:23.644Z</time></trkpt><trkpt lat="43.867195" lon="12.130955"><ele>720.8</ele><time>2026-04-30T12:47:24.647Z</time></trkpt><trkpt lat="43.86713" lon="12.1310283"><ele>717.4000000000001</ele><time>2026-04-30T12:47:25.647Z</time></trkpt><trkpt lat="43.86707" lon="12.1311167"><ele>714.0</ele><time>2026-04-30T12:47:26.64Z</time></trkpt><trkpt lat="43.8670167" lon="12.1312217"><ele>714.0</ele><time>2026-04-30T12:47:27.649Z</time></trkpt><trkpt lat="43.86697" lon="12.1313233"><ele>714.0</ele><time>2026-04-30T12:47:28.646Z</time></trkpt><trkpt lat="43.8669367" lon="12.1314167"><ele>714.0</ele><time>2026-04-30T12:47:29.659Z</time></trkpt><trkpt lat="43.8669067" lon="12.13151"><ele>714.0</ele><time>2026-04-30T12:47:30.657Z</time></trkpt><trkpt lat="43.8669033" lon="12.1316117"><ele>714.0</ele><time>2026-04-30T12:47:31.649Z</time></trkpt><trkpt lat="43.86692" lon="12.131715"><ele>714.0</ele><time>2026-04-30T12:47:32.65Z</time></trkpt><trkpt lat="43.866955" lon="12.1318317"><ele>714.3333333333334</ele><time>2026-04-30T12:47:33.661Z</time></trkpt><trkpt lat="43.8669967" lon="12.1319483"><ele>714.6666666666666</ele><time>2026-04-30T12:47:34.648Z</time></trkpt><trkpt lat="43.8670367" lon="12.1320633"><ele>715.0</ele><time>2026-04-30T12:47:35.64Z</time></trkpt><trkpt lat="43.8670667" lon="12.1321767"><ele>715.3333333333333</ele><time>2026-04-30T12:47:36.653Z</time></trkpt><trkpt lat="43.8670717" lon="12.132285"><ele>715.6666666666666</ele><time>2026-04-30T12:47:37.65Z</time></trkpt><trkpt lat="43.8670483" lon="12.1323883"><ele>716.0</ele><time>2026-04-30T12:47:38.66Z</time></trkpt><trkpt lat="43.8670033" lon="12.132485"><ele>716.0</ele><time>2026-04-30T12:47:39.649Z</time></trkpt><trkpt lat="43.866965" lon="12.132585"><ele>716.0</ele><time>2026-04-30T12:47:40.641Z</time></trkpt><trkpt lat="43.8669317" lon="12.132695"><ele>716.0</ele><time>2026-04-30T12:47:41.651Z</time></trkpt><trkpt lat="43.8669167" lon="12.13282"><ele>716.0</ele><time>2026-04-30T12:47:42.661Z</time></trkpt><trkpt lat="43.8669283" lon="12.132945"><ele>716.0</ele><time>2026-04-30T12:47:43.65Z</time></trkpt><trkpt lat="43.8669433" lon="12.1330517"><ele>716.0</ele><time>2026-04-30T12:47:44.648Z</time></trkpt><trkpt lat="43.8669483" lon="12.1331517"><ele>712.5</ele><time>2026-04-30T12:47:45.654Z</time></trkpt><trkpt lat="43.8669433" lon="12.133245"><ele>709.0</ele><time>2026-04-30T12:47:46.657Z</time></trkpt><trkpt lat="43.8669183" lon="12.1333317"><ele>705.5</ele><time>2026-04-30T12:47:47.652Z</time></trkpt><trkpt lat="43.8668667" lon="12.1334033"><ele>702.0</ele><time>2026-04-30T12:47:48.655Z</time></trkpt><trkpt lat="43.86681" lon="12.13346"><ele>698.5</ele><time>2026-04-30T12:47:49.65Z</time></trkpt><trkpt lat="43.8667233" lon="12.1335483"><ele>695.0</ele><time>2026-04-30T12:47:51.665Z</time></trkpt><trkpt lat="43.866645" lon="12.1335383"><ele>693.5</ele><time>2026-04-30T12:47:53.654Z</time></trkpt><trkpt lat="43.8666167" lon="12.1334533"><ele>692.0</ele><time>2026-04-30T12:47:55.662Z</time></trkpt><trkpt lat="43.8666467" lon="12.133355"><ele>690.5</ele><time>2026-04-30T12:55:53.649Z</time></trkpt><trkpt lat="43.8667083" lon="12.133285"><ele>689.0</ele><time>2026-04-30T12:55:55.651Z</time></trkpt><trkpt lat="43.8667733" lon="12.13319"><ele>687.5</ele><time>2026-04-30T12:55:57.65Z</time></trkpt><trkpt lat="43.8668033" lon="12.1330517"><ele>686.0</ele><time>2026-04-30T12:55:59.654Z</time></trkpt><trkpt lat="43.8668046" lon="12.1329355"><ele>685.5999999999999</ele><time>2026-04-30T12:56:01.711Z</time></trkpt><trkpt lat="43.8667851" lon="12.1328234"><ele>685.2</ele><time>2026-04-30T12:56:02.65Z</time></trkpt><trkpt lat="43.866753" lon="12.1326839"><ele>684.8</ele><time>2026-04-30T12:56:03.661Z</time></trkpt><trkpt lat="43.866727" lon="12.1325403"><ele>684.4000000000001</ele><time>2026-04-30T12:56:04.644Z</time></trkpt><trkpt lat="43.8667149" lon="12.1324088"><ele>684.0</ele><time>2026-04-30T12:56:05.65Z</time></trkpt><trkpt lat="43.8667085" lon="12.1322852"><ele>685.3333333333334</ele><time>2026-04-30T12:56:06.644Z</time></trkpt><trkpt lat="43.8666915" lon="12.1321622"><ele>686.6666666666666</ele><time>2026-04-30T12:56:07.651Z</time></trkpt><trkpt lat="43.8666575" lon="12.132057"><ele>688.0</ele><time>2026-04-30T12:56:08.649Z</time></trkpt><trkpt lat="43.8666102" lon="12.1319683"><ele>689.3333333333333</ele><time>2026-04-30T12:56:09.649Z</time></trkpt><trkpt lat="43.8665508" lon="12.1318884"><ele>690.6666666666666</ele><time>2026-04-30T12:56:10.645Z</time></trkpt><trkpt lat="43.8664868" lon="12.1318039"><ele>692.0</ele><time>2026-04-30T12:56:11.658Z</time></trkpt><trkpt lat="43.8664213" lon="12.1317006"><ele>692.0</ele><time>2026-04-30T12:56:12.65Z</time></trkpt><trkpt lat="43.86636" lon="12.13159"><ele>692.0</ele><time>2026-04-30T12:56:13.648Z</time></trkpt><trkpt lat="43.8663083" lon="12.131485"><ele>692.0</ele><time>2026-04-30T12:56:14.652Z</time></trkpt><trkpt lat="43.8662667" lon="12.1313767"><ele>692.0</ele><time>2026-04-30T12:56:15.646Z</time></trkpt><trkpt lat="43.8662433" lon="12.1312417"><ele>692.0</ele><time>2026-04-30T12:56:16.646Z</time></trkpt><trkpt lat="43.86624" lon="12.1311"><ele>691.0</ele><time>2026-04-30T12:56:17.647Z</time></trkpt><trkpt lat="43.8662517" lon="12.1309617"><ele>690.0</ele><time>2026-04-30T12:56:18.649Z</time></trkpt><trkpt lat="43.8662733" lon="12.130815"><ele>689.0</ele><time>2026-04-30T12:56:19.657Z</time></trkpt><trkpt lat="43.8663067" lon="12.1306817"><ele>688.0</ele><time>2026-04-30T12:56:20.644Z</time></trkpt><trkpt lat="43.866335" lon="12.1305683"><ele>687.0</ele><time>2026-04-30T12:56:21.654Z</time></trkpt><trkpt lat="43.8663633" lon="12.1304733"><ele>685.0</ele><time>2026-04-30T12:56:22.651Z</time></trkpt><trkpt lat="43.8663917" lon="12.13039"><ele>683.0</ele><time>2026-04-30T12:56:23.649Z</time></trkpt><trkpt lat="43.8664283" lon="12.1302533"><ele>681.0</ele><time>2026-04-30T12:56:25.653Z</time></trkpt><trkpt lat="43.8663783" lon="12.1301683"><ele>679.0</ele><time>2026-04-30T12:56:27.65Z</time></trkpt><trkpt lat="43.8662767" lon="12.1302517"><ele>677.0</ele><time>2026-04-30T12:56:29.65Z</time></trkpt><trkpt lat="43.8662183" lon="12.130365"><ele>677.0</ele><time>2026-04-30T12:56:30.646Z</time></trkpt><trkpt lat="43.8661617" lon="12.1304767"><ele>677.0</ele><time>2026-04-30T12:56:31.647Z</time></trkpt><trkpt lat="43.8661017" lon="12.13059"><ele>677.0</ele><time>2026-04-30T12:56:32.65Z</time></trkpt><trkpt lat="43.86604" lon="12.13069"><ele>677.0</ele><time>2026-04-30T12:56:33.649Z</time></trkpt><trkpt lat="43.8659717" lon="12.1307933"><ele>677.0</ele><time>2026-04-30T12:56:34.657Z</time></trkpt><trkpt lat="43.8658983" lon="12.1308933"><ele>673.8333333333333</ele><time>2026-04-30T12:56:35.646Z</time></trkpt><trkpt lat="43.8658283" lon="12.13099"><ele>670.6666666666666</ele><time>2026-04-30T12:56:36.649Z</time></trkpt><trkpt lat="43.86576" lon="12.1310767"><ele>667.5</ele><time>2026-04-30T12:56:37.652Z</time></trkpt><trkpt lat="43.8656983" lon="12.13116"><ele>664.3333333333334</ele><time>2026-04-30T12:56:38.643Z</time></trkpt><trkpt lat="43.8656433" lon="12.1312367"><ele>661.1666666666667</ele><time>2026-04-30T12:56:39.654Z</time></trkpt><trkpt lat="43.8655933" lon="12.1313017"><ele>658.0</ele><time>2026-04-30T12:56:40.653Z</time></trkpt><trkpt lat="43.8655083" lon="12.1314033"><ele>658.0</ele><time>2026-04-30T12:56:42.653Z</time></trkpt><trkpt lat="43.86542" lon="12.1314517"><ele>658.0</ele><time>2026-04-30T12:56:44.643Z</time></trkpt><trkpt lat="43.865355" lon="12.1315"><ele>658.0</ele><time>2026-04-30T12:56:46.657Z</time></trkpt><trkpt lat="43.8652867" lon="12.1316383"><ele>658.0</ele><time>2026-04-30T12:56:48.651Z</time></trkpt><trkpt lat="43.8652483" lon="12.1317383"><ele>658.0</ele><time>2026-04-30T12:56:49.649Z</time></trkpt><trkpt lat="43.865205" lon="12.1318433"><ele>658.1666666666667</ele><time>2026-04-30T12:56:50.659Z</time></trkpt><trkpt lat="43.8651667" lon="12.1319517"><ele>658.3333333333334</ele><time>2026-04-30T12:56:51.654Z</time></trkpt><trkpt lat="43.865125" lon="12.132045"><ele>658.5</ele><time>2026-04-30T12:56:52.647Z</time></trkpt><trkpt lat="43.8650767" lon="12.1321333"><ele>658.6666666666666</ele><time>2026-04-30T12:56:53.651Z</time></trkpt><trkpt lat="43.86502" lon="12.13221"><ele>658.8333333333333</ele><time>2026-04-30T12:56:54.651Z</time></trkpt><trkpt lat="43.8649483" lon="12.1322633"><ele>659.0</ele><time>2026-04-30T12:56:55.647Z</time></trkpt><trkpt lat="43.8648683" lon="12.1322967"><ele>657.2857142857143</ele><time>2026-04-30T12:56:56.647Z</time></trkpt><trkpt lat="43.864795" lon="12.1323133"><ele>655.5714285714286</ele><time>2026-04-30T12:56:57.651Z</time></trkpt><trkpt lat="43.8647283" lon="12.1323233"><ele>653.8571428571429</ele><time>2026-04-30T12:56:58.64Z</time></trkpt><trkpt lat="43.8646633" lon="12.132335"><ele>652.1428571428571</ele><time>2026-04-30T12:56:59.653Z</time></trkpt><trkpt lat="43.8646" lon="12.1323567"><ele>650.4285714285714</ele><time>2026-04-30T12:57:00.651Z</time></trkpt><trkpt lat="43.8645333" lon="12.13239"><ele>648.7142857142857</ele><time>2026-04-30T12:57:01.648Z</time></trkpt><trkpt lat="43.8644717" lon="12.1324333"><ele>647.0</ele><time>2026-04-30T12:57:02.651Z</time></trkpt><trkpt lat="43.8644167" lon="12.1324817"><ele>647.0</ele><time>2026-04-30T12:57:03.658Z</time></trkpt><trkpt lat="43.864325" lon="12.1325717"><ele>647.0</ele><time>2026-04-30T12:57:05.652Z</time></trkpt><trkpt lat="43.8642633" lon="12.1326517"><ele>647.0</ele><time>2026-04-30T12:57:07.66Z</time></trkpt><trkpt lat="43.8642233" lon="12.1327317"><ele>647.0</ele><time>2026-04-30T12:57:09.652Z</time></trkpt><trkpt lat="43.8641583" lon="12.13283"><ele>647.0</ele><time>2026-04-30T12:57:12.654Z</time></trkpt><trkpt lat="43.8640817" lon="12.1328433"><ele>647.0</ele><time>2026-04-30T12:57:14.65Z</time></trkpt><trkpt lat="43.864005" lon="12.13278"><ele>645.1428571428571</ele><time>2026-04-30T12:57:16.645Z</time></trkpt><trkpt lat="43.8639617" lon="12.1326733"><ele>643.2857142857143</ele><time>2026-04-30T12:57:18.65Z</time></trkpt><trkpt lat="43.8639617" lon="12.1325733"><ele>641.4285714285714</ele><time>2026-04-30T12:57:20.648Z</time></trkpt><trkpt lat="43.8639783" lon="12.13247"><ele>639.5714285714286</ele><time>2026-04-30T12:57:22.649Z</time></trkpt><trkpt lat="43.86399" lon="12.1323717"><ele>637.7142857142857</ele><time>2026-04-30T12:57:24.645Z</time></trkpt><trkpt lat="43.8639483" lon="12.1322983"><ele>635.8571428571429</ele><time>2026-04-30T12:57:26.645Z</time></trkpt><trkpt lat="43.8638817" lon="12.1323"><ele>634.0</ele><time>2026-04-30T12:57:28.652Z</time></trkpt><trkpt lat="43.86381" lon="12.1323867"><ele>634.0</ele><time>2026-04-30T12:57:30.643Z</time></trkpt><trkpt lat="43.8637283" lon="12.1325117"><ele>634.0</ele><time>2026-04-30T12:57:32.649Z</time></trkpt><trkpt lat="43.8636667" lon="12.1326617"><ele>634.0</ele><time>2026-04-30T12:57:34.642Z</time></trkpt><trkpt lat="43.8636483" lon="12.1327467"><ele>634.0</ele><time>2026-04-30T12:57:35.651Z</time></trkpt><trkpt lat="43.863635" lon="12.1329133"><ele>634.0</ele><time>2026-04-30T12:57:37.645Z</time></trkpt><trkpt lat="43.8636167" lon="12.1330483"><ele>634.0</ele><time>2026-04-30T12:57:39.652Z</time></trkpt><trkpt lat="43.863585" lon="12.1331783"><ele>634.0</ele><time>2026-04-30T12:57:41.646Z</time></trkpt><trkpt lat="43.8635333" lon="12.133345"><ele>634.0</ele><time>2026-04-30T12:57:43.65Z</time></trkpt><trkpt lat="43.8634917" lon="12.1334467"><ele>634.0</ele><time>2026-04-30T12:57:44.644Z</time></trkpt><trkpt lat="43.8634467" lon="12.1335617"><ele>634.0</ele><time>2026-04-30T12:57:45.646Z</time></trkpt><trkpt lat="43.8634" lon="12.1336733"><ele>630.0</ele><time>2026-04-30T12:57:46.644Z</time></trkpt><trkpt lat="43.8633517" lon="12.13378"><ele>626.0</ele><time>2026-04-30T12:57:47.643Z</time></trkpt><trkpt lat="43.8633067" lon="12.1338867"><ele>622.0</ele><time>2026-04-30T12:57:48.649Z</time></trkpt><trkpt lat="43.8632633" lon="12.133985"><ele>618.0</ele><time>2026-04-30T12:57:49.648Z</time></trkpt><trkpt lat="43.8632217" lon="12.134075"><ele>614.0</ele><time>2026-04-30T12:57:50.644Z</time></trkpt><trkpt lat="43.8631783" lon="12.1341667"><ele>610.0</ele><time>2026-04-30T12:57:51.663Z</time></trkpt><trkpt lat="43.8631367" lon="12.1342583"><ele>610.0</ele><time>2026-04-30T12:57:52.642Z</time></trkpt><trkpt lat="43.8630983" lon="12.1343583"><ele>610.0</ele><time>2026-04-30T12:57:53.643Z</time></trkpt><trkpt lat="43.8630583" lon="12.13447"><ele>610.0</ele><time>2026-04-30T12:57:54.644Z</time></trkpt><trkpt lat="43.8630233" lon="12.134585"><ele>610.0</ele><time>2026-04-30T12:57:55.646Z</time></trkpt><trkpt lat="43.863" lon="12.1346933"><ele>610.0</ele><time>2026-04-30T12:57:56.654Z</time></trkpt><trkpt lat="43.8629867" lon="12.134785"><ele>610.0</ele><time>2026-04-30T12:57:57.645Z</time></trkpt><trkpt lat="43.8629817" lon="12.1348733"><ele>609.5</ele><time>2026-04-30T12:57:58.648Z</time></trkpt><trkpt lat="43.8629833" lon="12.1349617"><ele>609.0</ele><time>2026-04-30T12:57:59.643Z</time></trkpt><trkpt lat="43.8630117" lon="12.1351383"><ele>608.5</ele><time>2026-04-30T12:58:01.655Z</time></trkpt><trkpt lat="43.86304" lon="12.1352333"><ele>608.0</ele><time>2026-04-30T12:58:02.646Z</time></trkpt><trkpt lat="43.8630767" lon="12.1353283"><ele>607.5</ele><time>2026-04-30T12:58:03.651Z</time></trkpt><trkpt lat="43.8631117" lon="12.135425"><ele>607.0</ele><time>2026-04-30T12:58:04.645Z</time></trkpt><trkpt lat="43.86313" lon="12.1355233"><ele>607.0</ele><time>2026-04-30T12:58:05.65Z</time></trkpt><trkpt lat="43.863135" lon="12.1356183"><ele>607.0</ele><time>2026-04-30T12:58:06.648Z</time></trkpt><trkpt lat="43.863125" lon="12.1357067"><ele>607.0</ele><time>2026-04-30T12:58:07.649Z</time></trkpt><trkpt lat="43.8630967" lon="12.13579"><ele>607.0</ele><time>2026-04-30T12:58:08.644Z</time></trkpt><trkpt lat="43.8630267" lon="12.1359167"><ele>607.0</ele><time>2026-04-30T12:58:10.648Z</time></trkpt><trkpt lat="43.862985" lon="12.1359883"><ele>607.0</ele><time>2026-04-30T12:58:11.64Z</time></trkpt><trkpt lat="43.8629317" lon="12.136075"><ele>606.6</ele><time>2026-04-30T12:58:12.643Z</time></trkpt><trkpt lat="43.8628717" lon="12.1361867"><ele>606.2</ele><time>2026-04-30T12:58:13.652Z</time></trkpt><trkpt lat="43.8628098" lon="12.1363023"><ele>605.8</ele><time>2026-04-30T12:58:14.653Z</time></trkpt><trkpt lat="43.8627472" lon="12.1364151"><ele>605.4</ele><time>2026-04-30T12:58:15.652Z</time></trkpt><trkpt lat="43.8626852" lon="12.1365193"><ele>605.0</ele><time>2026-04-30T12:58:16.65Z</time></trkpt><trkpt lat="43.8626235" lon="12.1366107"><ele>601.5</ele><time>2026-04-30T12:58:17.645Z</time></trkpt><trkpt lat="43.862559" lon="12.136689"><ele>598.0</ele><time>2026-04-30T12:58:18.642Z</time></trkpt><trkpt lat="43.8624947" lon="12.1367628"><ele>594.5</ele><time>2026-04-30T12:58:19.64Z</time></trkpt><trkpt lat="43.8624362" lon="12.1368446"><ele>591.0</ele><time>2026-04-30T12:58:20.645Z</time></trkpt><trkpt lat="43.8623855" lon="12.1369348"><ele>587.5</ele><time>2026-04-30T12:58:21.647Z</time></trkpt><trkpt lat="43.8623475" lon="12.1370267"><ele>584.0</ele><time>2026-04-30T12:58:22.641Z</time></trkpt><trkpt lat="43.8623211" lon="12.1371131"><ele>584.0</ele><time>2026-04-30T12:58:23.643Z</time></trkpt><trkpt lat="43.8623023" lon="12.1372632"><ele>584.0</ele><time>2026-04-30T12:58:25.642Z</time></trkpt><trkpt lat="43.8623343" lon="12.1373618"><ele>584.0</ele><time>2026-04-30T12:58:27.65Z</time></trkpt><trkpt lat="43.8624415" lon="12.1373754"><ele>584.0</ele><time>2026-04-30T12:58:29.642Z</time></trkpt><trkpt lat="43.862547" lon="12.1373104"><ele>584.0</ele><time>2026-04-30T12:58:31.648Z</time></trkpt><trkpt lat="43.862515" lon="12.1374083"><ele>580.8</ele><time>2026-04-30T12:58:37.664Z</time></trkpt><trkpt lat="43.8624483" lon="12.1374567"><ele>577.5999999999999</ele><time>2026-04-30T12:58:38.646Z</time></trkpt><trkpt lat="43.8623783" lon="12.13753"><ele>574.4</ele><time>2026-04-30T12:58:39.658Z</time></trkpt><trkpt lat="43.8623083" lon="12.1376317"><ele>571.1999999999999</ele><time>2026-04-30T12:58:40.651Z</time></trkpt><trkpt lat="43.8622383" lon="12.1377533"><ele>568.0</ele><time>2026-04-30T12:58:41.645Z</time></trkpt><trkpt lat="43.86217" lon="12.1378483"><ele>568.0</ele><time>2026-04-30T12:58:42.648Z</time></trkpt><trkpt lat="43.8621" lon="12.13793"><ele>568.0</ele><time>2026-04-30T12:58:43.647Z</time></trkpt><trkpt lat="43.8620267" lon="12.1379917"><ele>568.0</ele><time>2026-04-30T12:58:44.646Z</time></trkpt><trkpt lat="43.861945" lon="12.1380383"><ele>568.0</ele><time>2026-04-30T12:58:45.653Z</time></trkpt><trkpt lat="43.8618467" lon="12.1380683"><ele>568.0</ele><time>2026-04-30T12:58:46.658Z</time></trkpt><trkpt lat="43.861755" lon="12.1381033"><ele>566.3333333333334</ele><time>2026-04-30T12:58:47.645Z</time></trkpt><trkpt lat="43.86168" lon="12.138135"><ele>564.6666666666667</ele><time>2026-04-30T12:58:48.653Z</time></trkpt><trkpt lat="43.8616083" lon="12.1381667"><ele>563.0</ele><time>2026-04-30T12:58:49.652Z</time></trkpt><trkpt lat="43.8615317" lon="12.1382"><ele>561.3333333333334</ele><time>2026-04-30T12:58:50.647Z</time></trkpt><trkpt lat="43.861455" lon="12.13825"><ele>559.6666666666666</ele><time>2026-04-30T12:58:51.663Z</time></trkpt><trkpt lat="43.861375" lon="12.1383083"><ele>558.0</ele><time>2026-04-30T12:58:52.657Z</time></trkpt><trkpt lat="43.8612817" lon="12.1383833"><ele>556.8</ele><time>2026-04-30T12:58:53.648Z</time></trkpt><trkpt lat="43.86119" lon="12.1384567"><ele>555.5999999999999</ele><time>2026-04-30T12:58:54.658Z</time></trkpt><trkpt lat="43.8611033" lon="12.1385317"><ele>554.4000000000001</ele><time>2026-04-30T12:58:55.644Z</time></trkpt><trkpt lat="43.861025" lon="12.1386033"><ele>553.2</ele><time>2026-04-30T12:58:56.644Z</time></trkpt><trkpt lat="43.8609533" lon="12.1386733"><ele>552.0</ele><time>2026-04-30T12:58:57.647Z</time></trkpt><trkpt lat="43.8608883" lon="12.13876"><ele>550.1428571428571</ele><time>2026-04-30T12:58:58.649Z</time></trkpt><trkpt lat="43.860835" lon="12.1388383"><ele>548.2857142857143</ele><time>2026-04-30T12:58:59.647Z</time></trkpt><trkpt lat="43.8607967" lon="12.138925"><ele>546.4285714285714</ele><time>2026-04-30T12:59:00.656Z</time></trkpt><trkpt lat="43.86077" lon="12.1390133"><ele>544.5714285714286</ele><time>2026-04-30T12:59:01.646Z</time></trkpt><trkpt lat="43.8607633" lon="12.1391083"><ele>542.7142857142858</ele><time>2026-04-30T12:59:02.645Z</time></trkpt><trkpt lat="43.8607833" lon="12.1392067"><ele>540.8571428571429</ele><time>2026-04-30T12:59:03.649Z</time></trkpt><trkpt lat="43.86082" lon="12.1392983"><ele>539.0</ele><time>2026-04-30T12:59:04.659Z</time></trkpt><trkpt lat="43.8608783" lon="12.1393733"><ele>538.8333333333333</ele><time>2026-04-30T12:59:05.659Z</time></trkpt><trkpt lat="43.8609333" lon="12.1394317"><ele>538.6666666666666</ele><time>2026-04-30T12:59:06.654Z</time></trkpt><trkpt lat="43.860995" lon="12.13946"><ele>538.5</ele><time>2026-04-30T12:59:07.655Z</time></trkpt><trkpt lat="43.8610833" lon="12.1395367"><ele>538.3333333333334</ele><time>2026-04-30T12:59:09.645Z</time></trkpt><trkpt lat="43.861065" lon="12.1396283"><ele>538.1666666666667</ele><time>2026-04-30T12:59:11.651Z</time></trkpt><trkpt lat="43.8609717" lon="12.1396383"><ele>538.0</ele><time>2026-04-30T12:59:13.66Z</time></trkpt><trkpt lat="43.8609017" lon="12.1395983"><ele>538.0</ele><time>2026-04-30T12:59:14.652Z</time></trkpt><trkpt lat="43.8608017" lon="12.1395333"><ele>538.0</ele><time>2026-04-30T12:59:15.649Z</time></trkpt><trkpt lat="43.8606883" lon="12.1394833"><ele>538.0</ele><time>2026-04-30T12:59:16.648Z</time></trkpt><trkpt lat="43.8605867" lon="12.13944"><ele>538.0</ele><time>2026-04-30T12:59:17.649Z</time></trkpt><trkpt lat="43.8605" lon="12.1393933"><ele>538.0</ele><time>2026-04-30T12:59:18.666Z</time></trkpt><trkpt lat="43.8604333" lon="12.1393333"><ele>538.0</ele><time>2026-04-30T12:59:19.649Z</time></trkpt><trkpt lat="43.8603383" lon="12.1392467"><ele>538.0</ele><time>2026-04-30T12:59:21.642Z</time></trkpt><trkpt lat="43.8602683" lon="12.13927"><ele>538.0</ele><time>2026-04-30T12:59:23.647Z</time></trkpt><trkpt lat="43.8602817" lon="12.1393967"><ele>538.0</ele><time>2026-04-30T12:59:25.645Z</time></trkpt><trkpt lat="43.8603217" lon="12.1394667"><ele>538.0</ele><time>2026-04-30T12:59:26.652Z</time></trkpt><trkpt lat="43.8604167" lon="12.1395533"><ele>538.0</ele><time>2026-04-30T12:59:27.65Z</time></trkpt><trkpt lat="43.8605333" lon="12.1396467"><ele>538.0</ele><time>2026-04-30T12:59:28.644Z</time></trkpt><trkpt lat="43.8606317" lon="12.1397183"><ele>538.0</ele><time>2026-04-30T12:59:29.654Z</time></trkpt><trkpt lat="43.8607167" lon="12.1397717"><ele>538.0</ele><time>2026-04-30T12:59:30.652Z</time></trkpt><trkpt lat="43.8607833" lon="12.1398133"><ele>538.0</ele><time>2026-04-30T12:59:31.655Z</time></trkpt><trkpt lat="43.8608383" lon="12.1398633"><ele>538.0</ele><time>2026-04-30T12:59:32.65Z</time></trkpt><trkpt lat="43.8608817" lon="12.1399833"><ele>538.0</ele><time>2026-04-30T12:59:34.65Z</time></trkpt><trkpt lat="43.8608333" lon="12.14004"><ele>538.0</ele><time>2026-04-30T12:59:36.646Z</time></trkpt><trkpt lat="43.8607617" lon="12.1399817"><ele>538.0</ele><time>2026-04-30T12:59:38.65Z</time></trkpt><trkpt lat="43.86069" lon="12.1398883"><ele>538.0</ele><time>2026-04-30T12:59:40.644Z</time></trkpt><trkpt lat="43.8606283" lon="12.139835"><ele>538.0</ele><time>2026-04-30T12:59:41.647Z</time></trkpt><trkpt lat="43.860535" lon="12.1397833"><ele>538.0</ele><time>2026-04-30T12:59:42.656Z</time></trkpt><trkpt lat="43.860405" lon="12.1397517"><ele>538.0</ele><time>2026-04-30T12:59:43.65Z</time></trkpt><trkpt lat="43.8602867" lon="12.1397317"><ele>538.0</ele><time>2026-04-30T12:59:44.648Z</time></trkpt><trkpt lat="43.8601717" lon="12.1397317"><ele>538.0</ele><time>2026-04-30T12:59:45.648Z</time></trkpt><trkpt lat="43.860065" lon="12.13974"><ele>533.4</ele><time>2026-04-30T12:59:46.65Z</time></trkpt><trkpt lat="43.8599617" lon="12.139745"><ele>528.8</ele><time>2026-04-30T12:59:47.647Z</time></trkpt><trkpt lat="43.8598583" lon="12.1397417"><ele>524.2</ele><time>2026-04-30T12:59:48.652Z</time></trkpt><trkpt lat="43.859765" lon="12.13972"><ele>519.6</ele><time>2026-04-30T12:59:49.654Z</time></trkpt><trkpt lat="43.8596817" lon="12.13969"><ele>515.0</ele><time>2026-04-30T12:59:50.65Z</time></trkpt><trkpt lat="43.8596117" lon="12.1396467"><ele>515.0</ele><time>2026-04-30T12:59:51.646Z</time></trkpt><trkpt lat="43.85955" lon="12.1395867"><ele>515.0</ele><time>2026-04-30T12:59:52.653Z</time></trkpt><trkpt lat="43.8595017" lon="12.13949"><ele>515.0</ele><time>2026-04-30T12:59:53.647Z</time></trkpt><trkpt lat="43.8594467" lon="12.1393883"><ele>515.0</ele><time>2026-04-30T12:59:54.652Z</time></trkpt><trkpt lat="43.859395" lon="12.139265"><ele>515.0</ele><time>2026-04-30T12:59:55.658Z</time></trkpt><trkpt lat="43.8593417" lon="12.1391417"><ele>515.2</ele><time>2026-04-30T12:59:56.649Z</time></trkpt><trkpt lat="43.8592867" lon="12.1390267"><ele>515.4</ele><time>2026-04-30T12:59:57.654Z</time></trkpt><trkpt lat="43.859215" lon="12.1389317"><ele>515.6</ele><time>2026-04-30T12:59:58.647Z</time></trkpt><trkpt lat="43.85914" lon="12.1388533"><ele>515.8</ele><time>2026-04-30T12:59:59.648Z</time></trkpt><trkpt lat="43.8590767" lon="12.1387833"><ele>516.0</ele><time>2026-04-30T13:00:00.653Z</time></trkpt><trkpt lat="43.8590283" lon="12.13869"><ele>512.2</ele><time>2026-04-30T13:00:01.642Z</time></trkpt><trkpt lat="43.85898" lon="12.1385917"><ele>508.40000000000003</ele><time>2026-04-30T13:00:02.64Z</time></trkpt><trkpt lat="43.8589517" lon="12.13847"><ele>504.6</ele><time>2026-04-30T13:00:03.661Z</time></trkpt><trkpt lat="43.8589367" lon="12.138345"><ele>500.8</ele><time>2026-04-30T13:00:04.649Z</time></trkpt><trkpt lat="43.8589117" lon="12.1382133"><ele>497.0</ele><time>2026-04-30T13:00:05.654Z</time></trkpt><trkpt lat="43.858885" lon="12.1381"><ele>496.99999999999994</ele><time>2026-04-30T13:00:06.648Z</time></trkpt><trkpt lat="43.8588533" lon="12.1379833"><ele>497.0</ele><time>2026-04-30T13:00:07.651Z</time></trkpt><trkpt lat="43.8588283" lon="12.1378817"><ele>497.0</ele><time>2026-04-30T13:00:08.651Z</time></trkpt><trkpt lat="43.8588183" lon="12.13777"><ele>497.0</ele><time>2026-04-30T13:00:09.641Z</time></trkpt><trkpt lat="43.8588067" lon="12.137665"><ele>496.99999999999994</ele><time>2026-04-30T13:00:10.655Z</time></trkpt><trkpt lat="43.858805" lon="12.1375633"><ele>497.0</ele><time>2026-04-30T13:00:11.639Z</time></trkpt><trkpt lat="43.8588" lon="12.1374683"><ele>497.1428571428571</ele><time>2026-04-30T13:00:12.652Z</time></trkpt><trkpt lat="43.858785" lon="12.1373817"><ele>497.2857142857143</ele><time>2026-04-30T13:00:13.654Z</time></trkpt><trkpt lat="43.858755" lon="12.1373"><ele>497.42857142857144</ele><time>2026-04-30T13:00:14.655Z</time></trkpt><trkpt lat="43.858715" lon="12.1372317"><ele>497.57142857142856</ele><time>2026-04-30T13:00:15.66Z</time></trkpt><trkpt lat="43.8586717" lon="12.1371683"><ele>497.71428571428567</ele><time>2026-04-30T13:00:16.644Z</time></trkpt><trkpt lat="43.8586133" lon="12.1371183"><ele>497.85714285714283</ele><time>2026-04-30T13:00:17.644Z</time></trkpt><trkpt lat="43.8585317" lon="12.1371133"><ele>498.0</ele><time>2026-04-30T13:00:18.649Z</time></trkpt><trkpt lat="43.8584417" lon="12.1371483"><ele>498.4</ele><time>2026-04-30T13:00:19.651Z</time></trkpt><trkpt lat="43.85835" lon="12.1371867"><ele>498.79999999999995</ele><time>2026-04-30T13:00:20.655Z</time></trkpt><trkpt lat="43.8582733" lon="12.1372367"><ele>499.2</ele><time>2026-04-30T13:00:21.647Z</time></trkpt><trkpt lat="43.85821" lon="12.1373167"><ele>499.6</ele><time>2026-04-30T13:00:22.644Z</time></trkpt><trkpt lat="43.858175" lon="12.1374533"><ele>500.0</ele><time>2026-04-30T13:00:23.652Z</time></trkpt><trkpt lat="43.8581567" lon="12.1376367"><ele>498.5</ele><time>2026-04-30T13:00:24.655Z</time></trkpt><trkpt lat="43.8581367" lon="12.1378317"><ele>497.0</ele><time>2026-04-30T13:00:25.644Z</time></trkpt><trkpt lat="43.8581317" lon="12.137995"><ele>495.5</ele><time>2026-04-30T13:00:26.652Z</time></trkpt><trkpt lat="43.858105" lon="12.1381483"><ele>494.0</ele><time>2026-04-30T13:00:27.65Z</time></trkpt><trkpt lat="43.8580733" lon="12.13831"><ele>493.2</ele><time>2026-04-30T13:00:28.647Z</time></trkpt><trkpt lat="43.8580383" lon="12.1384483"><ele>492.4</ele><time>2026-04-30T13:00:29.65Z</time></trkpt><trkpt lat="43.858025" lon="12.138565"><ele>491.6</ele><time>2026-04-30T13:00:30.647Z</time></trkpt><trkpt lat="43.8580217" lon="12.1386767"><ele>490.8</ele><time>2026-04-30T13:00:31.653Z</time></trkpt><trkpt lat="43.8580283" lon="12.138815"><ele>490.0</ele><time>2026-04-30T13:00:32.65Z</time></trkpt><trkpt lat="43.8580333" lon="12.1389567"><ele>489.6</ele><time>2026-04-30T13:00:33.648Z</time></trkpt><trkpt lat="43.8580283" lon="12.139095"><ele>489.2</ele><time>2026-04-30T13:00:34.644Z</time></trkpt><trkpt lat="43.8580217" lon="12.1392217"><ele>488.79999999999995</ele><time>2026-04-30T13:00:35.644Z</time></trkpt><trkpt lat="43.8579967" lon="12.1393583"><ele>488.4</ele><time>2026-04-30T13:00:36.644Z</time></trkpt><trkpt lat="43.857975" lon="12.1394917"><ele>488.0</ele><time>2026-04-30T13:00:37.656Z</time></trkpt><trkpt lat="43.8579567" lon="12.1396083"><ele>487.99999999999994</ele><time>2026-04-30T13:00:38.647Z</time></trkpt><trkpt lat="43.857955" lon="12.1397067"><ele>488.0</ele><time>2026-04-30T13:00:39.645Z</time></trkpt><trkpt lat="43.8579567" lon="12.1398"><ele>487.99999999999994</ele><time>2026-04-30T13:00:40.652Z</time></trkpt><trkpt lat="43.8579567" lon="12.1399017"><ele>487.99999999999994</ele><time>2026-04-30T13:00:41.646Z</time></trkpt><trkpt lat="43.85795" lon="12.1400067"><ele>488.0</ele><time>2026-04-30T13:00:42.65Z</time></trkpt><trkpt lat="43.8579267" lon="12.1401083"><ele>487.99999999999994</ele><time>2026-04-30T13:00:43.648Z</time></trkpt><trkpt lat="43.85789" lon="12.1402117"><ele>487.99999999999994</ele><time>2026-04-30T13:00:44.653Z</time></trkpt><trkpt lat="43.8578317" lon="12.1403133"><ele>488.25</ele><time>2026-04-30T13:00:45.638Z</time></trkpt><trkpt lat="43.8577583" lon="12.1404083"><ele>488.5</ele><time>2026-04-30T13:00:46.642Z</time></trkpt><trkpt lat="43.8576717" lon="12.1404867"><ele>488.75</ele><time>2026-04-30T13:00:47.642Z</time></trkpt><trkpt lat="43.8575583" lon="12.14055"><ele>489.0</ele><time>2026-04-30T13:00:48.644Z</time></trkpt><trkpt lat="43.8574367" lon="12.1405917"><ele>494.2</ele><time>2026-04-30T13:00:49.646Z</time></trkpt><trkpt lat="43.85733" lon="12.1406533"><ele>499.4</ele><time>2026-04-30T13:00:50.651Z</time></trkpt><trkpt lat="43.857235" lon="12.1407283"><ele>504.6</ele><time>2026-04-30T13:00:51.659Z</time></trkpt><trkpt lat="43.8571567" lon="12.140785"><ele>509.8</ele><time>2026-04-30T13:00:52.648Z</time></trkpt><trkpt lat="43.8570883" lon="12.140825"><ele>515.0</ele><time>2026-04-30T13:00:53.64Z</time></trkpt><trkpt lat="43.857015" lon="12.1408517"><ele>515.0</ele><time>2026-04-30T13:00:54.649Z</time></trkpt><trkpt lat="43.8569367" lon="12.140855"><ele>515.0</ele><time>2026-04-30T13:00:55.651Z</time></trkpt><trkpt lat="43.8568283" lon="12.1408217"><ele>515.0</ele><time>2026-04-30T13:00:56.643Z</time></trkpt><trkpt lat="43.8567167" lon="12.1407933"><ele>515.0</ele><time>2026-04-30T13:00:57.65Z</time></trkpt><trkpt lat="43.856625" lon="12.1407667"><ele>515.0</ele><time>2026-04-30T13:00:58.646Z</time></trkpt><trkpt lat="43.8565417" lon="12.1407283"><ele>525.8</ele><time>2026-04-30T13:00:59.65Z</time></trkpt><trkpt lat="43.85646" lon="12.1406483"><ele>536.6</ele><time>2026-04-30T13:01:00.648Z</time></trkpt><trkpt lat="43.8563767" lon="12.1405567"><ele>547.4</ele><time>2026-04-30T13:01:01.65Z</time></trkpt><trkpt lat="43.85629" lon="12.14048"><ele>558.2</ele><time>2026-04-30T13:01:02.648Z</time></trkpt><trkpt lat="43.856205" lon="12.1404283"><ele>569.0</ele><time>2026-04-30T13:01:03.649Z</time></trkpt><trkpt lat="43.8561183" lon="12.1403967"><ele>569.0</ele><time>2026-04-30T13:01:04.646Z</time></trkpt><trkpt lat="43.8560317" lon="12.1403933"><ele>569.0</ele><time>2026-04-30T13:01:05.647Z</time></trkpt><trkpt lat="43.85594" lon="12.1404317"><ele>569.0</ele><time>2026-04-30T13:01:06.651Z</time></trkpt><trkpt lat="43.8558567" lon="12.1404833"><ele>569.0</ele><time>2026-04-30T13:01:07.648Z</time></trkpt><trkpt lat="43.85577" lon="12.1405433"><ele>569.0</ele><time>2026-04-30T13:01:08.645Z</time></trkpt><trkpt lat="43.85569" lon="12.1405833"><ele>568.5</ele><time>2026-04-30T13:01:09.653Z</time></trkpt><trkpt lat="43.8555983" lon="12.1405933"><ele>568.0</ele><time>2026-04-30T13:01:10.646Z</time></trkpt><trkpt lat="43.8554717" lon="12.1405933"><ele>567.5</ele><time>2026-04-30T13:01:11.647Z</time></trkpt><trkpt lat="43.8553383" lon="12.1405983"><ele>567.0</ele><time>2026-04-30T13:01:12.65Z</time></trkpt><trkpt lat="43.8552167" lon="12.1406083"><ele>567.6666666666666</ele><time>2026-04-30T13:01:13.649Z</time></trkpt><trkpt lat="43.8551133" lon="12.1406333"><ele>568.3333333333334</ele><time>2026-04-30T13:01:14.643Z</time></trkpt><trkpt lat="43.85502" lon="12.1406683"><ele>569.0</ele><time>2026-04-30T13:01:15.648Z</time></trkpt><trkpt lat="43.85494" lon="12.1406983"><ele>569.6666666666667</ele><time>2026-04-30T13:01:16.645Z</time></trkpt><trkpt lat="43.8548667" lon="12.14072"><ele>570.3333333333334</ele><time>2026-04-30T13:01:17.654Z</time></trkpt><trkpt lat="43.8548017" lon="12.1407083"><ele>571.0</ele><time>2026-04-30T13:01:18.651Z</time></trkpt><trkpt lat="43.854695" lon="12.1406067"><ele>571.0</ele><time>2026-04-30T13:01:20.653Z</time></trkpt><trkpt lat="43.8546433" lon="12.1405183"><ele>571.0</ele><time>2026-04-30T13:01:21.658Z</time></trkpt><trkpt lat="43.8545867" lon="12.1403933"><ele>571.0</ele><time>2026-04-30T13:01:22.654Z</time></trkpt><trkpt lat="43.8545267" lon="12.1402783"><ele>571.0</ele><time>2026-04-30T13:01:23.645Z</time></trkpt><trkpt lat="43.854455" lon="12.1401767"><ele>571.0</ele><time>2026-04-30T13:01:24.66Z</time></trkpt><trkpt lat="43.8543833" lon="12.1400883"><ele>571.0</ele><time>2026-04-30T13:01:25.646Z</time></trkpt><trkpt lat="43.8543167" lon="12.1400217"><ele>571.0</ele><time>2026-04-30T13:01:26.647Z</time></trkpt><trkpt lat="43.8542467" lon="12.1399683"><ele>571.0</ele><time>2026-04-30T13:01:27.646Z</time></trkpt><trkpt lat="43.85418" lon="12.1399117"><ele>571.0</ele><time>2026-04-30T13:01:28.648Z</time></trkpt><trkpt lat="43.8541167" lon="12.1398433"><ele>571.0</ele><time>2026-04-30T13:01:29.658Z</time></trkpt><trkpt lat="43.8540533" lon="12.1397583"><ele>571.0</ele><time>2026-04-30T13:01:30.653Z</time></trkpt><trkpt lat="43.85399" lon="12.13967"><ele>573.5</ele><time>2026-04-30T13:01:31.653Z</time></trkpt><trkpt lat="43.8539317" lon="12.1395933"><ele>576.0</ele><time>2026-04-30T13:01:32.647Z</time></trkpt><trkpt lat="43.853875" lon="12.13953"><ele>578.5</ele><time>2026-04-30T13:01:33.658Z</time></trkpt><trkpt lat="43.8538217" lon="12.1394633"><ele>581.0</ele><time>2026-04-30T13:01:34.653Z</time></trkpt><trkpt lat="43.85377" lon="12.1394"><ele>583.5</ele><time>2026-04-30T13:01:35.656Z</time></trkpt><trkpt lat="43.8537183" lon="12.1393433"><ele>586.0</ele><time>2026-04-30T13:01:36.649Z</time></trkpt><trkpt lat="43.8536333" lon="12.1392533"><ele>586.0</ele><time>2026-04-30T13:01:38.65Z</time></trkpt><trkpt lat="43.8535833" lon="12.1391983"><ele>586.0</ele><time>2026-04-30T13:01:40.647Z</time></trkpt><trkpt lat="43.8535325" lon="12.1391344"><ele>586.0</ele><time>2026-04-30T13:02:44.648Z</time></trkpt><trkpt lat="43.8534884" lon="12.1390672"><ele>586.0</ele><time>2026-04-30T13:02:46.638Z</time></trkpt><trkpt lat="43.8534459" lon="12.1389797"><ele>586.0</ele><time>2026-04-30T13:02:48.653Z</time></trkpt><trkpt lat="43.8534035" lon="12.1388962"><ele>586.0</ele><time>2026-04-30T13:02:50.557Z</time></trkpt><trkpt lat="43.8533262" lon="12.1387788"><ele>586.25</ele><time>2026-04-30T13:02:53.609Z</time></trkpt><trkpt lat="43.8532333" lon="12.1386274"><ele>586.5</ele><time>2026-04-30T13:02:56.676Z</time></trkpt><trkpt lat="43.8531332" lon="12.1384867"><ele>586.75</ele><time>2026-04-30T13:02:59.675Z</time></trkpt><trkpt lat="43.8530678" lon="12.1383802"><ele>587.0</ele><time>2026-04-30T13:03:01.65Z</time></trkpt><trkpt lat="43.8530205" lon="12.1382866"><ele>591.0</ele><time>2026-04-30T13:03:02.653Z</time></trkpt><trkpt lat="43.852987" lon="12.1381993"><ele>595.0</ele><time>2026-04-30T13:03:03.65Z</time></trkpt><trkpt lat="43.8529572" lon="12.1381127"><ele>599.0</ele><time>2026-04-30T13:03:04.656Z</time></trkpt><trkpt lat="43.8529233" lon="12.1380199"><ele>603.0</ele><time>2026-04-30T13:03:05.645Z</time></trkpt><trkpt lat="43.8528754" lon="12.1379282"><ele>607.0</ele><time>2026-04-30T13:03:06.647Z</time></trkpt><trkpt lat="43.8528133" lon="12.1378533"><ele>611.0</ele><time>2026-04-30T13:03:07.646Z</time></trkpt><trkpt lat="43.85274" lon="12.13778"><ele>611.0</ele><time>2026-04-30T13:03:08.649Z</time></trkpt><trkpt lat="43.8526567" lon="12.137705"><ele>611.0</ele><time>2026-04-30T13:03:09.66Z</time></trkpt><trkpt lat="43.8525583" lon="12.137645"><ele>611.0</ele><time>2026-04-30T13:03:10.649Z</time></trkpt><trkpt lat="43.8524617" lon="12.1375983"><ele>611.0</ele><time>2026-04-30T13:03:11.642Z</time></trkpt><trkpt lat="43.8523633" lon="12.13757"><ele>611.0</ele><time>2026-04-30T13:03:12.659Z</time></trkpt><trkpt lat="43.85226" lon="12.1375667"><ele>608.3333333333333</ele><time>2026-04-30T13:03:13.652Z</time></trkpt><trkpt lat="43.852165" lon="12.137575"><ele>605.6666666666666</ele><time>2026-04-30T13:03:14.658Z</time></trkpt><trkpt lat="43.8520817" lon="12.137605"><ele>603.0</ele><time>2026-04-30T13:03:15.655Z</time></trkpt><trkpt lat="43.852015" lon="12.1376383"><ele>600.3333333333334</ele><time>2026-04-30T13:03:16.647Z</time></trkpt><trkpt lat="43.8519567" lon="12.1377"><ele>597.6666666666667</ele><time>2026-04-30T13:03:17.644Z</time></trkpt><trkpt lat="43.8519183" lon="12.137795"><ele>595.0</ele><time>2026-04-30T13:03:18.65Z</time></trkpt><trkpt lat="43.8519" lon="12.1379317"><ele>595.0</ele><time>2026-04-30T13:03:19.652Z</time></trkpt><trkpt lat="43.8518867" lon="12.1380733"><ele>595.0</ele><time>2026-04-30T13:03:20.653Z</time></trkpt><trkpt lat="43.851935" lon="12.13824"><ele>595.0</ele><time>2026-04-30T13:03:21.655Z</time></trkpt><trkpt lat="43.8519883" lon="12.1383967"><ele>595.0</ele><time>2026-04-30T13:03:22.651Z</time></trkpt><trkpt lat="43.8520467" lon="12.13856"><ele>591.2</ele><time>2026-04-30T13:03:23.653Z</time></trkpt><trkpt lat="43.8520933" lon="12.1387233"><ele>587.4</ele><time>2026-04-30T13:03:24.663Z</time></trkpt><trkpt lat="43.852125" lon="12.138875"><ele>583.6</ele><time>2026-04-30T13:03:25.645Z</time></trkpt><trkpt lat="43.8521467" lon="12.1390133"><ele>579.8</ele><time>2026-04-30T13:03:26.65Z</time></trkpt><trkpt lat="43.852155" lon="12.1391467"><ele>576.0</ele><time>2026-04-30T13:03:27.663Z</time></trkpt><trkpt lat="43.8521467" lon="12.1392767"><ele>574.0</ele><time>2026-04-30T13:03:28.649Z</time></trkpt><trkpt lat="43.8521283" lon="12.1393983"><ele>572.0</ele><time>2026-04-30T13:03:29.647Z</time></trkpt><trkpt lat="43.8521033" lon="12.1395217"><ele>570.0</ele><time>2026-04-30T13:03:30.65Z</time></trkpt><trkpt lat="43.8520733" lon="12.1396483"><ele>568.0</ele><time>2026-04-30T13:03:31.65Z</time></trkpt><trkpt lat="43.8520433" lon="12.139765"><ele>566.0</ele><time>2026-04-30T13:03:32.649Z</time></trkpt><trkpt lat="43.8520183" lon="12.139865"><ele>564.0</ele><time>2026-04-30T13:03:33.655Z</time></trkpt><trkpt lat="43.8519767" lon="12.139945"><ele>564.5</ele><time>2026-04-30T13:03:34.646Z</time></trkpt><trkpt lat="43.85192" lon="12.14"><ele>565.0</ele><time>2026-04-30T13:03:35.643Z</time></trkpt><trkpt lat="43.8518533" lon="12.140035"><ele>565.5</ele><time>2026-04-30T13:03:36.651Z</time></trkpt><trkpt lat="43.851775" lon="12.1400333"><ele>566.0</ele><time>2026-04-30T13:03:37.651Z</time></trkpt><trkpt lat="43.85168" lon="12.1400017"><ele>566.5</ele><time>2026-04-30T13:03:38.663Z</time></trkpt><trkpt lat="43.8515733" lon="12.1399633"><ele>567.0</ele><time>2026-04-30T13:03:39.649Z</time></trkpt><trkpt lat="43.8514583" lon="12.1399033"><ele>573.25</ele><time>2026-04-30T13:03:40.65Z</time></trkpt><trkpt lat="43.8513383" lon="12.1398433"><ele>579.5</ele><time>2026-04-30T13:03:41.652Z</time></trkpt><trkpt lat="43.85123" lon="12.13979"><ele>585.75</ele><time>2026-04-30T13:03:42.655Z</time></trkpt><trkpt lat="43.85113" lon="12.1397367"><ele>592.0</ele><time>2026-04-30T13:03:43.647Z</time></trkpt><trkpt lat="43.851035" lon="12.1396833"><ele>590.4</ele><time>2026-04-30T13:03:44.648Z</time></trkpt><trkpt lat="43.8509433" lon="12.1396267"><ele>588.8000000000001</ele><time>2026-04-30T13:03:45.651Z</time></trkpt><trkpt lat="43.85084" lon="12.1395717"><ele>587.2</ele><time>2026-04-30T13:03:46.649Z</time></trkpt><trkpt lat="43.8507333" lon="12.1395317"><ele>585.6</ele><time>2026-04-30T13:03:47.647Z</time></trkpt><trkpt lat="43.85063" lon="12.13951"><ele>584.0</ele><time>2026-04-30T13:03:48.65Z</time></trkpt><trkpt lat="43.85054" lon="12.1394817"><ele>584.0</ele><time>2026-04-30T13:03:49.653Z</time></trkpt><trkpt lat="43.8504583" lon="12.139465"><ele>584.0</ele><time>2026-04-30T13:03:50.645Z</time></trkpt><trkpt lat="43.85039" lon="12.13945"><ele>584.0</ele><time>2026-04-30T13:03:51.664Z</time></trkpt><trkpt lat="43.850315" lon="12.1394583"><ele>584.0</ele><time>2026-04-30T13:03:52.65Z</time></trkpt><trkpt lat="43.8502467" lon="12.1395017"><ele>584.0</ele><time>2026-04-30T13:03:53.656Z</time></trkpt><trkpt lat="43.8501917" lon="12.13959"><ele>584.0</ele><time>2026-04-30T13:03:54.648Z</time></trkpt><trkpt lat="43.8501517" lon="12.1397267"><ele>582.6</ele><time>2026-04-30T13:03:55.649Z</time></trkpt><trkpt lat="43.8501183" lon="12.1398767"><ele>581.2</ele><time>2026-04-30T13:03:56.645Z</time></trkpt><trkpt lat="43.8501" lon="12.1400467"><ele>579.8000000000001</ele><time>2026-04-30T13:03:57.642Z</time></trkpt><trkpt lat="43.850085" lon="12.1401883"><ele>578.4</ele><time>2026-04-30T13:03:58.653Z</time></trkpt><trkpt lat="43.85009" lon="12.1403283"><ele>577.0</ele><time>2026-04-30T13:03:59.659Z</time></trkpt><trkpt lat="43.8500967" lon="12.1404617"><ele>574.4</ele><time>2026-04-30T13:04:00.661Z</time></trkpt><trkpt lat="43.8501233" lon="12.1405983"><ele>571.8000000000001</ele><time>2026-04-30T13:04:01.65Z</time></trkpt><trkpt lat="43.8501683" lon="12.1407317"><ele>569.2</ele><time>2026-04-30T13:04:02.654Z</time></trkpt><trkpt lat="43.85021" lon="12.1408617"><ele>566.6</ele><time>2026-04-30T13:04:03.658Z</time></trkpt><trkpt lat="43.85026" lon="12.1409767"><ele>564.0</ele><time>2026-04-30T13:04:04.662Z</time></trkpt><trkpt lat="43.8503017" lon="12.1410783"><ele>564.6</ele><time>2026-04-30T13:04:05.656Z</time></trkpt><trkpt lat="43.850325" lon="12.141165"><ele>565.2</ele><time>2026-04-30T13:04:06.656Z</time></trkpt><trkpt lat="43.8503167" lon="12.1413133"><ele>565.8000000000001</ele><time>2026-04-30T13:04:08.645Z</time></trkpt><trkpt lat="43.85026" lon="12.1413683"><ele>566.4</ele><time>2026-04-30T13:04:09.658Z</time></trkpt><trkpt lat="43.8501767" lon="12.141435"><ele>567.0</ele><time>2026-04-30T13:04:10.643Z</time></trkpt><trkpt lat="43.850075" lon="12.1415067"><ele>564.2</ele><time>2026-04-30T13:04:11.649Z</time></trkpt><trkpt lat="43.84998" lon="12.1415783"><ele>561.4000000000001</ele><time>2026-04-30T13:04:12.649Z</time></trkpt><trkpt lat="43.8498967" lon="12.1416483"><ele>558.5999999999999</ele><time>2026-04-30T13:04:13.642Z</time></trkpt><trkpt lat="43.8498133" lon="12.141725"><ele>555.8</ele><time>2026-04-30T13:04:14.647Z</time></trkpt><trkpt lat="43.849725" lon="12.1417817"><ele>553.0</ele><time>2026-04-30T13:04:15.652Z</time></trkpt><trkpt lat="43.849645" lon="12.14183"><ele>553.0</ele><time>2026-04-30T13:04:16.643Z</time></trkpt><trkpt lat="43.8495733" lon="12.1418833"><ele>553.0</ele><time>2026-04-30T13:04:17.65Z</time></trkpt><trkpt lat="43.8495" lon="12.1419567"><ele>553.0</ele><time>2026-04-30T13:04:18.65Z</time></trkpt><trkpt lat="43.8494367" lon="12.1420467"><ele>553.0</ele><time>2026-04-30T13:04:19.653Z</time></trkpt><trkpt lat="43.849375" lon="12.1421517"><ele>553.0</ele><time>2026-04-30T13:04:20.657Z</time></trkpt><trkpt lat="43.8493233" lon="12.1422667"><ele>553.1666666666667</ele><time>2026-04-30T13:04:21.648Z</time></trkpt><trkpt lat="43.849285" lon="12.142375"><ele>553.3333333333334</ele><time>2026-04-30T13:04:22.652Z</time></trkpt><trkpt lat="43.8492467" lon="12.1424833"><ele>553.5</ele><time>2026-04-30T13:04:23.647Z</time></trkpt><trkpt lat="43.8491933" lon="12.1425717"><ele>553.6666666666666</ele><time>2026-04-30T13:04:24.656Z</time></trkpt><trkpt lat="43.8491333" lon="12.1426483"><ele>553.8333333333333</ele><time>2026-04-30T13:04:25.654Z</time></trkpt><trkpt lat="43.849065" lon="12.1427067"><ele>554.0</ele><time>2026-04-30T13:04:26.652Z</time></trkpt><trkpt lat="43.848995" lon="12.14275"><ele>554.0</ele><time>2026-04-30T13:04:27.651Z</time></trkpt><trkpt lat="43.8489283" lon="12.142775"><ele>554.0</ele><time>2026-04-30T13:04:28.653Z</time></trkpt><trkpt lat="43.8488617" lon="12.142775"><ele>554.0</ele><time>2026-04-30T13:04:29.644Z</time></trkpt><trkpt lat="43.8487983" lon="12.142755"><ele>554.0</ele><time>2026-04-30T13:04:30.645Z</time></trkpt><trkpt lat="43.848725" lon="12.1427283"><ele>554.0</ele><time>2026-04-30T13:04:31.649Z</time></trkpt><trkpt lat="43.8486483" lon="12.142685"><ele>554.0</ele><time>2026-04-30T13:04:32.641Z</time></trkpt><trkpt lat="43.84857" lon="12.1426467"><ele>554.0</ele><time>2026-04-30T13:04:33.653Z</time></trkpt><trkpt lat="43.8484983" lon="12.142605"><ele>554.0</ele><time>2026-04-30T13:04:34.648Z</time></trkpt><trkpt lat="43.848435" lon="12.1425683"><ele>554.0</ele><time>2026-04-30T13:04:35.655Z</time></trkpt><trkpt lat="43.848325" lon="12.142535"><ele>554.0</ele><time>2026-04-30T13:04:37.645Z</time></trkpt><trkpt lat="43.848205" lon="12.1425767"><ele>554.0</ele><time>2026-04-30T13:04:39.654Z</time></trkpt><trkpt lat="43.8481467" lon="12.1426333"><ele>554.0</ele><time>2026-04-30T13:04:40.648Z</time></trkpt><trkpt lat="43.8480933" lon="12.1427233"><ele>554.0</ele><time>2026-04-30T13:04:41.658Z</time></trkpt><trkpt lat="43.848045" lon="12.1428283"><ele>554.0</ele><time>2026-04-30T13:04:42.646Z</time></trkpt><trkpt lat="43.84801" lon="12.1429633"><ele>554.0</ele><time>2026-04-30T13:04:43.648Z</time></trkpt><trkpt lat="43.8479733" lon="12.1430883"><ele>554.0</ele><time>2026-04-30T13:04:44.648Z</time></trkpt><trkpt lat="43.8479317" lon="12.1432183"><ele>554.0</ele><time>2026-04-30T13:04:45.658Z</time></trkpt><trkpt lat="43.8478733" lon="12.1433517"><ele>549.4</ele><time>2026-04-30T13:04:46.649Z</time></trkpt><trkpt lat="43.8478083" lon="12.1434917"><ele>544.8</ele><time>2026-04-30T13:04:47.647Z</time></trkpt><trkpt lat="43.8477467" lon="12.1436167"><ele>540.2</ele><time>2026-04-30T13:04:48.653Z</time></trkpt><trkpt lat="43.8476933" lon="12.1437333"><ele>535.6</ele><time>2026-04-30T13:04:49.657Z</time></trkpt><trkpt lat="43.847655" lon="12.1438583"><ele>531.0</ele><time>2026-04-30T13:04:50.648Z</time></trkpt><trkpt lat="43.847635" lon="12.143995"><ele>529.25</ele><time>2026-04-30T13:04:51.641Z</time></trkpt><trkpt lat="43.8476333" lon="12.1441483"><ele>527.5</ele><time>2026-04-30T13:04:52.646Z</time></trkpt><trkpt lat="43.847645" lon="12.144315"><ele>525.75</ele><time>2026-04-30T13:04:53.649Z</time></trkpt><trkpt lat="43.8476617" lon="12.1444783"><ele>524.0</ele><time>2026-04-30T13:04:54.642Z</time></trkpt><trkpt lat="43.8476767" lon="12.1446233"><ele>524.0</ele><time>2026-04-30T13:04:55.651Z</time></trkpt><trkpt lat="43.8476817" lon="12.1447567"><ele>524.0</ele><time>2026-04-30T13:04:56.649Z</time></trkpt><trkpt lat="43.8476633" lon="12.1449"><ele>524.0</ele><time>2026-04-30T13:04:57.648Z</time></trkpt><trkpt lat="43.8476267" lon="12.1450383"><ele>524.0</ele><time>2026-04-30T13:04:58.648Z</time></trkpt><trkpt lat="43.84758" lon="12.1451633"><ele>524.0</ele><time>2026-04-30T13:04:59.651Z</time></trkpt><trkpt lat="43.847535" lon="12.14527"><ele>526.6</ele><time>2026-04-30T13:05:00.649Z</time></trkpt><trkpt lat="43.8475033" lon="12.1453733"><ele>529.2</ele><time>2026-04-30T13:05:01.651Z</time></trkpt><trkpt lat="43.84748" lon="12.145485"><ele>531.8000000000001</ele><time>2026-04-30T13:05:02.649Z</time></trkpt><trkpt lat="43.8474733" lon="12.145615"><ele>534.4</ele><time>2026-04-30T13:05:03.658Z</time></trkpt><trkpt lat="43.8475133" lon="12.1457733"><ele>537.0</ele><time>2026-04-30T13:05:04.648Z</time></trkpt><trkpt lat="43.8475633" lon="12.1459217"><ele>537.0</ele><time>2026-04-30T13:05:05.649Z</time></trkpt><trkpt lat="43.8476117" lon="12.1460367"><ele>537.0</ele><time>2026-04-30T13:05:06.649Z</time></trkpt><trkpt lat="43.8476533" lon="12.1461367"><ele>537.0</ele><time>2026-04-30T13:05:07.646Z</time></trkpt><trkpt lat="43.8476917" lon="12.146215"><ele>537.0</ele><time>2026-04-30T13:05:08.643Z</time></trkpt><trkpt lat="43.8477867" lon="12.1463233"><ele>537.0</ele><time>2026-04-30T13:05:10.654Z</time></trkpt><trkpt lat="43.84785" lon="12.1463633"><ele>537.0</ele><time>2026-04-30T13:05:11.648Z</time></trkpt><trkpt lat="43.8479267" lon="12.1463267"><ele>539.0</ele><time>2026-04-30T13:05:12.643Z</time></trkpt><trkpt lat="43.8480017" lon="12.1462733"><ele>541.0</ele><time>2026-04-30T13:05:13.642Z</time></trkpt><trkpt lat="43.848075" lon="12.1461883"><ele>543.0</ele><time>2026-04-30T13:05:14.655Z</time></trkpt><trkpt lat="43.8481517" lon="12.1461067"><ele>545.0</ele><time>2026-04-30T13:05:15.651Z</time></trkpt><trkpt lat="43.8482283" lon="12.1460317"><ele>547.0</ele><time>2026-04-30T13:05:16.648Z</time></trkpt><trkpt lat="43.8482967" lon="12.1459417"><ele>547.0</ele><time>2026-04-30T13:05:17.644Z</time></trkpt><trkpt lat="43.8483617" lon="12.1458533"><ele>547.0</ele><time>2026-04-30T13:05:18.652Z</time></trkpt><trkpt lat="43.8484233" lon="12.145775"><ele>547.0</ele><time>2026-04-30T13:05:19.642Z</time></trkpt><trkpt lat="43.8484817" lon="12.1456933"><ele>547.0</ele><time>2026-04-30T13:05:20.652Z</time></trkpt><trkpt lat="43.848535" lon="12.1456217"><ele>547.0</ele><time>2026-04-30T13:05:21.659Z</time></trkpt><trkpt lat="43.84863" lon="12.1455267"><ele>547.0</ele><time>2026-04-30T13:05:23.654Z</time></trkpt><trkpt lat="43.8487267" lon="12.1455133"><ele>547.0</ele><time>2026-04-30T13:05:25.654Z</time></trkpt><trkpt lat="43.8488033" lon="12.1456067"><ele>547.0</ele><time>2026-04-30T13:05:27.651Z</time></trkpt><trkpt lat="43.848825" lon="12.145745"><ele>547.0</ele><time>2026-04-30T13:05:29.652Z</time></trkpt><trkpt lat="43.8487983" lon="12.1458283"><ele>547.0</ele><time>2026-04-30T13:05:30.649Z</time></trkpt><trkpt lat="43.84877" lon="12.145915"><ele>547.0</ele><time>2026-04-30T13:05:31.65Z</time></trkpt><trkpt lat="43.848745" lon="12.1460117"><ele>547.0</ele><time>2026-04-30T13:05:32.644Z</time></trkpt><trkpt lat="43.8487217" lon="12.146125"><ele>549.4285714285714</ele><time>2026-04-30T13:05:33.646Z</time></trkpt><trkpt lat="43.8487017" lon="12.14624"><ele>551.8571428571428</ele><time>2026-04-30T13:05:34.651Z</time></trkpt><trkpt lat="43.848685" lon="12.1463433"><ele>554.2857142857142</ele><time>2026-04-30T13:05:35.648Z</time></trkpt><trkpt lat="43.8486733" lon="12.1464433"><ele>556.7142857142857</ele><time>2026-04-30T13:05:36.648Z</time></trkpt><trkpt lat="43.8486783" lon="12.1465383"><ele>559.1428571428571</ele><time>2026-04-30T13:05:37.649Z</time></trkpt><trkpt lat="43.8487033" lon="12.1466217"><ele>561.5714285714286</ele><time>2026-04-30T13:05:38.646Z</time></trkpt><trkpt lat="43.8487317" lon="12.146705"><ele>564.0</ele><time>2026-04-30T13:05:39.654Z</time></trkpt><trkpt lat="43.848765" lon="12.1468767"><ele>565.3333333333334</ele><time>2026-04-30T13:05:41.648Z</time></trkpt><trkpt lat="43.8487733" lon="12.1469633"><ele>566.6666666666666</ele><time>2026-04-30T13:05:42.659Z</time></trkpt><trkpt lat="43.8487717" lon="12.1470517"><ele>568.0</ele><time>2026-04-30T13:05:43.646Z</time></trkpt><trkpt lat="43.8487683" lon="12.1471417"><ele>569.3333333333333</ele><time>2026-04-30T13:05:44.646Z</time></trkpt><trkpt lat="43.8487633" lon="12.14731"><ele>570.6666666666666</ele><time>2026-04-30T13:05:46.648Z</time></trkpt><trkpt lat="43.8487183" lon="12.14744"><ele>572.0</ele><time>2026-04-30T13:05:48.653Z</time></trkpt><trkpt lat="43.848625" lon="12.14752"><ele>571.0</ele><time>2026-04-30T13:05:50.647Z</time></trkpt><trkpt lat="43.8485217" lon="12.1476183"><ele>570.0</ele><time>2026-04-30T13:05:52.647Z</time></trkpt><trkpt lat="43.8484717" lon="12.1476883"><ele>569.0</ele><time>2026-04-30T13:05:53.655Z</time></trkpt><trkpt lat="43.84842" lon="12.1477667"><ele>568.0</ele><time>2026-04-30T13:05:54.649Z</time></trkpt><trkpt lat="43.84836" lon="12.14785"><ele>567.0</ele><time>2026-04-30T13:05:55.658Z</time></trkpt><trkpt lat="43.848305" lon="12.147925"><ele>566.0</ele><time>2026-04-30T13:05:56.652Z</time></trkpt><trkpt lat="43.8482517" lon="12.1479883"><ele>566.0</ele><time>2026-04-30T13:05:57.648Z</time></trkpt><trkpt lat="43.8482" lon="12.1480533"><ele>566.0</ele><time>2026-04-30T13:05:58.647Z</time></trkpt><trkpt lat="43.8481567" lon="12.1481267"><ele>566.0</ele><time>2026-04-30T13:05:59.647Z</time></trkpt><trkpt lat="43.8481133" lon="12.148205"><ele>566.0</ele><time>2026-04-30T13:06:00.65Z</time></trkpt><trkpt lat="43.8480717" lon="12.1482967"><ele>566.0</ele><time>2026-04-30T13:06:01.643Z</time></trkpt><trkpt lat="43.8480317" lon="12.1484017"><ele>566.0</ele><time>2026-04-30T13:06:02.653Z</time></trkpt><trkpt lat="43.8479883" lon="12.148505"><ele>566.6666666666666</ele><time>2026-04-30T13:06:03.655Z</time></trkpt><trkpt lat="43.84794" lon="12.1485983"><ele>567.3333333333333</ele><time>2026-04-30T13:06:04.656Z</time></trkpt><trkpt lat="43.8478833" lon="12.148675"><ele>568.0</ele><time>2026-04-30T13:06:05.648Z</time></trkpt><trkpt lat="43.8478133" lon="12.1487417"><ele>568.6666666666666</ele><time>2026-04-30T13:06:06.645Z</time></trkpt><trkpt lat="43.8477367" lon="12.1487983"><ele>569.3333333333334</ele><time>2026-04-30T13:06:07.655Z</time></trkpt><trkpt lat="43.8476417" lon="12.14883"><ele>570.0</ele><time>2026-04-30T13:06:08.647Z</time></trkpt><trkpt lat="43.8475283" lon="12.1488333"><ele>570.0</ele><time>2026-04-30T13:06:09.662Z</time></trkpt><trkpt lat="43.84742" lon="12.1488283"><ele>570.0</ele><time>2026-04-30T13:06:10.654Z</time></trkpt><trkpt lat="43.8473267" lon="12.1488167"><ele>570.0</ele><time>2026-04-30T13:06:11.651Z</time></trkpt><trkpt lat="43.847245" lon="12.1488"><ele>570.0</ele><time>2026-04-30T13:06:12.657Z</time></trkpt><trkpt lat="43.847175" lon="12.1487883"><ele>570.0</ele><time>2026-04-30T13:06:13.652Z</time></trkpt><trkpt lat="43.8471117" lon="12.14879"><ele>570.0</ele><time>2026-04-30T13:06:14.646Z</time></trkpt><trkpt lat="43.847035" lon="12.14881"><ele>570.0</ele><time>2026-04-30T13:06:15.642Z</time></trkpt><trkpt lat="43.8469383" lon="12.148855"><ele>570.0</ele><time>2026-04-30T13:06:16.653Z</time></trkpt><trkpt lat="43.8468333" lon="12.1489167"><ele>570.0</ele><time>2026-04-30T13:06:17.653Z</time></trkpt><trkpt lat="43.8467317" lon="12.1489783"><ele>570.0</ele><time>2026-04-30T13:06:18.659Z</time></trkpt><trkpt lat="43.846635" lon="12.14903"><ele>570.0</ele><time>2026-04-30T13:06:19.647Z</time></trkpt><trkpt lat="43.8465383" lon="12.1490667"><ele>573.8</ele><time>2026-04-30T13:06:20.647Z</time></trkpt><trkpt lat="43.8464417" lon="12.1491"><ele>577.6</ele><time>2026-04-30T13:06:21.652Z</time></trkpt><trkpt lat="43.8463433" lon="12.1491267"><ele>581.4</ele><time>2026-04-30T13:06:22.65Z</time></trkpt><trkpt lat="43.846255" lon="12.14916"><ele>585.2</ele><time>2026-04-30T13:06:23.649Z</time></trkpt><trkpt lat="43.846175" lon="12.1491967"><ele>589.0</ele><time>2026-04-30T13:06:24.642Z</time></trkpt><trkpt lat="43.8460933" lon="12.1492317"><ele>589.0</ele><time>2026-04-30T13:06:25.646Z</time></trkpt><trkpt lat="43.8460167" lon="12.1492533"><ele>589.0</ele><time>2026-04-30T13:06:26.642Z</time></trkpt><trkpt lat="43.8459483" lon="12.14928"><ele>589.0</ele><time>2026-04-30T13:06:27.648Z</time></trkpt><trkpt lat="43.8458333" lon="12.1493733"><ele>589.0</ele><time>2026-04-30T13:06:29.64Z</time></trkpt><trkpt lat="43.8457733" lon="12.1494783"><ele>589.0</ele><time>2026-04-30T13:06:30.641Z</time></trkpt><trkpt lat="43.84571" lon="12.1495883"><ele>587.2</ele><time>2026-04-30T13:06:31.646Z</time></trkpt><trkpt lat="43.845645" lon="12.14969"><ele>585.4</ele><time>2026-04-30T13:06:32.642Z</time></trkpt><trkpt lat="43.8455783" lon="12.149785"><ele>583.6</ele><time>2026-04-30T13:06:33.656Z</time></trkpt><trkpt lat="43.8455083" lon="12.149885"><ele>581.8</ele><time>2026-04-30T13:06:34.644Z</time></trkpt><trkpt lat="43.8454417" lon="12.1500033"><ele>580.0</ele><time>2026-04-30T13:06:35.642Z</time></trkpt><trkpt lat="43.8453783" lon="12.15013"><ele>584.4</ele><time>2026-04-30T13:06:36.647Z</time></trkpt><trkpt lat="43.8453233" lon="12.15025"><ele>588.8</ele><time>2026-04-30T13:06:37.652Z</time></trkpt><trkpt lat="43.8452717" lon="12.1503567"><ele>593.2</ele><time>2026-04-30T13:06:38.643Z</time></trkpt><trkpt lat="43.84523" lon="12.1504533"><ele>597.6</ele><time>2026-04-30T13:06:39.649Z</time></trkpt><trkpt lat="43.8451867" lon="12.1505583"><ele>602.0</ele><time>2026-04-30T13:06:40.646Z</time></trkpt><trkpt lat="43.8451567" lon="12.15068"><ele>605.6</ele><time>2026-04-30T13:06:41.646Z</time></trkpt><trkpt lat="43.84515" lon="12.1508283"><ele>609.2</ele><time>2026-04-30T13:06:42.645Z</time></trkpt><trkpt lat="43.8451533" lon="12.1509783"><ele>612.8</ele><time>2026-04-30T13:06:43.651Z</time></trkpt><trkpt lat="43.845155" lon="12.15112"><ele>616.4</ele><time>2026-04-30T13:06:44.642Z</time></trkpt><trkpt lat="43.8451517" lon="12.1512633"><ele>620.0</ele><time>2026-04-30T13:06:45.645Z</time></trkpt><trkpt lat="43.84514" lon="12.15141"><ele>616.2</ele><time>2026-04-30T13:06:46.644Z</time></trkpt><trkpt lat="43.8451183" lon="12.151555"><ele>612.4</ele><time>2026-04-30T13:06:47.648Z</time></trkpt><trkpt lat="43.84509" lon="12.1517017"><ele>608.6</ele><time>2026-04-30T13:06:48.649Z</time></trkpt><trkpt lat="43.84506" lon="12.1518417"><ele>604.8</ele><time>2026-04-30T13:06:49.645Z</time></trkpt><trkpt lat="43.84502" lon="12.1519667"><ele>601.0</ele><time>2026-04-30T13:06:50.647Z</time></trkpt><trkpt lat="43.8449833" lon="12.1520967"><ele>601.0</ele><time>2026-04-30T13:06:51.646Z</time></trkpt><trkpt lat="43.8449483" lon="12.152225"><ele>601.0</ele><time>2026-04-30T13:06:52.649Z</time></trkpt><trkpt lat="43.8449017" lon="12.1523417"><ele>601.0</ele><time>2026-04-30T13:06:53.653Z</time></trkpt><trkpt lat="43.8448467" lon="12.1524383"><ele>601.0</ele><time>2026-04-30T13:06:54.642Z</time></trkpt><trkpt lat="43.844795" lon="12.152525"><ele>601.0</ele><time>2026-04-30T13:06:55.658Z</time></trkpt><trkpt lat="43.8447467" lon="12.1526283"><ele>603.4</ele><time>2026-04-30T13:06:56.648Z</time></trkpt><trkpt lat="43.8447033" lon="12.1527383"><ele>605.8</ele><time>2026-04-30T13:06:57.649Z</time></trkpt><trkpt lat="43.8446667" lon="12.1528583"><ele>608.1999999999999</ele><time>2026-04-30T13:06:58.646Z</time></trkpt><trkpt lat="43.8446383" lon="12.1529833"><ele>610.6</ele><time>2026-04-30T13:06:59.639Z</time></trkpt><trkpt lat="43.8446167" lon="12.1531067"><ele>613.0</ele><time>2026-04-30T13:07:00.643Z</time></trkpt><trkpt lat="43.8445933" lon="12.1532283"><ele>613.3333333333334</ele><time>2026-04-30T13:07:01.648Z</time></trkpt><trkpt lat="43.844575" lon="12.15334"><ele>613.6666666666667</ele><time>2026-04-30T13:07:02.643Z</time></trkpt><trkpt lat="43.8445633" lon="12.1534467"><ele>614.0</ele><time>2026-04-30T13:07:03.648Z</time></trkpt><trkpt lat="43.8445683" lon="12.15355"><ele>614.3333333333334</ele><time>2026-04-30T13:07:04.648Z</time></trkpt><trkpt lat="43.8445967" lon="12.153655"><ele>614.6666666666666</ele><time>2026-04-30T13:07:05.648Z</time></trkpt><trkpt lat="43.8446467" lon="12.1537683"><ele>615.0</ele><time>2026-04-30T13:07:06.642Z</time></trkpt><trkpt lat="43.8446983" lon="12.1538767"><ele>615.0</ele><time>2026-04-30T13:07:07.65Z</time></trkpt><trkpt lat="43.8447467" lon="12.1539833"><ele>615.0</ele><time>2026-04-30T13:07:08.65Z</time></trkpt><trkpt lat="43.8447917" lon="12.154085"><ele>615.0</ele><time>2026-04-30T13:07:09.653Z</time></trkpt><trkpt lat="43.8448367" lon="12.1541733"><ele>615.0</ele><time>2026-04-30T13:07:10.652Z</time></trkpt><trkpt lat="43.8448867" lon="12.1542417"><ele>615.0</ele><time>2026-04-30T13:07:11.647Z</time></trkpt><trkpt lat="43.84494" lon="12.1542967"><ele>615.0</ele><time>2026-04-30T13:07:12.65Z</time></trkpt><trkpt lat="43.845" lon="12.1543367"><ele>615.0</ele><time>2026-04-30T13:07:13.655Z</time></trkpt><trkpt lat="43.845075" lon="12.154375"><ele>615.0</ele><time>2026-04-30T13:07:14.648Z</time></trkpt><trkpt lat="43.84515" lon="12.1544117"><ele>615.0</ele><time>2026-04-30T13:07:15.648Z</time></trkpt><trkpt lat="43.8452217" lon="12.15446"><ele>615.0</ele><time>2026-04-30T13:07:16.64Z</time></trkpt><trkpt lat="43.84529" lon="12.154515"><ele>615.0</ele><time>2026-04-30T13:07:17.643Z</time></trkpt><trkpt lat="43.8453433" lon="12.1545867"><ele>615.0</ele><time>2026-04-30T13:07:18.643Z</time></trkpt><trkpt lat="43.8453833" lon="12.1546767"><ele>617.1666666666666</ele><time>2026-04-30T13:07:19.646Z</time></trkpt><trkpt lat="43.845415" lon="12.1547733"><ele>619.3333333333334</ele><time>2026-04-30T13:07:20.641Z</time></trkpt><trkpt lat="43.8454333" lon="12.15486"><ele>621.5</ele><time>2026-04-30T13:07:21.648Z</time></trkpt><trkpt lat="43.8454717" lon="12.1550083"><ele>623.6666666666667</ele><time>2026-04-30T13:07:23.657Z</time></trkpt><trkpt lat="43.8455367" lon="12.1550567"><ele>625.8333333333334</ele><time>2026-04-30T13:07:25.654Z</time></trkpt><trkpt lat="43.84562" lon="12.1549967"><ele>628.0</ele><time>2026-04-30T13:07:27.662Z</time></trkpt><trkpt lat="43.84567" lon="12.1548817"><ele>628.8</ele><time>2026-04-30T13:07:29.651Z</time></trkpt><trkpt lat="43.8457017" lon="12.1547983"><ele>629.5999999999999</ele><time>2026-04-30T13:07:30.65Z</time></trkpt><trkpt lat="43.8457517" lon="12.1547333"><ele>630.4000000000001</ele><time>2026-04-30T13:07:31.648Z</time></trkpt><trkpt lat="43.84587" lon="12.1546717"><ele>631.2</ele><time>2026-04-30T13:07:33.65Z</time></trkpt><trkpt lat="43.8459367" lon="12.15468"><ele>632.0</ele><time>2026-04-30T13:07:34.656Z</time></trkpt><trkpt lat="43.8460583" lon="12.15471"><ele>633.8333333333333</ele><time>2026-04-30T13:07:36.651Z</time></trkpt><trkpt lat="43.846125" lon="12.1547383"><ele>635.6666666666666</ele><time>2026-04-30T13:07:37.652Z</time></trkpt><trkpt lat="43.8461967" lon="12.1547667"><ele>637.5</ele><time>2026-04-30T13:07:38.652Z</time></trkpt><trkpt lat="43.8462717" lon="12.154795"><ele>639.3333333333334</ele><time>2026-04-30T13:07:39.655Z</time></trkpt><trkpt lat="43.8463517" lon="12.1548217"><ele>641.1666666666667</ele><time>2026-04-30T13:07:40.657Z</time></trkpt><trkpt lat="43.8464333" lon="12.1548433"><ele>643.0</ele><time>2026-04-30T13:07:41.649Z</time></trkpt><trkpt lat="43.8464983" lon="12.154865"><ele>642.5</ele><time>2026-04-30T13:07:42.642Z</time></trkpt><trkpt lat="43.8465683" lon="12.1549017"><ele>642.0</ele><time>2026-04-30T13:07:44.644Z</time></trkpt><trkpt lat="43.8466633" lon="12.154935"><ele>641.5</ele><time>2026-04-30T13:09:37.644Z</time></trkpt><trkpt lat="43.8467233" lon="12.154975"><ele>641.0</ele><time>2026-04-30T13:09:39.645Z</time></trkpt><trkpt lat="43.84681" lon="12.1550417"><ele>640.5</ele><time>2026-04-30T13:09:42.652Z</time></trkpt><trkpt lat="43.8468933" lon="12.1551017"><ele>640.0</ele><time>2026-04-30T13:09:44.649Z</time></trkpt><trkpt lat="43.8469933" lon="12.1551833"><ele>641.8</ele><time>2026-04-30T13:09:46.651Z</time></trkpt><trkpt lat="43.8470933" lon="12.1553067"><ele>643.6</ele><time>2026-04-30T13:09:48.649Z</time></trkpt><trkpt lat="43.8471533" lon="12.1554033"><ele>645.4000000000001</ele><time>2026-04-30T13:09:49.646Z</time></trkpt><trkpt lat="43.8472083" lon="12.1555167"><ele>647.2</ele><time>2026-04-30T13:09:50.644Z</time></trkpt><trkpt lat="43.847255" lon="12.1556383"><ele>649.0</ele><time>2026-04-30T13:09:51.652Z</time></trkpt><trkpt lat="43.8473083" lon="12.1557717"><ele>649.0</ele><time>2026-04-30T13:09:52.644Z</time></trkpt><trkpt lat="43.8473617" lon="12.15591"><ele>649.0</ele><time>2026-04-30T13:09:53.647Z</time></trkpt><trkpt lat="43.8474067" lon="12.156055"><ele>649.0</ele><time>2026-04-30T13:09:54.659Z</time></trkpt><trkpt lat="43.8474533" lon="12.15619"><ele>649.0</ele><time>2026-04-30T13:09:55.648Z</time></trkpt><trkpt lat="43.8475017" lon="12.1563267"><ele>649.0</ele><time>2026-04-30T13:09:56.644Z</time></trkpt><trkpt lat="43.8475617" lon="12.1564767"><ele>655.25</ele><time>2026-04-30T13:09:57.654Z</time></trkpt><trkpt lat="43.8476317" lon="12.1566433"><ele>661.5</ele><time>2026-04-30T13:09:58.649Z</time></trkpt><trkpt lat="43.8477117" lon="12.15681"><ele>667.75</ele><time>2026-04-30T13:09:59.651Z</time></trkpt><trkpt lat="43.84779" lon="12.156965"><ele>674.0</ele><time>2026-04-30T13:10:00.645Z</time></trkpt><trkpt lat="43.847865" lon="12.1571"><ele>674.0</ele><time>2026-04-30T13:10:01.656Z</time></trkpt><trkpt lat="43.847925" lon="12.1572183"><ele>674.0</ele><time>2026-04-30T13:10:02.649Z</time></trkpt><trkpt lat="43.847965" lon="12.1573183"><ele>674.0</ele><time>2026-04-30T13:10:03.648Z</time></trkpt><trkpt lat="43.84799" lon="12.1574117"><ele>674.0</ele><time>2026-04-30T13:10:04.65Z</time></trkpt><trkpt lat="43.847955" lon="12.157565"><ele>674.0</ele><time>2026-04-30T13:10:06.656Z</time></trkpt><trkpt lat="43.8478983" lon="12.1576217"><ele>674.0</ele><time>2026-04-30T13:10:07.647Z</time></trkpt><trkpt lat="43.8478183" lon="12.15765"><ele>675.0</ele><time>2026-04-30T13:10:08.653Z</time></trkpt><trkpt lat="43.8477583" lon="12.1576867"><ele>676.0</ele><time>2026-04-30T13:10:09.657Z</time></trkpt><trkpt lat="43.8476633" lon="12.157785"><ele>677.0</ele><time>2026-04-30T13:10:11.643Z</time></trkpt><trkpt lat="43.8476483" lon="12.1579383"><ele>678.0</ele><time>2026-04-30T13:10:13.651Z</time></trkpt><trkpt lat="43.847725" lon="12.1580433"><ele>679.0</ele><time>2026-04-30T13:10:14.665Z</time></trkpt><trkpt lat="43.84781" lon="12.1581483"><ele>678.8000000000001</ele><time>2026-04-30T13:10:15.65Z</time></trkpt><trkpt lat="43.847895" lon="12.1582517"><ele>678.6</ele><time>2026-04-30T13:10:16.643Z</time></trkpt><trkpt lat="43.8479883" lon="12.15835"><ele>678.4</ele><time>2026-04-30T13:10:17.65Z</time></trkpt><trkpt lat="43.848065" lon="12.1584583"><ele>678.2</ele><time>2026-04-30T13:10:18.652Z</time></trkpt><trkpt lat="43.8481233" lon="12.1585833"><ele>678.0</ele><time>2026-04-30T13:10:19.652Z</time></trkpt><trkpt lat="43.848185" lon="12.158705"><ele>678.0</ele><time>2026-04-30T13:10:20.643Z</time></trkpt><trkpt lat="43.8482533" lon="12.158825"><ele>678.0</ele><time>2026-04-30T13:10:21.651Z</time></trkpt><trkpt lat="43.8483283" lon="12.158945"><ele>678.0</ele><time>2026-04-30T13:10:22.652Z</time></trkpt><trkpt lat="43.84841" lon="12.1590617"><ele>678.0</ele><time>2026-04-30T13:10:23.639Z</time></trkpt><trkpt lat="43.848485" lon="12.1591567"><ele>678.0</ele><time>2026-04-30T13:10:24.655Z</time></trkpt><trkpt lat="43.8485717" lon="12.1592317"><ele>680.6666666666666</ele><time>2026-04-30T13:10:25.653Z</time></trkpt><trkpt lat="43.84867" lon="12.1592867"><ele>683.3333333333334</ele><time>2026-04-30T13:10:26.645Z</time></trkpt><trkpt lat="43.848765" lon="12.159325"><ele>686.0</ele><time>2026-04-30T13:10:27.651Z</time></trkpt><trkpt lat="43.8488433" lon="12.159365"><ele>688.6666666666667</ele><time>2026-04-30T13:10:28.648Z</time></trkpt><trkpt lat="43.8489033" lon="12.159425"><ele>691.3333333333334</ele><time>2026-04-30T13:10:29.651Z</time></trkpt><trkpt lat="43.8489433" lon="12.1595083"><ele>694.0</ele><time>2026-04-30T13:10:30.65Z</time></trkpt><trkpt lat="43.8489483" lon="12.1596017"><ele>694.0</ele><time>2026-04-30T13:10:31.646Z</time></trkpt><trkpt lat="43.84893" lon="12.159705"><ele>694.0</ele><time>2026-04-30T13:10:32.643Z</time></trkpt><trkpt lat="43.8488933" lon="12.159835"><ele>694.0</ele><time>2026-04-30T13:10:33.651Z</time></trkpt><trkpt lat="43.8488533" lon="12.1599717"><ele>694.0</ele><time>2026-04-30T13:10:34.648Z</time></trkpt><trkpt lat="43.8488233" lon="12.1600817"><ele>694.0</ele><time>2026-04-30T13:10:35.641Z</time></trkpt><trkpt lat="43.848795" lon="12.16024"><ele>694.8000000000001</ele><time>2026-04-30T13:10:37.649Z</time></trkpt><trkpt lat="43.8487733" lon="12.1603917"><ele>695.6</ele><time>2026-04-30T13:10:39.648Z</time></trkpt><trkpt lat="43.84878" lon="12.1605117"><ele>696.4</ele><time>2026-04-30T13:10:41.65Z</time></trkpt><trkpt lat="43.8488433" lon="12.1606033"><ele>697.2</ele><time>2026-04-30T13:10:43.655Z</time></trkpt><trkpt lat="43.84892" lon="12.1606667"><ele>698.0</ele><time>2026-04-30T13:10:45.653Z</time></trkpt><trkpt lat="43.8490033" lon="12.1607283"><ele>698.8</ele><time>2026-04-30T13:10:47.647Z</time></trkpt><trkpt lat="43.8490983" lon="12.1607833"><ele>699.5999999999999</ele><time>2026-04-30T13:10:49.653Z</time></trkpt><trkpt lat="43.8491967" lon="12.1608483"><ele>700.4000000000001</ele><time>2026-04-30T13:11:01.654Z</time></trkpt><trkpt lat="43.8492883" lon="12.1609017"><ele>701.2</ele><time>2026-04-30T13:11:03.651Z</time></trkpt><trkpt lat="43.84941" lon="12.1609583"><ele>702.0</ele><time>2026-04-30T13:11:05.646Z</time></trkpt><trkpt lat="43.84947" lon="12.16099"><ele>702.5</ele><time>2026-04-30T13:11:06.644Z</time></trkpt><trkpt lat="43.8495733" lon="12.1610567"><ele>703.0</ele><time>2026-04-30T13:11:08.647Z</time></trkpt><trkpt lat="43.8496717" lon="12.1611317"><ele>703.5</ele><time>2026-04-30T13:11:10.647Z</time></trkpt><trkpt lat="43.8497783" lon="12.16119"><ele>704.0</ele><time>2026-04-30T13:11:12.65Z</time></trkpt><trkpt lat="43.8498833" lon="12.1612367"><ele>704.0</ele><time>2026-04-30T13:11:14.653Z</time></trkpt><trkpt lat="43.8499883" lon="12.16123"><ele>704.0</ele><time>2026-04-30T13:11:16.647Z</time></trkpt><trkpt lat="43.8500917" lon="12.1611417"><ele>704.0</ele><time>2026-04-30T13:11:18.665Z</time></trkpt><trkpt lat="43.8501383" lon="12.1610717"><ele>704.0</ele><time>2026-04-30T13:11:19.649Z</time></trkpt><trkpt lat="43.8501817" lon="12.1609933"><ele>704.0</ele><time>2026-04-30T13:11:20.646Z</time></trkpt><trkpt lat="43.85022" lon="12.160905"><ele>704.0</ele><time>2026-04-30T13:11:21.653Z</time></trkpt><trkpt lat="43.8502567" lon="12.1608167"><ele>700.1666666666666</ele><time>2026-04-30T13:11:22.657Z</time></trkpt><trkpt lat="43.8502983" lon="12.1607233"><ele>696.3333333333333</ele><time>2026-04-30T13:11:23.658Z</time></trkpt><trkpt lat="43.85034" lon="12.1606283"><ele>692.5</ele><time>2026-04-30T13:11:24.657Z</time></trkpt><trkpt lat="43.850385" lon="12.1605333"><ele>688.6666666666666</ele><time>2026-04-30T13:11:25.646Z</time></trkpt><trkpt lat="43.8504267" lon="12.1604417"><ele>684.8333333333334</ele><time>2026-04-30T13:11:26.655Z</time></trkpt><trkpt lat="43.850475" lon="12.16035"><ele>681.0</ele><time>2026-04-30T13:11:27.648Z</time></trkpt><trkpt lat="43.850525" lon="12.1602567"><ele>681.0</ele><time>2026-04-30T13:11:28.65Z</time></trkpt><trkpt lat="43.8505783" lon="12.1601633"><ele>681.0</ele><time>2026-04-30T13:11:29.653Z</time></trkpt><trkpt lat="43.850645" lon="12.1600733"><ele>681.0</ele><time>2026-04-30T13:11:30.648Z</time></trkpt><trkpt lat="43.8507067" lon="12.159985"><ele>681.0</ele><time>2026-04-30T13:11:31.655Z</time></trkpt><trkpt lat="43.8507717" lon="12.1599033"><ele>681.0</ele><time>2026-04-30T13:11:32.653Z</time></trkpt><trkpt lat="43.85084" lon="12.1598367"><ele>681.0</ele><time>2026-04-30T13:11:33.651Z</time></trkpt><trkpt lat="43.8509017" lon="12.1597783"><ele>682.0</ele><time>2026-04-30T13:11:34.649Z</time></trkpt><trkpt lat="43.85096" lon="12.1597367"><ele>683.0</ele><time>2026-04-30T13:11:35.643Z</time></trkpt><trkpt lat="43.8510683" lon="12.159675"><ele>684.0</ele><time>2026-04-30T13:11:37.66Z</time></trkpt><trkpt lat="43.8511783" lon="12.1596433"><ele>685.0</ele><time>2026-04-30T13:11:39.653Z</time></trkpt><trkpt lat="43.85129" lon="12.15967"><ele>686.0</ele><time>2026-04-30T13:11:41.642Z</time></trkpt><trkpt lat="43.8513983" lon="12.1597233"><ele>686.0</ele><time>2026-04-30T13:11:43.648Z</time></trkpt><trkpt lat="43.8515017" lon="12.1597233"><ele>686.0</ele><time>2026-04-30T13:11:45.657Z</time></trkpt><trkpt lat="43.851615" lon="12.15962"><ele>686.0</ele><time>2026-04-30T13:11:47.651Z</time></trkpt><trkpt lat="43.8516767" lon="12.1595517"><ele>686.0</ele><time>2026-04-30T13:11:48.652Z</time></trkpt><trkpt lat="43.85174" lon="12.1594783"><ele>686.0</ele><time>2026-04-30T13:11:49.658Z</time></trkpt><trkpt lat="43.8518017" lon="12.1594033"><ele>682.7142857142857</ele><time>2026-04-30T13:11:50.657Z</time></trkpt><trkpt lat="43.8518567" lon="12.1593367"><ele>679.4285714285714</ele><time>2026-04-30T13:11:51.649Z</time></trkpt><trkpt lat="43.85191" lon="12.1592683"><ele>676.1428571428571</ele><time>2026-04-30T13:11:52.646Z</time></trkpt><trkpt lat="43.8519667" lon="12.1592117"><ele>672.8571428571429</ele><time>2026-04-30T13:11:53.65Z</time></trkpt><trkpt lat="43.852025" lon="12.1591633"><ele>669.5714285714286</ele><time>2026-04-30T13:11:54.647Z</time></trkpt><trkpt lat="43.85209" lon="12.15914"><ele>666.2857142857142</ele><time>2026-04-30T13:11:55.649Z</time></trkpt><trkpt lat="43.8521667" lon="12.1591317"><ele>663.0</ele><time>2026-04-30T13:11:56.65Z</time></trkpt><trkpt lat="43.8522433" lon="12.1591417"><ele>663.0</ele><time>2026-04-30T13:11:57.659Z</time></trkpt><trkpt lat="43.8523283" lon="12.1591617"><ele>663.0</ele><time>2026-04-30T13:11:58.644Z</time></trkpt><trkpt lat="43.8524167" lon="12.1591767"><ele>663.0</ele><time>2026-04-30T13:11:59.648Z</time></trkpt><trkpt lat="43.8525117" lon="12.1591867"><ele>663.0</ele><time>2026-04-30T13:12:00.649Z</time></trkpt><trkpt lat="43.8526" lon="12.1591917"><ele>663.0</ele><time>2026-04-30T13:12:01.65Z</time></trkpt><trkpt lat="43.85268" lon="12.1591933"><ele>663.0</ele><time>2026-04-30T13:12:02.641Z</time></trkpt><trkpt lat="43.85276" lon="12.1591833"><ele>664.0</ele><time>2026-04-30T13:12:03.651Z</time></trkpt><trkpt lat="43.8528283" lon="12.159165"><ele>665.0</ele><time>2026-04-30T13:12:04.645Z</time></trkpt><trkpt lat="43.8529533" lon="12.159145"><ele>666.0</ele><time>2026-04-30T13:12:06.649Z</time></trkpt><trkpt lat="43.8530183" lon="12.159165"><ele>667.0</ele><time>2026-04-30T13:12:07.643Z</time></trkpt><trkpt lat="43.8530867" lon="12.15921"><ele>668.0</ele><time>2026-04-30T13:12:08.645Z</time></trkpt><trkpt lat="43.8531583" lon="12.1592883"><ele>669.0</ele><time>2026-04-30T13:12:09.644Z</time></trkpt><trkpt lat="43.8532167" lon="12.1593717"><ele>669.0</ele><time>2026-04-30T13:12:10.641Z</time></trkpt><trkpt lat="43.8532683" lon="12.1594483"><ele>669.0</ele><time>2026-04-30T13:12:11.648Z</time></trkpt><trkpt lat="43.85332" lon="12.1595133"><ele>669.0</ele><time>2026-04-30T13:12:12.647Z</time></trkpt><trkpt lat="43.8533767" lon="12.1595633"><ele>669.0</ele><time>2026-04-30T13:12:13.641Z</time></trkpt><trkpt lat="43.8534367" lon="12.1595917"><ele>669.0</ele><time>2026-04-30T13:12:14.649Z</time></trkpt><trkpt lat="43.8535533" lon="12.1595817"><ele>669.0</ele><time>2026-04-30T13:12:16.646Z</time></trkpt><trkpt lat="43.8536183" lon="12.1595483"><ele>668.7142857142858</ele><time>2026-04-30T13:12:17.644Z</time></trkpt><trkpt lat="43.8536867" lon="12.15952"><ele>668.4285714285714</ele><time>2026-04-30T13:12:18.645Z</time></trkpt><trkpt lat="43.8537567" lon="12.1594983"><ele>668.1428571428571</ele><time>2026-04-30T13:12:19.655Z</time></trkpt><trkpt lat="43.8538233" lon="12.15949"><ele>667.8571428571429</ele><time>2026-04-30T13:12:20.648Z</time></trkpt><trkpt lat="43.8538917" lon="12.159495"><ele>667.5714285714286</ele><time>2026-04-30T13:12:21.645Z</time></trkpt><trkpt lat="43.8539617" lon="12.15953"><ele>667.2857142857143</ele><time>2026-04-30T13:12:22.64Z</time></trkpt><trkpt lat="43.8540267" lon="12.15958"><ele>667.0</ele><time>2026-04-30T13:12:23.652Z</time></trkpt><trkpt lat="43.8540933" lon="12.1596217"><ele>667.0</ele><time>2026-04-30T13:12:24.659Z</time></trkpt><trkpt lat="43.8541733" lon="12.1596583"><ele>667.0</ele><time>2026-04-30T13:12:25.645Z</time></trkpt><trkpt lat="43.8542567" lon="12.15969"><ele>667.0</ele><time>2026-04-30T13:12:26.648Z</time></trkpt><trkpt lat="43.8543467" lon="12.15972"><ele>667.0</ele><time>2026-04-30T13:12:27.651Z</time></trkpt><trkpt lat="43.8544483" lon="12.15975"><ele>667.0</ele><time>2026-04-30T13:12:28.645Z</time></trkpt><trkpt lat="43.854555" lon="12.15978"><ele>660.2</ele><time>2026-04-30T13:12:29.656Z</time></trkpt><trkpt lat="43.85465" lon="12.1598067"><ele>653.4000000000001</ele><time>2026-04-30T13:12:30.644Z</time></trkpt><trkpt lat="43.8547383" lon="12.1598217"><ele>646.5999999999999</ele><time>2026-04-30T13:12:31.649Z</time></trkpt><trkpt lat="43.85482" lon="12.1598317"><ele>639.8</ele><time>2026-04-30T13:12:32.65Z</time></trkpt><trkpt lat="43.8548917" lon="12.1598217"><ele>633.0</ele><time>2026-04-30T13:12:33.651Z</time></trkpt><trkpt lat="43.8550083" lon="12.1597833"><ele>633.0</ele><time>2026-04-30T13:12:35.649Z</time></trkpt><trkpt lat="43.8551067" lon="12.159705"><ele>633.0</ele><time>2026-04-30T13:12:37.646Z</time></trkpt><trkpt lat="43.8551983" lon="12.1596317"><ele>633.0</ele><time>2026-04-30T13:12:39.652Z</time></trkpt><trkpt lat="43.8552867" lon="12.1596433"><ele>633.0</ele><time>2026-04-30T13:12:41.651Z</time></trkpt><trkpt lat="43.855325" lon="12.1597167"><ele>633.0</ele><time>2026-04-30T13:12:43.645Z</time></trkpt><trkpt lat="43.8552917" lon="12.1598017"><ele>633.0</ele><time>2026-04-30T13:12:45.653Z</time></trkpt><trkpt lat="43.8551683" lon="12.1598883"><ele>631.6666666666666</ele><time>2026-04-30T13:12:47.649Z</time></trkpt><trkpt lat="43.855095" lon="12.15994"><ele>630.3333333333334</ele><time>2026-04-30T13:12:48.652Z</time></trkpt><trkpt lat="43.8550183" lon="12.16"><ele>629.0</ele><time>2026-04-30T13:12:49.651Z</time></trkpt><trkpt lat="43.8549383" lon="12.1600683"><ele>627.6666666666667</ele><time>2026-04-30T13:12:50.646Z</time></trkpt><trkpt lat="43.8548633" lon="12.1601367"><ele>626.3333333333334</ele><time>2026-04-30T13:12:51.651Z</time></trkpt><trkpt lat="43.854795" lon="12.1602017"><ele>625.0</ele><time>2026-04-30T13:12:52.646Z</time></trkpt><trkpt lat="43.8547317" lon="12.160255"><ele>625.0</ele><time>2026-04-30T13:12:53.64Z</time></trkpt><trkpt lat="43.85467" lon="12.160285"><ele>625.0</ele><time>2026-04-30T13:12:54.641Z</time></trkpt><trkpt lat="43.8545683" lon="12.1603033"><ele>625.0</ele><time>2026-04-30T13:12:56.649Z</time></trkpt><trkpt lat="43.8545" lon="12.1603583"><ele>625.0</ele><time>2026-04-30T13:12:58.643Z</time></trkpt><trkpt lat="43.8544933" lon="12.16046"><ele>625.0</ele><time>2026-04-30T13:13:00.647Z</time></trkpt><trkpt lat="43.8545783" lon="12.1605283"><ele>625.0</ele><time>2026-04-30T13:13:02.649Z</time></trkpt><trkpt lat="43.8546583" lon="12.16053"><ele>625.0</ele><time>2026-04-30T13:13:03.649Z</time></trkpt><trkpt lat="43.854735" lon="12.1605017"><ele>625.0</ele><time>2026-04-30T13:13:04.651Z</time></trkpt><trkpt lat="43.854805" lon="12.160465"><ele>625.0</ele><time>2026-04-30T13:13:05.651Z</time></trkpt><trkpt lat="43.8548833" lon="12.1604167"><ele>625.0</ele><time>2026-04-30T13:13:06.646Z</time></trkpt><trkpt lat="43.85496" lon="12.1603683"><ele>625.0</ele><time>2026-04-30T13:13:07.649Z</time></trkpt><trkpt lat="43.8550383" lon="12.1603317"><ele>625.0</ele><time>2026-04-30T13:13:08.64Z</time></trkpt><trkpt lat="43.8551183" lon="12.1603033"><ele>621.2857142857143</ele><time>2026-04-30T13:13:09.654Z</time></trkpt><trkpt lat="43.855195" lon="12.16029"><ele>617.5714285714286</ele><time>2026-04-30T13:13:10.647Z</time></trkpt><trkpt lat="43.8552717" lon="12.1602783"><ele>613.8571428571429</ele><time>2026-04-30T13:13:11.648Z</time></trkpt><trkpt lat="43.855345" lon="12.1602617"><ele>610.1428571428571</ele><time>2026-04-30T13:13:12.649Z</time></trkpt><trkpt lat="43.855415" lon="12.1602333"><ele>606.4285714285714</ele><time>2026-04-30T13:13:13.658Z</time></trkpt><trkpt lat="43.85548" lon="12.1602"><ele>602.7142857142858</ele><time>2026-04-30T13:13:14.647Z</time></trkpt><trkpt lat="43.8555483" lon="12.1601583"><ele>599.0</ele><time>2026-04-30T13:13:15.65Z</time></trkpt><trkpt lat="43.8556133" lon="12.1601217"><ele>599.0</ele><time>2026-04-30T13:13:16.647Z</time></trkpt><trkpt lat="43.85568" lon="12.1600933"><ele>599.0</ele><time>2026-04-30T13:13:17.644Z</time></trkpt><trkpt lat="43.8557433" lon="12.1600733"><ele>599.0</ele><time>2026-04-30T13:13:18.643Z</time></trkpt><trkpt lat="43.8558417" lon="12.1600733"><ele>599.0</ele><time>2026-04-30T13:13:20.653Z</time></trkpt><trkpt lat="43.8558867" lon="12.160135"><ele>599.0</ele><time>2026-04-30T13:13:23.647Z</time></trkpt><trkpt lat="43.855815" lon="12.160215"><ele>599.0</ele><time>2026-04-30T13:13:27.652Z</time></trkpt><trkpt lat="43.8557117" lon="12.16027"><ele>599.0</ele><time>2026-04-30T13:13:29.655Z</time></trkpt><trkpt lat="43.8556033" lon="12.1603683"><ele>599.0</ele><time>2026-04-30T13:13:31.651Z</time></trkpt><trkpt lat="43.8555333" lon="12.1604133"><ele>599.0</ele><time>2026-04-30T13:13:32.646Z</time></trkpt><trkpt lat="43.8554433" lon="12.1604433"><ele>599.0</ele><time>2026-04-30T13:13:33.652Z</time></trkpt><trkpt lat="43.8553333" lon="12.1604417"><ele>599.0</ele><time>2026-04-30T13:13:34.65Z</time></trkpt><trkpt lat="43.85523" lon="12.1604517"><ele>599.0</ele><time>2026-04-30T13:13:35.646Z</time></trkpt><trkpt lat="43.8551433" lon="12.160485"><ele>599.0</ele><time>2026-04-30T13:13:36.643Z</time></trkpt><trkpt lat="43.855075" lon="12.1605517"><ele>599.0</ele><time>2026-04-30T13:13:37.652Z</time></trkpt><trkpt lat="43.855015" lon="12.160635"><ele>599.0</ele><time>2026-04-30T13:13:38.646Z</time></trkpt><trkpt lat="43.854975" lon="12.1607533"><ele>599.0</ele><time>2026-04-30T13:13:39.645Z</time></trkpt><trkpt lat="43.8549433" lon="12.1608983"><ele>599.8333333333333</ele><time>2026-04-30T13:13:40.644Z</time></trkpt><trkpt lat="43.8549067" lon="12.16102"><ele>600.6666666666666</ele><time>2026-04-30T13:13:41.648Z</time></trkpt><trkpt lat="43.8548617" lon="12.161125"><ele>601.5</ele><time>2026-04-30T13:13:42.653Z</time></trkpt><trkpt lat="43.854805" lon="12.1611983"><ele>602.3333333333334</ele><time>2026-04-30T13:13:43.645Z</time></trkpt><trkpt lat="43.8547333" lon="12.1612433"><ele>603.1666666666667</ele><time>2026-04-30T13:13:44.644Z</time></trkpt><trkpt lat="43.8546533" lon="12.161255"><ele>604.0</ele><time>2026-04-30T13:13:45.654Z</time></trkpt><trkpt lat="43.854565" lon="12.1612367"><ele>604.0</ele><time>2026-04-30T13:13:46.649Z</time></trkpt><trkpt lat="43.8544783" lon="12.161175"><ele>604.0</ele><time>2026-04-30T13:13:47.652Z</time></trkpt><trkpt lat="43.8544" lon="12.16108"><ele>604.0</ele><time>2026-04-30T13:13:48.647Z</time></trkpt><trkpt lat="43.8543283" lon="12.160985"><ele>604.0</ele><time>2026-04-30T13:13:49.649Z</time></trkpt><trkpt lat="43.85426" lon="12.160895"><ele>604.0</ele><time>2026-04-30T13:13:50.649Z</time></trkpt><trkpt lat="43.8541967" lon="12.1608"><ele>603.8</ele><time>2026-04-30T13:13:51.651Z</time></trkpt><trkpt lat="43.854135" lon="12.1607017"><ele>603.5999999999999</ele><time>2026-04-30T13:13:52.649Z</time></trkpt><trkpt lat="43.85407" lon="12.1606067"><ele>603.4</ele><time>2026-04-30T13:13:53.645Z</time></trkpt><trkpt lat="43.8540033" lon="12.16052"><ele>603.1999999999999</ele><time>2026-04-30T13:13:54.648Z</time></trkpt><trkpt lat="43.85392" lon="12.16046"><ele>603.0</ele><time>2026-04-30T13:13:55.647Z</time></trkpt><trkpt lat="43.853835" lon="12.1604167"><ele>609.25</ele><time>2026-04-30T13:13:56.659Z</time></trkpt><trkpt lat="43.8537283" lon="12.160405"><ele>615.5</ele><time>2026-04-30T13:13:57.652Z</time></trkpt><trkpt lat="43.8535933" lon="12.1604033"><ele>621.75</ele><time>2026-04-30T13:13:58.647Z</time></trkpt><trkpt lat="43.853445" lon="12.1604017"><ele>628.0</ele><time>2026-04-30T13:13:59.646Z</time></trkpt><trkpt lat="43.8532967" lon="12.1604017"><ele>628.0</ele><time>2026-04-30T13:14:00.645Z</time></trkpt><trkpt lat="43.8531683" lon="12.1603967"><ele>628.0</ele><time>2026-04-30T13:14:01.651Z</time></trkpt><trkpt lat="43.8530483" lon="12.160385"><ele>628.0</ele><time>2026-04-30T13:14:02.654Z</time></trkpt><trkpt lat="43.85294" lon="12.160385"><ele>628.0</ele><time>2026-04-30T13:14:03.648Z</time></trkpt><trkpt lat="43.8528367" lon="12.1604"><ele>628.0</ele><time>2026-04-30T13:14:04.647Z</time></trkpt><trkpt lat="43.8527283" lon="12.16044"><ele>628.0</ele><time>2026-04-30T13:14:05.653Z</time></trkpt><trkpt lat="43.8526233" lon="12.1604817"><ele>628.0</ele><time>2026-04-30T13:14:06.652Z</time></trkpt><trkpt lat="43.85252" lon="12.1605383"><ele>628.0</ele><time>2026-04-30T13:14:07.652Z</time></trkpt><trkpt lat="43.8524233" lon="12.1606217"><ele>628.0</ele><time>2026-04-30T13:14:08.646Z</time></trkpt><trkpt lat="43.852335" lon="12.160725"><ele>619.75</ele><time>2026-04-30T13:14:09.657Z</time></trkpt><trkpt lat="43.852255" lon="12.160825"><ele>611.5</ele><time>2026-04-30T13:14:10.646Z</time></trkpt><trkpt lat="43.8521867" lon="12.1609517"><ele>603.25</ele><time>2026-04-30T13:14:11.644Z</time></trkpt><trkpt lat="43.8521317" lon="12.1610983"><ele>595.0</ele><time>2026-04-30T13:14:12.651Z</time></trkpt><trkpt lat="43.852085" lon="12.1612433"><ele>595.0</ele><time>2026-04-30T13:14:13.647Z</time></trkpt><trkpt lat="43.852045" lon="12.1613633"><ele>595.0</ele><time>2026-04-30T13:14:14.645Z</time></trkpt><trkpt lat="43.8520017" lon="12.1614717"><ele>595.0</ele><time>2026-04-30T13:14:15.646Z</time></trkpt><trkpt lat="43.8519417" lon="12.161525"><ele>595.0</ele><time>2026-04-30T13:14:16.649Z</time></trkpt><trkpt lat="43.8518717" lon="12.1615667"><ele>595.0</ele><time>2026-04-30T13:14:17.649Z</time></trkpt><trkpt lat="43.8518033" lon="12.1616117"><ele>595.0</ele><time>2026-04-30T13:14:18.646Z</time></trkpt><trkpt lat="43.851735" lon="12.1617"><ele>595.75</ele><time>2026-04-30T13:14:19.644Z</time></trkpt><trkpt lat="43.8516833" lon="12.1618717"><ele>596.5</ele><time>2026-04-30T13:14:20.642Z</time></trkpt><trkpt lat="43.851605" lon="12.16205"><ele>597.25</ele><time>2026-04-30T13:14:21.649Z</time></trkpt><trkpt lat="43.85152" lon="12.16223"><ele>598.0</ele><time>2026-04-30T13:14:22.651Z</time></trkpt><trkpt lat="43.85143" lon="12.162405"><ele>594.0</ele><time>2026-04-30T13:14:23.642Z</time></trkpt><trkpt lat="43.851345" lon="12.1625817"><ele>590.0</ele><time>2026-04-30T13:14:24.644Z</time></trkpt><trkpt lat="43.8512667" lon="12.162755"><ele>586.0</ele><time>2026-04-30T13:14:25.647Z</time></trkpt><trkpt lat="43.8511867" lon="12.1629183"><ele>582.0</ele><time>2026-04-30T13:14:26.645Z</time></trkpt><trkpt lat="43.8511167" lon="12.16307"><ele>579.2</ele><time>2026-04-30T13:14:27.643Z</time></trkpt><trkpt lat="43.85106" lon="12.1632283"><ele>576.4000000000001</ele><time>2026-04-30T13:14:28.65Z</time></trkpt><trkpt lat="43.8510183" lon="12.1633917"><ele>573.5999999999999</ele><time>2026-04-30T13:14:29.644Z</time></trkpt><trkpt lat="43.8509883" lon="12.16352"><ele>570.8</ele><time>2026-04-30T13:14:30.646Z</time></trkpt><trkpt lat="43.8509533" lon="12.163625"><ele>568.0</ele><time>2026-04-30T13:14:31.653Z</time></trkpt><trkpt lat="43.8509083" lon="12.1636933"><ele>574.4</ele><time>2026-04-30T13:14:32.639Z</time></trkpt><trkpt lat="43.850795" lon="12.1637283"><ele>580.8</ele><time>2026-04-30T13:14:34.648Z</time></trkpt><trkpt lat="43.8507167" lon="12.1636883"><ele>587.2</ele><time>2026-04-30T13:14:35.648Z</time></trkpt><trkpt lat="43.8506167" lon="12.163615"><ele>593.6</ele><time>2026-04-30T13:14:36.651Z</time></trkpt><trkpt lat="43.8505083" lon="12.163535"><ele>600.0</ele><time>2026-04-30T13:14:37.646Z</time></trkpt><trkpt lat="43.850415" lon="12.16348"><ele>600.0</ele><time>2026-04-30T13:14:38.651Z</time></trkpt><trkpt lat="43.85033" lon="12.16345"><ele>600.0</ele><time>2026-04-30T13:14:39.645Z</time></trkpt><trkpt lat="43.8502367" lon="12.163435"><ele>600.0</ele><time>2026-04-30T13:14:40.641Z</time></trkpt><trkpt lat="43.850125" lon="12.163445"><ele>600.0</ele><time>2026-04-30T13:14:41.646Z</time></trkpt><trkpt lat="43.8500033" lon="12.1634683"><ele>600.0</ele><time>2026-04-30T13:14:42.642Z</time></trkpt><trkpt lat="43.8498833" lon="12.1634917"><ele>602.0</ele><time>2026-04-30T13:14:43.645Z</time></trkpt><trkpt lat="43.84977" lon="12.1635133"><ele>604.0</ele><time>2026-04-30T13:14:44.643Z</time></trkpt><trkpt lat="43.8496767" lon="12.1635133"><ele>606.0</ele><time>2026-04-30T13:14:45.651Z</time></trkpt><trkpt lat="43.849595" lon="12.163525"><ele>608.0</ele><time>2026-04-30T13:14:46.655Z</time></trkpt><trkpt lat="43.8495167" lon="12.1635767"><ele>610.0</ele><time>2026-04-30T13:14:47.644Z</time></trkpt><trkpt lat="43.8494367" lon="12.163645"><ele>610.0</ele><time>2026-04-30T13:14:48.642Z</time></trkpt><trkpt lat="43.8493533" lon="12.1637033"><ele>610.0</ele><time>2026-04-30T13:14:49.648Z</time></trkpt><trkpt lat="43.8492717" lon="12.1638017"><ele>610.0</ele><time>2026-04-30T13:14:50.657Z</time></trkpt><trkpt lat="43.8491933" lon="12.1639017"><ele>610.0</ele><time>2026-04-30T13:14:51.654Z</time></trkpt><trkpt lat="43.8491233" lon="12.1640067"><ele>610.0</ele><time>2026-04-30T13:14:52.647Z</time></trkpt><trkpt lat="43.8490583" lon="12.1641167"><ele>606.25</ele><time>2026-04-30T13:14:53.644Z</time></trkpt><trkpt lat="43.8489933" lon="12.1642367"><ele>602.5</ele><time>2026-04-30T13:14:54.645Z</time></trkpt><trkpt lat="43.8489267" lon="12.16437"><ele>598.75</ele><time>2026-04-30T13:14:55.647Z</time></trkpt><trkpt lat="43.8488667" lon="12.1645067"><ele>595.0</ele><time>2026-04-30T13:14:56.645Z</time></trkpt><trkpt lat="43.848815" lon="12.1646617"><ele>595.0</ele><time>2026-04-30T13:14:57.649Z</time></trkpt><trkpt lat="43.8487733" lon="12.1648283"><ele>595.0</ele><time>2026-04-30T13:14:58.642Z</time></trkpt><trkpt lat="43.8487383" lon="12.1649917"><ele>595.0</ele><time>2026-04-30T13:14:59.645Z</time></trkpt><trkpt lat="43.8486967" lon="12.165135"><ele>595.0</ele><time>2026-04-30T13:15:00.65Z</time></trkpt><trkpt lat="43.8486517" lon="12.165245"><ele>592.5</ele><time>2026-04-30T13:15:01.65Z</time></trkpt><trkpt lat="43.84861" lon="12.1653367"><ele>590.0</ele><time>2026-04-30T13:15:02.646Z</time></trkpt><trkpt lat="43.84858" lon="12.1654167"><ele>587.5</ele><time>2026-04-30T13:15:03.654Z</time></trkpt><trkpt lat="43.8485583" lon="12.1655033"><ele>585.0</ele><time>2026-04-30T13:15:04.645Z</time></trkpt><trkpt lat="43.848525" lon="12.1656167"><ele>582.5</ele><time>2026-04-30T13:15:06.65Z</time></trkpt><trkpt lat="43.848465" lon="12.1657433"><ele>580.0</ele><time>2026-04-30T13:15:28.648Z</time></trkpt><trkpt lat="43.8484483" lon="12.1658767"><ele>579.6666666666667</ele><time>2026-04-30T13:15:30.657Z</time></trkpt><trkpt lat="43.848485" lon="12.1660217"><ele>579.3333333333334</ele><time>2026-04-30T13:15:32.647Z</time></trkpt><trkpt lat="43.8485183" lon="12.1661033"><ele>579.0</ele><time>2026-04-30T13:15:33.657Z</time></trkpt><trkpt lat="43.848565" lon="12.1661867"><ele>578.6666666666666</ele><time>2026-04-30T13:15:34.651Z</time></trkpt><trkpt lat="43.848605" lon="12.1662883"><ele>578.3333333333333</ele><time>2026-04-30T13:15:35.654Z</time></trkpt><trkpt lat="43.84864" lon="12.1664167"><ele>578.0</ele><time>2026-04-30T13:15:36.657Z</time></trkpt><trkpt lat="43.84866" lon="12.16655"><ele>580.0</ele><time>2026-04-30T13:15:37.65Z</time></trkpt><trkpt lat="43.84867" lon="12.1666717"><ele>582.0</ele><time>2026-04-30T13:15:38.656Z</time></trkpt><trkpt lat="43.84868" lon="12.1667967"><ele>584.0</ele><time>2026-04-30T13:15:39.649Z</time></trkpt><trkpt lat="43.8486967" lon="12.1669417"><ele>586.0</ele><time>2026-04-30T13:15:40.665Z</time></trkpt><trkpt lat="43.84872" lon="12.1671"><ele>588.0</ele><time>2026-04-30T13:15:41.648Z</time></trkpt><trkpt lat="43.8487467" lon="12.1672517"><ele>590.4</ele><time>2026-04-30T13:15:42.646Z</time></trkpt><trkpt lat="43.8487783" lon="12.1673917"><ele>592.8</ele><time>2026-04-30T13:15:43.645Z</time></trkpt><trkpt lat="43.8488083" lon="12.1675217"><ele>595.2</ele><time>2026-04-30T13:15:44.647Z</time></trkpt><trkpt lat="43.8488317" lon="12.1676433"><ele>597.6</ele><time>2026-04-30T13:15:45.644Z</time></trkpt><trkpt lat="43.8488467" lon="12.16776"><ele>600.0</ele><time>2026-04-30T13:15:46.646Z</time></trkpt><trkpt lat="43.8488533" lon="12.1678733"><ele>600.0</ele><time>2026-04-30T13:15:47.641Z</time></trkpt><trkpt lat="43.8488433" lon="12.1679883"><ele>600.0</ele><time>2026-04-30T13:15:48.653Z</time></trkpt><trkpt lat="43.8488233" lon="12.1681067"><ele>600.0</ele><time>2026-04-30T13:15:49.648Z</time></trkpt><trkpt lat="43.8488017" lon="12.168225"><ele>600.0</ele><time>2026-04-30T13:15:50.646Z</time></trkpt><trkpt lat="43.8487817" lon="12.16834"><ele>600.0</ele><time>2026-04-30T13:15:51.65Z</time></trkpt><trkpt lat="43.8487517" lon="12.16845"><ele>600.0</ele><time>2026-04-30T13:15:52.662Z</time></trkpt><trkpt lat="43.8487067" lon="12.1685567"><ele>599.5</ele><time>2026-04-30T13:15:53.646Z</time></trkpt><trkpt lat="43.848655" lon="12.1686567"><ele>599.0</ele><time>2026-04-30T13:15:54.654Z</time></trkpt><trkpt lat="43.8486033" lon="12.168745"><ele>598.5</ele><time>2026-04-30T13:15:55.645Z</time></trkpt><trkpt lat="43.8485533" lon="12.168825"><ele>598.0</ele><time>2026-04-30T13:15:56.646Z</time></trkpt><trkpt lat="43.8485033" lon="12.1689017"><ele>597.5</ele><time>2026-04-30T13:15:57.648Z</time></trkpt><trkpt lat="43.8484433" lon="12.1689717"><ele>597.0</ele><time>2026-04-30T13:15:58.662Z</time></trkpt><trkpt lat="43.8483733" lon="12.1690333"><ele>600.4</ele><time>2026-04-30T13:15:59.647Z</time></trkpt><trkpt lat="43.8482917" lon="12.1690917"><ele>603.8000000000001</ele><time>2026-04-30T13:16:00.652Z</time></trkpt><trkpt lat="43.8481983" lon="12.16914"><ele>607.2</ele><time>2026-04-30T13:16:01.655Z</time></trkpt><trkpt lat="43.8481" lon="12.1691967"><ele>610.6</ele><time>2026-04-30T13:16:02.642Z</time></trkpt><trkpt lat="43.8480133" lon="12.16927"><ele>614.0</ele><time>2026-04-30T13:16:03.647Z</time></trkpt><trkpt lat="43.847935" lon="12.16936"><ele>614.0</ele><time>2026-04-30T13:16:04.642Z</time></trkpt><trkpt lat="43.84786" lon="12.16947"><ele>614.0</ele><time>2026-04-30T13:16:05.647Z</time></trkpt><trkpt lat="43.8477933" lon="12.1695833"><ele>614.0</ele><time>2026-04-30T13:16:06.652Z</time></trkpt><trkpt lat="43.8477283" lon="12.1696967"><ele>614.0</ele><time>2026-04-30T13:16:07.651Z</time></trkpt><trkpt lat="43.8476667" lon="12.169805"><ele>614.0</ele><time>2026-04-30T13:16:08.649Z</time></trkpt><trkpt lat="43.8476083" lon="12.16991"><ele>613.6</ele><time>2026-04-30T13:16:09.664Z</time></trkpt><trkpt lat="43.8475517" lon="12.1700167"><ele>613.2</ele><time>2026-04-30T13:16:10.647Z</time></trkpt><trkpt lat="43.8474917" lon="12.1701133"><ele>612.8000000000001</ele><time>2026-04-30T13:16:11.65Z</time></trkpt><trkpt lat="43.8474267" lon="12.170215"><ele>612.4</ele><time>2026-04-30T13:16:12.649Z</time></trkpt><trkpt lat="43.84736" lon="12.17031"><ele>612.0</ele><time>2026-04-30T13:16:13.657Z</time></trkpt><trkpt lat="43.8472967" lon="12.1704133"><ele>612.0</ele><time>2026-04-30T13:16:14.653Z</time></trkpt><trkpt lat="43.8472417" lon="12.1705233"><ele>612.0</ele><time>2026-04-30T13:16:15.647Z</time></trkpt><trkpt lat="43.8471933" lon="12.1706417"><ele>612.0</ele><time>2026-04-30T13:16:16.653Z</time></trkpt><trkpt lat="43.84715" lon="12.1707783"><ele>612.0</ele><time>2026-04-30T13:16:17.649Z</time></trkpt><trkpt lat="43.8471067" lon="12.1709117"><ele>612.0</ele><time>2026-04-30T13:16:18.645Z</time></trkpt><trkpt lat="43.84706" lon="12.1710467"><ele>609.4</ele><time>2026-04-30T13:16:19.65Z</time></trkpt><trkpt lat="43.84701" lon="12.1711767"><ele>606.8000000000001</ele><time>2026-04-30T13:16:20.649Z</time></trkpt><trkpt lat="43.8469583" lon="12.1713033"><ele>604.2</ele><time>2026-04-30T13:16:21.649Z</time></trkpt><trkpt lat="43.84691" lon="12.1714283"><ele>601.6</ele><time>2026-04-30T13:16:22.652Z</time></trkpt><trkpt lat="43.8468633" lon="12.1715533"><ele>599.0</ele><time>2026-04-30T13:16:23.645Z</time></trkpt><trkpt lat="43.8468167" lon="12.1716783"><ele>599.8</ele><time>2026-04-30T13:16:24.641Z</time></trkpt><trkpt lat="43.84677" lon="12.1718017"><ele>600.5999999999999</ele><time>2026-04-30T13:16:25.647Z</time></trkpt><trkpt lat="43.8467283" lon="12.1719217"><ele>601.4</ele><time>2026-04-30T13:16:26.65Z</time></trkpt><trkpt lat="43.8466883" lon="12.172045"><ele>602.1999999999999</ele><time>2026-04-30T13:16:27.658Z</time></trkpt><trkpt lat="43.84666" lon="12.1721783"><ele>603.0</ele><time>2026-04-30T13:16:28.648Z</time></trkpt><trkpt lat="43.8466433" lon="12.1723217"><ele>601.8</ele><time>2026-04-30T13:16:29.641Z</time></trkpt><trkpt lat="43.8466367" lon="12.1724683"><ele>600.5999999999999</ele><time>2026-04-30T13:16:30.653Z</time></trkpt><trkpt lat="43.8466333" lon="12.172615"><ele>599.4000000000001</ele><time>2026-04-30T13:16:31.647Z</time></trkpt><trkpt lat="43.84663" lon="12.1727633"><ele>598.2</ele><time>2026-04-30T13:16:32.644Z</time></trkpt><trkpt lat="43.846625" lon="12.1728933"><ele>597.0</ele><time>2026-04-30T13:16:33.641Z</time></trkpt><trkpt lat="43.8466283" lon="12.1730117"><ele>597.0</ele><time>2026-04-30T13:16:34.639Z</time></trkpt><trkpt lat="43.8466483" lon="12.1731167"><ele>597.0</ele><time>2026-04-30T13:16:35.649Z</time></trkpt><trkpt lat="43.8466867" lon="12.1732017"><ele>597.0</ele><time>2026-04-30T13:16:36.642Z</time></trkpt><trkpt lat="43.846745" lon="12.173275"><ele>597.0</ele><time>2026-04-30T13:16:37.645Z</time></trkpt><trkpt lat="43.84684" lon="12.1733417"><ele>597.0</ele><time>2026-04-30T13:16:38.646Z</time></trkpt><trkpt lat="43.84694" lon="12.173405"><ele>597.0</ele><time>2026-04-30T13:16:39.646Z</time></trkpt><trkpt lat="43.8470333" lon="12.1734833"><ele>591.5</ele><time>2026-04-30T13:16:40.641Z</time></trkpt><trkpt lat="43.8471183" lon="12.1735883"><ele>586.0</ele><time>2026-04-30T13:16:41.652Z</time></trkpt><trkpt lat="43.8472017" lon="12.1737217"><ele>580.5</ele><time>2026-04-30T13:16:42.644Z</time></trkpt><trkpt lat="43.8472867" lon="12.1738717"><ele>575.0</ele><time>2026-04-30T13:16:43.652Z</time></trkpt><trkpt lat="43.847375" lon="12.1740133"><ele>573.8</ele><time>2026-04-30T13:16:44.646Z</time></trkpt><trkpt lat="43.8474583" lon="12.1741433"><ele>572.6</ele><time>2026-04-30T13:16:45.643Z</time></trkpt><trkpt lat="43.84753" lon="12.1742633"><ele>571.4</ele><time>2026-04-30T13:16:46.652Z</time></trkpt><trkpt lat="43.8475867" lon="12.1743833"><ele>570.2</ele><time>2026-04-30T13:16:47.643Z</time></trkpt><trkpt lat="43.8476167" lon="12.1745167"><ele>569.0</ele><time>2026-04-30T13:16:48.644Z</time></trkpt><trkpt lat="43.8476417" lon="12.1746533"><ele>569.0</ele><time>2026-04-30T13:16:49.645Z</time></trkpt><trkpt lat="43.8476617" lon="12.1747917"><ele>569.0</ele><time>2026-04-30T13:16:50.645Z</time></trkpt><trkpt lat="43.8476883" lon="12.1749233"><ele>569.0</ele><time>2026-04-30T13:16:51.659Z</time></trkpt><trkpt lat="43.8477233" lon="12.1750433"><ele>569.0</ele><time>2026-04-30T13:16:52.643Z</time></trkpt><trkpt lat="43.8477683" lon="12.175155"><ele>569.0</ele><time>2026-04-30T13:16:53.651Z</time></trkpt><trkpt lat="43.8478433" lon="12.1752683"><ele>572.8</ele><time>2026-04-30T13:16:54.647Z</time></trkpt><trkpt lat="43.847935" lon="12.1753767"><ele>576.5999999999999</ele><time>2026-04-30T13:16:55.646Z</time></trkpt><trkpt lat="43.8480217" lon="12.17547"><ele>580.4</ele><time>2026-04-30T13:16:56.646Z</time></trkpt><trkpt lat="43.8481033" lon="12.1755567"><ele>584.1999999999999</ele><time>2026-04-30T13:16:57.647Z</time></trkpt><trkpt lat="43.8481817" lon="12.17564"><ele>588.0</ele><time>2026-04-30T13:16:58.646Z</time></trkpt><trkpt lat="43.8482633" lon="12.1757233"><ele>586.6666666666666</ele><time>2026-04-30T13:16:59.646Z</time></trkpt><trkpt lat="43.8483433" lon="12.1758117"><ele>585.3333333333334</ele><time>2026-04-30T13:17:00.646Z</time></trkpt><trkpt lat="43.8484117" lon="12.1759017"><ele>584.0</ele><time>2026-04-30T13:17:01.653Z</time></trkpt><trkpt lat="43.8484633" lon="12.1759933"><ele>582.6666666666667</ele><time>2026-04-30T13:17:02.645Z</time></trkpt><trkpt lat="43.8484967" lon="12.176095"><ele>581.3333333333334</ele><time>2026-04-30T13:17:03.661Z</time></trkpt><trkpt lat="43.848505" lon="12.1762"><ele>580.0</ele><time>2026-04-30T13:17:04.645Z</time></trkpt><trkpt lat="43.8484983" lon="12.1763033"><ele>580.0</ele><time>2026-04-30T13:17:05.649Z</time></trkpt><trkpt lat="43.848465" lon="12.1763833"><ele>580.0</ele><time>2026-04-30T13:17:06.646Z</time></trkpt><trkpt lat="43.848415" lon="12.1764417"><ele>580.0</ele><time>2026-04-30T13:17:07.644Z</time></trkpt><trkpt lat="43.8483533" lon="12.1764817"><ele>580.0</ele><time>2026-04-30T13:17:08.644Z</time></trkpt><trkpt lat="43.8482817" lon="12.1765067"><ele>580.0</ele><time>2026-04-30T13:17:09.647Z</time></trkpt><trkpt lat="43.8482017" lon="12.1765117"><ele>580.0</ele><time>2026-04-30T13:17:10.65Z</time></trkpt><trkpt lat="43.848115" lon="12.176515"><ele>580.0</ele><time>2026-04-30T13:17:11.653Z</time></trkpt><trkpt lat="43.8480283" lon="12.1765317"><ele>585.4</ele><time>2026-04-30T13:17:12.647Z</time></trkpt><trkpt lat="43.847945" lon="12.17657"><ele>590.8</ele><time>2026-04-30T13:17:13.652Z</time></trkpt><trkpt lat="43.84786" lon="12.1766217"><ele>596.2</ele><time>2026-04-30T13:17:14.652Z</time></trkpt><trkpt lat="43.84776" lon="12.1766867"><ele>601.6</ele><time>2026-04-30T13:17:15.645Z</time></trkpt><trkpt lat="43.84765" lon="12.1767667"><ele>607.0</ele><time>2026-04-30T13:17:16.658Z</time></trkpt><trkpt lat="43.8475283" lon="12.176845"><ele>608.25</ele><time>2026-04-30T13:17:17.652Z</time></trkpt><trkpt lat="43.8474" lon="12.17693"><ele>609.5</ele><time>2026-04-30T13:17:18.66Z</time></trkpt><trkpt lat="43.84727" lon="12.1770133"><ele>610.75</ele><time>2026-04-30T13:17:19.643Z</time></trkpt><trkpt lat="43.84714" lon="12.177105"><ele>612.0</ele><time>2026-04-30T13:17:20.651Z</time></trkpt><trkpt lat="43.8470133" lon="12.177195"><ele>612.0</ele><time>2026-04-30T13:17:21.653Z</time></trkpt><trkpt lat="43.8468817" lon="12.1772933"><ele>612.0</ele><time>2026-04-30T13:17:22.66Z</time></trkpt><trkpt lat="43.846755" lon="12.17739"><ele>612.0</ele><time>2026-04-30T13:17:23.649Z</time></trkpt><trkpt lat="43.8466367" lon="12.17748"><ele>612.0</ele><time>2026-04-30T13:17:24.655Z</time></trkpt><trkpt lat="43.8465283" lon="12.1775583"><ele>611.6</ele><time>2026-04-30T13:17:25.651Z</time></trkpt><trkpt lat="43.8464317" lon="12.17762"><ele>611.2</ele><time>2026-04-30T13:17:26.646Z</time></trkpt><trkpt lat="43.846345" lon="12.177675"><ele>610.8</ele><time>2026-04-30T13:17:27.661Z</time></trkpt><trkpt lat="43.846275" lon="12.1777367"><ele>610.4</ele><time>2026-04-30T13:17:28.646Z</time></trkpt><trkpt lat="43.8462167" lon="12.1778233"><ele>610.0</ele><time>2026-04-30T13:17:29.655Z</time></trkpt><trkpt lat="43.84616" lon="12.177935"><ele>610.0</ele><time>2026-04-30T13:17:30.647Z</time></trkpt><trkpt lat="43.8460967" lon="12.17804"><ele>610.0</ele><time>2026-04-30T13:17:31.647Z</time></trkpt><trkpt lat="43.8460117" lon="12.17815"><ele>610.0</ele><time>2026-04-30T13:17:32.654Z</time></trkpt><trkpt lat="43.845915" lon="12.1782667"><ele>610.0</ele><time>2026-04-30T13:17:33.648Z</time></trkpt><trkpt lat="43.8458283" lon="12.1783917"><ele>611.0</ele><time>2026-04-30T13:17:34.648Z</time></trkpt><trkpt lat="43.8457467" lon="12.1785183"><ele>612.0</ele><time>2026-04-30T13:17:35.65Z</time></trkpt><trkpt lat="43.8456883" lon="12.1786467"><ele>613.0</ele><time>2026-04-30T13:17:36.647Z</time></trkpt><trkpt lat="43.8456517" lon="12.1787717"><ele>614.0</ele><time>2026-04-30T13:17:37.649Z</time></trkpt><trkpt lat="43.8456117" lon="12.178875"><ele>615.0</ele><time>2026-04-30T13:17:38.647Z</time></trkpt><trkpt lat="43.84557" lon="12.1789533"><ele>615.0</ele><time>2026-04-30T13:17:39.648Z</time></trkpt><trkpt lat="43.8455217" lon="12.1790117"><ele>615.0</ele><time>2026-04-30T13:17:40.649Z</time></trkpt><trkpt lat="43.8454583" lon="12.179025"><ele>615.0</ele><time>2026-04-30T13:17:41.65Z</time></trkpt><trkpt lat="43.8453783" lon="12.1789983"><ele>615.0</ele><time>2026-04-30T13:17:42.647Z</time></trkpt><trkpt lat="43.8452733" lon="12.17894"><ele>615.0</ele><time>2026-04-30T13:17:43.651Z</time></trkpt><trkpt lat="43.8451667" lon="12.1788883"><ele>615.0</ele><time>2026-04-30T13:17:44.652Z</time></trkpt><trkpt lat="43.8450633" lon="12.1788517"><ele>622.0</ele><time>2026-04-30T13:17:45.646Z</time></trkpt><trkpt lat="43.8449467" lon="12.1788667"><ele>629.0</ele><time>2026-04-30T13:17:46.648Z</time></trkpt><trkpt lat="43.8448233" lon="12.1789033"><ele>636.0</ele><time>2026-04-30T13:17:47.645Z</time></trkpt><trkpt lat="43.8446917" lon="12.1789483"><ele>643.0</ele><time>2026-04-30T13:17:48.641Z</time></trkpt><trkpt lat="43.8445633" lon="12.17901"><ele>638.0</ele><time>2026-04-30T13:17:49.649Z</time></trkpt><trkpt lat="43.8444467" lon="12.1790783"><ele>633.0</ele><time>2026-04-30T13:17:50.65Z</time></trkpt><trkpt lat="43.84434" lon="12.1791633"><ele>628.0</ele><time>2026-04-30T13:17:51.652Z</time></trkpt><trkpt lat="43.84423" lon="12.179235"><ele>623.0</ele><time>2026-04-30T13:17:52.647Z</time></trkpt><trkpt lat="43.8441217" lon="12.17929"><ele>623.0</ele><time>2026-04-30T13:17:53.657Z</time></trkpt><trkpt lat="43.8440083" lon="12.1793333"><ele>623.0</ele><time>2026-04-30T13:17:54.653Z</time></trkpt><trkpt lat="43.8438933" lon="12.1793567"><ele>623.0</ele><time>2026-04-30T13:17:55.652Z</time></trkpt><trkpt lat="43.84378" lon="12.179365"><ele>623.0</ele><time>2026-04-30T13:17:56.646Z</time></trkpt><trkpt lat="43.8436683" lon="12.17936"><ele>623.0</ele><time>2026-04-30T13:17:57.65Z</time></trkpt><trkpt lat="43.843555" lon="12.1793433"><ele>623.0</ele><time>2026-04-30T13:17:58.651Z</time></trkpt><trkpt lat="43.8434433" lon="12.179335"><ele>623.0</ele><time>2026-04-30T13:17:59.642Z</time></trkpt><trkpt lat="43.8433383" lon="12.1793533"><ele>623.0</ele><time>2026-04-30T13:18:00.652Z</time></trkpt><trkpt lat="43.8432333" lon="12.1793933"><ele>623.0</ele><time>2026-04-30T13:18:01.666Z</time></trkpt><trkpt lat="43.8431383" lon="12.179455"><ele>625.1999999999999</ele><time>2026-04-30T13:18:02.65Z</time></trkpt><trkpt lat="43.843055" lon="12.17952"><ele>627.4</ele><time>2026-04-30T13:18:03.648Z</time></trkpt><trkpt lat="43.8429667" lon="12.1795783"><ele>629.5999999999999</ele><time>2026-04-30T13:18:04.649Z</time></trkpt><trkpt lat="43.8428667" lon="12.179615"><ele>631.8</ele><time>2026-04-30T13:18:05.652Z</time></trkpt><trkpt lat="43.84276" lon="12.1796517"><ele>634.0</ele><time>2026-04-30T13:18:06.656Z</time></trkpt><trkpt lat="43.8426667" lon="12.1797083"><ele>632.3333333333334</ele><time>2026-04-30T13:18:07.649Z</time></trkpt><trkpt lat="43.8425817" lon="12.1798017"><ele>630.6666666666667</ele><time>2026-04-30T13:18:08.66Z</time></trkpt><trkpt lat="43.8425083" lon="12.1798917"><ele>629.0</ele><time>2026-04-30T13:18:09.651Z</time></trkpt><trkpt lat="43.8424433" lon="12.1799667"><ele>627.3333333333334</ele><time>2026-04-30T13:18:10.648Z</time></trkpt><trkpt lat="43.842375" lon="12.1800183"><ele>625.6666666666666</ele><time>2026-04-30T13:18:11.649Z</time></trkpt><trkpt lat="43.8422983" lon="12.1800417"><ele>624.0</ele><time>2026-04-30T13:18:12.654Z</time></trkpt><trkpt lat="43.8422017" lon="12.18002"><ele>624.0</ele><time>2026-04-30T13:18:13.649Z</time></trkpt><trkpt lat="43.8421067" lon="12.1799483"><ele>624.0</ele><time>2026-04-30T13:18:14.647Z</time></trkpt><trkpt lat="43.842015" lon="12.179895"><ele>624.0</ele><time>2026-04-30T13:18:15.649Z</time></trkpt><trkpt lat="43.8419317" lon="12.1798567"><ele>624.0</ele><time>2026-04-30T13:18:16.648Z</time></trkpt><trkpt lat="43.8418417" lon="12.179845"><ele>624.0</ele><time>2026-04-30T13:18:17.654Z</time></trkpt><trkpt lat="43.8417533" lon="12.1798683"><ele>626.2</ele><time>2026-04-30T13:18:18.648Z</time></trkpt><trkpt lat="43.8416767" lon="12.1799033"><ele>628.4</ele><time>2026-04-30T13:18:19.648Z</time></trkpt><trkpt lat="43.8416167" lon="12.1799767"><ele>630.6</ele><time>2026-04-30T13:18:20.649Z</time></trkpt><trkpt lat="43.8415617" lon="12.180085"><ele>632.8</ele><time>2026-04-30T13:18:21.648Z</time></trkpt><trkpt lat="43.8415167" lon="12.180245"><ele>635.0</ele><time>2026-04-30T13:18:22.65Z</time></trkpt><trkpt lat="43.84147" lon="12.1804033"><ele>635.0</ele><time>2026-04-30T13:18:23.647Z</time></trkpt><trkpt lat="43.8414133" lon="12.1805583"><ele>635.0</ele><time>2026-04-30T13:18:24.649Z</time></trkpt><trkpt lat="43.841345" lon="12.18071"><ele>635.0</ele><time>2026-04-30T13:18:25.644Z</time></trkpt><trkpt lat="43.841275" lon="12.1808583"><ele>635.0</ele><time>2026-04-30T13:18:26.643Z</time></trkpt><trkpt lat="43.841215" lon="12.1809967"><ele>636.5</ele><time>2026-04-30T13:18:27.648Z</time></trkpt><trkpt lat="43.8411683" lon="12.181125"><ele>638.0</ele><time>2026-04-30T13:18:28.645Z</time></trkpt><trkpt lat="43.8411233" lon="12.1812467"><ele>639.5</ele><time>2026-04-30T13:18:29.643Z</time></trkpt><trkpt lat="43.8410767" lon="12.1813417"><ele>641.0</ele><time>2026-04-30T13:18:30.644Z</time></trkpt><trkpt lat="43.8410217" lon="12.1814167"><ele>642.5</ele><time>2026-04-30T13:18:31.653Z</time></trkpt><trkpt lat="43.84094" lon="12.1814483"><ele>644.0</ele><time>2026-04-30T13:18:32.644Z</time></trkpt><trkpt lat="43.840835" lon="12.1814517"><ele>644.0</ele><time>2026-04-30T13:18:33.648Z</time></trkpt><trkpt lat="43.8406967" lon="12.181435"><ele>644.0</ele><time>2026-04-30T13:18:34.651Z</time></trkpt><trkpt lat="43.8405517" lon="12.1814133"><ele>644.0</ele><time>2026-04-30T13:18:35.648Z</time></trkpt><trkpt lat="43.8404133" lon="12.18139"><ele>644.0</ele><time>2026-04-30T13:18:36.644Z</time></trkpt><trkpt lat="43.8402933" lon="12.1813933"><ele>644.0</ele><time>2026-04-30T13:18:37.647Z</time></trkpt><trkpt lat="43.8401933" lon="12.1814083"><ele>644.0</ele><time>2026-04-30T13:18:38.637Z</time></trkpt><trkpt lat="43.8400967" lon="12.18143"><ele>644.0</ele><time>2026-04-30T13:18:39.649Z</time></trkpt><trkpt lat="43.83999" lon="12.1814717"><ele>644.0</ele><time>2026-04-30T13:18:40.652Z</time></trkpt><trkpt lat="43.8398767" lon="12.18152"><ele>644.0</ele><time>2026-04-30T13:18:41.648Z</time></trkpt><trkpt lat="43.8397567" lon="12.181585"><ele>641.25</ele><time>2026-04-30T13:18:42.661Z</time></trkpt><trkpt lat="43.8396333" lon="12.181655"><ele>638.5</ele><time>2026-04-30T13:18:43.645Z</time></trkpt><trkpt lat="43.839525" lon="12.1817267"><ele>635.75</ele><time>2026-04-30T13:18:44.645Z</time></trkpt><trkpt lat="43.839425" lon="12.1818017"><ele>633.0</ele><time>2026-04-30T13:18:45.641Z</time></trkpt><trkpt lat="43.8393433" lon="12.1818867"><ele>634.8333333333334</ele><time>2026-04-30T13:18:46.648Z</time></trkpt><trkpt lat="43.8392717" lon="12.18196"><ele>636.6666666666666</ele><time>2026-04-30T13:18:47.645Z</time></trkpt><trkpt lat="43.8392183" lon="12.18204"><ele>638.5</ele><time>2026-04-30T13:18:48.647Z</time></trkpt><trkpt lat="43.8391883" lon="12.1821417"><ele>640.3333333333333</ele><time>2026-04-30T13:18:49.651Z</time></trkpt><trkpt lat="43.8391633" lon="12.1822517"><ele>642.1666666666666</ele><time>2026-04-30T13:18:50.639Z</time></trkpt><trkpt lat="43.83916" lon="12.1823683"><ele>644.0</ele><time>2026-04-30T13:18:51.648Z</time></trkpt><trkpt lat="43.8391717" lon="12.1824767"><ele>644.0</ele><time>2026-04-30T13:18:52.646Z</time></trkpt><trkpt lat="43.83916" lon="12.1825633"><ele>644.0</ele><time>2026-04-30T13:18:53.645Z</time></trkpt><trkpt lat="43.839075" lon="12.18268"><ele>644.0</ele><time>2026-04-30T13:18:55.647Z</time></trkpt><trkpt lat="43.838995" lon="12.182715"><ele>644.0</ele><time>2026-04-30T13:18:56.646Z</time></trkpt><trkpt lat="43.8389233" lon="12.1827533"><ele>644.0</ele><time>2026-04-30T13:18:57.657Z</time></trkpt><trkpt lat="43.8388583" lon="12.1828033"><ele>644.0</ele><time>2026-04-30T13:18:58.641Z</time></trkpt><trkpt lat="43.838805" lon="12.1828633"><ele>644.0</ele><time>2026-04-30T13:18:59.657Z</time></trkpt><trkpt lat="43.83875" lon="12.1829333"><ele>644.0</ele><time>2026-04-30T13:19:00.645Z</time></trkpt><trkpt lat="43.8386967" lon="12.1830033"><ele>644.0</ele><time>2026-04-30T13:19:01.647Z</time></trkpt><trkpt lat="43.8386067" lon="12.1830933"><ele>644.0</ele><time>2026-04-30T13:19:03.65Z</time></trkpt><trkpt lat="43.838535" lon="12.1831483"><ele>644.0</ele><time>2026-04-30T13:20:16.647Z</time></trkpt><trkpt lat="43.8384433" lon="12.1830983"><ele>644.0</ele><time>2026-04-30T13:20:19.652Z</time></trkpt><trkpt lat="43.83839" lon="12.183045"><ele>644.0</ele><time>2026-04-30T13:20:20.645Z</time></trkpt><trkpt lat="43.8383383" lon="12.182975"><ele>644.0</ele><time>2026-04-30T13:20:21.645Z</time></trkpt><trkpt lat="43.838305" lon="12.18289"><ele>644.0</ele><time>2026-04-30T13:20:22.65Z</time></trkpt><trkpt lat="43.8382867" lon="12.182795"><ele>644.0</ele><time>2026-04-30T13:20:23.649Z</time></trkpt><trkpt lat="43.838365" lon="12.182685"><ele>644.0</ele><time>2026-04-30T13:20:25.645Z</time></trkpt><trkpt lat="43.8384317" lon="12.1826583"><ele>644.0</ele><time>2026-04-30T13:20:26.653Z</time></trkpt><trkpt lat="43.8384983" lon="12.1826517"><ele>644.0</ele><time>2026-04-30T13:20:27.644Z</time></trkpt><trkpt lat="43.8385967" lon="12.18259"><ele>644.0</ele><time>2026-04-30T13:20:29.639Z</time></trkpt><trkpt lat="43.8386283" lon="12.1824967"><ele>644.0</ele><time>2026-04-30T13:20:31.648Z</time></trkpt><trkpt lat="43.8385667" lon="12.1823767"><ele>644.0</ele><time>2026-04-30T13:20:33.657Z</time></trkpt><trkpt lat="43.83851" lon="12.18231"><ele>644.0</ele><time>2026-04-30T13:20:34.658Z</time></trkpt><trkpt lat="43.8384483" lon="12.1822383"><ele>644.0</ele><time>2026-04-30T13:20:35.65Z</time></trkpt><trkpt lat="43.8383767" lon="12.18217"><ele>649.6666666666666</ele><time>2026-04-30T13:20:36.657Z</time></trkpt><trkpt lat="43.838295" lon="12.1821083"><ele>655.3333333333333</ele><time>2026-04-30T13:20:37.645Z</time></trkpt><trkpt lat="43.8382083" lon="12.1820583"><ele>661.0</ele><time>2026-04-30T13:20:38.657Z</time></trkpt><trkpt lat="43.8381267" lon="12.1820167"><ele>666.6666666666666</ele><time>2026-04-30T13:20:39.65Z</time></trkpt><trkpt lat="43.838045" lon="12.1819817"><ele>672.3333333333334</ele><time>2026-04-30T13:20:40.655Z</time></trkpt><trkpt lat="43.8379683" lon="12.1819533"><ele>678.0</ele><time>2026-04-30T13:20:41.658Z</time></trkpt><trkpt lat="43.8378967" lon="12.18192"><ele>678.0</ele><time>2026-04-30T13:20:42.649Z</time></trkpt><trkpt lat="43.8378283" lon="12.18188"><ele>678.0</ele><time>2026-04-30T13:20:43.643Z</time></trkpt><trkpt lat="43.8377617" lon="12.1818283"><ele>678.0</ele><time>2026-04-30T13:20:44.643Z</time></trkpt><trkpt lat="43.837695" lon="12.1817733"><ele>678.0</ele><time>2026-04-30T13:20:45.654Z</time></trkpt><trkpt lat="43.8376333" lon="12.18172"><ele>678.0</ele><time>2026-04-30T13:20:46.646Z</time></trkpt><trkpt lat="43.837575" lon="12.1816683"><ele>678.0</ele><time>2026-04-30T13:20:47.654Z</time></trkpt><trkpt lat="43.83752" lon="12.181615"><ele>678.0</ele><time>2026-04-30T13:20:48.648Z</time></trkpt><trkpt lat="43.8374683" lon="12.181555"><ele>680.3333333333334</ele><time>2026-04-30T13:20:49.649Z</time></trkpt><trkpt lat="43.8374167" lon="12.1814917"><ele>682.6666666666666</ele><time>2026-04-30T13:20:50.654Z</time></trkpt><trkpt lat="43.8373683" lon="12.18143"><ele>685.0</ele><time>2026-04-30T13:20:51.646Z</time></trkpt><trkpt lat="43.8373167" lon="12.181375"><ele>687.3333333333333</ele><time>2026-04-30T13:20:52.653Z</time></trkpt><trkpt lat="43.8372183" lon="12.1812833"><ele>689.6666666666666</ele><time>2026-04-30T13:20:54.647Z</time></trkpt><trkpt lat="43.837115" lon="12.1812283"><ele>692.0</ele><time>2026-04-30T13:20:56.641Z</time></trkpt><trkpt lat="43.83701" lon="12.1811583"><ele>692.0</ele><time>2026-04-30T13:20:58.638Z</time></trkpt><trkpt lat="43.8369583" lon="12.18109"><ele>692.0</ele><time>2026-04-30T13:20:59.657Z</time></trkpt><trkpt lat="43.83692" lon="12.1810083"><ele>692.0</ele><time>2026-04-30T13:21:00.653Z</time></trkpt><trkpt lat="43.83689" lon="12.1809183"><ele>692.0</ele><time>2026-04-30T13:21:01.644Z</time></trkpt><trkpt lat="43.836855" lon="12.180835"><ele>692.0</ele><time>2026-04-30T13:21:02.652Z</time></trkpt><trkpt lat="43.8368083" lon="12.1807667"><ele>692.0</ele><time>2026-04-30T13:21:03.648Z</time></trkpt><trkpt lat="43.8367467" lon="12.1807233"><ele>692.0</ele><time>2026-04-30T13:21:04.651Z</time></trkpt><trkpt lat="43.8366733" lon="12.1807"><ele>688.6</ele><time>2026-04-30T13:21:05.646Z</time></trkpt><trkpt lat="43.8366033" lon="12.1806883"><ele>685.2</ele><time>2026-04-30T13:21:06.651Z</time></trkpt><trkpt lat="43.8365367" lon="12.18069"><ele>681.8</ele><time>2026-04-30T13:21:07.646Z</time></trkpt><trkpt lat="43.8364283" lon="12.18071"><ele>678.4</ele><time>2026-04-30T13:21:09.648Z</time></trkpt><trkpt lat="43.8363533" lon="12.18081"><ele>675.0</ele><time>2026-04-30T13:21:56.649Z</time></trkpt><trkpt lat="43.836255" lon="12.180915"><ele>675.0</ele><time>2026-04-30T13:21:58.647Z</time></trkpt><trkpt lat="43.8361633" lon="12.1809517"><ele>675.0</ele><time>2026-04-30T13:21:59.651Z</time></trkpt><trkpt lat="43.8360667" lon="12.1809617"><ele>675.0</ele><time>2026-04-30T13:22:00.65Z</time></trkpt><trkpt lat="43.8359617" lon="12.1809517"><ele>675.0</ele><time>2026-04-30T13:22:01.647Z</time></trkpt><trkpt lat="43.8358683" lon="12.1809417"><ele>675.0</ele><time>2026-04-30T13:22:02.657Z</time></trkpt><trkpt lat="43.8357817" lon="12.1809433"><ele>676.0</ele><time>2026-04-30T13:22:03.655Z</time></trkpt><trkpt lat="43.835695" lon="12.1809517"><ele>677.0</ele><time>2026-04-30T13:22:04.647Z</time></trkpt><trkpt lat="43.835605" lon="12.1809533"><ele>678.0</ele><time>2026-04-30T13:22:05.648Z</time></trkpt><trkpt lat="43.8355083" lon="12.1809433"><ele>679.0</ele><time>2026-04-30T13:22:06.649Z</time></trkpt><trkpt lat="43.8354067" lon="12.180925"><ele>680.0</ele><time>2026-04-30T13:22:07.661Z</time></trkpt><trkpt lat="43.8353" lon="12.1808817"><ele>680.0</ele><time>2026-04-30T13:22:08.648Z</time></trkpt><trkpt lat="43.8351917" lon="12.1808167"><ele>680.0</ele><time>2026-04-30T13:22:09.648Z</time></trkpt><trkpt lat="43.8350867" lon="12.1807283"><ele>680.0</ele><time>2026-04-30T13:22:10.648Z</time></trkpt><trkpt lat="43.834985" lon="12.18063"><ele>680.0</ele><time>2026-04-30T13:22:11.648Z</time></trkpt><trkpt lat="43.834885" lon="12.1805417"><ele>685.0</ele><time>2026-04-30T13:22:12.646Z</time></trkpt><trkpt lat="43.83479" lon="12.180455"><ele>690.0</ele><time>2026-04-30T13:22:13.668Z</time></trkpt><trkpt lat="43.8346967" lon="12.1803617"><ele>695.0</ele><time>2026-04-30T13:22:14.651Z</time></trkpt><trkpt lat="43.834605" lon="12.1802533"><ele>700.0</ele><time>2026-04-30T13:22:15.663Z</time></trkpt><trkpt lat="43.8345183" lon="12.18013"><ele>700.0</ele><time>2026-04-30T13:22:16.648Z</time></trkpt><trkpt lat="43.83444" lon="12.1799983"><ele>700.0</ele><time>2026-04-30T13:22:17.655Z</time></trkpt><trkpt lat="43.8343783" lon="12.1798583"><ele>700.0</ele><time>2026-04-30T13:22:18.652Z</time></trkpt><trkpt lat="43.83434" lon="12.1797167"><ele>700.0</ele><time>2026-04-30T13:22:19.662Z</time></trkpt><trkpt lat="43.8343233" lon="12.1795733"><ele>701.8</ele><time>2026-04-30T13:22:20.649Z</time></trkpt><trkpt lat="43.83433" lon="12.17943"><ele>703.6</ele><time>2026-04-30T13:22:21.654Z</time></trkpt><trkpt lat="43.8343517" lon="12.1792817"><ele>705.4000000000001</ele><time>2026-04-30T13:22:22.652Z</time></trkpt><trkpt lat="43.83439" lon="12.1791317"><ele>707.2</ele><time>2026-04-30T13:22:23.666Z</time></trkpt><trkpt lat="43.8344467" lon="12.178995"><ele>709.0</ele><time>2026-04-30T13:22:24.655Z</time></trkpt><trkpt lat="43.834515" lon="12.1788767"><ele>709.0</ele><time>2026-04-30T13:22:25.656Z</time></trkpt><trkpt lat="43.8346017" lon="12.1787683"><ele>709.0</ele><time>2026-04-30T13:22:26.65Z</time></trkpt><trkpt lat="43.83469" lon="12.17866"><ele>709.0</ele><time>2026-04-30T13:22:27.65Z</time></trkpt><trkpt lat="43.834775" lon="12.1785467"><ele>709.0</ele><time>2026-04-30T13:22:28.655Z</time></trkpt><trkpt lat="43.8348467" lon="12.17842"><ele>709.0</ele><time>2026-04-30T13:22:29.646Z</time></trkpt><trkpt lat="43.8348867" lon="12.1782783"><ele>709.0</ele><time>2026-04-30T13:22:30.658Z</time></trkpt><trkpt lat="43.8349117" lon="12.1781433"><ele>709.0</ele><time>2026-04-30T13:22:31.653Z</time></trkpt><trkpt lat="43.8349133" lon="12.1780117"><ele>709.0</ele><time>2026-04-30T13:22:32.65Z</time></trkpt><trkpt lat="43.834895" lon="12.1778933"><ele>709.0</ele><time>2026-04-30T13:22:33.65Z</time></trkpt><trkpt lat="43.8348683" lon="12.17777"><ele>711.0</ele><time>2026-04-30T13:22:34.657Z</time></trkpt><trkpt lat="43.8348133" lon="12.1776617"><ele>713.0</ele><time>2026-04-30T13:22:35.648Z</time></trkpt><trkpt lat="43.8347533" lon="12.1775667"><ele>715.0</ele><time>2026-04-30T13:22:36.648Z</time></trkpt><trkpt lat="43.83469" lon="12.1774767"><ele>717.0</ele><time>2026-04-30T13:22:37.654Z</time></trkpt><trkpt lat="43.8346283" lon="12.177395"><ele>719.0</ele><time>2026-04-30T13:22:38.652Z</time></trkpt><trkpt lat="43.834565" lon="12.177325"><ele>721.0</ele><time>2026-04-30T13:22:39.648Z</time></trkpt><trkpt lat="43.8345033" lon="12.177265"><ele>721.5</ele><time>2026-04-30T13:22:40.639Z</time></trkpt><trkpt lat="43.8344367" lon="12.1772117"><ele>722.0</ele><time>2026-04-30T13:22:41.646Z</time></trkpt><trkpt lat="43.8343683" lon="12.177155"><ele>722.5</ele><time>2026-04-30T13:22:42.647Z</time></trkpt><trkpt lat="43.8342917" lon="12.1771067"><ele>723.0</ele><time>2026-04-30T13:22:43.661Z</time></trkpt><trkpt lat="43.834215" lon="12.1770533"><ele>723.5</ele><time>2026-04-30T13:22:44.651Z</time></trkpt><trkpt lat="43.8341367" lon="12.1769967"><ele>724.0</ele><time>2026-04-30T13:22:45.644Z</time></trkpt><trkpt lat="43.8340567" lon="12.1769333"><ele>724.0</ele><time>2026-04-30T13:22:46.655Z</time></trkpt><trkpt lat="43.8339767" lon="12.176835"><ele>724.0</ele><time>2026-04-30T13:22:47.66Z</time></trkpt><trkpt lat="43.83389" lon="12.1767117"><ele>724.0</ele><time>2026-04-30T13:22:48.659Z</time></trkpt><trkpt lat="43.833785" lon="12.176585"><ele>724.0</ele><time>2026-04-30T13:22:49.649Z</time></trkpt><trkpt lat="43.8336767" lon="12.1764633"><ele>727.25</ele><time>2026-04-30T13:22:50.658Z</time></trkpt><trkpt lat="43.833575" lon="12.176345"><ele>730.5</ele><time>2026-04-30T13:22:51.651Z</time></trkpt><trkpt lat="43.833485" lon="12.1762317"><ele>733.75</ele><time>2026-04-30T13:22:52.648Z</time></trkpt><trkpt lat="43.8334067" lon="12.1761233"><ele>737.0</ele><time>2026-04-30T13:22:53.651Z</time></trkpt><trkpt lat="43.8333433" lon="12.1760283"><ele>732.5</ele><time>2026-04-30T13:22:54.651Z</time></trkpt><trkpt lat="43.8333" lon="12.1759383"><ele>728.0</ele><time>2026-04-30T13:22:55.646Z</time></trkpt><trkpt lat="43.8332767" lon="12.1758467"><ele>723.5</ele><time>2026-04-30T13:22:56.644Z</time></trkpt><trkpt lat="43.8332833" lon="12.175745"><ele>719.0</ele><time>2026-04-30T13:22:57.656Z</time></trkpt><trkpt lat="43.8333167" lon="12.17562"><ele>714.5</ele><time>2026-04-30T13:22:58.647Z</time></trkpt><trkpt lat="43.83336" lon="12.1754717"><ele>710.0</ele><time>2026-04-30T13:22:59.65Z</time></trkpt><trkpt lat="43.833385" lon="12.1753133"><ele>709.6</ele><time>2026-04-30T13:23:00.651Z</time></trkpt><trkpt lat="43.8333867" lon="12.1751533"><ele>709.2</ele><time>2026-04-30T13:23:01.65Z</time></trkpt><trkpt lat="43.8333817" lon="12.175"><ele>708.8</ele><time>2026-04-30T13:23:02.649Z</time></trkpt><trkpt lat="43.83339" lon="12.174855"><ele>708.4</ele><time>2026-04-30T13:23:03.651Z</time></trkpt><trkpt lat="43.8334133" lon="12.1747133"><ele>708.0</ele><time>2026-04-30T13:23:04.658Z</time></trkpt><trkpt lat="43.833465" lon="12.1745983"><ele>710.4</ele><time>2026-04-30T13:23:05.658Z</time></trkpt><trkpt lat="43.8335233" lon="12.174485"><ele>712.8</ele><time>2026-04-30T13:23:06.645Z</time></trkpt><trkpt lat="43.8335833" lon="12.17437"><ele>715.2</ele><time>2026-04-30T13:23:07.65Z</time></trkpt><trkpt lat="43.8336333" lon="12.1742583"><ele>717.6</ele><time>2026-04-30T13:23:08.651Z</time></trkpt><trkpt lat="43.83367" lon="12.17415"><ele>720.0</ele><time>2026-04-30T13:23:09.65Z</time></trkpt><trkpt lat="43.8337167" lon="12.1740433"><ele>716.6</ele><time>2026-04-30T13:23:10.643Z</time></trkpt><trkpt lat="43.83377" lon="12.1739267"><ele>713.2</ele><time>2026-04-30T13:23:11.653Z</time></trkpt><trkpt lat="43.833835" lon="12.173815"><ele>709.8</ele><time>2026-04-30T13:23:12.652Z</time></trkpt><trkpt lat="43.8339067" lon="12.1737217"><ele>706.4</ele><time>2026-04-30T13:23:13.647Z</time></trkpt><trkpt lat="43.8339883" lon="12.1736383"><ele>703.0</ele><time>2026-04-30T13:23:14.645Z</time></trkpt><trkpt lat="43.8340767" lon="12.1735617"><ele>703.0</ele><time>2026-04-30T13:23:15.649Z</time></trkpt><trkpt lat="43.8341667" lon="12.173495"><ele>703.0</ele><time>2026-04-30T13:23:16.647Z</time></trkpt><trkpt lat="43.83426" lon="12.1734467"><ele>703.0</ele><time>2026-04-30T13:23:17.646Z</time></trkpt><trkpt lat="43.834355" lon="12.1734217"><ele>703.0</ele><time>2026-04-30T13:23:18.657Z</time></trkpt><trkpt lat="43.83445" lon="12.1734133"><ele>703.0</ele><time>2026-04-30T13:23:19.648Z</time></trkpt><trkpt lat="43.8345517" lon="12.1734067"><ele>702.4</ele><time>2026-04-30T13:23:20.652Z</time></trkpt><trkpt lat="43.8346517" lon="12.1733883"><ele>701.8</ele><time>2026-04-30T13:23:21.655Z</time></trkpt><trkpt lat="43.8347417" lon="12.17335"><ele>701.2</ele><time>2026-04-30T13:23:22.651Z</time></trkpt><trkpt lat="43.8348267" lon="12.1732867"><ele>700.6</ele><time>2026-04-30T13:23:23.65Z</time></trkpt><trkpt lat="43.834905" lon="12.1732067"><ele>700.0</ele><time>2026-04-30T13:23:24.646Z</time></trkpt><trkpt lat="43.8349767" lon="12.173135"><ele>700.0</ele><time>2026-04-30T13:23:25.65Z</time></trkpt><trkpt lat="43.835045" lon="12.1730783"><ele>700.0</ele><time>2026-04-30T13:23:26.653Z</time></trkpt><trkpt lat="43.8351317" lon="12.1730867"><ele>700.0</ele><time>2026-04-30T13:23:27.641Z</time></trkpt><trkpt lat="43.8352267" lon="12.1731133"><ele>700.0</ele><time>2026-04-30T13:23:28.649Z</time></trkpt><trkpt lat="43.8353383" lon="12.1731483"><ele>700.0</ele><time>2026-04-30T13:23:29.646Z</time></trkpt><trkpt lat="43.83546" lon="12.1731717"><ele>703.8</ele><time>2026-04-30T13:23:30.649Z</time></trkpt><trkpt lat="43.83558" lon="12.17319"><ele>707.6</ele><time>2026-04-30T13:23:31.645Z</time></trkpt><trkpt lat="43.835685" lon="12.1731883"><ele>711.4000000000001</ele><time>2026-04-30T13:23:32.651Z</time></trkpt><trkpt lat="43.8357833" lon="12.173165"><ele>715.2</ele><time>2026-04-30T13:23:33.65Z</time></trkpt><trkpt lat="43.8358717" lon="12.1731017"><ele>719.0</ele><time>2026-04-30T13:23:34.645Z</time></trkpt><trkpt lat="43.8359533" lon="12.1730017"><ele>723.75</ele><time>2026-04-30T13:23:35.646Z</time></trkpt><trkpt lat="43.8360383" lon="12.172895"><ele>728.5</ele><time>2026-04-30T13:23:36.654Z</time></trkpt><trkpt lat="43.8361333" lon="12.1727933"><ele>733.25</ele><time>2026-04-30T13:23:37.647Z</time></trkpt><trkpt lat="43.8362217" lon="12.1726933"><ele>738.0</ele><time>2026-04-30T13:23:38.645Z</time></trkpt><trkpt lat="43.8363" lon="12.17258"><ele>738.0</ele><time>2026-04-30T13:23:39.658Z</time></trkpt><trkpt lat="43.836355" lon="12.1724383"><ele>738.0</ele><time>2026-04-30T13:23:40.655Z</time></trkpt><trkpt lat="43.8364017" lon="12.1722967"><ele>738.0</ele><time>2026-04-30T13:23:41.652Z</time></trkpt><trkpt lat="43.8364383" lon="12.1721683"><ele>738.0</ele><time>2026-04-30T13:23:42.649Z</time></trkpt><trkpt lat="43.8364717" lon="12.1720667"><ele>738.0</ele><time>2026-04-30T13:23:43.645Z</time></trkpt><trkpt lat="43.8365167" lon="12.1719983"><ele>739.1666666666666</ele><time>2026-04-30T13:23:44.655Z</time></trkpt><trkpt lat="43.8365783" lon="12.1719533"><ele>740.3333333333334</ele><time>2026-04-30T13:23:45.651Z</time></trkpt><trkpt lat="43.8366533" lon="12.1719233"><ele>741.5</ele><time>2026-04-30T13:23:46.658Z</time></trkpt><trkpt lat="43.8367383" lon="12.1719"><ele>742.6666666666667</ele><time>2026-04-30T13:23:47.653Z</time></trkpt><trkpt lat="43.8368217" lon="12.1718667"><ele>743.8333333333334</ele><time>2026-04-30T13:23:48.649Z</time></trkpt><trkpt lat="43.8369033" lon="12.1718183"><ele>745.0</ele><time>2026-04-30T13:23:49.646Z</time></trkpt><trkpt lat="43.83698" lon="12.17175"><ele>745.0</ele><time>2026-04-30T13:23:50.652Z</time></trkpt><trkpt lat="43.8370467" lon="12.1716517"><ele>745.0</ele><time>2026-04-30T13:23:51.65Z</time></trkpt><trkpt lat="43.83711" lon="12.1715467"><ele>745.0</ele><time>2026-04-30T13:23:52.652Z</time></trkpt><trkpt lat="43.837185" lon="12.1714533"><ele>745.0</ele><time>2026-04-30T13:23:53.647Z</time></trkpt><trkpt lat="43.837275" lon="12.1713817"><ele>745.0</ele><time>2026-04-30T13:23:54.649Z</time></trkpt><trkpt lat="43.8373733" lon="12.17134"><ele>745.0</ele><time>2026-04-30T13:23:55.654Z</time></trkpt><trkpt lat="43.83748" lon="12.1713167"><ele>745.0</ele><time>2026-04-30T13:23:56.653Z</time></trkpt><trkpt lat="43.8376" lon="12.1713083"><ele>745.0</ele><time>2026-04-30T13:23:57.653Z</time></trkpt><trkpt lat="43.8377283" lon="12.1712967"><ele>745.0</ele><time>2026-04-30T13:23:58.656Z</time></trkpt><trkpt lat="43.8378533" lon="12.1712867"><ele>745.0</ele><time>2026-04-30T13:23:59.649Z</time></trkpt><trkpt lat="43.8379767" lon="12.17127"><ele>745.0</ele><time>2026-04-30T13:24:00.653Z</time></trkpt><trkpt lat="43.8380967" lon="12.171245"><ele>745.0</ele><time>2026-04-30T13:24:01.657Z</time></trkpt><trkpt lat="43.8382067" lon="12.1712133"><ele>745.0</ele><time>2026-04-30T13:24:02.643Z</time></trkpt><trkpt lat="43.8383" lon="12.171165"><ele>745.0</ele><time>2026-04-30T13:24:03.655Z</time></trkpt><trkpt lat="43.8383767" lon="12.1710917"><ele>745.0</ele><time>2026-04-30T13:24:04.645Z</time></trkpt><trkpt lat="43.8384367" lon="12.1709983"><ele>745.0</ele><time>2026-04-30T13:24:05.643Z</time></trkpt><trkpt lat="43.8384717" lon="12.1708917"><ele>745.0</ele><time>2026-04-30T13:24:06.645Z</time></trkpt><trkpt lat="43.838485" lon="12.1707833"><ele>745.0</ele><time>2026-04-30T13:24:07.65Z</time></trkpt><trkpt lat="43.838455" lon="12.17068"><ele>745.0</ele><time>2026-04-30T13:24:08.648Z</time></trkpt><trkpt lat="43.838395" lon="12.1705867"><ele>745.8333333333334</ele><time>2026-04-30T13:24:09.647Z</time></trkpt><trkpt lat="43.8383433" lon="12.1704883"><ele>746.6666666666667</ele><time>2026-04-30T13:24:10.644Z</time></trkpt><trkpt lat="43.8383217" lon="12.1703783"><ele>747.5</ele><time>2026-04-30T13:24:11.654Z</time></trkpt><trkpt lat="43.83832" lon="12.17026"><ele>748.3333333333334</ele><time>2026-04-30T13:24:12.656Z</time></trkpt><trkpt lat="43.8383533" lon="12.1701483"><ele>749.1666666666666</ele><time>2026-04-30T13:24:13.654Z</time></trkpt><trkpt lat="43.8384017" lon="12.17003"><ele>750.0</ele><time>2026-04-30T13:24:14.645Z</time></trkpt><trkpt lat="43.8384567" lon="12.1699133"><ele>754.2</ele><time>2026-04-30T13:24:15.649Z</time></trkpt><trkpt lat="43.8385017" lon="12.169805"><ele>758.4</ele><time>2026-04-30T13:24:16.646Z</time></trkpt><trkpt lat="43.83853" lon="12.1697083"><ele>762.5999999999999</ele><time>2026-04-30T13:24:17.648Z</time></trkpt><trkpt lat="43.83851" lon="12.1695283"><ele>766.8</ele><time>2026-04-30T13:24:19.651Z</time></trkpt><trkpt lat="43.838465" lon="12.169445"><ele>771.0</ele><time>2026-04-30T13:24:20.651Z</time></trkpt><trkpt lat="43.8383833" lon="12.1693933"><ele>771.0</ele><time>2026-04-30T13:24:21.653Z</time></trkpt><trkpt lat="43.8382783" lon="12.1693583"><ele>771.0</ele><time>2026-04-30T13:24:22.645Z</time></trkpt><trkpt lat="43.8381633" lon="12.1693617"><ele>771.0</ele><time>2026-04-30T13:24:23.652Z</time></trkpt><trkpt lat="43.8380583" lon="12.169375"><ele>771.0</ele><time>2026-04-30T13:24:24.65Z</time></trkpt><trkpt lat="43.837965" lon="12.1693817"><ele>771.0</ele><time>2026-04-30T13:24:25.65Z</time></trkpt><trkpt lat="43.837885" lon="12.1693633"><ele>771.0</ele><time>2026-04-30T13:24:26.644Z</time></trkpt><trkpt lat="43.8378183" lon="12.1693133"><ele>771.0</ele><time>2026-04-30T13:24:27.648Z</time></trkpt><trkpt lat="43.8377583" lon="12.1692467"><ele>771.0</ele><time>2026-04-30T13:24:28.649Z</time></trkpt><trkpt lat="43.8376983" lon="12.1691867"><ele>771.0</ele><time>2026-04-30T13:24:29.65Z</time></trkpt><trkpt lat="43.8376267" lon="12.1691567"><ele>771.0</ele><time>2026-04-30T13:24:30.692Z</time></trkpt><trkpt lat="43.8375483" lon="12.1691467"><ele>771.0</ele><time>2026-04-30T13:24:31.652Z</time></trkpt><trkpt lat="43.8374633" lon="12.16915"><ele>768.6666666666666</ele><time>2026-04-30T13:24:32.652Z</time></trkpt><trkpt lat="43.837385" lon="12.1691417"><ele>766.3333333333334</ele><time>2026-04-30T13:24:33.648Z</time></trkpt><trkpt lat="43.83731" lon="12.1691267"><ele>764.0</ele><time>2026-04-30T13:24:34.646Z</time></trkpt><trkpt lat="43.8372483" lon="12.16909"><ele>761.6666666666667</ele><time>2026-04-30T13:24:35.652Z</time></trkpt><trkpt lat="43.8371883" lon="12.169025"><ele>759.3333333333334</ele><time>2026-04-30T13:24:36.655Z</time></trkpt><trkpt lat="43.83714" lon="12.1689367"><ele>757.0</ele><time>2026-04-30T13:24:37.65Z</time></trkpt><trkpt lat="43.8370883" lon="12.1688467"><ele>756.0</ele><time>2026-04-30T13:24:38.642Z</time></trkpt><trkpt lat="43.83702" lon="12.16877"><ele>755.0</ele><time>2026-04-30T13:24:39.647Z</time></trkpt><trkpt lat="43.8369433" lon="12.1687283"><ele>754.0</ele><time>2026-04-30T13:24:40.654Z</time></trkpt><trkpt lat="43.8368733" lon="12.1686783"><ele>753.0</ele><time>2026-04-30T13:24:41.643Z</time></trkpt><trkpt lat="43.8368117" lon="12.1686167"><ele>752.0</ele><time>2026-04-30T13:24:42.658Z</time></trkpt><trkpt lat="43.83677" lon="12.1685383"><ele>751.0</ele><time>2026-04-30T13:24:43.648Z</time></trkpt><trkpt lat="43.8367517" lon="12.1684317"><ele>751.0</ele><time>2026-04-30T13:24:44.644Z</time></trkpt><trkpt lat="43.8367467" lon="12.1683083"><ele>751.0</ele><time>2026-04-30T13:24:45.647Z</time></trkpt><trkpt lat="43.8368" lon="12.1681733"><ele>751.0</ele><time>2026-04-30T13:24:46.654Z</time></trkpt><trkpt lat="43.8368583" lon="12.1680533"><ele>751.0</ele><time>2026-04-30T13:24:47.649Z</time></trkpt><trkpt lat="43.8369" lon="12.1679383"><ele>751.0</ele><time>2026-04-30T13:24:48.645Z</time></trkpt><trkpt lat="43.8369267" lon="12.16783"><ele>754.0</ele><time>2026-04-30T13:24:49.651Z</time></trkpt><trkpt lat="43.8369283" lon="12.167735"><ele>757.0</ele><time>2026-04-30T13:24:50.644Z</time></trkpt><trkpt lat="43.8368833" lon="12.16757"><ele>760.0</ele><time>2026-04-30T13:24:52.646Z</time></trkpt><trkpt lat="43.8368217" lon="12.1675017"><ele>763.0</ele><time>2026-04-30T13:24:53.65Z</time></trkpt><trkpt lat="43.8367183" lon="12.1674667"><ele>766.0</ele><time>2026-04-30T13:24:54.651Z</time></trkpt><trkpt lat="43.8366083" lon="12.1674567"><ele>766.0</ele><time>2026-04-30T13:24:55.643Z</time></trkpt><trkpt lat="43.83651" lon="12.1674467"><ele>766.0</ele><time>2026-04-30T13:24:56.644Z</time></trkpt><trkpt lat="43.836415" lon="12.16742"><ele>766.0</ele><time>2026-04-30T13:24:57.643Z</time></trkpt><trkpt lat="43.8363267" lon="12.16738"><ele>766.0</ele><time>2026-04-30T13:24:58.645Z</time></trkpt><trkpt lat="43.8362433" lon="12.1673067"><ele>766.0</ele><time>2026-04-30T13:24:59.651Z</time></trkpt><trkpt lat="43.83616" lon="12.167255"><ele>766.4</ele><time>2026-04-30T13:25:00.646Z</time></trkpt><trkpt lat="43.8360767" lon="12.16722"><ele>766.8</ele><time>2026-04-30T13:25:01.647Z</time></trkpt><trkpt lat="43.835985" lon="12.167245"><ele>767.1999999999999</ele><time>2026-04-30T13:25:02.638Z</time></trkpt><trkpt lat="43.8358917" lon="12.1673117"><ele>767.5999999999999</ele><time>2026-04-30T13:25:03.659Z</time></trkpt><trkpt lat="43.8358033" lon="12.1674067"><ele>768.0</ele><time>2026-04-30T13:25:04.646Z</time></trkpt><trkpt lat="43.83571" lon="12.167505"><ele>768.0</ele><time>2026-04-30T13:25:05.65Z</time></trkpt><trkpt lat="43.83561" lon="12.1676"><ele>768.0</ele><time>2026-04-30T13:25:06.646Z</time></trkpt><trkpt lat="43.8355117" lon="12.1676767"><ele>768.0</ele><time>2026-04-30T13:25:07.642Z</time></trkpt><trkpt lat="43.8354217" lon="12.1677467"><ele>768.0</ele><time>2026-04-30T13:25:08.657Z</time></trkpt><trkpt lat="43.83533" lon="12.1678267"><ele>768.0</ele><time>2026-04-30T13:25:09.648Z</time></trkpt><trkpt lat="43.8352667" lon="12.1679333"><ele>768.0</ele><time>2026-04-30T13:25:10.647Z</time></trkpt><trkpt lat="43.8352233" lon="12.1680583"><ele>768.0</ele><time>2026-04-30T13:25:11.643Z</time></trkpt><trkpt lat="43.8351883" lon="12.168195"><ele>768.0</ele><time>2026-04-30T13:25:12.643Z</time></trkpt><trkpt lat="43.83515" lon="12.168325"><ele>768.0</ele><time>2026-04-30T13:25:13.647Z</time></trkpt><trkpt lat="43.83511" lon="12.1684417"><ele>768.0</ele><time>2026-04-30T13:25:14.644Z</time></trkpt><trkpt lat="43.835065" lon="12.1685367"><ele>768.5</ele><time>2026-04-30T13:25:15.647Z</time></trkpt><trkpt lat="43.835" lon="12.1685967"><ele>769.0</ele><time>2026-04-30T13:25:16.647Z</time></trkpt><trkpt lat="43.8349333" lon="12.16863"><ele>769.5</ele><time>2026-04-30T13:25:17.645Z</time></trkpt><trkpt lat="43.8348633" lon="12.1686367"><ele>770.0</ele><time>2026-04-30T13:25:18.65Z</time></trkpt><trkpt lat="43.8347933" lon="12.1685917"><ele>770.5</ele><time>2026-04-30T13:25:19.65Z</time></trkpt><trkpt lat="43.8347183" lon="12.1685167"><ele>771.0</ele><time>2026-04-30T13:25:20.651Z</time></trkpt><trkpt lat="43.83463" lon="12.1684483"><ele>771.0</ele><time>2026-04-30T13:25:21.644Z</time></trkpt><trkpt lat="43.834535" lon="12.1684083"><ele>771.0</ele><time>2026-04-30T13:25:22.644Z</time></trkpt><trkpt lat="43.834435" lon="12.168385"><ele>771.0</ele><time>2026-04-30T13:25:23.649Z</time></trkpt><trkpt lat="43.8343317" lon="12.1683567"><ele>771.0</ele><time>2026-04-30T13:25:24.658Z</time></trkpt><trkpt lat="43.8342233" lon="12.1683083"><ele>771.0</ele><time>2026-04-30T13:25:25.647Z</time></trkpt><trkpt lat="43.8341167" lon="12.1682433"><ele>777.75</ele><time>2026-04-30T13:25:26.655Z</time></trkpt><trkpt lat="43.83401" lon="12.168175"><ele>784.5</ele><time>2026-04-30T13:25:27.65Z</time></trkpt><trkpt lat="43.8339033" lon="12.1680983"><ele>791.25</ele><time>2026-04-30T13:25:28.648Z</time></trkpt><trkpt lat="43.8338" lon="12.1680167"><ele>798.0</ele><time>2026-04-30T13:25:29.649Z</time></trkpt><trkpt lat="43.83371" lon="12.167935"><ele>798.0</ele><time>2026-04-30T13:25:30.649Z</time></trkpt><trkpt lat="43.833625" lon="12.1678417"><ele>798.0</ele><time>2026-04-30T13:25:31.65Z</time></trkpt><trkpt lat="43.8335467" lon="12.16774"><ele>798.0</ele><time>2026-04-30T13:25:32.65Z</time></trkpt><trkpt lat="43.8334817" lon="12.1676267"><ele>798.0</ele><time>2026-04-30T13:25:33.651Z</time></trkpt><trkpt lat="43.83344" lon="12.16751"><ele>798.0</ele><time>2026-04-30T13:25:34.649Z</time></trkpt><trkpt lat="43.8334317" lon="12.1673883"><ele>796.4</ele><time>2026-04-30T13:25:35.641Z</time></trkpt><trkpt lat="43.833445" lon="12.16728"><ele>794.8</ele><time>2026-04-30T13:25:36.647Z</time></trkpt><trkpt lat="43.833485" lon="12.1671733"><ele>793.2</ele><time>2026-04-30T13:25:37.649Z</time></trkpt><trkpt lat="43.8335317" lon="12.167055"><ele>791.6</ele><time>2026-04-30T13:25:38.647Z</time></trkpt><trkpt lat="43.8335717" lon="12.1669317"><ele>790.0</ele><time>2026-04-30T13:25:39.648Z</time></trkpt><trkpt lat="43.8335967" lon="12.166805"><ele>793.4</ele><time>2026-04-30T13:25:40.645Z</time></trkpt><trkpt lat="43.8335917" lon="12.166675"><ele>796.8</ele><time>2026-04-30T13:25:41.644Z</time></trkpt><trkpt lat="43.833555" lon="12.16656"><ele>800.2</ele><time>2026-04-30T13:25:42.644Z</time></trkpt><trkpt lat="43.833495" lon="12.1664633"><ele>803.6</ele><time>2026-04-30T13:25:43.641Z</time></trkpt><trkpt lat="43.83343" lon="12.166375"><ele>807.0</ele><time>2026-04-30T13:25:44.644Z</time></trkpt><trkpt lat="43.8333767" lon="12.1662733"><ele>807.0</ele><time>2026-04-30T13:25:45.644Z</time></trkpt><trkpt lat="43.833345" lon="12.1661617"><ele>807.0</ele><time>2026-04-30T13:25:46.651Z</time></trkpt><trkpt lat="43.833335" lon="12.1660383"><ele>807.0</ele><time>2026-04-30T13:25:47.648Z</time></trkpt><trkpt lat="43.8333417" lon="12.1659033"><ele>807.0</ele><time>2026-04-30T13:25:48.649Z</time></trkpt><trkpt lat="43.83335" lon="12.1657683"><ele>807.0</ele><time>2026-04-30T13:25:49.643Z</time></trkpt><trkpt lat="43.8333517" lon="12.1656433"><ele>810.3333333333334</ele><time>2026-04-30T13:25:50.64Z</time></trkpt><trkpt lat="43.8333383" lon="12.1655217"><ele>813.6666666666667</ele><time>2026-04-30T13:25:51.65Z</time></trkpt><trkpt lat="43.8333067" lon="12.1654067"><ele>817.0</ele><time>2026-04-30T13:25:52.647Z</time></trkpt><trkpt lat="43.8332517" lon="12.1653083"><ele>820.3333333333334</ele><time>2026-04-30T13:25:53.64Z</time></trkpt><trkpt lat="43.833175" lon="12.16524"><ele>823.6666666666667</ele><time>2026-04-30T13:25:54.656Z</time></trkpt><trkpt lat="43.8330983" lon="12.1651983"><ele>827.0</ele><time>2026-04-30T13:25:55.654Z</time></trkpt><trkpt lat="43.833035" lon="12.1651583"><ele>827.0</ele><time>2026-04-30T13:25:56.653Z</time></trkpt><trkpt lat="43.832995" lon="12.1650433"><ele>827.0</ele><time>2026-04-30T13:25:58.655Z</time></trkpt><trkpt lat="43.8330533" lon="12.1648833"><ele>827.0</ele><time>2026-04-30T13:26:00.66Z</time></trkpt><trkpt lat="43.833065" lon="12.1647917"><ele>827.0</ele><time>2026-04-30T13:26:01.652Z</time></trkpt><trkpt lat="43.8330567" lon="12.1647017"><ele>827.0</ele><time>2026-04-30T13:26:02.653Z</time></trkpt><trkpt lat="43.83298" lon="12.1645667"><ele>828.6666666666667</ele><time>2026-04-30T13:26:04.651Z</time></trkpt><trkpt lat="43.832925" lon="12.164515"><ele>830.3333333333334</ele><time>2026-04-30T13:26:05.66Z</time></trkpt><trkpt lat="43.832875" lon="12.16446"><ele>832.0</ele><time>2026-04-30T13:26:06.648Z</time></trkpt><trkpt lat="43.832825" lon="12.164315"><ele>833.6666666666667</ele><time>2026-04-30T13:26:08.648Z</time></trkpt><trkpt lat="43.8328267" lon="12.1641433"><ele>835.3333333333334</ele><time>2026-04-30T13:26:10.648Z</time></trkpt><trkpt lat="43.8328283" lon="12.1640417"><ele>837.0</ele><time>2026-04-30T13:26:11.654Z</time></trkpt><trkpt lat="43.8328133" lon="12.1639467"><ele>837.2</ele><time>2026-04-30T13:26:12.647Z</time></trkpt><trkpt lat="43.8327617" lon="12.1638483"><ele>837.4000000000001</ele><time>2026-04-30T13:26:13.659Z</time></trkpt><trkpt lat="43.8326867" lon="12.1637767"><ele>837.5999999999999</ele><time>2026-04-30T13:26:14.655Z</time></trkpt><trkpt lat="43.8325883" lon="12.16373"><ele>837.8</ele><time>2026-04-30T13:26:15.656Z</time></trkpt><trkpt lat="43.8324917" lon="12.163665"><ele>838.0</ele><time>2026-04-30T13:26:16.653Z</time></trkpt><trkpt lat="43.8324033" lon="12.16358"><ele>838.0</ele><time>2026-04-30T13:26:17.659Z</time></trkpt><trkpt lat="43.8323217" lon="12.163475"><ele>838.0</ele><time>2026-04-30T13:26:18.645Z</time></trkpt><trkpt lat="43.8322533" lon="12.16336"><ele>838.0</ele><time>2026-04-30T13:26:19.65Z</time></trkpt><trkpt lat="43.8322033" lon="12.1632483"><ele>838.0</ele><time>2026-04-30T13:26:20.647Z</time></trkpt><trkpt lat="43.832155" lon="12.16315"><ele>838.0</ele><time>2026-04-30T13:26:21.649Z</time></trkpt><trkpt lat="43.832095" lon="12.1630733"><ele>841.5999999999999</ele><time>2026-04-30T13:26:22.649Z</time></trkpt><trkpt lat="43.83202" lon="12.1630217"><ele>845.1999999999999</ele><time>2026-04-30T13:26:23.643Z</time></trkpt><trkpt lat="43.8319367" lon="12.163"><ele>848.8</ele><time>2026-04-30T13:26:24.651Z</time></trkpt><trkpt lat="43.831845" lon="12.1630117"><ele>852.4</ele><time>2026-04-30T13:26:25.651Z</time></trkpt><trkpt lat="43.831745" lon="12.16306"><ele>856.0</ele><time>2026-04-30T13:26:26.656Z</time></trkpt><trkpt lat="43.8316517" lon="12.1631317"><ele>853.1999999999999</ele><time>2026-04-30T13:26:27.648Z</time></trkpt><trkpt lat="43.83157" lon="12.1632017"><ele>850.3999999999999</ele><time>2026-04-30T13:26:28.646Z</time></trkpt><trkpt lat="43.83148" lon="12.16327"><ele>847.6</ele><time>2026-04-30T13:26:29.651Z</time></trkpt><trkpt lat="43.8313967" lon="12.16332"><ele>844.8</ele><time>2026-04-30T13:26:30.645Z</time></trkpt><trkpt lat="43.831315" lon="12.1633383"><ele>842.0</ele><time>2026-04-30T13:26:31.645Z</time></trkpt><trkpt lat="43.8312233" lon="12.1633317"><ele>842.0</ele><time>2026-04-30T13:26:32.648Z</time></trkpt><trkpt lat="43.8311233" lon="12.1632883"><ele>842.0</ele><time>2026-04-30T13:26:33.651Z</time></trkpt><trkpt lat="43.831015" lon="12.16323"><ele>842.0</ele><time>2026-04-30T13:26:34.649Z</time></trkpt><trkpt lat="43.8309033" lon="12.1631667"><ele>842.0</ele><time>2026-04-30T13:26:35.648Z</time></trkpt><trkpt lat="43.8307867" lon="12.1631133"><ele>853.5</ele><time>2026-04-30T13:26:36.649Z</time></trkpt><trkpt lat="43.8306717" lon="12.163065"><ele>865.0</ele><time>2026-04-30T13:26:37.642Z</time></trkpt><trkpt lat="43.83056" lon="12.1630217"><ele>876.5</ele><time>2026-04-30T13:26:38.65Z</time></trkpt><trkpt lat="43.83045" lon="12.1629733"><ele>888.0</ele><time>2026-04-30T13:26:39.643Z</time></trkpt><trkpt lat="43.830345" lon="12.1629217"><ele>888.0</ele><time>2026-04-30T13:26:40.647Z</time></trkpt><trkpt lat="43.8302367" lon="12.1628667"><ele>888.0</ele><time>2026-04-30T13:26:41.644Z</time></trkpt><trkpt lat="43.83013" lon="12.1628117"><ele>888.0</ele><time>2026-04-30T13:26:42.647Z</time></trkpt><trkpt lat="43.830025" lon="12.1627717"><ele>888.0</ele><time>2026-04-30T13:26:43.661Z</time></trkpt><trkpt lat="43.82993" lon="12.16274"><ele>888.0</ele><time>2026-04-30T13:26:44.646Z</time></trkpt><trkpt lat="43.8298433" lon="12.1627283"><ele>887.0</ele><time>2026-04-30T13:26:45.641Z</time></trkpt><trkpt lat="43.8297642" lon="12.1627292"><ele>886.0</ele><time>2026-04-30T13:26:46.643Z</time></trkpt><trkpt lat="43.8296872" lon="12.1627595"><ele>885.0</ele><time>2026-04-30T13:26:47.646Z</time></trkpt><trkpt lat="43.8296192" lon="12.1628098"><ele>884.0</ele><time>2026-04-30T13:26:48.645Z</time></trkpt><trkpt lat="43.8295647" lon="12.1628576"><ele>883.0</ele><time>2026-04-30T13:26:49.643Z</time></trkpt><trkpt lat="43.8294753" lon="12.1628804"><ele>882.0</ele><time>2026-04-30T13:26:51.649Z</time></trkpt><trkpt lat="43.8294378" lon="12.1627488"><ele>882.0</ele><time>2026-04-30T13:26:53.655Z</time></trkpt><trkpt lat="43.8294335" lon="12.1626389"><ele>882.0</ele><time>2026-04-30T13:26:54.65Z</time></trkpt><trkpt lat="43.82943" lon="12.1625302"><ele>882.0</ele><time>2026-04-30T13:26:55.654Z</time></trkpt><trkpt lat="43.8294196" lon="12.1624296"><ele>882.0</ele><time>2026-04-30T13:26:56.647Z</time></trkpt><trkpt lat="43.8294023" lon="12.1623303"><ele>882.0</ele><time>2026-04-30T13:26:57.644Z</time></trkpt><trkpt lat="43.829375" lon="12.1622338"><ele>882.0</ele><time>2026-04-30T13:26:58.64Z</time></trkpt><trkpt lat="43.8293279" lon="12.1621379"><ele>882.7142857142857</ele><time>2026-04-30T13:26:59.652Z</time></trkpt><trkpt lat="43.8292724" lon="12.1620436"><ele>883.4285714285714</ele><time>2026-04-30T13:27:00.654Z</time></trkpt><trkpt lat="43.8292304" lon="12.161953"><ele>884.1428571428571</ele><time>2026-04-30T13:27:01.644Z</time></trkpt><trkpt lat="43.8292063" lon="12.1618617"><ele>884.8571428571429</ele><time>2026-04-30T13:27:02.643Z</time></trkpt><trkpt lat="43.8291921" lon="12.1617681"><ele>885.5714285714286</ele><time>2026-04-30T13:27:03.646Z</time></trkpt><trkpt lat="43.8291786" lon="12.1616729"><ele>886.2857142857142</ele><time>2026-04-30T13:27:04.646Z</time></trkpt><trkpt lat="43.8291445" lon="12.1615857"><ele>887.0</ele><time>2026-04-30T13:27:05.645Z</time></trkpt><trkpt lat="43.8290826" lon="12.1615132"><ele>890.0</ele><time>2026-04-30T13:27:06.643Z</time></trkpt><trkpt lat="43.8289957" lon="12.1614538"><ele>893.0</ele><time>2026-04-30T13:27:07.643Z</time></trkpt><trkpt lat="43.8288856" lon="12.1614195"><ele>896.0</ele><time>2026-04-30T13:27:08.648Z</time></trkpt><trkpt lat="43.8287725" lon="12.1614241"><ele>899.0</ele><time>2026-04-30T13:27:09.651Z</time></trkpt><trkpt lat="43.8286611" lon="12.1614441"><ele>902.0</ele><time>2026-04-30T13:27:10.651Z</time></trkpt><trkpt lat="43.8285647" lon="12.1614704"><ele>902.0000000000001</ele><time>2026-04-30T13:27:11.646Z</time></trkpt><trkpt lat="43.8284828" lon="12.1614955"><ele>902.0</ele><time>2026-04-30T13:27:12.64Z</time></trkpt><trkpt lat="43.8284082" lon="12.161509"><ele>902.0</ele><time>2026-04-30T13:27:13.644Z</time></trkpt><trkpt lat="43.8283277" lon="12.1615181"><ele>902.0</ele><time>2026-04-30T13:27:14.643Z</time></trkpt><trkpt lat="43.8282386" lon="12.1615116"><ele>902.0000000000001</ele><time>2026-04-30T13:27:15.644Z</time></trkpt><trkpt lat="43.8281521" lon="12.1614856"><ele>902.0</ele><time>2026-04-30T13:27:16.647Z</time></trkpt><trkpt lat="43.8280833" lon="12.1614471"><ele>898.8</ele><time>2026-04-30T13:27:17.646Z</time></trkpt><trkpt lat="43.8280083" lon="12.1613767"><ele>895.6</ele><time>2026-04-30T13:27:19.644Z</time></trkpt><trkpt lat="43.82791" lon="12.1613217"><ele>892.3999999999999</ele><time>2026-04-30T13:27:30.65Z</time></trkpt><trkpt lat="43.827805" lon="12.1612667"><ele>889.1999999999999</ele><time>2026-04-30T13:27:32.65Z</time></trkpt><trkpt lat="43.8277117" lon="12.1611617"><ele>886.0</ele><time>2026-04-30T13:27:34.647Z</time></trkpt><trkpt lat="43.8276683" lon="12.1610817"><ele>886.6666666666666</ele><time>2026-04-30T13:27:35.652Z</time></trkpt><trkpt lat="43.8276267" lon="12.1609967"><ele>887.3333333333333</ele><time>2026-04-30T13:27:36.651Z</time></trkpt><trkpt lat="43.8275817" lon="12.1609133"><ele>888.0</ele><time>2026-04-30T13:27:37.649Z</time></trkpt><trkpt lat="43.8275283" lon="12.160835"><ele>888.6666666666667</ele><time>2026-04-30T13:27:38.651Z</time></trkpt><trkpt lat="43.8274617" lon="12.160765"><ele>889.3333333333334</ele><time>2026-04-30T13:27:39.646Z</time></trkpt><trkpt lat="43.8273917" lon="12.1606967"><ele>890.0</ele><time>2026-04-30T13:27:40.642Z</time></trkpt><trkpt lat="43.82732" lon="12.1606317"><ele>887.5000000000001</ele><time>2026-04-30T13:27:41.651Z</time></trkpt><trkpt lat="43.8272533" lon="12.16056"><ele>885.0</ele><time>2026-04-30T13:27:42.65Z</time></trkpt><trkpt lat="43.8271933" lon="12.1604767"><ele>882.5</ele><time>2026-04-30T13:27:43.645Z</time></trkpt><trkpt lat="43.8271417" lon="12.1603867"><ele>880.0</ele><time>2026-04-30T13:27:44.661Z</time></trkpt><trkpt lat="43.82709" lon="12.1602983"><ele>877.5000000000001</ele><time>2026-04-30T13:27:45.645Z</time></trkpt><trkpt lat="43.8270383" lon="12.1602183"><ele>875.0</ele><time>2026-04-30T13:27:46.643Z</time></trkpt><trkpt lat="43.8269783" lon="12.1601517"><ele>875.0000000000001</ele><time>2026-04-30T13:27:47.647Z</time></trkpt><trkpt lat="43.8269083" lon="12.1601033"><ele>875.0</ele><time>2026-04-30T13:27:48.653Z</time></trkpt><trkpt lat="43.82683" lon="12.1600783"><ele>875.0</ele><time>2026-04-30T13:27:49.647Z</time></trkpt><trkpt lat="43.82675" lon="12.1600717"><ele>875.0</ele><time>2026-04-30T13:27:50.651Z</time></trkpt><trkpt lat="43.8266683" lon="12.1600883"><ele>875.0000000000001</ele><time>2026-04-30T13:27:51.646Z</time></trkpt><trkpt lat="43.8265783" lon="12.1601283"><ele>875.0</ele><time>2026-04-30T13:27:52.646Z</time></trkpt><trkpt lat="43.8264833" lon="12.160185"><ele>878.2</ele><time>2026-04-30T13:27:53.646Z</time></trkpt><trkpt lat="43.82639" lon="12.16024"><ele>881.4</ele><time>2026-04-30T13:27:54.645Z</time></trkpt><trkpt lat="43.826295" lon="12.1602883"><ele>884.5999999999999</ele><time>2026-04-30T13:27:55.651Z</time></trkpt><trkpt lat="43.8261983" lon="12.1603217"><ele>887.8</ele><time>2026-04-30T13:27:56.659Z</time></trkpt><trkpt lat="43.8261033" lon="12.1603483"><ele>891.0</ele><time>2026-04-30T13:27:57.647Z</time></trkpt><trkpt lat="43.8260083" lon="12.1603683"><ele>892.8</ele><time>2026-04-30T13:27:58.645Z</time></trkpt><trkpt lat="43.8259133" lon="12.160385"><ele>894.5999999999999</ele><time>2026-04-30T13:27:59.645Z</time></trkpt><trkpt lat="43.825825" lon="12.1604033"><ele>896.4</ele><time>2026-04-30T13:28:00.647Z</time></trkpt><trkpt lat="43.8257383" lon="12.160415"><ele>898.2</ele><time>2026-04-30T13:28:01.647Z</time></trkpt><trkpt lat="43.8256483" lon="12.16042"><ele>900.0</ele><time>2026-04-30T13:28:02.641Z</time></trkpt><trkpt lat="43.8255517" lon="12.160425"><ele>900.0</ele><time>2026-04-30T13:28:03.645Z</time></trkpt><trkpt lat="43.8254517" lon="12.1604217"><ele>900.0</ele><time>2026-04-30T13:28:04.644Z</time></trkpt><trkpt lat="43.8253517" lon="12.1604067"><ele>900.0</ele><time>2026-04-30T13:28:05.648Z</time></trkpt><trkpt lat="43.825255" lon="12.1603667"><ele>900.0</ele><time>2026-04-30T13:28:06.65Z</time></trkpt><trkpt lat="43.8251533" lon="12.160315"><ele>900.0</ele><time>2026-04-30T13:28:07.648Z</time></trkpt><trkpt lat="43.8250467" lon="12.1602633"><ele>899.0</ele><time>2026-04-30T13:28:08.648Z</time></trkpt><trkpt lat="43.8249417" lon="12.1602017"><ele>898.0</ele><time>2026-04-30T13:28:09.65Z</time></trkpt><trkpt lat="43.8248367" lon="12.16013"><ele>897.0</ele><time>2026-04-30T13:28:10.648Z</time></trkpt><trkpt lat="43.82474" lon="12.160045"><ele>896.0</ele><time>2026-04-30T13:28:11.65Z</time></trkpt><trkpt lat="43.82466" lon="12.1599533"><ele>895.0</ele><time>2026-04-30T13:28:12.653Z</time></trkpt><trkpt lat="43.8245967" lon="12.159865"><ele>894.9999999999999</ele><time>2026-04-30T13:28:13.646Z</time></trkpt><trkpt lat="43.8245417" lon="12.15978"><ele>895.0</ele><time>2026-04-30T13:28:14.648Z</time></trkpt><trkpt lat="43.8244883" lon="12.1596933"><ele>895.0</ele><time>2026-04-30T13:28:15.646Z</time></trkpt><trkpt lat="43.8244483" lon="12.1596"><ele>895.0</ele><time>2026-04-30T13:28:16.647Z</time></trkpt><trkpt lat="43.82443" lon="12.15949"><ele>894.9999999999999</ele><time>2026-04-30T13:28:17.644Z</time></trkpt><trkpt lat="43.8244317" lon="12.15937"><ele>895.0</ele><time>2026-04-30T13:28:18.646Z</time></trkpt><trkpt lat="43.8244433" lon="12.15923"><ele>895.0</ele><time>2026-04-30T13:28:19.644Z</time></trkpt><trkpt lat="43.824455" lon="12.15909"><ele>895.0</ele><time>2026-04-30T13:28:20.651Z</time></trkpt><trkpt lat="43.824455" lon="12.1589633"><ele>895.0</ele><time>2026-04-30T13:28:21.643Z</time></trkpt><trkpt lat="43.82444" lon="12.1588417"><ele>895.0</ele><time>2026-04-30T13:28:22.648Z</time></trkpt><trkpt lat="43.8244117" lon="12.158725"><ele>895.0</ele><time>2026-04-30T13:28:23.644Z</time></trkpt><trkpt lat="43.8243583" lon="12.1586317"><ele>898.0</ele><time>2026-04-30T13:28:24.647Z</time></trkpt><trkpt lat="43.8242783" lon="12.15857"><ele>901.0</ele><time>2026-04-30T13:28:25.644Z</time></trkpt><trkpt lat="43.824195" lon="12.1585217"><ele>904.0</ele><time>2026-04-30T13:28:26.646Z</time></trkpt><trkpt lat="43.8240933" lon="12.158515"><ele>907.0</ele><time>2026-04-30T13:28:27.651Z</time></trkpt><trkpt lat="43.8239967" lon="12.1585383"><ele>910.0</ele><time>2026-04-30T13:28:28.647Z</time></trkpt><trkpt lat="43.8239183" lon="12.158575"><ele>910.0</ele><time>2026-04-30T13:28:29.646Z</time></trkpt><trkpt lat="43.82383" lon="12.15865"><ele>910.0</ele><time>2026-04-30T13:28:30.657Z</time></trkpt><trkpt lat="43.82373" lon="12.1587467"><ele>910.0</ele><time>2026-04-30T13:28:31.646Z</time></trkpt><trkpt lat="43.8236367" lon="12.158815"><ele>910.0</ele><time>2026-04-30T13:28:32.657Z</time></trkpt><trkpt lat="43.8235383" lon="12.158865"><ele>910.0</ele><time>2026-04-30T13:28:33.656Z</time></trkpt><trkpt lat="43.823445" lon="12.15888"><ele>910.0</ele><time>2026-04-30T13:28:34.655Z</time></trkpt><trkpt lat="43.82335" lon="12.158875"><ele>910.0</ele><time>2026-04-30T13:28:35.648Z</time></trkpt><trkpt lat="43.823265" lon="12.158845"><ele>910.0</ele><time>2026-04-30T13:28:36.65Z</time></trkpt><trkpt lat="43.8231783" lon="12.1587967"><ele>910.0</ele><time>2026-04-30T13:28:37.649Z</time></trkpt><trkpt lat="43.8230917" lon="12.158735"><ele>910.0</ele><time>2026-04-30T13:28:38.648Z</time></trkpt><trkpt lat="43.82301" lon="12.1586617"><ele>910.0</ele><time>2026-04-30T13:28:39.663Z</time></trkpt><trkpt lat="43.82293" lon="12.1585817"><ele>910.0</ele><time>2026-04-30T13:28:40.649Z</time></trkpt><trkpt lat="43.8228533" lon="12.1585"><ele>910.0</ele><time>2026-04-30T13:28:41.648Z</time></trkpt><trkpt lat="43.8227867" lon="12.1584183"><ele>910.0</ele><time>2026-04-30T13:28:42.65Z</time></trkpt><trkpt lat="43.8227217" lon="12.1583467"><ele>910.0</ele><time>2026-04-30T13:28:43.647Z</time></trkpt><trkpt lat="43.8226567" lon="12.158275"><ele>912.0</ele><time>2026-04-30T13:28:44.653Z</time></trkpt><trkpt lat="43.82259" lon="12.15819"><ele>914.0</ele><time>2026-04-30T13:28:45.655Z</time></trkpt><trkpt lat="43.8225217" lon="12.1581067"><ele>916.0</ele><time>2026-04-30T13:28:46.648Z</time></trkpt><trkpt lat="43.8224517" lon="12.1580283"><ele>918.0</ele><time>2026-04-30T13:28:47.649Z</time></trkpt><trkpt lat="43.8223783" lon="12.1579517"><ele>920.0</ele><time>2026-04-30T13:28:48.653Z</time></trkpt><trkpt lat="43.822305" lon="12.15788"><ele>920.0</ele><time>2026-04-30T13:28:49.651Z</time></trkpt><trkpt lat="43.82223" lon="12.1578083"><ele>920.0</ele><time>2026-04-30T13:28:50.647Z</time></trkpt><trkpt lat="43.8221517" lon="12.1577367"><ele>920.0</ele><time>2026-04-30T13:28:51.646Z</time></trkpt><trkpt lat="43.82208" lon="12.1576583"><ele>920.0</ele><time>2026-04-30T13:28:52.654Z</time></trkpt><trkpt lat="43.8220117" lon="12.1575683"><ele>920.0</ele><time>2026-04-30T13:28:53.653Z</time></trkpt><trkpt lat="43.8219467" lon="12.15746"><ele>920.8</ele><time>2026-04-30T13:28:54.651Z</time></trkpt><trkpt lat="43.8218817" lon="12.15734"><ele>921.6</ele><time>2026-04-30T13:28:55.651Z</time></trkpt><trkpt lat="43.8218133" lon="12.1572183"><ele>922.4000000000001</ele><time>2026-04-30T13:28:56.651Z</time></trkpt><trkpt lat="43.8217433" lon="12.1571117"><ele>923.2</ele><time>2026-04-30T13:28:57.648Z</time></trkpt><trkpt lat="43.8216683" lon="12.1570033"><ele>924.0</ele><time>2026-04-30T13:28:58.661Z</time></trkpt><trkpt lat="43.8215883" lon="12.1568867"><ele>928.0</ele><time>2026-04-30T13:28:59.64Z</time></trkpt><trkpt lat="43.8215117" lon="12.1567833"><ele>932.0000000000001</ele><time>2026-04-30T13:29:00.65Z</time></trkpt><trkpt lat="43.8214317" lon="12.1566933"><ele>936.0000000000001</ele><time>2026-04-30T13:29:01.651Z</time></trkpt><trkpt lat="43.821345" lon="12.1566"><ele>940.0</ele><time>2026-04-30T13:29:02.657Z</time></trkpt><trkpt lat="43.8212583" lon="12.1565033"><ele>944.0</ele><time>2026-04-30T13:29:03.644Z</time></trkpt><trkpt lat="43.82118" lon="12.1564167"><ele>945.4000000000001</ele><time>2026-04-30T13:29:04.647Z</time></trkpt><trkpt lat="43.8211033" lon="12.15635"><ele>946.8000000000001</ele><time>2026-04-30T13:29:05.648Z</time></trkpt><trkpt lat="43.821025" lon="12.1563017"><ele>948.1999999999999</ele><time>2026-04-30T13:29:06.656Z</time></trkpt><trkpt lat="43.8209433" lon="12.1562683"><ele>949.5999999999999</ele><time>2026-04-30T13:29:07.647Z</time></trkpt><trkpt lat="43.820855" lon="12.15623"><ele>951.0</ele><time>2026-04-30T13:29:08.651Z</time></trkpt><trkpt lat="43.8207583" lon="12.1561867"><ele>951.0</ele><time>2026-04-30T13:29:09.647Z</time></trkpt><trkpt lat="43.8206517" lon="12.1561383"><ele>950.9999999999999</ele><time>2026-04-30T13:29:10.656Z</time></trkpt><trkpt lat="43.820555" lon="12.1560917"><ele>950.9999999999999</ele><time>2026-04-30T13:29:11.653Z</time></trkpt><trkpt lat="43.8204717" lon="12.1560517"><ele>951.0</ele><time>2026-04-30T13:29:12.65Z</time></trkpt><trkpt lat="43.8203883" lon="12.1560283"><ele>951.0</ele><time>2026-04-30T13:29:13.64Z</time></trkpt><trkpt lat="43.8203067" lon="12.155995"><ele>951.0</ele><time>2026-04-30T13:29:14.659Z</time></trkpt><trkpt lat="43.8202217" lon="12.155955"><ele>950.9999999999999</ele><time>2026-04-30T13:29:15.652Z</time></trkpt><trkpt lat="43.82013" lon="12.1559083"><ele>950.9999999999999</ele><time>2026-04-30T13:29:16.646Z</time></trkpt><trkpt lat="43.8200383" lon="12.1558617"><ele>951.0</ele><time>2026-04-30T13:29:17.649Z</time></trkpt><trkpt lat="43.8199583" lon="12.1558033"><ele>951.0</ele><time>2026-04-30T13:29:18.648Z</time></trkpt><trkpt lat="43.819885" lon="12.155745"><ele>947.6666666666666</ele><time>2026-04-30T13:29:19.655Z</time></trkpt><trkpt lat="43.8198067" lon="12.1556967"><ele>944.3333333333333</ele><time>2026-04-30T13:29:20.653Z</time></trkpt><trkpt lat="43.8197317" lon="12.1556467"><ele>941.0</ele><time>2026-04-30T13:29:21.649Z</time></trkpt><trkpt lat="43.8196583" lon="12.155595"><ele>937.6666666666666</ele><time>2026-04-30T13:29:22.657Z</time></trkpt><trkpt lat="43.819585" lon="12.1555467"><ele>934.3333333333333</ele><time>2026-04-30T13:29:23.646Z</time></trkpt><trkpt lat="43.8195133" lon="12.155505"><ele>931.0</ele><time>2026-04-30T13:29:24.651Z</time></trkpt><trkpt lat="43.81944" lon="12.1554683"><ele>930.9999999999999</ele><time>2026-04-30T13:29:25.654Z</time></trkpt><trkpt lat="43.8193617" lon="12.15544"><ele>931.0</ele><time>2026-04-30T13:29:26.648Z</time></trkpt><trkpt lat="43.81928" lon="12.1554183"><ele>931.0</ele><time>2026-04-30T13:29:27.648Z</time></trkpt><trkpt lat="43.8191983" lon="12.1553983"><ele>931.0</ele><time>2026-04-30T13:29:28.643Z</time></trkpt><trkpt lat="43.819115" lon="12.15538"><ele>930.9999999999999</ele><time>2026-04-30T13:29:29.653Z</time></trkpt><trkpt lat="43.8190333" lon="12.1553533"><ele>931.0</ele><time>2026-04-30T13:29:30.648Z</time></trkpt><trkpt lat="43.8189567" lon="12.1553117"><ele>930.9999999999999</ele><time>2026-04-30T13:29:31.649Z</time></trkpt><trkpt lat="43.8188817" lon="12.1552517"><ele>931.0</ele><time>2026-04-30T13:29:32.648Z</time></trkpt><trkpt lat="43.8188167" lon="12.155185"><ele>931.0</ele><time>2026-04-30T13:29:33.65Z</time></trkpt><trkpt lat="43.8187533" lon="12.15511"><ele>931.0</ele><time>2026-04-30T13:29:34.652Z</time></trkpt><trkpt lat="43.818695" lon="12.1550317"><ele>930.9999999999999</ele><time>2026-04-30T13:29:35.655Z</time></trkpt><trkpt lat="43.8186483" lon="12.1549533"><ele>931.0</ele><time>2026-04-30T13:29:36.655Z</time></trkpt><trkpt lat="43.8186083" lon="12.1548733"><ele>930.0</ele><time>2026-04-30T13:29:37.645Z</time></trkpt><trkpt lat="43.8185717" lon="12.1547983"><ele>928.9999999999999</ele><time>2026-04-30T13:29:38.653Z</time></trkpt><trkpt lat="43.8185" lon="12.15467"><ele>927.9999999999999</ele><time>2026-04-30T13:29:40.658Z</time></trkpt><trkpt lat="43.8184333" lon="12.1545533"><ele>927.0</ele><time>2026-04-30T13:29:42.646Z</time></trkpt><trkpt lat="43.8183833" lon="12.1544617"><ele>926.0</ele><time>2026-04-30T13:29:44.648Z</time></trkpt><trkpt lat="43.8182717" lon="12.1543645"><ele>926.0</ele><time>2026-04-30T13:29:55.647Z</time></trkpt><trkpt lat="43.8182069" lon="12.1543386"><ele>925.9999999999999</ele><time>2026-04-30T13:29:58.667Z</time></trkpt><trkpt lat="43.818075" lon="12.1543467"><ele>925.9999999999999</ele><time>2026-04-30T13:30:16.646Z</time></trkpt><trkpt lat="43.8180083" lon="12.1543667"><ele>926.0</ele><time>2026-04-30T13:30:21.659Z</time></trkpt><trkpt lat="43.8179033" lon="12.1544117"><ele>926.0</ele><time>2026-04-30T13:30:39.65Z</time></trkpt><trkpt lat="43.8178117" lon="12.1545067"><ele>926.0000000000001</ele><time>2026-04-30T13:30:53.657Z</time></trkpt><trkpt lat="43.8177517" lon="12.1545667"><ele>926.0</ele><time>2026-04-30T13:30:57.658Z</time></trkpt><trkpt lat="43.81768" lon="12.15462"><ele>926.0</ele><time>2026-04-30T13:31:06.647Z</time></trkpt><trkpt lat="43.8175717" lon="12.1546017"><ele>926.0</ele><time>2026-04-30T13:31:18.646Z</time></trkpt><trkpt lat="43.817485" lon="12.1545883"><ele>926.0000000000001</ele><time>2026-04-30T13:31:21.646Z</time></trkpt><trkpt lat="43.8174117" lon="12.1545683"><ele>926.0</ele><time>2026-04-30T13:31:24.647Z</time></trkpt><trkpt lat="43.8173517" lon="12.1545033"><ele>924.5000000000001</ele><time>2026-04-30T13:31:28.65Z</time></trkpt><trkpt lat="43.8172883" lon="12.15449"><ele>923.0</ele><time>2026-04-30T13:31:31.652Z</time></trkpt><trkpt lat="43.8172167" lon="12.154455"><ele>921.5</ele><time>2026-04-30T13:31:33.651Z</time></trkpt><trkpt lat="43.8171283" lon="12.1543733"><ele>920.0</ele><time>2026-04-30T13:31:35.643Z</time></trkpt><trkpt lat="43.8170667" lon="12.1543083"><ele>918.5000000000001</ele><time>2026-04-30T13:31:36.641Z</time></trkpt><trkpt lat="43.8169833" lon="12.1542167"><ele>917.0</ele><time>2026-04-30T13:31:37.652Z</time></trkpt><trkpt lat="43.8168733" lon="12.15409"><ele>912.25</ele><time>2026-04-30T13:31:38.654Z</time></trkpt><trkpt lat="43.8167483" lon="12.153955"><ele>907.5</ele><time>2026-04-30T13:31:39.648Z</time></trkpt><trkpt lat="43.8166267" lon="12.1538283"><ele>902.75</ele><time>2026-04-30T13:31:40.65Z</time></trkpt><trkpt lat="43.816515" lon="12.153715"><ele>898.0</ele><time>2026-04-30T13:31:41.657Z</time></trkpt><trkpt lat="43.8164067" lon="12.1536067"><ele>898.0</ele><time>2026-04-30T13:31:42.649Z</time></trkpt><trkpt lat="43.816305" lon="12.1535067"><ele>898.0</ele><time>2026-04-30T13:31:43.647Z</time></trkpt><trkpt lat="43.8162217" lon="12.1534183"><ele>898.0</ele><time>2026-04-30T13:31:44.652Z</time></trkpt><trkpt lat="43.8161567" lon="12.1533283"><ele>898.0</ele><time>2026-04-30T13:31:45.649Z</time></trkpt><trkpt lat="43.8161083" lon="12.1532317"><ele>898.0</ele><time>2026-04-30T13:31:46.645Z</time></trkpt><trkpt lat="43.816065" lon="12.1531133"><ele>896.8</ele><time>2026-04-30T13:31:47.649Z</time></trkpt><trkpt lat="43.8160233" lon="12.152975"><ele>895.5999999999999</ele><time>2026-04-30T13:31:48.65Z</time></trkpt><trkpt lat="43.8159883" lon="12.152835"><ele>894.4000000000001</ele><time>2026-04-30T13:31:49.647Z</time></trkpt><trkpt lat="43.8159633" lon="12.152705"><ele>893.2</ele><time>2026-04-30T13:31:50.648Z</time></trkpt><trkpt lat="43.815945" lon="12.152575"><ele>892.0</ele><time>2026-04-30T13:31:51.651Z</time></trkpt><trkpt lat="43.8159333" lon="12.1524567"><ele>892.0</ele><time>2026-04-30T13:31:52.656Z</time></trkpt><trkpt lat="43.8159283" lon="12.1523583"><ele>892.0</ele><time>2026-04-30T13:31:53.65Z</time></trkpt><trkpt lat="43.8159217" lon="12.1521933"><ele>892.0</ele><time>2026-04-30T13:31:55.644Z</time></trkpt><trkpt lat="43.8159267" lon="12.15206"><ele>892.0</ele><time>2026-04-30T13:31:57.65Z</time></trkpt><trkpt lat="43.815935" lon="12.1518933"><ele>892.0</ele><time>2026-04-30T13:31:59.649Z</time></trkpt><trkpt lat="43.8159483" lon="12.1517867"><ele>891.9999999999999</ele><time>2026-04-30T13:32:00.652Z</time></trkpt><trkpt lat="43.8159717" lon="12.151675"><ele>892.0</ele><time>2026-04-30T13:32:01.647Z</time></trkpt><trkpt lat="43.81599" lon="12.1515667"><ele>892.0</ele><time>2026-04-30T13:32:02.648Z</time></trkpt><trkpt lat="43.8159983" lon="12.1514567"><ele>892.0</ele><time>2026-04-30T13:32:03.651Z</time></trkpt><trkpt lat="43.8159917" lon="12.1513367"><ele>891.9999999999999</ele><time>2026-04-30T13:32:04.645Z</time></trkpt><trkpt lat="43.8159567" lon="12.1512033"><ele>892.0</ele><time>2026-04-30T13:32:05.647Z</time></trkpt><trkpt lat="43.8159017" lon="12.15106"><ele>891.6</ele><time>2026-04-30T13:32:06.644Z</time></trkpt><trkpt lat="43.8158517" lon="12.1509067"><ele>891.2</ele><time>2026-04-30T13:32:07.649Z</time></trkpt><trkpt lat="43.8158183" lon="12.1507483"><ele>890.8</ele><time>2026-04-30T13:32:08.646Z</time></trkpt><trkpt lat="43.815795" lon="12.1506067"><ele>890.4</ele><time>2026-04-30T13:32:09.649Z</time></trkpt><trkpt lat="43.8157783" lon="12.15048"><ele>890.0</ele><time>2026-04-30T13:32:10.65Z</time></trkpt><trkpt lat="43.8157767" lon="12.15036"><ele>888.5000000000001</ele><time>2026-04-30T13:32:11.643Z</time></trkpt><trkpt lat="43.8157983" lon="12.1502417"><ele>887.0</ele><time>2026-04-30T13:32:12.649Z</time></trkpt><trkpt lat="43.8158533" lon="12.15014"><ele>885.5</ele><time>2026-04-30T13:32:13.647Z</time></trkpt><trkpt lat="43.8159" lon="12.1500467"><ele>884.0</ele><time>2026-04-30T13:32:14.649Z</time></trkpt><trkpt lat="43.815925" lon="12.149955"><ele>882.5000000000001</ele><time>2026-04-30T13:32:15.653Z</time></trkpt><trkpt lat="43.8159317" lon="12.149865"><ele>881.0</ele><time>2026-04-30T13:32:16.647Z</time></trkpt><trkpt lat="43.8159033" lon="12.14977"><ele>879.1999999999999</ele><time>2026-04-30T13:32:17.662Z</time></trkpt><trkpt lat="43.815825" lon="12.14966"><ele>877.3999999999999</ele><time>2026-04-30T13:32:18.651Z</time></trkpt><trkpt lat="43.815745" lon="12.1495633"><ele>875.6</ele><time>2026-04-30T13:32:19.651Z</time></trkpt><trkpt lat="43.8156617" lon="12.1494683"><ele>873.8</ele><time>2026-04-30T13:32:20.648Z</time></trkpt><trkpt lat="43.8155867" lon="12.1493717"><ele>872.0</ele><time>2026-04-30T13:32:21.652Z</time></trkpt><trkpt lat="43.8155433" lon="12.14926"><ele>872.0</ele><time>2026-04-30T13:32:22.641Z</time></trkpt><trkpt lat="43.8155317" lon="12.1491167"><ele>872.0</ele><time>2026-04-30T13:32:23.65Z</time></trkpt><trkpt lat="43.8155433" lon="12.1489533"><ele>872.0</ele><time>2026-04-30T13:32:24.644Z</time></trkpt><trkpt lat="43.8155567" lon="12.1487717"><ele>872.0</ele><time>2026-04-30T13:32:25.647Z</time></trkpt><trkpt lat="43.8155683" lon="12.1486083"><ele>872.1666666666667</ele><time>2026-04-30T13:32:26.647Z</time></trkpt><trkpt lat="43.81558" lon="12.148475"><ele>872.3333333333334</ele><time>2026-04-30T13:32:27.647Z</time></trkpt><trkpt lat="43.8155883" lon="12.1483767"><ele>872.5</ele><time>2026-04-30T13:32:28.649Z</time></trkpt><trkpt lat="43.815605" lon="12.1482733"><ele>872.6666666666667</ele><time>2026-04-30T13:32:30.648Z</time></trkpt><trkpt lat="43.8156033" lon="12.1481467"><ele>872.8333333333334</ele><time>2026-04-30T13:33:57.65Z</time></trkpt><trkpt lat="43.8156117" lon="12.1480517"><ele>873.0</ele><time>2026-04-30T13:33:59.655Z</time></trkpt><trkpt lat="43.8156433" lon="12.147925"><ele>874.4</ele><time>2026-04-30T13:34:01.648Z</time></trkpt><trkpt lat="43.8157133" lon="12.147775"><ele>875.8</ele><time>2026-04-30T13:34:03.652Z</time></trkpt><trkpt lat="43.8157583" lon="12.1476983"><ele>877.2</ele><time>2026-04-30T13:34:04.65Z</time></trkpt><trkpt lat="43.8158367" lon="12.14758"><ele>878.6</ele><time>2026-04-30T13:34:06.654Z</time></trkpt><trkpt lat="43.815925" lon="12.1474817"><ele>880.0</ele><time>2026-04-30T13:34:08.658Z</time></trkpt><trkpt lat="43.816025" lon="12.1474333"><ele>879.9999999999999</ele><time>2026-04-30T13:34:10.646Z</time></trkpt><trkpt lat="43.8161333" lon="12.1474333"><ele>880.0</ele><time>2026-04-30T13:34:12.653Z</time></trkpt><trkpt lat="43.816195" lon="12.1474567"><ele>880.0</ele><time>2026-04-30T13:34:13.65Z</time></trkpt><trkpt lat="43.81626" lon="12.1474883"><ele>880.0</ele><time>2026-04-30T13:34:14.65Z</time></trkpt><trkpt lat="43.8163333" lon="12.147515"><ele>879.9999999999999</ele><time>2026-04-30T13:34:15.651Z</time></trkpt><trkpt lat="43.8164067" lon="12.1475367"><ele>880.0</ele><time>2026-04-30T13:34:16.643Z</time></trkpt><trkpt lat="43.81648" lon="12.147545"><ele>879.9999999999999</ele><time>2026-04-30T13:34:17.649Z</time></trkpt><trkpt lat="43.816545" lon="12.1475583"><ele>880.0</ele><time>2026-04-30T13:34:18.651Z</time></trkpt><trkpt lat="43.816615" lon="12.1475467"><ele>880.0</ele><time>2026-04-30T13:34:19.648Z</time></trkpt><trkpt lat="43.816685" lon="12.14751"><ele>880.0</ele><time>2026-04-30T13:34:20.654Z</time></trkpt><trkpt lat="43.816745" lon="12.1474517"><ele>879.9999999999999</ele><time>2026-04-30T13:34:21.646Z</time></trkpt><trkpt lat="43.8168067" lon="12.14737"><ele>880.0</ele><time>2026-04-30T13:34:22.642Z</time></trkpt><trkpt lat="43.8168617" lon="12.147265"><ele>880.4999999999999</ele><time>2026-04-30T13:34:23.648Z</time></trkpt><trkpt lat="43.8168967" lon="12.14716"><ele>881.0</ele><time>2026-04-30T13:34:24.645Z</time></trkpt><trkpt lat="43.81691" lon="12.1470467"><ele>881.5</ele><time>2026-04-30T13:34:25.642Z</time></trkpt><trkpt lat="43.816915" lon="12.1469383"><ele>882.0</ele><time>2026-04-30T13:34:26.645Z</time></trkpt><trkpt lat="43.8168967" lon="12.1468283"><ele>882.4999999999999</ele><time>2026-04-30T13:34:27.647Z</time></trkpt><trkpt lat="43.8168383" lon="12.146725"><ele>883.0</ele><time>2026-04-30T13:34:28.651Z</time></trkpt><trkpt lat="43.8167667" lon="12.14662"><ele>880.4</ele><time>2026-04-30T13:34:29.643Z</time></trkpt><trkpt lat="43.8166817" lon="12.14653"><ele>877.8</ele><time>2026-04-30T13:34:30.652Z</time></trkpt><trkpt lat="43.81659" lon="12.1464633"><ele>875.2</ele><time>2026-04-30T13:34:31.646Z</time></trkpt><trkpt lat="43.8165" lon="12.1464083"><ele>872.6</ele><time>2026-04-30T13:34:32.656Z</time></trkpt><trkpt lat="43.8164167" lon="12.1463517"><ele>870.0</ele><time>2026-04-30T13:34:33.657Z</time></trkpt><trkpt lat="43.81634" lon="12.146285"><ele>870.0</ele><time>2026-04-30T13:34:34.647Z</time></trkpt><trkpt lat="43.8162683" lon="12.14621"><ele>870.0</ele><time>2026-04-30T13:34:35.64Z</time></trkpt><trkpt lat="43.8162017" lon="12.1461117"><ele>870.0</ele><time>2026-04-30T13:34:36.646Z</time></trkpt><trkpt lat="43.8161383" lon="12.146005"><ele>870.0</ele><time>2026-04-30T13:34:37.645Z</time></trkpt><trkpt lat="43.81608" lon="12.1458933"><ele>870.0</ele><time>2026-04-30T13:34:38.647Z</time></trkpt><trkpt lat="43.8160183" lon="12.1457917"><ele>872.0</ele><time>2026-04-30T13:34:39.648Z</time></trkpt><trkpt lat="43.815955" lon="12.1457067"><ele>874.0</ele><time>2026-04-30T13:34:40.648Z</time></trkpt><trkpt lat="43.8158933" lon="12.145615"><ele>876.0</ele><time>2026-04-30T13:34:41.646Z</time></trkpt><trkpt lat="43.81584" lon="12.1455117"><ele>878.0</ele><time>2026-04-30T13:34:42.643Z</time></trkpt><trkpt lat="43.8158017" lon="12.1453983"><ele>880.0</ele><time>2026-04-30T13:34:43.65Z</time></trkpt><trkpt lat="43.8157817" lon="12.1452717"><ele>879.9999999999999</ele><time>2026-04-30T13:34:44.658Z</time></trkpt><trkpt lat="43.8157733" lon="12.145145"><ele>880.0</ele><time>2026-04-30T13:34:45.654Z</time></trkpt><trkpt lat="43.81576" lon="12.1450183"><ele>880.0</ele><time>2026-04-30T13:34:46.651Z</time></trkpt><trkpt lat="43.8157417" lon="12.1448917"><ele>880.0</ele><time>2026-04-30T13:34:47.655Z</time></trkpt><trkpt lat="43.815725" lon="12.1447717"><ele>879.9999999999999</ele><time>2026-04-30T13:34:48.653Z</time></trkpt><trkpt lat="43.8157083" lon="12.14466"><ele>880.0</ele><time>2026-04-30T13:34:49.654Z</time></trkpt><trkpt lat="43.8156967" lon="12.1445517"><ele>880.6666666666666</ele><time>2026-04-30T13:34:50.651Z</time></trkpt><trkpt lat="43.8156917" lon="12.1444383"><ele>881.3333333333333</ele><time>2026-04-30T13:34:51.648Z</time></trkpt><trkpt lat="43.8156867" lon="12.144325"><ele>882.0</ele><time>2026-04-30T13:34:52.658Z</time></trkpt><trkpt lat="43.8156833" lon="12.144215"><ele>882.6666666666667</ele><time>2026-04-30T13:34:53.645Z</time></trkpt><trkpt lat="43.8156817" lon="12.1441067"><ele>883.3333333333334</ele><time>2026-04-30T13:34:54.662Z</time></trkpt><trkpt lat="43.8156767" lon="12.143995"><ele>884.0</ele><time>2026-04-30T13:34:55.645Z</time></trkpt><trkpt lat="43.8156617" lon="12.1438817"><ele>886.2</ele><time>2026-04-30T13:34:56.654Z</time></trkpt><trkpt lat="43.815625" lon="12.14376"><ele>888.4000000000001</ele><time>2026-04-30T13:34:57.645Z</time></trkpt><trkpt lat="43.8155683" lon="12.14364"><ele>890.6</ele><time>2026-04-30T13:34:58.656Z</time></trkpt><trkpt lat="43.8155067" lon="12.1435183"><ele>892.8</ele><time>2026-04-30T13:34:59.648Z</time></trkpt><trkpt lat="43.815445" lon="12.1433883"><ele>895.0</ele><time>2026-04-30T13:35:00.647Z</time></trkpt><trkpt lat="43.815385" lon="12.1432617"><ele>892.4</ele><time>2026-04-30T13:35:01.645Z</time></trkpt><trkpt lat="43.815335" lon="12.1431383"><ele>889.8</ele><time>2026-04-30T13:35:02.647Z</time></trkpt><trkpt lat="43.8152867" lon="12.143"><ele>887.2</ele><time>2026-04-30T13:35:03.651Z</time></trkpt><trkpt lat="43.8152417" lon="12.142855"><ele>884.6</ele><time>2026-04-30T13:35:04.644Z</time></trkpt><trkpt lat="43.8152033" lon="12.1427117"><ele>882.0</ele><time>2026-04-30T13:35:05.644Z</time></trkpt><trkpt lat="43.8151717" lon="12.1425733"><ele>882.0</ele><time>2026-04-30T13:35:06.649Z</time></trkpt><trkpt lat="43.81514" lon="12.142445"><ele>882.0</ele><time>2026-04-30T13:35:07.644Z</time></trkpt><trkpt lat="43.8150983" lon="12.1423317"><ele>882.0</ele><time>2026-04-30T13:35:08.646Z</time></trkpt><trkpt lat="43.8150383" lon="12.1422283"><ele>882.0</ele><time>2026-04-30T13:35:09.656Z</time></trkpt><trkpt lat="43.81497" lon="12.1421383"><ele>882.0</ele><time>2026-04-30T13:35:10.648Z</time></trkpt><trkpt lat="43.8149033" lon="12.1420617"><ele>882.0</ele><time>2026-04-30T13:35:11.639Z</time></trkpt><trkpt lat="43.8148417" lon="12.1419883"><ele>882.0</ele><time>2026-04-30T13:35:12.643Z</time></trkpt><trkpt lat="43.8147867" lon="12.1419133"><ele>882.0</ele><time>2026-04-30T13:35:13.639Z</time></trkpt><trkpt lat="43.814745" lon="12.14183"><ele>882.0</ele><time>2026-04-30T13:35:14.642Z</time></trkpt><trkpt lat="43.8147233" lon="12.14173"><ele>882.0</ele><time>2026-04-30T13:35:15.648Z</time></trkpt><trkpt lat="43.8147167" lon="12.1416133"><ele>882.0</ele><time>2026-04-30T13:35:16.655Z</time></trkpt><trkpt lat="43.81472" lon="12.14148"><ele>879.8</ele><time>2026-04-30T13:35:17.647Z</time></trkpt><trkpt lat="43.814725" lon="12.141345"><ele>877.6</ele><time>2026-04-30T13:35:18.649Z</time></trkpt><trkpt lat="43.8147217" lon="12.1412133"><ele>875.3999999999999</ele><time>2026-04-30T13:35:19.655Z</time></trkpt><trkpt lat="43.8147133" lon="12.1410917"><ele>873.1999999999999</ele><time>2026-04-30T13:35:20.659Z</time></trkpt><trkpt lat="43.8146933" lon="12.1409783"><ele>871.0</ele><time>2026-04-30T13:35:21.647Z</time></trkpt><trkpt lat="43.8146583" lon="12.1408667"><ele>871.0</ele><time>2026-04-30T13:35:22.652Z</time></trkpt><trkpt lat="43.8146033" lon="12.1407533"><ele>871.0</ele><time>2026-04-30T13:35:23.647Z</time></trkpt><trkpt lat="43.8145183" lon="12.140635"><ele>871.0</ele><time>2026-04-30T13:35:24.648Z</time></trkpt><trkpt lat="43.8144367" lon="12.14052"><ele>871.0</ele><time>2026-04-30T13:35:25.643Z</time></trkpt><trkpt lat="43.81436" lon="12.1403967"><ele>872.8</ele><time>2026-04-30T13:35:26.654Z</time></trkpt><trkpt lat="43.8143" lon="12.1402717"><ele>874.5999999999999</ele><time>2026-04-30T13:35:27.651Z</time></trkpt><trkpt lat="43.8142533" lon="12.1401433"><ele>876.4</ele><time>2026-04-30T13:35:28.648Z</time></trkpt><trkpt lat="43.8142017" lon="12.1400067"><ele>878.2</ele><time>2026-04-30T13:35:29.645Z</time></trkpt><trkpt lat="43.8141367" lon="12.13987"><ele>880.0</ele><time>2026-04-30T13:35:30.648Z</time></trkpt><trkpt lat="43.8140633" lon="12.1397433"><ele>882.75</ele><time>2026-04-30T13:35:31.647Z</time></trkpt><trkpt lat="43.8139817" lon="12.1396367"><ele>885.5</ele><time>2026-04-30T13:35:32.652Z</time></trkpt><trkpt lat="43.8138883" lon="12.1395417"><ele>888.25</ele><time>2026-04-30T13:35:33.647Z</time></trkpt><trkpt lat="43.8137883" lon="12.139455"><ele>891.0</ele><time>2026-04-30T13:35:34.651Z</time></trkpt><trkpt lat="43.8136933" lon="12.1393767"><ele>891.0</ele><time>2026-04-30T13:35:35.649Z</time></trkpt><trkpt lat="43.81362" lon="12.139295"><ele>891.0</ele><time>2026-04-30T13:35:36.653Z</time></trkpt><trkpt lat="43.8135667" lon="12.1392067"><ele>891.0</ele><time>2026-04-30T13:35:37.65Z</time></trkpt><trkpt lat="43.8135367" lon="12.1391083"><ele>891.0</ele><time>2026-04-30T13:35:38.647Z</time></trkpt><trkpt lat="43.81353" lon="12.1389933"><ele>891.0</ele><time>2026-04-30T13:35:39.649Z</time></trkpt><trkpt lat="43.8135583" lon="12.1388667"><ele>891.0</ele><time>2026-04-30T13:35:40.647Z</time></trkpt><trkpt lat="43.8136083" lon="12.1387283"><ele>891.1999999999999</ele><time>2026-04-30T13:35:41.646Z</time></trkpt><trkpt lat="43.813675" lon="12.1385983"><ele>891.3999999999999</ele><time>2026-04-30T13:35:42.648Z</time></trkpt><trkpt lat="43.8137367" lon="12.1384733"><ele>891.6</ele><time>2026-04-30T13:35:43.646Z</time></trkpt><trkpt lat="43.8137817" lon="12.138345"><ele>891.8</ele><time>2026-04-30T13:35:44.655Z</time></trkpt><trkpt lat="43.8138233" lon="12.1382217"><ele>892.0</ele><time>2026-04-30T13:35:45.65Z</time></trkpt><trkpt lat="43.8138683" lon="12.1380883"><ele>892.0</ele><time>2026-04-30T13:35:46.638Z</time></trkpt><trkpt lat="43.8139133" lon="12.1379383"><ele>892.0</ele><time>2026-04-30T13:35:47.648Z</time></trkpt><trkpt lat="43.8139533" lon="12.13777"><ele>892.0</ele><time>2026-04-30T13:35:48.651Z</time></trkpt><trkpt lat="43.8139867" lon="12.1375933"><ele>892.0</ele><time>2026-04-30T13:35:49.65Z</time></trkpt><trkpt lat="43.8140117" lon="12.1374217"><ele>892.5</ele><time>2026-04-30T13:35:50.656Z</time></trkpt><trkpt lat="43.8140317" lon="12.1372617"><ele>893.0</ele><time>2026-04-30T13:35:51.654Z</time></trkpt><trkpt lat="43.8140433" lon="12.1371067"><ele>893.5</ele><time>2026-04-30T13:35:52.644Z</time></trkpt><trkpt lat="43.814045" lon="12.1369467"><ele>894.0</ele><time>2026-04-30T13:35:53.651Z</time></trkpt><trkpt lat="43.81403" lon="12.1367867"><ele>894.0</ele><time>2026-04-30T13:35:54.65Z</time></trkpt><trkpt lat="43.8139983" lon="12.136635"><ele>894.0000000000001</ele><time>2026-04-30T13:35:55.642Z</time></trkpt><trkpt lat="43.8139567" lon="12.1365117"><ele>894.0000000000001</ele><time>2026-04-30T13:35:56.651Z</time></trkpt><trkpt lat="43.813905" lon="12.1364033"><ele>894.0</ele><time>2026-04-30T13:35:57.646Z</time></trkpt><trkpt lat="43.8138417" lon="12.1363017"><ele>894.0</ele><time>2026-04-30T13:35:58.656Z</time></trkpt><trkpt lat="43.81377" lon="12.1361983"><ele>893.4000000000001</ele><time>2026-04-30T13:35:59.645Z</time></trkpt><trkpt lat="43.8136933" lon="12.13608"><ele>892.8000000000001</ele><time>2026-04-30T13:36:00.652Z</time></trkpt><trkpt lat="43.8136167" lon="12.1359583"><ele>892.1999999999999</ele><time>2026-04-30T13:36:01.64Z</time></trkpt><trkpt lat="43.8135467" lon="12.1358367"><ele>891.5999999999999</ele><time>2026-04-30T13:36:02.65Z</time></trkpt><trkpt lat="43.8134917" lon="12.1357183"><ele>891.0</ele><time>2026-04-30T13:36:03.649Z</time></trkpt><trkpt lat="43.813435" lon="12.135595"><ele>895.8</ele><time>2026-04-30T13:36:04.651Z</time></trkpt><trkpt lat="43.81336" lon="12.13548"><ele>900.5999999999999</ele><time>2026-04-30T13:36:05.661Z</time></trkpt><trkpt lat="43.81328" lon="12.135375"><ele>905.4</ele><time>2026-04-30T13:36:06.649Z</time></trkpt><trkpt lat="43.81321" lon="12.1352783"><ele>910.2</ele><time>2026-04-30T13:36:07.649Z</time></trkpt><trkpt lat="43.8131617" lon="12.13516"><ele>915.0</ele><time>2026-04-30T13:36:08.648Z</time></trkpt><trkpt lat="43.8131367" lon="12.1350317"><ele>915.0</ele><time>2026-04-30T13:36:09.645Z</time></trkpt><trkpt lat="43.8131083" lon="12.13491"><ele>915.0</ele><time>2026-04-30T13:36:10.66Z</time></trkpt><trkpt lat="43.8130583" lon="12.134795"><ele>915.0</ele><time>2026-04-30T13:36:11.648Z</time></trkpt><trkpt lat="43.8129867" lon="12.1346933"><ele>915.0</ele><time>2026-04-30T13:36:12.649Z</time></trkpt><trkpt lat="43.8129033" lon="12.1346083"><ele>915.0</ele><time>2026-04-30T13:36:13.651Z</time></trkpt><trkpt lat="43.8127983" lon="12.1345467"><ele>916.0</ele><time>2026-04-30T13:36:14.659Z</time></trkpt><trkpt lat="43.8126783" lon="12.1344967"><ele>917.0</ele><time>2026-04-30T13:36:15.656Z</time></trkpt><trkpt lat="43.8125583" lon="12.13445"><ele>918.0</ele><time>2026-04-30T13:36:16.644Z</time></trkpt><trkpt lat="43.8124433" lon="12.1343933"><ele>919.0</ele><time>2026-04-30T13:36:17.646Z</time></trkpt><trkpt lat="43.8123283" lon="12.1343417"><ele>919.0</ele><time>2026-04-30T13:36:18.644Z</time></trkpt><trkpt lat="43.8122083" lon="12.1343133"><ele>919.0</ele><time>2026-04-30T13:36:19.643Z</time></trkpt><trkpt lat="43.8120817" lon="12.134295"><ele>919.0</ele><time>2026-04-30T13:36:20.648Z</time></trkpt><trkpt lat="43.811955" lon="12.13428"><ele>919.0</ele><time>2026-04-30T13:36:21.643Z</time></trkpt><trkpt lat="43.8118317" lon="12.13426"><ele>922.0</ele><time>2026-04-30T13:36:22.65Z</time></trkpt><trkpt lat="43.81171" lon="12.1342367"><ele>925.0</ele><time>2026-04-30T13:36:23.645Z</time></trkpt><trkpt lat="43.8115883" lon="12.1342183"><ele>928.0</ele><time>2026-04-30T13:36:24.647Z</time></trkpt><trkpt lat="43.811475" lon="12.1342"><ele>931.0</ele><time>2026-04-30T13:36:25.647Z</time></trkpt><trkpt lat="43.811375" lon="12.134175"><ele>930.9999999999999</ele><time>2026-04-30T13:36:26.649Z</time></trkpt><trkpt lat="43.81129" lon="12.1341333"><ele>931.0</ele><time>2026-04-30T13:36:27.653Z</time></trkpt><trkpt lat="43.8112167" lon="12.134075"><ele>931.0</ele><time>2026-04-30T13:36:28.654Z</time></trkpt><trkpt lat="43.811155" lon="12.134"><ele>931.0</ele><time>2026-04-30T13:36:29.643Z</time></trkpt><trkpt lat="43.8111117" lon="12.1338983"><ele>930.9999999999999</ele><time>2026-04-30T13:36:30.648Z</time></trkpt><trkpt lat="43.8110767" lon="12.13377"><ele>931.0</ele><time>2026-04-30T13:36:31.648Z</time></trkpt><trkpt lat="43.8110483" lon="12.1336533"><ele>930.1999999999999</ele><time>2026-04-30T13:36:32.649Z</time></trkpt><trkpt lat="43.8110183" lon="12.1335433"><ele>929.3999999999999</ele><time>2026-04-30T13:36:33.648Z</time></trkpt><trkpt lat="43.8109683" lon="12.1334417"><ele>928.6</ele><time>2026-04-30T13:36:34.646Z</time></trkpt><trkpt lat="43.8108933" lon="12.1333467"><ele>927.8</ele><time>2026-04-30T13:36:35.646Z</time></trkpt><trkpt lat="43.8108" lon="12.13326"><ele>927.0</ele><time>2026-04-30T13:36:36.653Z</time></trkpt><trkpt lat="43.810705" lon="12.1331867"><ele>927.0</ele><time>2026-04-30T13:36:37.649Z</time></trkpt><trkpt lat="43.8106167" lon="12.1331167"><ele>927.0</ele><time>2026-04-30T13:36:38.643Z</time></trkpt><trkpt lat="43.8105317" lon="12.1330583"><ele>927.0</ele><time>2026-04-30T13:36:39.649Z</time></trkpt><trkpt lat="43.810455" lon="12.1330133"><ele>927.0</ele><time>2026-04-30T13:36:40.644Z</time></trkpt><trkpt lat="43.8103867" lon="12.1329667"><ele>927.0</ele><time>2026-04-30T13:36:41.646Z</time></trkpt><trkpt lat="43.810325" lon="12.1329117"><ele>927.0</ele><time>2026-04-30T13:36:42.646Z</time></trkpt><trkpt lat="43.81029" lon="12.1328383"><ele>926.9999999999999</ele><time>2026-04-30T13:36:43.645Z</time></trkpt><trkpt lat="43.81028" lon="12.13275"><ele>927.0</ele><time>2026-04-30T13:36:44.648Z</time></trkpt><trkpt lat="43.8102933" lon="12.1326517"><ele>926.9999999999999</ele><time>2026-04-30T13:36:45.65Z</time></trkpt><trkpt lat="43.81032" lon="12.1325567"><ele>926.9999999999999</ele><time>2026-04-30T13:36:46.645Z</time></trkpt><trkpt lat="43.8103517" lon="12.1324633"><ele>927.0</ele><time>2026-04-30T13:36:47.645Z</time></trkpt><trkpt lat="43.8103833" lon="12.1323683"><ele>926.9999999999999</ele><time>2026-04-30T13:36:48.655Z</time></trkpt><trkpt lat="43.8104083" lon="12.1322717"><ele>926.9999999999999</ele><time>2026-04-30T13:36:49.652Z</time></trkpt><trkpt lat="43.810425" lon="12.1321783"><ele>925.0</ele><time>2026-04-30T13:36:50.64Z</time></trkpt><trkpt lat="43.810415" lon="12.1320817"><ele>923.0</ele><time>2026-04-30T13:36:51.648Z</time></trkpt><trkpt lat="43.8103383" lon="12.1319633"><ele>921.0</ele><time>2026-04-30T13:36:53.647Z</time></trkpt><trkpt lat="43.81025" lon="12.1319483"><ele>919.0</ele><time>2026-04-30T13:36:54.651Z</time></trkpt><trkpt lat="43.8101567" lon="12.1319283"><ele>917.0</ele><time>2026-04-30T13:36:55.641Z</time></trkpt><trkpt lat="43.810065" lon="12.1319133"><ele>922.4000000000001</ele><time>2026-04-30T13:36:56.647Z</time></trkpt><trkpt lat="43.8099733" lon="12.1318983"><ele>927.8000000000001</ele><time>2026-04-30T13:36:57.664Z</time></trkpt><trkpt lat="43.8098783" lon="12.1318967"><ele>933.2</ele><time>2026-04-30T13:36:58.644Z</time></trkpt><trkpt lat="43.8097833" lon="12.1319167"><ele>938.6</ele><time>2026-04-30T13:36:59.655Z</time></trkpt><trkpt lat="43.8096917" lon="12.13195"><ele>944.0</ele><time>2026-04-30T13:37:00.641Z</time></trkpt><trkpt lat="43.8095983" lon="12.1319917"><ele>944.0</ele><time>2026-04-30T13:37:01.646Z</time></trkpt><trkpt lat="43.8095033" lon="12.1320183"><ele>944.0000000000001</ele><time>2026-04-30T13:37:02.647Z</time></trkpt><trkpt lat="43.80941" lon="12.1320233"><ele>944.0000000000001</ele><time>2026-04-30T13:37:03.646Z</time></trkpt><trkpt lat="43.8093167" lon="12.13201"><ele>944.0</ele><time>2026-04-30T13:37:04.647Z</time></trkpt><trkpt lat="43.8092333" lon="12.1319617"><ele>944.0</ele><time>2026-04-30T13:37:05.653Z</time></trkpt><trkpt lat="43.8091517" lon="12.13189"><ele>945.0</ele><time>2026-04-30T13:37:06.653Z</time></trkpt><trkpt lat="43.8090733" lon="12.1318133"><ele>946.0000000000001</ele><time>2026-04-30T13:37:07.643Z</time></trkpt><trkpt lat="43.8089917" lon="12.1317267"><ele>947.0000000000001</ele><time>2026-04-30T13:37:08.645Z</time></trkpt><trkpt lat="43.8089167" lon="12.131635"><ele>948.0</ele><time>2026-04-30T13:37:09.647Z</time></trkpt><trkpt lat="43.808855" lon="12.1315317"><ele>949.0</ele><time>2026-04-30T13:37:10.641Z</time></trkpt><trkpt lat="43.8088" lon="12.1314117"><ele>945.8000000000001</ele><time>2026-04-30T13:37:11.643Z</time></trkpt><trkpt lat="43.80875" lon="12.1312833"><ele>942.6000000000001</ele><time>2026-04-30T13:37:12.643Z</time></trkpt><trkpt lat="43.8087033" lon="12.131155"><ele>939.4</ele><time>2026-04-30T13:37:13.646Z</time></trkpt><trkpt lat="43.8086517" lon="12.1310317"><ele>936.2</ele><time>2026-04-30T13:37:14.641Z</time></trkpt><trkpt lat="43.8085933" lon="12.1309183"><ele>933.0</ele><time>2026-04-30T13:37:15.65Z</time></trkpt><trkpt lat="43.8085267" lon="12.1308167"><ele>938.1666666666666</ele><time>2026-04-30T13:37:16.648Z</time></trkpt><trkpt lat="43.8084617" lon="12.1307183"><ele>943.3333333333333</ele><time>2026-04-30T13:37:17.647Z</time></trkpt><trkpt lat="43.8083983" lon="12.1306183"><ele>948.5</ele><time>2026-04-30T13:37:18.646Z</time></trkpt><trkpt lat="43.80834" lon="12.1305383"><ele>953.6666666666666</ele><time>2026-04-30T13:37:19.647Z</time></trkpt><trkpt lat="43.8082833" lon="12.1304917"><ele>958.8333333333333</ele><time>2026-04-30T13:37:20.653Z</time></trkpt><trkpt lat="43.8082133" lon="12.1304817"><ele>964.0</ele><time>2026-04-30T13:37:21.649Z</time></trkpt><trkpt lat="43.8081383" lon="12.13049"><ele>963.9999999999999</ele><time>2026-04-30T13:37:22.65Z</time></trkpt><trkpt lat="43.8080667" lon="12.1305"><ele>964.0</ele><time>2026-04-30T13:37:23.652Z</time></trkpt><trkpt lat="43.8079933" lon="12.1305017"><ele>964.0</ele><time>2026-04-30T13:37:24.646Z</time></trkpt><trkpt lat="43.8079183" lon="12.1304883"><ele>964.0</ele><time>2026-04-30T13:37:25.655Z</time></trkpt><trkpt lat="43.80784" lon="12.1304533"><ele>963.9999999999999</ele><time>2026-04-30T13:37:26.655Z</time></trkpt><trkpt lat="43.8077517" lon="12.1304117"><ele>964.0</ele><time>2026-04-30T13:37:27.653Z</time></trkpt><trkpt lat="43.8076517" lon="12.1303633"><ele>970.2</ele><time>2026-04-30T13:37:28.651Z</time></trkpt><trkpt lat="43.8075383" lon="12.1303533"><ele>976.4000000000001</ele><time>2026-04-30T13:37:29.66Z</time></trkpt><trkpt lat="43.8074217" lon="12.1303717"><ele>982.6</ele><time>2026-04-30T13:37:30.656Z</time></trkpt><trkpt lat="43.8073133" lon="12.1303983"><ele>988.8</ele><time>2026-04-30T13:37:31.662Z</time></trkpt><trkpt lat="43.80722" lon="12.13043"><ele>995.0</ele><time>2026-04-30T13:37:32.654Z</time></trkpt><trkpt lat="43.807145" lon="12.1304467"><ele>995.0000000000001</ele><time>2026-04-30T13:37:33.659Z</time></trkpt><trkpt lat="43.8070633" lon="12.1304533"><ele>995.0</ele><time>2026-04-30T13:37:34.657Z</time></trkpt><trkpt lat="43.8069833" lon="12.1304333"><ele>995.0</ele><time>2026-04-30T13:37:35.651Z</time></trkpt><trkpt lat="43.806905" lon="12.1303783"><ele>995.0</ele><time>2026-04-30T13:37:36.657Z</time></trkpt><trkpt lat="43.8068383" lon="12.1302967"><ele>995.0000000000001</ele><time>2026-04-30T13:37:37.653Z</time></trkpt><trkpt lat="43.806785" lon="12.1302083"><ele>995.0</ele><time>2026-04-30T13:37:38.647Z</time></trkpt><trkpt lat="43.8067433" lon="12.130105"><ele>995.4</ele><time>2026-04-30T13:37:39.653Z</time></trkpt><trkpt lat="43.8067167" lon="12.12999"><ele>995.8</ele><time>2026-04-30T13:37:40.649Z</time></trkpt><trkpt lat="43.8066733" lon="12.12988"><ele>996.2</ele><time>2026-04-30T13:37:41.648Z</time></trkpt><trkpt lat="43.8066033" lon="12.12978"><ele>996.6</ele><time>2026-04-30T13:37:42.643Z</time></trkpt><trkpt lat="43.8065133" lon="12.129675"><ele>997.0</ele><time>2026-04-30T13:37:43.654Z</time></trkpt><trkpt lat="43.8064183" lon="12.1295917"><ele>998.9999999999999</ele><time>2026-04-30T13:37:44.649Z</time></trkpt><trkpt lat="43.8063317" lon="12.1295333"><ele>1001.0</ele><time>2026-04-30T13:37:45.65Z</time></trkpt><trkpt lat="43.8062483" lon="12.1294867"><ele>1003.0</ele><time>2026-04-30T13:37:46.644Z</time></trkpt><trkpt lat="43.8061767" lon="12.1294717"><ele>1005.0</ele><time>2026-04-30T13:37:47.653Z</time></trkpt><trkpt lat="43.8061" lon="12.1294917"><ele>1006.9999999999999</ele><time>2026-04-30T13:37:48.65Z</time></trkpt><trkpt lat="43.8060233" lon="12.1295333"><ele>1009.0</ele><time>2026-04-30T13:37:49.657Z</time></trkpt><trkpt lat="43.805945" lon="12.1296167"><ele>1010.6666666666666</ele><time>2026-04-30T13:37:50.644Z</time></trkpt><trkpt lat="43.8058717" lon="12.1297067"><ele>1012.3333333333333</ele><time>2026-04-30T13:37:51.651Z</time></trkpt><trkpt lat="43.8057967" lon="12.1297917"><ele>1014.0</ele><time>2026-04-30T13:37:52.655Z</time></trkpt><trkpt lat="43.805725" lon="12.1298517"><ele>1015.6666666666667</ele><time>2026-04-30T13:37:53.65Z</time></trkpt><trkpt lat="43.8056567" lon="12.1298867"><ele>1017.3333333333334</ele><time>2026-04-30T13:37:54.643Z</time></trkpt><trkpt lat="43.80559" lon="12.1298783"><ele>1019.0</ele><time>2026-04-30T13:37:55.653Z</time></trkpt><trkpt lat="43.8055217" lon="12.1298417"><ele>1019.0</ele><time>2026-04-30T13:37:56.647Z</time></trkpt><trkpt lat="43.80545" lon="12.1297733"><ele>1019.0000000000001</ele><time>2026-04-30T13:37:57.648Z</time></trkpt><trkpt lat="43.805375" lon="12.1296817"><ele>1019.0000000000001</ele><time>2026-04-30T13:37:58.649Z</time></trkpt><trkpt lat="43.8053" lon="12.129575"><ele>1019.0</ele><time>2026-04-30T13:37:59.647Z</time></trkpt><trkpt lat="43.805235" lon="12.12945"><ele>1019.0</ele><time>2026-04-30T13:38:00.651Z</time></trkpt><trkpt lat="43.80517" lon="12.1293333"><ele>1019.6</ele><time>2026-04-30T13:38:01.646Z</time></trkpt><trkpt lat="43.8051033" lon="12.1292167"><ele>1020.2</ele><time>2026-04-30T13:38:02.642Z</time></trkpt><trkpt lat="43.8050367" lon="12.1291"><ele>1020.8000000000001</ele><time>2026-04-30T13:38:03.649Z</time></trkpt><trkpt lat="43.8049567" lon="12.1289983"><ele>1021.4000000000001</ele><time>2026-04-30T13:38:04.645Z</time></trkpt><trkpt lat="43.8048767" lon="12.128905"><ele>1022.0</ele><time>2026-04-30T13:38:05.65Z</time></trkpt><trkpt lat="43.80481" lon="12.1288117"><ele>1022.0</ele><time>2026-04-30T13:38:06.647Z</time></trkpt><trkpt lat="43.8047717" lon="12.1287033"><ele>1022.0</ele><time>2026-04-30T13:38:07.645Z</time></trkpt><trkpt lat="43.8047483" lon="12.1285833"><ele>1022.0</ele><time>2026-04-30T13:38:08.656Z</time></trkpt><trkpt lat="43.8047483" lon="12.1284517"><ele>1022.0</ele><time>2026-04-30T13:38:09.649Z</time></trkpt><trkpt lat="43.80476" lon="12.1283117"><ele>1022.0</ele><time>2026-04-30T13:38:10.649Z</time></trkpt><trkpt lat="43.80476" lon="12.12817"><ele>1018.6</ele><time>2026-04-30T13:38:11.643Z</time></trkpt><trkpt lat="43.80475" lon="12.1280267"><ele>1015.2</ele><time>2026-04-30T13:38:12.658Z</time></trkpt><trkpt lat="43.8047317" lon="12.1278833"><ele>1011.8</ele><time>2026-04-30T13:38:13.653Z</time></trkpt><trkpt lat="43.8047133" lon="12.1277433"><ele>1008.4</ele><time>2026-04-30T13:38:14.654Z</time></trkpt><trkpt lat="43.8046983" lon="12.127615"><ele>1005.0</ele><time>2026-04-30T13:38:15.65Z</time></trkpt><trkpt lat="43.8046917" lon="12.1275017"><ele>1005.0</ele><time>2026-04-30T13:38:16.663Z</time></trkpt><trkpt lat="43.80468" lon="12.1274033"><ele>1005.0</ele><time>2026-04-30T13:38:17.666Z</time></trkpt><trkpt lat="43.80466" lon="12.127315"><ele>1005.0</ele><time>2026-04-30T13:38:18.657Z</time></trkpt><trkpt lat="43.8046233" lon="12.12724"><ele>1005.0</ele><time>2026-04-30T13:38:19.652Z</time></trkpt><trkpt lat="43.8044983" lon="12.1271883"><ele>1005.0</ele><time>2026-04-30T13:38:21.654Z</time></trkpt><trkpt lat="43.8044183" lon="12.127185"><ele>1005.0</ele><time>2026-04-30T13:38:22.654Z</time></trkpt><trkpt lat="43.8043083" lon="12.1272567"><ele>1003.2</ele><time>2026-04-30T13:38:23.652Z</time></trkpt><trkpt lat="43.8042083" lon="12.1273317"><ele>1001.4</ele><time>2026-04-30T13:38:24.655Z</time></trkpt><trkpt lat="43.8041117" lon="12.127405"><ele>999.5999999999999</ele><time>2026-04-30T13:38:25.645Z</time></trkpt><trkpt lat="43.8040183" lon="12.1274617"><ele>997.8</ele><time>2026-04-30T13:38:26.649Z</time></trkpt><trkpt lat="43.8039167" lon="12.1274933"><ele>996.0</ele><time>2026-04-30T13:38:27.649Z</time></trkpt><trkpt lat="43.8038183" lon="12.1274883"><ele>1001.1999999999999</ele><time>2026-04-30T13:38:28.646Z</time></trkpt><trkpt lat="43.8037267" lon="12.127475"><ele>1006.3999999999999</ele><time>2026-04-30T13:38:29.64Z</time></trkpt><trkpt lat="43.8036283" lon="12.1274533"><ele>1011.6</ele><time>2026-04-30T13:38:30.652Z</time></trkpt><trkpt lat="43.8035217" lon="12.1274533"><ele>1016.8</ele><time>2026-04-30T13:38:31.647Z</time></trkpt><trkpt lat="43.8034067" lon="12.1274617"><ele>1022.0</ele><time>2026-04-30T13:38:32.643Z</time></trkpt><trkpt lat="43.8032983" lon="12.1274667"><ele>1022.0</ele><time>2026-04-30T13:38:33.649Z</time></trkpt><trkpt lat="43.8031967" lon="12.1274483"><ele>1022.0</ele><time>2026-04-30T13:38:34.649Z</time></trkpt><trkpt lat="43.8030983" lon="12.12741"><ele>1022.0</ele><time>2026-04-30T13:38:35.648Z</time></trkpt><trkpt lat="43.8030067" lon="12.12734"><ele>1022.0</ele><time>2026-04-30T13:38:36.646Z</time></trkpt><trkpt lat="43.8029267" lon="12.1272433"><ele>1022.0</ele><time>2026-04-30T13:38:37.646Z</time></trkpt><trkpt lat="43.80286" lon="12.1271483"><ele>1023.3333333333334</ele><time>2026-04-30T13:38:38.645Z</time></trkpt><trkpt lat="43.8028017" lon="12.12706"><ele>1024.6666666666667</ele><time>2026-04-30T13:38:39.647Z</time></trkpt><trkpt lat="43.8027433" lon="12.126975"><ele>1026.0</ele><time>2026-04-30T13:38:40.644Z</time></trkpt><trkpt lat="43.8026817" lon="12.1269"><ele>1027.3333333333333</ele><time>2026-04-30T13:38:41.647Z</time></trkpt><trkpt lat="43.80262" lon="12.1268367"><ele>1028.6666666666665</ele><time>2026-04-30T13:38:42.646Z</time></trkpt><trkpt lat="43.8025567" lon="12.126795"><ele>1030.0</ele><time>2026-04-30T13:38:43.645Z</time></trkpt><trkpt lat="43.80248" lon="12.1267717"><ele>1030.0</ele><time>2026-04-30T13:38:44.65Z</time></trkpt><trkpt lat="43.8023933" lon="12.1267483"><ele>1030.0</ele><time>2026-04-30T13:38:45.652Z</time></trkpt><trkpt lat="43.8023033" lon="12.1267233"><ele>1030.0</ele><time>2026-04-30T13:38:46.649Z</time></trkpt><trkpt lat="43.8022217" lon="12.1266917"><ele>1030.0</ele><time>2026-04-30T13:38:47.648Z</time></trkpt><trkpt lat="43.8021367" lon="12.12665"><ele>1030.0</ele><time>2026-04-30T13:38:48.644Z</time></trkpt><trkpt lat="43.80205" lon="12.1266083"><ele>1030.0</ele><time>2026-04-30T13:38:49.648Z</time></trkpt><trkpt lat="43.8019683" lon="12.1265817"><ele>1030.0</ele><time>2026-04-30T13:38:50.647Z</time></trkpt><trkpt lat="43.8018933" lon="12.1265767"><ele>1030.0</ele><time>2026-04-30T13:38:51.65Z</time></trkpt><trkpt lat="43.8018233" lon="12.1266"><ele>1030.0</ele><time>2026-04-30T13:38:52.648Z</time></trkpt><trkpt lat="43.801735" lon="12.126695"><ele>1030.0</ele><time>2026-04-30T13:38:53.648Z</time></trkpt><trkpt lat="43.801635" lon="12.1268083"><ele>1030.0</ele><time>2026-04-30T13:38:54.647Z</time></trkpt><trkpt lat="43.8015317" lon="12.1269633"><ele>1027.75</ele><time>2026-04-30T13:38:55.646Z</time></trkpt><trkpt lat="43.801435" lon="12.1271083"><ele>1025.5</ele><time>2026-04-30T13:38:56.647Z</time></trkpt><trkpt lat="43.8013433" lon="12.1272433"><ele>1023.25</ele><time>2026-04-30T13:38:57.648Z</time></trkpt><trkpt lat="43.8012533" lon="12.1273817"><ele>1021.0</ele><time>2026-04-30T13:38:58.649Z</time></trkpt><trkpt lat="43.8011667" lon="12.1274817"><ele>1021.0</ele><time>2026-04-30T13:38:59.646Z</time></trkpt><trkpt lat="43.8010733" lon="12.1275717"><ele>1021.0</ele><time>2026-04-30T13:39:00.651Z</time></trkpt><trkpt lat="43.80096" lon="12.127645"><ele>1021.0</ele><time>2026-04-30T13:39:01.646Z</time></trkpt><trkpt lat="43.8008467" lon="12.12771"><ele>1021.0</ele><time>2026-04-30T13:39:02.647Z</time></trkpt><trkpt lat="43.80075" lon="12.1277717"><ele>1026.0</ele><time>2026-04-30T13:39:03.648Z</time></trkpt><trkpt lat="43.80067" lon="12.1278467"><ele>1031.0</ele><time>2026-04-30T13:39:04.651Z</time></trkpt><trkpt lat="43.8005983" lon="12.1279533"><ele>1036.0</ele><time>2026-04-30T13:39:05.648Z</time></trkpt><trkpt lat="43.8005283" lon="12.1280533"><ele>1041.0</ele><time>2026-04-30T13:39:06.66Z</time></trkpt><trkpt lat="43.8004617" lon="12.1281283"><ele>1046.0</ele><time>2026-04-30T13:39:07.645Z</time></trkpt><trkpt lat="43.8004033" lon="12.1281767"><ele>1046.0</ele><time>2026-04-30T13:39:08.65Z</time></trkpt><trkpt lat="43.8003417" lon="12.1281983"><ele>1046.0</ele><time>2026-04-30T13:39:09.65Z</time></trkpt><trkpt lat="43.800275" lon="12.12817"><ele>1046.0</ele><time>2026-04-30T13:39:10.648Z</time></trkpt><trkpt lat="43.8002133" lon="12.1281167"><ele>1046.0</ele><time>2026-04-30T13:39:11.653Z</time></trkpt><trkpt lat="43.80016" lon="12.128045"><ele>1046.0</ele><time>2026-04-30T13:39:12.65Z</time></trkpt><trkpt lat="43.8001233" lon="12.1279433"><ele>1046.0</ele><time>2026-04-30T13:39:13.646Z</time></trkpt><trkpt lat="43.800105" lon="12.1278133"><ele>1045.6</ele><time>2026-04-30T13:39:14.644Z</time></trkpt><trkpt lat="43.8000883" lon="12.12767"><ele>1045.1999999999998</ele><time>2026-04-30T13:39:15.648Z</time></trkpt><trkpt lat="43.8000633" lon="12.1275517"><ele>1044.8000000000002</ele><time>2026-04-30T13:39:16.644Z</time></trkpt><trkpt lat="43.80002" lon="12.1274533"><ele>1044.4</ele><time>2026-04-30T13:39:17.654Z</time></trkpt><trkpt lat="43.7999517" lon="12.127365"><ele>1044.0</ele><time>2026-04-30T13:39:18.647Z</time></trkpt><trkpt lat="43.79986" lon="12.1272933"><ele>1048.0</ele><time>2026-04-30T13:39:19.644Z</time></trkpt><trkpt lat="43.7997767" lon="12.1272217"><ele>1052.0</ele><time>2026-04-30T13:39:20.647Z</time></trkpt><trkpt lat="43.7997117" lon="12.1271367"><ele>1056.0</ele><time>2026-04-30T13:39:21.652Z</time></trkpt><trkpt lat="43.7996533" lon="12.1270283"><ele>1060.0</ele><time>2026-04-30T13:39:22.653Z</time></trkpt><trkpt lat="43.7995983" lon="12.1269133"><ele>1064.0</ele><time>2026-04-30T13:39:23.655Z</time></trkpt><trkpt lat="43.7995483" lon="12.12679"><ele>1064.0</ele><time>2026-04-30T13:39:24.657Z</time></trkpt><trkpt lat="43.799515" lon="12.1266717"><ele>1064.0</ele><time>2026-04-30T13:39:25.659Z</time></trkpt><trkpt lat="43.7994983" lon="12.1265533"><ele>1064.0</ele><time>2026-04-30T13:39:26.647Z</time></trkpt><trkpt lat="43.7994983" lon="12.12644"><ele>1064.0</ele><time>2026-04-30T13:39:27.648Z</time></trkpt><trkpt lat="43.79951" lon="12.1263267"><ele>1064.0</ele><time>2026-04-30T13:39:28.646Z</time></trkpt><trkpt lat="43.7995117" lon="12.1262117"><ele>1064.0</ele><time>2026-04-30T13:39:29.657Z</time></trkpt><trkpt lat="43.7994883" lon="12.1261"><ele>1064.3333333333335</ele><time>2026-04-30T13:39:30.646Z</time></trkpt><trkpt lat="43.79944" lon="12.125995"><ele>1064.6666666666667</ele><time>2026-04-30T13:39:31.646Z</time></trkpt><trkpt lat="43.799375" lon="12.125885"><ele>1065.0</ele><time>2026-04-30T13:39:32.654Z</time></trkpt><trkpt lat="43.7993183" lon="12.1257833"><ele>1065.3333333333333</ele><time>2026-04-30T13:39:33.642Z</time></trkpt><trkpt lat="43.79927" lon="12.1256833"><ele>1065.6666666666665</ele><time>2026-04-30T13:39:34.648Z</time></trkpt><trkpt lat="43.7992283" lon="12.125605"><ele>1066.0</ele><time>2026-04-30T13:39:35.651Z</time></trkpt><trkpt lat="43.7991467" lon="12.1255167"><ele>1066.0</ele><time>2026-04-30T13:39:37.65Z</time></trkpt><trkpt lat="43.79908" lon="12.1254967"><ele>1066.0</ele><time>2026-04-30T13:39:39.648Z</time></trkpt><trkpt lat="43.799" lon="12.1254783"><ele>1066.0</ele><time>2026-04-30T13:39:44.641Z</time></trkpt><trkpt lat="43.79888" lon="12.125425"><ele>1066.0</ele><time>2026-04-30T13:40:08.652Z</time></trkpt><trkpt lat="43.7988033" lon="12.1254"><ele>1066.0</ele><time>2026-04-30T13:40:09.653Z</time></trkpt><trkpt lat="43.7987167" lon="12.1253583"><ele>1066.0</ele><time>2026-04-30T13:40:10.649Z</time></trkpt><trkpt lat="43.7986367" lon="12.1253317"><ele>1066.0</ele><time>2026-04-30T13:40:11.651Z</time></trkpt><trkpt lat="43.7985567" lon="12.1253267"><ele>1066.0</ele><time>2026-04-30T13:40:12.658Z</time></trkpt><trkpt lat="43.79847" lon="12.125345"><ele>1066.0</ele><time>2026-04-30T13:40:13.646Z</time></trkpt><trkpt lat="43.7983867" lon="12.12539"><ele>1066.0</ele><time>2026-04-30T13:40:14.647Z</time></trkpt><trkpt lat="43.798295" lon="12.1254517"><ele>1066.0</ele><time>2026-04-30T13:40:15.652Z</time></trkpt><trkpt lat="43.7981967" lon="12.12552"><ele>1067.2</ele><time>2026-04-30T13:40:16.647Z</time></trkpt><trkpt lat="43.7981033" lon="12.12557"><ele>1068.3999999999999</ele><time>2026-04-30T13:40:17.651Z</time></trkpt><trkpt lat="43.7980083" lon="12.1256183"><ele>1069.6</ele><time>2026-04-30T13:40:18.649Z</time></trkpt><trkpt lat="43.797925" lon="12.1256233"><ele>1070.8</ele><time>2026-04-30T13:40:19.654Z</time></trkpt><trkpt lat="43.797845" lon="12.125605"><ele>1072.0</ele><time>2026-04-30T13:40:20.651Z</time></trkpt><trkpt lat="43.7977533" lon="12.1255683"><ele>1073.4</ele><time>2026-04-30T13:40:21.659Z</time></trkpt><trkpt lat="43.7976533" lon="12.1254967"><ele>1074.8000000000002</ele><time>2026-04-30T13:40:22.65Z</time></trkpt><trkpt lat="43.7975633" lon="12.1254233"><ele>1076.2</ele><time>2026-04-30T13:40:23.652Z</time></trkpt><trkpt lat="43.7974633" lon="12.12538"><ele>1077.6000000000001</ele><time>2026-04-30T13:40:24.652Z</time></trkpt><trkpt lat="43.79736" lon="12.1253633"><ele>1079.0</ele><time>2026-04-30T13:40:25.647Z</time></trkpt><trkpt lat="43.7972683" lon="12.125335"><ele>1079.0</ele><time>2026-04-30T13:40:26.653Z</time></trkpt><trkpt lat="43.7971717" lon="12.1253133"><ele>1079.0</ele><time>2026-04-30T13:40:27.66Z</time></trkpt><trkpt lat="43.7970667" lon="12.1252867"><ele>1079.0</ele><time>2026-04-30T13:40:28.658Z</time></trkpt><trkpt lat="43.7969533" lon="12.1252517"><ele>1079.0</ele><time>2026-04-30T13:40:29.647Z</time></trkpt><trkpt lat="43.796835" lon="12.1252133"><ele>1079.0</ele><time>2026-04-30T13:40:30.653Z</time></trkpt><trkpt lat="43.7967317" lon="12.1251717"><ele>1079.4</ele><time>2026-04-30T13:40:31.655Z</time></trkpt><trkpt lat="43.7966433" lon="12.1251133"><ele>1079.8000000000002</ele><time>2026-04-30T13:40:32.652Z</time></trkpt><trkpt lat="43.796565" lon="12.1250383"><ele>1080.1999999999998</ele><time>2026-04-30T13:40:33.654Z</time></trkpt><trkpt lat="43.7965017" lon="12.12494"><ele>1080.6</ele><time>2026-04-30T13:40:34.655Z</time></trkpt><trkpt lat="43.7964633" lon="12.1248183"><ele>1081.0</ele><time>2026-04-30T13:40:35.648Z</time></trkpt><trkpt lat="43.79644" lon="12.124675"><ele>1081.0</ele><time>2026-04-30T13:40:36.645Z</time></trkpt><trkpt lat="43.7964267" lon="12.1245183"><ele>1081.0</ele><time>2026-04-30T13:40:37.65Z</time></trkpt><trkpt lat="43.79642" lon="12.12435"><ele>1081.0</ele><time>2026-04-30T13:40:38.649Z</time></trkpt><trkpt lat="43.796415" lon="12.124185"><ele>1081.0</ele><time>2026-04-30T13:40:39.655Z</time></trkpt><trkpt lat="43.796405" lon="12.12403"><ele>1081.75</ele><time>2026-04-30T13:40:40.646Z</time></trkpt><trkpt lat="43.796395" lon="12.1238783"><ele>1082.5</ele><time>2026-04-30T13:40:41.655Z</time></trkpt><trkpt lat="43.7963833" lon="12.1237183"><ele>1083.25</ele><time>2026-04-30T13:40:42.65Z</time></trkpt><trkpt lat="43.7963717" lon="12.12356"><ele>1084.0</ele><time>2026-04-30T13:40:43.658Z</time></trkpt><trkpt lat="43.7963617" lon="12.1233967"><ele>1084.0</ele><time>2026-04-30T13:40:44.653Z</time></trkpt><trkpt lat="43.7963683" lon="12.1232383"><ele>1084.0</ele><time>2026-04-30T13:40:45.648Z</time></trkpt><trkpt lat="43.7963867" lon="12.1230767"><ele>1084.0</ele><time>2026-04-30T13:40:46.647Z</time></trkpt><trkpt lat="43.7964117" lon="12.1229117"><ele>1084.0</ele><time>2026-04-30T13:40:47.647Z</time></trkpt><trkpt lat="43.7964417" lon="12.1227433"><ele>1083.2</ele><time>2026-04-30T13:40:48.649Z</time></trkpt><trkpt lat="43.7964783" lon="12.1225817"><ele>1082.4</ele><time>2026-04-30T13:40:49.651Z</time></trkpt><trkpt lat="43.79652" lon="12.1224333"><ele>1081.6</ele><time>2026-04-30T13:40:50.654Z</time></trkpt><trkpt lat="43.7965583" lon="12.1223083"><ele>1080.8</ele><time>2026-04-30T13:40:51.658Z</time></trkpt><trkpt lat="43.7965883" lon="12.1221917"><ele>1080.0</ele><time>2026-04-30T13:40:52.651Z</time></trkpt><trkpt lat="43.7966017" lon="12.122075"><ele>1080.0</ele><time>2026-04-30T13:40:53.649Z</time></trkpt><trkpt lat="43.7966" lon="12.1219583"><ele>1080.0</ele><time>2026-04-30T13:40:54.649Z</time></trkpt><trkpt lat="43.7965717" lon="12.1218383"><ele>1080.0</ele><time>2026-04-30T13:40:55.646Z</time></trkpt><trkpt lat="43.7965117" lon="12.121715"><ele>1080.0</ele><time>2026-04-30T13:40:56.647Z</time></trkpt><trkpt lat="43.7964433" lon="12.1215883"><ele>1080.0</ele><time>2026-04-30T13:40:57.651Z</time></trkpt><trkpt lat="43.7963783" lon="12.121465"><ele>1081.4</ele><time>2026-04-30T13:40:58.653Z</time></trkpt><trkpt lat="43.7963167" lon="12.1213483"><ele>1082.8</ele><time>2026-04-30T13:40:59.659Z</time></trkpt><trkpt lat="43.7962583" lon="12.1212333"><ele>1084.2</ele><time>2026-04-30T13:41:00.643Z</time></trkpt><trkpt lat="43.796195" lon="12.121115"><ele>1085.6</ele><time>2026-04-30T13:41:01.648Z</time></trkpt><trkpt lat="43.79613" lon="12.1210033"><ele>1087.0</ele><time>2026-04-30T13:41:02.649Z</time></trkpt><trkpt lat="43.7960583" lon="12.1209083"><ele>1084.2</ele><time>2026-04-30T13:41:03.646Z</time></trkpt><trkpt lat="43.795965" lon="12.1208417"><ele>1081.4</ele><time>2026-04-30T13:41:04.659Z</time></trkpt><trkpt lat="43.7958583" lon="12.12081"><ele>1078.6</ele><time>2026-04-30T13:41:05.653Z</time></trkpt><trkpt lat="43.79576" lon="12.1207933"><ele>1075.8</ele><time>2026-04-30T13:41:06.662Z</time></trkpt><trkpt lat="43.7956717" lon="12.1207833"><ele>1073.0</ele><time>2026-04-30T13:41:07.643Z</time></trkpt><trkpt lat="43.7956017" lon="12.1207617"><ele>1074.0</ele><time>2026-04-30T13:41:08.641Z</time></trkpt><trkpt lat="43.7955417" lon="12.1207267"><ele>1075.0</ele><time>2026-04-30T13:41:09.642Z</time></trkpt><trkpt lat="43.7955" lon="12.12065"><ele>1076.0</ele><time>2026-04-30T13:41:10.644Z</time></trkpt><trkpt lat="43.79548" lon="12.1205383"><ele>1077.0</ele><time>2026-04-30T13:41:11.648Z</time></trkpt><trkpt lat="43.7954867" lon="12.12042"><ele>1078.0</ele><time>2026-04-30T13:41:12.642Z</time></trkpt><trkpt lat="43.7955317" lon="12.120285"><ele>1079.0</ele><time>2026-04-30T13:41:13.646Z</time></trkpt><trkpt lat="43.79558" lon="12.1201467"><ele>1079.0</ele><time>2026-04-30T13:41:14.66Z</time></trkpt><trkpt lat="43.795615" lon="12.1199983"><ele>1079.0</ele><time>2026-04-30T13:41:15.647Z</time></trkpt><trkpt lat="43.7956233" lon="12.11985"><ele>1079.0</ele><time>2026-04-30T13:41:16.641Z</time></trkpt><trkpt lat="43.7955967" lon="12.1197017"><ele>1079.0</ele><time>2026-04-30T13:41:17.644Z</time></trkpt><trkpt lat="43.795535" lon="12.119545"><ele>1079.2</ele><time>2026-04-30T13:41:18.642Z</time></trkpt><trkpt lat="43.7954617" lon="12.1194083"><ele>1079.4</ele><time>2026-04-30T13:41:19.645Z</time></trkpt><trkpt lat="43.79539" lon="12.11929"><ele>1079.6</ele><time>2026-04-30T13:41:20.643Z</time></trkpt><trkpt lat="43.7953317" lon="12.11918"><ele>1079.8</ele><time>2026-04-30T13:41:21.669Z</time></trkpt><trkpt lat="43.7952983" lon="12.11907"><ele>1080.0</ele><time>2026-04-30T13:41:22.651Z</time></trkpt><trkpt lat="43.79529" lon="12.118965"><ele>1079.5</ele><time>2026-04-30T13:41:23.649Z</time></trkpt><trkpt lat="43.795315" lon="12.1188717"><ele>1079.0</ele><time>2026-04-30T13:41:24.645Z</time></trkpt><trkpt lat="43.7953667" lon="12.1188033"><ele>1078.5</ele><time>2026-04-30T13:41:25.644Z</time></trkpt><trkpt lat="43.7954467" lon="12.1187517"><ele>1078.0</ele><time>2026-04-30T13:41:26.654Z</time></trkpt><trkpt lat="43.7955433" lon="12.118695"><ele>1077.5</ele><time>2026-04-30T13:41:27.645Z</time></trkpt><trkpt lat="43.7956133" lon="12.1186183"><ele>1077.0</ele><time>2026-04-30T13:41:28.653Z</time></trkpt><trkpt lat="43.7956733" lon="12.1185283"><ele>1077.0</ele><time>2026-04-30T13:41:29.644Z</time></trkpt><trkpt lat="43.7956883" lon="12.11843"><ele>1077.0</ele><time>2026-04-30T13:41:30.646Z</time></trkpt><trkpt lat="43.795685" lon="12.1183117"><ele>1077.0</ele><time>2026-04-30T13:41:31.647Z</time></trkpt><trkpt lat="43.7956483" lon="12.118165"><ele>1077.0</ele><time>2026-04-30T13:41:32.651Z</time></trkpt><trkpt lat="43.7956117" lon="12.1180267"><ele>1077.0</ele><time>2026-04-30T13:41:33.651Z</time></trkpt><trkpt lat="43.7955767" lon="12.1178917"><ele>1076.8</ele><time>2026-04-30T13:41:34.646Z</time></trkpt><trkpt lat="43.795535" lon="12.1177583"><ele>1076.6</ele><time>2026-04-30T13:41:35.648Z</time></trkpt><trkpt lat="43.7954767" lon="12.1176367"><ele>1076.3999999999999</ele><time>2026-04-30T13:41:36.645Z</time></trkpt><trkpt lat="43.7954133" lon="12.1175283"><ele>1076.2</ele><time>2026-04-30T13:41:37.643Z</time></trkpt><trkpt lat="43.79535" lon="12.117425"><ele>1076.0</ele><time>2026-04-30T13:41:38.643Z</time></trkpt><trkpt lat="43.7952983" lon="12.1173183"><ele>1076.0</ele><time>2026-04-30T13:41:39.655Z</time></trkpt><trkpt lat="43.7952667" lon="12.1172017"><ele>1076.0</ele><time>2026-04-30T13:41:40.656Z</time></trkpt><trkpt lat="43.7952683" lon="12.117085"><ele>1076.0</ele><time>2026-04-30T13:41:41.653Z</time></trkpt><trkpt lat="43.79529" lon="12.1169633"><ele>1076.0</ele><time>2026-04-30T13:41:42.646Z</time></trkpt><trkpt lat="43.7953417" lon="12.1168483"><ele>1076.0</ele><time>2026-04-30T13:41:43.646Z</time></trkpt><trkpt lat="43.7953867" lon="12.1167467"><ele>1076.0</ele><time>2026-04-30T13:41:44.644Z</time></trkpt><trkpt lat="43.795415" lon="12.11665"><ele>1074.6</ele><time>2026-04-30T13:41:45.642Z</time></trkpt><trkpt lat="43.7954183" lon="12.1164917"><ele>1073.1999999999998</ele><time>2026-04-30T13:41:47.65Z</time></trkpt><trkpt lat="43.795325" lon="12.1163617"><ele>1071.8000000000002</ele><time>2026-04-30T13:41:49.642Z</time></trkpt><trkpt lat="43.79526" lon="12.1163067"><ele>1070.4</ele><time>2026-04-30T13:41:50.649Z</time></trkpt><trkpt lat="43.7951933" lon="12.116255"><ele>1069.0</ele><time>2026-04-30T13:41:51.649Z</time></trkpt><trkpt lat="43.7951233" lon="12.1162033"><ele>1068.6666666666665</ele><time>2026-04-30T13:41:52.644Z</time></trkpt><trkpt lat="43.7950483" lon="12.11615"><ele>1068.3333333333333</ele><time>2026-04-30T13:41:53.648Z</time></trkpt><trkpt lat="43.7949683" lon="12.1160867"><ele>1068.0</ele><time>2026-04-30T13:41:54.662Z</time></trkpt><trkpt lat="43.7948917" lon="12.11602"><ele>1067.6666666666667</ele><time>2026-04-30T13:41:55.661Z</time></trkpt><trkpt lat="43.79482" lon="12.1159583"><ele>1067.3333333333335</ele><time>2026-04-30T13:41:56.648Z</time></trkpt><trkpt lat="43.7947533" lon="12.1158983"><ele>1067.0</ele><time>2026-04-30T13:41:57.646Z</time></trkpt><trkpt lat="43.7946833" lon="12.1158367"><ele>1067.0</ele><time>2026-04-30T13:41:58.65Z</time></trkpt><trkpt lat="43.79461" lon="12.115775"><ele>1067.0</ele><time>2026-04-30T13:41:59.644Z</time></trkpt><trkpt lat="43.79454" lon="12.1157183"><ele>1067.0</ele><time>2026-04-30T13:42:00.644Z</time></trkpt><trkpt lat="43.7944767" lon="12.1156683"><ele>1067.0</ele><time>2026-04-30T13:42:01.65Z</time></trkpt><trkpt lat="43.794425" lon="12.1156183"><ele>1067.0</ele><time>2026-04-30T13:42:02.647Z</time></trkpt><trkpt lat="43.7943317" lon="12.1155633"><ele>1067.0</ele><time>2026-04-30T13:42:04.644Z</time></trkpt><trkpt lat="43.7942533" lon="12.1156017"><ele>1067.6</ele><time>2026-04-30T13:42:06.642Z</time></trkpt><trkpt lat="43.794192" lon="12.1156785"><ele>1068.2</ele><time>2026-04-30T13:42:08.643Z</time></trkpt><trkpt lat="43.7941196" lon="12.1157539"><ele>1068.8</ele><time>2026-04-30T13:42:10.649Z</time></trkpt><trkpt lat="43.79404" lon="12.1158228"><ele>1069.4</ele><time>2026-04-30T13:42:12.654Z</time></trkpt><trkpt lat="43.7939172" lon="12.1159058"><ele>1070.0</ele><time>2026-04-30T13:42:14.648Z</time></trkpt><trkpt lat="43.7938365" lon="12.1159558"><ele>1070.0</ele><time>2026-04-30T13:42:15.652Z</time></trkpt><trkpt lat="43.7937462" lon="12.1160121"><ele>1070.0</ele><time>2026-04-30T13:42:16.651Z</time></trkpt><trkpt lat="43.7936528" lon="12.1160785"><ele>1070.0</ele><time>2026-04-30T13:42:17.654Z</time></trkpt><trkpt lat="43.7935568" lon="12.1161461"><ele>1070.0</ele><time>2026-04-30T13:42:18.65Z</time></trkpt><trkpt lat="43.7934556" lon="12.1162202"><ele>1070.0</ele><time>2026-04-30T13:42:19.643Z</time></trkpt><trkpt lat="43.7933527" lon="12.1162992"><ele>1069.4</ele><time>2026-04-30T13:42:20.645Z</time></trkpt><trkpt lat="43.7932524" lon="12.1163759"><ele>1068.8</ele><time>2026-04-30T13:42:21.647Z</time></trkpt><trkpt lat="43.7931579" lon="12.1164488"><ele>1068.2</ele><time>2026-04-30T13:42:22.649Z</time></trkpt><trkpt lat="43.7930635" lon="12.1165149"><ele>1067.6</ele><time>2026-04-30T13:42:23.658Z</time></trkpt><trkpt lat="43.7929676" lon="12.1165742"><ele>1067.0</ele><time>2026-04-30T13:42:24.65Z</time></trkpt><trkpt lat="43.7928694" lon="12.1166337"><ele>1067.0</ele><time>2026-04-30T13:42:25.648Z</time></trkpt><trkpt lat="43.7927713" lon="12.1166929"><ele>1067.0</ele><time>2026-04-30T13:42:26.643Z</time></trkpt><trkpt lat="43.7926767" lon="12.11675"><ele>1067.0</ele><time>2026-04-30T13:42:27.652Z</time></trkpt><trkpt lat="43.7925869" lon="12.1168033"><ele>1067.0</ele><time>2026-04-30T13:42:28.658Z</time></trkpt><trkpt lat="43.7924995" lon="12.116852"><ele>1067.0</ele><time>2026-04-30T13:42:29.649Z</time></trkpt><trkpt lat="43.7924121" lon="12.1168993"><ele>1067.8</ele><time>2026-04-30T13:42:30.657Z</time></trkpt><trkpt lat="43.7923231" lon="12.1169509"><ele>1068.6</ele><time>2026-04-30T13:42:31.649Z</time></trkpt><trkpt lat="43.7922244" lon="12.11701"><ele>1069.3999999999999</ele><time>2026-04-30T13:42:32.647Z</time></trkpt><trkpt lat="43.7921168" lon="12.117069"><ele>1070.2</ele><time>2026-04-30T13:42:33.647Z</time></trkpt><trkpt lat="43.7920075" lon="12.1171243"><ele>1071.0</ele><time>2026-04-30T13:42:34.643Z</time></trkpt><trkpt lat="43.7918996" lon="12.1171794"><ele>1069.75</ele><time>2026-04-30T13:42:35.652Z</time></trkpt><trkpt lat="43.7917949" lon="12.117235"><ele>1068.5</ele><time>2026-04-30T13:42:36.653Z</time></trkpt><trkpt lat="43.7916883" lon="12.1172919"><ele>1067.25</ele><time>2026-04-30T13:42:37.642Z</time></trkpt><trkpt lat="43.7915745" lon="12.1173524"><ele>1066.0</ele><time>2026-04-30T13:42:38.647Z</time></trkpt><trkpt lat="43.791453" lon="12.1174128"><ele>1066.0</ele><time>2026-04-30T13:42:39.664Z</time></trkpt><trkpt lat="43.7913284" lon="12.1174656"><ele>1066.0</ele><time>2026-04-30T13:42:40.648Z</time></trkpt><trkpt lat="43.791199" lon="12.1175146"><ele>1066.0</ele><time>2026-04-30T13:42:41.66Z</time></trkpt><trkpt lat="43.7910717" lon="12.11757"><ele>1066.0</ele><time>2026-04-30T13:42:42.653Z</time></trkpt><trkpt lat="43.7909533" lon="12.1176333"><ele>1066.5</ele><time>2026-04-30T13:42:43.664Z</time></trkpt><trkpt lat="43.790835" lon="12.1176983"><ele>1067.0</ele><time>2026-04-30T13:42:44.654Z</time></trkpt><trkpt lat="43.7907167" lon="12.117765"><ele>1067.5</ele><time>2026-04-30T13:42:45.649Z</time></trkpt><trkpt lat="43.790605" lon="12.1178333"><ele>1068.0</ele><time>2026-04-30T13:42:46.644Z</time></trkpt><trkpt lat="43.7904983" lon="12.1179067"><ele>1068.0</ele><time>2026-04-30T13:42:47.648Z</time></trkpt><trkpt lat="43.7903933" lon="12.1179867"><ele>1068.0</ele><time>2026-04-30T13:42:48.65Z</time></trkpt><trkpt lat="43.7902933" lon="12.1180617"><ele>1068.0</ele><time>2026-04-30T13:42:49.641Z</time></trkpt><trkpt lat="43.7902067" lon="12.1181317"><ele>1068.0</ele><time>2026-04-30T13:42:50.644Z</time></trkpt><trkpt lat="43.79013" lon="12.1182"><ele>1068.0</ele><time>2026-04-30T13:42:51.655Z</time></trkpt><trkpt lat="43.79005" lon="12.1182483"><ele>1067.4</ele><time>2026-04-30T13:42:52.656Z</time></trkpt><trkpt lat="43.78996" lon="12.118275"><ele>1066.8</ele><time>2026-04-30T13:42:53.65Z</time></trkpt><trkpt lat="43.7898683" lon="12.1182717"><ele>1066.2</ele><time>2026-04-30T13:42:54.651Z</time></trkpt><trkpt lat="43.7897733" lon="12.1182317"><ele>1065.6</ele><time>2026-04-30T13:42:55.651Z</time></trkpt><trkpt lat="43.7896817" lon="12.1181733"><ele>1065.0</ele><time>2026-04-30T13:42:56.65Z</time></trkpt><trkpt lat="43.7895967" lon="12.11811"><ele>1065.0</ele><time>2026-04-30T13:42:57.651Z</time></trkpt><trkpt lat="43.789515" lon="12.1180483"><ele>1065.0</ele><time>2026-04-30T13:42:58.652Z</time></trkpt><trkpt lat="43.7894333" lon="12.1179917"><ele>1065.0</ele><time>2026-04-30T13:42:59.651Z</time></trkpt><trkpt lat="43.7893533" lon="12.1179467"><ele>1065.0</ele><time>2026-04-30T13:43:00.651Z</time></trkpt><trkpt lat="43.7892767" lon="12.1179117"><ele>1065.0</ele><time>2026-04-30T13:43:01.653Z</time></trkpt><trkpt lat="43.7892" lon="12.1178783"><ele>1065.0</ele><time>2026-04-30T13:43:02.649Z</time></trkpt><trkpt lat="43.7891233" lon="12.1178417"><ele>1062.8333333333333</ele><time>2026-04-30T13:43:03.654Z</time></trkpt><trkpt lat="43.78905" lon="12.11779"><ele>1060.6666666666667</ele><time>2026-04-30T13:43:04.647Z</time></trkpt><trkpt lat="43.78898" lon="12.117725"><ele>1058.5</ele><time>2026-04-30T13:43:05.657Z</time></trkpt><trkpt lat="43.7889133" lon="12.11766"><ele>1056.3333333333335</ele><time>2026-04-30T13:43:06.648Z</time></trkpt><trkpt lat="43.7888433" lon="12.1176083"><ele>1054.1666666666667</ele><time>2026-04-30T13:43:07.648Z</time></trkpt><trkpt lat="43.7887733" lon="12.117575"><ele>1052.0</ele><time>2026-04-30T13:43:08.652Z</time></trkpt><trkpt lat="43.7886983" lon="12.1175683"><ele>1052.0</ele><time>2026-04-30T13:43:09.647Z</time></trkpt><trkpt lat="43.7886167" lon="12.1175733"><ele>1052.0</ele><time>2026-04-30T13:43:10.642Z</time></trkpt><trkpt lat="43.788535" lon="12.1175833"><ele>1052.0</ele><time>2026-04-30T13:43:11.664Z</time></trkpt><trkpt lat="43.78845" lon="12.1175983"><ele>1052.0</ele><time>2026-04-30T13:43:12.648Z</time></trkpt><trkpt lat="43.788365" lon="12.1176117"><ele>1052.0</ele><time>2026-04-30T13:43:13.649Z</time></trkpt><trkpt lat="43.7882767" lon="12.11763"><ele>1052.0</ele><time>2026-04-30T13:43:14.655Z</time></trkpt><trkpt lat="43.7881933" lon="12.1176467"><ele>1050.8333333333335</ele><time>2026-04-30T13:43:15.644Z</time></trkpt><trkpt lat="43.7881217" lon="12.1176767"><ele>1049.6666666666667</ele><time>2026-04-30T13:43:16.662Z</time></trkpt><trkpt lat="43.7880567" lon="12.1177317"><ele>1048.5</ele><time>2026-04-30T13:43:17.649Z</time></trkpt><trkpt lat="43.78801" lon="12.1178117"><ele>1047.3333333333333</ele><time>2026-04-30T13:43:18.651Z</time></trkpt><trkpt lat="43.7879867" lon="12.117915"><ele>1046.1666666666665</ele><time>2026-04-30T13:43:19.652Z</time></trkpt><trkpt lat="43.78799" lon="12.11802"><ele>1045.0</ele><time>2026-04-30T13:43:20.654Z</time></trkpt><trkpt lat="43.7880217" lon="12.1181183"><ele>1045.0</ele><time>2026-04-30T13:43:21.66Z</time></trkpt><trkpt lat="43.78807" lon="12.118205"><ele>1045.0</ele><time>2026-04-30T13:43:22.65Z</time></trkpt><trkpt lat="43.7881433" lon="12.1182733"><ele>1045.0</ele><time>2026-04-30T13:43:23.654Z</time></trkpt><trkpt lat="43.78823" lon="12.1183333"><ele>1045.0</ele><time>2026-04-30T13:43:24.656Z</time></trkpt><trkpt lat="43.7882883" lon="12.1184017"><ele>1045.0</ele><time>2026-04-30T13:43:25.65Z</time></trkpt><trkpt lat="43.788335" lon="12.1184833"><ele>1045.0</ele><time>2026-04-30T13:43:26.655Z</time></trkpt><trkpt lat="43.7883633" lon="12.11858"><ele>1043.2857142857142</ele><time>2026-04-30T13:43:27.647Z</time></trkpt><trkpt lat="43.7883683" lon="12.1186817"><ele>1041.5714285714284</ele><time>2026-04-30T13:43:28.645Z</time></trkpt><trkpt lat="43.788355" lon="12.1187733"><ele>1039.857142857143</ele><time>2026-04-30T13:43:29.641Z</time></trkpt><trkpt lat="43.7883333" lon="12.1188617"><ele>1038.142857142857</ele><time>2026-04-30T13:43:30.647Z</time></trkpt><trkpt lat="43.7883" lon="12.1189533"><ele>1036.4285714285716</ele><time>2026-04-30T13:43:31.65Z</time></trkpt><trkpt lat="43.7882617" lon="12.11905"><ele>1034.7142857142858</ele><time>2026-04-30T13:43:32.648Z</time></trkpt><trkpt lat="43.7882317" lon="12.1191517"><ele>1033.0</ele><time>2026-04-30T13:43:33.647Z</time></trkpt><trkpt lat="43.7882233" lon="12.11925"><ele>1032.6</ele><time>2026-04-30T13:43:34.643Z</time></trkpt><trkpt lat="43.78826" lon="12.1193333"><ele>1032.1999999999998</ele><time>2026-04-30T13:43:35.654Z</time></trkpt><trkpt lat="43.7883217" lon="12.1194083"><ele>1031.8</ele><time>2026-04-30T13:43:36.648Z</time></trkpt><trkpt lat="43.7884117" lon="12.1194633"><ele>1031.3999999999999</ele><time>2026-04-30T13:43:37.644Z</time></trkpt><trkpt lat="43.7885167" lon="12.1195083"><ele>1031.0</ele><time>2026-04-30T13:43:38.648Z</time></trkpt><trkpt lat="43.7886133" lon="12.1195683"><ele>1031.0</ele><time>2026-04-30T13:43:39.65Z</time></trkpt><trkpt lat="43.7887133" lon="12.1196367"><ele>1031.0</ele><time>2026-04-30T13:43:40.651Z</time></trkpt><trkpt lat="43.78882" lon="12.1197083"><ele>1031.0</ele><time>2026-04-30T13:43:41.648Z</time></trkpt><trkpt lat="43.7889317" lon="12.1197783"><ele>1031.0</ele><time>2026-04-30T13:43:42.645Z</time></trkpt><trkpt lat="43.78905" lon="12.1198367"><ele>1031.0</ele><time>2026-04-30T13:43:43.647Z</time></trkpt><trkpt lat="43.7891683" lon="12.1198917"><ele>1031.0</ele><time>2026-04-30T13:43:44.65Z</time></trkpt><trkpt lat="43.7892833" lon="12.1199433"><ele>1031.0</ele><time>2026-04-30T13:43:45.649Z</time></trkpt><trkpt lat="43.7893917" lon="12.1200017"><ele>1031.0</ele><time>2026-04-30T13:43:46.65Z</time></trkpt><trkpt lat="43.7895017" lon="12.1200633"><ele>1026.5</ele><time>2026-04-30T13:43:47.658Z</time></trkpt><trkpt lat="43.7896133" lon="12.120115"><ele>1022.0</ele><time>2026-04-30T13:43:48.65Z</time></trkpt><trkpt lat="43.7897217" lon="12.12017"><ele>1017.5</ele><time>2026-04-30T13:43:49.656Z</time></trkpt><trkpt lat="43.789825" lon="12.1202467"><ele>1013.0</ele><time>2026-04-30T13:43:50.652Z</time></trkpt><trkpt lat="43.7899267" lon="12.1203517"><ele>1013.0</ele><time>2026-04-30T13:43:51.648Z</time></trkpt><trkpt lat="43.7900267" lon="12.1204717"><ele>1013.0</ele><time>2026-04-30T13:43:52.651Z</time></trkpt><trkpt lat="43.7901133" lon="12.1206"><ele>1013.0</ele><time>2026-04-30T13:43:53.649Z</time></trkpt><trkpt lat="43.7901867" lon="12.1207433"><ele>1013.0</ele><time>2026-04-30T13:43:54.642Z</time></trkpt><trkpt lat="43.7902467" lon="12.120905"><ele>1009.0</ele><time>2026-04-30T13:43:55.652Z</time></trkpt><trkpt lat="43.790305" lon="12.1210717"><ele>1005.0</ele><time>2026-04-30T13:43:56.658Z</time></trkpt><trkpt lat="43.7903617" lon="12.1212317"><ele>1001.0</ele><time>2026-04-30T13:43:57.654Z</time></trkpt><trkpt lat="43.7904183" lon="12.1213717"><ele>997.0</ele><time>2026-04-30T13:43:58.657Z</time></trkpt><trkpt lat="43.7904667" lon="12.1214983"><ele>995.8</ele><time>2026-04-30T13:43:59.648Z</time></trkpt><trkpt lat="43.7904967" lon="12.1216133"><ele>994.6</ele><time>2026-04-30T13:44:00.649Z</time></trkpt><trkpt lat="43.7904917" lon="12.1217267"><ele>993.3999999999999</ele><time>2026-04-30T13:44:01.644Z</time></trkpt><trkpt lat="43.79046" lon="12.1218483"><ele>992.1999999999999</ele><time>2026-04-30T13:44:02.652Z</time></trkpt><trkpt lat="43.7904" lon="12.12197"><ele>991.0</ele><time>2026-04-30T13:44:03.647Z</time></trkpt><trkpt lat="43.790335" lon="12.1220917"><ele>990.9999999999999</ele><time>2026-04-30T13:44:04.644Z</time></trkpt><trkpt lat="43.7902683" lon="12.1221933"><ele>991.0</ele><time>2026-04-30T13:44:05.656Z</time></trkpt><trkpt lat="43.7902033" lon="12.1222767"><ele>991.0</ele><time>2026-04-30T13:44:06.653Z</time></trkpt><trkpt lat="43.790135" lon="12.1223333"><ele>991.0</ele><time>2026-04-30T13:44:07.656Z</time></trkpt><trkpt lat="43.7900567" lon="12.1223517"><ele>990.9999999999999</ele><time>2026-04-30T13:44:08.645Z</time></trkpt><trkpt lat="43.7899667" lon="12.122325"><ele>991.0</ele><time>2026-04-30T13:44:09.652Z</time></trkpt><trkpt lat="43.7898817" lon="12.12225"><ele>990.4</ele><time>2026-04-30T13:44:10.649Z</time></trkpt><trkpt lat="43.7898083" lon="12.12216"><ele>989.8</ele><time>2026-04-30T13:44:11.643Z</time></trkpt><trkpt lat="43.7897517" lon="12.12204"><ele>989.1999999999999</ele><time>2026-04-30T13:44:12.649Z</time></trkpt><trkpt lat="43.7897017" lon="12.1219"><ele>988.5999999999999</ele><time>2026-04-30T13:44:13.653Z</time></trkpt><trkpt lat="43.7896517" lon="12.1217817"><ele>988.0</ele><time>2026-04-30T13:44:14.645Z</time></trkpt><trkpt lat="43.78958" lon="12.121685"><ele>988.0</ele><time>2026-04-30T13:44:15.643Z</time></trkpt><trkpt lat="43.78949" lon="12.1216167"><ele>988.0</ele><time>2026-04-30T13:44:16.644Z</time></trkpt><trkpt lat="43.7893883" lon="12.1215767"><ele>988.0</ele><time>2026-04-30T13:44:17.656Z</time></trkpt><trkpt lat="43.7892883" lon="12.121535"><ele>988.0</ele><time>2026-04-30T13:44:18.646Z</time></trkpt><trkpt lat="43.7892017" lon="12.1214883"><ele>988.0</ele><time>2026-04-30T13:44:19.644Z</time></trkpt><trkpt lat="43.7891267" lon="12.1214233"><ele>987.6666666666666</ele><time>2026-04-30T13:44:20.651Z</time></trkpt><trkpt lat="43.7890567" lon="12.1213533"><ele>987.3333333333333</ele><time>2026-04-30T13:44:21.657Z</time></trkpt><trkpt lat="43.788985" lon="12.1212983"><ele>987.0</ele><time>2026-04-30T13:44:22.65Z</time></trkpt><trkpt lat="43.7889117" lon="12.12127"><ele>986.6666666666667</ele><time>2026-04-30T13:44:23.648Z</time></trkpt><trkpt lat="43.7888433" lon="12.12129"><ele>986.3333333333334</ele><time>2026-04-30T13:44:24.658Z</time></trkpt><trkpt lat="43.78878" lon="12.1213533"><ele>986.0</ele><time>2026-04-30T13:44:25.65Z</time></trkpt><trkpt lat="43.7887167" lon="12.1214233"><ele>986.0</ele><time>2026-04-30T13:44:26.65Z</time></trkpt><trkpt lat="43.788655" lon="12.12149"><ele>985.9999999999999</ele><time>2026-04-30T13:44:27.647Z</time></trkpt><trkpt lat="43.788605" lon="12.1215533"><ele>985.9999999999999</ele><time>2026-04-30T13:44:28.648Z</time></trkpt><trkpt lat="43.7885517" lon="12.1216867"><ele>986.0</ele><time>2026-04-30T13:44:30.645Z</time></trkpt><trkpt lat="43.7886067" lon="12.1217817"><ele>986.0</ele><time>2026-04-30T13:44:32.652Z</time></trkpt><trkpt lat="43.7887367" lon="12.1218"><ele>984.3333333333334</ele><time>2026-04-30T13:44:34.655Z</time></trkpt><trkpt lat="43.78881" lon="12.121825"><ele>982.6666666666667</ele><time>2026-04-30T13:44:35.645Z</time></trkpt><trkpt lat="43.7888683" lon="12.12188"><ele>981.0</ele><time>2026-04-30T13:44:36.646Z</time></trkpt><trkpt lat="43.7889017" lon="12.1219633"><ele>979.3333333333333</ele><time>2026-04-30T13:44:37.65Z</time></trkpt><trkpt lat="43.7889183" lon="12.1220767"><ele>977.6666666666666</ele><time>2026-04-30T13:44:38.67Z</time></trkpt><trkpt lat="43.78893" lon="12.1222017"><ele>976.0</ele><time>2026-04-30T13:44:39.656Z</time></trkpt><trkpt lat="43.7889617" lon="12.1223217"><ele>974.5999999999999</ele><time>2026-04-30T13:44:40.649Z</time></trkpt><trkpt lat="43.789" lon="12.1224433"><ele>973.1999999999999</ele><time>2026-04-30T13:44:41.645Z</time></trkpt><trkpt lat="43.78904" lon="12.1225717"><ele>971.8000000000001</ele><time>2026-04-30T13:44:42.644Z</time></trkpt><trkpt lat="43.78907" lon="12.1227017"><ele>970.4000000000001</ele><time>2026-04-30T13:44:43.666Z</time></trkpt><trkpt lat="43.7890967" lon="12.1228233"><ele>969.0</ele><time>2026-04-30T13:44:44.651Z</time></trkpt><trkpt lat="43.78913" lon="12.12293"><ele>969.0</ele><time>2026-04-30T13:44:45.648Z</time></trkpt><trkpt lat="43.7891683" lon="12.12302"><ele>969.0</ele><time>2026-04-30T13:44:46.645Z</time></trkpt><trkpt lat="43.7892167" lon="12.123105"><ele>969.0</ele><time>2026-04-30T13:44:47.653Z</time></trkpt><trkpt lat="43.7892717" lon="12.12319"><ele>969.0</ele><time>2026-04-30T13:44:48.645Z</time></trkpt><trkpt lat="43.7893183" lon="12.1232767"><ele>969.0</ele><time>2026-04-30T13:44:49.645Z</time></trkpt><trkpt lat="43.78936" lon="12.1233733"><ele>969.0</ele><time>2026-04-30T13:44:50.655Z</time></trkpt><trkpt lat="43.78938" lon="12.12348"><ele>970.3333333333334</ele><time>2026-04-30T13:44:51.653Z</time></trkpt><trkpt lat="43.7893733" lon="12.1235783"><ele>971.6666666666667</ele><time>2026-04-30T13:44:52.653Z</time></trkpt><trkpt lat="43.7893433" lon="12.1236617"><ele>973.0</ele><time>2026-04-30T13:44:53.651Z</time></trkpt><trkpt lat="43.789285" lon="12.1237367"><ele>974.3333333333334</ele><time>2026-04-30T13:44:54.645Z</time></trkpt><trkpt lat="43.7892367" lon="12.1238317"><ele>975.6666666666667</ele><time>2026-04-30T13:44:55.645Z</time></trkpt><trkpt lat="43.7892133" lon="12.1239333"><ele>977.0</ele><time>2026-04-30T13:44:56.647Z</time></trkpt><trkpt lat="43.7892083" lon="12.1240383"><ele>975.6</ele><time>2026-04-30T13:44:57.65Z</time></trkpt><trkpt lat="43.78923" lon="12.124145"><ele>974.2</ele><time>2026-04-30T13:44:58.648Z</time></trkpt><trkpt lat="43.7892917" lon="12.1242467"><ele>972.8</ele><time>2026-04-30T13:44:59.655Z</time></trkpt><trkpt lat="43.7893817" lon="12.12434"><ele>971.4</ele><time>2026-04-30T13:45:00.648Z</time></trkpt><trkpt lat="43.7894717" lon="12.1244267"><ele>970.0</ele><time>2026-04-30T13:45:01.643Z</time></trkpt><trkpt lat="43.7895617" lon="12.124515"><ele>970.0</ele><time>2026-04-30T13:45:02.642Z</time></trkpt><trkpt lat="43.7896417" lon="12.124615"><ele>970.0</ele><time>2026-04-30T13:45:03.651Z</time></trkpt><trkpt lat="43.7897067" lon="12.1247217"><ele>970.0</ele><time>2026-04-30T13:45:04.643Z</time></trkpt><trkpt lat="43.7897567" lon="12.12483"><ele>970.0</ele><time>2026-04-30T13:45:05.647Z</time></trkpt><trkpt lat="43.7897817" lon="12.1249533"><ele>970.0</ele><time>2026-04-30T13:45:06.655Z</time></trkpt><trkpt lat="43.7897867" lon="12.1250883"><ele>966.8333333333333</ele><time>2026-04-30T13:45:07.648Z</time></trkpt><trkpt lat="43.78978" lon="12.1252217"><ele>963.6666666666666</ele><time>2026-04-30T13:45:08.652Z</time></trkpt><trkpt lat="43.7897567" lon="12.1253433"><ele>960.5</ele><time>2026-04-30T13:45:09.651Z</time></trkpt><trkpt lat="43.7897417" lon="12.1254533"><ele>957.3333333333333</ele><time>2026-04-30T13:45:10.643Z</time></trkpt><trkpt lat="43.7897417" lon="12.1255583"><ele>954.1666666666666</ele><time>2026-04-30T13:45:11.649Z</time></trkpt><trkpt lat="43.78976" lon="12.1256717"><ele>951.0</ele><time>2026-04-30T13:45:12.666Z</time></trkpt><trkpt lat="43.7897883" lon="12.125795"><ele>949.0</ele><time>2026-04-30T13:45:13.657Z</time></trkpt><trkpt lat="43.7898267" lon="12.1259467"><ele>946.9999999999999</ele><time>2026-04-30T13:45:14.642Z</time></trkpt><trkpt lat="43.7898567" lon="12.126095"><ele>944.9999999999999</ele><time>2026-04-30T13:45:15.652Z</time></trkpt><trkpt lat="43.7898833" lon="12.1262317"><ele>943.0</ele><time>2026-04-30T13:45:16.649Z</time></trkpt><trkpt lat="43.7898917" lon="12.1263433"><ele>941.0</ele><time>2026-04-30T13:45:17.653Z</time></trkpt><trkpt lat="43.7898717" lon="12.126435"><ele>941.0</ele><time>2026-04-30T13:45:18.656Z</time></trkpt><trkpt lat="43.7898233" lon="12.1265083"><ele>940.9999999999999</ele><time>2026-04-30T13:45:19.648Z</time></trkpt><trkpt lat="43.78973" lon="12.1265517"><ele>940.9999999999999</ele><time>2026-04-30T13:45:20.649Z</time></trkpt><trkpt lat="43.7896383" lon="12.1265983"><ele>941.0</ele><time>2026-04-30T13:45:21.65Z</time></trkpt><trkpt lat="43.789545" lon="12.12665"><ele>941.0</ele><time>2026-04-30T13:45:22.652Z</time></trkpt><trkpt lat="43.7894617" lon="12.1267117"><ele>941.1666666666667</ele><time>2026-04-30T13:45:23.649Z</time></trkpt><trkpt lat="43.789395" lon="12.1267783"><ele>941.3333333333334</ele><time>2026-04-30T13:45:24.65Z</time></trkpt><trkpt lat="43.7893417" lon="12.12685"><ele>941.5</ele><time>2026-04-30T13:45:25.655Z</time></trkpt><trkpt lat="43.78931" lon="12.12694"><ele>941.6666666666667</ele><time>2026-04-30T13:45:26.643Z</time></trkpt><trkpt lat="43.789285" lon="12.1270633"><ele>941.8333333333334</ele><time>2026-04-30T13:45:27.646Z</time></trkpt><trkpt lat="43.789275" lon="12.127195"><ele>942.0</ele><time>2026-04-30T13:45:28.648Z</time></trkpt><trkpt lat="43.7892867" lon="12.1273317"><ele>942.6</ele><time>2026-04-30T13:45:29.662Z</time></trkpt><trkpt lat="43.789325" lon="12.127465"><ele>943.2</ele><time>2026-04-30T13:45:30.645Z</time></trkpt><trkpt lat="43.78936" lon="12.1276"><ele>943.8</ele><time>2026-04-30T13:45:31.648Z</time></trkpt><trkpt lat="43.789375" lon="12.1277367"><ele>944.4</ele><time>2026-04-30T13:45:32.65Z</time></trkpt><trkpt lat="43.7893733" lon="12.12787"><ele>945.0</ele><time>2026-04-30T13:45:33.645Z</time></trkpt><trkpt lat="43.7893717" lon="12.1280033"><ele>945.0</ele><time>2026-04-30T13:45:34.645Z</time></trkpt><trkpt lat="43.78938" lon="12.1281333"><ele>945.0</ele><time>2026-04-30T13:45:35.65Z</time></trkpt><trkpt lat="43.7893867" lon="12.1282517"><ele>945.0</ele><time>2026-04-30T13:45:36.651Z</time></trkpt><trkpt lat="43.78938" lon="12.1283533"><ele>945.0</ele><time>2026-04-30T13:45:37.642Z</time></trkpt><trkpt lat="43.7893117" lon="12.12849"><ele>945.0</ele><time>2026-04-30T13:45:39.652Z</time></trkpt><trkpt lat="43.78924" lon="12.128535"><ele>938.5</ele><time>2026-04-30T13:45:40.647Z</time></trkpt><trkpt lat="43.7891617" lon="12.1285917"><ele>932.0</ele><time>2026-04-30T13:45:41.649Z</time></trkpt><trkpt lat="43.7890817" lon="12.1286517"><ele>925.5</ele><time>2026-04-30T13:45:42.652Z</time></trkpt><trkpt lat="43.7890067" lon="12.1287117"><ele>919.0</ele><time>2026-04-30T13:45:43.654Z</time></trkpt><trkpt lat="43.7889333" lon="12.1287717"><ele>912.5</ele><time>2026-04-30T13:45:44.647Z</time></trkpt><trkpt lat="43.7888617" lon="12.1288417"><ele>906.0</ele><time>2026-04-30T13:45:45.648Z</time></trkpt><trkpt lat="43.7887933" lon="12.1289267"><ele>906.0</ele><time>2026-04-30T13:45:46.648Z</time></trkpt><trkpt lat="43.7887317" lon="12.1290133"><ele>905.9999999999999</ele><time>2026-04-30T13:45:47.646Z</time></trkpt><trkpt lat="43.7886717" lon="12.129115"><ele>905.9999999999999</ele><time>2026-04-30T13:45:48.646Z</time></trkpt><trkpt lat="43.788605" lon="12.1292317"><ele>906.0</ele><time>2026-04-30T13:45:49.659Z</time></trkpt><trkpt lat="43.7885333" lon="12.129355"><ele>906.0</ele><time>2026-04-30T13:45:50.647Z</time></trkpt><trkpt lat="43.7884617" lon="12.1294767"><ele>902.3333333333334</ele><time>2026-04-30T13:45:51.652Z</time></trkpt><trkpt lat="43.7883883" lon="12.1295833"><ele>898.6666666666667</ele><time>2026-04-30T13:45:52.646Z</time></trkpt><trkpt lat="43.7883167" lon="12.12968"><ele>895.0</ele><time>2026-04-30T13:45:53.65Z</time></trkpt><trkpt lat="43.7882433" lon="12.1297517"><ele>891.3333333333334</ele><time>2026-04-30T13:45:54.647Z</time></trkpt><trkpt lat="43.788175" lon="12.129805"><ele>887.6666666666667</ele><time>2026-04-30T13:45:55.652Z</time></trkpt><trkpt lat="43.7881167" lon="12.1298617"><ele>884.0</ele><time>2026-04-30T13:45:56.65Z</time></trkpt><trkpt lat="43.78808" lon="12.1300067"><ele>882.0000000000001</ele><time>2026-04-30T13:45:58.646Z</time></trkpt><trkpt lat="43.7881067" lon="12.1301"><ele>880.0</ele><time>2026-04-30T13:45:59.647Z</time></trkpt><trkpt lat="43.7881617" lon="12.1302117"><ele>878.0</ele><time>2026-04-30T13:46:00.649Z</time></trkpt><trkpt lat="43.7882183" lon="12.1303117"><ele>876.0</ele><time>2026-04-30T13:46:01.646Z</time></trkpt><trkpt lat="43.7882867" lon="12.1304"><ele>874.0000000000001</ele><time>2026-04-30T13:46:02.647Z</time></trkpt><trkpt lat="43.7883517" lon="12.1304733"><ele>872.0</ele><time>2026-04-30T13:46:03.652Z</time></trkpt><trkpt lat="43.7884133" lon="12.130545"><ele>872.0000000000001</ele><time>2026-04-30T13:46:04.655Z</time></trkpt><trkpt lat="43.788455" lon="12.1306267"><ele>872.0</ele><time>2026-04-30T13:46:05.648Z</time></trkpt><trkpt lat="43.7884733" lon="12.1307117"><ele>872.0</ele><time>2026-04-30T13:46:06.662Z</time></trkpt><trkpt lat="43.78845" lon="12.1308633"><ele>872.0</ele><time>2026-04-30T13:46:08.651Z</time></trkpt><trkpt lat="43.78838" lon="12.1308667"><ele>872.0000000000001</ele><time>2026-04-30T13:46:09.644Z</time></trkpt><trkpt lat="43.7883067" lon="12.1308483"><ele>872.0</ele><time>2026-04-30T13:46:10.646Z</time></trkpt><trkpt lat="43.788225" lon="12.1308167"><ele>869.2</ele><time>2026-04-30T13:46:11.645Z</time></trkpt><trkpt lat="43.78814" lon="12.1307933"><ele>866.4000000000001</ele><time>2026-04-30T13:46:12.641Z</time></trkpt><trkpt lat="43.78805" lon="12.1307833"><ele>863.5999999999999</ele><time>2026-04-30T13:46:13.652Z</time></trkpt><trkpt lat="43.7879517" lon="12.130795"><ele>860.8</ele><time>2026-04-30T13:46:14.648Z</time></trkpt><trkpt lat="43.7878533" lon="12.1308183"><ele>858.0</ele><time>2026-04-30T13:46:15.656Z</time></trkpt><trkpt lat="43.787755" lon="12.1308483"><ele>856.4</ele><time>2026-04-30T13:46:16.653Z</time></trkpt><trkpt lat="43.78766" lon="12.1308733"><ele>854.8</ele><time>2026-04-30T13:46:17.644Z</time></trkpt><trkpt lat="43.7875633" lon="12.1309"><ele>853.2</ele><time>2026-04-30T13:46:18.659Z</time></trkpt><trkpt lat="43.787465" lon="12.13094"><ele>851.6</ele><time>2026-04-30T13:46:19.652Z</time></trkpt><trkpt lat="43.7873683" lon="12.131005"><ele>850.0</ele><time>2026-04-30T13:46:20.656Z</time></trkpt><trkpt lat="43.787275" lon="12.1310817"><ele>849.9999999999999</ele><time>2026-04-30T13:46:21.647Z</time></trkpt><trkpt lat="43.787185" lon="12.131155"><ele>850.0</ele><time>2026-04-30T13:46:22.646Z</time></trkpt><trkpt lat="43.7871033" lon="12.13122"><ele>850.0</ele><time>2026-04-30T13:46:23.649Z</time></trkpt><trkpt lat="43.7870267" lon="12.1312733"><ele>850.0</ele><time>2026-04-30T13:46:24.646Z</time></trkpt><trkpt lat="43.786955" lon="12.1313117"><ele>849.9999999999999</ele><time>2026-04-30T13:46:25.645Z</time></trkpt><trkpt lat="43.78688" lon="12.1313383"><ele>850.0</ele><time>2026-04-30T13:46:26.653Z</time></trkpt><trkpt lat="43.7868" lon="12.1313533"><ele>848.4999999999999</ele><time>2026-04-30T13:46:27.649Z</time></trkpt><trkpt lat="43.7867317" lon="12.1313783"><ele>847.0</ele><time>2026-04-30T13:46:28.646Z</time></trkpt><trkpt lat="43.7866733" lon="12.131425"><ele>845.5</ele><time>2026-04-30T13:46:29.655Z</time></trkpt><trkpt lat="43.7866217" lon="12.1315767"><ele>844.0</ele><time>2026-04-30T13:46:31.656Z</time></trkpt><trkpt lat="43.7866383" lon="12.131665"><ele>842.4999999999999</ele><time>2026-04-30T13:46:32.646Z</time></trkpt><trkpt lat="43.78668" lon="12.1317583"><ele>841.0</ele><time>2026-04-30T13:46:33.646Z</time></trkpt><trkpt lat="43.7867333" lon="12.131845"><ele>839.6666666666666</ele><time>2026-04-30T13:46:34.646Z</time></trkpt><trkpt lat="43.7868" lon="12.13192"><ele>838.3333333333333</ele><time>2026-04-30T13:46:35.647Z</time></trkpt><trkpt lat="43.7868783" lon="12.1319833"><ele>837.0</ele><time>2026-04-30T13:46:36.648Z</time></trkpt><trkpt lat="43.7869667" lon="12.1320317"><ele>835.6666666666667</ele><time>2026-04-30T13:46:37.647Z</time></trkpt><trkpt lat="43.7870533" lon="12.1320583"><ele>834.3333333333334</ele><time>2026-04-30T13:46:38.644Z</time></trkpt><trkpt lat="43.787135" lon="12.132075"><ele>833.0</ele><time>2026-04-30T13:46:39.657Z</time></trkpt><trkpt lat="43.78721" lon="12.1320983"><ele>833.0000000000001</ele><time>2026-04-30T13:46:40.646Z</time></trkpt><trkpt lat="43.7872767" lon="12.1321417"><ele>833.0</ele><time>2026-04-30T13:46:41.652Z</time></trkpt><trkpt lat="43.7873333" lon="12.1321967"><ele>833.0</ele><time>2026-04-30T13:46:42.651Z</time></trkpt><trkpt lat="43.7873783" lon="12.1323367"><ele>833.0</ele><time>2026-04-30T13:46:44.649Z</time></trkpt><trkpt lat="43.78731" lon="12.13244"><ele>833.0000000000001</ele><time>2026-04-30T13:46:46.642Z</time></trkpt><trkpt lat="43.7872333" lon="12.1324583"><ele>833.0</ele><time>2026-04-30T13:46:47.639Z</time></trkpt><trkpt lat="43.7871317" lon="12.132465"><ele>830.2</ele><time>2026-04-30T13:46:48.649Z</time></trkpt><trkpt lat="43.7870367" lon="12.1324767"><ele>827.4</ele><time>2026-04-30T13:46:49.655Z</time></trkpt><trkpt lat="43.7869333" lon="12.13249"><ele>824.6</ele><time>2026-04-30T13:46:50.65Z</time></trkpt><trkpt lat="43.7868333" lon="12.1325117"><ele>821.8000000000001</ele><time>2026-04-30T13:46:51.654Z</time></trkpt><trkpt lat="43.786735" lon="12.1325333"><ele>819.0</ele><time>2026-04-30T13:46:52.646Z</time></trkpt><trkpt lat="43.78664" lon="12.1325633"><ele>818.4000000000001</ele><time>2026-04-30T13:46:53.65Z</time></trkpt><trkpt lat="43.7865433" lon="12.132595"><ele>817.8</ele><time>2026-04-30T13:46:54.661Z</time></trkpt><trkpt lat="43.78644" lon="12.1326333"><ele>817.2</ele><time>2026-04-30T13:46:55.643Z</time></trkpt><trkpt lat="43.7863383" lon="12.1326767"><ele>816.5999999999999</ele><time>2026-04-30T13:46:56.646Z</time></trkpt><trkpt lat="43.7862433" lon="12.1327283"><ele>816.0</ele><time>2026-04-30T13:46:57.694Z</time></trkpt><trkpt lat="43.78616" lon="12.1327883"><ele>816.0</ele><time>2026-04-30T13:46:58.644Z</time></trkpt><trkpt lat="43.7860867" lon="12.1328617"><ele>816.0</ele><time>2026-04-30T13:46:59.649Z</time></trkpt><trkpt lat="43.7860233" lon="12.1329467"><ele>816.0</ele><time>2026-04-30T13:47:00.647Z</time></trkpt><trkpt lat="43.7859583" lon="12.13304"><ele>816.0</ele><time>2026-04-30T13:47:01.642Z</time></trkpt><trkpt lat="43.785885" lon="12.1331233"><ele>816.0</ele><time>2026-04-30T13:47:02.647Z</time></trkpt><trkpt lat="43.7857967" lon="12.133185"><ele>813.0</ele><time>2026-04-30T13:47:03.648Z</time></trkpt><trkpt lat="43.7857" lon="12.1332267"><ele>810.0</ele><time>2026-04-30T13:47:04.655Z</time></trkpt><trkpt lat="43.785595" lon="12.1332517"><ele>807.0</ele><time>2026-04-30T13:47:05.645Z</time></trkpt><trkpt lat="43.7854967" lon="12.1332683"><ele>804.0</ele><time>2026-04-30T13:47:06.651Z</time></trkpt><trkpt lat="43.78541" lon="12.1332883"><ele>801.0</ele><time>2026-04-30T13:47:07.662Z</time></trkpt><trkpt lat="43.7853367" lon="12.1333183"><ele>801.0</ele><time>2026-04-30T13:47:08.646Z</time></trkpt><trkpt lat="43.78528" lon="12.1333667"><ele>801.0</ele><time>2026-04-30T13:47:09.657Z</time></trkpt><trkpt lat="43.7852383" lon="12.1334367"><ele>801.0</ele><time>2026-04-30T13:47:10.653Z</time></trkpt><trkpt lat="43.7852233" lon="12.1335333"><ele>801.0</ele><time>2026-04-30T13:47:11.649Z</time></trkpt><trkpt lat="43.7852217" lon="12.13365"><ele>801.0</ele><time>2026-04-30T13:47:12.647Z</time></trkpt><trkpt lat="43.7852367" lon="12.133775"><ele>801.0</ele><time>2026-04-30T13:47:13.643Z</time></trkpt><trkpt lat="43.78526" lon="12.1339017"><ele>801.0</ele><time>2026-04-30T13:47:14.65Z</time></trkpt><trkpt lat="43.785285" lon="12.1340267"><ele>801.0</ele><time>2026-04-30T13:47:15.65Z</time></trkpt><trkpt lat="43.7852983" lon="12.1341483"><ele>801.0</ele><time>2026-04-30T13:47:16.645Z</time></trkpt><trkpt lat="43.7852967" lon="12.1342683"><ele>801.0</ele><time>2026-04-30T13:47:17.643Z</time></trkpt><trkpt lat="43.78529" lon="12.1343883"><ele>801.0</ele><time>2026-04-30T13:47:18.646Z</time></trkpt><trkpt lat="43.78527" lon="12.1345033"><ele>801.0</ele><time>2026-04-30T13:47:19.651Z</time></trkpt><trkpt lat="43.7852317" lon="12.134605"><ele>800.0</ele><time>2026-04-30T13:47:20.642Z</time></trkpt><trkpt lat="43.78518" lon="12.134695"><ele>799.0</ele><time>2026-04-30T13:47:21.648Z</time></trkpt><trkpt lat="43.7851117" lon="12.1347783"><ele>798.0</ele><time>2026-04-30T13:47:22.653Z</time></trkpt><trkpt lat="43.7850233" lon="12.1348567"><ele>797.0</ele><time>2026-04-30T13:47:23.646Z</time></trkpt><trkpt lat="43.7849283" lon="12.1349333"><ele>796.0</ele><time>2026-04-30T13:47:24.643Z</time></trkpt><trkpt lat="43.7848333" lon="12.13501"><ele>793.5999999999999</ele><time>2026-04-30T13:47:25.647Z</time></trkpt><trkpt lat="43.7847417" lon="12.1350867"><ele>791.2</ele><time>2026-04-30T13:47:26.652Z</time></trkpt><trkpt lat="43.7846467" lon="12.1351567"><ele>788.8</ele><time>2026-04-30T13:47:27.649Z</time></trkpt><trkpt lat="43.7845483" lon="12.1352167"><ele>786.4000000000001</ele><time>2026-04-30T13:47:28.653Z</time></trkpt><trkpt lat="43.7844517" lon="12.1352633"><ele>784.0</ele><time>2026-04-30T13:47:29.643Z</time></trkpt><trkpt lat="43.78437" lon="12.13529"><ele>781.6666666666666</ele><time>2026-04-30T13:47:30.643Z</time></trkpt><trkpt lat="43.7843083" lon="12.1353183"><ele>779.3333333333333</ele><time>2026-04-30T13:47:31.648Z</time></trkpt><trkpt lat="43.784225" lon="12.1354217"><ele>777.0</ele><time>2026-04-30T13:47:33.65Z</time></trkpt><trkpt lat="43.7841983" lon="12.1355117"><ele>774.6666666666667</ele><time>2026-04-30T13:47:34.645Z</time></trkpt><trkpt lat="43.7842" lon="12.1356167"><ele>772.3333333333334</ele><time>2026-04-30T13:47:35.648Z</time></trkpt><trkpt lat="43.78422" lon="12.135725"><ele>770.0</ele><time>2026-04-30T13:47:36.648Z</time></trkpt><trkpt lat="43.7842533" lon="12.13584"><ele>769.6</ele><time>2026-04-30T13:47:37.657Z</time></trkpt><trkpt lat="43.7842917" lon="12.1359633"><ele>769.2</ele><time>2026-04-30T13:47:38.648Z</time></trkpt><trkpt lat="43.7843383" lon="12.1360967"><ele>768.8</ele><time>2026-04-30T13:47:39.659Z</time></trkpt><trkpt lat="43.7843867" lon="12.13623"><ele>768.4</ele><time>2026-04-30T13:47:40.651Z</time></trkpt><trkpt lat="43.7844317" lon="12.136355"><ele>768.0</ele><time>2026-04-30T13:47:41.65Z</time></trkpt><trkpt lat="43.78448" lon="12.1364783"><ele>766.1666666666666</ele><time>2026-04-30T13:47:42.66Z</time></trkpt><trkpt lat="43.7845183" lon="12.13659"><ele>764.3333333333334</ele><time>2026-04-30T13:47:43.657Z</time></trkpt><trkpt lat="43.7845433" lon="12.1367"><ele>762.5</ele><time>2026-04-30T13:47:44.65Z</time></trkpt><trkpt lat="43.7845517" lon="12.1368033"><ele>760.6666666666667</ele><time>2026-04-30T13:47:45.649Z</time></trkpt><trkpt lat="43.7845533" lon="12.136905"><ele>758.8333333333334</ele><time>2026-04-30T13:47:46.65Z</time></trkpt><trkpt lat="43.78454" lon="12.13701"><ele>757.0</ele><time>2026-04-30T13:47:47.648Z</time></trkpt><trkpt lat="43.7845083" lon="12.1371167"><ele>757.0</ele><time>2026-04-30T13:47:48.649Z</time></trkpt><trkpt lat="43.784465" lon="12.137225"><ele>757.0</ele><time>2026-04-30T13:47:49.654Z</time></trkpt><trkpt lat="43.7844133" lon="12.1373217"><ele>757.0</ele><time>2026-04-30T13:47:50.652Z</time></trkpt><trkpt lat="43.7843633" lon="12.13742"><ele>757.0</ele><time>2026-04-30T13:47:51.652Z</time></trkpt><trkpt lat="43.7843133" lon="12.137515"><ele>757.0</ele><time>2026-04-30T13:47:52.647Z</time></trkpt><trkpt lat="43.7842683" lon="12.1376067"><ele>757.0</ele><time>2026-04-30T13:47:53.644Z</time></trkpt><trkpt lat="43.7842317" lon="12.13769"><ele>756.3333333333334</ele><time>2026-04-30T13:47:54.651Z</time></trkpt><trkpt lat="43.784185" lon="12.1378383"><ele>755.6666666666667</ele><time>2026-04-30T13:47:56.651Z</time></trkpt><trkpt lat="43.78415" lon="12.137945"><ele>755.0</ele><time>2026-04-30T13:47:58.652Z</time></trkpt><trkpt lat="43.784105" lon="12.1380217"><ele>754.3333333333334</ele><time>2026-04-30T13:48:00.649Z</time></trkpt><trkpt lat="43.784145" lon="12.1380983"><ele>753.6666666666666</ele><time>2026-04-30T13:48:04.651Z</time></trkpt><trkpt lat="43.7842" lon="12.1380117"><ele>753.0</ele><time>2026-04-30T13:48:07.652Z</time></trkpt><trkpt lat="43.78426" lon="12.137905"><ele>753.0</ele><time>2026-04-30T14:16:50.648Z</time></trkpt><trkpt lat="43.7843217" lon="12.137835"><ele>753.0</ele><time>2026-04-30T14:16:52.651Z</time></trkpt><trkpt lat="43.7844083" lon="12.1377617"><ele>753.0</ele><time>2026-04-30T14:16:54.647Z</time></trkpt><trkpt lat="43.7845183" lon="12.13767"><ele>753.0</ele><time>2026-04-30T14:16:56.652Z</time></trkpt><trkpt lat="43.7845817" lon="12.13761"><ele>753.0</ele><time>2026-04-30T14:16:57.639Z</time></trkpt><trkpt lat="43.7846517" lon="12.1375433"><ele>753.8</ele><time>2026-04-30T14:16:58.658Z</time></trkpt><trkpt lat="43.7847283" lon="12.137485"><ele>754.5999999999999</ele><time>2026-04-30T14:16:59.649Z</time></trkpt><trkpt lat="43.7848067" lon="12.137425"><ele>755.4000000000001</ele><time>2026-04-30T14:17:00.66Z</time></trkpt><trkpt lat="43.7848883" lon="12.13736"><ele>756.2</ele><time>2026-04-30T14:17:01.65Z</time></trkpt><trkpt lat="43.7849767" lon="12.1372883"><ele>757.0</ele><time>2026-04-30T14:17:02.639Z</time></trkpt><trkpt lat="43.7850667" lon="12.137215"><ele>757.0</ele><time>2026-04-30T14:17:03.65Z</time></trkpt><trkpt lat="43.7851633" lon="12.1371533"><ele>757.0</ele><time>2026-04-30T14:17:04.645Z</time></trkpt><trkpt lat="43.7852517" lon="12.13709"><ele>757.0</ele><time>2026-04-30T14:17:05.647Z</time></trkpt><trkpt lat="43.7853433" lon="12.13703"><ele>757.0</ele><time>2026-04-30T14:17:06.653Z</time></trkpt><trkpt lat="43.78544" lon="12.1369717"><ele>757.0</ele><time>2026-04-30T14:17:07.642Z</time></trkpt><trkpt lat="43.78554" lon="12.1369183"><ele>755.8</ele><time>2026-04-30T14:17:08.646Z</time></trkpt><trkpt lat="43.7856433" lon="12.13688"><ele>754.6</ele><time>2026-04-30T14:17:09.66Z</time></trkpt><trkpt lat="43.7857483" lon="12.1368533"><ele>753.4</ele><time>2026-04-30T14:17:10.647Z</time></trkpt><trkpt lat="43.7858633" lon="12.1368383"><ele>752.1999999999999</ele><time>2026-04-30T14:17:11.649Z</time></trkpt><trkpt lat="43.7859817" lon="12.1368233"><ele>751.0</ele><time>2026-04-30T14:17:12.646Z</time></trkpt><trkpt lat="43.7861067" lon="12.1368117"><ele>748.5</ele><time>2026-04-30T14:17:13.64Z</time></trkpt><trkpt lat="43.7862383" lon="12.1368"><ele>746.0</ele><time>2026-04-30T14:17:14.648Z</time></trkpt><trkpt lat="43.7863717" lon="12.1367917"><ele>743.5</ele><time>2026-04-30T14:17:15.647Z</time></trkpt><trkpt lat="43.7865067" lon="12.1367717"><ele>741.0</ele><time>2026-04-30T14:17:16.651Z</time></trkpt><trkpt lat="43.78664" lon="12.1367467"><ele>741.0</ele><time>2026-04-30T14:17:17.653Z</time></trkpt><trkpt lat="43.7867683" lon="12.1367167"><ele>741.0</ele><time>2026-04-30T14:17:18.646Z</time></trkpt><trkpt lat="43.7868967" lon="12.1366783"><ele>741.0</ele><time>2026-04-30T14:17:19.652Z</time></trkpt><trkpt lat="43.7870217" lon="12.1366367"><ele>741.0</ele><time>2026-04-30T14:17:20.65Z</time></trkpt><trkpt lat="43.7871483" lon="12.1365933"><ele>740.0</ele><time>2026-04-30T14:17:21.65Z</time></trkpt><trkpt lat="43.7872833" lon="12.1365583"><ele>739.0</ele><time>2026-04-30T14:17:22.645Z</time></trkpt><trkpt lat="43.7874217" lon="12.136545"><ele>738.0</ele><time>2026-04-30T14:17:23.645Z</time></trkpt><trkpt lat="43.78756" lon="12.136545"><ele>737.0</ele><time>2026-04-30T14:17:24.643Z</time></trkpt><trkpt lat="43.78769" lon="12.1365517"><ele>737.5</ele><time>2026-04-30T14:17:25.651Z</time></trkpt><trkpt lat="43.7878117" lon="12.1365533"><ele>738.0</ele><time>2026-04-30T14:17:26.649Z</time></trkpt><trkpt lat="43.7879267" lon="12.1365517"><ele>738.5</ele><time>2026-04-30T14:17:27.645Z</time></trkpt><trkpt lat="43.7880383" lon="12.1365517"><ele>739.0</ele><time>2026-04-30T14:17:28.647Z</time></trkpt><trkpt lat="43.7881417" lon="12.13657"><ele>739.0</ele><time>2026-04-30T14:17:29.648Z</time></trkpt><trkpt lat="43.7882317" lon="12.1366133"><ele>739.0</ele><time>2026-04-30T14:17:30.652Z</time></trkpt><trkpt lat="43.7883083" lon="12.1366833"><ele>739.0</ele><time>2026-04-30T14:17:31.648Z</time></trkpt><trkpt lat="43.7883667" lon="12.1367917"><ele>739.0</ele><time>2026-04-30T14:17:32.642Z</time></trkpt><trkpt lat="43.7884067" lon="12.1369217"><ele>739.0</ele><time>2026-04-30T14:17:33.644Z</time></trkpt><trkpt lat="43.788415" lon="12.13707"><ele>739.0</ele><time>2026-04-30T14:17:34.649Z</time></trkpt><trkpt lat="43.7884017" lon="12.1372233"><ele>739.0</ele><time>2026-04-30T14:17:35.647Z</time></trkpt><trkpt lat="43.78837" lon="12.1373867"><ele>739.0</ele><time>2026-04-30T14:17:36.642Z</time></trkpt><trkpt lat="43.7883283" lon="12.13756"><ele>739.0</ele><time>2026-04-30T14:17:37.641Z</time></trkpt><trkpt lat="43.788285" lon="12.13774"><ele>737.75</ele><time>2026-04-30T14:17:38.642Z</time></trkpt><trkpt lat="43.788245" lon="12.1379217"><ele>736.5</ele><time>2026-04-30T14:17:39.65Z</time></trkpt><trkpt lat="43.7882167" lon="12.1381017"><ele>735.25</ele><time>2026-04-30T14:17:40.646Z</time></trkpt><trkpt lat="43.7881967" lon="12.138275"><ele>734.0</ele><time>2026-04-30T14:17:41.649Z</time></trkpt><trkpt lat="43.7881683" lon="12.1384467"><ele>734.0</ele><time>2026-04-30T14:17:42.652Z</time></trkpt><trkpt lat="43.78812" lon="12.1386133"><ele>734.0</ele><time>2026-04-30T14:17:43.655Z</time></trkpt><trkpt lat="43.7880583" lon="12.138775"><ele>734.0</ele><time>2026-04-30T14:17:44.653Z</time></trkpt><trkpt lat="43.787985" lon="12.1389367"><ele>734.0</ele><time>2026-04-30T14:17:45.642Z</time></trkpt><trkpt lat="43.78791" lon="12.1391"><ele>734.5</ele><time>2026-04-30T14:17:46.645Z</time></trkpt><trkpt lat="43.7878383" lon="12.13927"><ele>735.0</ele><time>2026-04-30T14:17:47.642Z</time></trkpt><trkpt lat="43.7877717" lon="12.1394517"><ele>735.5</ele><time>2026-04-30T14:17:48.647Z</time></trkpt><trkpt lat="43.7877117" lon="12.1396333"><ele>736.0</ele><time>2026-04-30T14:17:49.644Z</time></trkpt><trkpt lat="43.7876533" lon="12.139805"><ele>732.1999999999999</ele><time>2026-04-30T14:17:50.647Z</time></trkpt><trkpt lat="43.7876017" lon="12.1399633"><ele>728.4</ele><time>2026-04-30T14:17:51.647Z</time></trkpt><trkpt lat="43.7875633" lon="12.14011"><ele>724.6</ele><time>2026-04-30T14:17:52.647Z</time></trkpt><trkpt lat="43.7875433" lon="12.14024"><ele>720.8</ele><time>2026-04-30T14:17:53.65Z</time></trkpt><trkpt lat="43.7875433" lon="12.1403567"><ele>717.0</ele><time>2026-04-30T14:17:54.649Z</time></trkpt><trkpt lat="43.7875783" lon="12.1404617"><ele>717.0</ele><time>2026-04-30T14:17:55.651Z</time></trkpt><trkpt lat="43.7876533" lon="12.140545"><ele>717.0</ele><time>2026-04-30T14:17:56.647Z</time></trkpt><trkpt lat="43.7877633" lon="12.1406217"><ele>717.0</ele><time>2026-04-30T14:17:57.643Z</time></trkpt><trkpt lat="43.7878733" lon="12.1407133"><ele>717.0</ele><time>2026-04-30T14:17:58.644Z</time></trkpt><trkpt lat="43.7879683" lon="12.140825"><ele>717.0</ele><time>2026-04-30T14:17:59.646Z</time></trkpt><trkpt lat="43.7880417" lon="12.140955"><ele>717.0</ele><time>2026-04-30T14:18:00.65Z</time></trkpt><trkpt lat="43.7880967" lon="12.1410933"><ele>717.0</ele><time>2026-04-30T14:18:01.65Z</time></trkpt><trkpt lat="43.788135" lon="12.141245"><ele>717.0</ele><time>2026-04-30T14:18:02.643Z</time></trkpt><trkpt lat="43.7881733" lon="12.1413883"><ele>717.0</ele><time>2026-04-30T14:18:03.649Z</time></trkpt><trkpt lat="43.7882367" lon="12.1415033"><ele>717.0</ele><time>2026-04-30T14:18:04.644Z</time></trkpt><trkpt lat="43.788315" lon="12.1415717"><ele>717.0</ele><time>2026-04-30T14:18:05.646Z</time></trkpt><trkpt lat="43.7883983" lon="12.1416167"><ele>717.0</ele><time>2026-04-30T14:18:06.648Z</time></trkpt><trkpt lat="43.7884883" lon="12.141645"><ele>717.0</ele><time>2026-04-30T14:18:07.648Z</time></trkpt><trkpt lat="43.78861" lon="12.1416067"><ele>720.25</ele><time>2026-04-30T14:18:08.643Z</time></trkpt><trkpt lat="43.7887433" lon="12.14156"><ele>723.5</ele><time>2026-04-30T14:18:09.654Z</time></trkpt><trkpt lat="43.7888733" lon="12.1415217"><ele>726.75</ele><time>2026-04-30T14:18:10.656Z</time></trkpt><trkpt lat="43.78901" lon="12.1414867"><ele>730.0</ele><time>2026-04-30T14:18:11.649Z</time></trkpt><trkpt lat="43.789135" lon="12.1414683"><ele>730.0</ele><time>2026-04-30T14:18:12.654Z</time></trkpt><trkpt lat="43.7892483" lon="12.1414617"><ele>730.0</ele><time>2026-04-30T14:18:13.648Z</time></trkpt><trkpt lat="43.789355" lon="12.1414767"><ele>730.0</ele><time>2026-04-30T14:18:14.649Z</time></trkpt><trkpt lat="43.7894533" lon="12.1415183"><ele>730.0</ele><time>2026-04-30T14:18:15.645Z</time></trkpt><trkpt lat="43.7895483" lon="12.1415967"><ele>730.0</ele><time>2026-04-30T14:18:16.646Z</time></trkpt><trkpt lat="43.7896367" lon="12.1416967"><ele>725.4</ele><time>2026-04-30T14:18:17.658Z</time></trkpt><trkpt lat="43.7897183" lon="12.1418067"><ele>720.8</ele><time>2026-04-30T14:18:18.642Z</time></trkpt><trkpt lat="43.7897967" lon="12.1419167"><ele>716.2</ele><time>2026-04-30T14:18:19.643Z</time></trkpt><trkpt lat="43.789875" lon="12.1420067"><ele>711.6</ele><time>2026-04-30T14:18:20.645Z</time></trkpt><trkpt lat="43.78995" lon="12.1420733"><ele>707.0</ele><time>2026-04-30T14:18:21.651Z</time></trkpt><trkpt lat="43.79003" lon="12.1421"><ele>707.0</ele><time>2026-04-30T14:18:22.649Z</time></trkpt><trkpt lat="43.79013" lon="12.14209"><ele>707.0</ele><time>2026-04-30T14:18:23.644Z</time></trkpt><trkpt lat="43.7902467" lon="12.14205"><ele>707.0</ele><time>2026-04-30T14:18:24.645Z</time></trkpt><trkpt lat="43.79036" lon="12.14201"><ele>707.0</ele><time>2026-04-30T14:18:25.647Z</time></trkpt><trkpt lat="43.790475" lon="12.141965"><ele>704.75</ele><time>2026-04-30T14:18:26.648Z</time></trkpt><trkpt lat="43.7905917" lon="12.1419167"><ele>702.5</ele><time>2026-04-30T14:18:27.648Z</time></trkpt><trkpt lat="43.7907083" lon="12.141865"><ele>700.25</ele><time>2026-04-30T14:18:28.643Z</time></trkpt><trkpt lat="43.7908267" lon="12.1417933"><ele>698.0</ele><time>2026-04-30T14:18:29.649Z</time></trkpt><trkpt lat="43.7909383" lon="12.141705"><ele>696.25</ele><time>2026-04-30T14:18:30.659Z</time></trkpt><trkpt lat="43.7910433" lon="12.1416083"><ele>694.5</ele><time>2026-04-30T14:18:31.64Z</time></trkpt><trkpt lat="43.7911417" lon="12.1415067"><ele>692.75</ele><time>2026-04-30T14:18:32.641Z</time></trkpt><trkpt lat="43.7912333" lon="12.141415"><ele>691.0</ele><time>2026-04-30T14:18:33.644Z</time></trkpt><trkpt lat="43.7913217" lon="12.1413483"><ele>691.0</ele><time>2026-04-30T14:18:34.654Z</time></trkpt><trkpt lat="43.7914033" lon="12.141315"><ele>691.0</ele><time>2026-04-30T14:18:35.649Z</time></trkpt><trkpt lat="43.7914767" lon="12.1413183"><ele>691.0</ele><time>2026-04-30T14:18:36.658Z</time></trkpt><trkpt lat="43.7915317" lon="12.141365"><ele>691.0</ele><time>2026-04-30T14:18:37.647Z</time></trkpt><trkpt lat="43.7915717" lon="12.1414617"><ele>691.0</ele><time>2026-04-30T14:18:38.661Z</time></trkpt><trkpt lat="43.7915917" lon="12.1415867"><ele>691.0</ele><time>2026-04-30T14:18:39.647Z</time></trkpt><trkpt lat="43.7915917" lon="12.1417317"><ele>691.0</ele><time>2026-04-30T14:18:40.656Z</time></trkpt><trkpt lat="43.79155" lon="12.14188"><ele>691.0</ele><time>2026-04-30T14:18:41.651Z</time></trkpt><trkpt lat="43.7914983" lon="12.1420183"><ele>691.0</ele><time>2026-04-30T14:18:42.652Z</time></trkpt><trkpt lat="43.791455" lon="12.1421717"><ele>691.0</ele><time>2026-04-30T14:18:43.639Z</time></trkpt><trkpt lat="43.7914517" lon="12.1423667"><ele>689.6666666666667</ele><time>2026-04-30T14:18:44.645Z</time></trkpt><trkpt lat="43.7914733" lon="12.14258"><ele>688.3333333333334</ele><time>2026-04-30T14:18:45.654Z</time></trkpt><trkpt lat="43.791515" lon="12.142785"><ele>687.0</ele><time>2026-04-30T14:18:46.648Z</time></trkpt><trkpt lat="43.79156" lon="12.1429883"><ele>687.0</ele><time>2026-04-30T14:18:47.65Z</time></trkpt><trkpt lat="43.7916" lon="12.1431683"><ele>687.0</ele><time>2026-04-30T14:18:48.638Z</time></trkpt><trkpt lat="43.7916333" lon="12.1433167"><ele>687.0</ele><time>2026-04-30T14:18:49.649Z</time></trkpt><trkpt lat="43.7916433" lon="12.143445"><ele>687.0</ele><time>2026-04-30T14:18:50.645Z</time></trkpt><trkpt lat="43.7916333" lon="12.1435567"><ele>687.0</ele><time>2026-04-30T14:18:51.648Z</time></trkpt><trkpt lat="43.79159" lon="12.1436483"><ele>686.2</ele><time>2026-04-30T14:18:52.641Z</time></trkpt><trkpt lat="43.791495" lon="12.1436833"><ele>685.4000000000001</ele><time>2026-04-30T14:18:53.647Z</time></trkpt><trkpt lat="43.7913883" lon="12.143685"><ele>684.5999999999999</ele><time>2026-04-30T14:18:54.639Z</time></trkpt><trkpt lat="43.79128" lon="12.1436583"><ele>683.8</ele><time>2026-04-30T14:18:55.638Z</time></trkpt><trkpt lat="43.7911833" lon="12.1436417"><ele>683.0</ele><time>2026-04-30T14:18:56.64Z</time></trkpt><trkpt lat="43.7911033" lon="12.143665"><ele>683.0</ele><time>2026-04-30T14:18:57.644Z</time></trkpt><trkpt lat="43.791035" lon="12.143725"><ele>683.0</ele><time>2026-04-30T14:18:58.647Z</time></trkpt><trkpt lat="43.7910083" lon="12.1438267"><ele>683.0</ele><time>2026-04-30T14:18:59.646Z</time></trkpt><trkpt lat="43.791035" lon="12.143945"><ele>683.0</ele><time>2026-04-30T14:19:00.661Z</time></trkpt><trkpt lat="43.79108" lon="12.14406"><ele>683.0</ele><time>2026-04-30T14:19:01.65Z</time></trkpt><trkpt lat="43.791155" lon="12.144155"><ele>683.0</ele><time>2026-04-30T14:19:02.643Z</time></trkpt><trkpt lat="43.7912267" lon="12.1442467"><ele>681.5</ele><time>2026-04-30T14:19:03.649Z</time></trkpt><trkpt lat="43.7912833" lon="12.144355"><ele>680.0</ele><time>2026-04-30T14:19:04.649Z</time></trkpt><trkpt lat="43.7913" lon="12.14449"><ele>678.5</ele><time>2026-04-30T14:19:05.643Z</time></trkpt><trkpt lat="43.79129" lon="12.1445983"><ele>677.0</ele><time>2026-04-30T14:19:06.647Z</time></trkpt><trkpt lat="43.79122" lon="12.14464"><ele>675.5</ele><time>2026-04-30T14:19:07.642Z</time></trkpt><trkpt lat="43.7911317" lon="12.144615"><ele>674.0</ele><time>2026-04-30T14:19:08.649Z</time></trkpt><trkpt lat="43.791045" lon="12.14457"><ele>670.8333333333333</ele><time>2026-04-30T14:19:09.648Z</time></trkpt><trkpt lat="43.7909583" lon="12.144515"><ele>667.6666666666666</ele><time>2026-04-30T14:19:10.645Z</time></trkpt><trkpt lat="43.7908733" lon="12.1444767"><ele>664.5</ele><time>2026-04-30T14:19:11.658Z</time></trkpt><trkpt lat="43.7907917" lon="12.1444783"><ele>661.3333333333334</ele><time>2026-04-30T14:19:12.646Z</time></trkpt><trkpt lat="43.7907217" lon="12.14451"><ele>658.1666666666667</ele><time>2026-04-30T14:19:13.647Z</time></trkpt><trkpt lat="43.7906867" lon="12.14462"><ele>655.0</ele><time>2026-04-30T14:19:14.644Z</time></trkpt><trkpt lat="43.7906733" lon="12.1447317"><ele>655.0</ele><time>2026-04-30T14:19:15.658Z</time></trkpt><trkpt lat="43.7906833" lon="12.14484"><ele>655.0</ele><time>2026-04-30T14:19:16.648Z</time></trkpt><trkpt lat="43.7907717" lon="12.14493"><ele>655.0</ele><time>2026-04-30T14:19:17.65Z</time></trkpt><trkpt lat="43.79086" lon="12.1450067"><ele>655.0</ele><time>2026-04-30T14:19:18.64Z</time></trkpt><trkpt lat="43.7909433" lon="12.1451083"><ele>655.0</ele><time>2026-04-30T14:19:19.638Z</time></trkpt><trkpt lat="43.7910117" lon="12.145235"><ele>655.0</ele><time>2026-04-30T14:19:20.651Z</time></trkpt><trkpt lat="43.7910517" lon="12.14538"><ele>655.0</ele><time>2026-04-30T14:19:21.65Z</time></trkpt><trkpt lat="43.79107" lon="12.1455383"><ele>655.0</ele><time>2026-04-30T14:19:22.64Z</time></trkpt><trkpt lat="43.7910983" lon="12.1457"><ele>655.0</ele><time>2026-04-30T14:19:23.646Z</time></trkpt><trkpt lat="43.7911383" lon="12.1458567"><ele>655.0</ele><time>2026-04-30T14:19:24.647Z</time></trkpt><trkpt lat="43.7911833" lon="12.1460083"><ele>655.0</ele><time>2026-04-30T14:19:25.642Z</time></trkpt><trkpt lat="43.79121" lon="12.1461667"><ele>655.0</ele><time>2026-04-30T14:19:26.641Z</time></trkpt><trkpt lat="43.791215" lon="12.146335"><ele>655.0</ele><time>2026-04-30T14:19:27.644Z</time></trkpt><trkpt lat="43.7912017" lon="12.1465033"><ele>654.4</ele><time>2026-04-30T14:19:28.648Z</time></trkpt><trkpt lat="43.7911833" lon="12.146655"><ele>653.8</ele><time>2026-04-30T14:19:29.659Z</time></trkpt><trkpt lat="43.7911767" lon="12.1467967"><ele>653.2</ele><time>2026-04-30T14:19:30.642Z</time></trkpt><trkpt lat="43.79121" lon="12.1469283"><ele>652.6</ele><time>2026-04-30T14:19:31.645Z</time></trkpt><trkpt lat="43.791265" lon="12.1470633"><ele>652.0</ele><time>2026-04-30T14:19:32.651Z</time></trkpt><trkpt lat="43.79133" lon="12.1472"><ele>652.0</ele><time>2026-04-30T14:19:33.645Z</time></trkpt><trkpt lat="43.791385" lon="12.1473383"><ele>652.0</ele><time>2026-04-30T14:19:34.645Z</time></trkpt><trkpt lat="43.7914283" lon="12.14748"><ele>652.0</ele><time>2026-04-30T14:19:35.65Z</time></trkpt><trkpt lat="43.7914433" lon="12.1476267"><ele>652.0</ele><time>2026-04-30T14:19:36.649Z</time></trkpt><trkpt lat="43.7914367" lon="12.1477683"><ele>652.0</ele><time>2026-04-30T14:19:37.647Z</time></trkpt><trkpt lat="43.7914" lon="12.1478983"><ele>651.6</ele><time>2026-04-30T14:19:38.648Z</time></trkpt><trkpt lat="43.7913233" lon="12.1479917"><ele>651.2</ele><time>2026-04-30T14:19:39.651Z</time></trkpt><trkpt lat="43.7912417" lon="12.1480783"><ele>650.8</ele><time>2026-04-30T14:19:40.646Z</time></trkpt><trkpt lat="43.791165" lon="12.1481667"><ele>650.4</ele><time>2026-04-30T14:19:41.647Z</time></trkpt><trkpt lat="43.7911067" lon="12.1482733"><ele>650.0</ele><time>2026-04-30T14:19:42.644Z</time></trkpt><trkpt lat="43.791065" lon="12.148405"><ele>650.0</ele><time>2026-04-30T14:19:43.643Z</time></trkpt><trkpt lat="43.7910433" lon="12.1485517"><ele>650.0</ele><time>2026-04-30T14:19:44.639Z</time></trkpt><trkpt lat="43.7910367" lon="12.148705"><ele>650.0</ele><time>2026-04-30T14:19:45.647Z</time></trkpt><trkpt lat="43.791035" lon="12.1488633"><ele>650.0</ele><time>2026-04-30T14:19:46.643Z</time></trkpt><trkpt lat="43.79104" lon="12.1490083"><ele>650.0</ele><time>2026-04-30T14:19:47.642Z</time></trkpt><trkpt lat="43.7910617" lon="12.1491367"><ele>647.3333333333333</ele><time>2026-04-30T14:19:48.639Z</time></trkpt><trkpt lat="43.791095" lon="12.1492567"><ele>644.6666666666666</ele><time>2026-04-30T14:19:49.649Z</time></trkpt><trkpt lat="43.7911383" lon="12.1493533"><ele>642.0</ele><time>2026-04-30T14:19:50.653Z</time></trkpt><trkpt lat="43.7912" lon="12.1494183"><ele>639.3333333333334</ele><time>2026-04-30T14:19:51.642Z</time></trkpt><trkpt lat="43.7912783" lon="12.1494533"><ele>636.6666666666667</ele><time>2026-04-30T14:19:52.644Z</time></trkpt><trkpt lat="43.7913633" lon="12.14947"><ele>634.0</ele><time>2026-04-30T14:19:53.649Z</time></trkpt><trkpt lat="43.7914817" lon="12.1494433"><ele>634.0</ele><time>2026-04-30T14:19:54.644Z</time></trkpt><trkpt lat="43.7916" lon="12.1494233"><ele>634.0</ele><time>2026-04-30T14:19:55.645Z</time></trkpt><trkpt lat="43.7917117" lon="12.1494"><ele>634.0</ele><time>2026-04-30T14:19:56.651Z</time></trkpt><trkpt lat="43.7918233" lon="12.14937"><ele>634.0</ele><time>2026-04-30T14:19:57.643Z</time></trkpt><trkpt lat="43.7919367" lon="12.14933"><ele>632.6</ele><time>2026-04-30T14:19:58.649Z</time></trkpt><trkpt lat="43.79205" lon="12.1493033"><ele>631.2</ele><time>2026-04-30T14:19:59.645Z</time></trkpt><trkpt lat="43.792165" lon="12.1492933"><ele>629.8000000000001</ele><time>2026-04-30T14:20:00.654Z</time></trkpt><trkpt lat="43.7922717" lon="12.1493133"><ele>628.4</ele><time>2026-04-30T14:20:01.643Z</time></trkpt><trkpt lat="43.7923647" lon="12.1493538"><ele>627.0</ele><time>2026-04-30T14:20:02.651Z</time></trkpt><trkpt lat="43.7924371" lon="12.1494234"><ele>627.0</ele><time>2026-04-30T14:20:03.642Z</time></trkpt><trkpt lat="43.792488" lon="12.1495251"><ele>627.0</ele><time>2026-04-30T14:20:04.651Z</time></trkpt><trkpt lat="43.7925088" lon="12.1496431"><ele>627.0</ele><time>2026-04-30T14:20:05.646Z</time></trkpt><trkpt lat="43.7924833" lon="12.1497697"><ele>627.0</ele><time>2026-04-30T14:20:06.64Z</time></trkpt><trkpt lat="43.7924228" lon="12.149882"><ele>627.0</ele><time>2026-04-30T14:20:07.656Z</time></trkpt><trkpt lat="43.7923421" lon="12.1499677"><ele>626.8000000000001</ele><time>2026-04-30T14:20:08.638Z</time></trkpt><trkpt lat="43.7922525" lon="12.1500281"><ele>626.6</ele><time>2026-04-30T14:20:09.644Z</time></trkpt><trkpt lat="43.7921627" lon="12.1500803"><ele>626.4000000000001</ele><time>2026-04-30T14:20:10.647Z</time></trkpt><trkpt lat="43.792076" lon="12.1501421"><ele>626.2</ele><time>2026-04-30T14:20:11.649Z</time></trkpt><trkpt lat="43.7919962" lon="12.1502141"><ele>626.0</ele><time>2026-04-30T14:20:12.649Z</time></trkpt><trkpt lat="43.7919173" lon="12.1502917"><ele>626.0</ele><time>2026-04-30T14:20:13.652Z</time></trkpt><trkpt lat="43.791841" lon="12.150368"><ele>626.0</ele><time>2026-04-30T14:20:14.648Z</time></trkpt><trkpt lat="43.7917694" lon="12.1504442"><ele>626.0</ele><time>2026-04-30T14:20:15.644Z</time></trkpt><trkpt lat="43.7917043" lon="12.150521"><ele>626.0</ele><time>2026-04-30T14:20:16.644Z</time></trkpt><trkpt lat="43.7916461" lon="12.1506011"><ele>626.0</ele><time>2026-04-30T14:20:17.639Z</time></trkpt><trkpt lat="43.7915914" lon="12.150682"><ele>626.0</ele><time>2026-04-30T14:20:18.652Z</time></trkpt><trkpt lat="43.7915397" lon="12.150765"><ele>623.8333333333333</ele><time>2026-04-30T14:20:19.643Z</time></trkpt><trkpt lat="43.7914886" lon="12.1508483"><ele>621.6666666666666</ele><time>2026-04-30T14:20:20.641Z</time></trkpt><trkpt lat="43.7914346" lon="12.150936"><ele>619.5</ele><time>2026-04-30T14:20:21.652Z</time></trkpt><trkpt lat="43.7913848" lon="12.1510247"><ele>617.3333333333334</ele><time>2026-04-30T14:20:22.643Z</time></trkpt><trkpt lat="43.7913467" lon="12.1511155"><ele>615.1666666666667</ele><time>2026-04-30T14:20:23.643Z</time></trkpt><trkpt lat="43.7913399" lon="12.1512132"><ele>613.0</ele><time>2026-04-30T14:20:24.642Z</time></trkpt><trkpt lat="43.7913801" lon="12.1513198"><ele>613.0</ele><time>2026-04-30T14:20:25.645Z</time></trkpt><trkpt lat="43.7914523" lon="12.1514327"><ele>613.0</ele><time>2026-04-30T14:20:26.639Z</time></trkpt><trkpt lat="43.791532" lon="12.1515517"><ele>613.0</ele><time>2026-04-30T14:20:27.645Z</time></trkpt><trkpt lat="43.7916087" lon="12.1516724"><ele>613.0</ele><time>2026-04-30T14:20:28.65Z</time></trkpt><trkpt lat="43.791681" lon="12.1517921"><ele>609.75</ele><time>2026-04-30T14:20:29.648Z</time></trkpt><trkpt lat="43.791763" lon="12.1519036"><ele>606.5</ele><time>2026-04-30T14:20:30.639Z</time></trkpt><trkpt lat="43.7918597" lon="12.1520092"><ele>603.25</ele><time>2026-04-30T14:20:31.649Z</time></trkpt><trkpt lat="43.791966" lon="12.1521004"><ele>600.0</ele><time>2026-04-30T14:20:32.644Z</time></trkpt><trkpt lat="43.7920713" lon="12.1521909"><ele>601.6</ele><time>2026-04-30T14:20:33.658Z</time></trkpt><trkpt lat="43.7921624" lon="12.1522868"><ele>603.2</ele><time>2026-04-30T14:20:34.64Z</time></trkpt><trkpt lat="43.7922326" lon="12.1523868"><ele>604.8</ele><time>2026-04-30T14:20:35.647Z</time></trkpt><trkpt lat="43.7922793" lon="12.1525012"><ele>606.4</ele><time>2026-04-30T14:20:36.645Z</time></trkpt><trkpt lat="43.7923016" lon="12.1526331"><ele>608.0</ele><time>2026-04-30T14:20:37.639Z</time></trkpt><trkpt lat="43.7923002" lon="12.1527811"><ele>608.0</ele><time>2026-04-30T14:20:38.642Z</time></trkpt><trkpt lat="43.7922878" lon="12.152937"><ele>608.0</ele><time>2026-04-30T14:20:39.672Z</time></trkpt><trkpt lat="43.7922782" lon="12.1530894"><ele>608.0</ele><time>2026-04-30T14:20:40.64Z</time></trkpt><trkpt lat="43.792276" lon="12.153234"><ele>608.0</ele><time>2026-04-30T14:20:41.65Z</time></trkpt><trkpt lat="43.7922905" lon="12.1533544"><ele>608.0</ele><time>2026-04-30T14:20:42.644Z</time></trkpt><trkpt lat="43.7923101" lon="12.1534578"><ele>604.8</ele><time>2026-04-30T14:20:43.642Z</time></trkpt><trkpt lat="43.7923203" lon="12.1535461"><ele>601.5999999999999</ele><time>2026-04-30T14:20:44.646Z</time></trkpt><trkpt lat="43.7922744" lon="12.1536919"><ele>598.4000000000001</ele><time>2026-04-30T14:20:46.641Z</time></trkpt><trkpt lat="43.7922177" lon="12.1537311"><ele>595.2</ele><time>2026-04-30T14:20:47.649Z</time></trkpt><trkpt lat="43.7921109" lon="12.1536982"><ele>592.0</ele><time>2026-04-30T14:20:49.64Z</time></trkpt><trkpt lat="43.7920798" lon="12.1535183"><ele>592.0</ele><time>2026-04-30T14:20:51.648Z</time></trkpt><trkpt lat="43.7920993" lon="12.1533707"><ele>592.0</ele><time>2026-04-30T14:20:52.648Z</time></trkpt><trkpt lat="43.7921105" lon="12.1532093"><ele>592.0</ele><time>2026-04-30T14:20:53.644Z</time></trkpt><trkpt lat="43.7921035" lon="12.1530461"><ele>592.0</ele><time>2026-04-30T14:20:54.639Z</time></trkpt><trkpt lat="43.7920846" lon="12.1528868"><ele>593.6</ele><time>2026-04-30T14:20:55.641Z</time></trkpt><trkpt lat="43.7920581" lon="12.1527359"><ele>595.2</ele><time>2026-04-30T14:20:56.647Z</time></trkpt><trkpt lat="43.7920217" lon="12.1525956"><ele>596.8</ele><time>2026-04-30T14:20:57.642Z</time></trkpt><trkpt lat="43.7919611" lon="12.1524722"><ele>598.4</ele><time>2026-04-30T14:20:58.641Z</time></trkpt><trkpt lat="43.7918812" lon="12.1523516"><ele>600.0</ele><time>2026-04-30T14:20:59.648Z</time></trkpt><trkpt lat="43.791789" lon="12.1522356"><ele>600.0</ele><time>2026-04-30T14:21:00.645Z</time></trkpt><trkpt lat="43.7916884" lon="12.152122"><ele>600.0</ele><time>2026-04-30T14:21:01.65Z</time></trkpt><trkpt lat="43.7915871" lon="12.1520122"><ele>600.0</ele><time>2026-04-30T14:21:02.645Z</time></trkpt><trkpt lat="43.7914843" lon="12.1519083"><ele>600.0</ele><time>2026-04-30T14:21:03.652Z</time></trkpt><trkpt lat="43.7913804" lon="12.1518168"><ele>600.0</ele><time>2026-04-30T14:21:04.646Z</time></trkpt><trkpt lat="43.7912666" lon="12.1517419"><ele>600.0</ele><time>2026-04-30T14:21:05.654Z</time></trkpt><trkpt lat="43.7911459" lon="12.1516891"><ele>600.0</ele><time>2026-04-30T14:21:06.649Z</time></trkpt><trkpt lat="43.7910252" lon="12.1516524"><ele>600.0</ele><time>2026-04-30T14:21:07.645Z</time></trkpt><trkpt lat="43.7909115" lon="12.1516196"><ele>597.0</ele><time>2026-04-30T14:21:08.643Z</time></trkpt><trkpt lat="43.7908103" lon="12.1515806"><ele>594.0</ele><time>2026-04-30T14:21:09.644Z</time></trkpt><trkpt lat="43.7907247" lon="12.1515421"><ele>591.0</ele><time>2026-04-30T14:21:10.645Z</time></trkpt><trkpt lat="43.7906491" lon="12.1515188"><ele>588.0</ele><time>2026-04-30T14:21:11.64Z</time></trkpt><trkpt lat="43.7905826" lon="12.1515243"><ele>585.0</ele><time>2026-04-30T14:21:12.649Z</time></trkpt><trkpt lat="43.7905579" lon="12.1516841"><ele>583.4</ele><time>2026-04-30T14:21:14.643Z</time></trkpt><trkpt lat="43.7906066" lon="12.1517598"><ele>581.8</ele><time>2026-04-30T14:21:15.64Z</time></trkpt><trkpt lat="43.7906886" lon="12.1518063"><ele>580.2</ele><time>2026-04-30T14:21:16.641Z</time></trkpt><trkpt lat="43.7908011" lon="12.1518367"><ele>578.6</ele><time>2026-04-30T14:21:17.649Z</time></trkpt><trkpt lat="43.790928" lon="12.1518718"><ele>577.0</ele><time>2026-04-30T14:21:18.659Z</time></trkpt><trkpt lat="43.791048" lon="12.1519153"><ele>582.75</ele><time>2026-04-30T14:21:19.642Z</time></trkpt><trkpt lat="43.7911599" lon="12.1519709"><ele>588.5</ele><time>2026-04-30T14:21:20.645Z</time></trkpt><trkpt lat="43.7912601" lon="12.1520451"><ele>594.25</ele><time>2026-04-30T14:21:21.642Z</time></trkpt><trkpt lat="43.7913435" lon="12.1521538"><ele>600.0</ele><time>2026-04-30T14:21:22.646Z</time></trkpt><trkpt lat="43.7914078" lon="12.1522962"><ele>596.0</ele><time>2026-04-30T14:21:23.642Z</time></trkpt><trkpt lat="43.7914547" lon="12.152465"><ele>592.0</ele><time>2026-04-30T14:21:24.64Z</time></trkpt><trkpt lat="43.7914862" lon="12.1526454"><ele>588.0</ele><time>2026-04-30T14:21:25.646Z</time></trkpt><trkpt lat="43.7915142" lon="12.1528207"><ele>584.0</ele><time>2026-04-30T14:21:26.652Z</time></trkpt><trkpt lat="43.791544" lon="12.1529764"><ele>584.0</ele><time>2026-04-30T14:21:27.641Z</time></trkpt><trkpt lat="43.7915694" lon="12.1531206"><ele>584.0</ele><time>2026-04-30T14:21:28.652Z</time></trkpt><trkpt lat="43.7915883" lon="12.1532551"><ele>584.0</ele><time>2026-04-30T14:21:29.64Z</time></trkpt><trkpt lat="43.7915966" lon="12.1533865"><ele>584.0</ele><time>2026-04-30T14:21:30.645Z</time></trkpt><trkpt lat="43.7915849" lon="12.153505"><ele>584.0</ele><time>2026-04-30T14:21:31.653Z</time></trkpt><trkpt lat="43.7915453" lon="12.1536029"><ele>582.8</ele><time>2026-04-30T14:21:32.641Z</time></trkpt><trkpt lat="43.7914852" lon="12.1536782"><ele>581.5999999999999</ele><time>2026-04-30T14:21:33.651Z</time></trkpt><trkpt lat="43.791404" lon="12.1536996"><ele>580.4</ele><time>2026-04-30T14:21:34.644Z</time></trkpt><trkpt lat="43.7913131" lon="12.1536559"><ele>579.1999999999999</ele><time>2026-04-30T14:21:35.654Z</time></trkpt><trkpt lat="43.7912316" lon="12.1535634"><ele>578.0</ele><time>2026-04-30T14:21:36.654Z</time></trkpt><trkpt lat="43.7911701" lon="12.1534229"><ele>578.0</ele><time>2026-04-30T14:21:37.642Z</time></trkpt><trkpt lat="43.7911213" lon="12.153268"><ele>578.0</ele><time>2026-04-30T14:21:38.645Z</time></trkpt><trkpt lat="43.7910736" lon="12.1531273"><ele>578.0</ele><time>2026-04-30T14:21:39.654Z</time></trkpt><trkpt lat="43.7910163" lon="12.1530115"><ele>578.0</ele><time>2026-04-30T14:21:40.644Z</time></trkpt><trkpt lat="43.7909448" lon="12.1529269"><ele>578.0</ele><time>2026-04-30T14:21:41.648Z</time></trkpt><trkpt lat="43.7908557" lon="12.1528897"><ele>574.1999999999999</ele><time>2026-04-30T14:21:42.644Z</time></trkpt><trkpt lat="43.7907574" lon="12.1529017"><ele>570.4</ele><time>2026-04-30T14:21:43.643Z</time></trkpt><trkpt lat="43.7906699" lon="12.1529604"><ele>566.5999999999999</ele><time>2026-04-30T14:21:44.645Z</time></trkpt><trkpt lat="43.7906011" lon="12.1530787"><ele>562.8</ele><time>2026-04-30T14:21:45.652Z</time></trkpt><trkpt lat="43.7905551" lon="12.153241"><ele>559.0</ele><time>2026-04-30T14:21:46.647Z</time></trkpt><trkpt lat="43.790522" lon="12.1534274"><ele>559.75</ele><time>2026-04-30T14:21:47.645Z</time></trkpt><trkpt lat="43.7904851" lon="12.1536167"><ele>560.5</ele><time>2026-04-30T14:21:48.642Z</time></trkpt><trkpt lat="43.7904365" lon="12.1537999"><ele>561.25</ele><time>2026-04-30T14:21:49.653Z</time></trkpt><trkpt lat="43.7903773" lon="12.1539677"><ele>562.0</ele><time>2026-04-30T14:21:50.646Z</time></trkpt><trkpt lat="43.7903145" lon="12.1541331"><ele>562.0</ele><time>2026-04-30T14:21:51.65Z</time></trkpt><trkpt lat="43.7902552" lon="12.1543011"><ele>562.0</ele><time>2026-04-30T14:21:52.655Z</time></trkpt><trkpt lat="43.7902083" lon="12.1544748"><ele>562.0</ele><time>2026-04-30T14:21:53.649Z</time></trkpt><trkpt lat="43.790175" lon="12.154657"><ele>562.0</ele><time>2026-04-30T14:21:54.65Z</time></trkpt><trkpt lat="43.7901536" lon="12.1548406"><ele>557.0</ele><time>2026-04-30T14:21:55.644Z</time></trkpt><trkpt lat="43.7901393" lon="12.1550282"><ele>552.0</ele><time>2026-04-30T14:21:56.652Z</time></trkpt><trkpt lat="43.7901241" lon="12.1552195"><ele>547.0</ele><time>2026-04-30T14:21:57.652Z</time></trkpt><trkpt lat="43.7901032" lon="12.1554128"><ele>542.0</ele><time>2026-04-30T14:21:58.647Z</time></trkpt><trkpt lat="43.790085" lon="12.155607"><ele>541.25</ele><time>2026-04-30T14:21:59.653Z</time></trkpt><trkpt lat="43.790068" lon="12.1557984"><ele>540.5</ele><time>2026-04-30T14:22:00.643Z</time></trkpt><trkpt lat="43.7900503" lon="12.155985"><ele>539.75</ele><time>2026-04-30T14:22:01.643Z</time></trkpt><trkpt lat="43.7900335" lon="12.1561657"><ele>539.0</ele><time>2026-04-30T14:22:02.646Z</time></trkpt><trkpt lat="43.7900169" lon="12.1563411"><ele>539.0</ele><time>2026-04-30T14:22:03.65Z</time></trkpt><trkpt lat="43.7899961" lon="12.1565122"><ele>539.0</ele><time>2026-04-30T14:22:04.639Z</time></trkpt><trkpt lat="43.7899685" lon="12.1566813"><ele>539.0</ele><time>2026-04-30T14:22:05.647Z</time></trkpt><trkpt lat="43.7899268" lon="12.1568433"><ele>539.0</ele><time>2026-04-30T14:22:06.643Z</time></trkpt><trkpt lat="43.7898736" lon="12.1570061"><ele>539.25</ele><time>2026-04-30T14:22:07.651Z</time></trkpt><trkpt lat="43.7898161" lon="12.1571661"><ele>539.5</ele><time>2026-04-30T14:22:08.645Z</time></trkpt><trkpt lat="43.7897555" lon="12.1573253"><ele>539.75</ele><time>2026-04-30T14:22:09.645Z</time></trkpt><trkpt lat="43.7896973" lon="12.1574862"><ele>540.0</ele><time>2026-04-30T14:22:10.644Z</time></trkpt><trkpt lat="43.78964" lon="12.1576489"><ele>540.0</ele><time>2026-04-30T14:22:11.643Z</time></trkpt><trkpt lat="43.7895778" lon="12.1578164"><ele>540.0</ele><time>2026-04-30T14:22:12.639Z</time></trkpt><trkpt lat="43.7895097" lon="12.1579885"><ele>540.0</ele><time>2026-04-30T14:22:13.656Z</time></trkpt><trkpt lat="43.7894436" lon="12.1581571"><ele>540.0</ele><time>2026-04-30T14:22:14.656Z</time></trkpt><trkpt lat="43.7893842" lon="12.1583177"><ele>540.25</ele><time>2026-04-30T14:22:15.644Z</time></trkpt><trkpt lat="43.7893358" lon="12.1584738"><ele>540.5</ele><time>2026-04-30T14:22:16.645Z</time></trkpt><trkpt lat="43.7893137" lon="12.1586313"><ele>540.75</ele><time>2026-04-30T14:22:17.649Z</time></trkpt><trkpt lat="43.7893341" lon="12.1587845"><ele>541.0</ele><time>2026-04-30T14:22:18.643Z</time></trkpt><trkpt lat="43.7893893" lon="12.1589362"><ele>542.75</ele><time>2026-04-30T14:22:19.644Z</time></trkpt><trkpt lat="43.789461" lon="12.1590862"><ele>544.5</ele><time>2026-04-30T14:22:20.645Z</time></trkpt><trkpt lat="43.7895423" lon="12.1592417"><ele>546.25</ele><time>2026-04-30T14:22:21.646Z</time></trkpt><trkpt lat="43.7896215" lon="12.1593966"><ele>548.0</ele><time>2026-04-30T14:22:22.651Z</time></trkpt><trkpt lat="43.7896899" lon="12.1595331"><ele>548.0</ele><time>2026-04-30T14:22:23.646Z</time></trkpt><trkpt lat="43.7897456" lon="12.1596399"><ele>548.0</ele><time>2026-04-30T14:22:24.643Z</time></trkpt><trkpt lat="43.7897904" lon="12.1597241"><ele>548.0</ele><time>2026-04-30T14:22:25.648Z</time></trkpt><trkpt lat="43.7898486" lon="12.1598501"><ele>548.0</ele><time>2026-04-30T14:22:27.649Z</time></trkpt><trkpt lat="43.7899043" lon="12.1599605"><ele>548.0</ele><time>2026-04-30T14:22:29.645Z</time></trkpt><trkpt lat="43.7899907" lon="12.1601081"><ele>549.1666666666666</ele><time>2026-04-30T14:22:31.642Z</time></trkpt><trkpt lat="43.790043" lon="12.1601955"><ele>550.3333333333333</ele><time>2026-04-30T14:22:32.651Z</time></trkpt><trkpt lat="43.790093" lon="12.160284"><ele>551.5</ele><time>2026-04-30T14:22:33.643Z</time></trkpt><trkpt lat="43.7901347" lon="12.1603724"><ele>552.6666666666666</ele><time>2026-04-30T14:22:34.645Z</time></trkpt><trkpt lat="43.7901697" lon="12.1604539"><ele>553.8333333333334</ele><time>2026-04-30T14:22:35.648Z</time></trkpt><trkpt lat="43.7902288" lon="12.1605961"><ele>555.0</ele><time>2026-04-30T14:22:37.649Z</time></trkpt><trkpt lat="43.790287" lon="12.1607195"><ele>555.0</ele><time>2026-04-30T14:22:39.658Z</time></trkpt><trkpt lat="43.7903357" lon="12.1608403"><ele>555.0</ele><time>2026-04-30T14:22:41.644Z</time></trkpt><trkpt lat="43.7903829" lon="12.1609524"><ele>555.0</ele><time>2026-04-30T14:22:43.643Z</time></trkpt><trkpt lat="43.7904367" lon="12.1610183"><ele>555.0</ele><time>2026-04-30T14:22:45.641Z</time></trkpt><trkpt lat="43.7905083" lon="12.161"><ele>555.0</ele><time>2026-04-30T14:22:48.653Z</time></trkpt><trkpt lat="43.7905367" lon="12.160885"><ele>555.0</ele><time>2026-04-30T14:22:51.648Z</time></trkpt><trkpt lat="43.7905467" lon="12.160795"><ele>555.0</ele><time>2026-04-30T14:22:53.651Z</time></trkpt><trkpt lat="43.7904767" lon="12.160815"><ele>555.0</ele><time>2026-04-30T14:25:50.645Z</time></trkpt><trkpt lat="43.790475" lon="12.1609733"><ele>555.0</ele><time>2026-04-30T14:30:40.65Z</time></trkpt><trkpt lat="43.7904483" lon="12.1608817"><ele>555.0</ele><time>2026-04-30T14:35:57.653Z</time></trkpt><trkpt lat="43.7903867" lon="12.1608433"><ele>555.0</ele><time>2026-04-30T14:36:01.663Z</time></trkpt><trkpt lat="43.7903183" lon="12.16079"><ele>555.0</ele><time>2026-04-30T14:36:18.652Z</time></trkpt><trkpt lat="43.7902683" lon="12.1606833"><ele>555.25</ele><time>2026-04-30T14:36:20.653Z</time></trkpt><trkpt lat="43.7902117" lon="12.1605467"><ele>555.5</ele><time>2026-04-30T14:36:22.653Z</time></trkpt><trkpt lat="43.79015" lon="12.1604"><ele>555.75</ele><time>2026-04-30T14:36:24.649Z</time></trkpt><trkpt lat="43.790095" lon="12.1602583"><ele>556.0</ele><time>2026-04-30T14:36:26.65Z</time></trkpt><trkpt lat="43.790035" lon="12.1601317"><ele>556.0</ele><time>2026-04-30T14:36:28.648Z</time></trkpt><trkpt lat="43.7899583" lon="12.1599867"><ele>556.0</ele><time>2026-04-30T14:36:30.647Z</time></trkpt><trkpt lat="43.789915" lon="12.1599067"><ele>556.0</ele><time>2026-04-30T14:36:31.645Z</time></trkpt><trkpt lat="43.789875" lon="12.159825"><ele>556.0</ele><time>2026-04-30T14:36:32.645Z</time></trkpt><trkpt lat="43.78984" lon="12.15975"><ele>556.0</ele><time>2026-04-30T14:36:33.641Z</time></trkpt><trkpt lat="43.7897983" lon="12.159625"><ele>556.0</ele><time>2026-04-30T14:36:35.648Z</time></trkpt><trkpt lat="43.78983" lon="12.15952"><ele>554.4</ele><time>2026-04-30T14:36:37.641Z</time></trkpt><trkpt lat="43.7899267" lon="12.1594367"><ele>552.8</ele><time>2026-04-30T14:36:39.647Z</time></trkpt><trkpt lat="43.7900267" lon="12.159375"><ele>551.1999999999999</ele><time>2026-04-30T14:36:41.643Z</time></trkpt><trkpt lat="43.790135" lon="12.159355"><ele>549.6</ele><time>2026-04-30T14:36:43.644Z</time></trkpt><trkpt lat="43.7902033" lon="12.1593717"><ele>548.0</ele><time>2026-04-30T14:36:44.646Z</time></trkpt><trkpt lat="43.7902667" lon="12.15941"><ele>547.6666666666666</ele><time>2026-04-30T14:36:45.652Z</time></trkpt><trkpt lat="43.7903267" lon="12.1594667"><ele>547.3333333333333</ele><time>2026-04-30T14:36:46.646Z</time></trkpt><trkpt lat="43.7903783" lon="12.1595283"><ele>547.0</ele><time>2026-04-30T14:36:47.647Z</time></trkpt><trkpt lat="43.7904267" lon="12.1595867"><ele>546.6666666666666</ele><time>2026-04-30T14:36:48.644Z</time></trkpt><trkpt lat="43.79051" lon="12.1597033"><ele>546.3333333333334</ele><time>2026-04-30T14:36:50.645Z</time></trkpt><trkpt lat="43.79056" lon="12.159765"><ele>546.0</ele><time>2026-04-30T14:36:51.653Z</time></trkpt><trkpt lat="43.7906083" lon="12.1598367"><ele>548.2</ele><time>2026-04-30T14:36:52.647Z</time></trkpt><trkpt lat="43.7906533" lon="12.15991"><ele>550.4000000000001</ele><time>2026-04-30T14:36:53.662Z</time></trkpt><trkpt lat="43.7906917" lon="12.1599833"><ele>552.6</ele><time>2026-04-30T14:36:54.649Z</time></trkpt><trkpt lat="43.7907417" lon="12.1601283"><ele>554.8000000000001</ele><time>2026-04-30T14:36:56.643Z</time></trkpt><trkpt lat="43.7907883" lon="12.1602717"><ele>557.0</ele><time>2026-04-30T14:36:58.644Z</time></trkpt><trkpt lat="43.7908267" lon="12.1604083"><ele>557.0</ele><time>2026-04-30T14:37:00.647Z</time></trkpt><trkpt lat="43.7908483" lon="12.1605567"><ele>557.0</ele><time>2026-04-30T14:37:02.64Z</time></trkpt><trkpt lat="43.790825" lon="12.16069"><ele>557.0</ele><time>2026-04-30T14:37:04.651Z</time></trkpt><trkpt lat="43.7907383" lon="12.1608067"><ele>557.0</ele><time>2026-04-30T14:37:06.645Z</time></trkpt><trkpt lat="43.7906817" lon="12.16086"><ele>557.0</ele><time>2026-04-30T14:37:07.651Z</time></trkpt><trkpt lat="43.790575" lon="12.160945"><ele>556.6666666666666</ele><time>2026-04-30T14:37:09.652Z</time></trkpt><trkpt lat="43.79049" lon="12.1609967"><ele>556.3333333333333</ele><time>2026-04-30T14:37:11.64Z</time></trkpt><trkpt lat="43.7904133" lon="12.1610383"><ele>556.0</ele><time>2026-04-30T14:37:14.649Z</time></trkpt><trkpt lat="43.79032" lon="12.1610833"><ele>555.6666666666666</ele><time>2026-04-30T14:37:16.64Z</time></trkpt><trkpt lat="43.7902517" lon="12.1611183"><ele>555.3333333333334</ele><time>2026-04-30T14:37:17.642Z</time></trkpt><trkpt lat="43.79017" lon="12.1611583"><ele>555.0</ele><time>2026-04-30T14:37:18.656Z</time></trkpt><trkpt lat="43.79009" lon="12.1612033"><ele>556.5</ele><time>2026-04-30T14:37:19.649Z</time></trkpt><trkpt lat="43.79001" lon="12.1612383"><ele>558.0</ele><time>2026-04-30T14:37:20.653Z</time></trkpt><trkpt lat="43.7899317" lon="12.1612717"><ele>559.5</ele><time>2026-04-30T14:37:21.652Z</time></trkpt><trkpt lat="43.7898517" lon="12.1613033"><ele>561.0</ele><time>2026-04-30T14:37:22.649Z</time></trkpt><trkpt lat="43.7897733" lon="12.16134"><ele>562.5</ele><time>2026-04-30T14:37:23.661Z</time></trkpt><trkpt lat="43.7896983" lon="12.161375"><ele>564.0</ele><time>2026-04-30T14:37:24.654Z</time></trkpt><trkpt lat="43.789625" lon="12.1614117"><ele>564.0</ele><time>2026-04-30T14:37:25.64Z</time></trkpt><trkpt lat="43.789555" lon="12.1614517"><ele>564.0</ele><time>2026-04-30T14:37:26.642Z</time></trkpt><trkpt lat="43.78949" lon="12.161515"><ele>564.0</ele><time>2026-04-30T14:37:27.65Z</time></trkpt><trkpt lat="43.7894367" lon="12.16158"><ele>564.0</ele><time>2026-04-30T14:37:28.657Z</time></trkpt><trkpt lat="43.7894" lon="12.161655"><ele>564.0</ele><time>2026-04-30T14:37:29.65Z</time></trkpt><trkpt lat="43.7893767" lon="12.1617367"><ele>564.0</ele><time>2026-04-30T14:37:30.644Z</time></trkpt><trkpt lat="43.7894" lon="12.16189"><ele>564.1666666666666</ele><time>2026-04-30T14:37:32.646Z</time></trkpt><trkpt lat="43.7894917" lon="12.1620033"><ele>564.3333333333334</ele><time>2026-04-30T14:37:34.652Z</time></trkpt><trkpt lat="43.78958" lon="12.1620467"><ele>564.5</ele><time>2026-04-30T14:37:35.647Z</time></trkpt><trkpt lat="43.7896533" lon="12.1621017"><ele>564.6666666666667</ele><time>2026-04-30T14:37:36.649Z</time></trkpt><trkpt lat="43.78971" lon="12.1621733"><ele>564.8333333333334</ele><time>2026-04-30T14:37:37.643Z</time></trkpt><trkpt lat="43.7897417" lon="12.1622583"><ele>565.0</ele><time>2026-04-30T14:37:38.654Z</time></trkpt><trkpt lat="43.78976" lon="12.1623483"><ele>566.1428571428571</ele><time>2026-04-30T14:37:39.648Z</time></trkpt><trkpt lat="43.78978" lon="12.1624383"><ele>567.2857142857142</ele><time>2026-04-30T14:37:40.648Z</time></trkpt><trkpt lat="43.7898033" lon="12.16253"><ele>568.4285714285714</ele><time>2026-04-30T14:37:41.643Z</time></trkpt><trkpt lat="43.7898283" lon="12.16262"><ele>569.5714285714286</ele><time>2026-04-30T14:37:42.645Z</time></trkpt><trkpt lat="43.7898483" lon="12.16271"><ele>570.7142857142858</ele><time>2026-04-30T14:37:43.641Z</time></trkpt><trkpt lat="43.7898717" lon="12.1627967"><ele>571.8571428571429</ele><time>2026-04-30T14:37:44.65Z</time></trkpt><trkpt lat="43.7899033" lon="12.1628767"><ele>573.0</ele><time>2026-04-30T14:37:45.645Z</time></trkpt><trkpt lat="43.7899483" lon="12.1629483"><ele>573.0</ele><time>2026-04-30T14:37:46.645Z</time></trkpt><trkpt lat="43.7899983" lon="12.1630083"><ele>573.0</ele><time>2026-04-30T14:37:47.648Z</time></trkpt><trkpt lat="43.790055" lon="12.16305"><ele>573.0</ele><time>2026-04-30T14:37:48.648Z</time></trkpt><trkpt lat="43.7901133" lon="12.1630917"><ele>573.0</ele><time>2026-04-30T14:37:49.645Z</time></trkpt><trkpt lat="43.7901617" lon="12.1631533"><ele>573.0</ele><time>2026-04-30T14:37:50.644Z</time></trkpt><trkpt lat="43.7901867" lon="12.1633217"><ele>573.0</ele><time>2026-04-30T14:37:52.648Z</time></trkpt><trkpt lat="43.790155" lon="12.1634033"><ele>575.6666666666666</ele><time>2026-04-30T14:37:53.652Z</time></trkpt><trkpt lat="43.79011" lon="12.1634717"><ele>578.3333333333334</ele><time>2026-04-30T14:37:54.645Z</time></trkpt><trkpt lat="43.79004" lon="12.16361"><ele>581.0</ele><time>2026-04-30T14:37:56.641Z</time></trkpt><trkpt lat="43.7900117" lon="12.163695"><ele>583.6666666666667</ele><time>2026-04-30T14:37:57.644Z</time></trkpt><trkpt lat="43.7899883" lon="12.1637833"><ele>586.3333333333334</ele><time>2026-04-30T14:37:58.659Z</time></trkpt><trkpt lat="43.7899717" lon="12.1638733"><ele>589.0</ele><time>2026-04-30T14:37:59.649Z</time></trkpt><trkpt lat="43.789965" lon="12.1639617"><ele>590.3333333333334</ele><time>2026-04-30T14:38:00.645Z</time></trkpt><trkpt lat="43.78997" lon="12.164055"><ele>591.6666666666667</ele><time>2026-04-30T14:38:01.647Z</time></trkpt><trkpt lat="43.7899783" lon="12.1641433"><ele>593.0</ele><time>2026-04-30T14:38:02.645Z</time></trkpt><trkpt lat="43.7899833" lon="12.1642317"><ele>594.3333333333334</ele><time>2026-04-30T14:38:03.651Z</time></trkpt><trkpt lat="43.7899933" lon="12.1643183"><ele>595.6666666666666</ele><time>2026-04-30T14:38:04.652Z</time></trkpt><trkpt lat="43.7900167" lon="12.164405"><ele>597.0</ele><time>2026-04-30T14:38:05.648Z</time></trkpt><trkpt lat="43.7901" lon="12.1645317"><ele>593.1666666666666</ele><time>2026-04-30T14:38:07.645Z</time></trkpt><trkpt lat="43.7902217" lon="12.164575"><ele>589.3333333333334</ele><time>2026-04-30T14:38:09.65Z</time></trkpt><trkpt lat="43.7902883" lon="12.16459"><ele>585.5</ele><time>2026-04-30T14:38:10.641Z</time></trkpt><trkpt lat="43.7903517" lon="12.1646033"><ele>581.6666666666667</ele><time>2026-04-30T14:38:11.647Z</time></trkpt><trkpt lat="43.7904167" lon="12.1646133"><ele>577.8333333333334</ele><time>2026-04-30T14:38:12.639Z</time></trkpt><trkpt lat="43.7904817" lon="12.1646267"><ele>574.0</ele><time>2026-04-30T14:38:13.645Z</time></trkpt><trkpt lat="43.7906033" lon="12.1646717"><ele>574.0</ele><time>2026-04-30T14:38:15.647Z</time></trkpt><trkpt lat="43.7907083" lon="12.16476"><ele>574.0</ele><time>2026-04-30T14:38:17.644Z</time></trkpt><trkpt lat="43.7907533" lon="12.164825"><ele>574.0</ele><time>2026-04-30T14:38:18.643Z</time></trkpt><trkpt lat="43.7907967" lon="12.1649"><ele>574.0</ele><time>2026-04-30T14:38:19.647Z</time></trkpt><trkpt lat="43.79084" lon="12.1649833"><ele>574.0</ele><time>2026-04-30T14:38:20.654Z</time></trkpt><trkpt lat="43.7908833" lon="12.16507"><ele>574.0</ele><time>2026-04-30T14:38:21.64Z</time></trkpt><trkpt lat="43.790925" lon="12.165165"><ele>578.3333333333334</ele><time>2026-04-30T14:38:22.652Z</time></trkpt><trkpt lat="43.7909583" lon="12.1652633"><ele>582.6666666666667</ele><time>2026-04-30T14:38:23.656Z</time></trkpt><trkpt lat="43.790985" lon="12.1653667"><ele>587.0</ele><time>2026-04-30T14:38:24.642Z</time></trkpt><trkpt lat="43.791" lon="12.16548"><ele>591.3333333333334</ele><time>2026-04-30T14:38:25.64Z</time></trkpt><trkpt lat="43.791" lon="12.1656033"><ele>595.6666666666666</ele><time>2026-04-30T14:38:26.639Z</time></trkpt><trkpt lat="43.7909917" lon="12.1657333"><ele>600.0</ele><time>2026-04-30T14:38:27.648Z</time></trkpt><trkpt lat="43.790965" lon="12.1658583"><ele>602.2</ele><time>2026-04-30T14:38:28.645Z</time></trkpt><trkpt lat="43.79092" lon="12.1659733"><ele>604.4</ele><time>2026-04-30T14:38:29.643Z</time></trkpt><trkpt lat="43.7908567" lon="12.1660767"><ele>606.6</ele><time>2026-04-30T14:38:30.648Z</time></trkpt><trkpt lat="43.79079" lon="12.1661783"><ele>608.8</ele><time>2026-04-30T14:38:31.644Z</time></trkpt><trkpt lat="43.79073" lon="12.1662883"><ele>611.0</ele><time>2026-04-30T14:38:32.645Z</time></trkpt><trkpt lat="43.79069" lon="12.16641"><ele>611.5</ele><time>2026-04-30T14:38:33.648Z</time></trkpt><trkpt lat="43.79068" lon="12.1665383"><ele>612.0</ele><time>2026-04-30T14:38:34.642Z</time></trkpt><trkpt lat="43.7906833" lon="12.16666"><ele>612.5</ele><time>2026-04-30T14:38:35.644Z</time></trkpt><trkpt lat="43.7906717" lon="12.16677"><ele>613.0</ele><time>2026-04-30T14:38:36.647Z</time></trkpt><trkpt lat="43.790645" lon="12.1668733"><ele>613.5</ele><time>2026-04-30T14:38:37.658Z</time></trkpt><trkpt lat="43.7905917" lon="12.1669483"><ele>614.0</ele><time>2026-04-30T14:38:38.652Z</time></trkpt><trkpt lat="43.7905167" lon="12.166995"><ele>614.0</ele><time>2026-04-30T14:38:39.643Z</time></trkpt><trkpt lat="43.790425" lon="12.1670183"><ele>614.0</ele><time>2026-04-30T14:38:40.649Z</time></trkpt><trkpt lat="43.79032" lon="12.167015"><ele>614.0</ele><time>2026-04-30T14:38:41.649Z</time></trkpt><trkpt lat="43.790215" lon="12.1669967"><ele>614.0</ele><time>2026-04-30T14:38:42.659Z</time></trkpt><trkpt lat="43.7901117" lon="12.1669517"><ele>614.0</ele><time>2026-04-30T14:38:43.639Z</time></trkpt><trkpt lat="43.7900117" lon="12.1668883"><ele>617.2</ele><time>2026-04-30T14:38:44.646Z</time></trkpt><trkpt lat="43.7899233" lon="12.16681"><ele>620.4</ele><time>2026-04-30T14:38:45.657Z</time></trkpt><trkpt lat="43.78985" lon="12.1667117"><ele>623.6</ele><time>2026-04-30T14:38:46.639Z</time></trkpt><trkpt lat="43.7897917" lon="12.1665983"><ele>626.8</ele><time>2026-04-30T14:38:47.647Z</time></trkpt><trkpt lat="43.7897433" lon="12.1664733"><ele>630.0</ele><time>2026-04-30T14:38:48.64Z</time></trkpt><trkpt lat="43.789695" lon="12.1663517"><ele>631.4</ele><time>2026-04-30T14:38:49.639Z</time></trkpt><trkpt lat="43.7896417" lon="12.1662267"><ele>632.8</ele><time>2026-04-30T14:38:50.649Z</time></trkpt><trkpt lat="43.78958" lon="12.166105"><ele>634.2</ele><time>2026-04-30T14:38:51.646Z</time></trkpt><trkpt lat="43.7895117" lon="12.1659867"><ele>635.6</ele><time>2026-04-30T14:38:52.64Z</time></trkpt><trkpt lat="43.7894367" lon="12.1658767"><ele>637.0</ele><time>2026-04-30T14:38:53.639Z</time></trkpt><trkpt lat="43.78936" lon="12.1657867"><ele>637.4</ele><time>2026-04-30T14:38:54.644Z</time></trkpt><trkpt lat="43.7892783" lon="12.165715"><ele>637.8000000000001</ele><time>2026-04-30T14:38:55.652Z</time></trkpt><trkpt lat="43.7891833" lon="12.1656683"><ele>638.2</ele><time>2026-04-30T14:38:56.642Z</time></trkpt><trkpt lat="43.7890767" lon="12.165645"><ele>638.6</ele><time>2026-04-30T14:38:57.652Z</time></trkpt><trkpt lat="43.7889583" lon="12.1656467"><ele>639.0</ele><time>2026-04-30T14:38:58.662Z</time></trkpt><trkpt lat="43.7888367" lon="12.1656617"><ele>639.0</ele><time>2026-04-30T14:38:59.645Z</time></trkpt><trkpt lat="43.7887117" lon="12.1656817"><ele>639.0</ele><time>2026-04-30T14:39:00.642Z</time></trkpt><trkpt lat="43.7885917" lon="12.1657083"><ele>639.0</ele><time>2026-04-30T14:39:01.645Z</time></trkpt><trkpt lat="43.78847" lon="12.1657483"><ele>639.0</ele><time>2026-04-30T14:39:02.646Z</time></trkpt><trkpt lat="43.788345" lon="12.1657917"><ele>641.0</ele><time>2026-04-30T14:39:03.653Z</time></trkpt><trkpt lat="43.7882183" lon="12.1658433"><ele>643.0</ele><time>2026-04-30T14:39:04.64Z</time></trkpt><trkpt lat="43.7881017" lon="12.1659033"><ele>645.0</ele><time>2026-04-30T14:39:05.646Z</time></trkpt><trkpt lat="43.7879883" lon="12.16597"><ele>647.0</ele><time>2026-04-30T14:39:06.646Z</time></trkpt><trkpt lat="43.7878817" lon="12.166025"><ele>647.0</ele><time>2026-04-30T14:39:07.647Z</time></trkpt><trkpt lat="43.78777" lon="12.1660517"><ele>647.0</ele><time>2026-04-30T14:39:08.643Z</time></trkpt><trkpt lat="43.787655" lon="12.1660517"><ele>647.0</ele><time>2026-04-30T14:39:09.641Z</time></trkpt><trkpt lat="43.78754" lon="12.1660433"><ele>647.0</ele><time>2026-04-30T14:39:10.649Z</time></trkpt><trkpt lat="43.78743" lon="12.1660517"><ele>650.2</ele><time>2026-04-30T14:39:11.644Z</time></trkpt><trkpt lat="43.7873283" lon="12.16608"><ele>653.4000000000001</ele><time>2026-04-30T14:39:12.652Z</time></trkpt><trkpt lat="43.787245" lon="12.166145"><ele>656.5999999999999</ele><time>2026-04-30T14:39:13.657Z</time></trkpt><trkpt lat="43.7871783" lon="12.1662417"><ele>659.8</ele><time>2026-04-30T14:39:14.647Z</time></trkpt><trkpt lat="43.7871233" lon="12.1663667"><ele>663.0</ele><time>2026-04-30T14:39:15.644Z</time></trkpt><trkpt lat="43.7870733" lon="12.1665017"><ele>659.0</ele><time>2026-04-30T14:39:16.647Z</time></trkpt><trkpt lat="43.7870183" lon="12.1666417"><ele>655.0</ele><time>2026-04-30T14:39:17.641Z</time></trkpt><trkpt lat="43.7869583" lon="12.1667883"><ele>651.0</ele><time>2026-04-30T14:39:18.646Z</time></trkpt><trkpt lat="43.786895" lon="12.16694"><ele>647.0</ele><time>2026-04-30T14:39:19.649Z</time></trkpt><trkpt lat="43.7868333" lon="12.1670933"><ele>651.0</ele><time>2026-04-30T14:39:20.65Z</time></trkpt><trkpt lat="43.7867667" lon="12.16723"><ele>655.0</ele><time>2026-04-30T14:39:21.649Z</time></trkpt><trkpt lat="43.786695" lon="12.1673433"><ele>659.0</ele><time>2026-04-30T14:39:22.646Z</time></trkpt><trkpt lat="43.7866217" lon="12.1674383"><ele>663.0</ele><time>2026-04-30T14:39:23.64Z</time></trkpt><trkpt lat="43.786545" lon="12.1675217"><ele>667.0</ele><time>2026-04-30T14:39:24.642Z</time></trkpt><trkpt lat="43.786465" lon="12.1675983"><ele>667.0</ele><time>2026-04-30T14:39:25.645Z</time></trkpt><trkpt lat="43.7863783" lon="12.16768"><ele>667.0</ele><time>2026-04-30T14:39:26.648Z</time></trkpt><trkpt lat="43.78629" lon="12.1677733"><ele>667.0</ele><time>2026-04-30T14:39:27.652Z</time></trkpt><trkpt lat="43.7862033" lon="12.167865"><ele>667.0</ele><time>2026-04-30T14:39:28.642Z</time></trkpt><trkpt lat="43.7861233" lon="12.167965"><ele>667.0</ele><time>2026-04-30T14:39:29.641Z</time></trkpt><trkpt lat="43.7860383" lon="12.1680517"><ele>668.6</ele><time>2026-04-30T14:39:30.656Z</time></trkpt><trkpt lat="43.78595" lon="12.1681283"><ele>670.2</ele><time>2026-04-30T14:39:31.65Z</time></trkpt><trkpt lat="43.7858633" lon="12.1681883"><ele>671.8</ele><time>2026-04-30T14:39:32.645Z</time></trkpt><trkpt lat="43.7857817" lon="12.1682183"><ele>673.4</ele><time>2026-04-30T14:39:33.64Z</time></trkpt><trkpt lat="43.7856983" lon="12.1682133"><ele>675.0</ele><time>2026-04-30T14:39:34.643Z</time></trkpt><trkpt lat="43.7856083" lon="12.1681817"><ele>682.2</ele><time>2026-04-30T14:39:35.646Z</time></trkpt><trkpt lat="43.78552" lon="12.1681483"><ele>689.4</ele><time>2026-04-30T14:39:36.657Z</time></trkpt><trkpt lat="43.7854333" lon="12.168115"><ele>696.5999999999999</ele><time>2026-04-30T14:39:37.644Z</time></trkpt><trkpt lat="43.7853467" lon="12.168085"><ele>703.8</ele><time>2026-04-30T14:39:38.645Z</time></trkpt><trkpt lat="43.7852533" lon="12.1680467"><ele>711.0</ele><time>2026-04-30T14:39:39.645Z</time></trkpt><trkpt lat="43.78515" lon="12.1680233"><ele>711.5999999999999</ele><time>2026-04-30T14:39:40.641Z</time></trkpt><trkpt lat="43.7850433" lon="12.168005"><ele>712.2</ele><time>2026-04-30T14:39:41.638Z</time></trkpt><trkpt lat="43.7849467" lon="12.167995"><ele>712.8</ele><time>2026-04-30T14:39:42.642Z</time></trkpt><trkpt lat="43.78486" lon="12.167985"><ele>713.4000000000001</ele><time>2026-04-30T14:39:43.646Z</time></trkpt><trkpt lat="43.7847767" lon="12.1679683"><ele>714.0</ele><time>2026-04-30T14:39:44.643Z</time></trkpt><trkpt lat="43.7846967" lon="12.1679417"><ele>714.0</ele><time>2026-04-30T14:39:45.644Z</time></trkpt><trkpt lat="43.78462" lon="12.1679017"><ele>714.0</ele><time>2026-04-30T14:39:46.644Z</time></trkpt><trkpt lat="43.7845417" lon="12.16784"><ele>714.0</ele><time>2026-04-30T14:39:47.656Z</time></trkpt><trkpt lat="43.7844683" lon="12.1677567"><ele>714.0</ele><time>2026-04-30T14:39:48.639Z</time></trkpt><trkpt lat="43.784395" lon="12.167675"><ele>714.0</ele><time>2026-04-30T14:39:49.654Z</time></trkpt><trkpt lat="43.7843217" lon="12.167605"><ele>711.4000000000001</ele><time>2026-04-30T14:39:50.649Z</time></trkpt><trkpt lat="43.7842433" lon="12.1675583"><ele>708.8</ele><time>2026-04-30T14:39:51.647Z</time></trkpt><trkpt lat="43.7841583" lon="12.1675267"><ele>706.2</ele><time>2026-04-30T14:39:52.653Z</time></trkpt><trkpt lat="43.78406" lon="12.1675183"><ele>703.5999999999999</ele><time>2026-04-30T14:39:53.65Z</time></trkpt><trkpt lat="43.78396" lon="12.1675117"><ele>701.0</ele><time>2026-04-30T14:39:54.657Z</time></trkpt><trkpt lat="43.7838617" lon="12.167505"><ele>701.0</ele><time>2026-04-30T14:39:55.648Z</time></trkpt><trkpt lat="43.7837617" lon="12.1675133"><ele>701.0</ele><time>2026-04-30T14:39:56.642Z</time></trkpt><trkpt lat="43.78366" lon="12.1675417"><ele>701.0</ele><time>2026-04-30T14:39:57.647Z</time></trkpt><trkpt lat="43.78356" lon="12.167595"><ele>701.0</ele><time>2026-04-30T14:39:58.655Z</time></trkpt><trkpt lat="43.78346" lon="12.1676667"><ele>701.0</ele><time>2026-04-30T14:39:59.659Z</time></trkpt><trkpt lat="43.78336" lon="12.16773"><ele>702.1999999999999</ele><time>2026-04-30T14:40:00.644Z</time></trkpt><trkpt lat="43.78326" lon="12.167795"><ele>703.4</ele><time>2026-04-30T14:40:01.639Z</time></trkpt><trkpt lat="43.7831583" lon="12.167835"><ele>704.6</ele><time>2026-04-30T14:40:02.654Z</time></trkpt><trkpt lat="43.7830567" lon="12.1678567"><ele>705.8</ele><time>2026-04-30T14:40:03.649Z</time></trkpt><trkpt lat="43.7829533" lon="12.1678633"><ele>707.0</ele><time>2026-04-30T14:40:04.639Z</time></trkpt><trkpt lat="43.7828467" lon="12.1678583"><ele>707.0</ele><time>2026-04-30T14:40:05.642Z</time></trkpt><trkpt lat="43.78274" lon="12.167845"><ele>707.0</ele><time>2026-04-30T14:40:06.646Z</time></trkpt><trkpt lat="43.7826333" lon="12.167825"><ele>707.0</ele><time>2026-04-30T14:40:07.645Z</time></trkpt><trkpt lat="43.7825267" lon="12.1677967"><ele>707.0</ele><time>2026-04-30T14:40:08.65Z</time></trkpt><trkpt lat="43.7824233" lon="12.1677683"><ele>707.0</ele><time>2026-04-30T14:40:09.648Z</time></trkpt><trkpt lat="43.7823167" lon="12.1677233"><ele>709.4000000000001</ele><time>2026-04-30T14:40:10.645Z</time></trkpt><trkpt lat="43.7822133" lon="12.1676717"><ele>711.8000000000001</ele><time>2026-04-30T14:40:11.645Z</time></trkpt><trkpt lat="43.782115" lon="12.16763"><ele>714.2</ele><time>2026-04-30T14:40:12.639Z</time></trkpt><trkpt lat="43.7820167" lon="12.1676"><ele>716.6</ele><time>2026-04-30T14:40:13.655Z</time></trkpt><trkpt lat="43.7819267" lon="12.1675867"><ele>719.0</ele><time>2026-04-30T14:40:14.648Z</time></trkpt><trkpt lat="43.7818533" lon="12.1675783"><ele>719.0</ele><time>2026-04-30T14:40:15.64Z</time></trkpt><trkpt lat="43.78176" lon="12.167645"><ele>719.0</ele><time>2026-04-30T14:40:17.646Z</time></trkpt><trkpt lat="43.781775" lon="12.1677583"><ele>719.0</ele><time>2026-04-30T14:40:19.653Z</time></trkpt><trkpt lat="43.781875" lon="12.1678033"><ele>719.0</ele><time>2026-04-30T14:40:20.639Z</time></trkpt><trkpt lat="43.7820117" lon="12.1678617"><ele>719.0</ele><time>2026-04-30T14:40:21.646Z</time></trkpt><trkpt lat="43.7821117" lon="12.1679333"><ele>719.0</ele><time>2026-04-30T14:40:22.655Z</time></trkpt><trkpt lat="43.782215" lon="12.1680333"><ele>719.0</ele><time>2026-04-30T14:40:23.639Z</time></trkpt><trkpt lat="43.78233" lon="12.1681483"><ele>719.0</ele><time>2026-04-30T14:40:24.646Z</time></trkpt><trkpt lat="43.7824567" lon="12.1682467"><ele>719.0</ele><time>2026-04-30T14:40:25.649Z</time></trkpt><trkpt lat="43.78257" lon="12.16835"><ele>714.3333333333333</ele><time>2026-04-30T14:40:26.649Z</time></trkpt><trkpt lat="43.7826933" lon="12.1684517"><ele>709.6666666666666</ele><time>2026-04-30T14:40:27.645Z</time></trkpt><trkpt lat="43.7828333" lon="12.1685333"><ele>705.0</ele><time>2026-04-30T14:40:28.644Z</time></trkpt><trkpt lat="43.7829817" lon="12.1685933"><ele>705.0</ele><time>2026-04-30T14:40:29.648Z</time></trkpt><trkpt lat="43.7831317" lon="12.1686333"><ele>705.0</ele><time>2026-04-30T14:40:30.646Z</time></trkpt><trkpt lat="43.783275" lon="12.1686533"><ele>705.0</ele><time>2026-04-30T14:40:31.646Z</time></trkpt><trkpt lat="43.7834033" lon="12.1686667"><ele>705.0</ele><time>2026-04-30T14:40:32.647Z</time></trkpt><trkpt lat="43.7835133" lon="12.1686867"><ele>704.0</ele><time>2026-04-30T14:40:33.651Z</time></trkpt><trkpt lat="43.783595" lon="12.1687217"><ele>703.0</ele><time>2026-04-30T14:40:34.637Z</time></trkpt><trkpt lat="43.783655" lon="12.1687783"><ele>702.0</ele><time>2026-04-30T14:40:35.645Z</time></trkpt><trkpt lat="43.7836167" lon="12.1689533"><ele>701.0</ele><time>2026-04-30T14:40:37.64Z</time></trkpt><trkpt lat="43.7835517" lon="12.1690467"><ele>700.0</ele><time>2026-04-30T14:40:38.648Z</time></trkpt><trkpt lat="43.7834867" lon="12.16915"><ele>705.2</ele><time>2026-04-30T14:40:39.65Z</time></trkpt><trkpt lat="43.78343" lon="12.169265"><ele>710.4</ele><time>2026-04-30T14:40:40.643Z</time></trkpt><trkpt lat="43.7833867" lon="12.1693983"><ele>715.5999999999999</ele><time>2026-04-30T14:40:41.653Z</time></trkpt><trkpt lat="43.78336" lon="12.1695267"><ele>720.8</ele><time>2026-04-30T14:40:42.662Z</time></trkpt><trkpt lat="43.7833483" lon="12.169645"><ele>726.0</ele><time>2026-04-30T14:40:43.652Z</time></trkpt><trkpt lat="43.7833317" lon="12.1697583"><ele>725.4</ele><time>2026-04-30T14:40:44.646Z</time></trkpt><trkpt lat="43.7832917" lon="12.16987"><ele>724.8</ele><time>2026-04-30T14:40:45.639Z</time></trkpt><trkpt lat="43.7832333" lon="12.169975"><ele>724.1999999999999</ele><time>2026-04-30T14:40:46.648Z</time></trkpt><trkpt lat="43.7831617" lon="12.1700717"><ele>723.5999999999999</ele><time>2026-04-30T14:40:47.645Z</time></trkpt><trkpt lat="43.7830783" lon="12.17017"><ele>723.0</ele><time>2026-04-30T14:40:48.644Z</time></trkpt><trkpt lat="43.783005" lon="12.170285"><ele>723.0</ele><time>2026-04-30T14:40:49.646Z</time></trkpt><trkpt lat="43.7829367" lon="12.17041"><ele>723.0</ele><time>2026-04-30T14:40:50.666Z</time></trkpt><trkpt lat="43.78287" lon="12.170525"><ele>723.0</ele><time>2026-04-30T14:40:51.663Z</time></trkpt><trkpt lat="43.7827833" lon="12.1706133"><ele>723.0</ele><time>2026-04-30T14:40:52.649Z</time></trkpt><trkpt lat="43.7826967" lon="12.1706833"><ele>723.0</ele><time>2026-04-30T14:40:53.64Z</time></trkpt><trkpt lat="43.7826233" lon="12.1707433"><ele>728.4</ele><time>2026-04-30T14:40:54.648Z</time></trkpt><trkpt lat="43.7825667" lon="12.17081"><ele>733.8</ele><time>2026-04-30T14:40:55.647Z</time></trkpt><trkpt lat="43.782525" lon="12.17088"><ele>739.2</ele><time>2026-04-30T14:40:56.641Z</time></trkpt><trkpt lat="43.7825483" lon="12.171075"><ele>744.6</ele><time>2026-04-30T14:40:58.649Z</time></trkpt><trkpt lat="43.7826" lon="12.1711983"><ele>750.0</ele><time>2026-04-30T14:40:59.657Z</time></trkpt><trkpt lat="43.7826467" lon="12.1713233"><ele>750.0</ele><time>2026-04-30T14:41:00.652Z</time></trkpt><trkpt lat="43.78268" lon="12.1714567"><ele>750.0</ele><time>2026-04-30T14:41:01.643Z</time></trkpt><trkpt lat="43.7826983" lon="12.1715933"><ele>750.0</ele><time>2026-04-30T14:41:02.643Z</time></trkpt><trkpt lat="43.782725" lon="12.1717183"><ele>750.0</ele><time>2026-04-30T14:41:03.645Z</time></trkpt><trkpt lat="43.7827683" lon="12.1718233"><ele>750.0</ele><time>2026-04-30T14:41:04.647Z</time></trkpt><trkpt lat="43.782835" lon="12.1719083"><ele>747.25</ele><time>2026-04-30T14:41:05.64Z</time></trkpt><trkpt lat="43.7829283" lon="12.1719667"><ele>744.5</ele><time>2026-04-30T14:41:06.646Z</time></trkpt><trkpt lat="43.7830433" lon="12.1720017"><ele>741.75</ele><time>2026-04-30T14:41:07.649Z</time></trkpt><trkpt lat="43.7831517" lon="12.1720567"><ele>739.0</ele><time>2026-04-30T14:41:08.654Z</time></trkpt><trkpt lat="43.7832617" lon="12.1721283"><ele>739.0</ele><time>2026-04-30T14:41:09.653Z</time></trkpt><trkpt lat="43.7833583" lon="12.1722217"><ele>739.0</ele><time>2026-04-30T14:41:10.651Z</time></trkpt><trkpt lat="43.7834367" lon="12.1723233"><ele>739.0</ele><time>2026-04-30T14:41:11.652Z</time></trkpt><trkpt lat="43.7834933" lon="12.1724333"><ele>739.0</ele><time>2026-04-30T14:41:12.643Z</time></trkpt><trkpt lat="43.7835217" lon="12.172565"><ele>739.0</ele><time>2026-04-30T14:41:13.669Z</time></trkpt><trkpt lat="43.78354" lon="12.1727067"><ele>739.0</ele><time>2026-04-30T14:41:14.647Z</time></trkpt><trkpt lat="43.7835717" lon="12.1728383"><ele>739.0</ele><time>2026-04-30T14:41:15.651Z</time></trkpt><trkpt lat="43.78363" lon="12.172955"><ele>739.0</ele><time>2026-04-30T14:41:16.645Z</time></trkpt><trkpt lat="43.7837117" lon="12.1730533"><ele>739.0</ele><time>2026-04-30T14:41:17.646Z</time></trkpt><trkpt lat="43.7838067" lon="12.1731433"><ele>739.0</ele><time>2026-04-30T14:41:18.649Z</time></trkpt><trkpt lat="43.7839117" lon="12.1732283"><ele>741.8000000000001</ele><time>2026-04-30T14:41:19.651Z</time></trkpt><trkpt lat="43.78401" lon="12.1733167"><ele>744.6</ele><time>2026-04-30T14:41:20.653Z</time></trkpt><trkpt lat="43.7841133" lon="12.1733867"><ele>747.4</ele><time>2026-04-30T14:41:21.648Z</time></trkpt><trkpt lat="43.7842133" lon="12.1734467"><ele>750.2</ele><time>2026-04-30T14:41:22.651Z</time></trkpt><trkpt lat="43.78431" lon="12.1734983"><ele>753.0</ele><time>2026-04-30T14:41:23.641Z</time></trkpt><trkpt lat="43.7843933" lon="12.17354"><ele>753.0</ele><time>2026-04-30T14:41:24.649Z</time></trkpt><trkpt lat="43.7844517" lon="12.1735867"><ele>753.0</ele><time>2026-04-30T14:41:25.645Z</time></trkpt><trkpt lat="43.7844983" lon="12.173685"><ele>753.0</ele><time>2026-04-30T14:41:27.646Z</time></trkpt><trkpt lat="43.7844533" lon="12.17377"><ele>753.0</ele><time>2026-04-30T14:41:29.647Z</time></trkpt><trkpt lat="43.7843333" lon="12.173785"><ele>753.0</ele><time>2026-04-30T14:41:31.642Z</time></trkpt><trkpt lat="43.7842517" lon="12.1737583"><ele>753.0</ele><time>2026-04-30T14:41:32.648Z</time></trkpt><trkpt lat="43.78416" lon="12.17371"><ele>753.2</ele><time>2026-04-30T14:41:33.651Z</time></trkpt><trkpt lat="43.7840767" lon="12.1736467"><ele>753.4</ele><time>2026-04-30T14:41:34.646Z</time></trkpt><trkpt lat="43.78399" lon="12.1735833"><ele>753.6</ele><time>2026-04-30T14:41:35.664Z</time></trkpt><trkpt lat="43.78389" lon="12.1735183"><ele>753.8000000000001</ele><time>2026-04-30T14:41:36.65Z</time></trkpt><trkpt lat="43.7837783" lon="12.17345"><ele>754.0</ele><time>2026-04-30T14:41:37.643Z</time></trkpt><trkpt lat="43.7836617" lon="12.173375"><ele>754.0</ele><time>2026-04-30T14:41:38.652Z</time></trkpt><trkpt lat="43.7835533" lon="12.1732867"><ele>754.0</ele><time>2026-04-30T14:41:39.65Z</time></trkpt><trkpt lat="43.78346" lon="12.173185"><ele>754.0</ele><time>2026-04-30T14:41:40.65Z</time></trkpt><trkpt lat="43.78338" lon="12.17307"><ele>754.0</ele><time>2026-04-30T14:41:41.645Z</time></trkpt><trkpt lat="43.7833217" lon="12.1729467"><ele>755.0</ele><time>2026-04-30T14:41:42.644Z</time></trkpt><trkpt lat="43.7832767" lon="12.1728317"><ele>756.0</ele><time>2026-04-30T14:41:43.647Z</time></trkpt><trkpt lat="43.78323" lon="12.1727283"><ele>757.0</ele><time>2026-04-30T14:41:44.654Z</time></trkpt><trkpt lat="43.78317" lon="12.1726417"><ele>758.0</ele><time>2026-04-30T14:41:45.652Z</time></trkpt><trkpt lat="43.7830933" lon="12.1725717"><ele>759.0</ele><time>2026-04-30T14:41:46.65Z</time></trkpt><trkpt lat="43.783" lon="12.1725233"><ele>759.0</ele><time>2026-04-30T14:41:47.649Z</time></trkpt><trkpt lat="43.7829" lon="12.1724833"><ele>759.0</ele><time>2026-04-30T14:41:48.643Z</time></trkpt><trkpt lat="43.7827933" lon="12.1724467"><ele>759.0</ele><time>2026-04-30T14:41:49.648Z</time></trkpt><trkpt lat="43.7826817" lon="12.1724233"><ele>759.0</ele><time>2026-04-30T14:41:50.647Z</time></trkpt><trkpt lat="43.7825683" lon="12.1724033"><ele>759.0</ele><time>2026-04-30T14:41:51.647Z</time></trkpt><trkpt lat="43.7824533" lon="12.1723983"><ele>762.2</ele><time>2026-04-30T14:41:52.654Z</time></trkpt><trkpt lat="43.7823467" lon="12.1724067"><ele>765.4000000000001</ele><time>2026-04-30T14:41:53.64Z</time></trkpt><trkpt lat="43.782245" lon="12.1724233"><ele>768.6</ele><time>2026-04-30T14:41:54.648Z</time></trkpt><trkpt lat="43.7821467" lon="12.1724417"><ele>771.8</ele><time>2026-04-30T14:41:55.659Z</time></trkpt><trkpt lat="43.7820533" lon="12.1724533"><ele>775.0</ele><time>2026-04-30T14:41:56.646Z</time></trkpt><trkpt lat="43.7819667" lon="12.1724417"><ele>774.9999999999999</ele><time>2026-04-30T14:41:57.642Z</time></trkpt><trkpt lat="43.7818933" lon="12.1724017"><ele>775.0</ele><time>2026-04-30T14:41:58.649Z</time></trkpt><trkpt lat="43.7818267" lon="12.1723233"><ele>775.0</ele><time>2026-04-30T14:41:59.642Z</time></trkpt><trkpt lat="43.7817517" lon="12.1722567"><ele>775.0</ele><time>2026-04-30T14:42:00.642Z</time></trkpt><trkpt lat="43.7816717" lon="12.1722167"><ele>774.9999999999999</ele><time>2026-04-30T14:42:01.648Z</time></trkpt><trkpt lat="43.781585" lon="12.1721967"><ele>775.0</ele><time>2026-04-30T14:42:02.65Z</time></trkpt><trkpt lat="43.78149" lon="12.1722183"><ele>775.9999999999999</ele><time>2026-04-30T14:42:03.652Z</time></trkpt><trkpt lat="43.7814017" lon="12.1722467"><ele>777.0</ele><time>2026-04-30T14:42:04.651Z</time></trkpt><trkpt lat="43.781325" lon="12.1722617"><ele>778.0</ele><time>2026-04-30T14:42:05.65Z</time></trkpt><trkpt lat="43.781255" lon="12.1722383"><ele>779.0</ele><time>2026-04-30T14:42:06.641Z</time></trkpt><trkpt lat="43.781195" lon="12.17218"><ele>779.9999999999999</ele><time>2026-04-30T14:42:07.653Z</time></trkpt><trkpt lat="43.7811383" lon="12.172105"><ele>781.0</ele><time>2026-04-30T14:42:08.669Z</time></trkpt><trkpt lat="43.78108" lon="12.172025"><ele>780.9999999999999</ele><time>2026-04-30T14:42:09.653Z</time></trkpt><trkpt lat="43.78102" lon="12.17195"><ele>781.0</ele><time>2026-04-30T14:42:10.648Z</time></trkpt><trkpt lat="43.7809533" lon="12.17189"><ele>781.0</ele><time>2026-04-30T14:42:11.645Z</time></trkpt><trkpt lat="43.78089" lon="12.17184"><ele>781.0</ele><time>2026-04-30T14:42:12.639Z</time></trkpt><trkpt lat="43.7808217" lon="12.1718233"><ele>780.9999999999999</ele><time>2026-04-30T14:42:13.653Z</time></trkpt><trkpt lat="43.7807467" lon="12.17183"><ele>781.0</ele><time>2026-04-30T14:42:14.654Z</time></trkpt><trkpt lat="43.7806667" lon="12.1718767"><ele>783.8</ele><time>2026-04-30T14:42:15.661Z</time></trkpt><trkpt lat="43.7805867" lon="12.1719567"><ele>786.5999999999999</ele><time>2026-04-30T14:42:16.649Z</time></trkpt><trkpt lat="43.7805" lon="12.172015"><ele>789.4</ele><time>2026-04-30T14:42:17.641Z</time></trkpt><trkpt lat="43.7804067" lon="12.1720633"><ele>792.2</ele><time>2026-04-30T14:42:18.65Z</time></trkpt><trkpt lat="43.7803117" lon="12.1720983"><ele>795.0</ele><time>2026-04-30T14:42:19.646Z</time></trkpt><trkpt lat="43.7802167" lon="12.1721233"><ele>798.3333333333334</ele><time>2026-04-30T14:42:20.647Z</time></trkpt><trkpt lat="43.7801283" lon="12.1721383"><ele>801.6666666666667</ele><time>2026-04-30T14:42:21.65Z</time></trkpt><trkpt lat="43.780045" lon="12.1721533"><ele>805.0</ele><time>2026-04-30T14:42:22.647Z</time></trkpt><trkpt lat="43.7799667" lon="12.17217"><ele>808.3333333333334</ele><time>2026-04-30T14:42:23.656Z</time></trkpt><trkpt lat="43.7798883" lon="12.1721817"><ele>811.6666666666667</ele><time>2026-04-30T14:42:24.639Z</time></trkpt><trkpt lat="43.7798" lon="12.1721983"><ele>815.0</ele><time>2026-04-30T14:42:25.64Z</time></trkpt><trkpt lat="43.7797033" lon="12.1722083"><ele>815.0</ele><time>2026-04-30T14:42:26.646Z</time></trkpt><trkpt lat="43.7795933" lon="12.17222"><ele>815.0</ele><time>2026-04-30T14:42:27.648Z</time></trkpt><trkpt lat="43.77948" lon="12.172215"><ele>815.0</ele><time>2026-04-30T14:42:28.646Z</time></trkpt><trkpt lat="43.779365" lon="12.1722067"><ele>815.0</ele><time>2026-04-30T14:42:29.657Z</time></trkpt><trkpt lat="43.7792533" lon="12.172185"><ele>817.25</ele><time>2026-04-30T14:42:30.654Z</time></trkpt><trkpt lat="43.7791433" lon="12.1721583"><ele>819.5</ele><time>2026-04-30T14:42:31.644Z</time></trkpt><trkpt lat="43.7790317" lon="12.1721333"><ele>821.75</ele><time>2026-04-30T14:42:32.652Z</time></trkpt><trkpt lat="43.7789167" lon="12.1721083"><ele>824.0</ele><time>2026-04-30T14:42:33.644Z</time></trkpt><trkpt lat="43.7788067" lon="12.1720883"><ele>824.0</ele><time>2026-04-30T14:42:34.65Z</time></trkpt><trkpt lat="43.7786967" lon="12.1720583"><ele>824.0</ele><time>2026-04-30T14:42:35.648Z</time></trkpt><trkpt lat="43.7785817" lon="12.1720183"><ele>824.0</ele><time>2026-04-30T14:42:36.648Z</time></trkpt><trkpt lat="43.7784667" lon="12.1719617"><ele>824.0</ele><time>2026-04-30T14:42:37.652Z</time></trkpt><trkpt lat="43.7783617" lon="12.17189"><ele>823.6</ele><time>2026-04-30T14:42:38.648Z</time></trkpt><trkpt lat="43.7782633" lon="12.1718283"><ele>823.2</ele><time>2026-04-30T14:42:39.651Z</time></trkpt><trkpt lat="43.7781683" lon="12.171785"><ele>822.8000000000001</ele><time>2026-04-30T14:42:40.657Z</time></trkpt><trkpt lat="43.7780667" lon="12.1717867"><ele>822.4000000000001</ele><time>2026-04-30T14:42:41.64Z</time></trkpt><trkpt lat="43.7779683" lon="12.1718283"><ele>822.0</ele><time>2026-04-30T14:42:42.65Z</time></trkpt><trkpt lat="43.7778833" lon="12.171895"><ele>822.0</ele><time>2026-04-30T14:42:43.652Z</time></trkpt><trkpt lat="43.777805" lon="12.1719567"><ele>822.0</ele><time>2026-04-30T14:42:44.645Z</time></trkpt><trkpt lat="43.777725" lon="12.171995"><ele>822.0</ele><time>2026-04-30T14:42:45.655Z</time></trkpt><trkpt lat="43.777645" lon="12.1719967"><ele>822.0</ele><time>2026-04-30T14:42:46.65Z</time></trkpt><trkpt lat="43.7775583" lon="12.1719567"><ele>822.0</ele><time>2026-04-30T14:42:47.644Z</time></trkpt><trkpt lat="43.777465" lon="12.1719"><ele>822.0</ele><time>2026-04-30T14:42:48.644Z</time></trkpt><trkpt lat="43.7773717" lon="12.1718383"><ele>822.1666666666666</ele><time>2026-04-30T14:42:49.652Z</time></trkpt><trkpt lat="43.7772883" lon="12.1717733"><ele>822.3333333333333</ele><time>2026-04-30T14:42:50.661Z</time></trkpt><trkpt lat="43.7772117" lon="12.1717117"><ele>822.5</ele><time>2026-04-30T14:42:51.648Z</time></trkpt><trkpt lat="43.7771383" lon="12.171665"><ele>822.6666666666666</ele><time>2026-04-30T14:42:52.649Z</time></trkpt><trkpt lat="43.7770717" lon="12.1716467"><ele>822.8333333333333</ele><time>2026-04-30T14:42:53.643Z</time></trkpt><trkpt lat="43.7770067" lon="12.1716567"><ele>823.0</ele><time>2026-04-30T14:42:54.657Z</time></trkpt><trkpt lat="43.7769517" lon="12.1717033"><ele>822.9999999999999</ele><time>2026-04-30T14:42:55.654Z</time></trkpt><trkpt lat="43.776905" lon="12.1718867"><ele>823.0</ele><time>2026-04-30T14:42:57.653Z</time></trkpt><trkpt lat="43.7768967" lon="12.172005"><ele>823.0</ele><time>2026-04-30T14:42:58.656Z</time></trkpt><trkpt lat="43.7768833" lon="12.1721183"><ele>823.0</ele><time>2026-04-30T14:42:59.647Z</time></trkpt><trkpt lat="43.776855" lon="12.1722133"><ele>822.9999999999999</ele><time>2026-04-30T14:43:00.639Z</time></trkpt><trkpt lat="43.7768117" lon="12.1722767"><ele>823.0</ele><time>2026-04-30T14:43:01.648Z</time></trkpt><trkpt lat="43.7766917" lon="12.1723367"><ele>823.0</ele><time>2026-04-30T14:43:03.645Z</time></trkpt><trkpt lat="43.7766167" lon="12.1723317"><ele>823.0</ele><time>2026-04-30T14:43:04.647Z</time></trkpt><trkpt lat="43.7765283" lon="12.1723"><ele>823.0</ele><time>2026-04-30T14:43:05.649Z</time></trkpt><trkpt lat="43.7764333" lon="12.172255"><ele>823.0</ele><time>2026-04-30T14:43:06.648Z</time></trkpt><trkpt lat="43.77634" lon="12.1722033"><ele>823.0</ele><time>2026-04-30T14:43:07.646Z</time></trkpt><trkpt lat="43.7762433" lon="12.1721367"><ele>823.0</ele><time>2026-04-30T14:43:08.644Z</time></trkpt><trkpt lat="43.7761467" lon="12.1720667"><ele>823.0</ele><time>2026-04-30T14:43:09.647Z</time></trkpt><trkpt lat="43.77605" lon="12.1719883"><ele>823.0</ele><time>2026-04-30T14:43:10.651Z</time></trkpt><trkpt lat="43.7759533" lon="12.1719183"><ele>823.0</ele><time>2026-04-30T14:43:11.642Z</time></trkpt><trkpt lat="43.7758533" lon="12.17186"><ele>823.0</ele><time>2026-04-30T14:43:12.646Z</time></trkpt><trkpt lat="43.7757533" lon="12.1718183"><ele>821.2</ele><time>2026-04-30T14:43:13.651Z</time></trkpt><trkpt lat="43.775655" lon="12.1717783"><ele>819.4</ele><time>2026-04-30T14:43:14.643Z</time></trkpt><trkpt lat="43.775565" lon="12.171725"><ele>817.6</ele><time>2026-04-30T14:43:15.654Z</time></trkpt><trkpt lat="43.7754817" lon="12.1716533"><ele>815.8000000000001</ele><time>2026-04-30T14:43:16.65Z</time></trkpt><trkpt lat="43.7754167" lon="12.1715633"><ele>814.0</ele><time>2026-04-30T14:43:17.648Z</time></trkpt><trkpt lat="43.77535" lon="12.171485"><ele>811.9999999999999</ele><time>2026-04-30T14:43:18.654Z</time></trkpt><trkpt lat="43.7752783" lon="12.1714217"><ele>810.0</ele><time>2026-04-30T14:43:19.656Z</time></trkpt><trkpt lat="43.7752" lon="12.1713883"><ele>808.0</ele><time>2026-04-30T14:43:20.645Z</time></trkpt><trkpt lat="43.7751133" lon="12.1713983"><ele>806.0</ele><time>2026-04-30T14:43:21.646Z</time></trkpt><trkpt lat="43.7750283" lon="12.171405"><ele>803.9999999999999</ele><time>2026-04-30T14:43:22.643Z</time></trkpt><trkpt lat="43.7749533" lon="12.171395"><ele>802.0</ele><time>2026-04-30T14:43:23.641Z</time></trkpt><trkpt lat="43.7748867" lon="12.17136"><ele>801.9999999999999</ele><time>2026-04-30T14:43:24.644Z</time></trkpt><trkpt lat="43.7748333" lon="12.1713117"><ele>802.0</ele><time>2026-04-30T14:43:25.643Z</time></trkpt><trkpt lat="43.7747983" lon="12.17123"><ele>802.0</ele><time>2026-04-30T14:43:26.646Z</time></trkpt><trkpt lat="43.7747683" lon="12.171115"><ele>802.0</ele><time>2026-04-30T14:43:27.656Z</time></trkpt><trkpt lat="43.7747483" lon="12.1709867"><ele>801.9999999999999</ele><time>2026-04-30T14:43:28.647Z</time></trkpt><trkpt lat="43.77473" lon="12.1708583"><ele>802.0</ele><time>2026-04-30T14:43:29.645Z</time></trkpt><trkpt lat="43.7747217" lon="12.1707333"><ele>803.4999999999999</ele><time>2026-04-30T14:43:30.651Z</time></trkpt><trkpt lat="43.7747133" lon="12.17062"><ele>805.0</ele><time>2026-04-30T14:43:31.647Z</time></trkpt><trkpt lat="43.7746917" lon="12.170515"><ele>806.5</ele><time>2026-04-30T14:43:32.671Z</time></trkpt><trkpt lat="43.7746533" lon="12.1704033"><ele>808.0</ele><time>2026-04-30T14:43:33.642Z</time></trkpt><trkpt lat="43.7746067" lon="12.17029"><ele>809.4999999999999</ele><time>2026-04-30T14:43:34.65Z</time></trkpt><trkpt lat="43.7745633" lon="12.17017"><ele>811.0</ele><time>2026-04-30T14:43:35.651Z</time></trkpt><trkpt lat="43.7745267" lon="12.1700433"><ele>811.0</ele><time>2026-04-30T14:43:36.648Z</time></trkpt><trkpt lat="43.7744883" lon="12.1699183"><ele>811.0</ele><time>2026-04-30T14:43:37.652Z</time></trkpt><trkpt lat="43.774455" lon="12.1698"><ele>811.0</ele><time>2026-04-30T14:43:38.648Z</time></trkpt><trkpt lat="43.7744183" lon="12.1696983"><ele>811.0</ele><time>2026-04-30T14:43:39.655Z</time></trkpt><trkpt lat="43.7743783" lon="12.1696133"><ele>811.0</ele><time>2026-04-30T14:43:40.642Z</time></trkpt><trkpt lat="43.7742883" lon="12.169535"><ele>809.4999999999999</ele><time>2026-04-30T14:43:42.647Z</time></trkpt><trkpt lat="43.7741767" lon="12.169595"><ele>808.0</ele><time>2026-04-30T14:43:44.647Z</time></trkpt><trkpt lat="43.774115" lon="12.1696517"><ele>806.5</ele><time>2026-04-30T14:43:45.655Z</time></trkpt><trkpt lat="43.7740517" lon="12.1696917"><ele>805.0</ele><time>2026-04-30T14:43:46.643Z</time></trkpt><trkpt lat="43.77398" lon="12.1697133"><ele>803.4999999999999</ele><time>2026-04-30T14:43:47.644Z</time></trkpt><trkpt lat="43.7739" lon="12.1697283"><ele>802.0</ele><time>2026-04-30T14:43:48.645Z</time></trkpt><trkpt lat="43.77382" lon="12.1697567"><ele>802.0</ele><time>2026-04-30T14:43:49.648Z</time></trkpt><trkpt lat="43.77374" lon="12.1698133"><ele>802.0</ele><time>2026-04-30T14:43:50.644Z</time></trkpt><trkpt lat="43.7736683" lon="12.1699"><ele>802.0</ele><time>2026-04-30T14:43:51.65Z</time></trkpt><trkpt lat="43.7736033" lon="12.1699983"><ele>802.0</ele><time>2026-04-30T14:43:52.648Z</time></trkpt><trkpt lat="43.7735583" lon="12.1701033"><ele>802.0</ele><time>2026-04-30T14:43:53.649Z</time></trkpt><trkpt lat="43.773525" lon="12.1702133"><ele>800.8571428571429</ele><time>2026-04-30T14:43:54.65Z</time></trkpt><trkpt lat="43.773495" lon="12.1703067"><ele>799.7142857142858</ele><time>2026-04-30T14:43:55.662Z</time></trkpt><trkpt lat="43.7734517" lon="12.170375"><ele>798.5714285714286</ele><time>2026-04-30T14:43:56.651Z</time></trkpt><trkpt lat="43.7734017" lon="12.1704417"><ele>797.4285714285714</ele><time>2026-04-30T14:43:57.641Z</time></trkpt><trkpt lat="43.7733533" lon="12.17051"><ele>796.2857142857142</ele><time>2026-04-30T14:43:58.648Z</time></trkpt><trkpt lat="43.7733083" lon="12.1705717"><ele>795.1428571428571</ele><time>2026-04-30T14:43:59.654Z</time></trkpt><trkpt lat="43.7732167" lon="12.170635"><ele>794.0</ele><time>2026-04-30T14:44:01.653Z</time></trkpt><trkpt lat="43.7731317" lon="12.1706067"><ele>794.0</ele><time>2026-04-30T14:44:03.658Z</time></trkpt><trkpt lat="43.7730483" lon="12.170565"><ele>794.0</ele><time>2026-04-30T14:44:05.646Z</time></trkpt><trkpt lat="43.7729617" lon="12.170595"><ele>794.0</ele><time>2026-04-30T14:44:07.65Z</time></trkpt><trkpt lat="43.77289" lon="12.1707367"><ele>794.0</ele><time>2026-04-30T14:44:09.647Z</time></trkpt><trkpt lat="43.77284" lon="12.17084"><ele>794.0</ele><time>2026-04-30T14:44:10.646Z</time></trkpt><trkpt lat="43.77278" lon="12.1709467"><ele>793.2</ele><time>2026-04-30T14:44:11.659Z</time></trkpt><trkpt lat="43.77273" lon="12.1710583"><ele>792.4000000000001</ele><time>2026-04-30T14:44:12.646Z</time></trkpt><trkpt lat="43.7726983" lon="12.171195"><ele>791.6</ele><time>2026-04-30T14:44:13.65Z</time></trkpt><trkpt lat="43.772685" lon="12.171345"><ele>790.8</ele><time>2026-04-30T14:44:14.64Z</time></trkpt><trkpt lat="43.7726683" lon="12.1714917"><ele>790.0</ele><time>2026-04-30T14:44:15.648Z</time></trkpt><trkpt lat="43.77264" lon="12.1716317"><ele>789.9999999999999</ele><time>2026-04-30T14:44:16.651Z</time></trkpt><trkpt lat="43.7726" lon="12.17176"><ele>790.0</ele><time>2026-04-30T14:44:17.64Z</time></trkpt><trkpt lat="43.7725483" lon="12.171875"><ele>790.0</ele><time>2026-04-30T14:44:18.638Z</time></trkpt><trkpt lat="43.7725083" lon="12.1719817"><ele>790.0</ele><time>2026-04-30T14:44:19.644Z</time></trkpt><trkpt lat="43.7724883" lon="12.1720817"><ele>789.9999999999999</ele><time>2026-04-30T14:44:20.645Z</time></trkpt><trkpt lat="43.7724967" lon="12.17218"><ele>790.0</ele><time>2026-04-30T14:44:21.646Z</time></trkpt><trkpt lat="43.77253" lon="12.172285"><ele>790.4</ele><time>2026-04-30T14:44:22.653Z</time></trkpt><trkpt lat="43.77257" lon="12.1724033"><ele>790.8</ele><time>2026-04-30T14:44:23.66Z</time></trkpt><trkpt lat="43.772605" lon="12.1725467"><ele>791.2</ele><time>2026-04-30T14:44:24.651Z</time></trkpt><trkpt lat="43.772635" lon="12.172705"><ele>791.6</ele><time>2026-04-30T14:44:25.64Z</time></trkpt><trkpt lat="43.7726717" lon="12.1728717"><ele>792.0</ele><time>2026-04-30T14:44:26.64Z</time></trkpt><trkpt lat="43.7727067" lon="12.17303"><ele>783.0</ele><time>2026-04-30T14:44:27.646Z</time></trkpt><trkpt lat="43.77274" lon="12.1731683"><ele>774.0</ele><time>2026-04-30T14:44:28.65Z</time></trkpt><trkpt lat="43.7727633" lon="12.173295"><ele>765.0</ele><time>2026-04-30T14:44:29.64Z</time></trkpt><trkpt lat="43.77278" lon="12.17342"><ele>756.0</ele><time>2026-04-30T14:44:30.651Z</time></trkpt><trkpt lat="43.772785" lon="12.173555"><ele>747.0</ele><time>2026-04-30T14:44:31.648Z</time></trkpt><trkpt lat="43.7727833" lon="12.1736983"><ele>746.6666666666666</ele><time>2026-04-30T14:44:32.644Z</time></trkpt><trkpt lat="43.7727717" lon="12.173835"><ele>746.3333333333334</ele><time>2026-04-30T14:44:33.648Z</time></trkpt><trkpt lat="43.772755" lon="12.1739583"><ele>746.0</ele><time>2026-04-30T14:44:34.642Z</time></trkpt><trkpt lat="43.7727333" lon="12.1740717"><ele>745.6666666666667</ele><time>2026-04-30T14:44:35.646Z</time></trkpt><trkpt lat="43.7727083" lon="12.174175"><ele>745.3333333333334</ele><time>2026-04-30T14:44:36.645Z</time></trkpt><trkpt lat="43.77268" lon="12.1742733"><ele>745.0</ele><time>2026-04-30T14:44:37.654Z</time></trkpt><trkpt lat="43.77265" lon="12.1743633"><ele>751.3333333333334</ele><time>2026-04-30T14:44:38.651Z</time></trkpt><trkpt lat="43.7726117" lon="12.1744483"><ele>757.6666666666667</ele><time>2026-04-30T14:44:39.649Z</time></trkpt><trkpt lat="43.7725633" lon="12.1745217"><ele>764.0</ele><time>2026-04-30T14:44:40.646Z</time></trkpt><trkpt lat="43.77251" lon="12.1745683"><ele>770.3333333333334</ele><time>2026-04-30T14:44:41.645Z</time></trkpt><trkpt lat="43.7723833" lon="12.17458"><ele>776.6666666666666</ele><time>2026-04-30T14:44:43.641Z</time></trkpt><trkpt lat="43.7723117" lon="12.174545"><ele>783.0</ele><time>2026-04-30T14:44:44.641Z</time></trkpt><trkpt lat="43.772245" lon="12.1745017"><ele>783.0</ele><time>2026-04-30T14:44:45.641Z</time></trkpt><trkpt lat="43.77213" lon="12.1744917"><ele>783.0</ele><time>2026-04-30T14:44:47.654Z</time></trkpt><trkpt lat="43.7720533" lon="12.174635"><ele>783.0</ele><time>2026-04-30T14:44:49.645Z</time></trkpt><trkpt lat="43.7720267" lon="12.1747383"><ele>783.0</ele><time>2026-04-30T14:44:50.654Z</time></trkpt><trkpt lat="43.771995" lon="12.1748483"><ele>783.0</ele><time>2026-04-30T14:44:51.65Z</time></trkpt><trkpt lat="43.7719733" lon="12.17497"><ele>781.5</ele><time>2026-04-30T14:44:52.645Z</time></trkpt><trkpt lat="43.771955" lon="12.1750817"><ele>780.0</ele><time>2026-04-30T14:44:53.651Z</time></trkpt><trkpt lat="43.7719217" lon="12.1752433"><ele>778.5</ele><time>2026-04-30T14:44:55.656Z</time></trkpt><trkpt lat="43.7719133" lon="12.1753317"><ele>777.0</ele><time>2026-04-30T14:44:56.643Z</time></trkpt><trkpt lat="43.7719083" lon="12.17543"><ele>775.5</ele><time>2026-04-30T14:44:57.643Z</time></trkpt><trkpt lat="43.7719033" lon="12.1755367"><ele>774.0</ele><time>2026-04-30T14:44:58.643Z</time></trkpt><trkpt lat="43.771895" lon="12.1756533"><ele>773.25</ele><time>2026-04-30T14:44:59.653Z</time></trkpt><trkpt lat="43.7718867" lon="12.17579"><ele>772.5</ele><time>2026-04-30T14:45:00.652Z</time></trkpt><trkpt lat="43.7718783" lon="12.1759567"><ele>771.75</ele><time>2026-04-30T14:45:01.647Z</time></trkpt><trkpt lat="43.77187" lon="12.176135"><ele>771.0</ele><time>2026-04-30T14:45:02.644Z</time></trkpt><trkpt lat="43.7718567" lon="12.1763083"><ele>780.75</ele><time>2026-04-30T14:45:03.653Z</time></trkpt><trkpt lat="43.77185" lon="12.1764867"><ele>790.5</ele><time>2026-04-30T14:45:04.648Z</time></trkpt><trkpt lat="43.7718433" lon="12.1766767"><ele>800.25</ele><time>2026-04-30T14:45:05.646Z</time></trkpt><trkpt lat="43.77184" lon="12.176875"><ele>810.0</ele><time>2026-04-30T14:45:06.644Z</time></trkpt><trkpt lat="43.77184" lon="12.17707"><ele>812.6666666666667</ele><time>2026-04-30T14:45:07.638Z</time></trkpt><trkpt lat="43.7718417" lon="12.1772667"><ele>815.3333333333334</ele><time>2026-04-30T14:45:08.64Z</time></trkpt><trkpt lat="43.7718383" lon="12.177475"><ele>818.0</ele><time>2026-04-30T14:45:09.645Z</time></trkpt><trkpt lat="43.7718333" lon="12.1776967"><ele>819.6666666666667</ele><time>2026-04-30T14:45:10.64Z</time></trkpt><trkpt lat="43.771835" lon="12.1779283"><ele>821.3333333333333</ele><time>2026-04-30T14:45:11.65Z</time></trkpt><trkpt lat="43.7718533" lon="12.1781617"><ele>823.0</ele><time>2026-04-30T14:45:12.643Z</time></trkpt><trkpt lat="43.7718667" lon="12.1783967"><ele>819.75</ele><time>2026-04-30T14:45:13.652Z</time></trkpt><trkpt lat="43.77188" lon="12.17862"><ele>816.5</ele><time>2026-04-30T14:45:14.641Z</time></trkpt><trkpt lat="43.771885" lon="12.1788183"><ele>813.25</ele><time>2026-04-30T14:45:15.654Z</time></trkpt><trkpt lat="43.7719117" lon="12.1789883"><ele>810.0</ele><time>2026-04-30T14:45:16.645Z</time></trkpt><trkpt lat="43.7719217" lon="12.179135"><ele>810.0</ele><time>2026-04-30T14:45:17.65Z</time></trkpt><trkpt lat="43.7719317" lon="12.179265"><ele>810.0</ele><time>2026-04-30T14:45:18.646Z</time></trkpt><trkpt lat="43.77192" lon="12.1793767"><ele>810.0</ele><time>2026-04-30T14:45:19.653Z</time></trkpt><trkpt lat="43.7718967" lon="12.17946"><ele>810.0</ele><time>2026-04-30T14:45:20.648Z</time></trkpt><trkpt lat="43.7718033" lon="12.1795583"><ele>810.0</ele><time>2026-04-30T14:45:22.646Z</time></trkpt><trkpt lat="43.771715" lon="12.179645"><ele>812.0</ele><time>2026-04-30T14:45:24.642Z</time></trkpt><trkpt lat="43.7717033" lon="12.17978"><ele>814.0</ele><time>2026-04-30T14:45:26.649Z</time></trkpt><trkpt lat="43.77175" lon="12.17988"><ele>816.0</ele><time>2026-04-30T14:45:27.647Z</time></trkpt><trkpt lat="43.77183" lon="12.18"><ele>818.0</ele><time>2026-04-30T14:45:28.65Z</time></trkpt><trkpt lat="43.7719" lon="12.1801133"><ele>820.0</ele><time>2026-04-30T14:45:29.653Z</time></trkpt><trkpt lat="43.77197" lon="12.18023"><ele>820.8333333333333</ele><time>2026-04-30T14:45:30.646Z</time></trkpt><trkpt lat="43.7720417" lon="12.180345"><ele>821.6666666666666</ele><time>2026-04-30T14:45:31.651Z</time></trkpt><trkpt lat="43.7721067" lon="12.180445"><ele>822.5</ele><time>2026-04-30T14:45:32.651Z</time></trkpt><trkpt lat="43.7721533" lon="12.1805167"><ele>823.3333333333333</ele><time>2026-04-30T14:45:33.649Z</time></trkpt><trkpt lat="43.77218" lon="12.1806083"><ele>824.1666666666666</ele><time>2026-04-30T14:45:35.645Z</time></trkpt><trkpt lat="43.772085" lon="12.1806533"><ele>825.0</ele><time>2026-04-30T14:45:38.654Z</time></trkpt><trkpt lat="43.7720167" lon="12.180605"><ele>825.0</ele><time>2026-04-30T14:45:39.66Z</time></trkpt><trkpt lat="43.7719333" lon="12.1805417"><ele>825.0</ele><time>2026-04-30T14:45:40.651Z</time></trkpt><trkpt lat="43.7718433" lon="12.180475"><ele>825.0</ele><time>2026-04-30T14:45:41.647Z</time></trkpt><trkpt lat="43.7717483" lon="12.1804133"><ele>825.0</ele><time>2026-04-30T14:45:42.648Z</time></trkpt><trkpt lat="43.7716483" lon="12.1803483"><ele>825.0</ele><time>2026-04-30T14:45:43.646Z</time></trkpt><trkpt lat="43.77154" lon="12.18028"><ele>823.75</ele><time>2026-04-30T14:45:44.64Z</time></trkpt><trkpt lat="43.77143" lon="12.1802167"><ele>822.5</ele><time>2026-04-30T14:45:45.646Z</time></trkpt><trkpt lat="43.77132" lon="12.1801733"><ele>821.25</ele><time>2026-04-30T14:45:46.645Z</time></trkpt><trkpt lat="43.7712067" lon="12.1801533"><ele>820.0</ele><time>2026-04-30T14:45:47.656Z</time></trkpt><trkpt lat="43.7711033" lon="12.1801383"><ele>821.1666666666666</ele><time>2026-04-30T14:45:48.642Z</time></trkpt><trkpt lat="43.7710183" lon="12.1800967"><ele>822.3333333333333</ele><time>2026-04-30T14:45:49.643Z</time></trkpt><trkpt lat="43.77094" lon="12.1800383"><ele>823.5</ele><time>2026-04-30T14:45:50.647Z</time></trkpt><trkpt lat="43.7708683" lon="12.17997"><ele>824.6666666666667</ele><time>2026-04-30T14:45:51.646Z</time></trkpt><trkpt lat="43.7708017" lon="12.17991"><ele>825.8333333333334</ele><time>2026-04-30T14:45:52.649Z</time></trkpt><trkpt lat="43.7707383" lon="12.1798633"><ele>827.0</ele><time>2026-04-30T14:45:53.643Z</time></trkpt><trkpt lat="43.770675" lon="12.179825"><ele>827.0</ele><time>2026-04-30T14:45:54.662Z</time></trkpt><trkpt lat="43.770565" lon="12.1798367"><ele>827.0</ele><time>2026-04-30T14:45:56.647Z</time></trkpt><trkpt lat="43.77052" lon="12.179935"><ele>827.0</ele><time>2026-04-30T14:45:57.653Z</time></trkpt><trkpt lat="43.770485" lon="12.18006"><ele>827.0</ele><time>2026-04-30T14:45:58.648Z</time></trkpt><trkpt lat="43.7704633" lon="12.18019"><ele>827.0</ele><time>2026-04-30T14:45:59.649Z</time></trkpt><trkpt lat="43.77045" lon="12.1803283"><ele>820.2</ele><time>2026-04-30T14:46:00.639Z</time></trkpt><trkpt lat="43.7704383" lon="12.1804517"><ele>813.4000000000001</ele><time>2026-04-30T14:46:01.655Z</time></trkpt><trkpt lat="43.7704217" lon="12.180575"><ele>806.5999999999999</ele><time>2026-04-30T14:46:02.643Z</time></trkpt><trkpt lat="43.7703983" lon="12.18071"><ele>799.8</ele><time>2026-04-30T14:46:03.645Z</time></trkpt><trkpt lat="43.7703617" lon="12.1808417"><ele>793.0</ele><time>2026-04-30T14:46:04.642Z</time></trkpt><trkpt lat="43.7703217" lon="12.1809633"><ele>794.0</ele><time>2026-04-30T14:46:05.647Z</time></trkpt><trkpt lat="43.7702767" lon="12.181075"><ele>795.0</ele><time>2026-04-30T14:46:06.654Z</time></trkpt><trkpt lat="43.7702283" lon="12.18119"><ele>796.0</ele><time>2026-04-30T14:46:07.66Z</time></trkpt><trkpt lat="43.7701817" lon="12.1813067"><ele>797.0</ele><time>2026-04-30T14:46:08.645Z</time></trkpt><trkpt lat="43.7701333" lon="12.1814217"><ele>798.0</ele><time>2026-04-30T14:46:09.644Z</time></trkpt><trkpt lat="43.770085" lon="12.1815333"><ele>793.2</ele><time>2026-04-30T14:46:10.653Z</time></trkpt><trkpt lat="43.7700333" lon="12.1816467"><ele>788.4</ele><time>2026-04-30T14:46:11.644Z</time></trkpt><trkpt lat="43.7699683" lon="12.1817567"><ele>783.6</ele><time>2026-04-30T14:46:12.641Z</time></trkpt><trkpt lat="43.7698983" lon="12.18186"><ele>778.8000000000001</ele><time>2026-04-30T14:46:13.639Z</time></trkpt><trkpt lat="43.7698367" lon="12.1819617"><ele>774.0</ele><time>2026-04-30T14:46:14.644Z</time></trkpt><trkpt lat="43.7697817" lon="12.1820583"><ele>774.0</ele><time>2026-04-30T14:46:15.658Z</time></trkpt><trkpt lat="43.7697333" lon="12.1821567"><ele>774.0</ele><time>2026-04-30T14:46:16.641Z</time></trkpt><trkpt lat="43.7696883" lon="12.1822517"><ele>774.0</ele><time>2026-04-30T14:46:17.648Z</time></trkpt><trkpt lat="43.7696367" lon="12.1823367"><ele>774.0</ele><time>2026-04-30T14:46:18.646Z</time></trkpt><trkpt lat="43.7695717" lon="12.182405"><ele>774.0</ele><time>2026-04-30T14:46:19.658Z</time></trkpt><trkpt lat="43.7694917" lon="12.1824483"><ele>774.0</ele><time>2026-04-30T14:46:20.644Z</time></trkpt><trkpt lat="43.7694083" lon="12.1824933"><ele>774.6</ele><time>2026-04-30T14:46:21.665Z</time></trkpt><trkpt lat="43.7693317" lon="12.1825633"><ele>775.2</ele><time>2026-04-30T14:46:22.642Z</time></trkpt><trkpt lat="43.7692617" lon="12.182655"><ele>775.8000000000001</ele><time>2026-04-30T14:46:23.646Z</time></trkpt><trkpt lat="43.76919" lon="12.18275"><ele>776.4000000000001</ele><time>2026-04-30T14:46:24.648Z</time></trkpt><trkpt lat="43.7691117" lon="12.1828267"><ele>777.0</ele><time>2026-04-30T14:46:25.646Z</time></trkpt><trkpt lat="43.7690267" lon="12.18288"><ele>777.0</ele><time>2026-04-30T14:46:26.646Z</time></trkpt><trkpt lat="43.7689333" lon="12.182955"><ele>777.0</ele><time>2026-04-30T14:46:27.645Z</time></trkpt><trkpt lat="43.768855" lon="12.18306"><ele>777.0</ele><time>2026-04-30T14:46:28.649Z</time></trkpt><trkpt lat="43.768775" lon="12.1831633"><ele>777.0</ele><time>2026-04-30T14:46:29.646Z</time></trkpt><trkpt lat="43.7686867" lon="12.18325"><ele>777.0</ele><time>2026-04-30T14:46:30.649Z</time></trkpt><trkpt lat="43.768605" lon="12.1833417"><ele>776.0</ele><time>2026-04-30T14:46:31.662Z</time></trkpt><trkpt lat="43.7685317" lon="12.1834417"><ele>775.0</ele><time>2026-04-30T14:46:32.651Z</time></trkpt><trkpt lat="43.7684717" lon="12.183575"><ele>774.0</ele><time>2026-04-30T14:46:33.649Z</time></trkpt><trkpt lat="43.7684183" lon="12.1837267"><ele>773.0</ele><time>2026-04-30T14:46:34.648Z</time></trkpt><trkpt lat="43.7683683" lon="12.183855"><ele>772.0</ele><time>2026-04-30T14:46:35.653Z</time></trkpt><trkpt lat="43.7683117" lon="12.18397"><ele>767.8333333333333</ele><time>2026-04-30T14:46:36.65Z</time></trkpt><trkpt lat="43.768255" lon="12.1840783"><ele>763.6666666666666</ele><time>2026-04-30T14:46:37.643Z</time></trkpt><trkpt lat="43.7681983" lon="12.1841667"><ele>759.5</ele><time>2026-04-30T14:46:38.646Z</time></trkpt><trkpt lat="43.7681467" lon="12.184235"><ele>755.3333333333333</ele><time>2026-04-30T14:46:39.642Z</time></trkpt><trkpt lat="43.7680917" lon="12.1842833"><ele>751.1666666666666</ele><time>2026-04-30T14:46:40.65Z</time></trkpt><trkpt lat="43.76798" lon="12.1843033"><ele>747.0</ele><time>2026-04-30T14:46:42.645Z</time></trkpt><trkpt lat="43.7678717" lon="12.1842117"><ele>747.0</ele><time>2026-04-30T14:46:44.648Z</time></trkpt><trkpt lat="43.7678167" lon="12.1841433"><ele>747.0</ele><time>2026-04-30T14:46:45.651Z</time></trkpt><trkpt lat="43.7677733" lon="12.1840567"><ele>747.0</ele><time>2026-04-30T14:46:46.642Z</time></trkpt><trkpt lat="43.767725" lon="12.183965"><ele>747.0</ele><time>2026-04-30T14:46:47.649Z</time></trkpt><trkpt lat="43.76767" lon="12.1838717"><ele>747.0</ele><time>2026-04-30T14:46:48.657Z</time></trkpt><trkpt lat="43.7676083" lon="12.18378"><ele>747.0</ele><time>2026-04-30T14:46:49.651Z</time></trkpt><trkpt lat="43.7675533" lon="12.1836883"><ele>749.6666666666666</ele><time>2026-04-30T14:46:50.65Z</time></trkpt><trkpt lat="43.7675" lon="12.183595"><ele>752.3333333333334</ele><time>2026-04-30T14:46:51.645Z</time></trkpt><trkpt lat="43.7674367" lon="12.1835067"><ele>755.0</ele><time>2026-04-30T14:46:52.648Z</time></trkpt><trkpt lat="43.7673683" lon="12.18343"><ele>757.6666666666667</ele><time>2026-04-30T14:46:53.647Z</time></trkpt><trkpt lat="43.7673" lon="12.1833533"><ele>760.3333333333334</ele><time>2026-04-30T14:46:54.651Z</time></trkpt><trkpt lat="43.76723" lon="12.1832833"><ele>763.0</ele><time>2026-04-30T14:46:55.642Z</time></trkpt><trkpt lat="43.7671583" lon="12.183225"><ele>763.0</ele><time>2026-04-30T14:46:56.646Z</time></trkpt><trkpt lat="43.7670833" lon="12.1831833"><ele>763.0</ele><time>2026-04-30T14:46:57.648Z</time></trkpt><trkpt lat="43.7670033" lon="12.1831633"><ele>763.0</ele><time>2026-04-30T14:46:58.645Z</time></trkpt><trkpt lat="43.7669233" lon="12.18316"><ele>763.0</ele><time>2026-04-30T14:46:59.65Z</time></trkpt><trkpt lat="43.7668417" lon="12.1831833"><ele>763.0</ele><time>2026-04-30T14:47:00.644Z</time></trkpt><trkpt lat="43.7667567" lon="12.1832267"><ele>763.0</ele><time>2026-04-30T14:47:01.644Z</time></trkpt><trkpt lat="43.7666683" lon="12.1832817"><ele>759.1666666666667</ele><time>2026-04-30T14:47:02.646Z</time></trkpt><trkpt lat="43.766585" lon="12.183345"><ele>755.3333333333334</ele><time>2026-04-30T14:47:03.649Z</time></trkpt><trkpt lat="43.7665083" lon="12.1833983"><ele>751.5</ele><time>2026-04-30T14:47:04.642Z</time></trkpt><trkpt lat="43.76643" lon="12.1834267"><ele>747.6666666666666</ele><time>2026-04-30T14:47:05.648Z</time></trkpt><trkpt lat="43.766355" lon="12.1834467"><ele>743.8333333333333</ele><time>2026-04-30T14:47:06.644Z</time></trkpt><trkpt lat="43.766285" lon="12.1834817"><ele>740.0</ele><time>2026-04-30T14:47:07.642Z</time></trkpt><trkpt lat="43.7662217" lon="12.1835333"><ele>740.0</ele><time>2026-04-30T14:47:08.65Z</time></trkpt><trkpt lat="43.7661667" lon="12.18359"><ele>740.0</ele><time>2026-04-30T14:47:09.643Z</time></trkpt><trkpt lat="43.7660667" lon="12.1836817"><ele>740.0</ele><time>2026-04-30T14:47:11.639Z</time></trkpt><trkpt lat="43.76594" lon="12.183715"><ele>740.0</ele><time>2026-04-30T14:47:13.644Z</time></trkpt><trkpt lat="43.7658617" lon="12.1837167"><ele>740.0</ele><time>2026-04-30T14:47:14.646Z</time></trkpt><trkpt lat="43.76578" lon="12.1837217"><ele>740.6666666666666</ele><time>2026-04-30T14:47:15.647Z</time></trkpt><trkpt lat="43.765695" lon="12.1837467"><ele>741.3333333333333</ele><time>2026-04-30T14:47:16.645Z</time></trkpt><trkpt lat="43.7656167" lon="12.1838"><ele>742.0</ele><time>2026-04-30T14:47:17.652Z</time></trkpt><trkpt lat="43.765545" lon="12.18386"><ele>742.6666666666666</ele><time>2026-04-30T14:47:18.643Z</time></trkpt><trkpt lat="43.7654767" lon="12.183915"><ele>743.3333333333334</ele><time>2026-04-30T14:47:19.642Z</time></trkpt><trkpt lat="43.7654183" lon="12.1839617"><ele>744.0</ele><time>2026-04-30T14:47:20.648Z</time></trkpt><trkpt lat="43.7652967" lon="12.184"><ele>744.0</ele><time>2026-04-30T14:47:22.644Z</time></trkpt><trkpt lat="43.765225" lon="12.183995"><ele>744.0</ele><time>2026-04-30T14:47:23.644Z</time></trkpt><trkpt lat="43.76515" lon="12.183985"><ele>744.0</ele><time>2026-04-30T14:47:24.648Z</time></trkpt><trkpt lat="43.7650767" lon="12.1839733"><ele>744.0</ele><time>2026-04-30T14:47:25.645Z</time></trkpt><trkpt lat="43.765" lon="12.18397"><ele>744.0</ele><time>2026-04-30T14:47:26.643Z</time></trkpt><trkpt lat="43.7649233" lon="12.1839867"><ele>744.0</ele><time>2026-04-30T14:47:27.639Z</time></trkpt><trkpt lat="43.76484" lon="12.1840183"><ele>736.0</ele><time>2026-04-30T14:47:28.657Z</time></trkpt><trkpt lat="43.7647583" lon="12.1840533"><ele>728.0</ele><time>2026-04-30T14:47:29.649Z</time></trkpt><trkpt lat="43.7646783" lon="12.1840783"><ele>720.0</ele><time>2026-04-30T14:47:30.646Z</time></trkpt><trkpt lat="43.7645983" lon="12.1841017"><ele>712.0</ele><time>2026-04-30T14:47:31.648Z</time></trkpt><trkpt lat="43.7645217" lon="12.1841433"><ele>704.0</ele><time>2026-04-30T14:47:32.654Z</time></trkpt><trkpt lat="43.7644483" lon="12.1842033"><ele>696.0</ele><time>2026-04-30T14:47:33.66Z</time></trkpt><trkpt lat="43.76438" lon="12.1842717"><ele>696.0</ele><time>2026-04-30T14:47:34.651Z</time></trkpt><trkpt lat="43.7643083" lon="12.1843283"><ele>696.0</ele><time>2026-04-30T14:47:35.646Z</time></trkpt><trkpt lat="43.76424" lon="12.1843633"><ele>696.0</ele><time>2026-04-30T14:47:36.648Z</time></trkpt><trkpt lat="43.7641617" lon="12.1843717"><ele>696.0</ele><time>2026-04-30T14:47:37.645Z</time></trkpt><trkpt lat="43.7640767" lon="12.18438"><ele>696.0</ele><time>2026-04-30T14:47:38.648Z</time></trkpt><trkpt lat="43.7639867" lon="12.1844033"><ele>696.0</ele><time>2026-04-30T14:47:39.645Z</time></trkpt><trkpt lat="43.7638983" lon="12.1844417"><ele>696.0</ele><time>2026-04-30T14:47:40.64Z</time></trkpt><trkpt lat="43.76382" lon="12.1844783"><ele>696.0</ele><time>2026-04-30T14:47:41.645Z</time></trkpt><trkpt lat="43.7637517" lon="12.1845167"><ele>696.0</ele><time>2026-04-30T14:47:42.65Z</time></trkpt><trkpt lat="43.763645" lon="12.1845533"><ele>696.0</ele><time>2026-04-30T14:47:44.644Z</time></trkpt><trkpt lat="43.7635817" lon="12.1844667"><ele>696.0</ele><time>2026-04-30T14:47:46.645Z</time></trkpt><trkpt lat="43.7635983" lon="12.1843"><ele>696.0</ele><time>2026-04-30T14:47:48.642Z</time></trkpt><trkpt lat="43.76363" lon="12.1842083"><ele>696.0</ele><time>2026-04-30T14:47:49.649Z</time></trkpt><trkpt lat="43.7636567" lon="12.184115"><ele>696.0</ele><time>2026-04-30T14:47:50.644Z</time></trkpt><trkpt lat="43.7636683" lon="12.1840183"><ele>696.0</ele><time>2026-04-30T14:47:51.655Z</time></trkpt><trkpt lat="43.7636683" lon="12.1839267"><ele>696.0</ele><time>2026-04-30T14:47:52.644Z</time></trkpt><trkpt lat="43.7636133" lon="12.1837867"><ele>696.0</ele><time>2026-04-30T14:47:54.642Z</time></trkpt><trkpt lat="43.7635367" lon="12.1838133"><ele>691.1999999999999</ele><time>2026-04-30T14:47:55.655Z</time></trkpt><trkpt lat="43.7634617" lon="12.183865"><ele>686.4</ele><time>2026-04-30T14:47:56.646Z</time></trkpt><trkpt lat="43.7633817" lon="12.1839483"><ele>681.6</ele><time>2026-04-30T14:47:57.647Z</time></trkpt><trkpt lat="43.7633067" lon="12.1840317"><ele>676.8</ele><time>2026-04-30T14:47:58.644Z</time></trkpt><trkpt lat="43.7632383" lon="12.18412"><ele>672.0</ele><time>2026-04-30T14:47:59.647Z</time></trkpt><trkpt lat="43.7631767" lon="12.18421"><ele>672.0</ele><time>2026-04-30T14:48:00.656Z</time></trkpt><trkpt lat="43.76312" lon="12.1843017"><ele>672.0</ele><time>2026-04-30T14:48:01.642Z</time></trkpt><trkpt lat="43.7630733" lon="12.1844033"><ele>672.0</ele><time>2026-04-30T14:48:02.644Z</time></trkpt><trkpt lat="43.7630317" lon="12.1844933"><ele>672.0</ele><time>2026-04-30T14:48:03.647Z</time></trkpt><trkpt lat="43.762995" lon="12.1845667"><ele>672.0</ele><time>2026-04-30T14:48:04.645Z</time></trkpt><trkpt lat="43.76292" lon="12.1846283"><ele>672.0</ele><time>2026-04-30T14:48:06.642Z</time></trkpt><trkpt lat="43.7628767" lon="12.1844933"><ele>672.0</ele><time>2026-04-30T14:48:09.654Z</time></trkpt><trkpt lat="43.7628783" lon="12.184325"><ele>672.0</ele><time>2026-04-30T14:48:11.658Z</time></trkpt><trkpt lat="43.7628733" lon="12.1842333"><ele>672.0</ele><time>2026-04-30T14:48:12.642Z</time></trkpt><trkpt lat="43.76287" lon="12.1841383"><ele>672.0</ele><time>2026-04-30T14:48:13.655Z</time></trkpt><trkpt lat="43.7628667" lon="12.1840433"><ele>672.0</ele><time>2026-04-30T14:48:14.641Z</time></trkpt><trkpt lat="43.7628617" lon="12.18394"><ele>672.0</ele><time>2026-04-30T14:48:15.65Z</time></trkpt><trkpt lat="43.7628633" lon="12.18383"><ele>670.8</ele><time>2026-04-30T14:48:16.652Z</time></trkpt><trkpt lat="43.7628783" lon="12.1837233"><ele>669.6</ele><time>2026-04-30T14:48:17.655Z</time></trkpt><trkpt lat="43.7629067" lon="12.18362"><ele>668.4</ele><time>2026-04-30T14:48:18.647Z</time></trkpt><trkpt lat="43.7629517" lon="12.1835"><ele>667.1999999999999</ele><time>2026-04-30T14:48:19.653Z</time></trkpt><trkpt lat="43.7630083" lon="12.18336"><ele>666.0</ele><time>2026-04-30T14:48:20.649Z</time></trkpt><trkpt lat="43.7630733" lon="12.183215"><ele>663.25</ele><time>2026-04-30T14:48:21.657Z</time></trkpt><trkpt lat="43.7631333" lon="12.18307"><ele>660.5</ele><time>2026-04-30T14:48:22.642Z</time></trkpt><trkpt lat="43.76319" lon="12.1829233"><ele>657.75</ele><time>2026-04-30T14:48:23.649Z</time></trkpt><trkpt lat="43.7632467" lon="12.18278"><ele>655.0</ele><time>2026-04-30T14:48:24.644Z</time></trkpt><trkpt lat="43.7633017" lon="12.1826467"><ele>655.0</ele><time>2026-04-30T14:48:25.647Z</time></trkpt><trkpt lat="43.7633567" lon="12.1825167"><ele>655.0</ele><time>2026-04-30T14:48:26.637Z</time></trkpt><trkpt lat="43.7634117" lon="12.1824033"><ele>655.0</ele><time>2026-04-30T14:48:27.646Z</time></trkpt><trkpt lat="43.763455" lon="12.1822983"><ele>655.0</ele><time>2026-04-30T14:48:28.645Z</time></trkpt><trkpt lat="43.7634817" lon="12.1821983"><ele>655.0</ele><time>2026-04-30T14:48:29.641Z</time></trkpt><trkpt lat="43.7634917" lon="12.1821033"><ele>655.0</ele><time>2026-04-30T14:48:30.652Z</time></trkpt><trkpt lat="43.763425" lon="12.1819433"><ele>654.6</ele><time>2026-04-30T14:48:32.641Z</time></trkpt><trkpt lat="43.7633517" lon="12.1818833"><ele>654.2</ele><time>2026-04-30T14:48:33.662Z</time></trkpt><trkpt lat="43.7632717" lon="12.181855"><ele>653.8</ele><time>2026-04-30T14:48:34.649Z</time></trkpt><trkpt lat="43.76319" lon="12.1818567"><ele>653.4</ele><time>2026-04-30T14:48:35.658Z</time></trkpt><trkpt lat="43.7630767" lon="12.1818867"><ele>653.0</ele><time>2026-04-30T14:48:36.643Z</time></trkpt><trkpt lat="43.7629483" lon="12.1819233"><ele>653.0</ele><time>2026-04-30T14:48:37.655Z</time></trkpt><trkpt lat="43.76281" lon="12.181965"><ele>653.0</ele><time>2026-04-30T14:48:38.652Z</time></trkpt><trkpt lat="43.7626717" lon="12.1820133"><ele>653.0</ele><time>2026-04-30T14:48:39.649Z</time></trkpt><trkpt lat="43.76254" lon="12.18207"><ele>653.0</ele><time>2026-04-30T14:48:40.654Z</time></trkpt><trkpt lat="43.7624017" lon="12.1821217"><ele>653.3333333333333</ele><time>2026-04-30T14:48:41.641Z</time></trkpt><trkpt lat="43.7622567" lon="12.1821767"><ele>653.6666666666666</ele><time>2026-04-30T14:48:42.648Z</time></trkpt><trkpt lat="43.762105" lon="12.1822317"><ele>654.0</ele><time>2026-04-30T14:48:43.64Z</time></trkpt><trkpt lat="43.7619533" lon="12.1822833"><ele>655.3333333333334</ele><time>2026-04-30T14:48:44.655Z</time></trkpt><trkpt lat="43.7617983" lon="12.18234"><ele>656.6666666666667</ele><time>2026-04-30T14:48:45.641Z</time></trkpt><trkpt lat="43.7616467" lon="12.1823967"><ele>658.0</ele><time>2026-04-30T14:48:46.648Z</time></trkpt><trkpt lat="43.7615" lon="12.1824583"><ele>654.25</ele><time>2026-04-30T14:48:47.646Z</time></trkpt><trkpt lat="43.7613583" lon="12.1825167"><ele>650.5</ele><time>2026-04-30T14:48:48.644Z</time></trkpt><trkpt lat="43.7612167" lon="12.18257"><ele>646.75</ele><time>2026-04-30T14:48:49.643Z</time></trkpt><trkpt lat="43.7610767" lon="12.182625"><ele>643.0</ele><time>2026-04-30T14:48:50.644Z</time></trkpt><trkpt lat="43.760935" lon="12.1826817"><ele>643.0</ele><time>2026-04-30T14:48:51.648Z</time></trkpt><trkpt lat="43.7608017" lon="12.1827583"><ele>643.0</ele><time>2026-04-30T14:48:52.652Z</time></trkpt><trkpt lat="43.760675" lon="12.1828633"><ele>643.0</ele><time>2026-04-30T14:48:53.654Z</time></trkpt><trkpt lat="43.760555" lon="12.18299"><ele>643.0</ele><time>2026-04-30T14:48:54.652Z</time></trkpt><trkpt lat="43.7604367" lon="12.1831267"><ele>644.75</ele><time>2026-04-30T14:48:55.647Z</time></trkpt><trkpt lat="43.7603317" lon="12.18327"><ele>646.5</ele><time>2026-04-30T14:48:56.643Z</time></trkpt><trkpt lat="43.7602583" lon="12.1834033"><ele>648.25</ele><time>2026-04-30T14:48:57.652Z</time></trkpt><trkpt lat="43.76021" lon="12.183535"><ele>650.0</ele><time>2026-04-30T14:48:58.649Z</time></trkpt><trkpt lat="43.76017" lon="12.183685"><ele>650.0</ele><time>2026-04-30T14:48:59.644Z</time></trkpt><trkpt lat="43.760135" lon="12.183855"><ele>650.0</ele><time>2026-04-30T14:49:00.641Z</time></trkpt><trkpt lat="43.7601117" lon="12.1840383"><ele>650.0</ele><time>2026-04-30T14:49:01.654Z</time></trkpt><trkpt lat="43.76008" lon="12.1842167"><ele>650.0</ele><time>2026-04-30T14:49:02.652Z</time></trkpt><trkpt lat="43.7600367" lon="12.1843767"><ele>647.0</ele><time>2026-04-30T14:49:03.654Z</time></trkpt><trkpt lat="43.7599817" lon="12.1845183"><ele>644.0</ele><time>2026-04-30T14:49:04.639Z</time></trkpt><trkpt lat="43.75992" lon="12.1846367"><ele>641.0</ele><time>2026-04-30T14:49:05.652Z</time></trkpt><trkpt lat="43.759855" lon="12.1847367"><ele>638.0</ele><time>2026-04-30T14:49:06.649Z</time></trkpt><trkpt lat="43.7597783" lon="12.1848167"><ele>635.0</ele><time>2026-04-30T14:49:07.644Z</time></trkpt><trkpt lat="43.759685" lon="12.184885"><ele>635.6</ele><time>2026-04-30T14:49:08.657Z</time></trkpt><trkpt lat="43.7595817" lon="12.184945"><ele>636.2</ele><time>2026-04-30T14:49:09.652Z</time></trkpt><trkpt lat="43.7594683" lon="12.1849867"><ele>636.8</ele><time>2026-04-30T14:49:10.649Z</time></trkpt><trkpt lat="43.7593667" lon="12.1850267"><ele>637.4</ele><time>2026-04-30T14:49:11.642Z</time></trkpt><trkpt lat="43.75928" lon="12.1850617"><ele>638.0</ele><time>2026-04-30T14:49:12.648Z</time></trkpt><trkpt lat="43.7592017" lon="12.185095"><ele>638.0</ele><time>2026-04-30T14:49:13.648Z</time></trkpt><trkpt lat="43.7591217" lon="12.185135"><ele>638.0</ele><time>2026-04-30T14:49:14.653Z</time></trkpt><trkpt lat="43.7590383" lon="12.1851883"><ele>638.0</ele><time>2026-04-30T14:49:15.651Z</time></trkpt><trkpt lat="43.7589517" lon="12.1852467"><ele>638.0</ele><time>2026-04-30T14:49:16.647Z</time></trkpt><trkpt lat="43.7588617" lon="12.185315"><ele>638.0</ele><time>2026-04-30T14:49:17.653Z</time></trkpt><trkpt lat="43.7587767" lon="12.1853883"><ele>638.0</ele><time>2026-04-30T14:49:18.644Z</time></trkpt><trkpt lat="43.7586883" lon="12.18546"><ele>638.0</ele><time>2026-04-30T14:49:19.663Z</time></trkpt><trkpt lat="43.7586017" lon="12.1855317"><ele>638.0</ele><time>2026-04-30T14:49:20.653Z</time></trkpt><trkpt lat="43.7585117" lon="12.1855917"><ele>638.0</ele><time>2026-04-30T14:49:21.65Z</time></trkpt><trkpt lat="43.7584267" lon="12.185635"><ele>638.0</ele><time>2026-04-30T14:49:22.644Z</time></trkpt><trkpt lat="43.7583367" lon="12.1856617"><ele>636.5</ele><time>2026-04-30T14:49:23.642Z</time></trkpt><trkpt lat="43.7582467" lon="12.1856783"><ele>635.0</ele><time>2026-04-30T14:49:24.648Z</time></trkpt><trkpt lat="43.7581567" lon="12.1856883"><ele>633.5</ele><time>2026-04-30T14:49:25.647Z</time></trkpt><trkpt lat="43.758065" lon="12.1856883"><ele>632.0</ele><time>2026-04-30T14:49:26.648Z</time></trkpt><trkpt lat="43.7579783" lon="12.18567"><ele>630.5</ele><time>2026-04-30T14:49:27.653Z</time></trkpt><trkpt lat="43.7578933" lon="12.1856433"><ele>629.0</ele><time>2026-04-30T14:49:28.646Z</time></trkpt><trkpt lat="43.7578133" lon="12.1856233"><ele>630.3333333333333</ele><time>2026-04-30T14:49:29.646Z</time></trkpt><trkpt lat="43.75774" lon="12.185625"><ele>631.6666666666666</ele><time>2026-04-30T14:49:30.65Z</time></trkpt><trkpt lat="43.7576717" lon="12.185655"><ele>633.0</ele><time>2026-04-30T14:49:31.649Z</time></trkpt><trkpt lat="43.7576133" lon="12.1857067"><ele>634.3333333333334</ele><time>2026-04-30T14:49:32.686Z</time></trkpt><trkpt lat="43.7575733" lon="12.1857783"><ele>635.6666666666667</ele><time>2026-04-30T14:49:33.648Z</time></trkpt><trkpt lat="43.7575833" lon="12.18589"><ele>637.0</ele><time>2026-04-30T14:49:34.652Z</time></trkpt><trkpt lat="43.7576267" lon="12.1859983"><ele>637.0</ele><time>2026-04-30T14:49:35.642Z</time></trkpt><trkpt lat="43.7576883" lon="12.186115"><ele>637.0</ele><time>2026-04-30T14:49:36.642Z</time></trkpt><trkpt lat="43.75775" lon="12.1862367"><ele>637.0</ele><time>2026-04-30T14:49:37.656Z</time></trkpt><trkpt lat="43.7578083" lon="12.1863633"><ele>637.0</ele><time>2026-04-30T14:49:38.646Z</time></trkpt><trkpt lat="43.7578683" lon="12.1864783"><ele>637.0</ele><time>2026-04-30T14:49:39.656Z</time></trkpt><trkpt lat="43.7579283" lon="12.1865833"><ele>633.2</ele><time>2026-04-30T14:49:40.659Z</time></trkpt><trkpt lat="43.7579817" lon="12.1866817"><ele>629.4000000000001</ele><time>2026-04-30T14:49:41.641Z</time></trkpt><trkpt lat="43.7580283" lon="12.18677"><ele>625.5999999999999</ele><time>2026-04-30T14:49:42.647Z</time></trkpt><trkpt lat="43.7580783" lon="12.1868683"><ele>621.8</ele><time>2026-04-30T14:49:43.649Z</time></trkpt><trkpt lat="43.7581433" lon="12.1869667"><ele>618.0</ele><time>2026-04-30T14:49:44.649Z</time></trkpt><trkpt lat="43.7582167" lon="12.1870733"><ele>618.0</ele><time>2026-04-30T14:49:45.65Z</time></trkpt><trkpt lat="43.7582917" lon="12.1871717"><ele>618.0</ele><time>2026-04-30T14:49:46.646Z</time></trkpt><trkpt lat="43.7583667" lon="12.18726"><ele>618.0</ele><time>2026-04-30T14:49:47.645Z</time></trkpt><trkpt lat="43.758445" lon="12.18734"><ele>618.0</ele><time>2026-04-30T14:49:48.642Z</time></trkpt><trkpt lat="43.7585233" lon="12.187405"><ele>618.0</ele><time>2026-04-30T14:49:49.641Z</time></trkpt><trkpt lat="43.7585917" lon="12.1874767"><ele>617.1999999999999</ele><time>2026-04-30T14:49:50.644Z</time></trkpt><trkpt lat="43.7586567" lon="12.1875567"><ele>616.4</ele><time>2026-04-30T14:49:51.654Z</time></trkpt><trkpt lat="43.758705" lon="12.1876633"><ele>615.5999999999999</ele><time>2026-04-30T14:49:52.644Z</time></trkpt><trkpt lat="43.7587567" lon="12.1877683"><ele>614.8</ele><time>2026-04-30T14:49:53.645Z</time></trkpt><trkpt lat="43.7588183" lon="12.1878633"><ele>614.0</ele><time>2026-04-30T14:49:54.645Z</time></trkpt><trkpt lat="43.7588917" lon="12.1879433"><ele>614.0</ele><time>2026-04-30T14:49:55.644Z</time></trkpt><trkpt lat="43.758985" lon="12.187995"><ele>614.0</ele><time>2026-04-30T14:49:56.643Z</time></trkpt><trkpt lat="43.7590883" lon="12.1880317"><ele>614.0</ele><time>2026-04-30T14:49:57.647Z</time></trkpt><trkpt lat="43.7591867" lon="12.1880667"><ele>614.0</ele><time>2026-04-30T14:49:58.646Z</time></trkpt><trkpt lat="43.759275" lon="12.188125"><ele>614.0</ele><time>2026-04-30T14:49:59.643Z</time></trkpt><trkpt lat="43.759355" lon="12.1882083"><ele>609.8</ele><time>2026-04-30T14:50:00.644Z</time></trkpt><trkpt lat="43.75943" lon="12.1883017"><ele>605.5999999999999</ele><time>2026-04-30T14:50:01.649Z</time></trkpt><trkpt lat="43.7595017" lon="12.188395"><ele>601.4</ele><time>2026-04-30T14:50:02.647Z</time></trkpt><trkpt lat="43.7595667" lon="12.188485"><ele>597.1999999999999</ele><time>2026-04-30T14:50:03.648Z</time></trkpt><trkpt lat="43.7596217" lon="12.1885733"><ele>593.0</ele><time>2026-04-30T14:50:04.642Z</time></trkpt><trkpt lat="43.7596617" lon="12.188675"><ele>593.0</ele><time>2026-04-30T14:50:05.644Z</time></trkpt><trkpt lat="43.7596833" lon="12.1887933"><ele>593.0</ele><time>2026-04-30T14:50:06.646Z</time></trkpt><trkpt lat="43.759685" lon="12.1889167"><ele>593.0</ele><time>2026-04-30T14:50:07.648Z</time></trkpt><trkpt lat="43.75968" lon="12.189035"><ele>593.0</ele><time>2026-04-30T14:50:08.646Z</time></trkpt><trkpt lat="43.75968" lon="12.1891467"><ele>593.0</ele><time>2026-04-30T14:50:09.642Z</time></trkpt><trkpt lat="43.7597017" lon="12.189255"><ele>593.0</ele><time>2026-04-30T14:50:10.652Z</time></trkpt><trkpt lat="43.759745" lon="12.1893733"><ele>594.75</ele><time>2026-04-30T14:50:11.653Z</time></trkpt><trkpt lat="43.7598033" lon="12.1895017"><ele>596.5</ele><time>2026-04-30T14:50:12.64Z</time></trkpt><trkpt lat="43.7598717" lon="12.1896317"><ele>598.25</ele><time>2026-04-30T14:50:13.647Z</time></trkpt><trkpt lat="43.7599467" lon="12.18976"><ele>600.0</ele><time>2026-04-30T14:50:14.657Z</time></trkpt><trkpt lat="43.76002" lon="12.1898817"><ele>600.0</ele><time>2026-04-30T14:50:15.645Z</time></trkpt><trkpt lat="43.7600883" lon="12.1900067"><ele>600.0</ele><time>2026-04-30T14:50:16.658Z</time></trkpt><trkpt lat="43.76015" lon="12.1901333"><ele>600.0</ele><time>2026-04-30T14:50:17.649Z</time></trkpt><trkpt lat="43.7602033" lon="12.190265"><ele>600.0</ele><time>2026-04-30T14:50:18.651Z</time></trkpt><trkpt lat="43.7602467" lon="12.190405"><ele>600.0</ele><time>2026-04-30T14:50:19.652Z</time></trkpt><trkpt lat="43.76027" lon="12.1905583"><ele>597.4</ele><time>2026-04-30T14:50:20.64Z</time></trkpt><trkpt lat="43.7602833" lon="12.190715"><ele>594.8</ele><time>2026-04-30T14:50:21.651Z</time></trkpt><trkpt lat="43.760295" lon="12.19087"><ele>592.2</ele><time>2026-04-30T14:50:22.652Z</time></trkpt><trkpt lat="43.7603083" lon="12.1910233"><ele>589.6</ele><time>2026-04-30T14:50:23.647Z</time></trkpt><trkpt lat="43.7603267" lon="12.19117"><ele>587.0</ele><time>2026-04-30T14:50:24.646Z</time></trkpt><trkpt lat="43.76035" lon="12.1913167"><ele>587.0</ele><time>2026-04-30T14:50:25.645Z</time></trkpt><trkpt lat="43.7603767" lon="12.1914567"><ele>587.0</ele><time>2026-04-30T14:50:26.657Z</time></trkpt><trkpt lat="43.76041" lon="12.1915933"><ele>587.0</ele><time>2026-04-30T14:50:27.642Z</time></trkpt><trkpt lat="43.760445" lon="12.1917133"><ele>587.0</ele><time>2026-04-30T14:50:28.642Z</time></trkpt><trkpt lat="43.76048" lon="12.191815"><ele>587.0</ele><time>2026-04-30T14:50:29.644Z</time></trkpt><trkpt lat="43.76052" lon="12.1918967"><ele>586.0</ele><time>2026-04-30T14:50:30.647Z</time></trkpt><trkpt lat="43.760615" lon="12.1919867"><ele>585.0</ele><time>2026-04-30T14:50:32.649Z</time></trkpt><trkpt lat="43.7607217" lon="12.1919217"><ele>584.0</ele><time>2026-04-30T14:50:34.655Z</time></trkpt><trkpt lat="43.7607667" lon="12.191825"><ele>583.0</ele><time>2026-04-30T14:50:35.643Z</time></trkpt><trkpt lat="43.760805" lon="12.1917133"><ele>582.0</ele><time>2026-04-30T14:50:36.648Z</time></trkpt><trkpt lat="43.7608433" lon="12.1915917"><ele>583.0</ele><time>2026-04-30T14:50:37.646Z</time></trkpt><trkpt lat="43.760885" lon="12.19146"><ele>584.0</ele><time>2026-04-30T14:50:38.643Z</time></trkpt><trkpt lat="43.7609383" lon="12.1913233"><ele>585.0</ele><time>2026-04-30T14:50:39.648Z</time></trkpt><trkpt lat="43.7610033" lon="12.1911933"><ele>586.0</ele><time>2026-04-30T14:50:40.655Z</time></trkpt><trkpt lat="43.761075" lon="12.1910833"><ele>587.0</ele><time>2026-04-30T14:50:41.64Z</time></trkpt><trkpt lat="43.761145" lon="12.190985"><ele>583.0</ele><time>2026-04-30T14:50:42.647Z</time></trkpt><trkpt lat="43.7612133" lon="12.1908983"><ele>579.0</ele><time>2026-04-30T14:50:43.647Z</time></trkpt><trkpt lat="43.76129" lon="12.19084"><ele>575.0</ele><time>2026-04-30T14:50:44.646Z</time></trkpt><trkpt lat="43.7613617" lon="12.1908067"><ele>571.0</ele><time>2026-04-30T14:50:45.651Z</time></trkpt><trkpt lat="43.7614433" lon="12.1908133"><ele>567.0</ele><time>2026-04-30T14:50:46.643Z</time></trkpt><trkpt lat="43.7615167" lon="12.1908433"><ele>563.0</ele><time>2026-04-30T14:50:47.644Z</time></trkpt><trkpt lat="43.7615583" lon="12.190935"><ele>563.0</ele><time>2026-04-30T14:50:48.642Z</time></trkpt><trkpt lat="43.76158" lon="12.1910583"><ele>563.0</ele><time>2026-04-30T14:50:49.653Z</time></trkpt><trkpt lat="43.7615683" lon="12.191195"><ele>563.0</ele><time>2026-04-30T14:50:50.646Z</time></trkpt><trkpt lat="43.7615467" lon="12.1913433"><ele>563.0</ele><time>2026-04-30T14:50:51.653Z</time></trkpt><trkpt lat="43.761525" lon="12.1914917"><ele>563.0</ele><time>2026-04-30T14:50:52.645Z</time></trkpt><trkpt lat="43.7615033" lon="12.1916467"><ele>562.6</ele><time>2026-04-30T14:50:53.642Z</time></trkpt><trkpt lat="43.7614883" lon="12.1918067"><ele>562.1999999999999</ele><time>2026-04-30T14:50:54.648Z</time></trkpt><trkpt lat="43.76148" lon="12.1919617"><ele>561.8</ele><time>2026-04-30T14:50:55.646Z</time></trkpt><trkpt lat="43.7614683" lon="12.192115"><ele>561.4</ele><time>2026-04-30T14:50:56.648Z</time></trkpt><trkpt lat="43.76147" lon="12.192265"><ele>561.0</ele><time>2026-04-30T14:50:57.649Z</time></trkpt><trkpt lat="43.7614717" lon="12.1924117"><ele>560.1666666666666</ele><time>2026-04-30T14:50:58.657Z</time></trkpt><trkpt lat="43.7614733" lon="12.1925433"><ele>559.3333333333334</ele><time>2026-04-30T14:50:59.643Z</time></trkpt><trkpt lat="43.761475" lon="12.1926583"><ele>558.5</ele><time>2026-04-30T14:51:00.645Z</time></trkpt><trkpt lat="43.7614767" lon="12.192765"><ele>557.6666666666667</ele><time>2026-04-30T14:51:01.644Z</time></trkpt><trkpt lat="43.7614867" lon="12.192855"><ele>556.8333333333334</ele><time>2026-04-30T14:51:02.645Z</time></trkpt><trkpt lat="43.7615317" lon="12.19298"><ele>556.0</ele><time>2026-04-30T14:51:04.646Z</time></trkpt><trkpt lat="43.7615767" lon="12.1930683"><ele>556.0</ele><time>2026-04-30T14:51:07.651Z</time></trkpt><trkpt lat="43.7615233" lon="12.19315"><ele>556.0</ele><time>2026-04-30T14:52:11.647Z</time></trkpt><trkpt lat="43.76143" lon="12.1931383"><ele>556.0</ele><time>2026-04-30T14:52:13.659Z</time></trkpt><trkpt lat="43.7613367" lon="12.19304"><ele>556.0</ele><time>2026-04-30T14:52:15.649Z</time></trkpt><trkpt lat="43.7612417" lon="12.19295"><ele>556.0</ele><time>2026-04-30T14:52:17.648Z</time></trkpt><trkpt lat="43.761155" lon="12.192885"><ele>556.0</ele><time>2026-04-30T14:52:19.654Z</time></trkpt><trkpt lat="43.7610783" lon="12.192835"><ele>556.0</ele><time>2026-04-30T14:52:21.657Z</time></trkpt><trkpt lat="43.7610067" lon="12.1927667"><ele>556.0</ele><time>2026-04-30T14:52:23.645Z</time></trkpt><trkpt lat="43.760935" lon="12.1926933"><ele>556.0</ele><time>2026-04-30T14:52:25.652Z</time></trkpt><trkpt lat="43.7608683" lon="12.1926283"><ele>556.0</ele><time>2026-04-30T14:52:27.661Z</time></trkpt><trkpt lat="43.7608067" lon="12.1925583"><ele>556.0</ele><time>2026-04-30T14:52:29.648Z</time></trkpt><trkpt lat="43.7607383" lon="12.1924917"><ele>558.8</ele><time>2026-04-30T14:52:31.658Z</time></trkpt><trkpt lat="43.7606583" lon="12.1924217"><ele>561.6</ele><time>2026-04-30T14:52:33.645Z</time></trkpt><trkpt lat="43.7605683" lon="12.1923467"><ele>564.4</ele><time>2026-04-30T14:52:35.638Z</time></trkpt><trkpt lat="43.7604767" lon="12.1922683"><ele>567.2</ele><time>2026-04-30T14:52:37.655Z</time></trkpt><trkpt lat="43.7603783" lon="12.1921517"><ele>570.0</ele><time>2026-04-30T14:52:39.656Z</time></trkpt><trkpt lat="43.7603283" lon="12.192065"><ele>570.0</ele><time>2026-04-30T14:52:40.649Z</time></trkpt><trkpt lat="43.7602833" lon="12.1919633"><ele>570.0</ele><time>2026-04-30T14:52:41.643Z</time></trkpt><trkpt lat="43.7602417" lon="12.1918533"><ele>570.0</ele><time>2026-04-30T14:52:42.657Z</time></trkpt><trkpt lat="43.7601967" lon="12.1917317"><ele>570.0</ele><time>2026-04-30T14:52:43.658Z</time></trkpt><trkpt lat="43.760145" lon="12.1915933"><ele>570.0</ele><time>2026-04-30T14:52:44.647Z</time></trkpt><trkpt lat="43.7600883" lon="12.1914533"><ele>573.75</ele><time>2026-04-30T14:52:45.649Z</time></trkpt><trkpt lat="43.7600267" lon="12.19131"><ele>577.5</ele><time>2026-04-30T14:52:46.638Z</time></trkpt><trkpt lat="43.7599617" lon="12.191175"><ele>581.25</ele><time>2026-04-30T14:52:47.647Z</time></trkpt><trkpt lat="43.7598917" lon="12.191055"><ele>585.0</ele><time>2026-04-30T14:52:48.65Z</time></trkpt><trkpt lat="43.7598" lon="12.190945"><ele>585.0</ele><time>2026-04-30T14:52:49.647Z</time></trkpt><trkpt lat="43.7596983" lon="12.1908567"><ele>585.0</ele><time>2026-04-30T14:52:50.649Z</time></trkpt><trkpt lat="43.7595967" lon="12.190785"><ele>585.0</ele><time>2026-04-30T14:52:51.651Z</time></trkpt><trkpt lat="43.759505" lon="12.19071"><ele>585.0</ele><time>2026-04-30T14:52:52.651Z</time></trkpt><trkpt lat="43.7594233" lon="12.19063"><ele>585.0</ele><time>2026-04-30T14:52:53.649Z</time></trkpt><trkpt lat="43.7593567" lon="12.1905333"><ele>580.75</ele><time>2026-04-30T14:52:54.663Z</time></trkpt><trkpt lat="43.7593033" lon="12.190415"><ele>576.5</ele><time>2026-04-30T14:52:55.647Z</time></trkpt><trkpt lat="43.7592583" lon="12.1902583"><ele>572.25</ele><time>2026-04-30T14:52:56.647Z</time></trkpt><trkpt lat="43.7592167" lon="12.1900783"><ele>568.0</ele><time>2026-04-30T14:52:57.643Z</time></trkpt><trkpt lat="43.7591767" lon="12.1899"><ele>571.1999999999999</ele><time>2026-04-30T14:52:58.655Z</time></trkpt><trkpt lat="43.75914" lon="12.1897367"><ele>574.4</ele><time>2026-04-30T14:52:59.647Z</time></trkpt><trkpt lat="43.7591083" lon="12.1895883"><ele>577.5999999999999</ele><time>2026-04-30T14:53:00.645Z</time></trkpt><trkpt lat="43.7590667" lon="12.1894517"><ele>580.8</ele><time>2026-04-30T14:53:01.662Z</time></trkpt><trkpt lat="43.75902" lon="12.1893283"><ele>584.0</ele><time>2026-04-30T14:53:02.646Z</time></trkpt><trkpt lat="43.7589633" lon="12.1892317"><ele>584.0</ele><time>2026-04-30T14:53:03.658Z</time></trkpt><trkpt lat="43.758885" lon="12.18917"><ele>584.0</ele><time>2026-04-30T14:53:04.642Z</time></trkpt><trkpt lat="43.7587783" lon="12.1891383"><ele>584.0</ele><time>2026-04-30T14:53:05.65Z</time></trkpt><trkpt lat="43.758675" lon="12.1891267"><ele>584.0</ele><time>2026-04-30T14:53:06.649Z</time></trkpt><trkpt lat="43.7585833" lon="12.1891067"><ele>584.0</ele><time>2026-04-30T14:53:07.644Z</time></trkpt><trkpt lat="43.7584967" lon="12.189065"><ele>584.6</ele><time>2026-04-30T14:53:08.642Z</time></trkpt><trkpt lat="43.7584133" lon="12.18898"><ele>585.2</ele><time>2026-04-30T14:53:09.643Z</time></trkpt><trkpt lat="43.758325" lon="12.1888733"><ele>585.8000000000001</ele><time>2026-04-30T14:53:10.646Z</time></trkpt><trkpt lat="43.7582367" lon="12.188775"><ele>586.4</ele><time>2026-04-30T14:53:11.644Z</time></trkpt><trkpt lat="43.7581417" lon="12.18869"><ele>587.0</ele><time>2026-04-30T14:53:12.642Z</time></trkpt><trkpt lat="43.7580333" lon="12.1886317"><ele>587.0</ele><time>2026-04-30T14:53:13.646Z</time></trkpt><trkpt lat="43.757915" lon="12.1886067"><ele>587.0</ele><time>2026-04-30T14:53:14.647Z</time></trkpt><trkpt lat="43.7578017" lon="12.18861"><ele>587.0</ele><time>2026-04-30T14:53:15.652Z</time></trkpt><trkpt lat="43.7577033" lon="12.1886383"><ele>587.0</ele><time>2026-04-30T14:53:16.643Z</time></trkpt><trkpt lat="43.757615" lon="12.1886917"><ele>587.0</ele><time>2026-04-30T14:53:17.648Z</time></trkpt><trkpt lat="43.7575433" lon="12.188765"><ele>585.0</ele><time>2026-04-30T14:53:18.651Z</time></trkpt><trkpt lat="43.75748" lon="12.1888783"><ele>583.0</ele><time>2026-04-30T14:53:19.65Z</time></trkpt><trkpt lat="43.757425" lon="12.1890317"><ele>581.0</ele><time>2026-04-30T14:53:20.655Z</time></trkpt><trkpt lat="43.7573667" lon="12.189195"><ele>579.0</ele><time>2026-04-30T14:53:21.656Z</time></trkpt><trkpt lat="43.7573117" lon="12.1893733"><ele>572.75</ele><time>2026-04-30T14:53:22.643Z</time></trkpt><trkpt lat="43.7572567" lon="12.1895467"><ele>566.5</ele><time>2026-04-30T14:53:23.643Z</time></trkpt><trkpt lat="43.75722" lon="12.1897167"><ele>560.25</ele><time>2026-04-30T14:53:24.654Z</time></trkpt><trkpt lat="43.7571933" lon="12.1898883"><ele>554.0</ele><time>2026-04-30T14:53:25.65Z</time></trkpt><trkpt lat="43.757165" lon="12.19006"><ele>551.2</ele><time>2026-04-30T14:53:26.644Z</time></trkpt><trkpt lat="43.7571367" lon="12.1902267"><ele>548.4</ele><time>2026-04-30T14:53:27.652Z</time></trkpt><trkpt lat="43.75711" lon="12.1903733"><ele>545.6</ele><time>2026-04-30T14:53:28.642Z</time></trkpt><trkpt lat="43.75709" lon="12.1905167"><ele>542.8</ele><time>2026-04-30T14:53:29.65Z</time></trkpt><trkpt lat="43.7570633" lon="12.1906417"><ele>540.0</ele><time>2026-04-30T14:53:30.642Z</time></trkpt><trkpt lat="43.75704" lon="12.190755"><ele>539.8</ele><time>2026-04-30T14:53:31.641Z</time></trkpt><trkpt lat="43.7570067" lon="12.1908417"><ele>539.6</ele><time>2026-04-30T14:53:32.638Z</time></trkpt><trkpt lat="43.7569117" lon="12.19092"><ele>539.4</ele><time>2026-04-30T14:53:34.653Z</time></trkpt><trkpt lat="43.7568017" lon="12.190805"><ele>539.2</ele><time>2026-04-30T14:53:36.649Z</time></trkpt><trkpt lat="43.756755" lon="12.1907133"><ele>539.0</ele><time>2026-04-30T14:53:37.65Z</time></trkpt><trkpt lat="43.7567067" lon="12.190625"><ele>542.3333333333333</ele><time>2026-04-30T14:53:38.649Z</time></trkpt><trkpt lat="43.7566417" lon="12.1905533"><ele>545.6666666666666</ele><time>2026-04-30T14:53:39.65Z</time></trkpt><trkpt lat="43.7565667" lon="12.1904933"><ele>549.0</ele><time>2026-04-30T14:53:40.644Z</time></trkpt><trkpt lat="43.7564917" lon="12.1904433"><ele>552.3333333333334</ele><time>2026-04-30T14:53:41.639Z</time></trkpt><trkpt lat="43.7564233" lon="12.1903917"><ele>555.6666666666667</ele><time>2026-04-30T14:53:42.645Z</time></trkpt><trkpt lat="43.756355" lon="12.1903433"><ele>559.0</ele><time>2026-04-30T14:53:43.646Z</time></trkpt><trkpt lat="43.75629" lon="12.190295"><ele>559.0</ele><time>2026-04-30T14:53:44.649Z</time></trkpt><trkpt lat="43.7562383" lon="12.190235"><ele>559.0</ele><time>2026-04-30T14:53:45.653Z</time></trkpt><trkpt lat="43.756198" lon="12.1901634"><ele>559.0</ele><time>2026-04-30T14:53:46.645Z</time></trkpt><trkpt lat="43.7561783" lon="12.1900735"><ele>559.0</ele><time>2026-04-30T14:53:47.645Z</time></trkpt><trkpt lat="43.7561699" lon="12.1899754"><ele>559.0</ele><time>2026-04-30T14:53:48.644Z</time></trkpt><trkpt lat="43.7561651" lon="12.1898758"><ele>559.0</ele><time>2026-04-30T14:53:49.651Z</time></trkpt><trkpt lat="43.7561543" lon="12.1897741"><ele>559.0</ele><time>2026-04-30T14:53:50.653Z</time></trkpt><trkpt lat="43.7561324" lon="12.1896745"><ele>557.1666666666667</ele><time>2026-04-30T14:53:51.644Z</time></trkpt><trkpt lat="43.7561002" lon="12.1895746"><ele>555.3333333333334</ele><time>2026-04-30T14:53:52.651Z</time></trkpt><trkpt lat="43.7560532" lon="12.1894795"><ele>553.5</ele><time>2026-04-30T14:53:53.655Z</time></trkpt><trkpt lat="43.7559987" lon="12.1893966"><ele>551.6666666666666</ele><time>2026-04-30T14:53:54.645Z</time></trkpt><trkpt lat="43.7559404" lon="12.1893233"><ele>549.8333333333333</ele><time>2026-04-30T14:53:55.652Z</time></trkpt><trkpt lat="43.7558811" lon="12.1892582"><ele>548.0</ele><time>2026-04-30T14:53:56.639Z</time></trkpt><trkpt lat="43.7558269" lon="12.1891927"><ele>548.0</ele><time>2026-04-30T14:53:57.639Z</time></trkpt><trkpt lat="43.7557827" lon="12.1891262"><ele>548.0</ele><time>2026-04-30T14:53:58.648Z</time></trkpt><trkpt lat="43.755692" lon="12.1890296"><ele>548.0</ele><time>2026-04-30T14:54:00.641Z</time></trkpt><trkpt lat="43.755572" lon="12.1890259"><ele>548.0</ele><time>2026-04-30T14:54:02.644Z</time></trkpt><trkpt lat="43.7555043" lon="12.1890944"><ele>548.0</ele><time>2026-04-30T14:54:03.658Z</time></trkpt><trkpt lat="43.7554402" lon="12.1891784"><ele>548.0</ele><time>2026-04-30T14:54:04.64Z</time></trkpt><trkpt lat="43.7553746" lon="12.1892539"><ele>548.0</ele><time>2026-04-30T14:54:05.653Z</time></trkpt><trkpt lat="43.7553074" lon="12.1893145"><ele>548.0</ele><time>2026-04-30T14:54:06.647Z</time></trkpt><trkpt lat="43.7552453" lon="12.1893673"><ele>548.0</ele><time>2026-04-30T14:54:07.649Z</time></trkpt><trkpt lat="43.7551914" lon="12.1894278"><ele>548.0</ele><time>2026-04-30T14:54:08.643Z</time></trkpt><trkpt lat="43.7551412" lon="12.1895212"><ele>548.0</ele><time>2026-04-30T14:54:09.645Z</time></trkpt><trkpt lat="43.7550985" lon="12.1896216"><ele>549.0</ele><time>2026-04-30T14:54:10.653Z</time></trkpt><trkpt lat="43.7550587" lon="12.1897475"><ele>550.0</ele><time>2026-04-30T14:54:11.65Z</time></trkpt><trkpt lat="43.7550303" lon="12.1898843"><ele>551.0</ele><time>2026-04-30T14:54:12.647Z</time></trkpt><trkpt lat="43.7550063" lon="12.1900185"><ele>552.0</ele><time>2026-04-30T14:54:13.639Z</time></trkpt><trkpt lat="43.7549844" lon="12.1901506"><ele>553.0</ele><time>2026-04-30T14:54:14.659Z</time></trkpt><trkpt lat="43.7549601" lon="12.1902744"><ele>549.8333333333334</ele><time>2026-04-30T14:54:15.651Z</time></trkpt><trkpt lat="43.7549323" lon="12.1903952"><ele>546.6666666666667</ele><time>2026-04-30T14:54:16.65Z</time></trkpt><trkpt lat="43.7549146" lon="12.190512"><ele>543.5</ele><time>2026-04-30T14:54:17.648Z</time></trkpt><trkpt lat="43.7549087" lon="12.1906253"><ele>540.3333333333334</ele><time>2026-04-30T14:54:18.644Z</time></trkpt><trkpt lat="43.7549186" lon="12.1907456"><ele>537.1666666666666</ele><time>2026-04-30T14:54:19.657Z</time></trkpt><trkpt lat="43.7549301" lon="12.1908677"><ele>534.0</ele><time>2026-04-30T14:54:20.65Z</time></trkpt><trkpt lat="43.754953" lon="12.1909885"><ele>531.8333333333334</ele><time>2026-04-30T14:54:21.647Z</time></trkpt><trkpt lat="43.7549743" lon="12.1911034"><ele>529.6666666666666</ele><time>2026-04-30T14:54:22.65Z</time></trkpt><trkpt lat="43.754985" lon="12.191212"><ele>527.5</ele><time>2026-04-30T14:54:23.646Z</time></trkpt><trkpt lat="43.7549833" lon="12.1913112"><ele>525.3333333333333</ele><time>2026-04-30T14:54:24.64Z</time></trkpt><trkpt lat="43.7549689" lon="12.1913966"><ele>523.1666666666666</ele><time>2026-04-30T14:54:25.646Z</time></trkpt><trkpt lat="43.7549011" lon="12.1915198"><ele>521.0</ele><time>2026-04-30T14:54:27.66Z</time></trkpt><trkpt lat="43.7548386" lon="12.1915694"><ele>517.6666666666666</ele><time>2026-04-30T14:54:28.644Z</time></trkpt><trkpt lat="43.7547565" lon="12.1916144"><ele>514.3333333333333</ele><time>2026-04-30T14:54:29.64Z</time></trkpt><trkpt lat="43.7546743" lon="12.1916631"><ele>511.0</ele><time>2026-04-30T14:54:30.643Z</time></trkpt><trkpt lat="43.7545987" lon="12.1917198"><ele>507.66666666666663</ele><time>2026-04-30T14:54:31.658Z</time></trkpt><trkpt lat="43.7545376" lon="12.1917816"><ele>504.3333333333333</ele><time>2026-04-30T14:54:32.645Z</time></trkpt><trkpt lat="43.7544942" lon="12.1918717"><ele>501.0</ele><time>2026-04-30T14:54:33.652Z</time></trkpt><trkpt lat="43.7544783" lon="12.1919863"><ele>501.0</ele><time>2026-04-30T14:54:34.65Z</time></trkpt><trkpt lat="43.7544805" lon="12.1921047"><ele>501.0</ele><time>2026-04-30T14:54:35.653Z</time></trkpt><trkpt lat="43.7544802" lon="12.192218"><ele>501.0</ele><time>2026-04-30T14:54:36.644Z</time></trkpt><trkpt lat="43.7544653" lon="12.1923298"><ele>501.0</ele><time>2026-04-30T14:54:37.642Z</time></trkpt><trkpt lat="43.7544272" lon="12.192437"><ele>501.0</ele><time>2026-04-30T14:54:38.643Z</time></trkpt><trkpt lat="43.7543711" lon="12.1925406"><ele>501.0</ele><time>2026-04-30T14:54:39.649Z</time></trkpt><trkpt lat="43.7543088" lon="12.1926405"><ele>504.0</ele><time>2026-04-30T14:54:40.655Z</time></trkpt><trkpt lat="43.7542476" lon="12.1927338"><ele>507.0</ele><time>2026-04-30T14:54:41.64Z</time></trkpt><trkpt lat="43.7541909" lon="12.1928216"><ele>510.0</ele><time>2026-04-30T14:54:42.646Z</time></trkpt><trkpt lat="43.75414" lon="12.1929011"><ele>513.0</ele><time>2026-04-30T14:54:43.648Z</time></trkpt><trkpt lat="43.7540916" lon="12.1929744"><ele>516.0</ele><time>2026-04-30T14:54:44.645Z</time></trkpt><trkpt lat="43.7540391" lon="12.1930359"><ele>519.0</ele><time>2026-04-30T14:54:45.646Z</time></trkpt><trkpt lat="43.7539777" lon="12.1930812"><ele>519.0</ele><time>2026-04-30T14:54:46.65Z</time></trkpt><trkpt lat="43.7539101" lon="12.1931025"><ele>519.0</ele><time>2026-04-30T14:54:47.646Z</time></trkpt><trkpt lat="43.7538371" lon="12.1931001"><ele>519.0</ele><time>2026-04-30T14:54:48.644Z</time></trkpt><trkpt lat="43.7537621" lon="12.1930776"><ele>519.0</ele><time>2026-04-30T14:54:49.657Z</time></trkpt><trkpt lat="43.7536936" lon="12.1930556"><ele>519.0</ele><time>2026-04-30T14:54:50.656Z</time></trkpt><trkpt lat="43.7536305" lon="12.193049"><ele>519.0</ele><time>2026-04-30T14:54:51.663Z</time></trkpt><trkpt lat="43.753565" lon="12.1930675"><ele>519.0</ele><time>2026-04-30T14:54:52.644Z</time></trkpt><trkpt lat="43.7534917" lon="12.1931133"><ele>520.0</ele><time>2026-04-30T14:54:53.652Z</time></trkpt><trkpt lat="43.753415" lon="12.19316"><ele>521.0</ele><time>2026-04-30T14:54:54.65Z</time></trkpt><trkpt lat="43.7533417" lon="12.1932033"><ele>522.0</ele><time>2026-04-30T14:54:55.654Z</time></trkpt><trkpt lat="43.7532717" lon="12.1932217"><ele>523.0</ele><time>2026-04-30T14:54:56.652Z</time></trkpt><trkpt lat="43.7532" lon="12.1932317"><ele>524.0</ele><time>2026-04-30T14:54:57.641Z</time></trkpt><trkpt lat="43.7531167" lon="12.1932217"><ele>525.0</ele><time>2026-04-30T14:54:58.648Z</time></trkpt><trkpt lat="43.7530217" lon="12.1931933"><ele>525.0</ele><time>2026-04-30T14:54:59.654Z</time></trkpt><trkpt lat="43.75293" lon="12.1931533"><ele>525.0</ele><time>2026-04-30T14:55:00.647Z</time></trkpt><trkpt lat="43.75284" lon="12.1931167"><ele>525.0</ele><time>2026-04-30T14:55:01.649Z</time></trkpt><trkpt lat="43.7527483" lon="12.193085"><ele>525.0</ele><time>2026-04-30T14:55:02.652Z</time></trkpt><trkpt lat="43.75265" lon="12.193075"><ele>525.0</ele><time>2026-04-30T14:55:03.648Z</time></trkpt><trkpt lat="43.7525483" lon="12.1930767"><ele>521.0</ele><time>2026-04-30T14:55:04.644Z</time></trkpt><trkpt lat="43.7524517" lon="12.1930833"><ele>517.0</ele><time>2026-04-30T14:55:05.651Z</time></trkpt><trkpt lat="43.7523567" lon="12.1930983"><ele>513.0</ele><time>2026-04-30T14:55:06.647Z</time></trkpt><trkpt lat="43.752265" lon="12.1931083"><ele>509.0</ele><time>2026-04-30T14:55:07.645Z</time></trkpt><trkpt lat="43.7521733" lon="12.19311"><ele>505.0</ele><time>2026-04-30T14:55:08.649Z</time></trkpt><trkpt lat="43.7520783" lon="12.1931067"><ele>505.0</ele><time>2026-04-30T14:55:09.656Z</time></trkpt><trkpt lat="43.7519717" lon="12.19311"><ele>505.0</ele><time>2026-04-30T14:55:10.653Z</time></trkpt><trkpt lat="43.7518633" lon="12.193115"><ele>505.0</ele><time>2026-04-30T14:55:11.649Z</time></trkpt><trkpt lat="43.7517583" lon="12.1931217"><ele>505.0</ele><time>2026-04-30T14:55:12.653Z</time></trkpt><trkpt lat="43.7516567" lon="12.1931417"><ele>505.0</ele><time>2026-04-30T14:55:13.65Z</time></trkpt><trkpt lat="43.7515583" lon="12.1931667"><ele>500.33333333333337</ele><time>2026-04-30T14:55:14.65Z</time></trkpt><trkpt lat="43.7514617" lon="12.1931983"><ele>495.6666666666667</ele><time>2026-04-30T14:55:15.65Z</time></trkpt><trkpt lat="43.75138" lon="12.19323"><ele>491.0</ele><time>2026-04-30T14:55:16.641Z</time></trkpt><trkpt lat="43.7513017" lon="12.193265"><ele>486.33333333333337</ele><time>2026-04-30T14:55:17.646Z</time></trkpt><trkpt lat="43.7512167" lon="12.1932967"><ele>481.6666666666667</ele><time>2026-04-30T14:55:18.647Z</time></trkpt><trkpt lat="43.7511317" lon="12.1933133"><ele>477.0</ele><time>2026-04-30T14:55:19.648Z</time></trkpt><trkpt lat="43.7510483" lon="12.1933083"><ele>479.0</ele><time>2026-04-30T14:55:20.65Z</time></trkpt><trkpt lat="43.750975" lon="12.1932733"><ele>481.0</ele><time>2026-04-30T14:55:21.64Z</time></trkpt><trkpt lat="43.7509083" lon="12.19323"><ele>483.0</ele><time>2026-04-30T14:55:22.652Z</time></trkpt><trkpt lat="43.7508517" lon="12.19317"><ele>485.0</ele><time>2026-04-30T14:55:23.659Z</time></trkpt><trkpt lat="43.7508117" lon="12.1930967"><ele>487.0</ele><time>2026-04-30T14:55:24.647Z</time></trkpt><trkpt lat="43.7507533" lon="12.1929833"><ele>489.0</ele><time>2026-04-30T14:55:26.652Z</time></trkpt><trkpt lat="43.7506767" lon="12.19304"><ele>489.0</ele><time>2026-04-30T14:55:28.64Z</time></trkpt><trkpt lat="43.7506683" lon="12.1931883"><ele>489.0</ele><time>2026-04-30T14:55:30.653Z</time></trkpt><trkpt lat="43.75069" lon="12.193275"><ele>489.0</ele><time>2026-04-30T14:55:31.656Z</time></trkpt><trkpt lat="43.750755" lon="12.19336"><ele>489.0</ele><time>2026-04-30T14:55:32.647Z</time></trkpt><trkpt lat="43.7508133" lon="12.1934383"><ele>489.0</ele><time>2026-04-30T14:55:33.649Z</time></trkpt><trkpt lat="43.75086" lon="12.1935033"><ele>489.0</ele><time>2026-04-30T14:55:34.645Z</time></trkpt><trkpt lat="43.7508967" lon="12.193625"><ele>489.0</ele><time>2026-04-30T14:55:36.642Z</time></trkpt><trkpt lat="43.7508483" lon="12.193725"><ele>489.0</ele><time>2026-04-30T14:55:38.648Z</time></trkpt><trkpt lat="43.7507317" lon="12.19373"><ele>489.0</ele><time>2026-04-30T14:55:40.652Z</time></trkpt><trkpt lat="43.7506017" lon="12.1936767"><ele>489.0</ele><time>2026-04-30T14:55:42.65Z</time></trkpt><trkpt lat="43.75052" lon="12.193645"><ele>489.0</ele><time>2026-04-30T14:55:43.657Z</time></trkpt><trkpt lat="43.7504333" lon="12.1936267"><ele>489.0</ele><time>2026-04-30T14:55:44.645Z</time></trkpt><trkpt lat="43.7503433" lon="12.19362"><ele>489.0</ele><time>2026-04-30T14:55:45.65Z</time></trkpt><trkpt lat="43.7502433" lon="12.1936333"><ele>489.0</ele><time>2026-04-30T14:55:46.65Z</time></trkpt><trkpt lat="43.75015" lon="12.19368"><ele>489.0</ele><time>2026-04-30T14:55:47.647Z</time></trkpt><trkpt lat="43.75006" lon="12.1937383"><ele>489.0</ele><time>2026-04-30T14:55:48.646Z</time></trkpt><trkpt lat="43.749965" lon="12.1938117"><ele>489.5</ele><time>2026-04-30T14:55:49.652Z</time></trkpt><trkpt lat="43.7498617" lon="12.19389"><ele>490.0</ele><time>2026-04-30T14:55:50.647Z</time></trkpt><trkpt lat="43.7497567" lon="12.193975"><ele>490.5</ele><time>2026-04-30T14:55:51.658Z</time></trkpt><trkpt lat="43.7496533" lon="12.1940633"><ele>491.0</ele><time>2026-04-30T14:55:52.648Z</time></trkpt><trkpt lat="43.7495483" lon="12.19415"><ele>491.0</ele><time>2026-04-30T14:55:53.643Z</time></trkpt><trkpt lat="43.74944" lon="12.1942367"><ele>491.0</ele><time>2026-04-30T14:55:54.646Z</time></trkpt><trkpt lat="43.7493483" lon="12.1943183"><ele>491.0</ele><time>2026-04-30T14:55:55.656Z</time></trkpt><trkpt lat="43.7492667" lon="12.1943983"><ele>491.0</ele><time>2026-04-30T14:55:56.646Z</time></trkpt><trkpt lat="43.74918" lon="12.194465"><ele>491.0</ele><time>2026-04-30T14:55:57.646Z</time></trkpt><trkpt lat="43.7490917" lon="12.1945283"><ele>499.20000000000005</ele><time>2026-04-30T14:55:58.647Z</time></trkpt><trkpt lat="43.7489967" lon="12.1945867"><ele>507.40000000000003</ele><time>2026-04-30T14:55:59.646Z</time></trkpt><trkpt lat="43.7488967" lon="12.19464"><ele>515.6</ele><time>2026-04-30T14:56:00.641Z</time></trkpt><trkpt lat="43.7487917" lon="12.19469"><ele>523.8000000000001</ele><time>2026-04-30T14:56:01.66Z</time></trkpt><trkpt lat="43.7486883" lon="12.19473"><ele>532.0</ele><time>2026-04-30T14:56:02.655Z</time></trkpt><trkpt lat="43.7485917" lon="12.1947633"><ele>530.8333333333334</ele><time>2026-04-30T14:56:03.647Z</time></trkpt><trkpt lat="43.7485" lon="12.1947933"><ele>529.6666666666667</ele><time>2026-04-30T14:56:04.648Z</time></trkpt><trkpt lat="43.7484167" lon="12.1948333"><ele>528.5</ele><time>2026-04-30T14:56:05.652Z</time></trkpt><trkpt lat="43.7483417" lon="12.1948633"><ele>527.3333333333334</ele><time>2026-04-30T14:56:06.656Z</time></trkpt><trkpt lat="43.7482783" lon="12.19489"><ele>526.1666666666666</ele><time>2026-04-30T14:56:07.642Z</time></trkpt><trkpt lat="43.7481733" lon="12.194895"><ele>525.0</ele><time>2026-04-30T14:56:09.651Z</time></trkpt><trkpt lat="43.7480583" lon="12.1948267"><ele>532.5</ele><time>2026-04-30T14:56:11.648Z</time></trkpt><trkpt lat="43.7479983" lon="12.1947817"><ele>540.0</ele><time>2026-04-30T14:56:12.649Z</time></trkpt><trkpt lat="43.747935" lon="12.194745"><ele>547.5</ele><time>2026-04-30T14:56:13.645Z</time></trkpt><trkpt lat="43.7478667" lon="12.1947283"><ele>555.0</ele><time>2026-04-30T14:56:14.664Z</time></trkpt><trkpt lat="43.7477867" lon="12.1947267"><ele>562.5</ele><time>2026-04-30T14:56:15.64Z</time></trkpt><trkpt lat="43.7476983" lon="12.194725"><ele>570.0</ele><time>2026-04-30T14:56:16.642Z</time></trkpt><trkpt lat="43.7476017" lon="12.194715"><ele>570.0</ele><time>2026-04-30T14:56:17.661Z</time></trkpt><trkpt lat="43.7475067" lon="12.19469"><ele>570.0</ele><time>2026-04-30T14:56:18.646Z</time></trkpt><trkpt lat="43.7474217" lon="12.1946617"><ele>570.0</ele><time>2026-04-30T14:56:19.647Z</time></trkpt><trkpt lat="43.7473483" lon="12.194625"><ele>570.0</ele><time>2026-04-30T14:56:20.647Z</time></trkpt><trkpt lat="43.747275" lon="12.1945883"><ele>570.0</ele><time>2026-04-30T14:56:21.64Z</time></trkpt><trkpt lat="43.7471967" lon="12.1945467"><ele>570.0</ele><time>2026-04-30T14:56:22.655Z</time></trkpt><trkpt lat="43.7471183" lon="12.1944967"><ele>570.0</ele><time>2026-04-30T14:56:23.642Z</time></trkpt><trkpt lat="43.74704" lon="12.1944367"><ele>570.0</ele><time>2026-04-30T14:56:24.656Z</time></trkpt><trkpt lat="43.7469633" lon="12.1943733"><ele>570.0</ele><time>2026-04-30T14:56:25.651Z</time></trkpt><trkpt lat="43.7468883" lon="12.1943067"><ele>570.0</ele><time>2026-04-30T14:56:26.641Z</time></trkpt><trkpt lat="43.7468117" lon="12.1942267"><ele>570.0</ele><time>2026-04-30T14:56:27.646Z</time></trkpt><trkpt lat="43.7467317" lon="12.194145"><ele>570.6</ele><time>2026-04-30T14:56:28.646Z</time></trkpt><trkpt lat="43.7466583" lon="12.19406"><ele>571.2</ele><time>2026-04-30T14:56:29.653Z</time></trkpt><trkpt lat="43.7465833" lon="12.1939717"><ele>571.8</ele><time>2026-04-30T14:56:30.64Z</time></trkpt><trkpt lat="43.7465067" lon="12.193885"><ele>572.4</ele><time>2026-04-30T14:56:31.647Z</time></trkpt><trkpt lat="43.746425" lon="12.1937983"><ele>573.0</ele><time>2026-04-30T14:56:32.644Z</time></trkpt><trkpt lat="43.7463417" lon="12.19372"><ele>573.0</ele><time>2026-04-30T14:56:33.65Z</time></trkpt><trkpt lat="43.7462583" lon="12.19365"><ele>573.0</ele><time>2026-04-30T14:56:34.65Z</time></trkpt><trkpt lat="43.7461683" lon="12.19359"><ele>573.0</ele><time>2026-04-30T14:56:35.648Z</time></trkpt><trkpt lat="43.7460617" lon="12.193545"><ele>573.0</ele><time>2026-04-30T14:56:36.644Z</time></trkpt><trkpt lat="43.7459467" lon="12.19351"><ele>573.0</ele><time>2026-04-30T14:56:37.653Z</time></trkpt><trkpt lat="43.745825" lon="12.1934917"><ele>571.0</ele><time>2026-04-30T14:56:38.649Z</time></trkpt><trkpt lat="43.7457017" lon="12.19348"><ele>569.0</ele><time>2026-04-30T14:56:39.649Z</time></trkpt><trkpt lat="43.7455733" lon="12.193475"><ele>567.0</ele><time>2026-04-30T14:56:40.649Z</time></trkpt><trkpt lat="43.7454517" lon="12.1934683"><ele>565.0</ele><time>2026-04-30T14:56:41.64Z</time></trkpt><trkpt lat="43.7453317" lon="12.1934583"><ele>565.0</ele><time>2026-04-30T14:56:42.638Z</time></trkpt><trkpt lat="43.745215" lon="12.1934483"><ele>565.0</ele><time>2026-04-30T14:56:43.649Z</time></trkpt><trkpt lat="43.7451067" lon="12.19344"><ele>565.0</ele><time>2026-04-30T14:56:44.652Z</time></trkpt><trkpt lat="43.7450067" lon="12.1934383"><ele>565.0</ele><time>2026-04-30T14:56:45.651Z</time></trkpt><trkpt lat="43.7449083" lon="12.1934333"><ele>565.0</ele><time>2026-04-30T14:56:46.647Z</time></trkpt><trkpt lat="43.7448083" lon="12.1934267"><ele>565.8333333333334</ele><time>2026-04-30T14:56:47.647Z</time></trkpt><trkpt lat="43.7447083" lon="12.1934217"><ele>566.6666666666667</ele><time>2026-04-30T14:56:48.649Z</time></trkpt><trkpt lat="43.7446167" lon="12.1934217"><ele>567.5</ele><time>2026-04-30T14:56:49.64Z</time></trkpt><trkpt lat="43.7445383" lon="12.1934183"><ele>568.3333333333334</ele><time>2026-04-30T14:56:50.65Z</time></trkpt><trkpt lat="43.7444617" lon="12.1934083"><ele>569.1666666666666</ele><time>2026-04-30T14:56:51.654Z</time></trkpt><trkpt lat="43.74438" lon="12.1933917"><ele>570.0</ele><time>2026-04-30T14:56:52.645Z</time></trkpt><trkpt lat="43.7442983" lon="12.19337"><ele>571.0</ele><time>2026-04-30T14:56:53.64Z</time></trkpt><trkpt lat="43.7442117" lon="12.1933433"><ele>572.0</ele><time>2026-04-30T14:56:54.655Z</time></trkpt><trkpt lat="43.7441133" lon="12.193315"><ele>573.0</ele><time>2026-04-30T14:56:55.647Z</time></trkpt><trkpt lat="43.74401" lon="12.1932867"><ele>574.0</ele><time>2026-04-30T14:56:56.642Z</time></trkpt><trkpt lat="43.7439167" lon="12.1932483"><ele>575.0</ele><time>2026-04-30T14:56:57.652Z</time></trkpt><trkpt lat="43.7438333" lon="12.1932267"><ele>575.0</ele><time>2026-04-30T14:56:58.643Z</time></trkpt><trkpt lat="43.7437567" lon="12.19323"><ele>575.0</ele><time>2026-04-30T14:56:59.648Z</time></trkpt><trkpt lat="43.7436917" lon="12.19325"><ele>575.0</ele><time>2026-04-30T14:57:00.646Z</time></trkpt><trkpt lat="43.7436267" lon="12.1932983"><ele>575.0</ele><time>2026-04-30T14:57:01.647Z</time></trkpt><trkpt lat="43.74357" lon="12.1933833"><ele>575.0</ele><time>2026-04-30T14:57:02.652Z</time></trkpt><trkpt lat="43.74352" lon="12.1934933"><ele>575.0</ele><time>2026-04-30T14:57:03.645Z</time></trkpt><trkpt lat="43.743475" lon="12.1936033"><ele>576.2</ele><time>2026-04-30T14:57:04.648Z</time></trkpt><trkpt lat="43.743425" lon="12.1937117"><ele>577.4</ele><time>2026-04-30T14:57:05.64Z</time></trkpt><trkpt lat="43.7433783" lon="12.1938217"><ele>578.6</ele><time>2026-04-30T14:57:06.651Z</time></trkpt><trkpt lat="43.743335" lon="12.1939367"><ele>579.8</ele><time>2026-04-30T14:57:07.652Z</time></trkpt><trkpt lat="43.7432867" lon="12.1940517"><ele>581.0</ele><time>2026-04-30T14:57:08.639Z</time></trkpt><trkpt lat="43.7432317" lon="12.1941683"><ele>581.0</ele><time>2026-04-30T14:57:09.643Z</time></trkpt><trkpt lat="43.7431717" lon="12.1942783"><ele>581.0</ele><time>2026-04-30T14:57:10.646Z</time></trkpt><trkpt lat="43.7431033" lon="12.1943717"><ele>581.0</ele><time>2026-04-30T14:57:11.648Z</time></trkpt><trkpt lat="43.7430233" lon="12.1944383"><ele>581.0</ele><time>2026-04-30T14:57:12.657Z</time></trkpt><trkpt lat="43.7429317" lon="12.1944883"><ele>581.0</ele><time>2026-04-30T14:57:13.647Z</time></trkpt><trkpt lat="43.742825" lon="12.1945183"><ele>584.6</ele><time>2026-04-30T14:57:14.647Z</time></trkpt><trkpt lat="43.7427133" lon="12.194555"><ele>588.2</ele><time>2026-04-30T14:57:15.645Z</time></trkpt><trkpt lat="43.7426033" lon="12.1945983"><ele>591.8</ele><time>2026-04-30T14:57:16.641Z</time></trkpt><trkpt lat="43.7424967" lon="12.1946467"><ele>595.4</ele><time>2026-04-30T14:57:17.646Z</time></trkpt><trkpt lat="43.7424" lon="12.194695"><ele>599.0</ele><time>2026-04-30T14:57:18.648Z</time></trkpt><trkpt lat="43.7423167" lon="12.1947383"><ele>599.0</ele><time>2026-04-30T14:57:19.648Z</time></trkpt><trkpt lat="43.7422417" lon="12.1947817"><ele>599.0</ele><time>2026-04-30T14:57:20.64Z</time></trkpt><trkpt lat="43.7421817" lon="12.1948133"><ele>599.0</ele><time>2026-04-30T14:57:21.649Z</time></trkpt><trkpt lat="43.7421" lon="12.1948617"><ele>599.0</ele><time>2026-04-30T14:57:23.648Z</time></trkpt><trkpt lat="43.7420283" lon="12.1948733"><ele>599.0</ele><time>2026-04-30T14:57:36.65Z</time></trkpt><trkpt lat="43.7419717" lon="12.1949133"><ele>599.0</ele><time>2026-04-30T14:57:39.654Z</time></trkpt><trkpt lat="43.7419183" lon="12.1949667"><ele>599.0</ele><time>2026-04-30T14:57:41.646Z</time></trkpt><trkpt lat="43.7418367" lon="12.1950267"><ele>599.8333333333333</ele><time>2026-04-30T14:57:43.643Z</time></trkpt><trkpt lat="43.7417783" lon="12.19507"><ele>600.6666666666666</ele><time>2026-04-30T14:57:44.647Z</time></trkpt><trkpt lat="43.7417033" lon="12.1951317"><ele>601.5</ele><time>2026-04-30T14:57:45.651Z</time></trkpt><trkpt lat="43.7416217" lon="12.195205"><ele>602.3333333333334</ele><time>2026-04-30T14:57:46.641Z</time></trkpt><trkpt lat="43.7415417" lon="12.1952783"><ele>603.1666666666667</ele><time>2026-04-30T14:57:47.654Z</time></trkpt><trkpt lat="43.7414683" lon="12.19534"><ele>604.0</ele><time>2026-04-30T14:57:48.644Z</time></trkpt><trkpt lat="43.7414017" lon="12.195385"><ele>604.0</ele><time>2026-04-30T14:57:49.646Z</time></trkpt><trkpt lat="43.74134" lon="12.1954167"><ele>604.0</ele><time>2026-04-30T14:57:50.639Z</time></trkpt><trkpt lat="43.7412333" lon="12.1954283"><ele>604.0</ele><time>2026-04-30T14:57:52.653Z</time></trkpt><trkpt lat="43.74115" lon="12.1953067"><ele>604.0</ele><time>2026-04-30T14:57:54.649Z</time></trkpt><trkpt lat="43.7411133" lon="12.1951833"><ele>604.0</ele><time>2026-04-30T14:57:55.646Z</time></trkpt><trkpt lat="43.74108" lon="12.1950533"><ele>603.0</ele><time>2026-04-30T14:57:56.66Z</time></trkpt><trkpt lat="43.7410483" lon="12.19492"><ele>602.0</ele><time>2026-04-30T14:57:57.649Z</time></trkpt><trkpt lat="43.7410167" lon="12.194785"><ele>601.0</ele><time>2026-04-30T14:57:58.647Z</time></trkpt><trkpt lat="43.7409883" lon="12.1946517"><ele>600.0</ele><time>2026-04-30T14:57:59.652Z</time></trkpt><trkpt lat="43.74096" lon="12.1945183"><ele>599.0</ele><time>2026-04-30T14:58:00.653Z</time></trkpt><trkpt lat="43.7409367" lon="12.1943817"><ele>599.0</ele><time>2026-04-30T14:58:01.641Z</time></trkpt><trkpt lat="43.7409267" lon="12.1942433"><ele>599.0</ele><time>2026-04-30T14:58:02.648Z</time></trkpt><trkpt lat="43.7409267" lon="12.1940983"><ele>599.0</ele><time>2026-04-30T14:58:03.646Z</time></trkpt><trkpt lat="43.7409283" lon="12.19395"><ele>599.0</ele><time>2026-04-30T14:58:04.644Z</time></trkpt><trkpt lat="43.740935" lon="12.1938033"><ele>599.0</ele><time>2026-04-30T14:58:05.642Z</time></trkpt><trkpt lat="43.7409467" lon="12.193655"><ele>599.8</ele><time>2026-04-30T14:58:06.651Z</time></trkpt><trkpt lat="43.7409567" lon="12.193515"><ele>600.5999999999999</ele><time>2026-04-30T14:58:07.65Z</time></trkpt><trkpt lat="43.7409633" lon="12.1933767"><ele>601.4</ele><time>2026-04-30T14:58:08.652Z</time></trkpt><trkpt lat="43.7409683" lon="12.1932417"><ele>602.1999999999999</ele><time>2026-04-30T14:58:09.645Z</time></trkpt><trkpt lat="43.7409633" lon="12.1931117"><ele>603.0</ele><time>2026-04-30T14:58:10.639Z</time></trkpt><trkpt lat="43.7409517" lon="12.1929883"><ele>605.3333333333334</ele><time>2026-04-30T14:58:11.645Z</time></trkpt><trkpt lat="43.740935" lon="12.1928667"><ele>607.6666666666666</ele><time>2026-04-30T14:58:12.645Z</time></trkpt><trkpt lat="43.740915" lon="12.1927517"><ele>610.0</ele><time>2026-04-30T14:58:13.645Z</time></trkpt><trkpt lat="43.74089" lon="12.19265"><ele>612.3333333333333</ele><time>2026-04-30T14:58:14.653Z</time></trkpt><trkpt lat="43.74085" lon="12.192555"><ele>614.6666666666666</ele><time>2026-04-30T14:58:15.649Z</time></trkpt><trkpt lat="43.7407983" lon="12.1924683"><ele>617.0</ele><time>2026-04-30T14:58:16.657Z</time></trkpt><trkpt lat="43.7407333" lon="12.192385"><ele>620.5</ele><time>2026-04-30T14:58:17.649Z</time></trkpt><trkpt lat="43.7406683" lon="12.1923117"><ele>624.0</ele><time>2026-04-30T14:58:18.643Z</time></trkpt><trkpt lat="43.7406067" lon="12.1922517"><ele>627.5</ele><time>2026-04-30T14:58:19.648Z</time></trkpt><trkpt lat="43.7405433" lon="12.1922083"><ele>631.0</ele><time>2026-04-30T14:58:20.652Z</time></trkpt><trkpt lat="43.7404233" lon="12.192185"><ele>634.5</ele><time>2026-04-30T14:58:22.643Z</time></trkpt><trkpt lat="43.74036" lon="12.1922033"><ele>638.0</ele><time>2026-04-30T14:58:23.652Z</time></trkpt><trkpt lat="43.7402917" lon="12.19226"><ele>632.75</ele><time>2026-04-30T14:58:24.645Z</time></trkpt><trkpt lat="43.7402117" lon="12.19235"><ele>627.5</ele><time>2026-04-30T14:58:25.646Z</time></trkpt><trkpt lat="43.7401183" lon="12.192435"><ele>622.25</ele><time>2026-04-30T14:58:26.658Z</time></trkpt><trkpt lat="43.7400083" lon="12.1925233"><ele>617.0</ele><time>2026-04-30T14:58:27.651Z</time></trkpt><trkpt lat="43.7399" lon="12.192605"><ele>617.0</ele><time>2026-04-30T14:58:28.65Z</time></trkpt><trkpt lat="43.739795" lon="12.1926917"><ele>617.0</ele><time>2026-04-30T14:58:29.648Z</time></trkpt><trkpt lat="43.7397017" lon="12.1927767"><ele>617.0</ele><time>2026-04-30T14:58:30.65Z</time></trkpt><trkpt lat="43.7396133" lon="12.1928817"><ele>617.0</ele><time>2026-04-30T14:58:31.642Z</time></trkpt><trkpt lat="43.73953" lon="12.19298"><ele>617.0</ele><time>2026-04-30T14:58:32.647Z</time></trkpt><trkpt lat="43.73945" lon="12.1930667"><ele>617.0</ele><time>2026-04-30T14:58:33.644Z</time></trkpt><trkpt lat="43.739375" lon="12.1931467"><ele>617.0</ele><time>2026-04-30T14:58:34.654Z</time></trkpt><trkpt lat="43.7393067" lon="12.19323"><ele>617.0</ele><time>2026-04-30T14:58:35.65Z</time></trkpt><trkpt lat="43.7392433" lon="12.19331"><ele>617.0</ele><time>2026-04-30T14:58:36.642Z</time></trkpt><trkpt lat="43.7391867" lon="12.1933783"><ele>617.0</ele><time>2026-04-30T14:58:37.645Z</time></trkpt><trkpt lat="43.7391333" lon="12.19343"><ele>618.5</ele><time>2026-04-30T14:58:38.649Z</time></trkpt><trkpt lat="43.7390317" lon="12.19346"><ele>620.0</ele><time>2026-04-30T14:58:40.647Z</time></trkpt><trkpt lat="43.7389383" lon="12.1933917"><ele>621.5</ele><time>2026-04-30T14:58:42.645Z</time></trkpt><trkpt lat="43.7389033" lon="12.1933183"><ele>623.0</ele><time>2026-04-30T14:58:43.65Z</time></trkpt><trkpt lat="43.7388783" lon="12.1932117"><ele>624.5</ele><time>2026-04-30T14:58:44.644Z</time></trkpt><trkpt lat="43.738865" lon="12.1930967"><ele>626.0</ele><time>2026-04-30T14:58:45.65Z</time></trkpt><trkpt lat="43.7388533" lon="12.19298"><ele>626.0</ele><time>2026-04-30T14:58:46.644Z</time></trkpt><trkpt lat="43.7388367" lon="12.1928617"><ele>626.0</ele><time>2026-04-30T14:58:47.655Z</time></trkpt><trkpt lat="43.738815" lon="12.1927517"><ele>626.0</ele><time>2026-04-30T14:58:48.643Z</time></trkpt><trkpt lat="43.7387867" lon="12.192645"><ele>626.0</ele><time>2026-04-30T14:58:49.642Z</time></trkpt><trkpt lat="43.7387517" lon="12.192535"><ele>626.0</ele><time>2026-04-30T14:58:50.642Z</time></trkpt><trkpt lat="43.7387133" lon="12.192425"><ele>626.0</ele><time>2026-04-30T14:58:51.648Z</time></trkpt><trkpt lat="43.7386783" lon="12.1923183"><ele>625.5</ele><time>2026-04-30T14:58:52.645Z</time></trkpt><trkpt lat="43.73865" lon="12.1922183"><ele>625.0</ele><time>2026-04-30T14:58:53.646Z</time></trkpt><trkpt lat="43.7386283" lon="12.1921317"><ele>624.5</ele><time>2026-04-30T14:58:54.648Z</time></trkpt><trkpt lat="43.738585" lon="12.192005"><ele>624.0</ele><time>2026-04-30T14:58:56.641Z</time></trkpt><trkpt lat="43.7385217" lon="12.1919467"><ele>623.5</ele><time>2026-04-30T14:58:58.649Z</time></trkpt><trkpt lat="43.7384317" lon="12.1919783"><ele>623.0</ele><time>2026-04-30T14:59:00.651Z</time></trkpt><trkpt lat="43.73837" lon="12.1920317"><ele>623.0</ele><time>2026-04-30T14:59:01.648Z</time></trkpt><trkpt lat="43.738285" lon="12.1920817"><ele>623.0</ele><time>2026-04-30T14:59:02.651Z</time></trkpt><trkpt lat="43.7382083" lon="12.1921067"><ele>623.0</ele><time>2026-04-30T14:59:03.649Z</time></trkpt><trkpt lat="43.73813" lon="12.19211"><ele>623.0</ele><time>2026-04-30T14:59:04.646Z</time></trkpt><trkpt lat="43.73805" lon="12.1921233"><ele>623.0</ele><time>2026-04-30T14:59:05.655Z</time></trkpt><trkpt lat="43.737975" lon="12.19213"><ele>623.0</ele><time>2026-04-30T14:59:06.644Z</time></trkpt><trkpt lat="43.7378983" lon="12.192135"><ele>623.0</ele><time>2026-04-30T14:59:07.648Z</time></trkpt><trkpt lat="43.737815" lon="12.1921483"><ele>623.0</ele><time>2026-04-30T14:59:08.644Z</time></trkpt><trkpt lat="43.7377333" lon="12.1921683"><ele>623.0</ele><time>2026-04-30T14:59:09.649Z</time></trkpt><trkpt lat="43.737655" lon="12.192205"><ele>623.0</ele><time>2026-04-30T14:59:10.645Z</time></trkpt><trkpt lat="43.7375717" lon="12.1922367"><ele>623.0</ele><time>2026-04-30T14:59:11.646Z</time></trkpt><trkpt lat="43.7374783" lon="12.19228"><ele>623.0</ele><time>2026-04-30T14:59:12.654Z</time></trkpt><trkpt lat="43.7373817" lon="12.1923217"><ele>623.0</ele><time>2026-04-30T14:59:13.639Z</time></trkpt><trkpt lat="43.7372833" lon="12.1923667"><ele>623.0</ele><time>2026-04-30T14:59:14.651Z</time></trkpt><trkpt lat="43.7371883" lon="12.1924067"><ele>623.0</ele><time>2026-04-30T14:59:15.648Z</time></trkpt><trkpt lat="43.7370867" lon="12.1924517"><ele>623.0</ele><time>2026-04-30T14:59:16.65Z</time></trkpt><trkpt lat="43.7369817" lon="12.192495"><ele>623.0</ele><time>2026-04-30T14:59:17.646Z</time></trkpt><trkpt lat="43.736875" lon="12.1925417"><ele>623.0</ele><time>2026-04-30T14:59:18.644Z</time></trkpt><trkpt lat="43.7367717" lon="12.1925867"><ele>623.0</ele><time>2026-04-30T14:59:19.653Z</time></trkpt><trkpt lat="43.73667" lon="12.1926367"><ele>623.0</ele><time>2026-04-30T14:59:20.643Z</time></trkpt><trkpt lat="43.736575" lon="12.192685"><ele>623.0</ele><time>2026-04-30T14:59:21.644Z</time></trkpt><trkpt lat="43.73648" lon="12.192735"><ele>623.0</ele><time>2026-04-30T14:59:22.65Z</time></trkpt><trkpt lat="43.736385" lon="12.1927883"><ele>623.0</ele><time>2026-04-30T14:59:23.653Z</time></trkpt><trkpt lat="43.7362883" lon="12.192835"><ele>623.0</ele><time>2026-04-30T14:59:24.655Z</time></trkpt><trkpt lat="43.7361967" lon="12.1928833"><ele>623.0</ele><time>2026-04-30T14:59:25.641Z</time></trkpt><trkpt lat="43.7361133" lon="12.1929233"><ele>623.0</ele><time>2026-04-30T14:59:26.641Z</time></trkpt><trkpt lat="43.7360267" lon="12.1929617"><ele>623.0</ele><time>2026-04-30T14:59:27.657Z</time></trkpt><trkpt lat="43.73594" lon="12.1929967"><ele>623.5</ele><time>2026-04-30T14:59:28.65Z</time></trkpt><trkpt lat="43.735855" lon="12.193035"><ele>624.0</ele><time>2026-04-30T14:59:29.645Z</time></trkpt><trkpt lat="43.73577" lon="12.193085"><ele>624.5</ele><time>2026-04-30T14:59:30.649Z</time></trkpt><trkpt lat="43.7356867" lon="12.1931417"><ele>625.0</ele><time>2026-04-30T14:59:31.646Z</time></trkpt><trkpt lat="43.7356067" lon="12.1931933"><ele>625.5</ele><time>2026-04-30T14:59:32.653Z</time></trkpt><trkpt lat="43.7355283" lon="12.193225"><ele>626.0</ele><time>2026-04-30T14:59:33.64Z</time></trkpt><trkpt lat="43.7354317" lon="12.1932033"><ele>628.5</ele><time>2026-04-30T14:59:35.651Z</time></trkpt><trkpt lat="43.735395" lon="12.1931067"><ele>631.0</ele><time>2026-04-30T14:59:37.644Z</time></trkpt><trkpt lat="43.7354317" lon="12.1929617"><ele>633.5</ele><time>2026-04-30T14:59:39.652Z</time></trkpt><trkpt lat="43.7354683" lon="12.1928667"><ele>636.0</ele><time>2026-04-30T14:59:40.656Z</time></trkpt><trkpt lat="43.7354967" lon="12.192775"><ele>638.5</ele><time>2026-04-30T14:59:41.641Z</time></trkpt><trkpt lat="43.73552" lon="12.19269"><ele>641.0</ele><time>2026-04-30T14:59:42.646Z</time></trkpt><trkpt lat="43.7355417" lon="12.1925983"><ele>641.0</ele><time>2026-04-30T14:59:43.645Z</time></trkpt><trkpt lat="43.7355617" lon="12.1925017"><ele>641.0</ele><time>2026-04-30T14:59:44.645Z</time></trkpt><trkpt lat="43.7355833" lon="12.1924067"><ele>641.0</ele><time>2026-04-30T14:59:45.649Z</time></trkpt><trkpt lat="43.73561" lon="12.1923167"><ele>641.0</ele><time>2026-04-30T14:59:46.641Z</time></trkpt><trkpt lat="43.7356467" lon="12.1922317"><ele>641.0</ele><time>2026-04-30T14:59:47.648Z</time></trkpt><trkpt lat="43.735675" lon="12.192145"><ele>641.0</ele><time>2026-04-30T14:59:48.647Z</time></trkpt><trkpt lat="43.73571" lon="12.1920667"><ele>641.0</ele><time>2026-04-30T14:59:49.647Z</time></trkpt><trkpt lat="43.7357533" lon="12.191985"><ele>644.8333333333333</ele><time>2026-04-30T14:59:50.647Z</time></trkpt><trkpt lat="43.735805" lon="12.1919217"><ele>648.6666666666666</ele><time>2026-04-30T14:59:51.65Z</time></trkpt><trkpt lat="43.735865" lon="12.191865"><ele>652.5</ele><time>2026-04-30T14:59:52.643Z</time></trkpt><trkpt lat="43.7359233" lon="12.1918067"><ele>656.3333333333334</ele><time>2026-04-30T14:59:53.645Z</time></trkpt><trkpt lat="43.7359733" lon="12.1917483"><ele>660.1666666666667</ele><time>2026-04-30T14:59:54.647Z</time></trkpt><trkpt lat="43.7360283" lon="12.1916383"><ele>664.0</ele><time>2026-04-30T14:59:56.647Z</time></trkpt><trkpt lat="43.736" lon="12.1915417"><ele>664.0</ele><time>2026-04-30T14:59:58.641Z</time></trkpt><trkpt lat="43.7359183" lon="12.1915467"><ele>664.0</ele><time>2026-04-30T15:00:00.657Z</time></trkpt><trkpt lat="43.7358633" lon="12.1916017"><ele>664.0</ele><time>2026-04-30T15:00:01.648Z</time></trkpt><trkpt lat="43.7357917" lon="12.191665"><ele>664.0</ele><time>2026-04-30T15:00:02.641Z</time></trkpt><trkpt lat="43.7357133" lon="12.191695"><ele>664.0</ele><time>2026-04-30T15:00:03.644Z</time></trkpt><trkpt lat="43.7356267" lon="12.1917183"><ele>664.0</ele><time>2026-04-30T15:00:04.645Z</time></trkpt><trkpt lat="43.7355433" lon="12.1917433"><ele>664.0</ele><time>2026-04-30T15:00:05.654Z</time></trkpt><trkpt lat="43.7354683" lon="12.1917683"><ele>664.0</ele><time>2026-04-30T15:00:06.644Z</time></trkpt><trkpt lat="43.7353983" lon="12.1917917"><ele>664.0</ele><time>2026-04-30T15:00:07.644Z</time></trkpt><trkpt lat="43.7353267" lon="12.1918083"><ele>664.0</ele><time>2026-04-30T15:00:08.647Z</time></trkpt><trkpt lat="43.7352583" lon="12.19181"><ele>664.0</ele><time>2026-04-30T15:00:09.642Z</time></trkpt><trkpt lat="43.7351967" lon="12.1917833"><ele>664.0</ele><time>2026-04-30T15:00:10.648Z</time></trkpt><trkpt lat="43.735155" lon="12.191635"><ele>664.5</ele><time>2026-04-30T15:00:12.649Z</time></trkpt><trkpt lat="43.7352" lon="12.1915"><ele>665.0</ele><time>2026-04-30T15:00:14.646Z</time></trkpt><trkpt lat="43.7352583" lon="12.191445"><ele>665.5</ele><time>2026-04-30T15:00:16.646Z</time></trkpt><trkpt lat="43.73529" lon="12.191345"><ele>666.0</ele><time>2026-04-30T15:02:09.657Z</time></trkpt><trkpt lat="43.7352833" lon="12.19125"><ele>666.5</ele><time>2026-04-30T15:02:11.652Z</time></trkpt><trkpt lat="43.7352867" lon="12.1910983"><ele>667.0</ele><time>2026-04-30T15:02:13.65Z</time></trkpt><trkpt lat="43.7352883" lon="12.19099"><ele>668.6666666666667</ele><time>2026-04-30T15:02:14.658Z</time></trkpt><trkpt lat="43.7352833" lon="12.19087"><ele>670.3333333333334</ele><time>2026-04-30T15:02:15.644Z</time></trkpt><trkpt lat="43.7352733" lon="12.19075"><ele>672.0</ele><time>2026-04-30T15:02:16.662Z</time></trkpt><trkpt lat="43.73525" lon="12.1906283"><ele>673.6666666666666</ele><time>2026-04-30T15:02:17.65Z</time></trkpt><trkpt lat="43.7352183" lon="12.1905117"><ele>675.3333333333333</ele><time>2026-04-30T15:02:18.647Z</time></trkpt><trkpt lat="43.7351783" lon="12.1904133"><ele>677.0</ele><time>2026-04-30T15:02:19.641Z</time></trkpt><trkpt lat="43.7351367" lon="12.1903233"><ele>677.6666666666666</ele><time>2026-04-30T15:02:20.639Z</time></trkpt><trkpt lat="43.7350767" lon="12.1902467"><ele>678.3333333333333</ele><time>2026-04-30T15:02:21.648Z</time></trkpt><trkpt lat="43.7350117" lon="12.1901817"><ele>679.0</ele><time>2026-04-30T15:02:22.646Z</time></trkpt><trkpt lat="43.73494" lon="12.19013"><ele>679.6666666666666</ele><time>2026-04-30T15:02:23.651Z</time></trkpt><trkpt lat="43.734865" lon="12.190085"><ele>680.3333333333334</ele><time>2026-04-30T15:02:24.638Z</time></trkpt><trkpt lat="43.734785" lon="12.19004"><ele>681.0</ele><time>2026-04-30T15:02:25.646Z</time></trkpt><trkpt lat="43.734685" lon="12.1899817"><ele>681.0</ele><time>2026-04-30T15:02:26.65Z</time></trkpt><trkpt lat="43.73458" lon="12.1899217"><ele>681.0</ele><time>2026-04-30T15:02:27.647Z</time></trkpt><trkpt lat="43.7344767" lon="12.1898683"><ele>681.0</ele><time>2026-04-30T15:02:28.646Z</time></trkpt><trkpt lat="43.7343783" lon="12.18982"><ele>681.0</ele><time>2026-04-30T15:02:29.645Z</time></trkpt><trkpt lat="43.73429" lon="12.18978"><ele>681.0</ele><time>2026-04-30T15:02:30.645Z</time></trkpt><trkpt lat="43.734205" lon="12.1897433"><ele>680.3333333333334</ele><time>2026-04-30T15:02:31.643Z</time></trkpt><trkpt lat="43.7341233" lon="12.1897"><ele>679.6666666666666</ele><time>2026-04-30T15:02:32.645Z</time></trkpt><trkpt lat="43.734055" lon="12.1896467"><ele>679.0</ele><time>2026-04-30T15:02:33.642Z</time></trkpt><trkpt lat="43.734005" lon="12.1895783"><ele>678.3333333333333</ele><time>2026-04-30T15:02:34.642Z</time></trkpt><trkpt lat="43.73397" lon="12.1894917"><ele>677.6666666666666</ele><time>2026-04-30T15:02:35.647Z</time></trkpt><trkpt lat="43.7339517" lon="12.1893717"><ele>677.0</ele><time>2026-04-30T15:02:36.652Z</time></trkpt><trkpt lat="43.7339467" lon="12.18924"><ele>677.0</ele><time>2026-04-30T15:02:37.655Z</time></trkpt><trkpt lat="43.7339417" lon="12.18912"><ele>677.0</ele><time>2026-04-30T15:02:38.643Z</time></trkpt><trkpt lat="43.7339317" lon="12.1890183"><ele>677.0</ele><time>2026-04-30T15:02:39.648Z</time></trkpt><trkpt lat="43.733915" lon="12.1889217"><ele>677.0</ele><time>2026-04-30T15:02:40.642Z</time></trkpt><trkpt lat="43.7338783" lon="12.1888283"><ele>677.0</ele><time>2026-04-30T15:02:41.641Z</time></trkpt><trkpt lat="43.7338167" lon="12.1887417"><ele>677.0</ele><time>2026-04-30T15:02:42.656Z</time></trkpt><trkpt lat="43.7337083" lon="12.1886633"><ele>677.4000000000001</ele><time>2026-04-30T15:02:43.644Z</time></trkpt><trkpt lat="43.733605" lon="12.1885967"><ele>677.8000000000001</ele><time>2026-04-30T15:02:44.647Z</time></trkpt><trkpt lat="43.7335083" lon="12.1885483"><ele>678.2</ele><time>2026-04-30T15:02:45.64Z</time></trkpt><trkpt lat="43.7334183" lon="12.188515"><ele>678.6</ele><time>2026-04-30T15:02:46.641Z</time></trkpt><trkpt lat="43.7333233" lon="12.188495"><ele>679.0</ele><time>2026-04-30T15:02:47.642Z</time></trkpt><trkpt lat="43.73323" lon="12.1884717"><ele>679.0</ele><time>2026-04-30T15:02:48.652Z</time></trkpt><trkpt lat="43.7331367" lon="12.188435"><ele>679.0</ele><time>2026-04-30T15:02:49.639Z</time></trkpt><trkpt lat="43.73304" lon="12.1883917"><ele>679.0</ele><time>2026-04-30T15:02:50.644Z</time></trkpt><trkpt lat="43.732955" lon="12.18835"><ele>679.0</ele><time>2026-04-30T15:02:51.65Z</time></trkpt><trkpt lat="43.73287" lon="12.1883217"><ele>679.0</ele><time>2026-04-30T15:02:52.645Z</time></trkpt><trkpt lat="43.7327833" lon="12.188315"><ele>678.6666666666667</ele><time>2026-04-30T15:02:53.642Z</time></trkpt><trkpt lat="43.7327" lon="12.1883267"><ele>678.3333333333334</ele><time>2026-04-30T15:02:54.638Z</time></trkpt><trkpt lat="43.7326217" lon="12.18835"><ele>678.0</ele><time>2026-04-30T15:02:55.642Z</time></trkpt><trkpt lat="43.7325367" lon="12.1883817"><ele>677.6666666666666</ele><time>2026-04-30T15:02:56.642Z</time></trkpt><trkpt lat="43.732455" lon="12.188405"><ele>677.3333333333333</ele><time>2026-04-30T15:02:57.644Z</time></trkpt><trkpt lat="43.7323733" lon="12.1884183"><ele>677.0</ele><time>2026-04-30T15:02:58.652Z</time></trkpt><trkpt lat="43.7322933" lon="12.1883967"><ele>677.0</ele><time>2026-04-30T15:02:59.65Z</time></trkpt><trkpt lat="43.732215" lon="12.1883467"><ele>677.0</ele><time>2026-04-30T15:03:00.646Z</time></trkpt><trkpt lat="43.732135" lon="12.1882783"><ele>677.0</ele><time>2026-04-30T15:03:01.642Z</time></trkpt><trkpt lat="43.7320617" lon="12.1881883"><ele>677.0</ele><time>2026-04-30T15:03:02.646Z</time></trkpt><trkpt lat="43.7319933" lon="12.188085"><ele>677.0</ele><time>2026-04-30T15:03:03.651Z</time></trkpt><trkpt lat="43.7319317" lon="12.1879683"><ele>675.6666666666666</ele><time>2026-04-30T15:03:04.643Z</time></trkpt><trkpt lat="43.7318833" lon="12.1878483"><ele>674.3333333333333</ele><time>2026-04-30T15:03:05.639Z</time></trkpt><trkpt lat="43.7318567" lon="12.187725"><ele>673.0</ele><time>2026-04-30T15:03:06.647Z</time></trkpt><trkpt lat="43.7318517" lon="12.1876"><ele>671.6666666666666</ele><time>2026-04-30T15:03:07.651Z</time></trkpt><trkpt lat="43.7318533" lon="12.1874817"><ele>670.3333333333334</ele><time>2026-04-30T15:03:08.646Z</time></trkpt><trkpt lat="43.7318583" lon="12.1873767"><ele>669.0</ele><time>2026-04-30T15:03:09.642Z</time></trkpt><trkpt lat="43.73187" lon="12.187275"><ele>669.0</ele><time>2026-04-30T15:03:10.648Z</time></trkpt><trkpt lat="43.7318883" lon="12.18716"><ele>669.0</ele><time>2026-04-30T15:03:11.649Z</time></trkpt><trkpt lat="43.7319133" lon="12.1870283"><ele>669.0</ele><time>2026-04-30T15:03:12.649Z</time></trkpt><trkpt lat="43.731945" lon="12.1869"><ele>669.0</ele><time>2026-04-30T15:03:13.643Z</time></trkpt><trkpt lat="43.7319833" lon="12.1867683"><ele>669.0</ele><time>2026-04-30T15:03:14.652Z</time></trkpt><trkpt lat="43.7320283" lon="12.18664"><ele>671.0</ele><time>2026-04-30T15:03:15.648Z</time></trkpt><trkpt lat="43.7320667" lon="12.1865133"><ele>673.0</ele><time>2026-04-30T15:03:16.648Z</time></trkpt><trkpt lat="43.7321083" lon="12.1863983"><ele>675.0</ele><time>2026-04-30T15:03:17.645Z</time></trkpt><trkpt lat="43.732155" lon="12.1862867"><ele>677.0</ele><time>2026-04-30T15:03:18.638Z</time></trkpt><trkpt lat="43.7321983" lon="12.1861817"><ele>679.0</ele><time>2026-04-30T15:03:19.646Z</time></trkpt><trkpt lat="43.732235" lon="12.1860783"><ele>679.0</ele><time>2026-04-30T15:03:20.652Z</time></trkpt><trkpt lat="43.7322817" lon="12.185985"><ele>679.0</ele><time>2026-04-30T15:03:21.643Z</time></trkpt><trkpt lat="43.73234" lon="12.1858883"><ele>679.0</ele><time>2026-04-30T15:03:22.648Z</time></trkpt><trkpt lat="43.7324083" lon="12.1857983"><ele>679.0</ele><time>2026-04-30T15:03:23.647Z</time></trkpt><trkpt lat="43.7324783" lon="12.1857117"><ele>679.0</ele><time>2026-04-30T15:03:24.64Z</time></trkpt><trkpt lat="43.7325433" lon="12.1856033"><ele>681.75</ele><time>2026-04-30T15:03:25.654Z</time></trkpt><trkpt lat="43.7325967" lon="12.18547"><ele>684.5</ele><time>2026-04-30T15:03:26.655Z</time></trkpt><trkpt lat="43.7326483" lon="12.1853283"><ele>687.25</ele><time>2026-04-30T15:03:27.653Z</time></trkpt><trkpt lat="43.7327" lon="12.185185"><ele>690.0</ele><time>2026-04-30T15:03:28.65Z</time></trkpt><trkpt lat="43.73275" lon="12.1850333"><ele>690.0</ele><time>2026-04-30T15:03:29.644Z</time></trkpt><trkpt lat="43.73281" lon="12.184895"><ele>690.0</ele><time>2026-04-30T15:03:30.655Z</time></trkpt><trkpt lat="43.73287" lon="12.18476"><ele>690.0</ele><time>2026-04-30T15:03:31.656Z</time></trkpt><trkpt lat="43.7329367" lon="12.1846333"><ele>690.0</ele><time>2026-04-30T15:03:32.65Z</time></trkpt><trkpt lat="43.7330017" lon="12.1845217"><ele>690.0</ele><time>2026-04-30T15:03:33.654Z</time></trkpt><trkpt lat="43.733065" lon="12.1844133"><ele>685.0</ele><time>2026-04-30T15:03:34.644Z</time></trkpt><trkpt lat="43.7331317" lon="12.1843167"><ele>680.0</ele><time>2026-04-30T15:03:35.647Z</time></trkpt><trkpt lat="43.7332" lon="12.1842267"><ele>675.0</ele><time>2026-04-30T15:03:36.646Z</time></trkpt><trkpt lat="43.7332717" lon="12.1841467"><ele>670.0</ele><time>2026-04-30T15:03:37.644Z</time></trkpt><trkpt lat="43.7333483" lon="12.1840717"><ele>665.0</ele><time>2026-04-30T15:03:38.648Z</time></trkpt><trkpt lat="43.733425" lon="12.1840067"><ele>667.3333333333333</ele><time>2026-04-30T15:03:39.647Z</time></trkpt><trkpt lat="43.7334983" lon="12.183955"><ele>669.6666666666666</ele><time>2026-04-30T15:03:40.647Z</time></trkpt><trkpt lat="43.73356" lon="12.1839017"><ele>672.0</ele><time>2026-04-30T15:03:41.658Z</time></trkpt><trkpt lat="43.7336117" lon="12.1838367"><ele>674.3333333333334</ele><time>2026-04-30T15:03:42.647Z</time></trkpt><trkpt lat="43.733655" lon="12.18376"><ele>676.6666666666667</ele><time>2026-04-30T15:03:43.65Z</time></trkpt><trkpt lat="43.733675" lon="12.18365"><ele>679.0</ele><time>2026-04-30T15:03:44.645Z</time></trkpt><trkpt lat="43.7336667" lon="12.1835133"><ele>679.0</ele><time>2026-04-30T15:03:45.648Z</time></trkpt><trkpt lat="43.7336717" lon="12.1833833"><ele>679.0</ele><time>2026-04-30T15:03:46.651Z</time></trkpt><trkpt lat="43.7336933" lon="12.1832583"><ele>679.0</ele><time>2026-04-30T15:03:47.646Z</time></trkpt><trkpt lat="43.7337217" lon="12.183135"><ele>679.0</ele><time>2026-04-30T15:03:48.649Z</time></trkpt><trkpt lat="43.73374" lon="12.1829983"><ele>679.0</ele><time>2026-04-30T15:03:49.643Z</time></trkpt><trkpt lat="43.7337567" lon="12.1828783"><ele>677.3333333333334</ele><time>2026-04-30T15:03:50.653Z</time></trkpt><trkpt lat="43.73377" lon="12.18277"><ele>675.6666666666667</ele><time>2026-04-30T15:03:51.647Z</time></trkpt><trkpt lat="43.73379" lon="12.1826683"><ele>674.0</ele><time>2026-04-30T15:03:52.651Z</time></trkpt><trkpt lat="43.7338067" lon="12.1825517"><ele>672.3333333333334</ele><time>2026-04-30T15:03:53.642Z</time></trkpt><trkpt lat="43.7338283" lon="12.1824283"><ele>670.6666666666666</ele><time>2026-04-30T15:03:54.649Z</time></trkpt><trkpt lat="43.7338483" lon="12.18229"><ele>669.0</ele><time>2026-04-30T15:03:55.648Z</time></trkpt><trkpt lat="43.733865" lon="12.1821467"><ele>667.2</ele><time>2026-04-30T15:03:56.648Z</time></trkpt><trkpt lat="43.73388" lon="12.1820067"><ele>665.4000000000001</ele><time>2026-04-30T15:03:57.645Z</time></trkpt><trkpt lat="43.7338933" lon="12.18188"><ele>663.6</ele><time>2026-04-30T15:03:58.646Z</time></trkpt><trkpt lat="43.7339067" lon="12.1817517"><ele>661.8</ele><time>2026-04-30T15:03:59.65Z</time></trkpt><trkpt lat="43.73393" lon="12.1816333"><ele>660.0</ele><time>2026-04-30T15:04:00.648Z</time></trkpt><trkpt lat="43.7339633" lon="12.1815267"><ele>657.5</ele><time>2026-04-30T15:04:01.655Z</time></trkpt><trkpt lat="43.7340017" lon="12.181425"><ele>655.0</ele><time>2026-04-30T15:04:02.654Z</time></trkpt><trkpt lat="43.7340417" lon="12.18132"><ele>652.5</ele><time>2026-04-30T15:04:03.649Z</time></trkpt><trkpt lat="43.7340867" lon="12.1812217"><ele>650.0</ele><time>2026-04-30T15:04:04.641Z</time></trkpt><trkpt lat="43.7341367" lon="12.18113"><ele>647.5</ele><time>2026-04-30T15:04:05.644Z</time></trkpt><trkpt lat="43.7342017" lon="12.18103"><ele>645.0</ele><time>2026-04-30T15:04:06.653Z</time></trkpt><trkpt lat="43.734265" lon="12.1809467"><ele>645.0</ele><time>2026-04-30T15:04:07.644Z</time></trkpt><trkpt lat="43.7343167" lon="12.1808633"><ele>645.0</ele><time>2026-04-30T15:04:08.657Z</time></trkpt><trkpt lat="43.7343483" lon="12.18078"><ele>645.0</ele><time>2026-04-30T15:04:09.645Z</time></trkpt><trkpt lat="43.7343567" lon="12.18069"><ele>645.0</ele><time>2026-04-30T15:04:10.65Z</time></trkpt><trkpt lat="43.73435" lon="12.1805933"><ele>645.0</ele><time>2026-04-30T15:04:11.652Z</time></trkpt><trkpt lat="43.7343233" lon="12.1804933"><ele>645.0</ele><time>2026-04-30T15:04:12.642Z</time></trkpt><trkpt lat="43.734295" lon="12.1803833"><ele>645.0</ele><time>2026-04-30T15:04:13.642Z</time></trkpt><trkpt lat="43.7342733" lon="12.180275"><ele>644.5714285714286</ele><time>2026-04-30T15:04:14.642Z</time></trkpt><trkpt lat="43.7342667" lon="12.18017"><ele>644.1428571428571</ele><time>2026-04-30T15:04:15.649Z</time></trkpt><trkpt lat="43.7342767" lon="12.1800733"><ele>643.7142857142857</ele><time>2026-04-30T15:04:16.649Z</time></trkpt><trkpt lat="43.7343067" lon="12.17999"><ele>643.2857142857142</ele><time>2026-04-30T15:04:17.652Z</time></trkpt><trkpt lat="43.734335" lon="12.1798967"><ele>642.8571428571429</ele><time>2026-04-30T15:04:18.653Z</time></trkpt><trkpt lat="43.73436" lon="12.1798"><ele>642.4285714285713</ele><time>2026-04-30T15:04:19.653Z</time></trkpt><trkpt lat="43.7343867" lon="12.1797067"><ele>642.0</ele><time>2026-04-30T15:04:20.643Z</time></trkpt><trkpt lat="43.7344067" lon="12.17961"><ele>642.0</ele><time>2026-04-30T15:04:21.645Z</time></trkpt><trkpt lat="43.7344233" lon="12.1795183"><ele>642.0</ele><time>2026-04-30T15:04:22.643Z</time></trkpt><trkpt lat="43.7344383" lon="12.17943"><ele>642.0</ele><time>2026-04-30T15:04:23.645Z</time></trkpt><trkpt lat="43.7344567" lon="12.1792633"><ele>642.0</ele><time>2026-04-30T15:04:25.643Z</time></trkpt><trkpt lat="43.7344733" lon="12.179105"><ele>642.0</ele><time>2026-04-30T15:04:27.648Z</time></trkpt><trkpt lat="43.7344933" lon="12.178965"><ele>639.5</ele><time>2026-04-30T15:04:29.645Z</time></trkpt><trkpt lat="43.734545" lon="12.1788333"><ele>637.0</ele><time>2026-04-30T15:04:31.645Z</time></trkpt><trkpt lat="43.734585" lon="12.1787617"><ele>634.5</ele><time>2026-04-30T15:04:32.64Z</time></trkpt><trkpt lat="43.7346217" lon="12.1786767"><ele>632.0</ele><time>2026-04-30T15:04:33.647Z</time></trkpt><trkpt lat="43.7346567" lon="12.17859"><ele>629.5</ele><time>2026-04-30T15:04:34.646Z</time></trkpt><trkpt lat="43.7346867" lon="12.17851"><ele>627.0</ele><time>2026-04-30T15:04:35.647Z</time></trkpt><trkpt lat="43.7347483" lon="12.1783783"><ele>627.0</ele><time>2026-04-30T15:04:37.65Z</time></trkpt><trkpt lat="43.7348233" lon="12.1783"><ele>627.0</ele><time>2026-04-30T15:04:39.644Z</time></trkpt><trkpt lat="43.734895" lon="12.1782667"><ele>627.0</ele><time>2026-04-30T15:04:41.643Z</time></trkpt><trkpt lat="43.73498" lon="12.1782467"><ele>627.0</ele><time>2026-04-30T15:04:44.644Z</time></trkpt><trkpt lat="43.7350317" lon="12.1781883"><ele>627.0</ele><time>2026-04-30T15:04:47.651Z</time></trkpt><trkpt lat="43.73512" lon="12.1781067"><ele>633.0</ele><time>2026-04-30T15:11:26.647Z</time></trkpt></trkseg></trk></gpx>